<?xml version='1.0' encoding='UTF-8'?><gpx version="1.1" creator="JPX - https://github.com/jenetics/jpx" xmlns="http://www.topografix.com/GPX/1/1"><trk><trkseg><trkpt lat="-32.26867860132288" lon="115.75559323271699"><ele>6.0</ele><time>2026-03-30T06:02:06Z</time></trkpt><trkpt lat="-32.2686328245518" lon="115.75553755282498"><ele>6.0</ele><time>2026-03-30T06:02:07Z</time></trkpt><trkpt lat="-32.26857323370078" lon="115.75549991889321"><ele>6.0</ele><time>2026-03-30T06:02:08Z</time></trkpt><trkpt lat="-32.268492668242274" lon="115.7554834877671"><ele>6.0</ele><time>2026-03-30T06:02:09Z</time></trkpt><trkpt lat="-32.26837757130315" lon="115.75548665386597"><ele>6.0</ele><time>2026-03-30T06:02:10Z</time></trkpt><trkpt lat="-32.26825806378742" lon="115.75553083903154"><ele>6.0</ele><time>2026-03-30T06:02:11Z</time></trkpt><trkpt lat="-32.26812681051275" lon="115.75561738454992"><ele>6.0</ele><time>2026-03-30T06:02:12Z</time></trkpt><trkpt lat="-32.26797512824778" lon="115.75573866790843"><ele>6.0</ele><time>2026-03-30T06:02:13Z</time></trkpt><trkpt lat="-32.267812221443286" lon="115.75587883033724"><ele>5.5</ele><time>2026-03-30T06:02:14Z</time></trkpt><trkpt lat="-32.26763961103805" lon="115.75603369205555"><ele>5.0</ele><time>2026-03-30T06:02:15Z</time></trkpt><trkpt lat="-32.267446120044575" lon="115.75621810632465"><ele>5.5</ele><time>2026-03-30T06:02:16Z</time></trkpt><trkpt lat="-32.26726128877131" lon="115.75638632573413"><ele>6.0</ele><time>2026-03-30T06:02:17Z</time></trkpt><trkpt lat="-32.26705212877392" lon="115.7565604759255"><ele>6.0</ele><time>2026-03-30T06:02:18Z</time></trkpt><trkpt lat="-32.2668250467893" lon="115.75674528808197"><ele>6.0</ele><time>2026-03-30T06:02:19Z</time></trkpt><trkpt lat="-32.26660427781739" lon="115.75692260862944"><ele>4.5</ele><time>2026-03-30T06:02:20Z</time></trkpt><trkpt lat="-32.26640240225571" lon="115.7570801567583"><ele>3.0</ele><time>2026-03-30T06:02:21Z</time></trkpt><trkpt lat="-32.26621927551665" lon="115.75722042546657"><ele>3.0</ele><time>2026-03-30T06:02:22Z</time></trkpt><trkpt lat="-32.26605046139763" lon="115.75735433319903"><ele>3.0</ele><time>2026-03-30T06:02:23Z</time></trkpt><trkpt lat="-32.26588901753579" lon="115.75749007063483"><ele>3.0</ele><time>2026-03-30T06:02:24Z</time></trkpt><trkpt lat="-32.26572974676731" lon="115.75762577091241"><ele>3.333333333333333</ele><time>2026-03-30T06:02:25Z</time></trkpt><trkpt lat="-32.26556393171832" lon="115.75776131187364"><ele>3.6666666666666665</ele><time>2026-03-30T06:02:26Z</time></trkpt><trkpt lat="-32.265393474555104" lon="115.75789912046716"><ele>4.0</ele><time>2026-03-30T06:02:27Z</time></trkpt><trkpt lat="-32.26521897395547" lon="115.7580404844734"><ele>4.0</ele><time>2026-03-30T06:02:28Z</time></trkpt><trkpt lat="-32.26504811624632" lon="115.75818052230777"><ele>4.0</ele><time>2026-03-30T06:02:29Z</time></trkpt><trkpt lat="-32.26488260009195" lon="115.75832112817534"><ele>4.0</ele><time>2026-03-30T06:02:30Z</time></trkpt><trkpt lat="-32.26473742453988" lon="115.75845088284196"><ele>4.333333333333333</ele><time>2026-03-30T06:02:31Z</time></trkpt><trkpt lat="-32.26460349024584" lon="115.75857676955039"><ele>4.666666666666667</ele><time>2026-03-30T06:02:32Z</time></trkpt><trkpt lat="-32.264478029968835" lon="115.7586942982794"><ele>5.0</ele><time>2026-03-30T06:02:33Z</time></trkpt><trkpt lat="-32.26435617506184" lon="115.75879724649108"><ele>5.0</ele><time>2026-03-30T06:02:34Z</time></trkpt><trkpt lat="-32.2642383318939" lon="115.75888124742069"><ele>5.0</ele><time>2026-03-30T06:02:35Z</time></trkpt><trkpt lat="-32.26413504685948" lon="115.75895763945798"><ele>5.0</ele><time>2026-03-30T06:02:36Z</time></trkpt><trkpt lat="-32.26406125249139" lon="115.75902891094593"><ele>5.0</ele><time>2026-03-30T06:02:37Z</time></trkpt><trkpt lat="-32.26400560195793" lon="115.75907397980279"><ele>5.0</ele><time>2026-03-30T06:02:38Z</time></trkpt><trkpt lat="-32.26400635036414" lon="115.75923947004551"><ele>5.0</ele><time>2026-03-30T06:02:40Z</time></trkpt><trkpt lat="-32.264047015595104" lon="115.75929966518737"><ele>5.0</ele><time>2026-03-30T06:02:42Z</time></trkpt><trkpt lat="-32.26424590549098" lon="115.75918325795115"><ele>5.0</ele><time>2026-03-30T06:02:44Z</time></trkpt><trkpt lat="-32.26436419602549" lon="115.75907450966163"><ele>5.0</ele><time>2026-03-30T06:02:45Z</time></trkpt><trkpt lat="-32.26452297826366" lon="115.75893398622765"><ele>5.0</ele><time>2026-03-30T06:02:46Z</time></trkpt><trkpt lat="-32.26469950937629" lon="115.75878591354741"><ele>5.0</ele><time>2026-03-30T06:02:47Z</time></trkpt><trkpt lat="-32.264896533777616" lon="115.75862331535534"><ele>4.5</ele><time>2026-03-30T06:02:48Z</time></trkpt><trkpt lat="-32.265109914520245" lon="115.75844413273629"><ele>4.0</ele><time>2026-03-30T06:02:49Z</time></trkpt><trkpt lat="-32.26532240715889" lon="115.758265591062"><ele>4.0</ele><time>2026-03-30T06:02:50Z</time></trkpt><trkpt lat="-32.26555121201221" lon="115.75807875239714"><ele>4.0</ele><time>2026-03-30T06:02:51Z</time></trkpt><trkpt lat="-32.26579139504646" lon="115.75788600684558"><ele>3.5</ele><time>2026-03-30T06:02:52Z</time></trkpt><trkpt lat="-32.266035968208485" lon="115.75768809171956"><ele>3.0</ele><time>2026-03-30T06:02:53Z</time></trkpt><trkpt lat="-32.26626923666656" lon="115.75749945879168"><ele>5.0</ele><time>2026-03-30T06:02:54Z</time></trkpt><trkpt lat="-32.26648146095192" lon="115.7573269292293"><ele>7.0</ele><time>2026-03-30T06:02:55Z</time></trkpt><trkpt lat="-32.266675387284884" lon="115.75717165458424"><ele>7.0</ele><time>2026-03-30T06:02:56Z</time></trkpt><trkpt lat="-32.26686283359559" lon="115.75701962301105"><ele>7.0</ele><time>2026-03-30T06:02:57Z</time></trkpt><trkpt lat="-32.267055016822894" lon="115.75686439621354"><ele>6.5</ele><time>2026-03-30T06:02:58Z</time></trkpt><trkpt lat="-32.26725487279105" lon="115.75670225793559"><ele>6.0</ele><time>2026-03-30T06:02:59Z</time></trkpt><trkpt lat="-32.267458420773494" lon="115.75653640018044"><ele>5.5</ele><time>2026-03-30T06:03:00Z</time></trkpt><trkpt lat="-32.267653596405495" lon="115.75637333013734"><ele>5.0</ele><time>2026-03-30T06:03:01Z</time></trkpt><trkpt lat="-32.267835007304654" lon="115.75622049776257"><ele>5.0</ele><time>2026-03-30T06:03:02Z</time></trkpt><trkpt lat="-32.26802011058524" lon="115.75606689746525"><ele>5.0</ele><time>2026-03-30T06:03:03Z</time></trkpt><trkpt lat="-32.2681897108658" lon="115.75592468843678"><ele>5.0</ele><time>2026-03-30T06:03:04Z</time></trkpt><trkpt lat="-32.2683403736038" lon="115.75580013805649"><ele>5.2</ele><time>2026-03-30T06:03:05Z</time></trkpt><trkpt lat="-32.26844612479841" lon="115.75571475648037"><ele>5.4</ele><time>2026-03-30T06:03:06Z</time></trkpt><trkpt lat="-32.26851713524954" lon="115.75565436872468"><ele>5.6</ele><time>2026-03-30T06:03:07Z</time></trkpt><trkpt lat="-32.268619815257125" lon="115.75555221914685"><ele>5.8</ele><time>2026-03-30T06:04:04Z</time></trkpt><trkpt lat="-32.26868922023862" lon="115.75548790588621"><ele>6.0</ele><time>2026-03-30T06:04:05Z</time></trkpt><trkpt lat="-32.268774219787524" lon="115.75540482493317"><ele>6.0</ele><time>2026-03-30T06:04:06Z</time></trkpt><trkpt lat="-32.26886026017953" lon="115.7553175644613"><ele>6.0</ele><time>2026-03-30T06:04:07Z</time></trkpt><trkpt lat="-32.26895960563181" lon="115.75520857734776"><ele>6.0</ele><time>2026-03-30T06:04:08Z</time></trkpt><trkpt lat="-32.26907792820402" lon="115.75506968037422"><ele>6.0</ele><time>2026-03-30T06:04:09Z</time></trkpt><trkpt lat="-32.269188898660396" lon="115.75493215378879"><ele>6.0</ele><time>2026-03-30T06:04:10Z</time></trkpt><trkpt lat="-32.269298391952766" lon="115.75478630568206"><ele>6.0</ele><time>2026-03-30T06:04:11Z</time></trkpt><trkpt lat="-32.26941238367988" lon="115.7546147349467"><ele>6.0</ele><time>2026-03-30T06:04:12Z</time></trkpt><trkpt lat="-32.26951501010816" lon="115.75443485362432"><ele>6.0</ele><time>2026-03-30T06:04:13Z</time></trkpt><trkpt lat="-32.2696093034016" lon="115.75424752313822"><ele>6.0</ele><time>2026-03-30T06:04:14Z</time></trkpt><trkpt lat="-32.269697648406236" lon="115.75405111089148"><ele>6.0</ele><time>2026-03-30T06:04:15Z</time></trkpt><trkpt lat="-32.26977807473972" lon="115.75387555462093"><ele>6.5</ele><time>2026-03-30T06:04:16Z</time></trkpt><trkpt lat="-32.26984924149134" lon="115.75372139469285"><ele>7.0</ele><time>2026-03-30T06:04:17Z</time></trkpt><trkpt lat="-32.26989770569161" lon="115.75358881797884"><ele>7.5</ele><time>2026-03-30T06:04:18Z</time></trkpt><trkpt lat="-32.269928840659" lon="115.75346682167218"><ele>8.0</ele><time>2026-03-30T06:04:19Z</time></trkpt><trkpt lat="-32.26993319043356" lon="115.75335941045269"><ele>7.833333333333333</ele><time>2026-03-30T06:04:20Z</time></trkpt><trkpt lat="-32.26993469082524" lon="115.75326710843805"><ele>7.666666666666666</ele><time>2026-03-30T06:04:21Z</time></trkpt><trkpt lat="-32.26994039635439" lon="115.75315246601747"><ele>7.5</ele><time>2026-03-30T06:04:23Z</time></trkpt><trkpt lat="-32.26989196133566" lon="115.75307642221497"><ele>7.333333333333334</ele><time>2026-03-30T06:04:28Z</time></trkpt><trkpt lat="-32.26986404644208" lon="115.75300684228858"><ele>7.166666666666667</ele><time>2026-03-30T06:04:29Z</time></trkpt><trkpt lat="-32.26978091853112" lon="115.75295612086666"><ele>7.0</ele><time>2026-03-30T06:04:30Z</time></trkpt><trkpt lat="-32.26967253444412" lon="115.7529167674252"><ele>7.0</ele><time>2026-03-30T06:04:31Z</time></trkpt><trkpt lat="-32.26955654936637" lon="115.75288033236704"><ele>6.999999999999999</ele><time>2026-03-30T06:04:32Z</time></trkpt><trkpt lat="-32.269451597888605" lon="115.75284405439675"><ele>6.999999999999999</ele><time>2026-03-30T06:04:33Z</time></trkpt><trkpt lat="-32.26936043255074" lon="115.75280353073572"><ele>7.0</ele><time>2026-03-30T06:04:34Z</time></trkpt><trkpt lat="-32.26930027545885" lon="115.75275383312761"><ele>7.0</ele><time>2026-03-30T06:04:35Z</time></trkpt><trkpt lat="-32.26924218170161" lon="115.7526265953606"><ele>6.8</ele><time>2026-03-30T06:04:37Z</time></trkpt><trkpt lat="-32.26932053002047" lon="115.7525088655451"><ele>6.6</ele><time>2026-03-30T06:04:38Z</time></trkpt><trkpt lat="-32.26937855995588" lon="115.75242825839504"><ele>6.3999999999999995</ele><time>2026-03-30T06:04:39Z</time></trkpt><trkpt lat="-32.269457985956116" lon="115.75234163031118"><ele>6.199999999999999</ele><time>2026-03-30T06:04:40Z</time></trkpt><trkpt lat="-32.269550122862334" lon="115.75225332500757"><ele>6.0</ele><time>2026-03-30T06:04:41Z</time></trkpt><trkpt lat="-32.26964087974369" lon="115.75215531412229"><ele>6.0</ele><time>2026-03-30T06:04:42Z</time></trkpt><trkpt lat="-32.26972713163498" lon="115.75204258781656"><ele>6.0</ele><time>2026-03-30T06:04:43Z</time></trkpt><trkpt lat="-32.26979336959633" lon="115.75189850926347"><ele>6.0</ele><time>2026-03-30T06:04:44Z</time></trkpt><trkpt lat="-32.26983637232976" lon="115.75172087161397"><ele>6.0</ele><time>2026-03-30T06:04:45Z</time></trkpt><trkpt lat="-32.26986525336122" lon="115.75152487774515"><ele>6.0</ele><time>2026-03-30T06:04:46Z</time></trkpt><trkpt lat="-32.26989209645151" lon="115.75130765740028"><ele>6.0</ele><time>2026-03-30T06:04:47Z</time></trkpt><trkpt lat="-32.26992731166939" lon="115.75106942620405"><ele>6.0</ele><time>2026-03-30T06:04:48Z</time></trkpt><trkpt lat="-32.26996835118381" lon="115.75083613462431"><ele>5.666666666666667</ele><time>2026-03-30T06:04:49Z</time></trkpt><trkpt lat="-32.270008038112024" lon="115.75060525850745"><ele>5.333333333333334</ele><time>2026-03-30T06:04:50Z</time></trkpt><trkpt lat="-32.27005273144898" lon="115.75035753187713"><ele>5.0</ele><time>2026-03-30T06:04:51Z</time></trkpt><trkpt lat="-32.27010005915904" lon="115.75009573616698"><ele>3.666666666666667</ele><time>2026-03-30T06:04:52Z</time></trkpt><trkpt lat="-32.27014765165015" lon="115.74984132621877"><ele>2.3333333333333335</ele><time>2026-03-30T06:04:53Z</time></trkpt><trkpt lat="-32.27018711127192" lon="115.74961894145272"><ele>1.0</ele><time>2026-03-30T06:04:54Z</time></trkpt><trkpt lat="-32.27022138470053" lon="115.74941654273469"><ele>1.75</ele><time>2026-03-30T06:04:55Z</time></trkpt><trkpt lat="-32.270253489778455" lon="115.74923233850141"><ele>2.5</ele><time>2026-03-30T06:04:56Z</time></trkpt><trkpt lat="-32.27028103666498" lon="115.74908507938086"><ele>3.25</ele><time>2026-03-30T06:04:57Z</time></trkpt><trkpt lat="-32.270304716325654" lon="115.74895519895708"><ele>4.0</ele><time>2026-03-30T06:04:58Z</time></trkpt><trkpt lat="-32.270326157296594" lon="115.74883053451973"><ele>3.9999999999999996</ele><time>2026-03-30T06:04:59Z</time></trkpt><trkpt lat="-32.27034469086332" lon="115.7487175023239"><ele>4.0</ele><time>2026-03-30T06:05:00Z</time></trkpt><trkpt lat="-32.270359651866094" lon="115.74862586839838"><ele>4.0</ele><time>2026-03-30T06:05:01Z</time></trkpt><trkpt lat="-32.27036629432988" lon="115.74854864442584"><ele>4.0</ele><time>2026-03-30T06:05:02Z</time></trkpt><trkpt lat="-32.27038122876296" lon="115.74846629510886"><ele>3.9999999999999996</ele><time>2026-03-30T06:05:04Z</time></trkpt><trkpt lat="-32.270273851204735" lon="115.74843544045585"><ele>4.0</ele><time>2026-03-30T06:05:05Z</time></trkpt><trkpt lat="-32.27018424836646" lon="115.74845168683822"><ele>4.0</ele><time>2026-03-30T06:05:07Z</time></trkpt><trkpt lat="-32.270132452271575" lon="115.74840543938625"><ele>4.0</ele><time>2026-03-30T06:05:09Z</time></trkpt><trkpt lat="-32.27010241432846" lon="115.74857965124387"><ele>4.0</ele><time>2026-03-30T06:05:10Z</time></trkpt><trkpt lat="-32.270102594198626" lon="115.74870123561783"><ele>4.0</ele><time>2026-03-30T06:05:12Z</time></trkpt><trkpt lat="-32.27001670679993" lon="115.74878206867987"><ele>4.0</ele><time>2026-03-30T06:05:14Z</time></trkpt><trkpt lat="-32.2699178837051" lon="115.74880768488646"><ele>4.0</ele><time>2026-03-30T06:05:16Z</time></trkpt><trkpt lat="-32.26989656775299" lon="115.74891399139767"><ele>4.0</ele><time>2026-03-30T06:05:18Z</time></trkpt><trkpt lat="-32.2697932918597" lon="115.74887347790704"><ele>4.0</ele><time>2026-03-30T06:05:22Z</time></trkpt><trkpt lat="-32.26980939223248" lon="115.74871018946037"><ele>4.0</ele><time>2026-03-30T06:05:25Z</time></trkpt><trkpt lat="-32.26982281603983" lon="115.7486323969031"><ele>4.0</ele><time>2026-03-30T06:05:26Z</time></trkpt><trkpt lat="-32.269837866407045" lon="115.74854517828398"><ele>4.0</ele><time>2026-03-30T06:05:27Z</time></trkpt><trkpt lat="-32.26985987662466" lon="115.74841762649861"><ele>4.0</ele><time>2026-03-30T06:05:28.999Z</time></trkpt><trkpt lat="-32.26987593016285" lon="115.74832459420615"><ele>4.0</ele><time>2026-03-30T06:05:30.999Z</time></trkpt><trkpt lat="-32.26999175993313" lon="115.74839468211044"><ele>4.0</ele><time>2026-03-30T06:05:32.999Z</time></trkpt><trkpt lat="-32.270070505021" lon="115.74842698236023"><ele>4.0</ele><time>2026-03-30T06:05:34.999Z</time></trkpt><trkpt lat="-32.2701390547709" lon="115.74845028179007"><ele>3.9999999999999996</ele><time>2026-03-30T06:05:36.999Z</time></trkpt><trkpt lat="-32.270226805892065" lon="115.74846454819436"><ele>4.0</ele><time>2026-03-30T06:05:51.999Z</time></trkpt><trkpt lat="-32.2702954198585" lon="115.74848714708679"><ele>4.0</ele><time>2026-03-30T06:05:53.999Z</time></trkpt><trkpt lat="-32.270372945245086" lon="115.74850197503952"><ele>4.0</ele><time>2026-03-30T06:05:56.999Z</time></trkpt><trkpt lat="-32.270407197982365" lon="115.74838415338586"><ele>3.9999999999999996</ele><time>2026-03-30T06:05:57.999Z</time></trkpt><trkpt lat="-32.27042125256148" lon="115.74828242225173"><ele>4.0</ele><time>2026-03-30T06:05:58.999Z</time></trkpt><trkpt lat="-32.27043660356444" lon="115.74817178159067"><ele>4.0</ele><time>2026-03-30T06:05:59.999Z</time></trkpt><trkpt lat="-32.27045849681105" lon="115.74807836161116"><ele>4.0</ele><time>2026-03-30T06:06:00.999Z</time></trkpt><trkpt lat="-32.27050180930866" lon="115.74800985754904"><ele>4.0</ele><time>2026-03-30T06:06:01.999Z</time></trkpt><trkpt lat="-32.27055951980722" lon="115.74790613197716"><ele>4.0</ele><time>2026-03-30T06:06:04Z</time></trkpt><trkpt lat="-32.27068524488259" lon="115.7479926054191"><ele>4.0</ele><time>2026-03-30T06:06:05Z</time></trkpt><trkpt lat="-32.27074361419868" lon="115.74802826673866"><ele>4.2</ele><time>2026-03-30T06:06:06Z</time></trkpt><trkpt lat="-32.27085674765253" lon="115.7480982869512"><ele>4.4</ele><time>2026-03-30T06:06:08Z</time></trkpt><trkpt lat="-32.27096632558478" lon="115.74816260316409"><ele>4.6</ele><time>2026-03-30T06:06:10Z</time></trkpt><trkpt lat="-32.27103310210315" lon="115.74820357779956"><ele>4.8</ele><time>2026-03-30T06:06:13Z</time></trkpt><trkpt lat="-32.271090357083565" lon="115.74823670472244"><ele>5.0</ele><time>2026-03-30T06:06:15Z</time></trkpt><trkpt lat="-32.27093831507114" lon="115.74831439772036"><ele>5.0</ele><time>2026-03-30T06:06:16Z</time></trkpt><trkpt lat="-32.271168435898616" lon="115.74828188020203"><ele>5.0</ele><time>2026-03-30T06:06:17Z</time></trkpt><trkpt lat="-32.271236826704886" lon="115.74818458907286"><ele>5.0</ele><time>2026-03-30T06:06:18Z</time></trkpt><trkpt lat="-32.271305800661956" lon="115.74813988497831"><ele>5.0</ele><time>2026-03-30T06:06:20Z</time></trkpt><trkpt lat="-32.27141217062644" lon="115.74805986387774"><ele>4.75</ele><time>2026-03-30T06:06:22Z</time></trkpt><trkpt lat="-32.27148322415067" lon="115.74797044685168"><ele>4.5</ele><time>2026-03-30T06:06:23Z</time></trkpt><trkpt lat="-32.271563454022846" lon="115.7478496423081"><ele>4.25</ele><time>2026-03-30T06:06:24Z</time></trkpt><trkpt lat="-32.271658598189866" lon="115.74770483710228"><ele>4.0</ele><time>2026-03-30T06:06:25Z</time></trkpt><trkpt lat="-32.27176261669839" lon="115.74754993317373"><ele>5.666666666666666</ele><time>2026-03-30T06:06:26Z</time></trkpt><trkpt lat="-32.27187490360975" lon="115.74738506665837"><ele>7.333333333333333</ele><time>2026-03-30T06:06:27Z</time></trkpt><trkpt lat="-32.27199952938348" lon="115.74719533284622"><ele>9.0</ele><time>2026-03-30T06:06:28Z</time></trkpt><trkpt lat="-32.272128160075624" lon="115.74700520133355"><ele>8.666666666666666</ele><time>2026-03-30T06:06:29Z</time></trkpt><trkpt lat="-32.272264079725495" lon="115.74680727850225"><ele>8.333333333333332</ele><time>2026-03-30T06:06:30Z</time></trkpt><trkpt lat="-32.272400168932485" lon="115.74660915329225"><ele>8.0</ele><time>2026-03-30T06:06:31Z</time></trkpt><trkpt lat="-32.27252398253688" lon="115.7464141691788"><ele>7.333333333333333</ele><time>2026-03-30T06:06:32Z</time></trkpt><trkpt lat="-32.27264581836716" lon="115.74622496292316"><ele>6.666666666666666</ele><time>2026-03-30T06:06:33Z</time></trkpt><trkpt lat="-32.27276517908845" lon="115.74604413712056"><ele>6.0</ele><time>2026-03-30T06:06:34Z</time></trkpt><trkpt lat="-32.27288100135527" lon="115.7458711568669"><ele>6.0</ele><time>2026-03-30T06:06:35Z</time></trkpt><trkpt lat="-32.272986785371835" lon="115.74570866964818"><ele>6.0</ele><time>2026-03-30T06:06:36Z</time></trkpt><trkpt lat="-32.27308112600447" lon="115.74555967513089"><ele>6.0</ele><time>2026-03-30T06:06:37Z</time></trkpt><trkpt lat="-32.27317031128224" lon="115.74541678225421"><ele>6.199999999999999</ele><time>2026-03-30T06:06:38Z</time></trkpt><trkpt lat="-32.27325143567875" lon="115.74528581076763"><ele>6.3999999999999995</ele><time>2026-03-30T06:06:39Z</time></trkpt><trkpt lat="-32.27332548395199" lon="115.74517037927563"><ele>6.6</ele><time>2026-03-30T06:06:40Z</time></trkpt><trkpt lat="-32.27338248669906" lon="115.7450722590296"><ele>6.8</ele><time>2026-03-30T06:06:41Z</time></trkpt><trkpt lat="-32.273444788487815" lon="115.74500528809531"><ele>7.0</ele><time>2026-03-30T06:06:42Z</time></trkpt><trkpt lat="-32.27348714764301" lon="115.7449428473613"><ele>7.199999999999999</ele><time>2026-03-30T06:06:43Z</time></trkpt><trkpt lat="-32.27342213024902" lon="115.74483045150637"><ele>7.3999999999999995</ele><time>2026-03-30T06:06:44Z</time></trkpt><trkpt lat="-32.273399867609" lon="115.74471229014603"><ele>7.6000000000000005</ele><time>2026-03-30T06:06:46Z</time></trkpt><trkpt lat="-32.273347500347526" lon="115.74463776776396"><ele>7.800000000000001</ele><time>2026-03-30T06:06:47Z</time></trkpt><trkpt lat="-32.27326717572992" lon="115.74454119809529"><ele>8.0</ele><time>2026-03-30T06:06:48Z</time></trkpt><trkpt lat="-32.27317188185595" lon="115.74443722369524"><ele>7.333333333333333</ele><time>2026-03-30T06:06:49Z</time></trkpt><trkpt lat="-32.27306104255471" lon="115.74432220978802"><ele>6.666666666666666</ele><time>2026-03-30T06:06:50Z</time></trkpt><trkpt lat="-32.27294250849629" lon="115.74418639311536"><ele>6.0</ele><time>2026-03-30T06:06:51Z</time></trkpt><trkpt lat="-32.272819335608894" lon="115.74403744875029"><ele>6.0</ele><time>2026-03-30T06:06:52Z</time></trkpt><trkpt lat="-32.272690079055536" lon="115.74387627498645"><ele>6.0</ele><time>2026-03-30T06:06:53Z</time></trkpt><trkpt lat="-32.27255458954364" lon="115.74371026218459"><ele>6.0</ele><time>2026-03-30T06:06:54Z</time></trkpt><trkpt lat="-32.27241834292085" lon="115.74354303195919"><ele>6.333333333333334</ele><time>2026-03-30T06:06:55Z</time></trkpt><trkpt lat="-32.27228545026797" lon="115.74337859816166"><ele>6.666666666666667</ele><time>2026-03-30T06:06:56Z</time></trkpt><trkpt lat="-32.27215310312648" lon="115.74321670642729"><ele>7.0</ele><time>2026-03-30T06:06:57Z</time></trkpt><trkpt lat="-32.27202470286879" lon="115.7430607648696"><ele>7.0</ele><time>2026-03-30T06:06:58Z</time></trkpt><trkpt lat="-32.271901107665286" lon="115.74290856034371"><ele>7.0</ele><time>2026-03-30T06:06:59Z</time></trkpt><trkpt lat="-32.27177986893663" lon="115.74275908067523"><ele>7.0</ele><time>2026-03-30T06:07:00Z</time></trkpt><trkpt lat="-32.27166337708445" lon="115.74261773886269"><ele>7.0</ele><time>2026-03-30T06:07:01Z</time></trkpt><trkpt lat="-32.27155272746781" lon="115.74248629088548"><ele>7.0</ele><time>2026-03-30T06:07:02Z</time></trkpt><trkpt lat="-32.271450221823464" lon="115.74236314926794"><ele>7.0</ele><time>2026-03-30T06:07:03Z</time></trkpt><trkpt lat="-32.27135536253785" lon="115.74225059147828"><ele>7.0</ele><time>2026-03-30T06:07:04Z</time></trkpt><trkpt lat="-32.271266895497554" lon="115.74214114997844"><ele>7.3999999999999995</ele><time>2026-03-30T06:07:05Z</time></trkpt><trkpt lat="-32.271184523789465" lon="115.7420381699878"><ele>7.799999999999999</ele><time>2026-03-30T06:07:06Z</time></trkpt><trkpt lat="-32.27110693796471" lon="115.74194200802685"><ele>8.2</ele><time>2026-03-30T06:07:07Z</time></trkpt><trkpt lat="-32.27103108773425" lon="115.74185361667877"><ele>8.6</ele><time>2026-03-30T06:07:08Z</time></trkpt><trkpt lat="-32.27095632407895" lon="115.74177427087241"><ele>9.0</ele><time>2026-03-30T06:07:09Z</time></trkpt><trkpt lat="-32.27088161551539" lon="115.74171184207684"><ele>9.0</ele><time>2026-03-30T06:07:10Z</time></trkpt><trkpt lat="-32.270830566781356" lon="115.74164164107738"><ele>9.0</ele><time>2026-03-30T06:07:11Z</time></trkpt><trkpt lat="-32.27062417500401" lon="115.74173320271984"><ele>9.0</ele><time>2026-03-30T06:07:13Z</time></trkpt><trkpt lat="-32.27052897649523" lon="115.74183095726832"><ele>9.0</ele><time>2026-03-30T06:07:14Z</time></trkpt><trkpt lat="-32.27042408817751" lon="115.74195312251908"><ele>9.0</ele><time>2026-03-30T06:07:15Z</time></trkpt><trkpt lat="-32.27029996478629" lon="115.74208800675508"><ele>9.0</ele><time>2026-03-30T06:07:16Z</time></trkpt><trkpt lat="-32.27016844108416" lon="115.74222147503953"><ele>9.0</ele><time>2026-03-30T06:07:17Z</time></trkpt><trkpt lat="-32.27002364491908" lon="115.7423700536068"><ele>9.0</ele><time>2026-03-30T06:07:18Z</time></trkpt><trkpt lat="-32.269882360187616" lon="115.74251446048991"><ele>9.0</ele><time>2026-03-30T06:07:19Z</time></trkpt><trkpt lat="-32.26975583747173" lon="115.74264252538124"><ele>9.0</ele><time>2026-03-30T06:07:20Z</time></trkpt><trkpt lat="-32.26963929274784" lon="115.74275972899846"><ele>8.5</ele><time>2026-03-30T06:07:21Z</time></trkpt><trkpt lat="-32.26952789918326" lon="115.74287495060865"><ele>8.0</ele><time>2026-03-30T06:07:22Z</time></trkpt><trkpt lat="-32.269410847928825" lon="115.742972063072"><ele>7.5</ele><time>2026-03-30T06:07:23Z</time></trkpt><trkpt lat="-32.26929913843431" lon="115.74308750813013"><ele>7.0</ele><time>2026-03-30T06:07:24Z</time></trkpt><trkpt lat="-32.26917901033253" lon="115.74320896622397"><ele>7.0</ele><time>2026-03-30T06:07:25Z</time></trkpt><trkpt lat="-32.26905340208364" lon="115.74333582123437"><ele>7.0</ele><time>2026-03-30T06:07:26Z</time></trkpt><trkpt lat="-32.268919222122854" lon="115.7434725651696"><ele>7.0</ele><time>2026-03-30T06:07:27Z</time></trkpt><trkpt lat="-32.26878166520411" lon="115.74361313655325"><ele>7.333333333333334</ele><time>2026-03-30T06:07:28Z</time></trkpt><trkpt lat="-32.268642416273224" lon="115.74375543708139"><ele>7.666666666666666</ele><time>2026-03-30T06:07:29Z</time></trkpt><trkpt lat="-32.26850255787286" lon="115.74389494221143"><ele>8.0</ele><time>2026-03-30T06:07:30Z</time></trkpt><trkpt lat="-32.268352999832885" lon="115.74404544343288"><ele>8.0</ele><time>2026-03-30T06:07:31Z</time></trkpt><trkpt lat="-32.26820694073665" lon="115.7442204436646"><ele>8.0</ele><time>2026-03-30T06:07:32Z</time></trkpt><trkpt lat="-32.2680541669485" lon="115.74436385562537"><ele>8.0</ele><time>2026-03-30T06:07:33Z</time></trkpt><trkpt lat="-32.26791352978528" lon="115.74450582630872"><ele>7.666666666666666</ele><time>2026-03-30T06:07:34Z</time></trkpt><trkpt lat="-32.26777897362774" lon="115.74464280449422"><ele>7.333333333333334</ele><time>2026-03-30T06:07:35Z</time></trkpt><trkpt lat="-32.267645370904944" lon="115.74478079408081"><ele>7.0</ele><time>2026-03-30T06:07:36Z</time></trkpt><trkpt lat="-32.2675105524915" lon="115.74491406871422"><ele>7.0</ele><time>2026-03-30T06:07:37Z</time></trkpt><trkpt lat="-32.267376399994234" lon="115.74504951709599"><ele>7.0</ele><time>2026-03-30T06:07:37.999Z</time></trkpt><trkpt lat="-32.26723941554849" lon="115.74518934424725"><ele>7.0</ele><time>2026-03-30T06:07:38.999Z</time></trkpt><trkpt lat="-32.267097459284685" lon="115.74533982436667"><ele>7.333333333333334</ele><time>2026-03-30T06:07:39.999Z</time></trkpt><trkpt lat="-32.26694765958961" lon="115.74549744609956"><ele>7.666666666666666</ele><time>2026-03-30T06:07:40.999Z</time></trkpt><trkpt lat="-32.266793766628" lon="115.74565317667428"><ele>8.0</ele><time>2026-03-30T06:07:41.999Z</time></trkpt><trkpt lat="-32.266638218182884" lon="115.74580979708321"><ele>8.0</ele><time>2026-03-30T06:07:42.999Z</time></trkpt><trkpt lat="-32.26648294170705" lon="115.74596516666325"><ele>8.0</ele><time>2026-03-30T06:07:43.999Z</time></trkpt><trkpt lat="-32.26633066889394" lon="115.74612008714944"><ele>8.0</ele><time>2026-03-30T06:07:44.999Z</time></trkpt><trkpt lat="-32.266178050638025" lon="115.74627687610209"><ele>7.666666666666666</ele><time>2026-03-30T06:07:45.999Z</time></trkpt><trkpt lat="-32.26602560665051" lon="115.7464323993816"><ele>7.333333333333334</ele><time>2026-03-30T06:07:46.999Z</time></trkpt><trkpt lat="-32.26587710753182" lon="115.74658417213325"><ele>7.0</ele><time>2026-03-30T06:07:47.999Z</time></trkpt><trkpt lat="-32.265738396963506" lon="115.74672322088176"><ele>7.333333333333334</ele><time>2026-03-30T06:07:48.999Z</time></trkpt><trkpt lat="-32.265608527658536" lon="115.74685195680468"><ele>7.666666666666666</ele><time>2026-03-30T06:07:49.999Z</time></trkpt><trkpt lat="-32.26547237872437" lon="115.74699189011608"><ele>8.0</ele><time>2026-03-30T06:07:50.999Z</time></trkpt><trkpt lat="-32.265325056067354" lon="115.74714024600424"><ele>8.0</ele><time>2026-03-30T06:07:51.999Z</time></trkpt><trkpt lat="-32.2651765986713" lon="115.74729501708433"><ele>8.0</ele><time>2026-03-30T06:07:52.999Z</time></trkpt><trkpt lat="-32.265025675361706" lon="115.74744925765972"><ele>8.0</ele><time>2026-03-30T06:07:53.999Z</time></trkpt><trkpt lat="-32.264872070791114" lon="115.74759662031272"><ele>7.666666666666666</ele><time>2026-03-30T06:07:54.999Z</time></trkpt><trkpt lat="-32.264723635269725" lon="115.74774428995048"><ele>7.333333333333334</ele><time>2026-03-30T06:07:55.999Z</time></trkpt><trkpt lat="-32.264578865667495" lon="115.74789395473012"><ele>7.0</ele><time>2026-03-30T06:07:56.999Z</time></trkpt><trkpt lat="-32.26443758435872" lon="115.74803995537034"><ele>7.0</ele><time>2026-03-30T06:07:57.999Z</time></trkpt><trkpt lat="-32.264289695744665" lon="115.74818802750056"><ele>7.0</ele><time>2026-03-30T06:07:58.999Z</time></trkpt><trkpt lat="-32.264146025029454" lon="115.74832922477958"><ele>7.0</ele><time>2026-03-30T06:07:59.999Z</time></trkpt><trkpt lat="-32.264011457528206" lon="115.74846576169381"><ele>6.0</ele><time>2026-03-30T06:08:00.999Z</time></trkpt><trkpt lat="-32.26389006926452" lon="115.74859347340626"><ele>5.0</ele><time>2026-03-30T06:08:01.999Z</time></trkpt><trkpt lat="-32.263772298066336" lon="115.74871610917673"><ele>4.0</ele><time>2026-03-30T06:08:02.999Z</time></trkpt><trkpt lat="-32.263664321737" lon="115.74882820277746"><ele>4.0</ele><time>2026-03-30T06:08:03.999Z</time></trkpt><trkpt lat="-32.26356244298366" lon="115.74892935972574"><ele>4.0</ele><time>2026-03-30T06:08:04.999Z</time></trkpt><trkpt lat="-32.26348320387256" lon="115.74900916768932"><ele>4.0</ele><time>2026-03-30T06:08:05.999Z</time></trkpt><trkpt lat="-32.263421801422375" lon="115.74905906053883"><ele>4.0</ele><time>2026-03-30T06:08:06.999Z</time></trkpt><trkpt lat="-32.26330132186679" lon="115.74905576202563"><ele>4.0</ele><time>2026-03-30T06:08:08.999Z</time></trkpt><trkpt lat="-32.26325621440574" lon="115.74897115800329"><ele>4.0</ele><time>2026-03-30T06:08:10Z</time></trkpt><trkpt lat="-32.2631965634818" lon="115.7488711505949"><ele>4.0</ele><time>2026-03-30T06:08:11Z</time></trkpt><trkpt lat="-32.26311234379146" lon="115.7487600702573"><ele>4.0</ele><time>2026-03-30T06:08:12Z</time></trkpt><trkpt lat="-32.26301348999285" lon="115.74863876128407"><ele>4.0</ele><time>2026-03-30T06:08:13Z</time></trkpt><trkpt lat="-32.26291489197336" lon="115.74849961933381"><ele>4.666666666666666</ele><time>2026-03-30T06:08:14Z</time></trkpt><trkpt lat="-32.26280333252719" lon="115.74835077021034"><ele>5.333333333333333</ele><time>2026-03-30T06:08:15Z</time></trkpt><trkpt lat="-32.262687449812184" lon="115.74819780444604"><ele>6.0</ele><time>2026-03-30T06:08:16Z</time></trkpt><trkpt lat="-32.26257779650846" lon="115.7480501635131"><ele>6.0</ele><time>2026-03-30T06:08:17Z</time></trkpt><trkpt lat="-32.26247460269819" lon="115.74791079454926"><ele>6.0</ele><time>2026-03-30T06:08:18Z</time></trkpt><trkpt lat="-32.2623819872315" lon="115.7477855767869"><ele>6.0</ele><time>2026-03-30T06:08:19Z</time></trkpt><trkpt lat="-32.26229827229282" lon="115.74767089990836"><ele>6.0</ele><time>2026-03-30T06:08:20Z</time></trkpt><trkpt lat="-32.262228520769185" lon="115.74757093103676"><ele>5.666666666666667</ele><time>2026-03-30T06:08:21Z</time></trkpt><trkpt lat="-32.26216715293639" lon="115.74748405254165"><ele>5.333333333333333</ele><time>2026-03-30T06:08:22Z</time></trkpt><trkpt lat="-32.262116642778246" lon="115.74740811467106"><ele>5.0</ele><time>2026-03-30T06:08:23Z</time></trkpt><trkpt lat="-32.262077215678076" lon="115.74733790049699"><ele>4.666666666666666</ele><time>2026-03-30T06:08:24Z</time></trkpt><trkpt lat="-32.26204831963205" lon="115.7472622023704"><ele>4.333333333333333</ele><time>2026-03-30T06:08:25Z</time></trkpt><trkpt lat="-32.26199225491015" lon="115.74716875853552"><ele>4.0</ele><time>2026-03-30T06:08:27Z</time></trkpt><trkpt lat="-32.261887312375364" lon="115.74716431804976"><ele>4.0</ele><time>2026-03-30T06:08:29Z</time></trkpt><trkpt lat="-32.26179125321785" lon="115.74729301248064"><ele>4.0</ele><time>2026-03-30T06:08:31Z</time></trkpt><trkpt lat="-32.2617288817016" lon="115.74739245483484"><ele>4.0</ele><time>2026-03-30T06:08:32Z</time></trkpt><trkpt lat="-32.26165049252412" lon="115.74748453876708"><ele>4.0</ele><time>2026-03-30T06:08:33Z</time></trkpt><trkpt lat="-32.261532620179246" lon="115.74761032210685"><ele>4.333333333333333</ele><time>2026-03-30T06:08:34Z</time></trkpt><trkpt lat="-32.26139299884579" lon="115.74774438199326"><ele>4.666666666666667</ele><time>2026-03-30T06:08:35Z</time></trkpt><trkpt lat="-32.26123385472056" lon="115.74789691439001"><ele>5.0</ele><time>2026-03-30T06:08:36Z</time></trkpt><trkpt lat="-32.26105897306765" lon="115.74807211197611"><ele>5.0</ele><time>2026-03-30T06:08:37Z</time></trkpt><trkpt lat="-32.26087579994534" lon="115.74826036939756"><ele>5.0</ele><time>2026-03-30T06:08:38Z</time></trkpt><trkpt lat="-32.260678034165394" lon="115.74846188044768"><ele>6.5</ele><time>2026-03-30T06:08:39Z</time></trkpt><trkpt lat="-32.260485486956206" lon="115.7486621860466"><ele>8.0</ele><time>2026-03-30T06:08:40Z</time></trkpt><trkpt lat="-32.26027126349728" lon="115.74887911713743"><ele>8.0</ele><time>2026-03-30T06:08:41Z</time></trkpt><trkpt lat="-32.26006621167156" lon="115.74908910548572"><ele>8.0</ele><time>2026-03-30T06:08:42Z</time></trkpt><trkpt lat="-32.25985526033913" lon="115.74930300517758"><ele>4.5</ele><time>2026-03-30T06:08:43Z</time></trkpt><trkpt lat="-32.259640595569984" lon="115.74952126050624"><ele>1.0</ele><time>2026-03-30T06:08:44Z</time></trkpt><trkpt lat="-32.25942163837776" lon="115.74974584680895"><ele>1.0</ele><time>2026-03-30T06:08:45Z</time></trkpt><trkpt lat="-32.25921357806142" lon="115.74994864028662"><ele>1.0</ele><time>2026-03-30T06:08:46Z</time></trkpt><trkpt lat="-32.25901077317065" lon="115.75015425682476"><ele>2.0</ele><time>2026-03-30T06:08:47Z</time></trkpt><trkpt lat="-32.25881095194053" lon="115.75035303930234"><ele>3.0</ele><time>2026-03-30T06:08:48Z</time></trkpt><trkpt lat="-32.25860936328134" lon="115.75054923782146"><ele>3.0</ele><time>2026-03-30T06:08:49Z</time></trkpt><trkpt lat="-32.258412992120405" lon="115.75075176075391"><ele>3.0</ele><time>2026-03-30T06:08:50Z</time></trkpt><trkpt lat="-32.258216944307044" lon="115.75095315662341"><ele>5.5</ele><time>2026-03-30T06:08:51Z</time></trkpt><trkpt lat="-32.258025893908744" lon="115.75114948429457"><ele>8.0</ele><time>2026-03-30T06:08:52Z</time></trkpt><trkpt lat="-32.257833003537996" lon="115.751350733388"><ele>8.0</ele><time>2026-03-30T06:08:53Z</time></trkpt><trkpt lat="-32.257644552975144" lon="115.751552399207"><ele>8.0</ele><time>2026-03-30T06:08:54Z</time></trkpt><trkpt lat="-32.257455845934494" lon="115.75174393000037"><ele>6.0</ele><time>2026-03-30T06:08:55Z</time></trkpt><trkpt lat="-32.257270512458774" lon="115.75192901565056"><ele>4.0</ele><time>2026-03-30T06:08:56Z</time></trkpt><trkpt lat="-32.257084902588424" lon="115.75210300141417"><ele>4.0</ele><time>2026-03-30T06:08:57Z</time></trkpt><trkpt lat="-32.25689532314958" lon="115.75226481676079"><ele>4.0</ele><time>2026-03-30T06:08:58Z</time></trkpt><trkpt lat="-32.25669675598937" lon="115.75242255155226"><ele>4.0</ele><time>2026-03-30T06:08:59Z</time></trkpt><trkpt lat="-32.25647934396092" lon="115.75253994935007"><ele>4.0</ele><time>2026-03-30T06:09:00Z</time></trkpt><trkpt lat="-32.25626776177368" lon="115.7526691104501"><ele>3.5</ele><time>2026-03-30T06:09:01Z</time></trkpt><trkpt lat="-32.25605581840826" lon="115.75279445099532"><ele>3.0</ele><time>2026-03-30T06:09:02Z</time></trkpt><trkpt lat="-32.255850302878535" lon="115.75293567002173"><ele>3.0</ele><time>2026-03-30T06:09:03Z</time></trkpt><trkpt lat="-32.25563367385679" lon="115.75305742689288"><ele>3.0</ele><time>2026-03-30T06:09:04Z</time></trkpt><trkpt lat="-32.25541591934446" lon="115.75317924941017"><ele>4.0</ele><time>2026-03-30T06:09:05Z</time></trkpt><trkpt lat="-32.25520232108969" lon="115.75330172993692"><ele>5.0</ele><time>2026-03-30T06:09:06Z</time></trkpt><trkpt lat="-32.25499367444313" lon="115.7534257369872"><ele>5.0</ele><time>2026-03-30T06:09:07Z</time></trkpt><trkpt lat="-32.254790083877175" lon="115.7535474999457"><ele>5.0</ele><time>2026-03-30T06:09:08Z</time></trkpt><trkpt lat="-32.254589505326415" lon="115.75366913871397"><ele>5.0</ele><time>2026-03-30T06:09:09Z</time></trkpt><trkpt lat="-32.254390721360494" lon="115.75379549657272"><ele>5.0</ele><time>2026-03-30T06:09:10Z</time></trkpt><trkpt lat="-32.254193298938524" lon="115.75392879842046"><ele>5.0</ele><time>2026-03-30T06:09:11Z</time></trkpt><trkpt lat="-32.2539938576108" lon="115.75406880722885"><ele>5.0</ele><time>2026-03-30T06:09:12Z</time></trkpt><trkpt lat="-32.25380189117179" lon="115.75421358282684"><ele>4.0</ele><time>2026-03-30T06:09:13Z</time></trkpt><trkpt lat="-32.25361592170457" lon="115.75436434965174"><ele>3.0</ele><time>2026-03-30T06:09:14Z</time></trkpt><trkpt lat="-32.2534367195694" lon="115.75451927295852"><ele>2.0</ele><time>2026-03-30T06:09:15Z</time></trkpt><trkpt lat="-32.25325821164345" lon="115.75467187261924"><ele>2.0</ele><time>2026-03-30T06:09:16Z</time></trkpt><trkpt lat="-32.25307605985796" lon="115.75482362429837"><ele>2.0</ele><time>2026-03-30T06:09:17Z</time></trkpt><trkpt lat="-32.252893616924354" lon="115.75497217029266"><ele>2.0</ele><time>2026-03-30T06:09:18Z</time></trkpt><trkpt lat="-32.25270925650554" lon="115.7551211112438"><ele>3.5</ele><time>2026-03-30T06:09:19Z</time></trkpt><trkpt lat="-32.25252406291452" lon="115.75527257937847"><ele>5.0</ele><time>2026-03-30T06:09:20Z</time></trkpt><trkpt lat="-32.25233791282494" lon="115.7554259374014"><ele>2.5</ele><time>2026-03-30T06:09:21Z</time></trkpt><trkpt lat="-32.252152075122396" lon="115.75557995895097"><ele>0.0</ele><time>2026-03-30T06:09:22Z</time></trkpt><trkpt lat="-32.25196764083048" lon="115.75572951073188"><ele>0.0</ele><time>2026-03-30T06:09:23Z</time></trkpt><trkpt lat="-32.25178531176838" lon="115.75587603176562"><ele>0.0</ele><time>2026-03-30T06:09:24Z</time></trkpt><trkpt lat="-32.251600199812295" lon="115.7560245296562"><ele>0.0</ele><time>2026-03-30T06:09:25Z</time></trkpt><trkpt lat="-32.251418360527495" lon="115.7561706570469"><ele>2.5</ele><time>2026-03-30T06:09:26Z</time></trkpt><trkpt lat="-32.25123156777096" lon="115.75631948246838"><ele>5.0</ele><time>2026-03-30T06:09:27Z</time></trkpt><trkpt lat="-32.25103761876112" lon="115.75647142579413"><ele>5.0</ele><time>2026-03-30T06:09:28Z</time></trkpt><trkpt lat="-32.250837802020904" lon="115.75663361983217"><ele>5.0</ele><time>2026-03-30T06:09:29Z</time></trkpt><trkpt lat="-32.250639777650214" lon="115.75680102098394"><ele>4.5</ele><time>2026-03-30T06:09:30Z</time></trkpt><trkpt lat="-32.250447611766596" lon="115.75696497756844"><ele>4.0</ele><time>2026-03-30T06:09:31Z</time></trkpt><trkpt lat="-32.250254098847236" lon="115.75712091809335"><ele>4.0</ele><time>2026-03-30T06:09:32Z</time></trkpt><trkpt lat="-32.25006075924299" lon="115.75727479883062"><ele>4.0</ele><time>2026-03-30T06:09:33Z</time></trkpt><trkpt lat="-32.24987485411017" lon="115.75742795854501"><ele>4.333333333333333</ele><time>2026-03-30T06:09:34Z</time></trkpt><trkpt lat="-32.249696033674496" lon="115.75757651665124"><ele>4.666666666666667</ele><time>2026-03-30T06:09:35Z</time></trkpt><trkpt lat="-32.24951382069656" lon="115.75772450080444"><ele>5.0</ele><time>2026-03-30T06:09:36Z</time></trkpt><trkpt lat="-32.24933362956746" lon="115.75786899956215"><ele>5.0</ele><time>2026-03-30T06:09:37Z</time></trkpt><trkpt lat="-32.249155847315585" lon="115.75801580033637"><ele>5.0</ele><time>2026-03-30T06:09:38Z</time></trkpt><trkpt lat="-32.24898058997126" lon="115.75816257348936"><ele>5.0</ele><time>2026-03-30T06:09:39Z</time></trkpt><trkpt lat="-32.248808648524225" lon="115.75830398592909"><ele>5.0</ele><time>2026-03-30T06:09:40Z</time></trkpt><trkpt lat="-32.2486374162584" lon="115.75844545515504"><ele>5.0</ele><time>2026-03-30T06:09:41Z</time></trkpt><trkpt lat="-32.24846419102415" lon="115.75857841777858"><ele>5.0</ele><time>2026-03-30T06:09:42Z</time></trkpt><trkpt lat="-32.24828419548511" lon="115.75871820884315"><ele>4.666666666666667</ele><time>2026-03-30T06:09:43Z</time></trkpt><trkpt lat="-32.248113121662556" lon="115.75885687646408"><ele>4.333333333333333</ele><time>2026-03-30T06:09:44Z</time></trkpt><trkpt lat="-32.24795270447438" lon="115.75898983968419"><ele>4.0</ele><time>2026-03-30T06:09:45Z</time></trkpt><trkpt lat="-32.24780631539346" lon="115.7591099575292"><ele>4.0</ele><time>2026-03-30T06:09:46Z</time></trkpt><trkpt lat="-32.247668151568675" lon="115.75922364424665"><ele>4.0</ele><time>2026-03-30T06:09:47Z</time></trkpt><trkpt lat="-32.24753778932773" lon="115.75933034402642"><ele>4.0</ele><time>2026-03-30T06:09:48Z</time></trkpt><trkpt lat="-32.247414609976445" lon="115.75942970369546"><ele>4.4</ele><time>2026-03-30T06:09:49Z</time></trkpt><trkpt lat="-32.247304402346" lon="115.75952027744819"><ele>4.800000000000001</ele><time>2026-03-30T06:09:50Z</time></trkpt><trkpt lat="-32.24720638865768" lon="115.75959936556372"><ele>5.199999999999999</ele><time>2026-03-30T06:09:51Z</time></trkpt><trkpt lat="-32.24711830925367" lon="115.75965628556266"><ele>5.6</ele><time>2026-03-30T06:09:52Z</time></trkpt><trkpt lat="-32.24702871028969" lon="115.75967824253195"><ele>6.0</ele><time>2026-03-30T06:09:52.999Z</time></trkpt><trkpt lat="-32.24694364621173" lon="115.75968062345412"><ele>5.2</ele><time>2026-03-30T06:09:53.999Z</time></trkpt><trkpt lat="-32.24687653072856" lon="115.75968205956076"><ele>4.3999999999999995</ele><time>2026-03-30T06:09:54.999Z</time></trkpt><trkpt lat="-32.246821184505876" lon="115.75980770724264"><ele>3.6</ele><time>2026-03-30T06:09:56.999Z</time></trkpt><trkpt lat="-32.246832980201" lon="115.75990544020742"><ele>2.8</ele><time>2026-03-30T06:09:57.999Z</time></trkpt><trkpt lat="-32.24687597501958" lon="115.76000803577834"><ele>2.0</ele><time>2026-03-30T06:09:58.999Z</time></trkpt><trkpt lat="-32.246955121578964" lon="115.76010522364273"><ele>3.0</ele><time>2026-03-30T06:09:59.999Z</time></trkpt><trkpt lat="-32.247050921750564" lon="115.76021335729762"><ele>4.0</ele><time>2026-03-30T06:10:00.999Z</time></trkpt><trkpt lat="-32.24712197044174" lon="115.76038584939488"><ele>5.0</ele><time>2026-03-30T06:10:01.999Z</time></trkpt><trkpt lat="-32.24722790790566" lon="115.76055340392803"><ele>5.0</ele><time>2026-03-30T06:10:02.999Z</time></trkpt><trkpt lat="-32.24734334260712" lon="115.76074375773503"><ele>5.0</ele><time>2026-03-30T06:10:03.999Z</time></trkpt><trkpt lat="-32.24746902106623" lon="115.76095152412736"><ele>5.0</ele><time>2026-03-30T06:10:04.999Z</time></trkpt><trkpt lat="-32.24759325171082" lon="115.76116702861077"><ele>5.5</ele><time>2026-03-30T06:10:05.999Z</time></trkpt><trkpt lat="-32.24772558818929" lon="115.76139307529127"><ele>6.0</ele><time>2026-03-30T06:10:06.999Z</time></trkpt><trkpt lat="-32.24786673883402" lon="115.76163697745983"><ele>5.5</ele><time>2026-03-30T06:10:07.999Z</time></trkpt><trkpt lat="-32.24800364411605" lon="115.76187792839933"><ele>5.0</ele><time>2026-03-30T06:10:08.999Z</time></trkpt><trkpt lat="-32.24813449174645" lon="115.7621077265306"><ele>5.0</ele><time>2026-03-30T06:10:09.999Z</time></trkpt><trkpt lat="-32.2482566634456" lon="115.76231789688934"><ele>5.0</ele><time>2026-03-30T06:10:10.999Z</time></trkpt><trkpt lat="-32.248368422965555" lon="115.76250748660682"><ele>5.0</ele><time>2026-03-30T06:10:11.999Z</time></trkpt><trkpt lat="-32.248477806802846" lon="115.7626892561353"><ele>5.0</ele><time>2026-03-30T06:10:12.999Z</time></trkpt><trkpt lat="-32.24857764295783" lon="115.76285243664572"><ele>5.0</ele><time>2026-03-30T06:10:13.999Z</time></trkpt><trkpt lat="-32.24866474961399" lon="115.7629950451215"><ele>5.0</ele><time>2026-03-30T06:10:14.999Z</time></trkpt><trkpt lat="-32.24873740153013" lon="115.76311388691924"><ele>5.0</ele><time>2026-03-30T06:10:16Z</time></trkpt><trkpt lat="-32.248789341619286" lon="115.76321586838284"><ele>5.0</ele><time>2026-03-30T06:10:17Z</time></trkpt><trkpt lat="-32.248813961265974" lon="115.76331455309905"><ele>5.0</ele><time>2026-03-30T06:10:18Z</time></trkpt><trkpt lat="-32.24880429044106" lon="115.76341161991327"><ele>5.0</ele><time>2026-03-30T06:10:19Z</time></trkpt><trkpt lat="-32.248782572708464" lon="115.76351372222948"><ele>5.0</ele><time>2026-03-30T06:10:20Z</time></trkpt><trkpt lat="-32.248691966679864" lon="115.76361507714941"><ele>5.0</ele><time>2026-03-30T06:10:21Z</time></trkpt><trkpt lat="-32.24857943500511" lon="115.7636930107215"><ele>4.0</ele><time>2026-03-30T06:10:22Z</time></trkpt><trkpt lat="-32.24846922632139" lon="115.76380566927614"><ele>3.0</ele><time>2026-03-30T06:10:23Z</time></trkpt><trkpt lat="-32.24834320328033" lon="115.76391606452721"><ele>2.0</ele><time>2026-03-30T06:10:24Z</time></trkpt><trkpt lat="-32.248219813591106" lon="115.76405571501584"><ele>2.0</ele><time>2026-03-30T06:10:25Z</time></trkpt><trkpt lat="-32.24808961192498" lon="115.76420561190761"><ele>2.0</ele><time>2026-03-30T06:10:26Z</time></trkpt><trkpt lat="-32.24795167069163" lon="115.76435908668608"><ele>2.0</ele><time>2026-03-30T06:10:27Z</time></trkpt><trkpt lat="-32.24780453430028" lon="115.76452062256952"><ele>2.0</ele><time>2026-03-30T06:10:28Z</time></trkpt><trkpt lat="-32.247648890083354" lon="115.76469006886227"><ele>2.0</ele><time>2026-03-30T06:10:29Z</time></trkpt><trkpt lat="-32.24748508613753" lon="115.7648664308952"><ele>2.0</ele><time>2026-03-30T06:10:30Z</time></trkpt><trkpt lat="-32.24731445315357" lon="115.76505101269974"><ele>2.0</ele><time>2026-03-30T06:10:31Z</time></trkpt><trkpt lat="-32.24713884432968" lon="115.76524638446449"><ele>2.0</ele><time>2026-03-30T06:10:32Z</time></trkpt><trkpt lat="-32.24695174858815" lon="115.76545662439176"><ele>2.0</ele><time>2026-03-30T06:10:33Z</time></trkpt><trkpt lat="-32.24676248891155" lon="115.76566519362474"><ele>2.0</ele><time>2026-03-30T06:10:34Z</time></trkpt><trkpt lat="-32.24657602739216" lon="115.76587539543645"><ele>2.0</ele><time>2026-03-30T06:10:35Z</time></trkpt><trkpt lat="-32.24638749489751" lon="115.76608527062562"><ele>2.0</ele><time>2026-03-30T06:10:36Z</time></trkpt><trkpt lat="-32.24620778524855" lon="115.76628490177538"><ele>2.0</ele><time>2026-03-30T06:10:37Z</time></trkpt><trkpt lat="-32.24603940034306" lon="115.76647301853474"><ele>2.0</ele><time>2026-03-30T06:10:38Z</time></trkpt><trkpt lat="-32.24587755867376" lon="115.7666533312221"><ele>2.0</ele><time>2026-03-30T06:10:39Z</time></trkpt><trkpt lat="-32.24571058160838" lon="115.76683570755159"><ele>2.0</ele><time>2026-03-30T06:10:40Z</time></trkpt><trkpt lat="-32.24554308432407" lon="115.7670179364703"><ele>3.0</ele><time>2026-03-30T06:10:41Z</time></trkpt><trkpt lat="-32.24538252276298" lon="115.76719729674035"><ele>4.0</ele><time>2026-03-30T06:10:42Z</time></trkpt><trkpt lat="-32.245214445505965" lon="115.76738851936132"><ele>4.0</ele><time>2026-03-30T06:10:43Z</time></trkpt><trkpt lat="-32.24504949439738" lon="115.7675791201899"><ele>4.0</ele><time>2026-03-30T06:10:44Z</time></trkpt><trkpt lat="-32.24488405355065" lon="115.7677710557898"><ele>2.0</ele><time>2026-03-30T06:10:45Z</time></trkpt><trkpt lat="-32.24471582403984" lon="115.76796747819459"><ele>0.0</ele><time>2026-03-30T06:10:46Z</time></trkpt><trkpt lat="-32.244558656589255" lon="115.76815659922619"><ele>0.0</ele><time>2026-03-30T06:10:47Z</time></trkpt><trkpt lat="-32.24441022344749" lon="115.76832831573033"><ele>0.0</ele><time>2026-03-30T06:10:48Z</time></trkpt><trkpt lat="-32.24425655986338" lon="115.768485194775"><ele>0.0</ele><time>2026-03-30T06:10:49Z</time></trkpt><trkpt lat="-32.24408872090185" lon="115.76862589315078"><ele>0.3333333333333333</ele><time>2026-03-30T06:10:50Z</time></trkpt><trkpt lat="-32.24392342425129" lon="115.7687538066706"><ele>0.6666666666666666</ele><time>2026-03-30T06:10:51Z</time></trkpt><trkpt lat="-32.243774932091426" lon="115.76886503156605"><ele>1.0</ele><time>2026-03-30T06:10:52Z</time></trkpt><trkpt lat="-32.24364426689737" lon="115.76895817288724"><ele>1.0</ele><time>2026-03-30T06:10:53Z</time></trkpt><trkpt lat="-32.24353931048882" lon="115.76901353934564"><ele>1.0</ele><time>2026-03-30T06:10:54Z</time></trkpt><trkpt lat="-32.243426583553045" lon="115.76906329689922"><ele>1.0</ele><time>2026-03-30T06:10:55Z</time></trkpt><trkpt lat="-32.243341882929386" lon="115.7690578142788"><ele>1.0</ele><time>2026-03-30T06:10:56Z</time></trkpt><trkpt lat="-32.24326916877495" lon="115.76904620339654"><ele>1.0</ele><time>2026-03-30T06:10:57Z</time></trkpt><trkpt lat="-32.24319932726813" lon="115.76904127121239"><ele>0.75</ele><time>2026-03-30T06:10:59Z</time></trkpt><trkpt lat="-32.24312380304933" lon="115.76907880164455"><ele>0.5</ele><time>2026-03-30T06:11:02Z</time></trkpt><trkpt lat="-32.24305963866904" lon="115.76928035832597"><ele>0.25</ele><time>2026-03-30T06:11:04Z</time></trkpt><trkpt lat="-32.24305595717067" lon="115.76942570792988"><ele>0.0</ele><time>2026-03-30T06:11:05Z</time></trkpt><trkpt lat="-32.24307221245662" lon="115.76959968532182"><ele>0.0</ele><time>2026-03-30T06:11:06Z</time></trkpt><trkpt lat="-32.243076595837984" lon="115.769743085893"><ele>0.0</ele><time>2026-03-30T06:11:07Z</time></trkpt><trkpt lat="-32.24307309299523" lon="115.76987553424478"><ele>0.0</ele><time>2026-03-30T06:11:08Z</time></trkpt><trkpt lat="-32.24305578747515" lon="115.76998308417957"><ele>0.0</ele><time>2026-03-30T06:11:09Z</time></trkpt><trkpt lat="-32.24306857409749" lon="115.77006439674223"><ele>0.0</ele><time>2026-03-30T06:11:10Z</time></trkpt><trkpt lat="-32.24288347606303" lon="115.77013192829871"><ele>0.6666666666666666</ele><time>2026-03-30T06:11:13Z</time></trkpt><trkpt lat="-32.24307282024828" lon="115.77028831930954"><ele>1.3333333333333333</ele><time>2026-03-30T06:11:33Z</time></trkpt><trkpt lat="-32.243118040976135" lon="115.77045126667994"><ele>2.0</ele><time>2026-03-30T06:11:35Z</time></trkpt><trkpt lat="-32.24314190942308" lon="115.77058643706732"><ele>2.0</ele><time>2026-03-30T06:11:36Z</time></trkpt><trkpt lat="-32.243153031580874" lon="115.77075007154158"><ele>2.0</ele><time>2026-03-30T06:11:37Z</time></trkpt><trkpt lat="-32.243166497125465" lon="115.77093673583025"><ele>2.0</ele><time>2026-03-30T06:11:38Z</time></trkpt><trkpt lat="-32.24319365514814" lon="115.7711531264275"><ele>2.333333333333333</ele><time>2026-03-30T06:11:39Z</time></trkpt><trkpt lat="-32.24322760823818" lon="115.77137989529696"><ele>2.6666666666666665</ele><time>2026-03-30T06:11:40Z</time></trkpt><trkpt lat="-32.24326607310871" lon="115.77160671844905"><ele>3.0</ele><time>2026-03-30T06:11:41Z</time></trkpt><trkpt lat="-32.24331191908718" lon="115.77182772876807"><ele>4.333333333333334</ele><time>2026-03-30T06:11:42Z</time></trkpt><trkpt lat="-32.24335955446101" lon="115.77203330335283"><ele>5.666666666666667</ele><time>2026-03-30T06:11:43Z</time></trkpt><trkpt lat="-32.24340879051923" lon="115.77222148067919"><ele>7.0</ele><time>2026-03-30T06:11:44Z</time></trkpt><trkpt lat="-32.24345813503425" lon="115.77240281774955"><ele>7.0</ele><time>2026-03-30T06:11:45Z</time></trkpt><trkpt lat="-32.243507578657905" lon="115.7725793675365"><ele>7.0</ele><time>2026-03-30T06:11:46Z</time></trkpt><trkpt lat="-32.24355878963262" lon="115.7727558248839"><ele>7.0</ele><time>2026-03-30T06:11:47Z</time></trkpt><trkpt lat="-32.243612293641256" lon="115.77293063157792"><ele>7.5</ele><time>2026-03-30T06:11:48Z</time></trkpt><trkpt lat="-32.24366802611151" lon="115.77309275807723"><ele>8.0</ele><time>2026-03-30T06:11:48.999Z</time></trkpt><trkpt lat="-32.24372621787351" lon="115.77324114960241"><ele>8.5</ele><time>2026-03-30T06:11:49.999Z</time></trkpt><trkpt lat="-32.24378616749593" lon="115.77337994412946"><ele>9.0</ele><time>2026-03-30T06:11:50.999Z</time></trkpt><trkpt lat="-32.243842306163" lon="115.77350837096364"><ele>8.8</ele><time>2026-03-30T06:11:51.999Z</time></trkpt><trkpt lat="-32.24389309701866" lon="115.77363495334477"><ele>8.600000000000001</ele><time>2026-03-30T06:11:52.999Z</time></trkpt><trkpt lat="-32.24394040606605" lon="115.77375397412436"><ele>8.4</ele><time>2026-03-30T06:11:53.999Z</time></trkpt><trkpt lat="-32.24398896614461" lon="115.77386305825708"><ele>8.200000000000001</ele><time>2026-03-30T06:11:54.999Z</time></trkpt><trkpt lat="-32.244039617164205" lon="115.77396835452213"><ele>8.0</ele><time>2026-03-30T06:11:55.999Z</time></trkpt><trkpt lat="-32.244086742624965" lon="115.77405844856108"><ele>8.0</ele><time>2026-03-30T06:11:56.999Z</time></trkpt><trkpt lat="-32.24413563424176" lon="115.77415296089175"><ele>8.0</ele><time>2026-03-30T06:11:57.999Z</time></trkpt><trkpt lat="-32.24418134088879" lon="115.77424748173269"><ele>8.0</ele><time>2026-03-30T06:11:58.999Z</time></trkpt><trkpt lat="-32.244232809214836" lon="115.77435574283554"><ele>8.0</ele><time>2026-03-30T06:11:59.999Z</time></trkpt><trkpt lat="-32.24428112977684" lon="115.7744774416781"><ele>8.0</ele><time>2026-03-30T06:12:00.999Z</time></trkpt><trkpt lat="-32.24433613065831" lon="115.77458872657274"><ele>8.200000000000001</ele><time>2026-03-30T06:12:01.999Z</time></trkpt><trkpt lat="-32.24434342841522" lon="115.77472296364049"><ele>8.4</ele><time>2026-03-30T06:12:02.999Z</time></trkpt><trkpt lat="-32.24434505423539" lon="115.77483805332207"><ele>8.600000000000001</ele><time>2026-03-30T06:12:03.999Z</time></trkpt><trkpt lat="-32.24432281826277" lon="115.77494460701757"><ele>8.8</ele><time>2026-03-30T06:12:04.999Z</time></trkpt><trkpt lat="-32.244274942078356" lon="115.77503929242877"><ele>9.0</ele><time>2026-03-30T06:12:05.999Z</time></trkpt><trkpt lat="-32.24419742609342" lon="115.77515087766376"><ele>8.333333333333334</ele><time>2026-03-30T06:12:06.999Z</time></trkpt><trkpt lat="-32.24409290498454" lon="115.77526430045573"><ele>7.666666666666667</ele><time>2026-03-30T06:12:07.999Z</time></trkpt><trkpt lat="-32.2439617919067" lon="115.77538097510806"><ele>7.0</ele><time>2026-03-30T06:12:08.999Z</time></trkpt><trkpt lat="-32.24381118325143" lon="115.77550555463233"><ele>7.0</ele><time>2026-03-30T06:12:09.999Z</time></trkpt><trkpt lat="-32.24364531431049" lon="115.77563994099879"><ele>7.0</ele><time>2026-03-30T06:12:10.999Z</time></trkpt><trkpt lat="-32.243465693913095" lon="115.77578382199674"><ele>7.0</ele><time>2026-03-30T06:12:11.999Z</time></trkpt><trkpt lat="-32.2432817365781" lon="115.77593304570821"><ele>5.5</ele><time>2026-03-30T06:12:12.999Z</time></trkpt><trkpt lat="-32.2430822373307" lon="115.77609311418773"><ele>4.0</ele><time>2026-03-30T06:12:13.999Z</time></trkpt><trkpt lat="-32.2428666996079" lon="115.77626219953912"><ele>4.0</ele><time>2026-03-30T06:12:14.999Z</time></trkpt><trkpt lat="-32.242627729546214" lon="115.77643424182294"><ele>4.0</ele><time>2026-03-30T06:12:15.999Z</time></trkpt><trkpt lat="-32.24236622907513" lon="115.77659784724672"><ele>4.5</ele><time>2026-03-30T06:12:16.999Z</time></trkpt><trkpt lat="-32.24209122638548" lon="115.77674464094169"><ele>5.0</ele><time>2026-03-30T06:12:17.999Z</time></trkpt><trkpt lat="-32.24180958044712" lon="115.77686877629219"><ele>4.5</ele><time>2026-03-30T06:12:18.999Z</time></trkpt><trkpt lat="-32.24151466250864" lon="115.77698155637226"><ele>4.0</ele><time>2026-03-30T06:12:19.999Z</time></trkpt><trkpt lat="-32.24123077375524" lon="115.77707179055741"><ele>4.0</ele><time>2026-03-30T06:12:20.999Z</time></trkpt><trkpt lat="-32.24097077927692" lon="115.77712853380518"><ele>4.0</ele><time>2026-03-30T06:12:22Z</time></trkpt><trkpt lat="-32.24071004898129" lon="115.77716308585543"><ele>8.0</ele><time>2026-03-30T06:12:23Z</time></trkpt><trkpt lat="-32.2404441748164" lon="115.77719014140251"><ele>12.0</ele><time>2026-03-30T06:12:24Z</time></trkpt><trkpt lat="-32.240179005124844" lon="115.77720312576794"><ele>12.0</ele><time>2026-03-30T06:12:25Z</time></trkpt><trkpt lat="-32.239913365229185" lon="115.77720419389378"><ele>12.0</ele><time>2026-03-30T06:12:26Z</time></trkpt><trkpt lat="-32.239646728477865" lon="115.77719198695925"><ele>10.5</ele><time>2026-03-30T06:12:27Z</time></trkpt><trkpt lat="-32.239379062184575" lon="115.77717152510343"><ele>9.0</ele><time>2026-03-30T06:12:28Z</time></trkpt><trkpt lat="-32.23911231539035" lon="115.77715163530944"><ele>6.5</ele><time>2026-03-30T06:12:29Z</time></trkpt><trkpt lat="-32.238848055816206" lon="115.77713102130046"><ele>4.0</ele><time>2026-03-30T06:12:30Z</time></trkpt><trkpt lat="-32.238584920603735" lon="115.77711251297404"><ele>4.0</ele><time>2026-03-30T06:12:31Z</time></trkpt><trkpt lat="-32.23832386523576" lon="115.77709371323837"><ele>4.0</ele><time>2026-03-30T06:12:32Z</time></trkpt><trkpt lat="-32.23806466262147" lon="115.77707741329694"><ele>4.0</ele><time>2026-03-30T06:12:33Z</time></trkpt><trkpt lat="-32.237808013498984" lon="115.77706262739895"><ele>4.0</ele><time>2026-03-30T06:12:34Z</time></trkpt><trkpt lat="-32.23755505749435" lon="115.77704714939323"><ele>4.0</ele><time>2026-03-30T06:12:35Z</time></trkpt><trkpt lat="-32.23730417857202" lon="115.7770293005429"><ele>4.0</ele><time>2026-03-30T06:12:36Z</time></trkpt><trkpt lat="-32.237053763452266" lon="115.77701149238145"><ele>3.5</ele><time>2026-03-30T06:12:37Z</time></trkpt><trkpt lat="-32.23680532359316" lon="115.77699549700674"><ele>3.0</ele><time>2026-03-30T06:12:38Z</time></trkpt><trkpt lat="-32.23655796385377" lon="115.77698260194092"><ele>3.5</ele><time>2026-03-30T06:12:39Z</time></trkpt><trkpt lat="-32.236312982620575" lon="115.7769741202626"><ele>4.0</ele><time>2026-03-30T06:12:40Z</time></trkpt><trkpt lat="-32.23606998422401" lon="115.77697554783033"><ele>4.0</ele><time>2026-03-30T06:12:41Z</time></trkpt><trkpt lat="-32.23582981122876" lon="115.77699268936489"><ele>4.0</ele><time>2026-03-30T06:12:42Z</time></trkpt><trkpt lat="-32.23559186354419" lon="115.7770237607492"><ele>2.5</ele><time>2026-03-30T06:12:43Z</time></trkpt><trkpt lat="-32.23535880449908" lon="115.77706310280142"><ele>1.0</ele><time>2026-03-30T06:12:44Z</time></trkpt><trkpt lat="-32.235134519467515" lon="115.77709863729915"><ele>1.0</ele><time>2026-03-30T06:12:45Z</time></trkpt><trkpt lat="-32.234922396460334" lon="115.77713222061936"><ele>1.0</ele><time>2026-03-30T06:12:46Z</time></trkpt><trkpt lat="-32.234728017495634" lon="115.77717129729027"><ele>1.0</ele><time>2026-03-30T06:12:47Z</time></trkpt><trkpt lat="-32.234547045349764" lon="115.77721868709659"><ele>3.0</ele><time>2026-03-30T06:12:48Z</time></trkpt><trkpt lat="-32.2343784327634" lon="115.77727497218672"><ele>5.0</ele><time>2026-03-30T06:12:49Z</time></trkpt><trkpt lat="-32.23422470966693" lon="115.77733670579823"><ele>7.0</ele><time>2026-03-30T06:12:50Z</time></trkpt><trkpt lat="-32.23409278294885" lon="115.77739513878498"><ele>7.000000000000001</ele><time>2026-03-30T06:12:51Z</time></trkpt><trkpt lat="-32.23398569259896" lon="115.77744852813686"><ele>7.0</ele><time>2026-03-30T06:12:52Z</time></trkpt><trkpt lat="-32.23389805695144" lon="115.77749546697318"><ele>7.0</ele><time>2026-03-30T06:12:53Z</time></trkpt><trkpt lat="-32.233822022724176" lon="115.777534017448"><ele>7.0</ele><time>2026-03-30T06:12:54Z</time></trkpt><trkpt lat="-32.23375338691175" lon="115.77756461596681"><ele>7.000000000000001</ele><time>2026-03-30T06:12:55Z</time></trkpt><trkpt lat="-32.233686787049066" lon="115.77759916008685"><ele>7.0</ele><time>2026-03-30T06:12:56Z</time></trkpt><trkpt lat="-32.23362538264693" lon="115.7776344117639"><ele>7.166666666666667</ele><time>2026-03-30T06:12:57Z</time></trkpt><trkpt lat="-32.23356704391946" lon="115.77766853397665"><ele>7.333333333333334</ele><time>2026-03-30T06:12:58Z</time></trkpt><trkpt lat="-32.23346377308898" lon="115.77772970898131"><ele>7.5</ele><time>2026-03-30T06:13:00Z</time></trkpt><trkpt lat="-32.23339127957717" lon="115.7777794946528"><ele>7.666666666666666</ele><time>2026-03-30T06:13:22Z</time></trkpt><trkpt lat="-32.23333037343274" lon="115.77782245864343"><ele>7.833333333333333</ele><time>2026-03-30T06:13:26Z</time></trkpt><trkpt lat="-32.23326205920402" lon="115.77786188446892"><ele>8.0</ele><time>2026-03-30T06:13:29Z</time></trkpt><trkpt lat="-32.23317755373659" lon="115.77791975242324"><ele>7.0</ele><time>2026-03-30T06:13:31.999Z</time></trkpt><trkpt lat="-32.233098155824834" lon="115.77797307355895"><ele>6.000000000000001</ele><time>2026-03-30T06:13:33.999Z</time></trkpt><trkpt lat="-32.23300275265318" lon="115.77803954637764"><ele>5.0</ele><time>2026-03-30T06:13:35.999Z</time></trkpt><trkpt lat="-32.23288865878978" lon="115.77811137428122"><ele>4.0</ele><time>2026-03-30T06:13:37.999Z</time></trkpt><trkpt lat="-32.232812923208115" lon="115.77815723674959"><ele>3.0</ele><time>2026-03-30T06:13:38.999Z</time></trkpt><trkpt lat="-32.23272026609587" lon="115.77819867800017"><ele>3.0</ele><time>2026-03-30T06:13:39.999Z</time></trkpt><trkpt lat="-32.232621407497334" lon="115.77825362447999"><ele>3.0</ele><time>2026-03-30T06:13:40.999Z</time></trkpt><trkpt lat="-32.232511330024344" lon="115.77833696682966"><ele>3.0</ele><time>2026-03-30T06:13:41.999Z</time></trkpt><trkpt lat="-32.232383545691036" lon="115.77843920535064"><ele>3.0</ele><time>2026-03-30T06:13:42.999Z</time></trkpt><trkpt lat="-32.23224511239477" lon="115.77855995443848"><ele>3.666666666666667</ele><time>2026-03-30T06:13:43.999Z</time></trkpt><trkpt lat="-32.232101051597624" lon="115.77868862955691"><ele>4.333333333333334</ele><time>2026-03-30T06:13:44.999Z</time></trkpt><trkpt lat="-32.2319479495749" lon="115.77882991952106"><ele>5.0</ele><time>2026-03-30T06:13:45.999Z</time></trkpt><trkpt lat="-32.231810221343686" lon="115.7789601772027"><ele>5.0</ele><time>2026-03-30T06:13:46.999Z</time></trkpt><trkpt lat="-32.231687340036984" lon="115.77907273419095"><ele>5.0</ele><time>2026-03-30T06:13:47.999Z</time></trkpt><trkpt lat="-32.23158828859832" lon="115.77916574908048"><ele>5.0</ele><time>2026-03-30T06:13:48.999Z</time></trkpt><trkpt lat="-32.23150842023154" lon="115.77924469398445"><ele>5.0</ele><time>2026-03-30T06:13:49.999Z</time></trkpt><trkpt lat="-32.23144403990226" lon="115.77931121401345"><ele>5.333333333333334</ele><time>2026-03-30T06:13:50.999Z</time></trkpt><trkpt lat="-32.23139770832446" lon="115.77936219829903"><ele>5.666666666666667</ele><time>2026-03-30T06:13:51.999Z</time></trkpt><trkpt lat="-32.2313483792682" lon="115.77941584690451"><ele>6.0</ele><time>2026-03-30T06:13:54.999Z</time></trkpt><trkpt lat="-32.231288976989525" lon="115.77952126303855"><ele>6.333333333333334</ele><time>2026-03-30T06:15:16Z</time></trkpt><trkpt lat="-32.23123713358796" lon="115.77958897486393"><ele>6.666666666666667</ele><time>2026-03-30T06:15:17Z</time></trkpt><trkpt lat="-32.23117376164246" lon="115.77966303304768"><ele>7.0</ele><time>2026-03-30T06:15:18Z</time></trkpt><trkpt lat="-32.231096975673964" lon="115.77975877057835"><ele>7.0</ele><time>2026-03-30T06:15:19Z</time></trkpt><trkpt lat="-32.2310162838184" lon="115.7798635965073"><ele>7.0</ele><time>2026-03-30T06:15:20Z</time></trkpt><trkpt lat="-32.23091791942318" lon="115.77999181251042"><ele>7.0</ele><time>2026-03-30T06:15:21Z</time></trkpt><trkpt lat="-32.23080667000042" lon="115.78013756442778"><ele>7.0</ele><time>2026-03-30T06:15:22Z</time></trkpt><trkpt lat="-32.23069226458514" lon="115.78029037330134"><ele>7.333333333333334</ele><time>2026-03-30T06:15:23Z</time></trkpt><trkpt lat="-32.23056157788132" lon="115.78046913156038"><ele>7.666666666666666</ele><time>2026-03-30T06:15:23.999Z</time></trkpt><trkpt lat="-32.23043306878227" lon="115.78065381088201"><ele>8.0</ele><time>2026-03-30T06:15:24.999Z</time></trkpt><trkpt lat="-32.23030842461037" lon="115.7808524070805"><ele>7.666666666666666</ele><time>2026-03-30T06:15:25.999Z</time></trkpt><trkpt lat="-32.230183373129435" lon="115.78107619829973"><ele>7.333333333333334</ele><time>2026-03-30T06:15:26.999Z</time></trkpt><trkpt lat="-32.23007088827547" lon="115.781303072562"><ele>7.0</ele><time>2026-03-30T06:15:27.999Z</time></trkpt><trkpt lat="-32.22997827865651" lon="115.7815141063076"><ele>7.0</ele><time>2026-03-30T06:15:28.999Z</time></trkpt><trkpt lat="-32.229897300397575" lon="115.78172241123904"><ele>7.0</ele><time>2026-03-30T06:15:29.999Z</time></trkpt><trkpt lat="-32.229824948277106" lon="115.7819323269708"><ele>7.0</ele><time>2026-03-30T06:15:30.999Z</time></trkpt><trkpt lat="-32.22976249945833" lon="115.7821468373751"><ele>6.666666666666667</ele><time>2026-03-30T06:15:31.999Z</time></trkpt><trkpt lat="-32.22970682629489" lon="115.78236420236873"><ele>6.333333333333334</ele><time>2026-03-30T06:15:32.999Z</time></trkpt><trkpt lat="-32.22965544260158" lon="115.78257921334585"><ele>6.0</ele><time>2026-03-30T06:15:33.999Z</time></trkpt><trkpt lat="-32.22960556963995" lon="115.7827900151382"><ele>6.0</ele><time>2026-03-30T06:15:34.999Z</time></trkpt><trkpt lat="-32.22955659211237" lon="115.7830060284464"><ele>6.0</ele><time>2026-03-30T06:15:35.999Z</time></trkpt><trkpt lat="-32.22950808497247" lon="115.78323192703432"><ele>6.0</ele><time>2026-03-30T06:15:36.999Z</time></trkpt><trkpt lat="-32.22945776177954" lon="115.78346450578833"><ele>6.0</ele><time>2026-03-30T06:15:37.999Z</time></trkpt><trkpt lat="-32.22939837489542" lon="115.7837041401981"><ele>6.0</ele><time>2026-03-30T06:15:38.999Z</time></trkpt><trkpt lat="-32.22932729501573" lon="115.78393729397347"><ele>6.0</ele><time>2026-03-30T06:15:39.999Z</time></trkpt><trkpt lat="-32.22923344567893" lon="115.78417852741185"><ele>9.0</ele><time>2026-03-30T06:15:40.999Z</time></trkpt><trkpt lat="-32.229127699644685" lon="115.78442972690786"><ele>12.0</ele><time>2026-03-30T06:15:41.999Z</time></trkpt><trkpt lat="-32.22901853282527" lon="115.78465684996584"><ele>10.0</ele><time>2026-03-30T06:15:42.999Z</time></trkpt><trkpt lat="-32.22890179849652" lon="115.78488688691384"><ele>8.0</ele><time>2026-03-30T06:15:43.999Z</time></trkpt><trkpt lat="-32.228778281973725" lon="115.78512100707704"><ele>10.0</ele><time>2026-03-30T06:15:44.999Z</time></trkpt><trkpt lat="-32.22864178382938" lon="115.78534079551687"><ele>12.0</ele><time>2026-03-30T06:15:45.999Z</time></trkpt><trkpt lat="-32.228479568360456" lon="115.78555126307494"><ele>12.0</ele><time>2026-03-30T06:15:46.999Z</time></trkpt><trkpt lat="-32.22830767447468" lon="115.78575597809818"><ele>12.0</ele><time>2026-03-30T06:15:47.999Z</time></trkpt><trkpt lat="-32.22814332339871" lon="115.78594123077914"><ele>12.666666666666668</ele><time>2026-03-30T06:15:48.999Z</time></trkpt><trkpt lat="-32.22798221042589" lon="115.78611649561088"><ele>13.333333333333334</ele><time>2026-03-30T06:15:49.999Z</time></trkpt><trkpt lat="-32.22782432720248" lon="115.78627794381104"><ele>14.0</ele><time>2026-03-30T06:15:50.999Z</time></trkpt><trkpt lat="-32.22766566388952" lon="115.78643034621025"><ele>14.0</ele><time>2026-03-30T06:15:51.999Z</time></trkpt><trkpt lat="-32.22749623729805" lon="115.78658770445575"><ele>14.0</ele><time>2026-03-30T06:15:52.999Z</time></trkpt><trkpt lat="-32.22731381355609" lon="115.78673255881809"><ele>14.0</ele><time>2026-03-30T06:15:53.999Z</time></trkpt><trkpt lat="-32.227113544261975" lon="115.78686250480625"><ele>13.5</ele><time>2026-03-30T06:15:54.999Z</time></trkpt><trkpt lat="-32.22690099671477" lon="115.78698321508621"><ele>13.0</ele><time>2026-03-30T06:15:55.999Z</time></trkpt><trkpt lat="-32.22669853194879" lon="115.78709923844184"><ele>13.0</ele><time>2026-03-30T06:15:56.999Z</time></trkpt><trkpt lat="-32.226515213112634" lon="115.78720550748889"><ele>13.0</ele><time>2026-03-30T06:15:57.999Z</time></trkpt><trkpt lat="-32.226342177138726" lon="115.78729671204313"><ele>13.0</ele><time>2026-03-30T06:15:58.999Z</time></trkpt><trkpt lat="-32.22619013222153" lon="115.78736064840874"><ele>12.600000000000001</ele><time>2026-03-30T06:15:59.999Z</time></trkpt><trkpt lat="-32.226062312520625" lon="115.78740173121517"><ele>12.200000000000001</ele><time>2026-03-30T06:16:00.999Z</time></trkpt><trkpt lat="-32.22595958626475" lon="115.78743057187492"><ele>11.8</ele><time>2026-03-30T06:16:01.999Z</time></trkpt><trkpt lat="-32.22588669408587" lon="115.7874489215514"><ele>11.4</ele><time>2026-03-30T06:16:02.999Z</time></trkpt><trkpt lat="-32.22582171618422" lon="115.78746513751915"><ele>11.0</ele><time>2026-03-30T06:16:04.999Z</time></trkpt><trkpt lat="-32.22572526100608" lon="115.78748715565592"><ele>11.5</ele><time>2026-03-30T06:16:25.999Z</time></trkpt><trkpt lat="-32.22564177400034" lon="115.78750993405455"><ele>12.0</ele><time>2026-03-30T06:16:26.999Z</time></trkpt><trkpt lat="-32.22553561780436" lon="115.78753291289945"><ele>12.5</ele><time>2026-03-30T06:16:27.999Z</time></trkpt><trkpt lat="-32.22541223271956" lon="115.78755939332888"><ele>13.0</ele><time>2026-03-30T06:16:28.999Z</time></trkpt><trkpt lat="-32.225274737662495" lon="115.78757625420026"><ele>13.0</ele><time>2026-03-30T06:16:29.999Z</time></trkpt><trkpt lat="-32.22510728073411" lon="115.78759231953605"><ele>13.0</ele><time>2026-03-30T06:16:30.999Z</time></trkpt><trkpt lat="-32.2249112714032" lon="115.78760634833394"><ele>13.0</ele><time>2026-03-30T06:16:32Z</time></trkpt><trkpt lat="-32.22470873722667" lon="115.7876096792207"><ele>13.0</ele><time>2026-03-30T06:16:33Z</time></trkpt><trkpt lat="-32.224487976019894" lon="115.78759899567035"><ele>13.0</ele><time>2026-03-30T06:16:34Z</time></trkpt><trkpt lat="-32.22424444926067" lon="115.78757532692663"><ele>13.0</ele><time>2026-03-30T06:16:35Z</time></trkpt><trkpt lat="-32.223994762469154" lon="115.7875434648197"><ele>13.0</ele><time>2026-03-30T06:16:36Z</time></trkpt><trkpt lat="-32.22373951100952" lon="115.78749228062236"><ele>13.5</ele><time>2026-03-30T06:16:37Z</time></trkpt><trkpt lat="-32.22347292732446" lon="115.78742144216426"><ele>14.0</ele><time>2026-03-30T06:16:38Z</time></trkpt><trkpt lat="-32.22320242952147" lon="115.78734311931605"><ele>14.5</ele><time>2026-03-30T06:16:39Z</time></trkpt><trkpt lat="-32.222919320421646" lon="115.78725814494881"><ele>15.0</ele><time>2026-03-30T06:16:40Z</time></trkpt><trkpt lat="-32.222619609403026" lon="115.7871684693415"><ele>18.5</ele><time>2026-03-30T06:16:41Z</time></trkpt><trkpt lat="-32.222314766740034" lon="115.7870780624024"><ele>22.0</ele><time>2026-03-30T06:16:42Z</time></trkpt><trkpt lat="-32.22204130763257" lon="115.78700210130049"><ele>22.0</ele><time>2026-03-30T06:16:43Z</time></trkpt><trkpt lat="-32.22180048648735" lon="115.786936053823"><ele>22.0</ele><time>2026-03-30T06:16:44Z</time></trkpt><trkpt lat="-32.221567360348466" lon="115.78686955924643"><ele>18.5</ele><time>2026-03-30T06:16:45Z</time></trkpt><trkpt lat="-32.22132604673628" lon="115.78679676348294"><ele>15.0</ele><time>2026-03-30T06:16:46Z</time></trkpt><trkpt lat="-32.22108020055652" lon="115.78672103822804"><ele>15.0</ele><time>2026-03-30T06:16:47Z</time></trkpt><trkpt lat="-32.220831795679" lon="115.78664423324047"><ele>15.0</ele><time>2026-03-30T06:16:48Z</time></trkpt><trkpt lat="-32.22057934470967" lon="115.7865664390564"><ele>15.0</ele><time>2026-03-30T06:16:49Z</time></trkpt><trkpt lat="-32.22032574091385" lon="115.78648830212329"><ele>15.0</ele><time>2026-03-30T06:16:50Z</time></trkpt><trkpt lat="-32.22007029981421" lon="115.78640886147343"><ele>16.0</ele><time>2026-03-30T06:16:51Z</time></trkpt><trkpt lat="-32.21981166583202" lon="115.78633521040264"><ele>17.0</ele><time>2026-03-30T06:16:52Z</time></trkpt><trkpt lat="-32.219551664943296" lon="115.78626163842841"><ele>17.0</ele><time>2026-03-30T06:16:53Z</time></trkpt><trkpt lat="-32.21929469344537" lon="115.78618753035545"><ele>17.0</ele><time>2026-03-30T06:16:54Z</time></trkpt><trkpt lat="-32.219032670354196" lon="115.7861149669873"><ele>18.0</ele><time>2026-03-30T06:16:55Z</time></trkpt><trkpt lat="-32.21877396045836" lon="115.78605026315324"><ele>19.0</ele><time>2026-03-30T06:16:56Z</time></trkpt><trkpt lat="-32.21851608880349" lon="115.7859914907328"><ele>15.5</ele><time>2026-03-30T06:16:57Z</time></trkpt><trkpt lat="-32.218256557206495" lon="115.78594504405692"><ele>12.0</ele><time>2026-03-30T06:16:58Z</time></trkpt><trkpt lat="-32.21799454165766" lon="115.78591040370591"><ele>11.5</ele><time>2026-03-30T06:16:59Z</time></trkpt><trkpt lat="-32.217734558698815" lon="115.78588530543107"><ele>11.0</ele><time>2026-03-30T06:17:00Z</time></trkpt><trkpt lat="-32.21747364962737" lon="115.78586552494389"><ele>12.5</ele><time>2026-03-30T06:17:01Z</time></trkpt><trkpt lat="-32.21721535508978" lon="115.78585102331128"><ele>14.0</ele><time>2026-03-30T06:17:02Z</time></trkpt><trkpt lat="-32.21695406584445" lon="115.78584208224687"><ele>14.0</ele><time>2026-03-30T06:17:03Z</time></trkpt><trkpt lat="-32.21669484291495" lon="115.7858380317986"><ele>14.0</ele><time>2026-03-30T06:17:04Z</time></trkpt><trkpt lat="-32.216435626546556" lon="115.7858331334114"><ele>13.0</ele><time>2026-03-30T06:17:05Z</time></trkpt><trkpt lat="-32.21617681802705" lon="115.78583174848167"><ele>12.0</ele><time>2026-03-30T06:17:06Z</time></trkpt><trkpt lat="-32.21592016126532" lon="115.78583023453025"><ele>12.0</ele><time>2026-03-30T06:17:07Z</time></trkpt><trkpt lat="-32.215662377434" lon="115.78582741561289"><ele>12.0</ele><time>2026-03-30T06:17:07.999Z</time></trkpt><trkpt lat="-32.215405589993935" lon="115.78582260879907"><ele>13.5</ele><time>2026-03-30T06:17:08.999Z</time></trkpt><trkpt lat="-32.2151473046833" lon="115.78581671006432"><ele>15.0</ele><time>2026-03-30T06:17:09.999Z</time></trkpt><trkpt lat="-32.2148897155424" lon="115.78581425003988"><ele>15.5</ele><time>2026-03-30T06:17:10.999Z</time></trkpt><trkpt lat="-32.214633912530395" lon="115.78581511673772"><ele>16.0</ele><time>2026-03-30T06:17:11.999Z</time></trkpt><trkpt lat="-32.21437961067192" lon="115.78581567619202"><ele>16.0</ele><time>2026-03-30T06:17:12.999Z</time></trkpt><trkpt lat="-32.21412380409293" lon="115.78581484365384"><ele>16.0</ele><time>2026-03-30T06:17:13.999Z</time></trkpt><trkpt lat="-32.21386763750536" lon="115.78581227485589"><ele>17.0</ele><time>2026-03-30T06:17:14.999Z</time></trkpt><trkpt lat="-32.21361211792192" lon="115.78581084817185"><ele>18.0</ele><time>2026-03-30T06:17:15.999Z</time></trkpt><trkpt lat="-32.21335483859291" lon="115.78580845089341"><ele>19.0</ele><time>2026-03-30T06:17:16.999Z</time></trkpt><trkpt lat="-32.21309703832538" lon="115.7858034521389"><ele>20.0</ele><time>2026-03-30T06:17:17.999Z</time></trkpt><trkpt lat="-32.21283452619329" lon="115.78579520737584"><ele>20.0</ele><time>2026-03-30T06:17:18.999Z</time></trkpt><trkpt lat="-32.21256876266086" lon="115.78578986831346"><ele>20.0</ele><time>2026-03-30T06:17:19.999Z</time></trkpt><trkpt lat="-32.21230302462061" lon="115.78578581380455"><ele>19.5</ele><time>2026-03-30T06:17:20.999Z</time></trkpt><trkpt lat="-32.21203802772733" lon="115.78578222161785"><ele>19.0</ele><time>2026-03-30T06:17:21.999Z</time></trkpt><trkpt lat="-32.211778143933515" lon="115.78577165629572"><ele>19.0</ele><time>2026-03-30T06:17:22.999Z</time></trkpt><trkpt lat="-32.21153306545996" lon="115.78574901529159"><ele>19.0</ele><time>2026-03-30T06:17:23.999Z</time></trkpt><trkpt lat="-32.21130047951249" lon="115.78571801979359"><ele>18.0</ele><time>2026-03-30T06:17:24.999Z</time></trkpt><trkpt lat="-32.21108154269977" lon="115.78567832062602"><ele>17.0</ele><time>2026-03-30T06:17:25.999Z</time></trkpt><trkpt lat="-32.21087525265312" lon="115.78563527804647"><ele>16.0</ele><time>2026-03-30T06:17:26.999Z</time></trkpt><trkpt lat="-32.2106782519056" lon="115.78558812278375"><ele>16.666666666666664</ele><time>2026-03-30T06:17:27.999Z</time></trkpt><trkpt lat="-32.210484859053224" lon="115.7855366235076"><ele>17.333333333333332</ele><time>2026-03-30T06:17:28.999Z</time></trkpt><trkpt lat="-32.21028801086854" lon="115.78547414662137"><ele>18.0</ele><time>2026-03-30T06:17:29.999Z</time></trkpt><trkpt lat="-32.21009173472381" lon="115.7854063092329"><ele>18.0</ele><time>2026-03-30T06:17:30.999Z</time></trkpt><trkpt lat="-32.2098965861139" lon="115.785335192683"><ele>18.0</ele><time>2026-03-30T06:17:31.999Z</time></trkpt><trkpt lat="-32.20970241356765" lon="115.78525951531759"><ele>18.0</ele><time>2026-03-30T06:17:32.999Z</time></trkpt><trkpt lat="-32.20951382179741" lon="115.78518093919337"><ele>19.0</ele><time>2026-03-30T06:17:33.999Z</time></trkpt><trkpt lat="-32.20933929088001" lon="115.78510289359026"><ele>20.0</ele><time>2026-03-30T06:17:34.999Z</time></trkpt><trkpt lat="-32.209176890445214" lon="115.78502506722774"><ele>21.0</ele><time>2026-03-30T06:17:35.999Z</time></trkpt><trkpt lat="-32.209017942923715" lon="115.78494923728131"><ele>19.333333333333332</ele><time>2026-03-30T06:17:36.999Z</time></trkpt><trkpt lat="-32.20885605254619" lon="115.78487489360349"><ele>17.666666666666664</ele><time>2026-03-30T06:17:37.999Z</time></trkpt><trkpt lat="-32.20869130014903" lon="115.78479735370051"><ele>16.0</ele><time>2026-03-30T06:17:38.999Z</time></trkpt><trkpt lat="-32.20852515820949" lon="115.78471623694489"><ele>16.0</ele><time>2026-03-30T06:17:39.999Z</time></trkpt><trkpt lat="-32.20835555598114" lon="115.78463247764947"><ele>16.0</ele><time>2026-03-30T06:17:40.999Z</time></trkpt><trkpt lat="-32.20818547184761" lon="115.78454837699606"><ele>16.0</ele><time>2026-03-30T06:17:41.999Z</time></trkpt><trkpt lat="-32.208013823732564" lon="115.78446446220468"><ele>16.333333333333332</ele><time>2026-03-30T06:17:42.999Z</time></trkpt><trkpt lat="-32.20784059738093" lon="115.78437958420615"><ele>16.666666666666668</ele><time>2026-03-30T06:17:43.999Z</time></trkpt><trkpt lat="-32.20766854893623" lon="115.78429751968957"><ele>17.0</ele><time>2026-03-30T06:17:44.999Z</time></trkpt><trkpt lat="-32.207503521743384" lon="115.78422023065173"><ele>17.25</ele><time>2026-03-30T06:17:45.999Z</time></trkpt><trkpt lat="-32.207354519609616" lon="115.78415239497426"><ele>17.5</ele><time>2026-03-30T06:17:46.999Z</time></trkpt><trkpt lat="-32.20721898803413" lon="115.78408832685149"><ele>17.75</ele><time>2026-03-30T06:17:47.999Z</time></trkpt><trkpt lat="-32.20709664688209" lon="115.78403164326392"><ele>18.0</ele><time>2026-03-30T06:17:48.999Z</time></trkpt><trkpt lat="-32.20697838799204" lon="115.78397399300552"><ele>18.25</ele><time>2026-03-30T06:17:49.999Z</time></trkpt><trkpt lat="-32.20686327372232" lon="115.78392025318449"><ele>18.5</ele><time>2026-03-30T06:17:50.999Z</time></trkpt><trkpt lat="-32.20675188693784" lon="115.78386922208259"><ele>18.75</ele><time>2026-03-30T06:17:51.999Z</time></trkpt><trkpt lat="-32.206643083226844" lon="115.78382547257611"><ele>19.0</ele><time>2026-03-30T06:17:52.999Z</time></trkpt><trkpt lat="-32.20653932507104" lon="115.7837882567378"><ele>18.8</ele><time>2026-03-30T06:17:53.999Z</time></trkpt><trkpt lat="-32.2064396662887" lon="115.78374959883307"><ele>18.599999999999998</ele><time>2026-03-30T06:17:54.999Z</time></trkpt><trkpt lat="-32.206345649250174" lon="115.78370591049273"><ele>18.4</ele><time>2026-03-30T06:17:55.999Z</time></trkpt><trkpt lat="-32.20625464664783" lon="115.78366135749594"><ele>18.2</ele><time>2026-03-30T06:17:56.999Z</time></trkpt><trkpt lat="-32.20616719367559" lon="115.7836190086934"><ele>18.0</ele><time>2026-03-30T06:17:57.999Z</time></trkpt><trkpt lat="-32.20608397619075" lon="115.78358000004835"><ele>18.0</ele><time>2026-03-30T06:17:58.999Z</time></trkpt><trkpt lat="-32.20600789640766" lon="115.78354351803402"><ele>18.0</ele><time>2026-03-30T06:17:59.999Z</time></trkpt><trkpt lat="-32.205943124465776" lon="115.78351129546245"><ele>18.0</ele><time>2026-03-30T06:18:00.999Z</time></trkpt><trkpt lat="-32.20584137953322" lon="115.78346654799465"><ele>18.0</ele><time>2026-03-30T06:18:02.999Z</time></trkpt><trkpt lat="-32.205773627978886" lon="115.7834454466977"><ele>18.0</ele><time>2026-03-30T06:18:04.999Z</time></trkpt><trkpt lat="-32.20567625448239" lon="115.78345322816752"><ele>18.0</ele><time>2026-03-30T06:19:36.999Z</time></trkpt><trkpt lat="-32.2055728986012" lon="115.78355347481707"><ele>18.2</ele><time>2026-03-30T06:19:38.999Z</time></trkpt><trkpt lat="-32.20554074964685" lon="115.78363925769756"><ele>18.4</ele><time>2026-03-30T06:19:39.999Z</time></trkpt><trkpt lat="-32.20552650473425" lon="115.78374069393078"><ele>18.599999999999998</ele><time>2026-03-30T06:19:40.999Z</time></trkpt><trkpt lat="-32.20552309808257" lon="115.7838745961394"><ele>18.8</ele><time>2026-03-30T06:19:41.999Z</time></trkpt><trkpt lat="-32.20554758165481" lon="115.78404272129306"><ele>19.0</ele><time>2026-03-30T06:19:42.999Z</time></trkpt><trkpt lat="-32.2055691675561" lon="115.78424207253579"><ele>19.0</ele><time>2026-03-30T06:19:43.999Z</time></trkpt><trkpt lat="-32.205582095830955" lon="115.78442109521336"><ele>19.0</ele><time>2026-03-30T06:19:44.999Z</time></trkpt><trkpt lat="-32.205587327842416" lon="115.78458149460393"><ele>19.0</ele><time>2026-03-30T06:19:45.999Z</time></trkpt><trkpt lat="-32.205588635779385" lon="115.78473251989037"><ele>19.0</ele><time>2026-03-30T06:19:46.999Z</time></trkpt><trkpt lat="-32.205590125312646" lon="115.78487263276469"><ele>19.0</ele><time>2026-03-30T06:19:47.999Z</time></trkpt><trkpt lat="-32.20558866715866" lon="115.78500627451896"><ele>19.0</ele><time>2026-03-30T06:19:48.999Z</time></trkpt><trkpt lat="-32.20556598508449" lon="115.78514485243988"><ele>19.0</ele><time>2026-03-30T06:19:49.999Z</time></trkpt><trkpt lat="-32.20551876665554" lon="115.78530067827411"><ele>19.0</ele><time>2026-03-30T06:19:50.999Z</time></trkpt><trkpt lat="-32.205447637078706" lon="115.78546350698336"><ele>16.666666666666664</ele><time>2026-03-30T06:19:51.999Z</time></trkpt><trkpt lat="-32.20536225531321" lon="115.7856063520282"><ele>14.333333333333332</ele><time>2026-03-30T06:19:52.999Z</time></trkpt><trkpt lat="-32.205251882040066" lon="115.78574203695723"><ele>12.0</ele><time>2026-03-30T06:19:53.999Z</time></trkpt><trkpt lat="-32.205118157556385" lon="115.78586798487605"><ele>12.0</ele><time>2026-03-30T06:19:54.999Z</time></trkpt><trkpt lat="-32.20496289063518" lon="115.78597554752845"><ele>12.0</ele><time>2026-03-30T06:19:55.999Z</time></trkpt><trkpt lat="-32.20477921690121" lon="115.786049987339"><ele>12.0</ele><time>2026-03-30T06:19:56.999Z</time></trkpt><trkpt lat="-32.20459853515922" lon="115.7861605828626"><ele>12.0</ele><time>2026-03-30T06:19:57.999Z</time></trkpt><trkpt lat="-32.204395597711056" lon="115.78626373823555"><ele>12.0</ele><time>2026-03-30T06:19:58.999Z</time></trkpt><trkpt lat="-32.20418962969506" lon="115.7863704478274"><ele>12.0</ele><time>2026-03-30T06:19:59.999Z</time></trkpt><trkpt lat="-32.20397967816342" lon="115.78648389834402"><ele>11.0</ele><time>2026-03-30T06:20:00.999Z</time></trkpt><trkpt lat="-32.203763675744575" lon="115.78660214889517"><ele>10.0</ele><time>2026-03-30T06:20:01.999Z</time></trkpt><trkpt lat="-32.20353895023613" lon="115.78672326740363"><ele>7.5</ele><time>2026-03-30T06:20:02.999Z</time></trkpt><trkpt lat="-32.20331258194487" lon="115.78684460222033"><ele>5.0</ele><time>2026-03-30T06:20:03.999Z</time></trkpt><trkpt lat="-32.20310201525272" lon="115.78695738786244"><ele>5.0</ele><time>2026-03-30T06:20:04.999Z</time></trkpt><trkpt lat="-32.20289197468724" lon="115.78706717702396"><ele>5.0</ele><time>2026-03-30T06:20:05.999Z</time></trkpt><trkpt lat="-32.20268190325471" lon="115.78718067251897"><ele>5.0</ele><time>2026-03-30T06:20:06.999Z</time></trkpt><trkpt lat="-32.2024728850846" lon="115.78729534316867"><ele>5.0</ele><time>2026-03-30T06:20:07.999Z</time></trkpt><trkpt lat="-32.20226366829097" lon="115.78740771426442"><ele>8.0</ele><time>2026-03-30T06:20:08.999Z</time></trkpt><trkpt lat="-32.20205581334717" lon="115.78751900066335"><ele>11.0</ele><time>2026-03-30T06:20:09.999Z</time></trkpt><trkpt lat="-32.20184980839576" lon="115.78762894814435"><ele>10.5</ele><time>2026-03-30T06:20:10.999Z</time></trkpt><trkpt lat="-32.20164336898196" lon="115.78774004193886"><ele>10.0</ele><time>2026-03-30T06:20:11.999Z</time></trkpt><trkpt lat="-32.20143731164153" lon="115.78785054682119"><ele>10.0</ele><time>2026-03-30T06:20:12.999Z</time></trkpt><trkpt lat="-32.201232020356024" lon="115.7879608937268"><ele>10.0</ele><time>2026-03-30T06:20:13.999Z</time></trkpt><trkpt lat="-32.20102625483773" lon="115.7880705689124"><ele>10.0</ele><time>2026-03-30T06:20:14.999Z</time></trkpt><trkpt lat="-32.200825293170396" lon="115.7881796058187"><ele>10.0</ele><time>2026-03-30T06:20:15.999Z</time></trkpt><trkpt lat="-32.20062149260917" lon="115.7882927840687"><ele>10.0</ele><time>2026-03-30T06:20:16.999Z</time></trkpt><trkpt lat="-32.20041795885752" lon="115.78840685020178"><ele>12.5</ele><time>2026-03-30T06:20:17.999Z</time></trkpt><trkpt lat="-32.20021142424072" lon="115.78852150183593"><ele>15.0</ele><time>2026-03-30T06:20:18.999Z</time></trkpt><trkpt lat="-32.200003562032634" lon="115.78863183939146"><ele>16.0</ele><time>2026-03-30T06:20:19.999Z</time></trkpt><trkpt lat="-32.19979199460942" lon="115.78875120248446"><ele>17.0</ele><time>2026-03-30T06:20:20.999Z</time></trkpt><trkpt lat="-32.19957724612368" lon="115.78886774708499"><ele>17.0</ele><time>2026-03-30T06:20:21.999Z</time></trkpt><trkpt lat="-32.19936394112188" lon="115.78897643562543"><ele>17.0</ele><time>2026-03-30T06:20:23Z</time></trkpt><trkpt lat="-32.19914872069591" lon="115.7890882732412"><ele>12.0</ele><time>2026-03-30T06:20:24Z</time></trkpt><trkpt lat="-32.198929460416146" lon="115.78920407114651"><ele>7.0</ele><time>2026-03-30T06:20:25Z</time></trkpt><trkpt lat="-32.19871332106855" lon="115.78932023664915"><ele>9.5</ele><time>2026-03-30T06:20:26Z</time></trkpt><trkpt lat="-32.19849160906369" lon="115.78943850960617"><ele>12.0</ele><time>2026-03-30T06:20:27Z</time></trkpt><trkpt lat="-32.19827175461915" lon="115.78955836524689"><ele>14.5</ele><time>2026-03-30T06:20:28Z</time></trkpt><trkpt lat="-32.19805157268897" lon="115.78967838813372"><ele>17.0</ele><time>2026-03-30T06:20:29Z</time></trkpt><trkpt lat="-32.197825223111245" lon="115.78980386433452"><ele>17.0</ele><time>2026-03-30T06:20:30Z</time></trkpt><trkpt lat="-32.1976051474579" lon="115.78992444932203"><ele>17.0</ele><time>2026-03-30T06:20:31Z</time></trkpt><trkpt lat="-32.19738962039579" lon="115.7900458814145"><ele>16.0</ele><time>2026-03-30T06:20:32Z</time></trkpt><trkpt lat="-32.19716889453051" lon="115.79016711838854"><ele>15.0</ele><time>2026-03-30T06:20:33Z</time></trkpt><trkpt lat="-32.19694640634084" lon="115.79028545284397"><ele>15.0</ele><time>2026-03-30T06:20:34Z</time></trkpt><trkpt lat="-32.19672586724529" lon="115.79040233931786"><ele>15.0</ele><time>2026-03-30T06:20:35Z</time></trkpt><trkpt lat="-32.196506313587285" lon="115.79051728348345"><ele>16.0</ele><time>2026-03-30T06:20:36Z</time></trkpt><trkpt lat="-32.19629289253117" lon="115.79063186726913"><ele>17.0</ele><time>2026-03-30T06:20:37Z</time></trkpt><trkpt lat="-32.19608549080464" lon="115.79074433026281"><ele>17.0</ele><time>2026-03-30T06:20:38Z</time></trkpt><trkpt lat="-32.195878183143016" lon="115.79085897707436"><ele>17.0</ele><time>2026-03-30T06:20:39Z</time></trkpt><trkpt lat="-32.1956676611187" lon="115.79097356938875"><ele>15.5</ele><time>2026-03-30T06:20:40Z</time></trkpt><trkpt lat="-32.195456709641846" lon="115.79108447744193"><ele>14.0</ele><time>2026-03-30T06:20:41Z</time></trkpt><trkpt lat="-32.19524131593155" lon="115.79119296215566"><ele>14.0</ele><time>2026-03-30T06:20:42Z</time></trkpt><trkpt lat="-32.1950246570293" lon="115.7913017760099"><ele>14.0</ele><time>2026-03-30T06:20:43Z</time></trkpt><trkpt lat="-32.19481902803543" lon="115.79140798377975"><ele>14.666666666666668</ele><time>2026-03-30T06:20:44.001Z</time></trkpt><trkpt lat="-32.194622823969056" lon="115.79151030300464"><ele>15.333333333333332</ele><time>2026-03-30T06:20:45.001Z</time></trkpt><trkpt lat="-32.194452181519786" lon="115.79160194352029"><ele>16.0</ele><time>2026-03-30T06:20:46.001Z</time></trkpt><trkpt lat="-32.19431826482182" lon="115.79167192505918"><ele>16.0</ele><time>2026-03-30T06:20:47.001Z</time></trkpt><trkpt lat="-32.194212783521245" lon="115.79172723411061"><ele>16.0</ele><time>2026-03-30T06:20:48.001Z</time></trkpt><trkpt lat="-32.194134405532964" lon="115.79176641069178"><ele>16.0</ele><time>2026-03-30T06:20:49.001Z</time></trkpt><trkpt lat="-32.194042993062446" lon="115.79181556704616"><ele>16.0</ele><time>2026-03-30T06:20:51.001Z</time></trkpt><trkpt lat="-32.19393696410563" lon="115.79176651439063"><ele>16.0</ele><time>2026-03-30T06:20:53.001Z</time></trkpt><trkpt lat="-32.19386002838113" lon="115.79169473016628"><ele>17.0</ele><time>2026-03-30T06:20:54.001Z</time></trkpt><trkpt lat="-32.19378194692496" lon="115.79159615462221"><ele>18.0</ele><time>2026-03-30T06:20:55.001Z</time></trkpt><trkpt lat="-32.19369894673568" lon="115.79147440718674"><ele>19.0</ele><time>2026-03-30T06:20:56.001Z</time></trkpt><trkpt lat="-32.1935985998899" lon="115.79133687034764"><ele>20.0</ele><time>2026-03-30T06:20:57.001Z</time></trkpt><trkpt lat="-32.19349269649651" lon="115.79119179683222"><ele>20.0</ele><time>2026-03-30T06:20:58.001Z</time></trkpt><trkpt lat="-32.193371579662646" lon="115.79102659343852"><ele>20.0</ele><time>2026-03-30T06:20:59.001Z</time></trkpt><trkpt lat="-32.193238117954984" lon="115.79084458740408"><ele>20.0</ele><time>2026-03-30T06:21:00.001Z</time></trkpt><trkpt lat="-32.19309728389009" lon="115.79064507384338"><ele>19.0</ele><time>2026-03-30T06:21:01.001Z</time></trkpt><trkpt lat="-32.192967389062694" lon="115.79045996381886"><ele>18.0</ele><time>2026-03-30T06:21:02Z</time></trkpt><trkpt lat="-32.19284693727909" lon="115.7902923125849"><ele>17.0</ele><time>2026-03-30T06:21:03Z</time></trkpt><trkpt lat="-32.192729123936154" lon="115.79013140027503"><ele>16.0</ele><time>2026-03-30T06:21:04Z</time></trkpt><trkpt lat="-32.19261890022938" lon="115.78998393656944"><ele>15.0</ele><time>2026-03-30T06:21:05Z</time></trkpt><trkpt lat="-32.192511573029556" lon="115.7898435204674"><ele>14.0</ele><time>2026-03-30T06:21:06Z</time></trkpt><trkpt lat="-32.192411077968636" lon="115.7897028510551"><ele>14.333333333333334</ele><time>2026-03-30T06:21:07Z</time></trkpt><trkpt lat="-32.19230723595212" lon="115.78956311656194"><ele>14.666666666666668</ele><time>2026-03-30T06:21:08Z</time></trkpt><trkpt lat="-32.19220051588328" lon="115.78942219857508"><ele>15.0</ele><time>2026-03-30T06:21:09Z</time></trkpt><trkpt lat="-32.19209019397789" lon="115.78927527202764"><ele>15.0</ele><time>2026-03-30T06:21:10Z</time></trkpt><trkpt lat="-32.19198263857364" lon="115.78912690916212"><ele>15.0</ele><time>2026-03-30T06:21:11Z</time></trkpt><trkpt lat="-32.19187810042971" lon="115.78898277429232"><ele>15.0</ele><time>2026-03-30T06:21:12Z</time></trkpt><trkpt lat="-32.19177541002135" lon="115.78884090422552"><ele>15.0</ele><time>2026-03-30T06:21:13Z</time></trkpt><trkpt lat="-32.19167476820395" lon="115.78870469064108"><ele>15.0</ele><time>2026-03-30T06:21:14Z</time></trkpt><trkpt lat="-32.19157836793344" lon="115.78857417420357"><ele>15.0</ele><time>2026-03-30T06:21:15Z</time></trkpt><trkpt lat="-32.191488982080486" lon="115.78845018977547"><ele>15.0</ele><time>2026-03-30T06:21:16Z</time></trkpt><trkpt lat="-32.19140229876444" lon="115.7883332047545"><ele>15.25</ele><time>2026-03-30T06:21:17Z</time></trkpt><trkpt lat="-32.19131660829147" lon="115.78822002369222"><ele>15.5</ele><time>2026-03-30T06:21:18Z</time></trkpt><trkpt lat="-32.1912360596915" lon="115.78811180326143"><ele>15.75</ele><time>2026-03-30T06:21:19Z</time></trkpt><trkpt lat="-32.19115387342929" lon="115.78799646155315"><ele>16.0</ele><time>2026-03-30T06:21:20Z</time></trkpt><trkpt lat="-32.19106875015825" lon="115.78787963194101"><ele>16.0</ele><time>2026-03-30T06:21:21Z</time></trkpt><trkpt lat="-32.19098233016302" lon="115.78776741810368"><ele>16.0</ele><time>2026-03-30T06:21:22Z</time></trkpt><trkpt lat="-32.19089452800417" lon="115.78764558566836"><ele>16.0</ele><time>2026-03-30T06:21:23Z</time></trkpt><trkpt lat="-32.1908112772724" lon="115.78751711271471"><ele>16.0</ele><time>2026-03-30T06:21:24Z</time></trkpt><trkpt lat="-32.19072717747679" lon="115.78739984378187"><ele>15.25</ele><time>2026-03-30T06:21:25Z</time></trkpt><trkpt lat="-32.19064361382939" lon="115.78728528815591"><ele>14.5</ele><time>2026-03-30T06:21:26Z</time></trkpt><trkpt lat="-32.190554113736965" lon="115.787164575439"><ele>13.75</ele><time>2026-03-30T06:21:27Z</time></trkpt><trkpt lat="-32.19047035410909" lon="115.78704367472504"><ele>13.0</ele><time>2026-03-30T06:21:28Z</time></trkpt><trkpt lat="-32.190385775582236" lon="115.78693575728556"><ele>12.75</ele><time>2026-03-30T06:21:29Z</time></trkpt><trkpt lat="-32.19030500134199" lon="115.78682215906402"><ele>12.5</ele><time>2026-03-30T06:21:30Z</time></trkpt><trkpt lat="-32.19022183576819" lon="115.78670223549709"><ele>12.25</ele><time>2026-03-30T06:21:31Z</time></trkpt><trkpt lat="-32.19013510541708" lon="115.78658666038395"><ele>12.0</ele><time>2026-03-30T06:21:32Z</time></trkpt><trkpt lat="-32.19005315280005" lon="115.78647859545529"><ele>12.0</ele><time>2026-03-30T06:21:33Z</time></trkpt><trkpt lat="-32.189985037398195" lon="115.78638943109755"><ele>12.0</ele><time>2026-03-30T06:21:34Z</time></trkpt><trkpt lat="-32.189934202225" lon="115.7863199714817"><ele>12.0</ele><time>2026-03-30T06:21:35Z</time></trkpt><trkpt lat="-32.189870541696386" lon="115.78623007415746"><ele>12.0</ele><time>2026-03-30T06:21:37Z</time></trkpt><trkpt lat="-32.189820823712964" lon="115.78616924311908"><ele>12.0</ele><time>2026-03-30T06:21:51Z</time></trkpt><trkpt lat="-32.189785603822564" lon="115.7861034424875"><ele>12.0</ele><time>2026-03-30T06:21:55Z</time></trkpt><trkpt lat="-32.1897619654416" lon="115.78599428691943"><ele>10.75</ele><time>2026-03-30T06:22:00Z</time></trkpt><trkpt lat="-32.18968027706859" lon="115.78586370894999"><ele>9.5</ele><time>2026-03-30T06:22:02Z</time></trkpt><trkpt lat="-32.18962147673722" lon="115.78582246827752"><ele>8.25</ele><time>2026-03-30T06:22:03Z</time></trkpt><trkpt lat="-32.18954469372424" lon="115.78579935994188"><ele>7.0</ele><time>2026-03-30T06:22:04Z</time></trkpt><trkpt lat="-32.18936753733327" lon="115.78584467994482"><ele>7.0</ele><time>2026-03-30T06:22:06Z</time></trkpt><trkpt lat="-32.18926298851481" lon="115.7859172610621"><ele>7.0</ele><time>2026-03-30T06:22:07Z</time></trkpt><trkpt lat="-32.18916746928473" lon="115.7860232462221"><ele>7.0</ele><time>2026-03-30T06:22:08Z</time></trkpt><trkpt lat="-32.189055889501795" lon="115.78615606153876"><ele>7.0</ele><time>2026-03-30T06:22:09Z</time></trkpt><trkpt lat="-32.18891960359814" lon="115.78630036875448"><ele>9.333333333333334</ele><time>2026-03-30T06:22:10Z</time></trkpt><trkpt lat="-32.1887663356934" lon="115.78644370850678"><ele>11.666666666666668</ele><time>2026-03-30T06:22:11Z</time></trkpt><trkpt lat="-32.18859316081603" lon="115.78660363554144"><ele>14.0</ele><time>2026-03-30T06:22:12Z</time></trkpt><trkpt lat="-32.18841927324755" lon="115.78676917134806"><ele>14.5</ele><time>2026-03-30T06:22:13Z</time></trkpt><trkpt lat="-32.18823826766348" lon="115.78695212099981"><ele>15.0</ele><time>2026-03-30T06:22:14Z</time></trkpt><trkpt lat="-32.188056985388286" lon="115.78714876581057"><ele>15.0</ele><time>2026-03-30T06:22:15Z</time></trkpt><trkpt lat="-32.187890734553434" lon="115.78735605484877"><ele>15.0</ele><time>2026-03-30T06:22:16Z</time></trkpt><trkpt lat="-32.187730214045374" lon="115.7875809288654"><ele>15.333333333333332</ele><time>2026-03-30T06:22:17Z</time></trkpt><trkpt lat="-32.18759411242803" lon="115.78780194818584"><ele>15.666666666666666</ele><time>2026-03-30T06:22:18Z</time></trkpt><trkpt lat="-32.18747929472972" lon="115.78801590758678"><ele>16.0</ele><time>2026-03-30T06:22:19Z</time></trkpt><trkpt lat="-32.18738032150595" lon="115.78822503285402"><ele>15.666666666666666</ele><time>2026-03-30T06:22:20Z</time></trkpt><trkpt lat="-32.18728711309496" lon="115.78843106233775"><ele>15.333333333333332</ele><time>2026-03-30T06:22:21Z</time></trkpt><trkpt lat="-32.18720082942206" lon="115.78863113981467"><ele>15.0</ele><time>2026-03-30T06:22:22Z</time></trkpt><trkpt lat="-32.1871187522644" lon="115.78883118609"><ele>14.666666666666668</ele><time>2026-03-30T06:22:23Z</time></trkpt><trkpt lat="-32.18703769222713" lon="115.789033133919"><ele>14.333333333333334</ele><time>2026-03-30T06:22:24Z</time></trkpt><trkpt lat="-32.18695653045804" lon="115.78924822415769"><ele>14.0</ele><time>2026-03-30T06:22:25Z</time></trkpt><trkpt lat="-32.18687415707895" lon="115.78946176934465"><ele>12.333333333333334</ele><time>2026-03-30T06:22:26Z</time></trkpt><trkpt lat="-32.18678844448275" lon="115.78966762498796"><ele>10.666666666666668</ele><time>2026-03-30T06:22:27Z</time></trkpt><trkpt lat="-32.18669567732508" lon="115.78987390712253"><ele>9.0</ele><time>2026-03-30T06:22:28Z</time></trkpt><trkpt lat="-32.186596800731124" lon="115.79007534233149"><ele>9.333333333333334</ele><time>2026-03-30T06:22:29Z</time></trkpt><trkpt lat="-32.186493130539944" lon="115.79026630364555"><ele>9.666666666666668</ele><time>2026-03-30T06:22:30Z</time></trkpt><trkpt lat="-32.1863814140479" lon="115.79045434444666"><ele>10.0</ele><time>2026-03-30T06:22:31Z</time></trkpt><trkpt lat="-32.18626293545303" lon="115.79063540496439"><ele>10.0</ele><time>2026-03-30T06:22:32Z</time></trkpt><trkpt lat="-32.1861388804638" lon="115.79081164530007"><ele>10.0</ele><time>2026-03-30T06:22:33Z</time></trkpt><trkpt lat="-32.18600370332098" lon="115.79098467031693"><ele>10.0</ele><time>2026-03-30T06:22:34Z</time></trkpt><trkpt lat="-32.18586455918987" lon="115.79115293315594"><ele>8.666666666666668</ele><time>2026-03-30T06:22:35Z</time></trkpt><trkpt lat="-32.18571966022933" lon="115.7913088505415"><ele>7.333333333333334</ele><time>2026-03-30T06:22:36Z</time></trkpt><trkpt lat="-32.18557395495647" lon="115.79145553488411"><ele>6.0</ele><time>2026-03-30T06:22:37Z</time></trkpt><trkpt lat="-32.185422827003" lon="115.79160388558591"><ele>6.0</ele><time>2026-03-30T06:22:38Z</time></trkpt><trkpt lat="-32.18527572881118" lon="115.79173477863793"><ele>6.0</ele><time>2026-03-30T06:22:39Z</time></trkpt><trkpt lat="-32.185122005833605" lon="115.79186043795688"><ele>6.0</ele><time>2026-03-30T06:22:40Z</time></trkpt><trkpt lat="-32.18496911158372" lon="115.7919753629249"><ele>8.0</ele><time>2026-03-30T06:22:41Z</time></trkpt><trkpt lat="-32.18481665108532" lon="115.79208059434181"><ele>10.0</ele><time>2026-03-30T06:22:42Z</time></trkpt><trkpt lat="-32.18467605177205" lon="115.792169513118"><ele>12.0</ele><time>2026-03-30T06:22:43Z</time></trkpt><trkpt lat="-32.18455654842005" lon="115.79223119388739"><ele>12.0</ele><time>2026-03-30T06:22:44Z</time></trkpt><trkpt lat="-32.184453278837516" lon="115.79226667463769"><ele>12.0</ele><time>2026-03-30T06:22:45Z</time></trkpt><trkpt lat="-32.18436811893928" lon="115.79229025524893"><ele>12.0</ele><time>2026-03-30T06:22:46Z</time></trkpt><trkpt lat="-32.184300644898634" lon="115.79231681448886"><ele>12.0</ele><time>2026-03-30T06:22:47Z</time></trkpt><trkpt lat="-32.18420525856579" lon="115.79236573612441"><ele>12.0</ele><time>2026-03-30T06:22:49Z</time></trkpt><trkpt lat="-32.1841194600297" lon="115.79240188730371"><ele>12.0</ele><time>2026-03-30T06:22:52Z</time></trkpt><trkpt lat="-32.1840455762091" lon="115.79245296195882"><ele>12.0</ele><time>2026-03-30T06:22:55Z</time></trkpt><trkpt lat="-32.18395842357635" lon="115.79252654668973"><ele>12.0</ele><time>2026-03-30T06:22:57Z</time></trkpt><trkpt lat="-32.174640649939185" lon="115.79337462660693"><ele>9.666666666666666</ele><time>2026-03-30T06:23:55Z</time></trkpt><trkpt lat="-32.17446439618194" lon="115.79335526672116"><ele>7.333333333333334</ele><time>2026-03-30T06:23:56Z</time></trkpt><trkpt lat="-32.174279332884" lon="115.79333350045475"><ele>5.0</ele><time>2026-03-30T06:23:57Z</time></trkpt><trkpt lat="-32.17409267160601" lon="115.79331039809529"><ele>5.0</ele><time>2026-03-30T06:23:58Z</time></trkpt><trkpt lat="-32.173711780182956" lon="115.79325320121633"><ele>5.0</ele><time>2026-03-30T06:24:00Z</time></trkpt><trkpt lat="-32.173518602030306" lon="115.79322182790226"><ele>5.0</ele><time>2026-03-30T06:24:01Z</time></trkpt><trkpt lat="-32.17332574466235" lon="115.79319105147214"><ele>5.0</ele><time>2026-03-30T06:24:02Z</time></trkpt><trkpt lat="-32.173128795056115" lon="115.79315860888106"><ele>5.0</ele><time>2026-03-30T06:24:03Z</time></trkpt><trkpt lat="-32.1729304922148" lon="115.79312462805109"><ele>5.0</ele><time>2026-03-30T06:24:04Z</time></trkpt><trkpt lat="-32.17273188990242" lon="115.79308565297524"><ele>5.0</ele><time>2026-03-30T06:24:05Z</time></trkpt><trkpt lat="-32.17252890832348" lon="115.79304265713867"><ele>5.0</ele><time>2026-03-30T06:24:06Z</time></trkpt><trkpt lat="-32.172323862574686" lon="115.79299735247267"><ele>3.666666666666667</ele><time>2026-03-30T06:24:07Z</time></trkpt><trkpt lat="-32.17211679576861" lon="115.79295102092168"><ele>2.3333333333333335</ele><time>2026-03-30T06:24:08Z</time></trkpt><trkpt lat="-32.171909673239796" lon="115.79290377086768"><ele>1.0</ele><time>2026-03-30T06:24:09Z</time></trkpt><trkpt lat="-32.17170349358303" lon="115.7928559293873"><ele>2.6666666666666665</ele><time>2026-03-30T06:24:10Z</time></trkpt><trkpt lat="-32.17150579078887" lon="115.79280454554392"><ele>4.333333333333333</ele><time>2026-03-30T06:24:11Z</time></trkpt><trkpt lat="-32.171316725027566" lon="115.79275269275642"><ele>6.0</ele><time>2026-03-30T06:24:12Z</time></trkpt><trkpt lat="-32.171131510709216" lon="115.79270357248129"><ele>6.666666666666666</ele><time>2026-03-30T06:24:13Z</time></trkpt><trkpt lat="-32.17095080031783" lon="115.79265693290095"><ele>7.333333333333333</ele><time>2026-03-30T06:24:14Z</time></trkpt><trkpt lat="-32.17077298824827" lon="115.79260976812986"><ele>8.0</ele><time>2026-03-30T06:24:15Z</time></trkpt><trkpt lat="-32.17059316675744" lon="115.79256045110908"><ele>4.666666666666666</ele><time>2026-03-30T06:24:16Z</time></trkpt><trkpt lat="-32.1704077937131" lon="115.79250824356788"><ele>1.3333333333333333</ele><time>2026-03-30T06:24:17Z</time></trkpt><trkpt lat="-32.17021914941244" lon="115.79245832869812"><ele>-2.0</ele><time>2026-03-30T06:24:18Z</time></trkpt><trkpt lat="-32.17002945977018" lon="115.79240958410767"><ele>-3.5</ele><time>2026-03-30T06:24:19Z</time></trkpt><trkpt lat="-32.169630687364055" lon="115.79230884686179"><ele>-5.0</ele><time>2026-03-30T06:24:21Z</time></trkpt><trkpt lat="-32.16942456149985" lon="115.79226273558002"><ele>-5.0</ele><time>2026-03-30T06:24:22Z</time></trkpt><trkpt lat="-32.16921411741373" lon="115.79221912660797"><ele>-5.0</ele><time>2026-03-30T06:24:23Z</time></trkpt><trkpt lat="-32.16900033708945" lon="115.79217646113845"><ele>-5.0</ele><time>2026-03-30T06:24:24Z</time></trkpt><trkpt lat="-32.168787914889414" lon="115.79213262817812"><ele>-0.666666666666667</ele><time>2026-03-30T06:24:25Z</time></trkpt><trkpt lat="-32.16857757530186" lon="115.79209095548286"><ele>3.666666666666666</ele><time>2026-03-30T06:24:26Z</time></trkpt><trkpt lat="-32.16836944728426" lon="115.79205707974334"><ele>8.0</ele><time>2026-03-30T06:24:27Z</time></trkpt><trkpt lat="-32.168160987456275" lon="115.7920296247218"><ele>11.0</ele><time>2026-03-30T06:24:28Z</time></trkpt><trkpt lat="-32.16794637663452" lon="115.79199810540372"><ele>14.0</ele><time>2026-03-30T06:24:29Z</time></trkpt><trkpt lat="-32.167725341504536" lon="115.7919678510367"><ele>17.0</ele><time>2026-03-30T06:24:30Z</time></trkpt><trkpt lat="-32.16750301705916" lon="115.79194391159913"><ele>16.5</ele><time>2026-03-30T06:24:31Z</time></trkpt><trkpt lat="-32.16727476949452" lon="115.79192093153586"><ele>16.0</ele><time>2026-03-30T06:24:32Z</time></trkpt><trkpt lat="-32.16703518346576" lon="115.79189445762812"><ele>16.0</ele><time>2026-03-30T06:24:33Z</time></trkpt><trkpt lat="-32.166790752495366" lon="115.79186691501263"><ele>16.0</ele><time>2026-03-30T06:24:34Z</time></trkpt><trkpt lat="-32.16655252409434" lon="115.79184077636988"><ele>13.5</ele><time>2026-03-30T06:24:35Z</time></trkpt><trkpt lat="-32.16632275134703" lon="115.79181948884239"><ele>11.0</ele><time>2026-03-30T06:24:36Z</time></trkpt><trkpt lat="-32.166097662197544" lon="115.7918003003306"><ele>11.0</ele><time>2026-03-30T06:24:37Z</time></trkpt><trkpt lat="-32.16587338116147" lon="115.79177885641049"><ele>11.0</ele><time>2026-03-30T06:24:38Z</time></trkpt><trkpt lat="-32.16565512760121" lon="115.79175720482439"><ele>11.0</ele><time>2026-03-30T06:24:39Z</time></trkpt><trkpt lat="-32.16544707012797" lon="115.79173602531787"><ele>12.0</ele><time>2026-03-30T06:24:40Z</time></trkpt></trkseg><trkseg><trkpt lat="-31.916703321706297" lon="115.93395888757868"><ele>21.0</ele><time>2026-04-05T01:50:12Z</time></trkpt><trkpt lat="-31.916661876692686" lon="115.93388552944143"><ele>21.0</ele><time>2026-04-05T01:50:21Z</time></trkpt><trkpt lat="-31.91660418959925" lon="115.93384955883539"><ele>21.0</ele><time>2026-04-05T01:50:33Z</time></trkpt><trkpt lat="-31.91653795923648" lon="115.933895892147"><ele>21.0</ele><time>2026-04-05T01:50:34Z</time></trkpt><trkpt lat="-31.916441784396408" lon="115.9339965714788"><ele>21.0</ele><time>2026-04-05T01:50:35Z</time></trkpt><trkpt lat="-31.916357426935953" lon="115.93411147532773"><ele>21.25</ele><time>2026-04-05T01:50:36Z</time></trkpt><trkpt lat="-31.916256278205633" lon="115.9342443720467"><ele>21.5</ele><time>2026-04-05T01:50:37Z</time></trkpt><trkpt lat="-31.916173037233165" lon="115.93434507836001"><ele>21.75</ele><time>2026-04-05T01:50:38Z</time></trkpt><trkpt lat="-31.91609930092699" lon="115.93443398502471"><ele>22.0</ele><time>2026-04-05T01:50:39Z</time></trkpt><trkpt lat="-31.916035142221112" lon="115.93450790773056"><ele>22.0</ele><time>2026-04-05T01:50:40Z</time></trkpt><trkpt lat="-31.915976685219768" lon="115.93457787828501"><ele>22.0</ele><time>2026-04-05T01:50:41Z</time></trkpt><trkpt lat="-31.91591168237233" lon="115.93465467077294"><ele>22.0</ele><time>2026-04-05T01:50:42Z</time></trkpt><trkpt lat="-31.91584297373555" lon="115.93473846298072"><ele>22.0</ele><time>2026-04-05T01:50:43Z</time></trkpt><trkpt lat="-31.91577621174425" lon="115.93481797651238"><ele>22.0</ele><time>2026-04-05T01:50:44Z</time></trkpt><trkpt lat="-31.91571156986408" lon="115.93489209688462"><ele>21.8</ele><time>2026-04-05T01:50:45Z</time></trkpt><trkpt lat="-31.915641115398618" lon="115.93497292487864"><ele>21.6</ele><time>2026-04-05T01:50:46Z</time></trkpt><trkpt lat="-31.915571160565072" lon="115.93505686623377"><ele>21.400000000000002</ele><time>2026-04-05T01:50:47Z</time></trkpt><trkpt lat="-31.915505232338298" lon="115.93513934309348"><ele>21.200000000000003</ele><time>2026-04-05T01:50:48Z</time></trkpt><trkpt lat="-31.91543399885522" lon="115.93522148583656"><ele>21.0</ele><time>2026-04-05T01:50:49Z</time></trkpt><trkpt lat="-31.915362865843704" lon="115.93530243879135"><ele>21.6</ele><time>2026-04-05T01:50:50Z</time></trkpt><trkpt lat="-31.91529329978586" lon="115.93539094180126"><ele>22.200000000000003</ele><time>2026-04-05T01:50:51Z</time></trkpt><trkpt lat="-31.91521802716559" lon="115.93547739393003"><ele>22.799999999999997</ele><time>2026-04-05T01:50:52Z</time></trkpt><trkpt lat="-31.91514097444606" lon="115.9355637678125"><ele>23.4</ele><time>2026-04-05T01:50:53Z</time></trkpt><trkpt lat="-31.9150707917355" lon="115.93565404620715"><ele>24.0</ele><time>2026-04-05T01:50:54Z</time></trkpt><trkpt lat="-31.9149967291599" lon="115.9357448211465"><ele>22.599999999999998</ele><time>2026-04-05T01:50:55Z</time></trkpt><trkpt lat="-31.914917738821227" lon="115.93583459080915"><ele>21.2</ele><time>2026-04-05T01:50:56Z</time></trkpt><trkpt lat="-31.914843810719688" lon="115.93592245190814"><ele>19.799999999999997</ele><time>2026-04-05T01:50:57Z</time></trkpt><trkpt lat="-31.91477992757171" lon="115.9360029500915"><ele>18.4</ele><time>2026-04-05T01:50:58Z</time></trkpt><trkpt lat="-31.914717018603056" lon="115.936074966875"><ele>17.0</ele><time>2026-04-05T01:50:59Z</time></trkpt><trkpt lat="-31.914660988941097" lon="115.93613992247728"><ele>16.666666666666668</ele><time>2026-04-05T01:51:00Z</time></trkpt><trkpt lat="-31.91460589027265" lon="115.93620369074351"><ele>16.333333333333336</ele><time>2026-04-05T01:51:01Z</time></trkpt><trkpt lat="-31.914549658651296" lon="115.9362687424655"><ele>16.0</ele><time>2026-04-05T01:51:02Z</time></trkpt><trkpt lat="-31.914496094095227" lon="115.93633668735757"><ele>15.666666666666668</ele><time>2026-04-05T01:51:03Z</time></trkpt><trkpt lat="-31.914443757649" lon="115.93639689534785"><ele>15.333333333333334</ele><time>2026-04-05T01:51:04Z</time></trkpt><trkpt lat="-31.91439627888805" lon="115.93644895956281"><ele>15.0</ele><time>2026-04-05T01:51:05Z</time></trkpt><trkpt lat="-31.914332112528843" lon="115.93651608443159"><ele>15.0</ele><time>2026-04-05T01:51:07Z</time></trkpt><trkpt lat="-31.914298915738954" lon="115.93659952573452"><ele>15.0</ele><time>2026-04-05T01:51:09Z</time></trkpt><trkpt lat="-31.914389865317343" lon="115.93673562271056"><ele>15.0</ele><time>2026-04-05T01:51:11Z</time></trkpt><trkpt lat="-31.914466412494782" lon="115.9368196574698"><ele>15.0</ele><time>2026-04-05T01:51:12Z</time></trkpt><trkpt lat="-31.91454984955654" lon="115.93691188855745"><ele>15.0</ele><time>2026-04-05T01:51:13Z</time></trkpt><trkpt lat="-31.914635516552913" lon="115.93702105626436"><ele>16.2</ele><time>2026-04-05T01:51:14Z</time></trkpt><trkpt lat="-31.914717109958513" lon="115.93713310095765"><ele>17.4</ele><time>2026-04-05T01:51:15Z</time></trkpt><trkpt lat="-31.914807810220555" lon="115.93723062902036"><ele>18.6</ele><time>2026-04-05T01:51:16Z</time></trkpt><trkpt lat="-31.91487478024532" lon="115.9373087347524"><ele>19.8</ele><time>2026-04-05T01:51:17Z</time></trkpt><trkpt lat="-31.914937043357906" lon="115.93738329600497"><ele>21.0</ele><time>2026-04-05T01:51:18Z</time></trkpt><trkpt lat="-31.91499826961805" lon="115.93745645169814"><ele>21.0</ele><time>2026-04-05T01:51:19Z</time></trkpt><trkpt lat="-31.915053444758854" lon="115.93751863716645"><ele>21.0</ele><time>2026-04-05T01:51:20Z</time></trkpt><trkpt lat="-31.91512863997208" lon="115.93761498285187"><ele>21.0</ele><time>2026-04-05T01:51:22Z</time></trkpt><trkpt lat="-31.915174809360437" lon="115.93768429568898"><ele>21.0</ele><time>2026-04-05T01:51:24Z</time></trkpt><trkpt lat="-31.915095177573715" lon="115.93779770155557"><ele>21.0</ele><time>2026-04-05T01:51:25Z</time></trkpt><trkpt lat="-31.915014647280067" lon="115.93789114828515"><ele>20.333333333333332</ele><time>2026-04-05T01:51:26Z</time></trkpt><trkpt lat="-31.914914349041922" lon="115.93802533892321"><ele>19.666666666666664</ele><time>2026-04-05T01:51:27Z</time></trkpt><trkpt lat="-31.914801753797803" lon="115.93818521804707"><ele>19.0</ele><time>2026-04-05T01:51:28Z</time></trkpt><trkpt lat="-31.914683011781957" lon="115.93835139449489"><ele>19.666666666666664</ele><time>2026-04-05T01:51:29Z</time></trkpt><trkpt lat="-31.914574695717008" lon="115.93850078295698"><ele>20.333333333333332</ele><time>2026-04-05T01:51:30Z</time></trkpt><trkpt lat="-31.9144756887167" lon="115.93863865896317"><ele>21.0</ele><time>2026-04-05T01:51:31Z</time></trkpt><trkpt lat="-31.914383843752038" lon="115.93876969337776"><ele>21.0</ele><time>2026-04-05T01:51:32Z</time></trkpt><trkpt lat="-31.91429805976402" lon="115.93889270927711"><ele>21.0</ele><time>2026-04-05T01:51:33Z</time></trkpt><trkpt lat="-31.9142059600685" lon="115.93901509534824"><ele>21.0</ele><time>2026-04-05T01:51:34Z</time></trkpt><trkpt lat="-31.914114202620436" lon="115.93913609166154"><ele>21.0</ele><time>2026-04-05T01:51:35Z</time></trkpt><trkpt lat="-31.91402803095093" lon="115.93926235818947"><ele>20.5</ele><time>2026-04-05T01:51:36Z</time></trkpt><trkpt lat="-31.913938091884017" lon="115.93938570851554"><ele>20.0</ele><time>2026-04-05T01:51:37Z</time></trkpt><trkpt lat="-31.913841428771484" lon="115.93951414983535"><ele>19.5</ele><time>2026-04-05T01:51:38Z</time></trkpt><trkpt lat="-31.913751782621116" lon="115.93964180134675"><ele>19.0</ele><time>2026-04-05T01:51:39Z</time></trkpt><trkpt lat="-31.913669673038196" lon="115.93975831832579"><ele>19.0</ele><time>2026-04-05T01:51:40Z</time></trkpt><trkpt lat="-31.913596962018342" lon="115.93986233586845"><ele>19.0</ele><time>2026-04-05T01:51:41Z</time></trkpt><trkpt lat="-31.91352969565678" lon="115.93995184635791"><ele>19.0</ele><time>2026-04-05T01:51:42Z</time></trkpt><trkpt lat="-31.913464600556107" lon="115.94003391828615"><ele>19.0</ele><time>2026-04-05T01:51:43Z</time></trkpt><trkpt lat="-31.913410951353868" lon="115.94011231381869"><ele>19.0</ele><time>2026-04-05T01:51:44Z</time></trkpt><trkpt lat="-31.913366416314513" lon="115.94017873644981"><ele>19.75</ele><time>2026-04-05T01:51:45Z</time></trkpt><trkpt lat="-31.913370792032296" lon="115.94033898629385"><ele>20.5</ele><time>2026-04-05T01:51:47Z</time></trkpt><trkpt lat="-31.913448157923817" lon="115.94043682297222"><ele>21.25</ele><time>2026-04-05T01:51:48Z</time></trkpt><trkpt lat="-31.91354958614373" lon="115.94052989730304"><ele>22.0</ele><time>2026-04-05T01:51:49Z</time></trkpt><trkpt lat="-31.913639052336347" lon="115.9406222475493"><ele>22.0</ele><time>2026-04-05T01:51:50Z</time></trkpt><trkpt lat="-31.91373226995772" lon="115.94072105885812"><ele>22.0</ele><time>2026-04-05T01:51:51Z</time></trkpt><trkpt lat="-31.913813280354248" lon="115.94082404041242"><ele>22.0</ele><time>2026-04-05T01:51:52Z</time></trkpt><trkpt lat="-31.913869377999948" lon="115.94096438737262"><ele>22.0</ele><time>2026-04-05T01:51:53Z</time></trkpt><trkpt lat="-31.91389514600139" lon="115.94115557116451"><ele>22.333333333333332</ele><time>2026-04-05T01:51:54Z</time></trkpt><trkpt lat="-31.913897389620615" lon="115.9413863143454"><ele>22.666666666666668</ele><time>2026-04-05T01:51:55Z</time></trkpt><trkpt lat="-31.91388677423553" lon="115.94163019553632"><ele>23.0</ele><time>2026-04-05T01:51:56Z</time></trkpt><trkpt lat="-31.913889483243747" lon="115.94183775551583"><ele>23.666666666666668</ele><time>2026-04-05T01:51:57Z</time></trkpt><trkpt lat="-31.91389530749681" lon="115.94204960230392"><ele>24.333333333333336</ele><time>2026-04-05T01:51:58Z</time></trkpt><trkpt lat="-31.913900297043256" lon="115.94224744489489"><ele>25.0</ele><time>2026-04-05T01:51:59Z</time></trkpt><trkpt lat="-31.91389752438514" lon="115.9424256098606"><ele>25.5</ele><time>2026-04-05T01:52:00Z</time></trkpt><trkpt lat="-31.913899102620174" lon="115.94259593813902"><ele>26.0</ele><time>2026-04-05T01:52:01Z</time></trkpt><trkpt lat="-31.913904729658803" lon="115.94276605390749"><ele>26.5</ele><time>2026-04-05T01:52:02Z</time></trkpt><trkpt lat="-31.913906728557535" lon="115.94293657437397"><ele>27.0</ele><time>2026-04-05T01:52:03Z</time></trkpt><trkpt lat="-31.913895511671466" lon="115.9431175400933"><ele>27.0</ele><time>2026-04-05T01:52:04Z</time></trkpt><trkpt lat="-31.913874057351183" lon="115.94329114963939"><ele>27.0</ele><time>2026-04-05T01:52:05Z</time></trkpt><trkpt lat="-31.913842584422635" lon="115.94346216404081"><ele>27.0</ele><time>2026-04-05T01:52:06Z</time></trkpt><trkpt lat="-31.913806444152584" lon="115.94361600255944"><ele>27.0</ele><time>2026-04-05T01:52:07Z</time></trkpt><trkpt lat="-31.91378101201135" lon="115.94376203484126"><ele>26.0</ele><time>2026-04-05T01:52:08Z</time></trkpt><trkpt lat="-31.913756143941768" lon="115.94391206520922"><ele>25.0</ele><time>2026-04-05T01:52:09Z</time></trkpt><trkpt lat="-31.91373189692721" lon="115.94404957464971"><ele>24.0</ele><time>2026-04-05T01:52:10Z</time></trkpt><trkpt lat="-31.913700874287784" lon="115.94418447418322"><ele>23.0</ele><time>2026-04-05T01:52:11Z</time></trkpt><trkpt lat="-31.913674572143027" lon="115.944319793658"><ele>22.4</ele><time>2026-04-05T01:52:12Z</time></trkpt><trkpt lat="-31.913647313667607" lon="115.94445961622696"><ele>21.799999999999997</ele><time>2026-04-05T01:52:13Z</time></trkpt><trkpt lat="-31.913624127766454" lon="115.94459353201745"><ele>21.2</ele><time>2026-04-05T01:52:14Z</time></trkpt><trkpt lat="-31.913609224980615" lon="115.94471632053394"><ele>20.6</ele><time>2026-04-05T01:52:15Z</time></trkpt><trkpt lat="-31.91360952900768" lon="115.94484037724047"><ele>20.0</ele><time>2026-04-05T01:52:16Z</time></trkpt><trkpt lat="-31.913630176375282" lon="115.94496868679398"><ele>19.75</ele><time>2026-04-05T01:52:17Z</time></trkpt><trkpt lat="-31.91365967421154" lon="115.94510507180384"><ele>19.5</ele><time>2026-04-05T01:52:18Z</time></trkpt><trkpt lat="-31.91369000502587" lon="115.94524705329688"><ele>19.25</ele><time>2026-04-05T01:52:19Z</time></trkpt><trkpt lat="-31.91371626046762" lon="115.94539278482223"><ele>19.0</ele><time>2026-04-05T01:52:20Z</time></trkpt><trkpt lat="-31.913740967268552" lon="115.94553924888126"><ele>19.0</ele><time>2026-04-05T01:52:21Z</time></trkpt><trkpt lat="-31.91376432118265" lon="115.94568758082931"><ele>19.0</ele><time>2026-04-05T01:52:22Z</time></trkpt><trkpt lat="-31.913793252353113" lon="115.94582636626046"><ele>19.0</ele><time>2026-04-05T01:52:23Z</time></trkpt><trkpt lat="-31.913815599721328" lon="115.9459655312503"><ele>19.0</ele><time>2026-04-05T01:52:24Z</time></trkpt><trkpt lat="-31.913838701136438" lon="115.94610798586439"><ele>18.0</ele><time>2026-04-05T01:52:25Z</time></trkpt><trkpt lat="-31.913863105308746" lon="115.94626409787841"><ele>17.0</ele><time>2026-04-05T01:52:26Z</time></trkpt><trkpt lat="-31.91388999746362" lon="115.9464151335673"><ele>16.0</ele><time>2026-04-05T01:52:27Z</time></trkpt><trkpt lat="-31.91391702753555" lon="115.94656144880429"><ele>15.0</ele><time>2026-04-05T01:52:28Z</time></trkpt><trkpt lat="-31.913942583213796" lon="115.94670886681267"><ele>14.0</ele><time>2026-04-05T01:52:29Z</time></trkpt><trkpt lat="-31.913967182993176" lon="115.94685562632625"><ele>13.0</ele><time>2026-04-05T01:52:30Z</time></trkpt><trkpt lat="-31.91399098869625" lon="115.94700024685459"><ele>12.0</ele><time>2026-04-05T01:52:31Z</time></trkpt><trkpt lat="-31.91401388958957" lon="115.94714848426536"><ele>11.0</ele><time>2026-04-05T01:52:32Z</time></trkpt><trkpt lat="-31.91404471973187" lon="115.94728931779368"><ele>11.0</ele><time>2026-04-05T01:52:33Z</time></trkpt><trkpt lat="-31.914069582771834" lon="115.94742822125299"><ele>11.0</ele><time>2026-04-05T01:52:34Z</time></trkpt><trkpt lat="-31.91409552935187" lon="115.94756641637372"><ele>11.0</ele><time>2026-04-05T01:52:35Z</time></trkpt><trkpt lat="-31.914118137389426" lon="115.9477100397243"><ele>11.0</ele><time>2026-04-05T01:52:36Z</time></trkpt><trkpt lat="-31.914138185643502" lon="115.94786282578997"><ele>10.5</ele><time>2026-04-05T01:52:37Z</time></trkpt><trkpt lat="-31.914161479165404" lon="115.94801532884348"><ele>10.0</ele><time>2026-04-05T01:52:38Z</time></trkpt><trkpt lat="-31.91418589565654" lon="115.94816482989903"><ele>9.5</ele><time>2026-04-05T01:52:39Z</time></trkpt><trkpt lat="-31.914207968158752" lon="115.94830911406883"><ele>9.0</ele><time>2026-04-05T01:52:40Z</time></trkpt><trkpt lat="-31.914229615159407" lon="115.94844354790254"><ele>8.75</ele><time>2026-04-05T01:52:41Z</time></trkpt><trkpt lat="-31.914256334692954" lon="115.94858586601994"><ele>8.5</ele><time>2026-04-05T01:52:42Z</time></trkpt><trkpt lat="-31.914289317869233" lon="115.94873781866909"><ele>8.25</ele><time>2026-04-05T01:52:43Z</time></trkpt><trkpt lat="-31.914316870426884" lon="115.94890116475868"><ele>8.0</ele><time>2026-04-05T01:52:44Z</time></trkpt><trkpt lat="-31.914336896431585" lon="115.94906986398883"><ele>7.5</ele><time>2026-04-05T01:52:45Z</time></trkpt><trkpt lat="-31.914365840338462" lon="115.94923318118285"><ele>7.0</ele><time>2026-04-05T01:52:46Z</time></trkpt><trkpt lat="-31.91439364060572" lon="115.94939474282084"><ele>6.5</ele><time>2026-04-05T01:52:47Z</time></trkpt><trkpt lat="-31.914422989270236" lon="115.94956016737255"><ele>6.0</ele><time>2026-04-05T01:52:48Z</time></trkpt><trkpt lat="-31.91445213495656" lon="115.94972156145894"><ele>6.0</ele><time>2026-04-05T01:52:49Z</time></trkpt><trkpt lat="-31.914488309560287" lon="115.94987929099564"><ele>6.0</ele><time>2026-04-05T01:52:50Z</time></trkpt><trkpt lat="-31.914538568783765" lon="115.95003423203252"><ele>6.0</ele><time>2026-04-05T01:52:51Z</time></trkpt><trkpt lat="-31.91460146157849" lon="115.95018874618226"><ele>6.0</ele><time>2026-04-05T01:52:52Z</time></trkpt><trkpt lat="-31.91467130746991" lon="115.95033025219333"><ele>6.75</ele><time>2026-04-05T01:52:53Z</time></trkpt><trkpt lat="-31.91474692323408" lon="115.95046014018328"><ele>7.5</ele><time>2026-04-05T01:52:54Z</time></trkpt><trkpt lat="-31.914819105883026" lon="115.95059334285232"><ele>8.25</ele><time>2026-04-05T01:52:55Z</time></trkpt><trkpt lat="-31.914888099409144" lon="115.95072630742588"><ele>9.0</ele><time>2026-04-05T01:52:56Z</time></trkpt><trkpt lat="-31.914956226450585" lon="115.95085429922459"><ele>8.8</ele><time>2026-04-05T01:52:57Z</time></trkpt><trkpt lat="-31.91501797792382" lon="115.95096436249342"><ele>8.600000000000001</ele><time>2026-04-05T01:52:58Z</time></trkpt><trkpt lat="-31.915070813226304" lon="115.95105872081628"><ele>8.4</ele><time>2026-04-05T01:52:59Z</time></trkpt><trkpt lat="-31.91510777126703" lon="115.95112793263458"><ele>8.200000000000001</ele><time>2026-04-05T01:53:00Z</time></trkpt><trkpt lat="-31.91516310734361" lon="115.95123405451308"><ele>8.0</ele><time>2026-04-05T01:53:02Z</time></trkpt><trkpt lat="-31.915229110088358" lon="115.9513591468292"><ele>7.999999999999999</ele><time>2026-04-05T01:53:04Z</time></trkpt><trkpt lat="-31.91526513782877" lon="115.95143096844157"><ele>8.0</ele><time>2026-04-05T01:53:05Z</time></trkpt><trkpt lat="-31.915299358277448" lon="115.95149928889816"><ele>8.0</ele><time>2026-04-05T01:53:06Z</time></trkpt><trkpt lat="-31.91535408887315" lon="115.9516063138895"><ele>8.0</ele><time>2026-04-05T01:53:08Z</time></trkpt><trkpt lat="-31.915394950356237" lon="115.951694854012"><ele>7.999999999999999</ele><time>2026-04-05T01:53:10Z</time></trkpt><trkpt lat="-31.91545637824147" lon="115.951809797398"><ele>8.0</ele><time>2026-04-05T01:53:12Z</time></trkpt><trkpt lat="-31.915497394222196" lon="115.9518807430723"><ele>8.166666666666666</ele><time>2026-04-05T01:53:13Z</time></trkpt><trkpt lat="-31.91554275391767" lon="115.95195726923642"><ele>8.333333333333332</ele><time>2026-04-05T01:53:14Z</time></trkpt><trkpt lat="-31.915587629278278" lon="115.95204638307449"><ele>8.5</ele><time>2026-04-05T01:53:15Z</time></trkpt><trkpt lat="-31.91562928437716" lon="115.95213325096404"><ele>8.666666666666666</ele><time>2026-04-05T01:53:16Z</time></trkpt><trkpt lat="-31.915673308804514" lon="115.95221377552038"><ele>8.833333333333334</ele><time>2026-04-05T01:53:17Z</time></trkpt><trkpt lat="-31.915711837665878" lon="115.95228954935935"><ele>9.0</ele><time>2026-04-05T01:53:18Z</time></trkpt><trkpt lat="-31.915746562743195" lon="115.95235535140704"><ele>9.0</ele><time>2026-04-05T01:53:19Z</time></trkpt><trkpt lat="-31.915808237875588" lon="115.95247225543831"><ele>9.0</ele><time>2026-04-05T01:53:21Z</time></trkpt><trkpt lat="-31.91585519960536" lon="115.9525824169298"><ele>9.0</ele><time>2026-04-05T01:53:23Z</time></trkpt><trkpt lat="-31.915914210325788" lon="115.95268847660778"><ele>9.0</ele><time>2026-04-05T01:53:25Z</time></trkpt><trkpt lat="-31.915939396929893" lon="115.95281090574544"><ele>9.0</ele><time>2026-04-05T01:53:27Z</time></trkpt><trkpt lat="-31.91583831856839" lon="115.95288505982552"><ele>9.4</ele><time>2026-04-05T01:53:29Z</time></trkpt><trkpt lat="-31.915756806890386" lon="115.95289020766171"><ele>9.8</ele><time>2026-04-05T01:53:30Z</time></trkpt><trkpt lat="-31.91567720564698" lon="115.95290959692343"><ele>10.200000000000001</ele><time>2026-04-05T01:53:31Z</time></trkpt><trkpt lat="-31.91557734112117" lon="115.95293308337034"><ele>10.600000000000001</ele><time>2026-04-05T01:53:32Z</time></trkpt><trkpt lat="-31.915457233867947" lon="115.95296078486086"><ele>11.0</ele><time>2026-04-05T01:53:33Z</time></trkpt><trkpt lat="-31.915333226972855" lon="115.9529929063405"><ele>11.0</ele><time>2026-04-05T01:53:34Z</time></trkpt><trkpt lat="-31.915199744261237" lon="115.95302466068941"><ele>11.0</ele><time>2026-04-05T01:53:35Z</time></trkpt><trkpt lat="-31.915052693609788" lon="115.95305908964012"><ele>11.0</ele><time>2026-04-05T01:53:36Z</time></trkpt><trkpt lat="-31.91488836877068" lon="115.95309721130668"><ele>10.666666666666666</ele><time>2026-04-05T01:53:37Z</time></trkpt><trkpt lat="-31.914723489208097" lon="115.95313801951434"><ele>10.333333333333334</ele><time>2026-04-05T01:53:38Z</time></trkpt><trkpt lat="-31.91455988799656" lon="115.95317571466137"><ele>10.0</ele><time>2026-04-05T01:53:39Z</time></trkpt><trkpt lat="-31.914404267069692" lon="115.95321273050686"><ele>10.0</ele><time>2026-04-05T01:53:40Z</time></trkpt><trkpt lat="-31.914253166787745" lon="115.95324764922864"><ele>10.0</ele><time>2026-04-05T01:53:41Z</time></trkpt><trkpt lat="-31.914102295245343" lon="115.95328340107045"><ele>10.0</ele><time>2026-04-05T01:53:42Z</time></trkpt><trkpt lat="-31.913958950009523" lon="115.95331718894518"><ele>10.25</ele><time>2026-04-05T01:53:43Z</time></trkpt><trkpt lat="-31.913824685946697" lon="115.95335051859438"><ele>10.5</ele><time>2026-04-05T01:53:44Z</time></trkpt><trkpt lat="-31.91368820363952" lon="115.95338374248362"><ele>10.75</ele><time>2026-04-05T01:53:45Z</time></trkpt><trkpt lat="-31.913557466610424" lon="115.95341325582727"><ele>11.0</ele><time>2026-04-05T01:53:46Z</time></trkpt><trkpt lat="-31.91343633127957" lon="115.95343912303719"><ele>11.25</ele><time>2026-04-05T01:53:47Z</time></trkpt><trkpt lat="-31.91331583874815" lon="115.95346802351683"><ele>11.5</ele><time>2026-04-05T01:53:48Z</time></trkpt><trkpt lat="-31.91318424693152" lon="115.95349418891676"><ele>11.75</ele><time>2026-04-05T01:53:49Z</time></trkpt><trkpt lat="-31.913064561018743" lon="115.95352843844678"><ele>12.0</ele><time>2026-04-05T01:53:50Z</time></trkpt><trkpt lat="-31.91293789940078" lon="115.95355759145306"><ele>12.0</ele><time>2026-04-05T01:53:51Z</time></trkpt><trkpt lat="-31.91280457291853" lon="115.95358843006059"><ele>12.0</ele><time>2026-04-05T01:53:52Z</time></trkpt><trkpt lat="-31.912676977014193" lon="115.95361743628841"><ele>12.0</ele><time>2026-04-05T01:53:53Z</time></trkpt><trkpt lat="-31.912551512409678" lon="115.95364495049186"><ele>12.0</ele><time>2026-04-05T01:53:54Z</time></trkpt><trkpt lat="-31.91242764397939" lon="115.95367255214822"><ele>12.0</ele><time>2026-04-05T01:53:55Z</time></trkpt><trkpt lat="-31.912295739087956" lon="115.95370037799486"><ele>12.0</ele><time>2026-04-05T01:53:56Z</time></trkpt><trkpt lat="-31.912163623292884" lon="115.9537320620305"><ele>12.0</ele><time>2026-04-05T01:53:57Z</time></trkpt><trkpt lat="-31.91203023888508" lon="115.95376825533002"><ele>12.0</ele><time>2026-04-05T01:53:58Z</time></trkpt><trkpt lat="-31.91189808217363" lon="115.95380051084906"><ele>12.0</ele><time>2026-04-05T01:53:59Z</time></trkpt><trkpt lat="-31.911771974481866" lon="115.95382684394484"><ele>12.0</ele><time>2026-04-05T01:54:00Z</time></trkpt><trkpt lat="-31.911650349658785" lon="115.95385324126745"><ele>12.0</ele><time>2026-04-05T01:54:01Z</time></trkpt><trkpt lat="-31.911538118624538" lon="115.95387927764742"><ele>12.0</ele><time>2026-04-05T01:54:02Z</time></trkpt><trkpt lat="-31.91141796973237" lon="115.95390845832604"><ele>11.2</ele><time>2026-04-05T01:54:03Z</time></trkpt><trkpt lat="-31.91129998893753" lon="115.95393882602357"><ele>10.399999999999999</ele><time>2026-04-05T01:54:04Z</time></trkpt><trkpt lat="-31.91119236509523" lon="115.95396789534179"><ele>9.600000000000001</ele><time>2026-04-05T01:54:05Z</time></trkpt><trkpt lat="-31.911084902604657" lon="115.95399085347113"><ele>8.8</ele><time>2026-04-05T01:54:06Z</time></trkpt><trkpt lat="-31.91097849608988" lon="115.95401423800807"><ele>8.0</ele><time>2026-04-05T01:54:07Z</time></trkpt><trkpt lat="-31.91086577131246" lon="115.95403724336322"><ele>8.0</ele><time>2026-04-05T01:54:08Z</time></trkpt><trkpt lat="-31.910758348238183" lon="115.95406020128215"><ele>8.0</ele><time>2026-04-05T01:54:09Z</time></trkpt><trkpt lat="-31.910662955031647" lon="115.95407857552077"><ele>8.0</ele><time>2026-04-05T01:54:10Z</time></trkpt><trkpt lat="-31.91057936408151" lon="115.95409748220212"><ele>8.0</ele><time>2026-04-05T01:54:11Z</time></trkpt><trkpt lat="-31.910493477459813" lon="115.95410899647284"><ele>8.0</ele><time>2026-04-05T01:54:12Z</time></trkpt><trkpt lat="-31.910420698106154" lon="115.95411190298722"><ele>8.0</ele><time>2026-04-05T01:54:13Z</time></trkpt><trkpt lat="-31.91033841136942" lon="115.9541197758773"><ele>8.0</ele><time>2026-04-05T01:54:14Z</time></trkpt><trkpt lat="-31.910264111971202" lon="115.95410844549127"><ele>8.0</ele><time>2026-04-05T01:54:15Z</time></trkpt><trkpt lat="-31.91019509689359" lon="115.95410767707502"><ele>8.0</ele><time>2026-04-05T01:54:16Z</time></trkpt><trkpt lat="-31.910127033988957" lon="115.9541214480053"><ele>8.0</ele><time>2026-04-05T01:54:18Z</time></trkpt><trkpt lat="-31.910120832907786" lon="115.95433809470221"><ele>8.0</ele><time>2026-04-05T01:54:19Z</time></trkpt><trkpt lat="-31.910118095822806" lon="115.95446237065589"><ele>8.0</ele><time>2026-04-05T01:54:20Z</time></trkpt><trkpt lat="-31.910116156594437" lon="115.95461792374628"><ele>8.0</ele><time>2026-04-05T01:54:21Z</time></trkpt><trkpt lat="-31.910104371687023" lon="115.9548111960255"><ele>8.0</ele><time>2026-04-05T01:54:22Z</time></trkpt><trkpt lat="-31.910100375977525" lon="115.95504465974028"><ele>8.5</ele><time>2026-04-05T01:54:23Z</time></trkpt><trkpt lat="-31.910101932165386" lon="115.95532600298888"><ele>9.0</ele><time>2026-04-05T01:54:24Z</time></trkpt><trkpt lat="-31.910104145931054" lon="115.9556572334667"><ele>8.5</ele><time>2026-04-05T01:54:25Z</time></trkpt><trkpt lat="-31.910105195911395" lon="115.9559623689565"><ele>8.0</ele><time>2026-04-05T01:54:26Z</time></trkpt><trkpt lat="-31.9101037951157" lon="115.95622284353267"><ele>8.0</ele><time>2026-04-05T01:54:27Z</time></trkpt><trkpt lat="-31.910103281008208" lon="115.95645646730324"><ele>8.0</ele><time>2026-04-05T01:54:28Z</time></trkpt><trkpt lat="-31.9101032055007" lon="115.95667408945961"><ele>8.0</ele><time>2026-04-05T01:54:29Z</time></trkpt><trkpt lat="-31.910104018886997" lon="115.95687811159058"><ele>8.0</ele><time>2026-04-05T01:54:30Z</time></trkpt><trkpt lat="-31.910108575693457" lon="115.95706888687573"><ele>8.0</ele><time>2026-04-05T01:54:31Z</time></trkpt><trkpt lat="-31.910105948691392" lon="115.9572473131469"><ele>8.0</ele><time>2026-04-05T01:54:32Z</time></trkpt><trkpt lat="-31.910094550830884" lon="115.9574145463346"><ele>7.75</ele><time>2026-04-05T01:54:33Z</time></trkpt><trkpt lat="-31.91008884711061" lon="115.95757099299553"><ele>7.5</ele><time>2026-04-05T01:54:34Z</time></trkpt><trkpt lat="-31.91009114178828" lon="115.9577155504443"><ele>7.25</ele><time>2026-04-05T01:54:35Z</time></trkpt><trkpt lat="-31.9100959175456" lon="115.95786208225552"><ele>7.0</ele><time>2026-04-05T01:54:36Z</time></trkpt><trkpt lat="-31.910093848581518" lon="115.9580116178473"><ele>7.0</ele><time>2026-04-05T01:54:37Z</time></trkpt><trkpt lat="-31.910091732345155" lon="115.95816938097974"><ele>7.0</ele><time>2026-04-05T01:54:38Z</time></trkpt><trkpt lat="-31.91008808041052" lon="115.95833087885995"><ele>7.0</ele><time>2026-04-05T01:54:39Z</time></trkpt><trkpt lat="-31.910084113821227" lon="115.95849319362381"><ele>7.0</ele><time>2026-04-05T01:54:40Z</time></trkpt><trkpt lat="-31.910080346013345" lon="115.95866074896458"><ele>7.25</ele><time>2026-04-05T01:54:41Z</time></trkpt><trkpt lat="-31.910078505386693" lon="115.95882902033455"><ele>7.5</ele><time>2026-04-05T01:54:42Z</time></trkpt><trkpt lat="-31.910077776312853" lon="115.95898717036552"><ele>7.75</ele><time>2026-04-05T01:54:43Z</time></trkpt><trkpt lat="-31.91008066249055" lon="115.95913828054911"><ele>8.0</ele><time>2026-04-05T01:54:44Z</time></trkpt><trkpt lat="-31.91007936884128" lon="115.95927747168633"><ele>8.4</ele><time>2026-04-05T01:54:45Z</time></trkpt><trkpt lat="-31.910077886857508" lon="115.95940907301011"><ele>8.8</ele><time>2026-04-05T01:54:46Z</time></trkpt><trkpt lat="-31.910076179562306" lon="115.95953516781205"><ele>9.2</ele><time>2026-04-05T01:54:47Z</time></trkpt><trkpt lat="-31.910074779345504" lon="115.95965037791056"><ele>9.6</ele><time>2026-04-05T01:54:48Z</time></trkpt><trkpt lat="-31.91007572756842" lon="115.95974795348315"><ele>10.0</ele><time>2026-04-05T01:54:49Z</time></trkpt><trkpt lat="-31.910056380414186" lon="115.95986749321375"><ele>10.0</ele><time>2026-04-05T01:54:51Z</time></trkpt><trkpt lat="-31.90990576524925" lon="115.95988914090695"><ele>10.0</ele><time>2026-04-05T01:54:53Z</time></trkpt><trkpt lat="-31.909786021742068" lon="115.95990236902773"><ele>10.0</ele><time>2026-04-05T01:54:54Z</time></trkpt><trkpt lat="-31.90966271679468" lon="115.95989195939325"><ele>10.0</ele><time>2026-04-05T01:54:55Z</time></trkpt><trkpt lat="-31.90955030703637" lon="115.9598934697438"><ele>10.0</ele><time>2026-04-05T01:54:56Z</time></trkpt><trkpt lat="-31.90943993682767" lon="115.95989755392107"><ele>10.0</ele><time>2026-04-05T01:54:57Z</time></trkpt><trkpt lat="-31.909322557582815" lon="115.95990092039047"><ele>10.0</ele><time>2026-04-05T01:54:58Z</time></trkpt><trkpt lat="-31.909217118702163" lon="115.95989991301649"><ele>10.0</ele><time>2026-04-05T01:54:59Z</time></trkpt><trkpt lat="-31.909113811242225" lon="115.95989115357126"><ele>10.0</ele><time>2026-04-05T01:55:00Z</time></trkpt><trkpt lat="-31.90901305339639" lon="115.95988497010538"><ele>9.6</ele><time>2026-04-05T01:55:01Z</time></trkpt><trkpt lat="-31.908914579562346" lon="115.95988504449453"><ele>9.2</ele><time>2026-04-05T01:55:02Z</time></trkpt><trkpt lat="-31.908813433217603" lon="115.95988619023608"><ele>8.8</ele><time>2026-04-05T01:55:03Z</time></trkpt><trkpt lat="-31.908711630256615" lon="115.95988743621541"><ele>8.4</ele><time>2026-04-05T01:55:04Z</time></trkpt><trkpt lat="-31.90860131607794" lon="115.95988918648618"><ele>8.0</ele><time>2026-04-05T01:55:05Z</time></trkpt><trkpt lat="-31.908485216784886" lon="115.95989013505097"><ele>8.25</ele><time>2026-04-05T01:55:06Z</time></trkpt><trkpt lat="-31.90836223038706" lon="115.95988648994005"><ele>8.5</ele><time>2026-04-05T01:55:07Z</time></trkpt><trkpt lat="-31.908238299044914" lon="115.95988657142308"><ele>8.75</ele><time>2026-04-05T01:55:08Z</time></trkpt><trkpt lat="-31.908110844538253" lon="115.95988456333322"><ele>9.0</ele><time>2026-04-05T01:55:09Z</time></trkpt><trkpt lat="-31.907980792023935" lon="115.95988449518846"><ele>9.0</ele><time>2026-04-05T01:55:10Z</time></trkpt><trkpt lat="-31.907862268813435" lon="115.95988462956929"><ele>9.0</ele><time>2026-04-05T01:55:11Z</time></trkpt><trkpt lat="-31.90775001607559" lon="115.9598846571259"><ele>9.0</ele><time>2026-04-05T01:55:12Z</time></trkpt><trkpt lat="-31.90763815385876" lon="115.95988513973016"><ele>9.0</ele><time>2026-04-05T01:55:13Z</time></trkpt><trkpt lat="-31.907525943166434" lon="115.95988440689315"><ele>9.25</ele><time>2026-04-05T01:55:14Z</time></trkpt><trkpt lat="-31.907410367426476" lon="115.95988405398641"><ele>9.5</ele><time>2026-04-05T01:55:15Z</time></trkpt><trkpt lat="-31.907295147317075" lon="115.95988299082775"><ele>9.75</ele><time>2026-04-05T01:55:16Z</time></trkpt><trkpt lat="-31.90718044362803" lon="115.95988536915547"><ele>10.0</ele><time>2026-04-05T01:55:17Z</time></trkpt><trkpt lat="-31.90706695367698" lon="115.95988738054538"><ele>10.0</ele><time>2026-04-05T01:55:18Z</time></trkpt><trkpt lat="-31.90695250614029" lon="115.95988081896846"><ele>10.0</ele><time>2026-04-05T01:55:19Z</time></trkpt><trkpt lat="-31.906830950115996" lon="115.95987639835158"><ele>10.0</ele><time>2026-04-05T01:55:20Z</time></trkpt><trkpt lat="-31.90670828845152" lon="115.95987700114873"><ele>10.0</ele><time>2026-04-05T01:55:21Z</time></trkpt><trkpt lat="-31.90657437234016" lon="115.95987531361267"><ele>9.75</ele><time>2026-04-05T01:55:22Z</time></trkpt><trkpt lat="-31.90643696020736" lon="115.95987889896894"><ele>9.5</ele><time>2026-04-05T01:55:23Z</time></trkpt><trkpt lat="-31.906295315015633" lon="115.9598840241853"><ele>9.25</ele><time>2026-04-05T01:55:24Z</time></trkpt><trkpt lat="-31.9061520399126" lon="115.95988842634547"><ele>9.0</ele><time>2026-04-05T01:55:25Z</time></trkpt><trkpt lat="-31.90601640368288" lon="115.95988822307655"><ele>8.75</ele><time>2026-04-05T01:55:26Z</time></trkpt><trkpt lat="-31.90588934632229" lon="115.95988638747059"><ele>8.5</ele><time>2026-04-05T01:55:27Z</time></trkpt><trkpt lat="-31.905764892966825" lon="115.95988874244446"><ele>8.25</ele><time>2026-04-05T01:55:28Z</time></trkpt><trkpt lat="-31.905640253175314" lon="115.95988763686104"><ele>8.0</ele><time>2026-04-05T01:55:29Z</time></trkpt><trkpt lat="-31.905519185614516" lon="115.95989047386159"><ele>8.0</ele><time>2026-04-05T01:55:30Z</time></trkpt><trkpt lat="-31.905396417798414" lon="115.95988827203732"><ele>8.0</ele><time>2026-04-05T01:55:31Z</time></trkpt><trkpt lat="-31.90527241559242" lon="115.95989730089867"><ele>8.0</ele><time>2026-04-05T01:55:32Z</time></trkpt><trkpt lat="-31.905142077504845" lon="115.95988485300833"><ele>8.0</ele><time>2026-04-05T01:55:33Z</time></trkpt><trkpt lat="-31.905009032471572" lon="115.9598838538248"><ele>8.75</ele><time>2026-04-05T01:55:34Z</time></trkpt><trkpt lat="-31.904868501716408" lon="115.95989601132591"><ele>9.5</ele><time>2026-04-05T01:55:35Z</time></trkpt><trkpt lat="-31.904732823306414" lon="115.95988367262926"><ele>10.25</ele><time>2026-04-05T01:55:36Z</time></trkpt><trkpt lat="-31.904607388070136" lon="115.95987263195629"><ele>11.0</ele><time>2026-04-05T01:55:37Z</time></trkpt><trkpt lat="-31.904489306631874" lon="115.9598758596921"><ele>11.0</ele><time>2026-04-05T01:55:38Z</time></trkpt><trkpt lat="-31.904377088922836" lon="115.95987730035483"><ele>11.0</ele><time>2026-04-05T01:55:39Z</time></trkpt><trkpt lat="-31.904267192483132" lon="115.95987400250355"><ele>11.0</ele><time>2026-04-05T01:55:40Z</time></trkpt><trkpt lat="-31.904153322741205" lon="115.95987458627536"><ele>11.0</ele><time>2026-04-05T01:55:41Z</time></trkpt><trkpt lat="-31.904033074851867" lon="115.95987554517993"><ele>11.5</ele><time>2026-04-05T01:55:42Z</time></trkpt><trkpt lat="-31.903908771544394" lon="115.95987503450604"><ele>12.0</ele><time>2026-04-05T01:55:43Z</time></trkpt><trkpt lat="-31.903780871684816" lon="115.95987699919563"><ele>12.5</ele><time>2026-04-05T01:55:44Z</time></trkpt><trkpt lat="-31.90364873184285" lon="115.95987712443939"><ele>13.0</ele><time>2026-04-05T01:55:45Z</time></trkpt><trkpt lat="-31.903514358657954" lon="115.95987626355775"><ele>13.0</ele><time>2026-04-05T01:55:46Z</time></trkpt><trkpt lat="-31.903381221207372" lon="115.95987489402548"><ele>13.0</ele><time>2026-04-05T01:55:47Z</time></trkpt><trkpt lat="-31.903247212035083" lon="115.95987458598916"><ele>13.0</ele><time>2026-04-05T01:55:48Z</time></trkpt><trkpt lat="-31.9031165128074" lon="115.95987293767739"><ele>13.0</ele><time>2026-04-05T01:55:49Z</time></trkpt><trkpt lat="-31.9029907375188" lon="115.95987168185941"><ele>13.0</ele><time>2026-04-05T01:55:50Z</time></trkpt><trkpt lat="-31.902867692136187" lon="115.9598765515471"><ele>13.0</ele><time>2026-04-05T01:55:51Z</time></trkpt><trkpt lat="-31.902746358074925" lon="115.95987958685859"><ele>13.0</ele><time>2026-04-05T01:55:52Z</time></trkpt><trkpt lat="-31.902627565626613" lon="115.95987900357214"><ele>13.0</ele><time>2026-04-05T01:55:53Z</time></trkpt><trkpt lat="-31.902515111576495" lon="115.95986475070141"><ele>13.25</ele><time>2026-04-05T01:55:54Z</time></trkpt><trkpt lat="-31.90240662689593" lon="115.95983038305306"><ele>13.5</ele><time>2026-04-05T01:55:55Z</time></trkpt><trkpt lat="-31.902306858888" lon="115.95977275661151"><ele>13.75</ele><time>2026-04-05T01:55:56Z</time></trkpt><trkpt lat="-31.902209036159885" lon="115.95969691193959"><ele>14.0</ele><time>2026-04-05T01:55:57Z</time></trkpt><trkpt lat="-31.90210980862417" lon="115.95961492212426"><ele>14.0</ele><time>2026-04-05T01:55:58Z</time></trkpt><trkpt lat="-31.901998809809584" lon="115.95954687059806"><ele>14.0</ele><time>2026-04-05T01:55:59Z</time></trkpt><trkpt lat="-31.901872798221568" lon="115.95949700849039"><ele>14.0</ele><time>2026-04-05T01:56:00Z</time></trkpt><trkpt lat="-31.90173560348189" lon="115.95946874473506"><ele>14.0</ele><time>2026-04-05T01:56:01Z</time></trkpt><trkpt lat="-31.901601733797012" lon="115.9594600816234"><ele>13.25</ele><time>2026-04-05T01:56:02Z</time></trkpt><trkpt lat="-31.90147479461118" lon="115.95946830929935"><ele>12.5</ele><time>2026-04-05T01:56:03Z</time></trkpt><trkpt lat="-31.901354341513418" lon="115.95948157722115"><ele>11.75</ele><time>2026-04-05T01:56:04Z</time></trkpt><trkpt lat="-31.90124380093759" lon="115.95948235536414"><ele>11.0</ele><time>2026-04-05T01:56:05Z</time></trkpt><trkpt lat="-31.90114631933472" lon="115.95947991242303"><ele>11.0</ele><time>2026-04-05T01:56:06Z</time></trkpt><trkpt lat="-31.901061130396226" lon="115.95947944157729"><ele>11.0</ele><time>2026-04-05T01:56:07Z</time></trkpt><trkpt lat="-31.90098156072726" lon="115.95948075065103"><ele>11.0</ele><time>2026-04-05T01:56:09Z</time></trkpt><trkpt lat="-31.90091913917498" lon="115.95939950861894"><ele>11.0</ele><time>2026-04-05T01:56:15Z</time></trkpt><trkpt lat="-31.900962108405402" lon="115.95930317019722"><ele>11.0</ele><time>2026-04-05T01:56:17Z</time></trkpt><trkpt lat="-31.90093134923584" lon="115.95922321307181"><ele>11.0</ele><time>2026-04-05T01:56:19Z</time></trkpt><trkpt lat="-31.901069917903683" lon="115.9593188505045"><ele>10.333333333333332</ele><time>2026-04-05T01:56:21Z</time></trkpt><trkpt lat="-31.90111242364803" lon="115.95917031986085"><ele>9.666666666666666</ele><time>2026-04-05T01:56:26Z</time></trkpt><trkpt lat="-31.90117538867319" lon="115.95918586142025"><ele>9.0</ele><time>2026-04-05T01:59:57Z</time></trkpt><trkpt lat="-31.901177882747277" lon="115.95910162804766"><ele>8.333333333333334</ele><time>2026-04-05T02:02:49Z</time></trkpt><trkpt lat="-31.901149292219703" lon="115.95903045378675"><ele>7.666666666666667</ele><time>2026-04-05T02:02:51Z</time></trkpt><trkpt lat="-31.901088405513747" lon="115.95899862961787"><ele>7.0</ele><time>2026-04-05T02:02:53Z</time></trkpt><trkpt lat="-31.90101536459831" lon="115.95901263839276"><ele>7.000000000000001</ele><time>2026-04-05T02:03:02Z</time></trkpt><trkpt lat="-31.90094304699726" lon="115.95904829365048"><ele>7.0</ele><time>2026-04-05T02:03:04Z</time></trkpt><trkpt lat="-31.900870917141027" lon="115.95910840474262"><ele>7.0</ele><time>2026-04-05T02:03:07Z</time></trkpt><trkpt lat="-31.900838817408875" lon="115.95919127166768"><ele>7.0</ele><time>2026-04-05T02:03:08Z</time></trkpt><trkpt lat="-31.900823354035346" lon="115.95929274061159"><ele>7.000000000000001</ele><time>2026-04-05T02:03:09Z</time></trkpt><trkpt lat="-31.900758097639773" lon="115.95936836372732"><ele>7.0</ele><time>2026-04-05T02:03:10Z</time></trkpt><trkpt lat="-31.900727890704538" lon="115.95947956735023"><ele>7.0</ele><time>2026-04-05T02:03:11Z</time></trkpt><trkpt lat="-31.90069582878434" lon="115.95959740977709"><ele>7.0</ele><time>2026-04-05T02:03:12Z</time></trkpt><trkpt lat="-31.90066352345883" lon="115.95971612406174"><ele>7.0</ele><time>2026-04-05T02:03:13Z</time></trkpt><trkpt lat="-31.9006228420183" lon="115.95986718825257"><ele>7.0</ele><time>2026-04-05T02:03:14Z</time></trkpt><trkpt lat="-31.900564692088473" lon="115.96005127043234"><ele>7.0</ele><time>2026-04-05T02:03:15Z</time></trkpt><trkpt lat="-31.900493128943875" lon="115.96027992850289"><ele>7.0</ele><time>2026-04-05T02:03:16Z</time></trkpt><trkpt lat="-31.900414874621127" lon="115.9605167104163"><ele>7.0</ele><time>2026-04-05T02:03:17Z</time></trkpt><trkpt lat="-31.900346717740113" lon="115.96073222203941"><ele>6.333333333333334</ele><time>2026-04-05T02:03:18Z</time></trkpt><trkpt lat="-31.9002878448378" lon="115.96092236003265"><ele>5.666666666666667</ele><time>2026-04-05T02:03:19Z</time></trkpt><trkpt lat="-31.90023171605279" lon="115.96109815684241"><ele>5.0</ele><time>2026-04-05T02:03:20Z</time></trkpt><trkpt lat="-31.900175834767364" lon="115.96125475336497"><ele>5.0</ele><time>2026-04-05T02:03:21Z</time></trkpt><trkpt lat="-31.90012715270153" lon="115.9614022915379"><ele>5.0</ele><time>2026-04-05T02:03:22Z</time></trkpt><trkpt lat="-31.90008225941206" lon="115.9615432254581"><ele>5.0</ele><time>2026-04-05T02:03:23Z</time></trkpt><trkpt lat="-31.900043711069802" lon="115.96167263337651"><ele>5.0</ele><time>2026-04-05T02:03:24Z</time></trkpt><trkpt lat="-31.900008695706262" lon="115.96179418955921"><ele>4.75</ele><time>2026-04-05T02:03:25Z</time></trkpt><trkpt lat="-31.899972077052826" lon="115.96191802686066"><ele>4.5</ele><time>2026-04-05T02:03:26Z</time></trkpt><trkpt lat="-31.899927166271116" lon="115.96205879169302"><ele>4.25</ele><time>2026-04-05T02:03:27Z</time></trkpt><trkpt lat="-31.89986949832434" lon="115.9622226648881"><ele>4.0</ele><time>2026-04-05T02:03:28Z</time></trkpt><trkpt lat="-31.899811269610744" lon="115.96239769506394"><ele>5.666666666666666</ele><time>2026-04-05T02:03:29Z</time></trkpt><trkpt lat="-31.899748657460858" lon="115.96257554029937"><ele>7.333333333333333</ele><time>2026-04-05T02:03:30Z</time></trkpt><trkpt lat="-31.899684419964835" lon="115.96273793726475"><ele>9.0</ele><time>2026-04-05T02:03:31Z</time></trkpt><trkpt lat="-31.899618619309756" lon="115.96289731254885"><ele>9.0</ele><time>2026-04-05T02:03:32Z</time></trkpt><trkpt lat="-31.899538520718377" lon="115.96305203967341"><ele>9.0</ele><time>2026-04-05T02:03:33Z</time></trkpt><trkpt lat="-31.899473647551638" lon="115.96319955453774"><ele>9.0</ele><time>2026-04-05T02:03:34Z</time></trkpt><trkpt lat="-31.89942409472887" lon="115.96333116250497"><ele>9.0</ele><time>2026-04-05T02:03:35Z</time></trkpt><trkpt lat="-31.89938568375322" lon="115.96345644070114"><ele>9.5</ele><time>2026-04-05T02:03:36Z</time></trkpt><trkpt lat="-31.899354928115535" lon="115.96358429036583"><ele>10.0</ele><time>2026-04-05T02:03:37Z</time></trkpt><trkpt lat="-31.899321596646647" lon="115.96373162148316"><ele>10.5</ele><time>2026-04-05T02:03:38Z</time></trkpt><trkpt lat="-31.899297811643276" lon="115.96388127980865"><ele>11.0</ele><time>2026-04-05T02:03:39Z</time></trkpt><trkpt lat="-31.899291034822" lon="115.96401619796201"><ele>11.0</ele><time>2026-04-05T02:03:40Z</time></trkpt><trkpt lat="-31.89930352437561" lon="115.96413425681389"><ele>11.0</ele><time>2026-04-05T02:03:41Z</time></trkpt><trkpt lat="-31.899309205368713" lon="115.96424205484922"><ele>11.0</ele><time>2026-04-05T02:03:42Z</time></trkpt><trkpt lat="-31.899313382031423" lon="115.96433488930775"><ele>11.0</ele><time>2026-04-05T02:03:43Z</time></trkpt><trkpt lat="-31.899310783065655" lon="115.96442304547432"><ele>11.0</ele><time>2026-04-05T02:03:44Z</time></trkpt><trkpt lat="-31.899314539887786" lon="115.964502075266"><ele>11.0</ele><time>2026-04-05T02:03:45Z</time></trkpt><trkpt lat="-31.899440945608845" lon="115.96456346932054"><ele>11.5</ele><time>2026-04-05T02:03:47Z</time></trkpt><trkpt lat="-31.899547367319663" lon="115.96467965167254"><ele>12.0</ele><time>2026-04-05T02:03:48Z</time></trkpt><trkpt lat="-31.89966221046095" lon="115.96476960940952"><ele>12.5</ele><time>2026-04-05T02:03:49Z</time></trkpt><trkpt lat="-31.899766031191557" lon="115.96489001842404"><ele>13.0</ele><time>2026-04-05T02:03:50Z</time></trkpt><trkpt lat="-31.899864831276478" lon="115.96500622833405"><ele>13.0</ele><time>2026-04-05T02:03:51Z</time></trkpt><trkpt lat="-31.899968834555647" lon="115.9651142835894"><ele>13.0</ele><time>2026-04-05T02:03:52Z</time></trkpt><trkpt lat="-31.900075533254906" lon="115.96522689717075"><ele>13.0</ele><time>2026-04-05T02:03:53Z</time></trkpt><trkpt lat="-31.900181295729283" lon="115.96534158053804"><ele>13.0</ele><time>2026-04-05T02:03:54Z</time></trkpt><trkpt lat="-31.90028857481537" lon="115.9654558210821"><ele>13.0</ele><time>2026-04-05T02:03:55Z</time></trkpt><trkpt lat="-31.90039093854342" lon="115.96556807732681"><ele>13.0</ele><time>2026-04-05T02:03:56Z</time></trkpt><trkpt lat="-31.90049230899731" lon="115.96568074524895"><ele>13.0</ele><time>2026-04-05T02:03:57Z</time></trkpt><trkpt lat="-31.900590087461353" lon="115.96579316024021"><ele>13.0</ele><time>2026-04-05T02:03:58Z</time></trkpt><trkpt lat="-31.90068660612533" lon="115.96590317141428"><ele>12.75</ele><time>2026-04-05T02:03:59Z</time></trkpt><trkpt lat="-31.90078411569516" lon="115.96600963016392"><ele>12.5</ele><time>2026-04-05T02:04:00Z</time></trkpt><trkpt lat="-31.900880953315962" lon="115.96611410411265"><ele>12.25</ele><time>2026-04-05T02:04:01Z</time></trkpt><trkpt lat="-31.900973521659363" lon="115.96621411758842"><ele>12.0</ele><time>2026-04-05T02:04:02Z</time></trkpt><trkpt lat="-31.901066751662892" lon="115.96631498827024"><ele>11.8</ele><time>2026-04-05T02:04:03Z</time></trkpt><trkpt lat="-31.901153895424272" lon="115.96641140780537"><ele>11.6</ele><time>2026-04-05T02:04:04Z</time></trkpt><trkpt lat="-31.90123281518035" lon="115.96650250920067"><ele>11.4</ele><time>2026-04-05T02:04:05Z</time></trkpt><trkpt lat="-31.9013020716695" lon="115.96658714764494"><ele>11.200000000000001</ele><time>2026-04-05T02:04:06Z</time></trkpt><trkpt lat="-31.901357039279777" lon="115.96667807579801"><ele>11.0</ele><time>2026-04-05T02:04:07Z</time></trkpt><trkpt lat="-31.90139505397687" lon="115.96678924803844"><ele>11.0</ele><time>2026-04-05T02:04:08Z</time></trkpt><trkpt lat="-31.901415823459082" lon="115.96692806507937"><ele>11.0</ele><time>2026-04-05T02:04:09Z</time></trkpt><trkpt lat="-31.90141489582557" lon="115.96710179064668"><ele>11.0</ele><time>2026-04-05T02:04:10Z</time></trkpt><trkpt lat="-31.90140239573891" lon="115.96730138229769"><ele>11.0</ele><time>2026-04-05T02:04:11Z</time></trkpt><trkpt lat="-31.901397450039426" lon="115.9674873518227"><ele>11.5</ele><time>2026-04-05T02:04:12Z</time></trkpt><trkpt lat="-31.90139207774733" lon="115.96765931134912"><ele>12.0</ele><time>2026-04-05T02:04:13Z</time></trkpt><trkpt lat="-31.901386592365984" lon="115.96782382859351"><ele>12.5</ele><time>2026-04-05T02:04:14Z</time></trkpt><trkpt lat="-31.901383101060038" lon="115.96798413692261"><ele>13.0</ele><time>2026-04-05T02:04:15Z</time></trkpt><trkpt lat="-31.901379751385306" lon="115.968130483448"><ele>13.0</ele><time>2026-04-05T02:04:16Z</time></trkpt><trkpt lat="-31.90137625903229" lon="115.96826590639336"><ele>13.0</ele><time>2026-04-05T02:04:17Z</time></trkpt><trkpt lat="-31.9013712957344" lon="115.96838849619233"><ele>13.0</ele><time>2026-04-05T02:04:18Z</time></trkpt><trkpt lat="-31.901362784058673" lon="115.96848748408158"><ele>13.0</ele><time>2026-04-05T02:04:19Z</time></trkpt><trkpt lat="-31.901360566436704" lon="115.96856604313426"><ele>13.0</ele><time>2026-04-05T02:04:20Z</time></trkpt><trkpt lat="-31.90136159973862" lon="115.96866943063226"><ele>12.999999999999998</ele><time>2026-04-05T02:04:22Z</time></trkpt><trkpt lat="-31.901368309476275" lon="115.96877664690908"><ele>13.0</ele><time>2026-04-05T02:04:30Z</time></trkpt><trkpt lat="-31.901357477877404" lon="115.96886087913722"><ele>13.0</ele><time>2026-04-05T02:04:31Z</time></trkpt><trkpt lat="-31.90137762063176" lon="115.96895168240397"><ele>13.0</ele><time>2026-04-05T02:04:32Z</time></trkpt><trkpt lat="-31.90138122672289" lon="115.96906283863748"><ele>12.999999999999998</ele><time>2026-04-05T02:04:33Z</time></trkpt><trkpt lat="-31.901368946838932" lon="115.969189454405"><ele>13.0</ele><time>2026-04-05T02:04:34Z</time></trkpt><trkpt lat="-31.901378460926235" lon="115.96931940621175"><ele>12.25</ele><time>2026-04-05T02:04:35Z</time></trkpt><trkpt lat="-31.90138353020815" lon="115.96945548012987"><ele>11.5</ele><time>2026-04-05T02:04:36Z</time></trkpt><trkpt lat="-31.901389444822833" lon="115.96960130229871"><ele>10.75</ele><time>2026-04-05T02:04:37Z</time></trkpt><trkpt lat="-31.901393794624955" lon="115.96974978209228"><ele>10.0</ele><time>2026-04-05T02:04:38Z</time></trkpt><trkpt lat="-31.90139686049154" lon="115.96990699050937"><ele>9.75</ele><time>2026-04-05T02:04:39Z</time></trkpt><trkpt lat="-31.90140038073004" lon="115.97006833599052"><ele>9.5</ele><time>2026-04-05T02:04:40Z</time></trkpt><trkpt lat="-31.901405641316316" lon="115.97024160682696"><ele>9.25</ele><time>2026-04-05T02:04:41Z</time></trkpt><trkpt lat="-31.90140015982845" lon="115.97042219119686"><ele>9.0</ele><time>2026-04-05T02:04:42Z</time></trkpt><trkpt lat="-31.901393987843683" lon="115.97060914635696"><ele>9.0</ele><time>2026-04-05T02:04:43Z</time></trkpt><trkpt lat="-31.901394981659987" lon="115.97078899839265"><ele>9.0</ele><time>2026-04-05T02:04:44Z</time></trkpt><trkpt lat="-31.901397040816175" lon="115.97095231066713"><ele>9.0</ele><time>2026-04-05T02:04:45Z</time></trkpt><trkpt lat="-31.901395072099703" lon="115.97110435930212"><ele>9.0</ele><time>2026-04-05T02:04:46Z</time></trkpt><trkpt lat="-31.90139270432575" lon="115.97125301444221"><ele>9.0</ele><time>2026-04-05T02:04:47Z</time></trkpt><trkpt lat="-31.901392206689195" lon="115.97140210561274"><ele>9.0</ele><time>2026-04-05T02:04:48Z</time></trkpt><trkpt lat="-31.901389187716042" lon="115.97155901310477"><ele>9.0</ele><time>2026-04-05T02:04:49Z</time></trkpt><trkpt lat="-31.901387715991618" lon="115.97172295652149"><ele>9.0</ele><time>2026-04-05T02:04:50Z</time></trkpt><trkpt lat="-31.901393057320988" lon="115.97188905367888"><ele>9.0</ele><time>2026-04-05T02:04:51Z</time></trkpt><trkpt lat="-31.901398392645557" lon="115.97205438466776"><ele>9.0</ele><time>2026-04-05T02:04:52Z</time></trkpt><trkpt lat="-31.901396422782298" lon="115.97221718616262"><ele>9.0</ele><time>2026-04-05T02:04:53Z</time></trkpt><trkpt lat="-31.901389975986685" lon="115.97237983667071"><ele>9.0</ele><time>2026-04-05T02:04:54Z</time></trkpt><trkpt lat="-31.901392445005" lon="115.97254301350644"><ele>9.75</ele><time>2026-04-05T02:04:55Z</time></trkpt><trkpt lat="-31.901394350822972" lon="115.97270675200035"><ele>10.5</ele><time>2026-04-05T02:04:56Z</time></trkpt><trkpt lat="-31.901394440005514" lon="115.97286323559456"><ele>11.25</ele><time>2026-04-05T02:04:57Z</time></trkpt><trkpt lat="-31.9013933041946" lon="115.97301374541975"><ele>12.0</ele><time>2026-04-05T02:04:58Z</time></trkpt><trkpt lat="-31.901393410913116" lon="115.97316498391947"><ele>12.0</ele><time>2026-04-05T02:04:59Z</time></trkpt><trkpt lat="-31.901392994765487" lon="115.97331550450853"><ele>12.0</ele><time>2026-04-05T02:05:00Z</time></trkpt><trkpt lat="-31.901392220748345" lon="115.97346387775303"><ele>12.0</ele><time>2026-04-05T02:05:01Z</time></trkpt><trkpt lat="-31.901391748851292" lon="115.97361405223069"><ele>12.0</ele><time>2026-04-05T02:05:02Z</time></trkpt><trkpt lat="-31.901394040886885" lon="115.97377191613727"><ele>12.25</ele><time>2026-04-05T02:05:03Z</time></trkpt><trkpt lat="-31.90139669013862" lon="115.97393471808148"><ele>12.5</ele><time>2026-04-05T02:05:04Z</time></trkpt><trkpt lat="-31.90139636114749" lon="115.97410418133794"><ele>12.75</ele><time>2026-04-05T02:05:05Z</time></trkpt><trkpt lat="-31.901396725023627" lon="115.97427656541667"><ele>13.0</ele><time>2026-04-05T02:05:06Z</time></trkpt><trkpt lat="-31.901393395116543" lon="115.97444959854322"><ele>13.0</ele><time>2026-04-05T02:05:07Z</time></trkpt><trkpt lat="-31.90139542015059" lon="115.97461773622703"><ele>13.0</ele><time>2026-04-05T02:05:08Z</time></trkpt><trkpt lat="-31.901397654089514" lon="115.97477960554721"><ele>13.0</ele><time>2026-04-05T02:05:09Z</time></trkpt><trkpt lat="-31.90139762682615" lon="115.97494683604981"><ele>13.0</ele><time>2026-04-05T02:05:10Z</time></trkpt><trkpt lat="-31.901393592261588" lon="115.97511131509272"><ele>12.0</ele><time>2026-04-05T02:05:11Z</time></trkpt><trkpt lat="-31.901393834098876" lon="115.97527881763352"><ele>11.0</ele><time>2026-04-05T02:05:12Z</time></trkpt><trkpt lat="-31.901392610671635" lon="115.9754489307449"><ele>10.0</ele><time>2026-04-05T02:05:13Z</time></trkpt><trkpt lat="-31.901392242962885" lon="115.97562067107276"><ele>9.0</ele><time>2026-04-05T02:05:14Z</time></trkpt><trkpt lat="-31.90139647451093" lon="115.9757914995419"><ele>9.25</ele><time>2026-04-05T02:05:15Z</time></trkpt><trkpt lat="-31.901397060767795" lon="115.97596476748775"><ele>9.5</ele><time>2026-04-05T02:05:16Z</time></trkpt><trkpt lat="-31.901396386524475" lon="115.97613887731276"><ele>9.75</ele><time>2026-04-05T02:05:17Z</time></trkpt><trkpt lat="-31.90139658207537" lon="115.9763147061802"><ele>10.0</ele><time>2026-04-05T02:05:18Z</time></trkpt><trkpt lat="-31.901399797287414" lon="115.97649585659151"><ele>10.0</ele><time>2026-04-05T02:05:19Z</time></trkpt><trkpt lat="-31.901400165592644" lon="115.97667406907703"><ele>10.0</ele><time>2026-04-05T02:05:20Z</time></trkpt><trkpt lat="-31.901399983194942" lon="115.97686338235908"><ele>10.0</ele><time>2026-04-05T02:05:21Z</time></trkpt><trkpt lat="-31.90139703056798" lon="115.97707020134678"><ele>10.0</ele><time>2026-04-05T02:05:22Z</time></trkpt><trkpt lat="-31.901396346971545" lon="115.97729030885971"><ele>10.0</ele><time>2026-04-05T02:05:23Z</time></trkpt><trkpt lat="-31.90139551704773" lon="115.9775329519473"><ele>10.0</ele><time>2026-04-05T02:05:24Z</time></trkpt><trkpt lat="-31.901395116778335" lon="115.97777326231244"><ele>9.333333333333334</ele><time>2026-04-05T02:05:25Z</time></trkpt><trkpt lat="-31.90139544798828" lon="115.97798699793827"><ele>8.666666666666666</ele><time>2026-04-05T02:05:26Z</time></trkpt><trkpt lat="-31.90139411405054" lon="115.97818231972617"><ele>8.0</ele><time>2026-04-05T02:05:27Z</time></trkpt><trkpt lat="-31.90139264554219" lon="115.97836339360107"><ele>8.0</ele><time>2026-04-05T02:05:28Z</time></trkpt><trkpt lat="-31.901391671240752" lon="115.97853520773329"><ele>8.0</ele><time>2026-04-05T02:05:29Z</time></trkpt><trkpt lat="-31.901392191765733" lon="115.97870870112274"><ele>8.0</ele><time>2026-04-05T02:05:30Z</time></trkpt><trkpt lat="-31.901391798820924" lon="115.97889343381871"><ele>8.0</ele><time>2026-04-05T02:05:31Z</time></trkpt><trkpt lat="-31.901391270912775" lon="115.97909118298931"><ele>8.0</ele><time>2026-04-05T02:05:32Z</time></trkpt><trkpt lat="-31.90139485113698" lon="115.97928325128026"><ele>8.0</ele><time>2026-04-05T02:05:33Z</time></trkpt><trkpt lat="-31.90139547700416" lon="115.97945508110004"><ele>8.0</ele><time>2026-04-05T02:05:34Z</time></trkpt><trkpt lat="-31.90139213085853" lon="115.97961825806726"><ele>8.0</ele><time>2026-04-05T02:05:35Z</time></trkpt><trkpt lat="-31.901396674600335" lon="115.97977003264057"><ele>8.0</ele><time>2026-04-05T02:05:36Z</time></trkpt><trkpt lat="-31.901396769057992" lon="115.97990892869348"><ele>8.0</ele><time>2026-04-05T02:05:37Z</time></trkpt><trkpt lat="-31.901392080320363" lon="115.9800172791397"><ele>8.8</ele><time>2026-04-05T02:05:38Z</time></trkpt><trkpt lat="-31.90139123893077" lon="115.98010220846119"><ele>9.600000000000001</ele><time>2026-04-05T02:05:39Z</time></trkpt><trkpt lat="-31.901368275752954" lon="115.98023826467511"><ele>10.399999999999999</ele><time>2026-04-05T02:05:41Z</time></trkpt><trkpt lat="-31.901351870548496" lon="115.98032661843476"><ele>11.2</ele><time>2026-04-05T02:05:43Z</time></trkpt><trkpt lat="-31.901283991458577" lon="115.98035362330762"><ele>12.0</ele><time>2026-04-05T02:06:17Z</time></trkpt><trkpt lat="-31.901185099310183" lon="115.98043884753356"><ele>12.0</ele><time>2026-04-05T02:06:19Z</time></trkpt><trkpt lat="-31.901125051316708" lon="115.98047843530689"><ele>12.0</ele><time>2026-04-05T02:06:20Z</time></trkpt><trkpt lat="-31.901056793017066" lon="115.98053516558102"><ele>12.0</ele><time>2026-04-05T02:06:21Z</time></trkpt><trkpt lat="-31.90097628285401" lon="115.98059592110823"><ele>12.0</ele><time>2026-04-05T02:06:22Z</time></trkpt><trkpt lat="-31.900889616018567" lon="115.98065367643657"><ele>12.0</ele><time>2026-04-05T02:06:23Z</time></trkpt><trkpt lat="-31.900803332908037" lon="115.98071316379502"><ele>12.0</ele><time>2026-04-05T02:06:24Z</time></trkpt><trkpt lat="-31.900714293205596" lon="115.9807721093883"><ele>11.4</ele><time>2026-04-05T02:06:25Z</time></trkpt><trkpt lat="-31.90062167329856" lon="115.98083278610648"><ele>10.799999999999999</ele><time>2026-04-05T02:06:26Z</time></trkpt><trkpt lat="-31.900533026601533" lon="115.98090203261887"><ele>10.2</ele><time>2026-04-05T02:06:27Z</time></trkpt><trkpt lat="-31.900443589085025" lon="115.980965726829"><ele>9.6</ele><time>2026-04-05T02:06:28Z</time></trkpt><trkpt lat="-31.900355421222432" lon="115.98102755666135"><ele>9.0</ele><time>2026-04-05T02:06:29Z</time></trkpt><trkpt lat="-31.900266782044042" lon="115.9810919343506"><ele>9.0</ele><time>2026-04-05T02:06:30Z</time></trkpt><trkpt lat="-31.90017789885745" lon="115.98115153419992"><ele>9.0</ele><time>2026-04-05T02:06:31Z</time></trkpt><trkpt lat="-31.900089211496812" lon="115.98121206164892"><ele>9.0</ele><time>2026-04-05T02:06:31.999Z</time></trkpt><trkpt lat="-31.90000667469479" lon="115.9812741678354"><ele>9.0</ele><time>2026-04-05T02:06:32.999Z</time></trkpt><trkpt lat="-31.89993388166119" lon="115.98133399833827"><ele>9.0</ele><time>2026-04-05T02:06:33.999Z</time></trkpt><trkpt lat="-31.899865391182768" lon="115.98138365914997"><ele>8.6</ele><time>2026-04-05T02:06:34.999Z</time></trkpt><trkpt lat="-31.899802280187643" lon="115.9814273006555"><ele>8.2</ele><time>2026-04-05T02:06:35.999Z</time></trkpt><trkpt lat="-31.899745083212803" lon="115.98147364357327"><ele>7.799999999999999</ele><time>2026-04-05T02:06:36.999Z</time></trkpt><trkpt lat="-31.899671244344653" lon="115.98151872740866"><ele>7.3999999999999995</ele><time>2026-04-05T02:06:38.999Z</time></trkpt><trkpt lat="-31.899717026504046" lon="115.98174712434565"><ele>7.0</ele><time>2026-04-05T02:07:08Z</time></trkpt><trkpt lat="-31.89977544769458" lon="115.98183758915974"><ele>7.0</ele><time>2026-04-05T02:07:11Z</time></trkpt><trkpt lat="-31.89983114762044" lon="115.98196300172522"><ele>6.999999999999999</ele><time>2026-04-05T02:07:13Z</time></trkpt><trkpt lat="-31.89985694911843" lon="115.98204176417612"><ele>6.999999999999999</ele><time>2026-04-05T02:07:14Z</time></trkpt><trkpt lat="-31.899899172666508" lon="115.98217787263052"><ele>7.0</ele><time>2026-04-05T02:07:16Z</time></trkpt><trkpt lat="-31.899940827877312" lon="115.98230183967384"><ele>7.0</ele><time>2026-04-05T02:07:18Z</time></trkpt><trkpt lat="-31.899983209098885" lon="115.98239847482229"><ele>7.000000000000001</ele><time>2026-04-05T02:07:20Z</time></trkpt><trkpt lat="-31.90004960262814" lon="115.982445091191"><ele>7.0</ele><time>2026-04-05T02:07:22Z</time></trkpt><trkpt lat="-31.900149211802333" lon="115.9824733598499"><ele>7.0</ele><time>2026-04-05T02:07:24Z</time></trkpt><trkpt lat="-31.900243252547583" lon="115.98249131308175"><ele>7.0</ele><time>2026-04-05T02:07:26Z</time></trkpt><trkpt lat="-31.900282789613488" lon="115.98239500323899"><ele>7.000000000000001</ele><time>2026-04-05T02:07:38Z</time></trkpt><trkpt lat="-31.900312175138236" lon="115.98232469084918"><ele>7.0</ele><time>2026-04-05T02:07:39Z</time></trkpt><trkpt lat="-31.90036474379546" lon="115.98226521252285"><ele>7.833333333333334</ele><time>2026-04-05T02:07:40Z</time></trkpt><trkpt lat="-31.900418868026314" lon="115.98220455967939"><ele>8.666666666666668</ele><time>2026-04-05T02:07:41Z</time></trkpt><trkpt lat="-31.900478218083236" lon="115.98215139321943"><ele>9.5</ele><time>2026-04-05T02:07:42Z</time></trkpt><trkpt lat="-31.900533758646674" lon="115.98210202573593"><ele>10.333333333333334</ele><time>2026-04-05T02:07:43Z</time></trkpt><trkpt lat="-31.900619472042422" lon="115.98202946650196"><ele>11.166666666666666</ele><time>2026-04-05T02:07:45Z</time></trkpt><trkpt lat="-31.900693371514432" lon="115.98198025587655"><ele>12.0</ele><time>2026-04-05T02:07:47Z</time></trkpt><trkpt lat="-31.90076757219853" lon="115.9819943268026"><ele>12.0</ele><time>2026-04-05T02:07:49Z</time></trkpt><trkpt lat="-31.90081288122892" lon="115.98207185751164"><ele>12.0</ele><time>2026-04-05T02:07:51Z</time></trkpt><trkpt lat="-31.90082725736296" lon="115.9821727221797"><ele>12.0</ele><time>2026-04-05T02:07:53Z</time></trkpt><trkpt lat="-31.900794420923784" lon="115.98204619936959"><ele>12.0</ele><time>2026-04-05T02:09:07Z</time></trkpt><trkpt lat="-31.900709564158234" lon="115.98197602937638"><ele>12.0</ele><time>2026-04-05T02:09:09Z</time></trkpt><trkpt lat="-31.90062645977486" lon="115.98198290293483"><ele>12.0</ele><time>2026-04-05T02:09:11Z</time></trkpt><trkpt lat="-31.900527271708196" lon="115.98209316744796"><ele>12.0</ele><time>2026-04-05T02:09:13Z</time></trkpt><trkpt lat="-31.900453332566983" lon="115.98216717503225"><ele>12.0</ele><time>2026-04-05T02:09:14Z</time></trkpt><trkpt lat="-31.90038546663051" lon="115.98222788018728"><ele>12.0</ele><time>2026-04-05T02:09:15Z</time></trkpt><trkpt lat="-31.900296126097658" lon="115.98230390848619"><ele>12.0</ele><time>2026-04-05T02:09:17Z</time></trkpt><trkpt lat="-31.900247057726627" lon="115.98235189722541"><ele>12.0</ele><time>2026-04-05T02:09:18Z</time></trkpt><trkpt lat="-31.900187001567073" lon="115.98240773767247"><ele>12.0</ele><time>2026-04-05T02:09:19Z</time></trkpt><trkpt lat="-31.90007985715742" lon="115.98244739232763"><ele>12.0</ele><time>2026-04-05T02:09:21Z</time></trkpt><trkpt lat="-31.89998214497602" lon="115.98240671513068"><ele>12.0</ele><time>2026-04-05T02:09:23Z</time></trkpt><trkpt lat="-31.899929892745273" lon="115.98231945705349"><ele>12.0</ele><time>2026-04-05T02:09:25Z</time></trkpt><trkpt lat="-31.89990523064502" lon="115.98224829848864"><ele>12.0</ele><time>2026-04-05T02:09:26Z</time></trkpt><trkpt lat="-31.899877449559177" lon="115.98211968861843"><ele>11.0</ele><time>2026-04-05T02:09:27Z</time></trkpt><trkpt lat="-31.899837655879235" lon="115.98199663335986"><ele>10.0</ele><time>2026-04-05T02:09:28Z</time></trkpt><trkpt lat="-31.89979258717209" lon="115.98188329786221"><ele>9.0</ele><time>2026-04-05T02:09:29Z</time></trkpt><trkpt lat="-31.89975384176787" lon="115.98179682319375"><ele>8.0</ele><time>2026-04-05T02:09:30Z</time></trkpt><trkpt lat="-31.89971334919019" lon="115.9817159685304"><ele>7.0</ele><time>2026-04-05T02:09:31Z</time></trkpt><trkpt lat="-31.899677528903137" lon="115.98160896676988"><ele>6.3999999999999995</ele><time>2026-04-05T02:09:33Z</time></trkpt><trkpt lat="-31.899708586277857" lon="115.98153246475276"><ele>5.799999999999999</ele><time>2026-04-05T02:09:35Z</time></trkpt><trkpt lat="-31.899814469754883" lon="115.98143660961199"><ele>5.2</ele><time>2026-04-05T02:10:31Z</time></trkpt><trkpt lat="-31.89989726298924" lon="115.98138005176577"><ele>4.6</ele><time>2026-04-05T02:10:32Z</time></trkpt><trkpt lat="-31.899983556129868" lon="115.98131801328665"><ele>4.0</ele><time>2026-04-05T02:10:33Z</time></trkpt><trkpt lat="-31.900073425453943" lon="115.98127192007735"><ele>4.833333333333333</ele><time>2026-04-05T02:10:34Z</time></trkpt><trkpt lat="-31.900141541259604" lon="115.9812202017002"><ele>5.666666666666666</ele><time>2026-04-05T02:10:35Z</time></trkpt><trkpt lat="-31.90020170059825" lon="115.98117560902982"><ele>6.5</ele><time>2026-04-05T02:10:36Z</time></trkpt><trkpt lat="-31.90025584209739" lon="115.98113698640437"><ele>7.333333333333333</ele><time>2026-04-05T02:10:37Z</time></trkpt><trkpt lat="-31.9003367417203" lon="115.98107927498839"><ele>8.166666666666666</ele><time>2026-04-05T02:10:39Z</time></trkpt><trkpt lat="-31.900282204441517" lon="115.98093347333939"><ele>9.0</ele><time>2026-04-05T02:10:40Z</time></trkpt><trkpt lat="-31.900260068509724" lon="115.98083977131583"><ele>9.0</ele><time>2026-04-05T02:10:41Z</time></trkpt><trkpt lat="-31.900267883910228" lon="115.9807322418871"><ele>9.0</ele><time>2026-04-05T02:10:42Z</time></trkpt><trkpt lat="-31.900267883910207" lon="115.9806147059454"><ele>9.0</ele><time>2026-04-05T02:10:43Z</time></trkpt><trkpt lat="-31.900257202746683" lon="115.98049114355547"><ele>9.0</ele><time>2026-04-05T02:10:44Z</time></trkpt><trkpt lat="-31.90026015511974" lon="115.98036304424981"><ele>9.0</ele><time>2026-04-05T02:10:45Z</time></trkpt><trkpt lat="-31.900264237693374" lon="115.98023741337863"><ele>9.0</ele><time>2026-04-05T02:10:46Z</time></trkpt><trkpt lat="-31.90026295540633" lon="115.98011053037511"><ele>9.0</ele><time>2026-04-05T02:10:47Z</time></trkpt><trkpt lat="-31.900258837318432" lon="115.97998515837743"><ele>9.0</ele><time>2026-04-05T02:10:48Z</time></trkpt><trkpt lat="-31.90025504886062" lon="115.97986414118925"><ele>9.0</ele><time>2026-04-05T02:10:49Z</time></trkpt><trkpt lat="-31.90025394152876" lon="115.97974267331907"><ele>9.0</ele><time>2026-04-05T02:10:50Z</time></trkpt><trkpt lat="-31.900253727541454" lon="115.97962989103496"><ele>9.2</ele><time>2026-04-05T02:10:51Z</time></trkpt><trkpt lat="-31.900254700052553" lon="115.97951503339898"><ele>9.4</ele><time>2026-04-05T02:10:52Z</time></trkpt><trkpt lat="-31.900257428020016" lon="115.97940789270987"><ele>9.6</ele><time>2026-04-05T02:10:53Z</time></trkpt><trkpt lat="-31.900255224321878" lon="115.9792987292813"><ele>9.8</ele><time>2026-04-05T02:10:54Z</time></trkpt><trkpt lat="-31.900255138264274" lon="115.97918859814536"><ele>10.0</ele><time>2026-04-05T02:10:55Z</time></trkpt><trkpt lat="-31.90025590943001" lon="115.979095514853"><ele>9.6</ele><time>2026-04-05T02:10:56Z</time></trkpt><trkpt lat="-31.900255776768834" lon="115.97900990860738"><ele>9.2</ele><time>2026-04-05T02:10:57Z</time></trkpt><trkpt lat="-31.90025540972755" lon="115.97893203905662"><ele>8.8</ele><time>2026-04-05T02:10:58Z</time></trkpt><trkpt lat="-31.900271320080147" lon="115.9788138077112"><ele>8.4</ele><time>2026-04-05T02:11:00Z</time></trkpt><trkpt lat="-31.900265722166278" lon="115.97873251940076"><ele>8.0</ele><time>2026-04-05T02:11:02Z</time></trkpt><trkpt lat="-31.90010242842064" lon="115.97870600783155"><ele>8.200000000000001</ele><time>2026-04-05T02:11:03Z</time></trkpt><trkpt lat="-31.900005527103698" lon="115.97870252480895"><ele>8.4</ele><time>2026-04-05T02:11:04Z</time></trkpt><trkpt lat="-31.8999047274858" lon="115.9787023480057"><ele>8.600000000000001</ele><time>2026-04-05T02:11:05Z</time></trkpt><trkpt lat="-31.899799381589347" lon="115.97870214564719"><ele>8.8</ele><time>2026-04-05T02:11:06Z</time></trkpt><trkpt lat="-31.899697937763417" lon="115.97870617289145"><ele>9.0</ele><time>2026-04-05T02:11:07Z</time></trkpt><trkpt lat="-31.89960960274896" lon="115.97870842948689"><ele>9.0</ele><time>2026-04-05T02:11:08Z</time></trkpt><trkpt lat="-31.89953209901093" lon="115.9787060459233"><ele>9.0</ele><time>2026-04-05T02:11:09Z</time></trkpt><trkpt lat="-31.89944625858883" lon="115.97869575838504"><ele>9.0</ele><time>2026-04-05T02:11:11Z</time></trkpt><trkpt lat="-31.899365899670148" lon="115.97869830706465"><ele>9.0</ele><time>2026-04-05T02:11:14Z</time></trkpt><trkpt lat="-31.899297048418468" lon="115.9788165968409"><ele>9.0</ele><time>2026-04-05T02:11:16Z</time></trkpt><trkpt lat="-31.899282240122258" lon="115.97892498190006"><ele>9.0</ele><time>2026-04-05T02:11:17Z</time></trkpt><trkpt lat="-31.899278124971875" lon="115.97906703687073"><ele>9.0</ele><time>2026-04-05T02:11:18Z</time></trkpt><trkpt lat="-31.89927914887109" lon="115.97923210218165"><ele>9.0</ele><time>2026-04-05T02:11:19Z</time></trkpt><trkpt lat="-31.89928253774721" lon="115.97943545326082"><ele>9.0</ele><time>2026-04-05T02:11:20Z</time></trkpt><trkpt lat="-31.89928569167053" lon="115.97965098523154"><ele>9.333333333333334</ele><time>2026-04-05T02:11:21Z</time></trkpt><trkpt lat="-31.899285883032004" lon="115.97989172077652"><ele>9.666666666666668</ele><time>2026-04-05T02:11:22Z</time></trkpt><trkpt lat="-31.899286904080842" lon="115.98010958745157"><ele>10.0</ele><time>2026-04-05T02:11:23Z</time></trkpt><trkpt lat="-31.899291079852553" lon="115.98030354632924"><ele>10.0</ele><time>2026-04-05T02:11:24Z</time></trkpt><trkpt lat="-31.899292692240348" lon="115.98048506163158"><ele>10.0</ele><time>2026-04-05T02:11:25Z</time></trkpt><trkpt lat="-31.899292239238346" lon="115.980656632908"><ele>10.0</ele><time>2026-04-05T02:11:26Z</time></trkpt><trkpt lat="-31.899286887904452" lon="115.98082618693745"><ele>10.0</ele><time>2026-04-05T02:11:27Z</time></trkpt><trkpt lat="-31.899283847984886" lon="115.98098986346959"><ele>8.5</ele><time>2026-04-05T02:11:28Z</time></trkpt><trkpt lat="-31.89927932407134" lon="115.98115205828951"><ele>7.0</ele><time>2026-04-05T02:11:29Z</time></trkpt><trkpt lat="-31.899277475659417" lon="115.9812971368581"><ele>5.5</ele><time>2026-04-05T02:11:30Z</time></trkpt><trkpt lat="-31.899274253210052" lon="115.98143310014228"><ele>4.0</ele><time>2026-04-05T02:11:31Z</time></trkpt><trkpt lat="-31.89926044016062" lon="115.98155899840712"><ele>4.2</ele><time>2026-04-05T02:11:32Z</time></trkpt><trkpt lat="-31.899222435409477" lon="115.98166935066979"><ele>4.4</ele><time>2026-04-05T02:11:33Z</time></trkpt><trkpt lat="-31.89914680855925" lon="115.98175086798028"><ele>4.6</ele><time>2026-04-05T02:11:34Z</time></trkpt><trkpt lat="-31.899044832690894" lon="115.98180614771667"><ele>4.8</ele><time>2026-04-05T02:11:35Z</time></trkpt><trkpt lat="-31.89892285377567" lon="115.98183601769878"><ele>5.0</ele><time>2026-04-05T02:11:36Z</time></trkpt><trkpt lat="-31.898788956402747" lon="115.98185055436295"><ele>5.0</ele><time>2026-04-05T02:11:37Z</time></trkpt><trkpt lat="-31.898636162659713" lon="115.98185791045367"><ele>5.0</ele><time>2026-04-05T02:11:38Z</time></trkpt><trkpt lat="-31.898469963284924" lon="115.981864580684"><ele>5.0</ele><time>2026-04-05T02:11:39Z</time></trkpt><trkpt lat="-31.898309175588174" lon="115.98187271346684"><ele>6.25</ele><time>2026-04-05T02:11:40Z</time></trkpt><trkpt lat="-31.89816260919264" lon="115.98188000443267"><ele>7.5</ele><time>2026-04-05T02:11:41Z</time></trkpt><trkpt lat="-31.898038738790543" lon="115.98187932640872"><ele>8.75</ele><time>2026-04-05T02:11:42Z</time></trkpt><trkpt lat="-31.89791350363348" lon="115.98187890765124"><ele>10.0</ele><time>2026-04-05T02:11:43Z</time></trkpt><trkpt lat="-31.8977997633081" lon="115.98188421607402"><ele>10.0</ele><time>2026-04-05T02:11:44Z</time></trkpt><trkpt lat="-31.89768648340492" lon="115.98188613464923"><ele>10.0</ele><time>2026-04-05T02:11:45Z</time></trkpt><trkpt lat="-31.8975633290801" lon="115.98188764882299"><ele>10.0</ele><time>2026-04-05T02:11:46Z</time></trkpt><trkpt lat="-31.897424394762012" lon="115.98188114292567"><ele>10.0</ele><time>2026-04-05T02:11:47Z</time></trkpt><trkpt lat="-31.89726959407998" lon="115.98187023955121"><ele>10.0</ele><time>2026-04-05T02:11:48Z</time></trkpt><trkpt lat="-31.897102114302875" lon="115.98186419099119"><ele>10.0</ele><time>2026-04-05T02:11:49Z</time></trkpt><trkpt lat="-31.896932245103695" lon="115.98186704379933"><ele>10.0</ele><time>2026-04-05T02:11:50Z</time></trkpt><trkpt lat="-31.89675139296553" lon="115.98187052366637"><ele>10.666666666666668</ele><time>2026-04-05T02:11:51Z</time></trkpt><trkpt lat="-31.89656299033434" lon="115.98187202511438"><ele>11.333333333333334</ele><time>2026-04-05T02:11:52Z</time></trkpt><trkpt lat="-31.89637142870036" lon="115.98187082452952"><ele>12.0</ele><time>2026-04-05T02:11:53Z</time></trkpt><trkpt lat="-31.8961927137948" lon="115.98187331249417"><ele>12.0</ele><time>2026-04-05T02:11:54Z</time></trkpt><trkpt lat="-31.896027660111788" lon="115.9818744092722"><ele>12.0</ele><time>2026-04-05T02:11:55Z</time></trkpt><trkpt lat="-31.895876070123798" lon="115.98187296162543"><ele>12.0</ele><time>2026-04-05T02:11:56Z</time></trkpt><trkpt lat="-31.89573713420623" lon="115.98186865970426"><ele>12.399999999999999</ele><time>2026-04-05T02:11:57Z</time></trkpt><trkpt lat="-31.895616101766375" lon="115.98186898315944"><ele>12.799999999999999</ele><time>2026-04-05T02:11:58Z</time></trkpt><trkpt lat="-31.895516911140987" lon="115.98186950182486"><ele>13.2</ele><time>2026-04-05T02:11:59Z</time></trkpt><trkpt lat="-31.8954385648528" lon="115.98187206709119"><ele>13.6</ele><time>2026-04-05T02:12:00Z</time></trkpt><trkpt lat="-31.895369140868137" lon="115.98187076622882"><ele>14.0</ele><time>2026-04-05T02:12:01Z</time></trkpt><trkpt lat="-31.89526068748319" lon="115.9818717133061"><ele>14.000000000000002</ele><time>2026-04-05T02:12:03Z</time></trkpt><trkpt lat="-31.89519233829621" lon="115.9818725582528"><ele>14.0</ele><time>2026-04-05T02:12:05Z</time></trkpt><trkpt lat="-31.895120148273342" lon="115.98188071632283"><ele>14.0</ele><time>2026-04-05T02:12:31Z</time></trkpt><trkpt lat="-31.895061150237044" lon="115.98191379058119"><ele>14.0</ele><time>2026-04-05T02:12:32Z</time></trkpt><trkpt lat="-31.895012839673807" lon="115.98196579050159"><ele>14.000000000000002</ele><time>2026-04-05T02:12:33Z</time></trkpt><trkpt lat="-31.894961546238243" lon="115.98207639220331"><ele>14.0</ele><time>2026-04-05T02:12:34Z</time></trkpt><trkpt lat="-31.894914510976374" lon="115.98222438464987"><ele>14.0</ele><time>2026-04-05T02:12:35Z</time></trkpt><trkpt lat="-31.894861743743245" lon="115.98237321191083"><ele>14.0</ele><time>2026-04-05T02:12:36Z</time></trkpt><trkpt lat="-31.894791617142563" lon="115.98251976878149"><ele>14.0</ele><time>2026-04-05T02:12:37Z</time></trkpt><trkpt lat="-31.894704228093218" lon="115.98267859762764"><ele>14.0</ele><time>2026-04-05T02:12:38Z</time></trkpt><trkpt lat="-31.894600665598315" lon="115.98286050146928"><ele>14.0</ele><time>2026-04-05T02:12:39Z</time></trkpt><trkpt lat="-31.89451257435714" lon="115.98301302067772"><ele>14.0</ele><time>2026-04-05T02:12:40Z</time></trkpt><trkpt lat="-31.894425176510854" lon="115.98315831285453"><ele>14.0</ele><time>2026-04-05T02:12:41Z</time></trkpt><trkpt lat="-31.894341223515436" lon="115.98329653087505"><ele>14.25</ele><time>2026-04-05T02:12:42Z</time></trkpt><trkpt lat="-31.894256484641584" lon="115.9834271094249"><ele>14.5</ele><time>2026-04-05T02:12:43Z</time></trkpt><trkpt lat="-31.894172182956837" lon="115.98355510625309"><ele>14.75</ele><time>2026-04-05T02:12:44Z</time></trkpt><trkpt lat="-31.894093886840725" lon="115.983677139645"><ele>15.0</ele><time>2026-04-05T02:12:45Z</time></trkpt><trkpt lat="-31.89400895263973" lon="115.9838073531194"><ele>15.0</ele><time>2026-04-05T02:12:46Z</time></trkpt><trkpt lat="-31.893919891791313" lon="115.98394954864688"><ele>15.0</ele><time>2026-04-05T02:12:47Z</time></trkpt><trkpt lat="-31.893825273940905" lon="115.9841001984451"><ele>15.0</ele><time>2026-04-05T02:12:48Z</time></trkpt><trkpt lat="-31.893716301642847" lon="115.98427967900824"><ele>13.666666666666666</ele><time>2026-04-05T02:12:49Z</time></trkpt><trkpt lat="-31.893598573324336" lon="115.9844734687289"><ele>12.333333333333332</ele><time>2026-04-05T02:12:50Z</time></trkpt><trkpt lat="-31.893486014465513" lon="115.98466119031609"><ele>11.0</ele><time>2026-04-05T02:12:51Z</time></trkpt><trkpt lat="-31.893382682248912" lon="115.98483529742117"><ele>10.666666666666666</ele><time>2026-04-05T02:12:51.999Z</time></trkpt><trkpt lat="-31.893284687832516" lon="115.98501179980202"><ele>10.333333333333334</ele><time>2026-04-05T02:12:52.999Z</time></trkpt><trkpt lat="-31.89318884816526" lon="115.98518471740711"><ele>10.0</ele><time>2026-04-05T02:12:53.999Z</time></trkpt><trkpt lat="-31.89309129599828" lon="115.98536969486074"><ele>10.0</ele><time>2026-04-05T02:12:54.999Z</time></trkpt><trkpt lat="-31.89298636059323" lon="115.98556347011298"><ele>10.0</ele><time>2026-04-05T02:12:55.999Z</time></trkpt><trkpt lat="-31.89287617939982" lon="115.98575787001707"><ele>10.0</ele><time>2026-04-05T02:12:56.999Z</time></trkpt><trkpt lat="-31.892772794296434" lon="115.98595140554096"><ele>11.0</ele><time>2026-04-05T02:12:57.999Z</time></trkpt><trkpt lat="-31.89267468384644" lon="115.98615100632759"><ele>12.0</ele><time>2026-04-05T02:12:58.999Z</time></trkpt><trkpt lat="-31.892573037753703" lon="115.98634508586588"><ele>13.0</ele><time>2026-04-05T02:12:59.999Z</time></trkpt><trkpt lat="-31.892472431334305" lon="115.98653222623864"><ele>12.333333333333332</ele><time>2026-04-05T02:13:00.999Z</time></trkpt><trkpt lat="-31.892382866752566" lon="115.98671713732685"><ele>11.666666666666666</ele><time>2026-04-05T02:13:01.999Z</time></trkpt><trkpt lat="-31.892307952724277" lon="115.98691074953594"><ele>11.0</ele><time>2026-04-05T02:13:03Z</time></trkpt><trkpt lat="-31.892260295218037" lon="115.98714418070448"><ele>11.0</ele><time>2026-04-05T02:13:04Z</time></trkpt><trkpt lat="-31.892211440148078" lon="115.98737529618589"><ele>11.0</ele><time>2026-04-05T02:13:05Z</time></trkpt><trkpt lat="-31.89217199972501" lon="115.98761584132566"><ele>11.0</ele><time>2026-04-05T02:13:06Z</time></trkpt><trkpt lat="-31.892127155578283" lon="115.98785005379105"><ele>11.333333333333332</ele><time>2026-04-05T02:13:07Z</time></trkpt><trkpt lat="-31.89208197760707" lon="115.98808505028754"><ele>11.666666666666666</ele><time>2026-04-05T02:13:08Z</time></trkpt><trkpt lat="-31.89203603387811" lon="115.9883199846225"><ele>12.0</ele><time>2026-04-05T02:13:09Z</time></trkpt><trkpt lat="-31.891992354791824" lon="115.98855071490706"><ele>12.0</ele><time>2026-04-05T02:13:10Z</time></trkpt><trkpt lat="-31.891949072991757" lon="115.98877744972897"><ele>12.0</ele><time>2026-04-05T02:13:11Z</time></trkpt><trkpt lat="-31.891907629301397" lon="115.98899793666092"><ele>12.0</ele><time>2026-04-05T02:13:12Z</time></trkpt><trkpt lat="-31.891862966753205" lon="115.98920011914872"><ele>12.0</ele><time>2026-04-05T02:13:13Z</time></trkpt><trkpt lat="-31.89181344525573" lon="115.98940311039661"><ele>12.0</ele><time>2026-04-05T02:13:14Z</time></trkpt><trkpt lat="-31.89177111690916" lon="115.98958972400504"><ele>12.0</ele><time>2026-04-05T02:13:15Z</time></trkpt><trkpt lat="-31.891739215242918" lon="115.98976514146909"><ele>12.0</ele><time>2026-04-05T02:13:16Z</time></trkpt><trkpt lat="-31.89171117981889" lon="115.98993191223092"><ele>12.0</ele><time>2026-04-05T02:13:17Z</time></trkpt><trkpt lat="-31.891681469147567" lon="115.99008931390655"><ele>12.0</ele><time>2026-04-05T02:13:18Z</time></trkpt><trkpt lat="-31.891653566349575" lon="115.99023459197848"><ele>12.0</ele><time>2026-04-05T02:13:19Z</time></trkpt><trkpt lat="-31.891628725956288" lon="115.99036979032957"><ele>12.2</ele><time>2026-04-05T02:13:20Z</time></trkpt><trkpt lat="-31.89160486845096" lon="115.99049475510768"><ele>12.399999999999999</ele><time>2026-04-05T02:13:21Z</time></trkpt><trkpt lat="-31.89158161661829" lon="115.99060399373604"><ele>12.600000000000001</ele><time>2026-04-05T02:13:22Z</time></trkpt><trkpt lat="-31.89155659964029" lon="115.99068651693561"><ele>12.8</ele><time>2026-04-05T02:13:23Z</time></trkpt><trkpt lat="-31.89150983978177" lon="115.99074576831927"><ele>13.0</ele><time>2026-04-05T02:13:25Z</time></trkpt><trkpt lat="-31.891383391318353" lon="115.99067424466561"><ele>13.0</ele><time>2026-04-05T02:13:26Z</time></trkpt><trkpt lat="-31.891280757592437" lon="115.99065528789656"><ele>13.0</ele><time>2026-04-05T02:13:27Z</time></trkpt><trkpt lat="-31.891161785196804" lon="115.99060952494251"><ele>13.0</ele><time>2026-04-05T02:13:28Z</time></trkpt><trkpt lat="-31.89102106137971" lon="115.99057805218636"><ele>13.0</ele><time>2026-04-05T02:13:29Z</time></trkpt><trkpt lat="-31.890874025863095" lon="115.99054442029855"><ele>13.75</ele><time>2026-04-05T02:13:30Z</time></trkpt><trkpt lat="-31.890731717831553" lon="115.99050324587085"><ele>14.5</ele><time>2026-04-05T02:13:31Z</time></trkpt><trkpt lat="-31.89059117422783" lon="115.9904653669952"><ele>15.25</ele><time>2026-04-05T02:13:32Z</time></trkpt><trkpt lat="-31.890466499874783" lon="115.99043271167663"><ele>16.0</ele><time>2026-04-05T02:13:33Z</time></trkpt><trkpt lat="-31.890351035002777" lon="115.99040207420353"><ele>16.0</ele><time>2026-04-05T02:13:34Z</time></trkpt><trkpt lat="-31.89024432244585" lon="115.99037837728177"><ele>16.0</ele><time>2026-04-05T02:13:35Z</time></trkpt><trkpt lat="-31.89013898459012" lon="115.99036334292208"><ele>16.0</ele><time>2026-04-05T02:13:36Z</time></trkpt><trkpt lat="-31.89003741468264" lon="115.99036541489987"><ele>16.0</ele><time>2026-04-05T02:13:37Z</time></trkpt><trkpt lat="-31.889945123636533" lon="115.99038973124547"><ele>16.0</ele><time>2026-04-05T02:13:38Z</time></trkpt><trkpt lat="-31.88986098515533" lon="115.99042072303686"><ele>16.25</ele><time>2026-04-05T02:13:39Z</time></trkpt><trkpt lat="-31.889793062658644" lon="115.99042514993477"><ele>16.5</ele><time>2026-04-05T02:13:40Z</time></trkpt><trkpt lat="-31.88969707942197" lon="115.99045002614892"><ele>16.75</ele><time>2026-04-05T02:13:42Z</time></trkpt><trkpt lat="-31.889729474551192" lon="115.99070624735711"><ele>17.0</ele><time>2026-04-05T02:13:43Z</time></trkpt><trkpt lat="-31.88976438069766" lon="115.99086056973304"><ele>16.0</ele><time>2026-04-05T02:13:44Z</time></trkpt><trkpt lat="-31.889818764184483" lon="115.99104517377532"><ele>15.0</ele><time>2026-04-05T02:13:45Z</time></trkpt><trkpt lat="-31.88987525755631" lon="115.99125867385168"><ele>14.0</ele><time>2026-04-05T02:13:46Z</time></trkpt><trkpt lat="-31.889931287188492" lon="115.99148160427457"><ele>14.333333333333334</ele><time>2026-04-05T02:13:47Z</time></trkpt><trkpt lat="-31.889979675035214" lon="115.99168253036713"><ele>14.666666666666668</ele><time>2026-04-05T02:13:48Z</time></trkpt><trkpt lat="-31.890022414668714" lon="115.991862809472"><ele>15.0</ele><time>2026-04-05T02:13:49Z</time></trkpt><trkpt lat="-31.890060970325763" lon="115.99202730250308"><ele>15.0</ele><time>2026-04-05T02:13:50Z</time></trkpt><trkpt lat="-31.89009108834135" lon="115.99218695519386"><ele>15.0</ele><time>2026-04-05T02:13:51Z</time></trkpt><trkpt lat="-31.89010382179431" lon="115.99234502827696"><ele>15.0</ele><time>2026-04-05T02:13:52Z</time></trkpt><trkpt lat="-31.89010197032835" lon="115.9925073097078"><ele>15.0</ele><time>2026-04-05T02:13:53Z</time></trkpt><trkpt lat="-31.8900954976152" lon="115.99268957985944"><ele>13.333333333333334</ele><time>2026-04-05T02:13:54Z</time></trkpt><trkpt lat="-31.890093271622685" lon="115.99290840782719"><ele>11.666666666666668</ele><time>2026-04-05T02:13:55Z</time></trkpt><trkpt lat="-31.89009947957092" lon="115.99313844135727"><ele>10.0</ele><time>2026-04-05T02:13:56Z</time></trkpt><trkpt lat="-31.890109501652663" lon="115.99335673434237"><ele>10.0</ele><time>2026-04-05T02:13:57Z</time></trkpt><trkpt lat="-31.890119853846144" lon="115.9935524700555"><ele>10.0</ele><time>2026-04-05T02:13:58Z</time></trkpt><trkpt lat="-31.890124439425577" lon="115.99374201836292"><ele>10.0</ele><time>2026-04-05T02:13:59Z</time></trkpt><trkpt lat="-31.890119554236254" lon="115.99392032060562"><ele>10.0</ele><time>2026-04-05T02:14:00Z</time></trkpt><trkpt lat="-31.890116391853837" lon="115.99408928128754"><ele>10.0</ele><time>2026-04-05T02:14:01Z</time></trkpt><trkpt lat="-31.89011820726025" lon="115.99425072195211"><ele>10.0</ele><time>2026-04-05T02:14:02Z</time></trkpt><trkpt lat="-31.890116150968318" lon="115.99439908525059"><ele>10.0</ele><time>2026-04-05T02:14:03Z</time></trkpt><trkpt lat="-31.890110834196808" lon="115.99453330217683"><ele>10.6</ele><time>2026-04-05T02:14:04Z</time></trkpt><trkpt lat="-31.890106446046534" lon="115.99463985609106"><ele>11.2</ele><time>2026-04-05T02:14:05Z</time></trkpt><trkpt lat="-31.89010417664244" lon="115.99472303975612"><ele>11.8</ele><time>2026-04-05T02:14:06Z</time></trkpt><trkpt lat="-31.89009127656475" lon="115.99482295945464"><ele>12.4</ele><time>2026-04-05T02:14:08Z</time></trkpt><trkpt lat="-31.88992290247634" lon="115.99486881982597"><ele>13.0</ele><time>2026-04-05T02:14:11Z</time></trkpt><trkpt lat="-31.889822558958613" lon="115.99486979902606"><ele>13.0</ele><time>2026-04-05T02:14:12Z</time></trkpt><trkpt lat="-31.889708437922867" lon="115.99487091267925"><ele>13.0</ele><time>2026-04-05T02:14:13Z</time></trkpt><trkpt lat="-31.889582977672056" lon="115.99487010203487"><ele>13.0</ele><time>2026-04-05T02:14:14Z</time></trkpt><trkpt lat="-31.889450832213928" lon="115.99486557519012"><ele>13.0</ele><time>2026-04-05T02:14:15Z</time></trkpt><trkpt lat="-31.8893203363555" lon="115.99486143029101"><ele>13.0</ele><time>2026-04-05T02:14:16Z</time></trkpt><trkpt lat="-31.889206444045108" lon="115.99486288778536"><ele>13.0</ele><time>2026-04-05T02:14:17Z</time></trkpt><trkpt lat="-31.88910829191172" lon="115.99488021721541"><ele>13.0</ele><time>2026-04-05T02:14:18Z</time></trkpt><trkpt lat="-31.88901777954696" lon="115.99489172662506"><ele>13.0</ele><time>2026-04-05T02:14:19Z</time></trkpt><trkpt lat="-31.888926987853914" lon="115.99494970331594"><ele>13.0</ele><time>2026-04-05T02:14:20Z</time></trkpt><trkpt lat="-31.888850735764798" lon="115.99505334251312"><ele>13.0</ele><time>2026-04-05T02:14:21Z</time></trkpt><trkpt lat="-31.88878439134564" lon="115.99518826934845"><ele>13.0</ele><time>2026-04-05T02:14:22Z</time></trkpt><trkpt lat="-31.888702508100323" lon="115.99532963413995"><ele>13.0</ele><time>2026-04-05T02:14:23Z</time></trkpt><trkpt lat="-31.888610089865708" lon="115.99546267641087"><ele>13.0</ele><time>2026-04-05T02:14:24Z</time></trkpt><trkpt lat="-31.888518841503494" lon="115.99558688059273"><ele>13.0</ele><time>2026-04-05T02:14:25Z</time></trkpt><trkpt lat="-31.888432788728696" lon="115.99570111686985"><ele>13.0</ele><time>2026-04-05T02:14:26Z</time></trkpt><trkpt lat="-31.8883371548782" lon="115.99579871958943"><ele>13.0</ele><time>2026-04-05T02:14:27Z</time></trkpt><trkpt lat="-31.8882377296152" lon="115.99589256718495"><ele>13.0</ele><time>2026-04-05T02:14:28Z</time></trkpt><trkpt lat="-31.888097680960442" lon="115.99600341094302"><ele>13.0</ele><time>2026-04-05T02:14:29Z</time></trkpt><trkpt lat="-31.887954997317337" lon="115.99614593715154"><ele>13.0</ele><time>2026-04-05T02:14:30Z</time></trkpt><trkpt lat="-31.88783689345517" lon="115.9962857336712"><ele>13.0</ele><time>2026-04-05T02:14:31Z</time></trkpt><trkpt lat="-31.88771915227431" lon="115.99639478432383"><ele>13.0</ele><time>2026-04-05T02:14:32Z</time></trkpt><trkpt lat="-31.887623448234823" lon="115.99651633411534"><ele>13.0</ele><time>2026-04-05T02:14:33Z</time></trkpt><trkpt lat="-31.887525807199353" lon="115.99664719389752"><ele>13.0</ele><time>2026-04-05T02:14:33.999Z</time></trkpt><trkpt lat="-31.887423079574358" lon="115.99677482350718"><ele>13.0</ele><time>2026-04-05T02:14:34.999Z</time></trkpt><trkpt lat="-31.887320789639443" lon="115.99689720010446"><ele>12.5</ele><time>2026-04-05T02:14:35.999Z</time></trkpt><trkpt lat="-31.887219887053334" lon="115.99701028762719"><ele>12.0</ele><time>2026-04-05T02:14:36.999Z</time></trkpt><trkpt lat="-31.887123438105363" lon="115.99711648144347"><ele>11.5</ele><time>2026-04-05T02:14:37.999Z</time></trkpt><trkpt lat="-31.887026908691894" lon="115.99722185770113"><ele>11.0</ele><time>2026-04-05T02:14:38.999Z</time></trkpt><trkpt lat="-31.886941944136854" lon="115.99732040392564"><ele>11.0</ele><time>2026-04-05T02:14:39.999Z</time></trkpt><trkpt lat="-31.88686657619148" lon="115.99741027597278"><ele>11.0</ele><time>2026-04-05T02:14:40.999Z</time></trkpt><trkpt lat="-31.8868088069021" lon="115.99748872203465"><ele>11.0</ele><time>2026-04-05T02:14:41.999Z</time></trkpt><trkpt lat="-31.886758351222973" lon="115.99754322544773"><ele>11.0</ele><time>2026-04-05T02:14:42.999Z</time></trkpt><trkpt lat="-31.88685070323973" lon="115.99775375611353"><ele>12.25</ele><time>2026-04-05T02:14:44.999Z</time></trkpt><trkpt lat="-31.88692906964724" lon="115.99784921367443"><ele>13.5</ele><time>2026-04-05T02:14:45.999Z</time></trkpt><trkpt lat="-31.88703195170324" lon="115.99795193143167"><ele>14.75</ele><time>2026-04-05T02:14:46.999Z</time></trkpt><trkpt lat="-31.88713001363605" lon="115.99805301075432"><ele>16.0</ele><time>2026-04-05T02:14:47.999Z</time></trkpt><trkpt lat="-31.88720554061571" lon="115.99815075488947"><ele>15.999999999999998</ele><time>2026-04-05T02:14:48.999Z</time></trkpt><trkpt lat="-31.88726791948032" lon="115.99823399437368"><ele>16.0</ele><time>2026-04-05T02:14:49.999Z</time></trkpt><trkpt lat="-31.887327711938298" lon="115.99830372573199"><ele>16.0</ele><time>2026-04-05T02:14:50.999Z</time></trkpt><trkpt lat="-31.887376068357188" lon="115.9983595074055"><ele>16.0</ele><time>2026-04-05T02:14:51.999Z</time></trkpt><trkpt lat="-31.887432811462414" lon="115.99843603538412"><ele>15.999999999999998</ele><time>2026-04-05T02:14:53.999Z</time></trkpt><trkpt lat="-31.887470542000152" lon="115.99856610039801"><ele>16.0</ele><time>2026-04-05T02:14:57.999Z</time></trkpt><trkpt lat="-31.887500943235946" lon="115.9986371368489"><ele>16.0</ele><time>2026-04-05T02:14:58.999Z</time></trkpt><trkpt lat="-31.887565330481713" lon="115.99871313397156"><ele>16.0</ele><time>2026-04-05T02:14:59.999Z</time></trkpt><trkpt lat="-31.887637126746874" lon="115.99879082100824"><ele>16.0</ele><time>2026-04-05T02:15:00.999Z</time></trkpt><trkpt lat="-31.887725489643447" lon="115.9988843306687"><ele>16.0</ele><time>2026-04-05T02:15:01.999Z</time></trkpt><trkpt lat="-31.887819902908564" lon="115.99899621647367"><ele>16.0</ele><time>2026-04-05T02:15:02.999Z</time></trkpt><trkpt lat="-31.88790110241433" lon="115.99909931924485"><ele>15.200000000000001</ele><time>2026-04-05T02:15:03.999Z</time></trkpt><trkpt lat="-31.8879600187214" lon="115.99920075464563"><ele>14.400000000000002</ele><time>2026-04-05T02:15:04.999Z</time></trkpt><trkpt lat="-31.887987366148693" lon="115.99932444331694"><ele>13.6</ele><time>2026-04-05T02:15:05.999Z</time></trkpt><trkpt lat="-31.88796893946919" lon="115.99946048019684"><ele>12.8</ele><time>2026-04-05T02:15:06.999Z</time></trkpt><trkpt lat="-31.887976812484126" lon="115.9995891823413"><ele>12.0</ele><time>2026-04-05T02:15:07.999Z</time></trkpt><trkpt lat="-31.88796287862882" lon="115.9997026082186"><ele>11.999999999999998</ele><time>2026-04-05T02:15:09Z</time></trkpt><trkpt lat="-31.887957216018034" lon="115.99979849618141"><ele>12.0</ele><time>2026-04-05T02:15:10Z</time></trkpt><trkpt lat="-31.887955255185247" lon="115.99987476864628"><ele>12.0</ele><time>2026-04-05T02:15:11Z</time></trkpt><trkpt lat="-31.88794792553885" lon="115.99995456944586"><ele>12.0</ele><time>2026-04-05T02:15:13Z</time></trkpt><trkpt lat="-31.887929006198043" lon="116.00003765443732"><ele>12.0</ele><time>2026-04-05T02:15:15Z</time></trkpt><trkpt lat="-31.887914824756876" lon="116.00011705513094"><ele>11.999999999999998</ele><time>2026-04-05T02:15:16Z</time></trkpt><trkpt lat="-31.88791500640295" lon="116.00021321133802"><ele>12.0</ele><time>2026-04-05T02:15:17Z</time></trkpt><trkpt lat="-31.88791599964765" lon="116.00032515303678"><ele>12.0</ele><time>2026-04-05T02:15:18Z</time></trkpt><trkpt lat="-31.88791825285737" lon="116.00044332101079"><ele>12.0</ele><time>2026-04-05T02:15:19Z</time></trkpt><trkpt lat="-31.887916859081578" lon="116.00056352435318"><ele>12.0</ele><time>2026-04-05T02:15:20Z</time></trkpt><trkpt lat="-31.887917506294773" lon="116.00069404798371"><ele>12.0</ele><time>2026-04-05T02:15:21Z</time></trkpt><trkpt lat="-31.88791820741443" lon="116.00083232586444"><ele>12.0</ele><time>2026-04-05T02:15:22Z</time></trkpt><trkpt lat="-31.887920393347184" lon="116.00096481763693"><ele>12.0</ele><time>2026-04-05T02:15:23Z</time></trkpt><trkpt lat="-31.887943252514756" lon="116.00108324263873"><ele>12.0</ele><time>2026-04-05T02:15:24Z</time></trkpt><trkpt lat="-31.887980547562623" lon="116.00120316532603"><ele>12.0</ele><time>2026-04-05T02:15:25Z</time></trkpt><trkpt lat="-31.888029050691408" lon="116.00132727616766"><ele>12.0</ele><time>2026-04-05T02:15:26Z</time></trkpt><trkpt lat="-31.888067879740756" lon="116.00145452490132"><ele>12.0</ele><time>2026-04-05T02:15:27Z</time></trkpt><trkpt lat="-31.888088895391494" lon="116.00157233213852"><ele>12.2</ele><time>2026-04-05T02:15:28Z</time></trkpt><trkpt lat="-31.88808976588834" lon="116.00167833422651"><ele>12.399999999999999</ele><time>2026-04-05T02:15:29Z</time></trkpt><trkpt lat="-31.888079520862004" lon="116.00176988150015"><ele>12.600000000000001</ele><time>2026-04-05T02:15:30Z</time></trkpt><trkpt lat="-31.88805321450473" lon="116.00186459744899"><ele>12.8</ele><time>2026-04-05T02:15:32Z</time></trkpt><trkpt lat="-31.887909456421838" lon="116.00191252503559"><ele>13.0</ele><time>2026-04-05T02:15:35Z</time></trkpt><trkpt lat="-31.887818330633575" lon="116.00191122746541"><ele>13.0</ele><time>2026-04-05T02:15:36Z</time></trkpt><trkpt lat="-31.88770384738567" lon="116.00190799289825"><ele>13.0</ele><time>2026-04-05T02:15:37Z</time></trkpt><trkpt lat="-31.8875547790536" lon="116.00191073576161"><ele>13.0</ele><time>2026-04-05T02:15:38Z</time></trkpt><trkpt lat="-31.887404038723652" lon="116.00191411353272"><ele>13.0</ele><time>2026-04-05T02:15:39Z</time></trkpt><trkpt lat="-31.887271067160707" lon="116.00191461548577"><ele>12.8</ele><time>2026-04-05T02:15:40Z</time></trkpt><trkpt lat="-31.887153023894964" lon="116.00191695243636"><ele>12.600000000000001</ele><time>2026-04-05T02:15:41Z</time></trkpt><trkpt lat="-31.88704043960923" lon="116.00191580689751"><ele>12.399999999999999</ele><time>2026-04-05T02:15:42Z</time></trkpt><trkpt lat="-31.88693401276598" lon="116.00191281721362"><ele>12.2</ele><time>2026-04-05T02:15:43Z</time></trkpt><trkpt lat="-31.886835846530982" lon="116.00191229496193"><ele>12.0</ele><time>2026-04-05T02:15:44Z</time></trkpt><trkpt lat="-31.88674124704147" lon="116.00191105077158"><ele>11.5</ele><time>2026-04-05T02:15:45Z</time></trkpt><trkpt lat="-31.886650006747573" lon="116.00190726561114"><ele>11.0</ele><time>2026-04-05T02:15:46Z</time></trkpt><trkpt lat="-31.88656508030386" lon="116.00190508393001"><ele>10.5</ele><time>2026-04-05T02:15:47Z</time></trkpt><trkpt lat="-31.88648072000009" lon="116.00190081549475"><ele>10.0</ele><time>2026-04-05T02:15:48Z</time></trkpt><trkpt lat="-31.88640208294227" lon="116.00189794041563"><ele>9.5</ele><time>2026-04-05T02:15:49Z</time></trkpt><trkpt lat="-31.886329370667816" lon="116.00189298122584"><ele>9.0</ele><time>2026-04-05T02:15:50Z</time></trkpt><trkpt lat="-31.886262242399308" lon="116.00189203478561"><ele>9.0</ele><time>2026-04-05T02:15:51Z</time></trkpt><trkpt lat="-31.886165117032718" lon="116.00188228685013"><ele>9.0</ele><time>2026-04-05T02:15:53Z</time></trkpt><trkpt lat="-31.88605494406664" lon="116.00191995263833"><ele>9.0</ele><time>2026-04-05T02:15:56Z</time></trkpt><trkpt lat="-31.88602112864909" lon="116.00201649024123"><ele>9.0</ele><time>2026-04-05T02:15:57Z</time></trkpt><trkpt lat="-31.886012948823193" lon="116.00210690140788"><ele>9.0</ele><time>2026-04-05T02:15:58Z</time></trkpt><trkpt lat="-31.886015585094942" lon="116.0022295415266"><ele>9.0</ele><time>2026-04-05T02:15:59Z</time></trkpt><trkpt lat="-31.886021602082284" lon="116.00236416651241"><ele>9.0</ele><time>2026-04-05T02:16:00Z</time></trkpt><trkpt lat="-31.88602250885517" lon="116.00249850047193"><ele>9.0</ele><time>2026-04-05T02:16:01Z</time></trkpt><trkpt lat="-31.886022499797996" lon="116.00262518348529"><ele>9.0</ele><time>2026-04-05T02:16:02Z</time></trkpt><trkpt lat="-31.886026169048943" lon="116.00275369588188"><ele>9.0</ele><time>2026-04-05T02:16:03Z</time></trkpt><trkpt lat="-31.886027927756164" lon="116.00288605579942"><ele>9.2</ele><time>2026-04-05T02:16:04Z</time></trkpt><trkpt lat="-31.886031936914378" lon="116.00301129130641"><ele>9.4</ele><time>2026-04-05T02:16:05Z</time></trkpt><trkpt lat="-31.886031727827156" lon="116.00313642144069"><ele>9.6</ele><time>2026-04-05T02:16:06Z</time></trkpt><trkpt lat="-31.886030462750302" lon="116.00325877137219"><ele>9.8</ele><time>2026-04-05T02:16:07Z</time></trkpt><trkpt lat="-31.886027087807015" lon="116.00338874562638"><ele>10.0</ele><time>2026-04-05T02:16:08Z</time></trkpt><trkpt lat="-31.886026431742984" lon="116.00352268558181"><ele>10.0</ele><time>2026-04-05T02:16:09Z</time></trkpt><trkpt lat="-31.886027292012912" lon="116.00366144597162"><ele>10.0</ele><time>2026-04-05T02:16:10Z</time></trkpt><trkpt lat="-31.886026210462635" lon="116.0038100887301"><ele>10.0</ele><time>2026-04-05T02:16:11Z</time></trkpt><trkpt lat="-31.886027134126813" lon="116.0039623123915"><ele>10.0</ele><time>2026-04-05T02:16:12Z</time></trkpt><trkpt lat="-31.886026449484994" lon="116.00411249758545"><ele>11.5</ele><time>2026-04-05T02:16:13Z</time></trkpt><trkpt lat="-31.88602699848123" lon="116.00425697896165"><ele>13.0</ele><time>2026-04-05T02:16:14Z</time></trkpt><trkpt lat="-31.886026856534393" lon="116.00440423414435"><ele>14.5</ele><time>2026-04-05T02:16:15Z</time></trkpt><trkpt lat="-31.886026161181974" lon="116.00454054023513"><ele>16.0</ele><time>2026-04-05T02:16:16Z</time></trkpt><trkpt lat="-31.886025835283284" lon="116.00466472216746"><ele>15.999999999999998</ele><time>2026-04-05T02:16:17Z</time></trkpt><trkpt lat="-31.886021031067834" lon="116.00477847817189"><ele>16.0</ele><time>2026-04-05T02:16:18Z</time></trkpt><trkpt lat="-31.886020281085134" lon="116.00488327823099"><ele>16.0</ele><time>2026-04-05T02:16:19Z</time></trkpt><trkpt lat="-31.886021903206718" lon="116.0049820952184"><ele>16.0</ele><time>2026-04-05T02:16:20Z</time></trkpt><trkpt lat="-31.886021805089104" lon="116.00508042449682"><ele>15.999999999999998</ele><time>2026-04-05T02:16:21Z</time></trkpt><trkpt lat="-31.88602251543052" lon="116.00516870799416"><ele>16.0</ele><time>2026-04-05T02:16:22Z</time></trkpt><trkpt lat="-31.88602201178345" lon="116.00524740246351"><ele>17.4</ele><time>2026-04-05T02:16:23Z</time></trkpt><trkpt lat="-31.886014988853532" lon="116.00535984771822"><ele>18.8</ele><time>2026-04-05T02:16:25Z</time></trkpt><trkpt lat="-31.886014696148" lon="116.00544732668733"><ele>20.2</ele><time>2026-04-05T02:16:50Z</time></trkpt><trkpt lat="-31.886018547819653" lon="116.00553535818528"><ele>21.599999999999998</ele><time>2026-04-05T02:16:51Z</time></trkpt><trkpt lat="-31.886024553968102" lon="116.00565651771885"><ele>23.0</ele><time>2026-04-05T02:16:52Z</time></trkpt><trkpt lat="-31.8860288819205" lon="116.00580467231023"><ele>22.5</ele><time>2026-04-05T02:16:52.999Z</time></trkpt><trkpt lat="-31.88603068606321" lon="116.005961162245"><ele>22.0</ele><time>2026-04-05T02:16:53.999Z</time></trkpt><trkpt lat="-31.88603676144415" lon="116.00614630772816"><ele>21.5</ele><time>2026-04-05T02:16:54.999Z</time></trkpt><trkpt lat="-31.886037017017753" lon="116.00631491673158"><ele>21.0</ele><time>2026-04-05T02:16:55.999Z</time></trkpt><trkpt lat="-31.886037249373008" lon="116.00646820770605"><ele>21.0</ele><time>2026-04-05T02:16:56.999Z</time></trkpt><trkpt lat="-31.88603747996198" lon="116.00662033363977"><ele>21.0</ele><time>2026-04-05T02:16:57.999Z</time></trkpt><trkpt lat="-31.88602466455672" lon="116.00676967142205"><ele>21.0</ele><time>2026-04-05T02:16:58.999Z</time></trkpt><trkpt lat="-31.886023769610055" lon="116.00691816679871"><ele>21.0</ele><time>2026-04-05T02:16:59.999Z</time></trkpt><trkpt lat="-31.886023824776288" lon="116.00707399905292"><ele>20.5</ele><time>2026-04-05T02:17:00.999Z</time></trkpt><trkpt lat="-31.8860276193163" lon="116.00724530835826"><ele>20.0</ele><time>2026-04-05T02:17:01.999Z</time></trkpt><trkpt lat="-31.886028483874806" lon="116.00742205107886"><ele>19.5</ele><time>2026-04-05T02:17:02.999Z</time></trkpt><trkpt lat="-31.886028256669835" lon="116.00759442467286"><ele>19.0</ele><time>2026-04-05T02:17:03.999Z</time></trkpt><trkpt lat="-31.88602322588601" lon="116.00775578571233"><ele>19.0</ele><time>2026-04-05T02:17:04.999Z</time></trkpt><trkpt lat="-31.886039833966517" lon="116.00792323206775"><ele>19.0</ele><time>2026-04-05T02:17:05.999Z</time></trkpt><trkpt lat="-31.886025275113738" lon="116.00809091190507"><ele>19.0</ele><time>2026-04-05T02:17:06.999Z</time></trkpt><trkpt lat="-31.88602633710659" lon="116.00826128210556"><ele>19.0</ele><time>2026-04-05T02:17:07.999Z</time></trkpt><trkpt lat="-31.88602745351036" lon="116.00843168276312"><ele>19.5</ele><time>2026-04-05T02:17:08.999Z</time></trkpt><trkpt lat="-31.886031242744" lon="116.0085941883255"><ele>20.0</ele><time>2026-04-05T02:17:09.999Z</time></trkpt><trkpt lat="-31.886029366891847" lon="116.00875866830543"><ele>20.5</ele><time>2026-04-05T02:17:10.999Z</time></trkpt><trkpt lat="-31.886028530358015" lon="116.00892341320458"><ele>21.0</ele><time>2026-04-05T02:17:11.999Z</time></trkpt><trkpt lat="-31.886028449888876" lon="116.00909236591053"><ele>19.5</ele><time>2026-04-05T02:17:12.999Z</time></trkpt><trkpt lat="-31.886034408362338" lon="116.00925996679146"><ele>18.0</ele><time>2026-04-05T02:17:14Z</time></trkpt><trkpt lat="-31.886033140358133" lon="116.00943027343365"><ele>16.5</ele><time>2026-04-05T02:17:15Z</time></trkpt><trkpt lat="-31.886034593757092" lon="116.00960359646369"><ele>15.0</ele><time>2026-04-05T02:17:16Z</time></trkpt><trkpt lat="-31.886030736315416" lon="116.00978157465988"><ele>15.0</ele><time>2026-04-05T02:17:17Z</time></trkpt><trkpt lat="-31.886030787831775" lon="116.00995419570687"><ele>15.0</ele><time>2026-04-05T02:17:18Z</time></trkpt><trkpt lat="-31.886033732137005" lon="116.0101216233876"><ele>15.0</ele><time>2026-04-05T02:17:19Z</time></trkpt><trkpt lat="-31.8860365871611" lon="116.01029311159698"><ele>15.0</ele><time>2026-04-05T02:17:20Z</time></trkpt><trkpt lat="-31.88603339722323" lon="116.0104585496493"><ele>15.5</ele><time>2026-04-05T02:17:21Z</time></trkpt><trkpt lat="-31.88603162553979" lon="116.01063401005302"><ele>16.0</ele><time>2026-04-05T02:17:22Z</time></trkpt><trkpt lat="-31.886045658028905" lon="116.01080912375936"><ele>16.5</ele><time>2026-04-05T02:17:23Z</time></trkpt><trkpt lat="-31.886031367421474" lon="116.01097859309496"><ele>17.0</ele><time>2026-04-05T02:17:24Z</time></trkpt><trkpt lat="-31.88603218942643" lon="116.01115069141251"><ele>17.0</ele><time>2026-04-05T02:17:25Z</time></trkpt><trkpt lat="-31.8860322609861" lon="116.01132538068833"><ele>17.0</ele><time>2026-04-05T02:17:26Z</time></trkpt><trkpt lat="-31.886034048015517" lon="116.0115040156698"><ele>17.0</ele><time>2026-04-05T02:17:27Z</time></trkpt><trkpt lat="-31.886033313106687" lon="116.01168301570036"><ele>17.666666666666668</ele><time>2026-04-05T02:17:28Z</time></trkpt><trkpt lat="-31.886034975791162" lon="116.01186549764583"><ele>18.333333333333332</ele><time>2026-04-05T02:17:29Z</time></trkpt><trkpt lat="-31.886035266365372" lon="116.01204717573209"><ele>19.0</ele><time>2026-04-05T02:17:30Z</time></trkpt><trkpt lat="-31.88603879874436" lon="116.0122314264159"><ele>19.0</ele><time>2026-04-05T02:17:31Z</time></trkpt><trkpt lat="-31.886043546303437" lon="116.01241343872358"><ele>19.0</ele><time>2026-04-05T02:17:32Z</time></trkpt><trkpt lat="-31.88603477409738" lon="116.01259830985597"><ele>19.0</ele><time>2026-04-05T02:17:33Z</time></trkpt><trkpt lat="-31.88603644164918" lon="116.01277718947004"><ele>19.0</ele><time>2026-04-05T02:17:34Z</time></trkpt><trkpt lat="-31.88603819973797" lon="116.01294826662958"><ele>19.0</ele><time>2026-04-05T02:17:35Z</time></trkpt><trkpt lat="-31.88603860551013" lon="116.01311924180587"><ele>19.0</ele><time>2026-04-05T02:17:36Z</time></trkpt><trkpt lat="-31.886040025341142" lon="116.01328607253438"><ele>19.0</ele><time>2026-04-05T02:17:37Z</time></trkpt><trkpt lat="-31.886042435959222" lon="116.01345272838748"><ele>19.0</ele><time>2026-04-05T02:17:38Z</time></trkpt><trkpt lat="-31.88604362088727" lon="116.01361649092325"><ele>19.0</ele><time>2026-04-05T02:17:39Z</time></trkpt><trkpt lat="-31.886040585348365" lon="116.01378792108423"><ele>19.0</ele><time>2026-04-05T02:17:40Z</time></trkpt><trkpt lat="-31.886041430204784" lon="116.01395889206458"><ele>19.0</ele><time>2026-04-05T02:17:41Z</time></trkpt><trkpt lat="-31.886045505971726" lon="116.01411428777394"><ele>19.0</ele><time>2026-04-05T02:17:42Z</time></trkpt><trkpt lat="-31.886052260365016" lon="116.01426049847903"><ele>19.0</ele><time>2026-04-05T02:17:43Z</time></trkpt><trkpt lat="-31.886062836840484" lon="116.0143989101045"><ele>19.0</ele><time>2026-04-05T02:17:44Z</time></trkpt><trkpt lat="-31.886064009747578" lon="116.01455995580123"><ele>19.0</ele><time>2026-04-05T02:17:45Z</time></trkpt><trkpt lat="-31.886061581337707" lon="116.0147412136716"><ele>19.0</ele><time>2026-04-05T02:17:46Z</time></trkpt><trkpt lat="-31.886062383016633" lon="116.01492238645515"><ele>19.0</ele><time>2026-04-05T02:17:47Z</time></trkpt><trkpt lat="-31.88606837367912" lon="116.01509733871275"><ele>19.0</ele><time>2026-04-05T02:17:48Z</time></trkpt><trkpt lat="-31.886073956012993" lon="116.0152779229041"><ele>18.666666666666664</ele><time>2026-04-05T02:17:49Z</time></trkpt><trkpt lat="-31.88607373456135" lon="116.01547475363314"><ele>18.333333333333332</ele><time>2026-04-05T02:17:50Z</time></trkpt><trkpt lat="-31.886069874607195" lon="116.01568091484793"><ele>18.0</ele><time>2026-04-05T02:17:51Z</time></trkpt><trkpt lat="-31.886068510280428" lon="116.01588489525075"><ele>18.0</ele><time>2026-04-05T02:17:52Z</time></trkpt><trkpt lat="-31.88606819454626" lon="116.016081817698"><ele>18.0</ele><time>2026-04-05T02:17:53Z</time></trkpt><trkpt lat="-31.88606937932957" lon="116.01627389146903"><ele>18.0</ele><time>2026-04-05T02:17:54Z</time></trkpt><trkpt lat="-31.88607035445987" lon="116.01646478432318"><ele>17.333333333333332</ele><time>2026-04-05T02:17:55Z</time></trkpt><trkpt lat="-31.886068520736476" lon="116.01665280112061"><ele>16.666666666666664</ele><time>2026-04-05T02:17:56Z</time></trkpt><trkpt lat="-31.88606591336272" lon="116.01684155877622"><ele>16.0</ele><time>2026-04-05T02:17:57Z</time></trkpt><trkpt lat="-31.886062663255537" lon="116.01703805704406"><ele>16.0</ele><time>2026-04-05T02:17:58Z</time></trkpt><trkpt lat="-31.886066554526796" lon="116.01724645830996"><ele>16.0</ele><time>2026-04-05T02:17:59Z</time></trkpt><trkpt lat="-31.886067052434257" lon="116.01744795524088"><ele>16.0</ele><time>2026-04-05T02:18:00Z</time></trkpt><trkpt lat="-31.886063193196993" lon="116.01764880248473"><ele>16.333333333333332</ele><time>2026-04-05T02:18:01Z</time></trkpt><trkpt lat="-31.886064544535905" lon="116.01784239343932"><ele>16.666666666666668</ele><time>2026-04-05T02:18:02Z</time></trkpt><trkpt lat="-31.88606592290691" lon="116.01801929739239"><ele>17.0</ele><time>2026-04-05T02:18:03Z</time></trkpt><trkpt lat="-31.886068176160993" lon="116.0181828571162"><ele>17.0</ele><time>2026-04-05T02:18:04Z</time></trkpt><trkpt lat="-31.886066452359046" lon="116.01833792731018"><ele>17.0</ele><time>2026-04-05T02:18:05Z</time></trkpt><trkpt lat="-31.886064175301104" lon="116.01848492497975"><ele>17.0</ele><time>2026-04-05T02:18:06Z</time></trkpt><trkpt lat="-31.886062713912104" lon="116.01863115760543"><ele>17.0</ele><time>2026-04-05T02:18:07Z</time></trkpt><trkpt lat="-31.88606562830631" lon="116.01878425730264"><ele>17.0</ele><time>2026-04-05T02:18:08Z</time></trkpt><trkpt lat="-31.886066083359513" lon="116.01893865417502"><ele>17.0</ele><time>2026-04-05T02:18:09Z</time></trkpt><trkpt lat="-31.886066244983443" lon="116.01910008059659"><ele>17.0</ele><time>2026-04-05T02:18:10Z</time></trkpt><trkpt lat="-31.8860665947868" lon="116.01926976126238"><ele>17.0</ele><time>2026-04-05T02:18:11Z</time></trkpt><trkpt lat="-31.886067507190468" lon="116.01944352265167"><ele>16.666666666666668</ele><time>2026-04-05T02:18:12Z</time></trkpt><trkpt lat="-31.886065750633108" lon="116.0196257611447"><ele>16.333333333333332</ele><time>2026-04-05T02:18:13Z</time></trkpt><trkpt lat="-31.88606505776505" lon="116.01981030286798"><ele>16.0</ele><time>2026-04-05T02:18:14Z</time></trkpt><trkpt lat="-31.886066617953688" lon="116.01999051414865"><ele>16.0</ele><time>2026-04-05T02:18:15Z</time></trkpt><trkpt lat="-31.886065896258003" lon="116.0201679111002"><ele>16.0</ele><time>2026-04-05T02:18:16Z</time></trkpt><trkpt lat="-31.88606374144563" lon="116.02034249010005"><ele>16.0</ele><time>2026-04-05T02:18:17Z</time></trkpt><trkpt lat="-31.886063770180748" lon="116.02051612655482"><ele>16.0</ele><time>2026-04-05T02:18:18Z</time></trkpt><trkpt lat="-31.8860639808368" lon="116.02069025405923"><ele>16.5</ele><time>2026-04-05T02:18:19Z</time></trkpt><trkpt lat="-31.886063340375145" lon="116.02086173807062"><ele>17.0</ele><time>2026-04-05T02:18:20Z</time></trkpt><trkpt lat="-31.886064947439554" lon="116.0210362516603"><ele>17.5</ele><time>2026-04-05T02:18:21Z</time></trkpt><trkpt lat="-31.88606200078656" lon="116.02121070413362"><ele>18.0</ele><time>2026-04-05T02:18:22Z</time></trkpt><trkpt lat="-31.886053857455106" lon="116.02138226381426"><ele>18.0</ele><time>2026-04-05T02:18:23Z</time></trkpt><trkpt lat="-31.886043359561263" lon="116.02156048931177"><ele>18.0</ele><time>2026-04-05T02:18:24Z</time></trkpt><trkpt lat="-31.886024672933953" lon="116.02173736537094"><ele>18.0</ele><time>2026-04-05T02:18:25Z</time></trkpt><trkpt lat="-31.885998135684844" lon="116.02190985278277"><ele>18.5</ele><time>2026-04-05T02:18:26Z</time></trkpt><trkpt lat="-31.885972973734567" lon="116.02208177394006"><ele>19.0</ele><time>2026-04-05T02:18:27Z</time></trkpt><trkpt lat="-31.88594925178999" lon="116.0222499651863"><ele>19.5</ele><time>2026-04-05T02:18:28Z</time></trkpt><trkpt lat="-31.885925127843414" lon="116.022421659372"><ele>20.0</ele><time>2026-04-05T02:18:29Z</time></trkpt><trkpt lat="-31.88590294652313" lon="116.02258477317274"><ele>19.0</ele><time>2026-04-05T02:18:30Z</time></trkpt><trkpt lat="-31.885883124243325" lon="116.02273494318523"><ele>18.0</ele><time>2026-04-05T02:18:31Z</time></trkpt><trkpt lat="-31.885866839967054" lon="116.02289013877815"><ele>17.0</ele><time>2026-04-05T02:18:32Z</time></trkpt><trkpt lat="-31.885839691970094" lon="116.02304773803348"><ele>16.0</ele><time>2026-04-05T02:18:33Z</time></trkpt><trkpt lat="-31.885810220155715" lon="116.0232099043651"><ele>15.5</ele><time>2026-04-05T02:18:34Z</time></trkpt><trkpt lat="-31.885791911210838" lon="116.02338068996744"><ele>15.0</ele><time>2026-04-05T02:18:35Z</time></trkpt><trkpt lat="-31.885784596348497" lon="116.02354827313262"><ele>14.5</ele><time>2026-04-05T02:18:36Z</time></trkpt><trkpt lat="-31.88577639883262" lon="116.02371462896903"><ele>14.0</ele><time>2026-04-05T02:18:37Z</time></trkpt><trkpt lat="-31.88577364710503" lon="116.02387643095831"><ele>14.0</ele><time>2026-04-05T02:18:38Z</time></trkpt><trkpt lat="-31.885774308659062" lon="116.02403484102294"><ele>14.0</ele><time>2026-04-05T02:18:39Z</time></trkpt><trkpt lat="-31.885776196990488" lon="116.02419393528506"><ele>14.0</ele><time>2026-04-05T02:18:40Z</time></trkpt><trkpt lat="-31.88577632727237" lon="116.02435526719132"><ele>14.0</ele><time>2026-04-05T02:18:40.999Z</time></trkpt><trkpt lat="-31.885771619518124" lon="116.02452079908237"><ele>15.0</ele><time>2026-04-05T02:18:41.999Z</time></trkpt><trkpt lat="-31.885772430034404" lon="116.02469285330201"><ele>16.0</ele><time>2026-04-05T02:18:42.999Z</time></trkpt><trkpt lat="-31.885772893864086" lon="116.02486980751816"><ele>17.0</ele><time>2026-04-05T02:18:43.999Z</time></trkpt><trkpt lat="-31.885773604572815" lon="116.0250473810871"><ele>18.0</ele><time>2026-04-05T02:18:44.999Z</time></trkpt><trkpt lat="-31.88577562488221" lon="116.02522868417545"><ele>18.0</ele><time>2026-04-05T02:18:45.999Z</time></trkpt><trkpt lat="-31.88577721804857" lon="116.0254032915545"><ele>18.0</ele><time>2026-04-05T02:18:46.999Z</time></trkpt><trkpt lat="-31.885779131349736" lon="116.02557737879226"><ele>18.0</ele><time>2026-04-05T02:18:47.999Z</time></trkpt><trkpt lat="-31.88578046402125" lon="116.02574198528237"><ele>18.0</ele><time>2026-04-05T02:18:48.999Z</time></trkpt><trkpt lat="-31.885779502778867" lon="116.02590401693334"><ele>18.0</ele><time>2026-04-05T02:18:49.999Z</time></trkpt><trkpt lat="-31.885780446291566" lon="116.02606522043284"><ele>18.0</ele><time>2026-04-05T02:18:50.999Z</time></trkpt><trkpt lat="-31.88578601950239" lon="116.02622863045241"><ele>18.0</ele><time>2026-04-05T02:18:51.999Z</time></trkpt><trkpt lat="-31.8857961011734" lon="116.02639765249366"><ele>18.0</ele><time>2026-04-05T02:18:52.999Z</time></trkpt><trkpt lat="-31.885813067841553" lon="116.02657444113115"><ele>18.333333333333332</ele><time>2026-04-05T02:18:53.999Z</time></trkpt><trkpt lat="-31.88583629432227" lon="116.02675029948416"><ele>18.666666666666664</ele><time>2026-04-05T02:18:54.999Z</time></trkpt><trkpt lat="-31.88585750259581" lon="116.02694706473429"><ele>19.0</ele><time>2026-04-05T02:18:55.999Z</time></trkpt><trkpt lat="-31.885884714351644" lon="116.02713836115727"><ele>19.0</ele><time>2026-04-05T02:18:56.999Z</time></trkpt><trkpt lat="-31.885903572831424" lon="116.02730820615547"><ele>19.0</ele><time>2026-04-05T02:18:57.999Z</time></trkpt><trkpt lat="-31.8859208098246" lon="116.02746226386498"><ele>19.0</ele><time>2026-04-05T02:18:58.999Z</time></trkpt><trkpt lat="-31.885928855938136" lon="116.02760257334673"><ele>19.0</ele><time>2026-04-05T02:18:59.999Z</time></trkpt><trkpt lat="-31.8859380538769" lon="116.02772366922345"><ele>19.2</ele><time>2026-04-05T02:19:00.999Z</time></trkpt><trkpt lat="-31.8859486859704" lon="116.02782609383846"><ele>19.4</ele><time>2026-04-05T02:19:01.999Z</time></trkpt><trkpt lat="-31.885956575607437" lon="116.02791193437022"><ele>19.6</ele><time>2026-04-05T02:19:02.999Z</time></trkpt><trkpt lat="-31.885960768095885" lon="116.02802044092039"><ele>19.8</ele><time>2026-04-05T02:19:04.999Z</time></trkpt><trkpt lat="-31.885960058762198" lon="116.02815734788057"><ele>20.0</ele><time>2026-04-05T02:19:17.999Z</time></trkpt><trkpt lat="-31.885964037093075" lon="116.02826078838586"><ele>21.75</ele><time>2026-04-05T02:19:18.999Z</time></trkpt><trkpt lat="-31.885974202714717" lon="116.02839417410561"><ele>23.5</ele><time>2026-04-05T02:19:20Z</time></trkpt><trkpt lat="-31.88598878482657" lon="116.02854456388543"><ele>25.25</ele><time>2026-04-05T02:19:21Z</time></trkpt><trkpt lat="-31.88596823052464" lon="116.02871499770846"><ele>27.0</ele><time>2026-04-05T02:19:22Z</time></trkpt><trkpt lat="-31.885962459886375" lon="116.02890273370441"><ele>27.0</ele><time>2026-04-05T02:19:23Z</time></trkpt><trkpt lat="-31.885958771800777" lon="116.0291340577298"><ele>27.0</ele><time>2026-04-05T02:19:24Z</time></trkpt><trkpt lat="-31.885953723700762" lon="116.02935625499572"><ele>27.0</ele><time>2026-04-05T02:19:25Z</time></trkpt><trkpt lat="-31.885953249326707" lon="116.02954542642902"><ele>27.5</ele><time>2026-04-05T02:19:26Z</time></trkpt><trkpt lat="-31.885941347530892" lon="116.02969336678906"><ele>28.0</ele><time>2026-04-05T02:19:27Z</time></trkpt><trkpt lat="-31.885939220867442" lon="116.02980828877433"><ele>28.5</ele><time>2026-04-05T02:19:28Z</time></trkpt><trkpt lat="-31.885931204097446" lon="116.02989853907923"><ele>29.0</ele><time>2026-04-05T02:19:29Z</time></trkpt><trkpt lat="-31.885915488991827" lon="116.029985854042"><ele>29.5</ele><time>2026-04-05T02:19:30Z</time></trkpt><trkpt lat="-31.88591163239641" lon="116.03006190345921"><ele>30.0</ele><time>2026-04-05T02:19:31Z</time></trkpt><trkpt lat="-31.88609129026842" lon="116.03012805316574"><ele>28.5</ele><time>2026-04-05T02:19:33Z</time></trkpt><trkpt lat="-31.886167649613256" lon="116.03012809654761"><ele>27.0</ele><time>2026-04-05T02:19:34Z</time></trkpt><trkpt lat="-31.88623847630832" lon="116.03015932403191"><ele>25.5</ele><time>2026-04-05T02:19:35Z</time></trkpt><trkpt lat="-31.88631468682972" lon="116.03013940279715"><ele>24.0</ele><time>2026-04-05T02:19:36Z</time></trkpt><trkpt lat="-31.886410081398857" lon="116.03013296958002"><ele>22.5</ele><time>2026-04-05T02:19:37Z</time></trkpt><trkpt lat="-31.88653336924712" lon="116.03013038950168"><ele>21.0</ele><time>2026-04-05T02:19:38Z</time></trkpt><trkpt lat="-31.886688448521813" lon="116.03012552011633"><ele>19.666666666666668</ele><time>2026-04-05T02:19:39Z</time></trkpt><trkpt lat="-31.88686820596064" lon="116.03012052136647"><ele>18.333333333333336</ele><time>2026-04-05T02:19:40Z</time></trkpt><trkpt lat="-31.887052845335774" lon="116.0301180445861"><ele>17.0</ele><time>2026-04-05T02:19:41Z</time></trkpt><trkpt lat="-31.887240282296055" lon="116.03012146642463"><ele>17.0</ele><time>2026-04-05T02:19:42Z</time></trkpt><trkpt lat="-31.88741541964181" lon="116.03012052436755"><ele>17.0</ele><time>2026-04-05T02:19:43Z</time></trkpt><trkpt lat="-31.887569457170674" lon="116.03012071709989"><ele>17.0</ele><time>2026-04-05T02:19:44Z</time></trkpt><trkpt lat="-31.887712889164963" lon="116.03011720282554"><ele>18.25</ele><time>2026-04-05T02:19:45Z</time></trkpt><trkpt lat="-31.88784604355339" lon="116.03010980485438"><ele>19.5</ele><time>2026-04-05T02:19:46Z</time></trkpt><trkpt lat="-31.88799579632845" lon="116.03010954475411"><ele>20.75</ele><time>2026-04-05T02:19:47Z</time></trkpt><trkpt lat="-31.888145778875185" lon="116.03011029069408"><ele>22.0</ele><time>2026-04-05T02:19:48Z</time></trkpt><trkpt lat="-31.88829198335373" lon="116.03011020056678"><ele>22.75</ele><time>2026-04-05T02:19:49Z</time></trkpt><trkpt lat="-31.888432272759704" lon="116.03011400246432"><ele>23.5</ele><time>2026-04-05T02:19:50Z</time></trkpt><trkpt lat="-31.888560664424418" lon="116.03012101250208"><ele>24.25</ele><time>2026-04-05T02:19:51Z</time></trkpt><trkpt lat="-31.888677360125243" lon="116.03012583427723"><ele>25.0</ele><time>2026-04-05T02:19:52Z</time></trkpt><trkpt lat="-31.888784948743982" lon="116.03012839949764"><ele>25.0</ele><time>2026-04-05T02:19:53Z</time></trkpt><trkpt lat="-31.88887884726092" lon="116.0301243734885"><ele>25.0</ele><time>2026-04-05T02:19:54Z</time></trkpt><trkpt lat="-31.88899030029488" lon="116.03011579408057"><ele>25.0</ele><time>2026-04-05T02:19:56Z</time></trkpt><trkpt lat="-31.889080445075837" lon="116.03011415405207"><ele>25.0</ele><time>2026-04-05T02:19:58Z</time></trkpt><trkpt lat="-31.889104326619197" lon="116.02995477549544"><ele>25.0</ele><time>2026-04-05T02:19:59Z</time></trkpt><trkpt lat="-31.889109113559194" lon="116.02984691862633"><ele>23.8</ele><time>2026-04-05T02:20:00Z</time></trkpt><trkpt lat="-31.889100810676034" lon="116.0297183967176"><ele>22.6</ele><time>2026-04-05T02:20:01Z</time></trkpt><trkpt lat="-31.889095247102087" lon="116.02958153323013"><ele>21.4</ele><time>2026-04-05T02:20:02Z</time></trkpt><trkpt lat="-31.889092382385492" lon="116.02946078285869"><ele>20.2</ele><time>2026-04-05T02:20:03Z</time></trkpt><trkpt lat="-31.889092035328748" lon="116.0293539828352"><ele>19.0</ele><time>2026-04-05T02:20:04Z</time></trkpt><trkpt lat="-31.889097416217066" lon="116.02925720822"><ele>19.0</ele><time>2026-04-05T02:20:05Z</time></trkpt><trkpt lat="-31.889108849380108" lon="116.02918192807196"><ele>19.0</ele><time>2026-04-05T02:20:06Z</time></trkpt><trkpt lat="-31.889116549590828" lon="116.0290774512868"><ele>19.0</ele><time>2026-04-05T02:20:08Z</time></trkpt><trkpt lat="-31.889293255105997" lon="116.02908113974516"><ele>19.0</ele><time>2026-04-05T02:20:09Z</time></trkpt><trkpt lat="-31.88940861491933" lon="116.02907893012221"><ele>19.0</ele><time>2026-04-05T02:20:10Z</time></trkpt><trkpt lat="-31.88955129325785" lon="116.02906932398366"><ele>19.0</ele><time>2026-04-05T02:20:11Z</time></trkpt><trkpt lat="-31.889724086940213" lon="116.02907756014397"><ele>19.0</ele><time>2026-04-05T02:20:12Z</time></trkpt><trkpt lat="-31.88993705669767" lon="116.02907902513786"><ele>19.0</ele><time>2026-04-05T02:20:13Z</time></trkpt><trkpt lat="-31.890197073445652" lon="116.0290767420662"><ele>21.5</ele><time>2026-04-05T02:20:14Z</time></trkpt><trkpt lat="-31.890471183182658" lon="116.02907456245451"><ele>24.0</ele><time>2026-04-05T02:20:15Z</time></trkpt><trkpt lat="-31.890766189296738" lon="116.02907425308173"><ele>24.5</ele><time>2026-04-05T02:20:16Z</time></trkpt><trkpt lat="-31.89106715214793" lon="116.02907328702324"><ele>25.0</ele><time>2026-04-05T02:20:17Z</time></trkpt><trkpt lat="-31.89135017167396" lon="116.02907266289343"><ele>25.0</ele><time>2026-04-05T02:20:18Z</time></trkpt><trkpt lat="-31.89159412719948" lon="116.02907630691452"><ele>25.0</ele><time>2026-04-05T02:20:19Z</time></trkpt><trkpt lat="-31.89181307209402" lon="116.0290820462574"><ele>24.0</ele><time>2026-04-05T02:20:20Z</time></trkpt><trkpt lat="-31.89200906153796" lon="116.02908282413422"><ele>23.0</ele><time>2026-04-05T02:20:21Z</time></trkpt><trkpt lat="-31.89219810618702" lon="116.02908226811564"><ele>22.0</ele><time>2026-04-05T02:20:22Z</time></trkpt><trkpt lat="-31.892377786556672" lon="116.02908223503583"><ele>22.0</ele><time>2026-04-05T02:20:23Z</time></trkpt><trkpt lat="-31.89254356028504" lon="116.02908630793846"><ele>22.0</ele><time>2026-04-05T02:20:24Z</time></trkpt><trkpt lat="-31.89270933056868" lon="116.02908643673008"><ele>22.0</ele><time>2026-04-05T02:20:25Z</time></trkpt><trkpt lat="-31.89287575468467" lon="116.02908565131891"><ele>21.25</ele><time>2026-04-05T02:20:26Z</time></trkpt><trkpt lat="-31.89301968689355" lon="116.02908657486252"><ele>20.5</ele><time>2026-04-05T02:20:27Z</time></trkpt><trkpt lat="-31.89313143211481" lon="116.02908574709421"><ele>19.75</ele><time>2026-04-05T02:20:28Z</time></trkpt><trkpt lat="-31.893230050332576" lon="116.02908435822751"><ele>19.0</ele><time>2026-04-05T02:20:29Z</time></trkpt><trkpt lat="-31.8933269890251" lon="116.0290849253072"><ele>19.0</ele><time>2026-04-05T02:20:30Z</time></trkpt><trkpt lat="-31.89340654826246" lon="116.02910077717792"><ele>19.0</ele><time>2026-04-05T02:20:31Z</time></trkpt><trkpt lat="-31.893503822890082" lon="116.02909559558898"><ele>19.0</ele><time>2026-04-05T02:20:33Z</time></trkpt><trkpt lat="-31.89351077746748" lon="116.0293551441813"><ele>19.0</ele><time>2026-04-05T02:20:34Z</time></trkpt><trkpt lat="-31.893550636394817" lon="116.02949269003412"><ele>19.75</ele><time>2026-04-05T02:20:35Z</time></trkpt><trkpt lat="-31.893575530207137" lon="116.02965238295195"><ele>20.5</ele><time>2026-04-05T02:20:36Z</time></trkpt><trkpt lat="-31.893612145832975" lon="116.02982483904526"><ele>21.25</ele><time>2026-04-05T02:20:37Z</time></trkpt><trkpt lat="-31.89365610862146" lon="116.03000488699212"><ele>22.0</ele><time>2026-04-05T02:20:38Z</time></trkpt><trkpt lat="-31.893693179128583" lon="116.03019504394908"><ele>22.0</ele><time>2026-04-05T02:20:39Z</time></trkpt><trkpt lat="-31.89371898810625" lon="116.03036874192081"><ele>22.0</ele><time>2026-04-05T02:20:40Z</time></trkpt><trkpt lat="-31.89374121525229" lon="116.03052881533961"><ele>22.0</ele><time>2026-04-05T02:20:41Z</time></trkpt><trkpt lat="-31.89376334135783" lon="116.03067124739412"><ele>22.0</ele><time>2026-04-05T02:20:42Z</time></trkpt><trkpt lat="-31.893777333897518" lon="116.03079957046954"><ele>22.0</ele><time>2026-04-05T02:20:43Z</time></trkpt><trkpt lat="-31.89377458443504" lon="116.03091708751154"><ele>22.0</ele><time>2026-04-05T02:20:44Z</time></trkpt><trkpt lat="-31.89375190979513" lon="116.03103027425242"><ele>22.0</ele><time>2026-04-05T02:20:44.999Z</time></trkpt><trkpt lat="-31.893709482442986" lon="116.0311417698844"><ele>22.0</ele><time>2026-04-05T02:20:45.999Z</time></trkpt><trkpt lat="-31.893651387508093" lon="116.03126319441839"><ele>22.0</ele><time>2026-04-05T02:20:46.999Z</time></trkpt><trkpt lat="-31.893578056061152" lon="116.03139526795486"><ele>22.0</ele><time>2026-04-05T02:20:47.999Z</time></trkpt><trkpt lat="-31.893491264391947" lon="116.03152541439155"><ele>22.0</ele><time>2026-04-05T02:20:48.999Z</time></trkpt><trkpt lat="-31.893404954638722" lon="116.03166121878701"><ele>22.0</ele><time>2026-04-05T02:20:49.999Z</time></trkpt><trkpt lat="-31.89333298537196" lon="116.03178876847346"><ele>22.0</ele><time>2026-04-05T02:20:50.999Z</time></trkpt><trkpt lat="-31.893273466749278" lon="116.03190883849481"><ele>21.75</ele><time>2026-04-05T02:20:51.999Z</time></trkpt><trkpt lat="-31.89322596953305" lon="116.03202792156132"><ele>21.5</ele><time>2026-04-05T02:20:52.999Z</time></trkpt><trkpt lat="-31.893191704042536" lon="116.0321528681459"><ele>21.25</ele><time>2026-04-05T02:20:53.999Z</time></trkpt><trkpt lat="-31.893178467823567" lon="116.03228489487411"><ele>21.0</ele><time>2026-04-05T02:20:54.999Z</time></trkpt><trkpt lat="-31.893190660206585" lon="116.03242363035461"><ele>21.0</ele><time>2026-04-05T02:20:55.999Z</time></trkpt><trkpt lat="-31.893215323276632" lon="116.03255642445153"><ele>21.0</ele><time>2026-04-05T02:20:56.999Z</time></trkpt><trkpt lat="-31.89324092935726" lon="116.03266221393174"><ele>21.0</ele><time>2026-04-05T02:20:57.999Z</time></trkpt><trkpt lat="-31.893258861520422" lon="116.03273798782746"><ele>21.0</ele><time>2026-04-05T02:20:58.999Z</time></trkpt><trkpt lat="-31.89326985470022" lon="116.03281505975173"><ele>21.0</ele><time>2026-04-05T02:21:01.999Z</time></trkpt><trkpt lat="-31.89337387295909" lon="116.03288238045242"><ele>21.6</ele><time>2026-04-05T02:21:06.999Z</time></trkpt><trkpt lat="-31.89346331494342" lon="116.03285336285717"><ele>22.200000000000003</ele><time>2026-04-05T02:21:07.999Z</time></trkpt><trkpt lat="-31.893559156554907" lon="116.03283638916791"><ele>22.799999999999997</ele><time>2026-04-05T02:21:08.999Z</time></trkpt><trkpt lat="-31.893656397299985" lon="116.03281469821559"><ele>23.4</ele><time>2026-04-05T02:21:09.999Z</time></trkpt><trkpt lat="-31.893756672789262" lon="116.03278220359635"><ele>24.0</ele><time>2026-04-05T02:21:10.999Z</time></trkpt><trkpt lat="-31.893857436823225" lon="116.03275423484644"><ele>24.0</ele><time>2026-04-05T02:21:11.999Z</time></trkpt><trkpt lat="-31.893956809588783" lon="116.03273196295478"><ele>24.0</ele><time>2026-04-05T02:21:12.999Z</time></trkpt><trkpt lat="-31.894051427371554" lon="116.03270738462778"><ele>24.0</ele><time>2026-04-05T02:21:13.999Z</time></trkpt><trkpt lat="-31.89414415669635" lon="116.03267685890404"><ele>24.0</ele><time>2026-04-05T02:21:14.999Z</time></trkpt><trkpt lat="-31.894239506071425" lon="116.03264551504898"><ele>24.0</ele><time>2026-04-05T02:21:15.999Z</time></trkpt><trkpt lat="-31.894338352140476" lon="116.03261503493299"><ele>24.6</ele><time>2026-04-05T02:21:16.999Z</time></trkpt><trkpt lat="-31.894441211256016" lon="116.03258981547576"><ele>25.2</ele><time>2026-04-05T02:21:17.999Z</time></trkpt><trkpt lat="-31.89455120368664" lon="116.03256753812902"><ele>25.800000000000004</ele><time>2026-04-05T02:21:18.999Z</time></trkpt><trkpt lat="-31.894654113939858" lon="116.0325272450984"><ele>26.400000000000002</ele><time>2026-04-05T02:21:19.999Z</time></trkpt><trkpt lat="-31.89475119481629" lon="116.03249786676999"><ele>27.0</ele><time>2026-04-05T02:21:20.999Z</time></trkpt><trkpt lat="-31.894851841337317" lon="116.03255058764037"><ele>27.0</ele><time>2026-04-05T02:21:21.999Z</time></trkpt><trkpt lat="-31.894925875408475" lon="116.03256230665026"><ele>27.000000000000004</ele><time>2026-04-05T02:21:22.999Z</time></trkpt><trkpt lat="-31.8950211705476" lon="116.03259918403471"><ele>27.000000000000004</ele><time>2026-04-05T02:21:24.999Z</time></trkpt><trkpt lat="-31.895130235485457" lon="116.03265028143922"><ele>27.0</ele><time>2026-04-05T02:21:27Z</time></trkpt><trkpt lat="-31.89512781040738" lon="116.03279457657952"><ele>27.0</ele><time>2026-04-05T02:21:28Z</time></trkpt><trkpt lat="-31.895142925310143" lon="116.03291157672086"><ele>26.5</ele><time>2026-04-05T02:21:29Z</time></trkpt><trkpt lat="-31.895165878009433" lon="116.03305635163147"><ele>26.0</ele><time>2026-04-05T02:21:30Z</time></trkpt><trkpt lat="-31.895197194794832" lon="116.03320047271471"><ele>25.5</ele><time>2026-04-05T02:21:31Z</time></trkpt><trkpt lat="-31.89524522271774" lon="116.0333518408733"><ele>25.0</ele><time>2026-04-05T02:21:32Z</time></trkpt><trkpt lat="-31.89530871200604" lon="116.03350767695594"><ele>25.0</ele><time>2026-04-05T02:21:33Z</time></trkpt><trkpt lat="-31.895380095019792" lon="116.03365672012339"><ele>25.0</ele><time>2026-04-05T02:21:34Z</time></trkpt><trkpt lat="-31.895449057991257" lon="116.03379938636913"><ele>25.0</ele><time>2026-04-05T02:21:35Z</time></trkpt><trkpt lat="-31.895515100195745" lon="116.03394316644221"><ele>25.0</ele><time>2026-04-05T02:21:36Z</time></trkpt><trkpt lat="-31.895593332584056" lon="116.03409473850814"><ele>27.0</ele><time>2026-04-05T02:21:37Z</time></trkpt><trkpt lat="-31.89567751879336" lon="116.03424845185955"><ele>29.0</ele><time>2026-04-05T02:21:38Z</time></trkpt><trkpt lat="-31.89576236154797" lon="116.03439872190387"><ele>31.0</ele><time>2026-04-05T02:21:39Z</time></trkpt><trkpt lat="-31.895850508575194" lon="116.0345359137668"><ele>30.0</ele><time>2026-04-05T02:21:40Z</time></trkpt><trkpt lat="-31.895938409183266" lon="116.03466490415327"><ele>29.0</ele><time>2026-04-05T02:21:41Z</time></trkpt><trkpt lat="-31.896033571066756" lon="116.03479603840435"><ele>28.0</ele><time>2026-04-05T02:21:42Z</time></trkpt><trkpt lat="-31.896131483312416" lon="116.03491521872309"><ele>27.0</ele><time>2026-04-05T02:21:43Z</time></trkpt><trkpt lat="-31.896226283113215" lon="116.03503664888002"><ele>26.75</ele><time>2026-04-05T02:21:44Z</time></trkpt><trkpt lat="-31.89632257132266" lon="116.03515805130384"><ele>26.5</ele><time>2026-04-05T02:21:45Z</time></trkpt><trkpt lat="-31.89641853229431" lon="116.035280510445"><ele>26.25</ele><time>2026-04-05T02:21:46Z</time></trkpt><trkpt lat="-31.896511548289563" lon="116.03540338756012"><ele>26.0</ele><time>2026-04-05T02:21:47Z</time></trkpt><trkpt lat="-31.896602348210727" lon="116.03552892138451"><ele>26.0</ele><time>2026-04-05T02:21:48Z</time></trkpt><trkpt lat="-31.89669453778725" lon="116.03565694733885"><ele>26.0</ele><time>2026-04-05T02:21:49Z</time></trkpt><trkpt lat="-31.896791750510566" lon="116.03579326626338"><ele>26.0</ele><time>2026-04-05T02:21:50Z</time></trkpt><trkpt lat="-31.89688556212664" lon="116.03592994306521"><ele>26.0</ele><time>2026-04-05T02:21:51Z</time></trkpt><trkpt lat="-31.896974489722542" lon="116.03606698926899"><ele>27.5</ele><time>2026-04-05T02:21:52Z</time></trkpt><trkpt lat="-31.897059383411765" lon="116.03620048503974"><ele>29.0</ele><time>2026-04-05T02:21:53Z</time></trkpt><trkpt lat="-31.897144073309537" lon="116.0363361740252"><ele>30.5</ele><time>2026-04-05T02:21:54Z</time></trkpt><trkpt lat="-31.897236396721457" lon="116.03647161886592"><ele>32.0</ele><time>2026-04-05T02:21:55Z</time></trkpt><trkpt lat="-31.89732569032818" lon="116.03661079995506"><ele>32.25</ele><time>2026-04-05T02:21:56Z</time></trkpt><trkpt lat="-31.89740672901722" lon="116.03675322741798"><ele>32.5</ele><time>2026-04-05T02:21:57Z</time></trkpt><trkpt lat="-31.897484886923532" lon="116.03689551031582"><ele>32.75</ele><time>2026-04-05T02:21:58Z</time></trkpt><trkpt lat="-31.8975656838541" lon="116.03703786811161"><ele>33.0</ele><time>2026-04-05T02:21:59Z</time></trkpt><trkpt lat="-31.897646877191466" lon="116.03717948835231"><ele>33.5</ele><time>2026-04-05T02:22:00Z</time></trkpt><trkpt lat="-31.897732283654303" lon="116.03732276251931"><ele>34.0</ele><time>2026-04-05T02:22:01Z</time></trkpt><trkpt lat="-31.89781619733135" lon="116.03746160781027"><ele>34.5</ele><time>2026-04-05T02:22:02Z</time></trkpt><trkpt lat="-31.89790418654154" lon="116.03760207066524"><ele>35.0</ele><time>2026-04-05T02:22:03Z</time></trkpt><trkpt lat="-31.8979958894565" lon="116.03774879429815"><ele>36.0</ele><time>2026-04-05T02:22:04Z</time></trkpt><trkpt lat="-31.898095710373948" lon="116.03790746344558"><ele>37.0</ele><time>2026-04-05T02:22:05Z</time></trkpt><trkpt lat="-31.898200213514563" lon="116.03807279388683"><ele>38.0</ele><time>2026-04-05T02:22:06Z</time></trkpt><trkpt lat="-31.89829844415854" lon="116.0382315207978"><ele>39.0</ele><time>2026-04-05T02:22:07Z</time></trkpt><trkpt lat="-31.898394438781345" lon="116.03838641362688"><ele>40.0</ele><time>2026-04-05T02:22:08Z</time></trkpt><trkpt lat="-31.89848813500174" lon="116.0385433451842"><ele>41.0</ele><time>2026-04-05T02:22:09Z</time></trkpt><trkpt lat="-31.898577278217147" lon="116.0386952323992"><ele>42.0</ele><time>2026-04-05T02:22:10Z</time></trkpt><trkpt lat="-31.8986709939921" lon="116.0388463858322"><ele>43.0</ele><time>2026-04-05T02:22:11Z</time></trkpt><trkpt lat="-31.89875985663732" lon="116.03899628123666"><ele>44.0</ele><time>2026-04-05T02:22:12Z</time></trkpt><trkpt lat="-31.89885155707931" lon="116.03914491645976"><ele>45.33333333333333</ele><time>2026-04-05T02:22:13Z</time></trkpt><trkpt lat="-31.898936777308187" lon="116.03929741539574"><ele>46.666666666666664</ele><time>2026-04-05T02:22:14Z</time></trkpt><trkpt lat="-31.899023718010707" lon="116.03945069435636"><ele>48.0</ele><time>2026-04-05T02:22:15Z</time></trkpt><trkpt lat="-31.8991078096383" lon="116.03960200956867"><ele>48.0</ele><time>2026-04-05T02:22:16Z</time></trkpt><trkpt lat="-31.899191421092688" lon="116.03975802320522"><ele>48.0</ele><time>2026-04-05T02:22:17Z</time></trkpt><trkpt lat="-31.89927427861311" lon="116.03991441626097"><ele>48.0</ele><time>2026-04-05T02:22:18Z</time></trkpt><trkpt lat="-31.899361060349257" lon="116.040064980592"><ele>50.66666666666667</ele><time>2026-04-05T02:22:19Z</time></trkpt><trkpt lat="-31.89944770094583" lon="116.04021697801967"><ele>53.333333333333336</ele><time>2026-04-05T02:22:20Z</time></trkpt><trkpt lat="-31.899535593670354" lon="116.04037113612586"><ele>56.0</ele><time>2026-04-05T02:22:21Z</time></trkpt><trkpt lat="-31.899619990952452" lon="116.04053377420226"><ele>56.0</ele><time>2026-04-05T02:22:22Z</time></trkpt><trkpt lat="-31.899700480527766" lon="116.04069077349392"><ele>56.0</ele><time>2026-04-05T02:22:23Z</time></trkpt><trkpt lat="-31.899788940679997" lon="116.04085331288785"><ele>56.0</ele><time>2026-04-05T02:22:24Z</time></trkpt><trkpt lat="-31.8998801671656" lon="116.04100670511326"><ele>55.0</ele><time>2026-04-05T02:22:25Z</time></trkpt><trkpt lat="-31.899968713149537" lon="116.04116584793292"><ele>54.0</ele><time>2026-04-05T02:22:26Z</time></trkpt><trkpt lat="-31.900059400293262" lon="116.041332402077"><ele>53.0</ele><time>2026-04-05T02:22:27Z</time></trkpt><trkpt lat="-31.900150865114405" lon="116.0414992806103"><ele>53.0</ele><time>2026-04-05T02:22:28Z</time></trkpt><trkpt lat="-31.900241297212904" lon="116.0416681337675"><ele>53.0</ele><time>2026-04-05T02:22:29Z</time></trkpt><trkpt lat="-31.900332253724706" lon="116.0418401137927"><ele>53.0</ele><time>2026-04-05T02:22:30Z</time></trkpt><trkpt lat="-31.90042239305987" lon="116.0420215355998"><ele>53.0</ele><time>2026-04-05T02:22:31Z</time></trkpt><trkpt lat="-31.900507548732925" lon="116.0422081753733"><ele>53.0</ele><time>2026-04-05T02:22:32Z</time></trkpt><trkpt lat="-31.900592017268238" lon="116.04240422646794"><ele>53.0</ele><time>2026-04-05T02:22:33Z</time></trkpt><trkpt lat="-31.900677317895134" lon="116.0426051051864"><ele>53.0</ele><time>2026-04-05T02:22:34Z</time></trkpt><trkpt lat="-31.90076351864768" lon="116.04281666347961"><ele>53.0</ele><time>2026-04-05T02:22:35Z</time></trkpt><trkpt lat="-31.900843201715873" lon="116.04304422680761"><ele>53.0</ele><time>2026-04-05T02:22:35.999Z</time></trkpt><trkpt lat="-31.900909883198466" lon="116.0432540497199"><ele>54.0</ele><time>2026-04-05T02:22:36.999Z</time></trkpt><trkpt lat="-31.9009742528402" lon="116.04344654218053"><ele>55.0</ele><time>2026-04-05T02:22:37.999Z</time></trkpt><trkpt lat="-31.901035960243135" lon="116.04363229405736"><ele>56.0</ele><time>2026-04-05T02:22:38.999Z</time></trkpt><trkpt lat="-31.901092259161793" lon="116.0438156718104"><ele>56.0</ele><time>2026-04-05T02:22:39.999Z</time></trkpt><trkpt lat="-31.901146314089893" lon="116.04399629984128"><ele>56.0</ele><time>2026-04-05T02:22:40.999Z</time></trkpt><trkpt lat="-31.90120085612643" lon="116.04417341636817"><ele>56.0</ele><time>2026-04-05T02:22:41.999Z</time></trkpt><trkpt lat="-31.901257597562406" lon="116.04434949664275"><ele>57.333333333333336</ele><time>2026-04-05T02:22:42.999Z</time></trkpt><trkpt lat="-31.901318187682186" lon="116.04453494737281"><ele>58.66666666666667</ele><time>2026-04-05T02:22:43.999Z</time></trkpt><trkpt lat="-31.90138113168813" lon="116.04472132521934"><ele>60.0</ele><time>2026-04-05T02:22:44.999Z</time></trkpt><trkpt lat="-31.901447703916734" lon="116.04490519823328"><ele>61.66666666666667</ele><time>2026-04-05T02:22:45.999Z</time></trkpt><trkpt lat="-31.90151581712863" lon="116.04508202614345"><ele>63.333333333333336</ele><time>2026-04-05T02:22:46.999Z</time></trkpt><trkpt lat="-31.90158869311736" lon="116.04526204512665"><ele>65.0</ele><time>2026-04-05T02:22:47.999Z</time></trkpt><trkpt lat="-31.901660739087966" lon="116.04543553555716"><ele>65.0</ele><time>2026-04-05T02:22:48.999Z</time></trkpt><trkpt lat="-31.90173564577683" lon="116.04561645119209"><ele>65.0</ele><time>2026-04-05T02:22:49.999Z</time></trkpt><trkpt lat="-31.90180826304981" lon="116.0457943115319"><ele>65.0</ele><time>2026-04-05T02:22:50.999Z</time></trkpt><trkpt lat="-31.901884512359118" lon="116.04598520194838"><ele>67.66666666666667</ele><time>2026-04-05T02:22:51.999Z</time></trkpt><trkpt lat="-31.9019605932958" lon="116.04617638727052"><ele>70.33333333333333</ele><time>2026-04-05T02:22:52.999Z</time></trkpt><trkpt lat="-31.90203640795583" lon="116.04637474330379"><ele>73.0</ele><time>2026-04-05T02:22:53.999Z</time></trkpt><trkpt lat="-31.902108133372103" lon="116.04657759784956"><ele>74.33333333333333</ele><time>2026-04-05T02:22:54.999Z</time></trkpt><trkpt lat="-31.90216860781313" lon="116.04676956366491"><ele>75.66666666666667</ele><time>2026-04-05T02:22:55.999Z</time></trkpt><trkpt lat="-31.90221926231322" lon="116.046952442484"><ele>77.0</ele><time>2026-04-05T02:22:56.999Z</time></trkpt><trkpt lat="-31.90226278459788" lon="116.04713454538005"><ele>77.0</ele><time>2026-04-05T02:22:57.999Z</time></trkpt><trkpt lat="-31.902296816093095" lon="116.04732588921237"><ele>77.0</ele><time>2026-04-05T02:22:58.999Z</time></trkpt><trkpt lat="-31.90232737236514" lon="116.04752562052417"><ele>77.0</ele><time>2026-04-05T02:22:59.999Z</time></trkpt><trkpt lat="-31.90235121309509" lon="116.04772936910419"><ele>77.0</ele><time>2026-04-05T02:23:00.999Z</time></trkpt><trkpt lat="-31.90236490992217" lon="116.04793194635153"><ele>77.0</ele><time>2026-04-05T02:23:01.999Z</time></trkpt><trkpt lat="-31.90236762280836" lon="116.0481292728073"><ele>77.0</ele><time>2026-04-05T02:23:02.999Z</time></trkpt><trkpt lat="-31.90236286199885" lon="116.04832687054626"><ele>77.33333333333334</ele><time>2026-04-05T02:23:03.999Z</time></trkpt><trkpt lat="-31.902349412283854" lon="116.04852417181112"><ele>77.66666666666667</ele><time>2026-04-05T02:23:04.999Z</time></trkpt><trkpt lat="-31.902329971405507" lon="116.0487154104253"><ele>78.0</ele><time>2026-04-05T02:23:05.999Z</time></trkpt><trkpt lat="-31.902303873813892" lon="116.04889557312679"><ele>78.0</ele><time>2026-04-05T02:23:06.999Z</time></trkpt><trkpt lat="-31.902269322518915" lon="116.049071498461"><ele>78.0</ele><time>2026-04-05T02:23:07.999Z</time></trkpt><trkpt lat="-31.902225271115793" lon="116.04923951639805"><ele>78.0</ele><time>2026-04-05T02:23:08.999Z</time></trkpt><trkpt lat="-31.902173661186684" lon="116.04939964697026"><ele>78.0</ele><time>2026-04-05T02:23:09.999Z</time></trkpt><trkpt lat="-31.902117022496192" lon="116.04955856545429"><ele>79.0</ele><time>2026-04-05T02:23:10.999Z</time></trkpt><trkpt lat="-31.90206546417705" lon="116.04971208442012"><ele>80.0</ele><time>2026-04-05T02:23:11.999Z</time></trkpt><trkpt lat="-31.902002858626922" lon="116.04986428064788"><ele>81.0</ele><time>2026-04-05T02:23:12.999Z</time></trkpt><trkpt lat="-31.90194576663042" lon="116.05001128237603"><ele>82.0</ele><time>2026-04-05T02:23:13.999Z</time></trkpt><trkpt lat="-31.90188681812665" lon="116.0501574020517"><ele>82.5</ele><time>2026-04-05T02:23:14.999Z</time></trkpt><trkpt lat="-31.901826289754442" lon="116.05030929697863"><ele>83.0</ele><time>2026-04-05T02:23:15.999Z</time></trkpt><trkpt lat="-31.90176622710669" lon="116.05046314784623"><ele>83.5</ele><time>2026-04-05T02:23:16.999Z</time></trkpt><trkpt lat="-31.901703780117977" lon="116.05061923145094"><ele>84.0</ele><time>2026-04-05T02:23:17.999Z</time></trkpt><trkpt lat="-31.901640796050412" lon="116.05077577268801"><ele>84.66666666666667</ele><time>2026-04-05T02:23:18.999Z</time></trkpt><trkpt lat="-31.901568809617356" lon="116.05093421313742"><ele>85.33333333333334</ele><time>2026-04-05T02:23:19.999Z</time></trkpt><trkpt lat="-31.90149697144336" lon="116.05109897293859"><ele>86.0</ele><time>2026-04-05T02:23:20.999Z</time></trkpt><trkpt lat="-31.901433395639646" lon="116.05126837655725"><ele>86.0</ele><time>2026-04-05T02:23:21.999Z</time></trkpt><trkpt lat="-31.90136770729489" lon="116.05143353749244"><ele>86.0</ele><time>2026-04-05T02:23:22.999Z</time></trkpt><trkpt lat="-31.90130435682866" lon="116.05160012161492"><ele>86.0</ele><time>2026-04-05T02:23:23.999Z</time></trkpt><trkpt lat="-31.90124268336917" lon="116.05176764415283"><ele>88.0</ele><time>2026-04-05T02:23:24.999Z</time></trkpt><trkpt lat="-31.901178431720965" lon="116.05193124579108"><ele>90.0</ele><time>2026-04-05T02:23:25.999Z</time></trkpt><trkpt lat="-31.901105986155336" lon="116.05211168619721"><ele>92.0</ele><time>2026-04-05T02:23:26.999Z</time></trkpt><trkpt lat="-31.90102284203725" lon="116.05231009707468"><ele>91.33333333333334</ele><time>2026-04-05T02:23:27.999Z</time></trkpt><trkpt lat="-31.900939813600257" lon="116.05252793846391"><ele>90.66666666666667</ele><time>2026-04-05T02:23:28.999Z</time></trkpt><trkpt lat="-31.900852772819004" lon="116.05276054755504"><ele>90.0</ele><time>2026-04-05T02:23:29.999Z</time></trkpt><trkpt lat="-31.90076388454507" lon="116.05299356302672"><ele>92.5</ele><time>2026-04-05T02:23:31Z</time></trkpt><trkpt lat="-31.900681749906152" lon="116.05325130862848"><ele>95.0</ele><time>2026-04-05T02:23:32Z</time></trkpt><trkpt lat="-31.900629429935183" lon="116.05350868532817"><ele>96.66666666666667</ele><time>2026-04-05T02:23:33Z</time></trkpt><trkpt lat="-31.900580210898735" lon="116.0537632964701"><ele>98.33333333333334</ele><time>2026-04-05T02:23:34Z</time></trkpt><trkpt lat="-31.900563298210926" lon="116.05398819585504"><ele>100.0</ele><time>2026-04-05T02:23:35Z</time></trkpt><trkpt lat="-31.900556808919738" lon="116.05419384527741"><ele>101.33333333333334</ele><time>2026-04-05T02:23:36Z</time></trkpt><trkpt lat="-31.90055554913215" lon="116.05439248512326"><ele>102.66666666666666</ele><time>2026-04-05T02:23:37Z</time></trkpt><trkpt lat="-31.90056327423574" lon="116.05459633736282"><ele>104.0</ele><time>2026-04-05T02:23:38Z</time></trkpt><trkpt lat="-31.90057708172162" lon="116.05480280504598"><ele>106.0</ele><time>2026-04-05T02:23:39Z</time></trkpt><trkpt lat="-31.90058405481967" lon="116.05501217561802"><ele>108.0</ele><time>2026-04-05T02:23:40Z</time></trkpt><trkpt lat="-31.90058469029655" lon="116.05521666040498"><ele>110.0</ele><time>2026-04-05T02:23:41Z</time></trkpt><trkpt lat="-31.900593270927516" lon="116.05541100277978"><ele>110.0</ele><time>2026-04-05T02:23:42Z</time></trkpt><trkpt lat="-31.900595352541103" lon="116.05561051312817"><ele>110.0</ele><time>2026-04-05T02:23:43Z</time></trkpt><trkpt lat="-31.90059290850199" lon="116.05581420821701"><ele>110.0</ele><time>2026-04-05T02:23:44Z</time></trkpt><trkpt lat="-31.90058984762599" lon="116.05601831612155"><ele>111.0</ele><time>2026-04-05T02:23:45Z</time></trkpt><trkpt lat="-31.90057691340439" lon="116.05622147181423"><ele>112.0</ele><time>2026-04-05T02:23:46Z</time></trkpt><trkpt lat="-31.900557885208723" lon="116.05642321222436"><ele>113.0</ele><time>2026-04-05T02:23:47Z</time></trkpt><trkpt lat="-31.900535053958585" lon="116.05662848386092"><ele>113.33333333333333</ele><time>2026-04-05T02:23:48Z</time></trkpt><trkpt lat="-31.90050255217641" lon="116.05683466825661"><ele>113.66666666666666</ele><time>2026-04-05T02:23:49Z</time></trkpt><trkpt lat="-31.900465600873723" lon="116.0570319318989"><ele>114.0</ele><time>2026-04-05T02:23:50Z</time></trkpt><trkpt lat="-31.90043954624984" lon="116.05724007479124"><ele>114.0</ele><time>2026-04-05T02:23:51Z</time></trkpt><trkpt lat="-31.900420022896363" lon="116.05744644064787"><ele>114.0</ele><time>2026-04-05T02:23:52Z</time></trkpt><trkpt lat="-31.90040622676952" lon="116.05765319236752"><ele>114.0</ele><time>2026-04-05T02:23:53Z</time></trkpt><trkpt lat="-31.90040691902655" lon="116.05786285260277"><ele>113.66666666666666</ele><time>2026-04-05T02:23:54Z</time></trkpt><trkpt lat="-31.90041626603123" lon="116.05806861011688"><ele>113.33333333333333</ele><time>2026-04-05T02:23:55Z</time></trkpt><trkpt lat="-31.900455243802238" lon="116.05824426114228"><ele>113.0</ele><time>2026-04-05T02:23:56Z</time></trkpt><trkpt lat="-31.900482881333105" lon="116.05840934164335"><ele>113.75</ele><time>2026-04-05T02:23:57Z</time></trkpt><trkpt lat="-31.900508639629386" lon="116.05855732885531"><ele>114.5</ele><time>2026-04-05T02:23:58Z</time></trkpt><trkpt lat="-31.900541701352402" lon="116.05869354702294"><ele>115.25</ele><time>2026-04-05T02:23:59Z</time></trkpt><trkpt lat="-31.900568097111208" lon="116.05881672912987"><ele>116.0</ele><time>2026-04-05T02:24:00Z</time></trkpt><trkpt lat="-31.900591664032806" lon="116.05895720667141"><ele>116.0</ele><time>2026-04-05T02:24:01Z</time></trkpt><trkpt lat="-31.900613641807716" lon="116.0590964848252"><ele>116.0</ele><time>2026-04-05T02:24:02Z</time></trkpt><trkpt lat="-31.900632186985025" lon="116.0592439075933"><ele>116.0</ele><time>2026-04-05T02:24:03Z</time></trkpt><trkpt lat="-31.900647219785714" lon="116.05939838374182"><ele>116.0</ele><time>2026-04-05T02:24:04Z</time></trkpt><trkpt lat="-31.90065476512939" lon="116.05956205065922"><ele>121.66666666666666</ele><time>2026-04-05T02:24:05Z</time></trkpt><trkpt lat="-31.90065953398897" lon="116.05973917161751"><ele>127.33333333333334</ele><time>2026-04-05T02:24:06Z</time></trkpt><trkpt lat="-31.900652325129037" lon="116.05992855252482"><ele>133.0</ele><time>2026-04-05T02:24:07Z</time></trkpt><trkpt lat="-31.90063302348687" lon="116.06012484053481"><ele>135.0</ele><time>2026-04-05T02:24:08Z</time></trkpt><trkpt lat="-31.90060370810309" lon="116.06032416809256"><ele>137.0</ele><time>2026-04-05T02:24:09Z</time></trkpt><trkpt lat="-31.900563277785498" lon="116.06051915710182"><ele>139.0</ele><time>2026-04-05T02:24:10Z</time></trkpt><trkpt lat="-31.90051041092719" lon="116.06071627176037"><ele>138.33333333333334</ele><time>2026-04-05T02:24:11Z</time></trkpt><trkpt lat="-31.90044626984871" lon="116.06091914780167"><ele>137.66666666666666</ele><time>2026-04-05T02:24:12Z</time></trkpt><trkpt lat="-31.900384769710133" lon="116.0611111667576"><ele>137.0</ele><time>2026-04-05T02:24:13Z</time></trkpt><trkpt lat="-31.900310012012863" lon="116.0613309908851"><ele>137.0</ele><time>2026-04-05T02:24:14Z</time></trkpt><trkpt lat="-31.90023135560835" lon="116.0615454990796"><ele>137.0</ele><time>2026-04-05T02:24:15Z</time></trkpt><trkpt lat="-31.90015069219455" lon="116.06175268803725"><ele>137.0</ele><time>2026-04-05T02:24:16Z</time></trkpt><trkpt lat="-31.900071883272776" lon="116.06196206773238"><ele>140.66666666666666</ele><time>2026-04-05T02:24:16.999Z</time></trkpt><trkpt lat="-31.899989487360802" lon="116.0621769354862"><ele>144.33333333333334</ele><time>2026-04-05T02:24:17.999Z</time></trkpt><trkpt lat="-31.899911822800156" lon="116.06238278272221"><ele>148.0</ele><time>2026-04-05T02:24:18.999Z</time></trkpt><trkpt lat="-31.899834124095396" lon="116.06259460049255"><ele>149.66666666666669</ele><time>2026-04-05T02:24:19.999Z</time></trkpt><trkpt lat="-31.89975436078137" lon="116.06280985917827"><ele>151.33333333333334</ele><time>2026-04-05T02:24:20.999Z</time></trkpt><trkpt lat="-31.899675061481013" lon="116.06302003637546"><ele>153.0</ele><time>2026-04-05T02:24:21.999Z</time></trkpt><trkpt lat="-31.899603659499352" lon="116.06322241858476"><ele>154.66666666666666</ele><time>2026-04-05T02:24:22.999Z</time></trkpt><trkpt lat="-31.89953283849111" lon="116.0634334871968"><ele>156.33333333333331</ele><time>2026-04-05T02:24:23.999Z</time></trkpt><trkpt lat="-31.899469457314915" lon="116.06365535270105"><ele>158.0</ele><time>2026-04-05T02:24:24.999Z</time></trkpt><trkpt lat="-31.89940923904121" lon="116.06388511623258"><ele>158.0</ele><time>2026-04-05T02:24:25.999Z</time></trkpt><trkpt lat="-31.899351603516717" lon="116.06410955522806"><ele>158.0</ele><time>2026-04-05T02:24:26.999Z</time></trkpt><trkpt lat="-31.89930436953918" lon="116.06433304930984"><ele>158.0</ele><time>2026-04-05T02:24:27.999Z</time></trkpt><trkpt lat="-31.89927157242202" lon="116.0645560795671"><ele>158.0</ele><time>2026-04-05T02:24:28.999Z</time></trkpt><trkpt lat="-31.899254695817717" lon="116.06478563067236"><ele>158.0</ele><time>2026-04-05T02:24:29.999Z</time></trkpt><trkpt lat="-31.8992514883026" lon="116.06501463466013"><ele>158.0</ele><time>2026-04-05T02:24:30.999Z</time></trkpt><trkpt lat="-31.899259439314168" lon="116.06524863979519"><ele>158.0</ele><time>2026-04-05T02:24:31.999Z</time></trkpt><trkpt lat="-31.899277061591015" lon="116.0654830389647"><ele>158.0</ele><time>2026-04-05T02:24:32.999Z</time></trkpt><trkpt lat="-31.899300423466194" lon="116.06571238975296"><ele>158.0</ele><time>2026-04-05T02:24:33.999Z</time></trkpt><trkpt lat="-31.899330540389954" lon="116.06592671485755"><ele>159.33333333333331</ele><time>2026-04-05T02:24:34.999Z</time></trkpt><trkpt lat="-31.899349057451133" lon="116.06613728113541"><ele>160.66666666666666</ele><time>2026-04-05T02:24:35.999Z</time></trkpt><trkpt lat="-31.899366154002394" lon="116.06633806541994"><ele>162.0</ele><time>2026-04-05T02:24:36.999Z</time></trkpt><trkpt lat="-31.89938813292418" lon="116.06652255228335"><ele>164.33333333333334</ele><time>2026-04-05T02:24:37.999Z</time></trkpt><trkpt lat="-31.899411483052777" lon="116.06670001212146"><ele>166.66666666666669</ele><time>2026-04-05T02:24:38.999Z</time></trkpt><trkpt lat="-31.899437049242206" lon="116.06687447101008"><ele>169.0</ele><time>2026-04-05T02:24:39.999Z</time></trkpt><trkpt lat="-31.899457048366475" lon="116.06705523469722"><ele>169.0</ele><time>2026-04-05T02:24:40.999Z</time></trkpt><trkpt lat="-31.89947478896057" lon="116.06723479501271"><ele>169.0</ele><time>2026-04-05T02:24:41.999Z</time></trkpt><trkpt lat="-31.899497230033386" lon="116.06741782688347"><ele>169.0</ele><time>2026-04-05T02:24:42.999Z</time></trkpt><trkpt lat="-31.899524653355652" lon="116.06760283951625"><ele>172.0</ele><time>2026-04-05T02:24:43.999Z</time></trkpt><trkpt lat="-31.899559485129718" lon="116.06779243044585"><ele>175.0</ele><time>2026-04-05T02:24:44.999Z</time></trkpt><trkpt lat="-31.89960193580629" lon="116.06797337532814"><ele>178.0</ele><time>2026-04-05T02:24:45.999Z</time></trkpt><trkpt lat="-31.89965358311132" lon="116.0681320644415"><ele>179.0</ele><time>2026-04-05T02:24:46.999Z</time></trkpt><trkpt lat="-31.899711902241958" lon="116.06828393798381"><ele>180.0</ele><time>2026-04-05T02:24:47.999Z</time></trkpt><trkpt lat="-31.899776452403508" lon="116.06843996130735"><ele>181.0</ele><time>2026-04-05T02:24:48.999Z</time></trkpt><trkpt lat="-31.89984287823491" lon="116.06860408377882"><ele>182.0</ele><time>2026-04-05T02:24:49.999Z</time></trkpt><trkpt lat="-31.899910388748957" lon="116.06877789981168"><ele>182.0</ele><time>2026-04-05T02:24:50.999Z</time></trkpt><trkpt lat="-31.899978469808506" lon="116.0689557884361"><ele>182.0</ele><time>2026-04-05T02:24:51.999Z</time></trkpt><trkpt lat="-31.90004736562793" lon="116.06914021220429"><ele>182.0</ele><time>2026-04-05T02:24:52.999Z</time></trkpt><trkpt lat="-31.90011081038967" lon="116.06933290383243"><ele>188.0</ele><time>2026-04-05T02:24:53.999Z</time></trkpt><trkpt lat="-31.900160316879454" lon="116.06953504939837"><ele>194.0</ele><time>2026-04-05T02:24:54.999Z</time></trkpt><trkpt lat="-31.900188897943263" lon="116.06974977491892"><ele>200.0</ele><time>2026-04-05T02:24:55.999Z</time></trkpt><trkpt lat="-31.900215475687155" lon="116.06996147806997"><ele>201.0</ele><time>2026-04-05T02:24:56.999Z</time></trkpt><trkpt lat="-31.90023345467468" lon="116.07016823225223"><ele>202.0</ele><time>2026-04-05T02:24:57.999Z</time></trkpt><trkpt lat="-31.900251718077737" lon="116.07036857539833"><ele>203.0</ele><time>2026-04-05T02:24:58.999Z</time></trkpt><trkpt lat="-31.900267912866774" lon="116.0705732302556"><ele>203.0</ele><time>2026-04-05T02:24:59.999Z</time></trkpt><trkpt lat="-31.900285711326514" lon="116.07076464145139"><ele>203.0</ele><time>2026-04-05T02:25:00.999Z</time></trkpt><trkpt lat="-31.900305138838835" lon="116.0709530636147"><ele>203.0</ele><time>2026-04-05T02:25:01.999Z</time></trkpt><trkpt lat="-31.900326684262307" lon="116.0711324460341"><ele>204.66666666666669</ele><time>2026-04-05T02:25:02.999Z</time></trkpt><trkpt lat="-31.9003538135781" lon="116.07130663402307"><ele>206.33333333333331</ele><time>2026-04-05T02:25:03.999Z</time></trkpt><trkpt lat="-31.900390634919365" lon="116.07148023020306"><ele>208.0</ele><time>2026-04-05T02:25:04.999Z</time></trkpt><trkpt lat="-31.900437541581578" lon="116.07165309898284"><ele>208.0</ele><time>2026-04-05T02:25:05.999Z</time></trkpt><trkpt lat="-31.900491871196376" lon="116.07182244444296"><ele>208.0</ele><time>2026-04-05T02:25:06.999Z</time></trkpt><trkpt lat="-31.90055150900955" lon="116.07199467599489"><ele>208.0</ele><time>2026-04-05T02:25:07.999Z</time></trkpt><trkpt lat="-31.90061993483323" lon="116.0721720356193"><ele>208.0</ele><time>2026-04-05T02:25:08.999Z</time></trkpt><trkpt lat="-31.90069602830841" lon="116.07236086491226"><ele>208.0</ele><time>2026-04-05T02:25:09.999Z</time></trkpt><trkpt lat="-31.90077392410276" lon="116.07254807667776"><ele>208.0</ele><time>2026-04-05T02:25:10.999Z</time></trkpt><trkpt lat="-31.900858944853354" lon="116.0727434646475"><ele>208.0</ele><time>2026-04-05T02:25:11.999Z</time></trkpt><trkpt lat="-31.900942151311465" lon="116.0729380692714"><ele>208.0</ele><time>2026-04-05T02:25:12.999Z</time></trkpt><trkpt lat="-31.90102213061092" lon="116.07311817559112"><ele>208.0</ele><time>2026-04-05T02:25:13.999Z</time></trkpt><trkpt lat="-31.901094890971265" lon="116.07328715605624"><ele>209.75</ele><time>2026-04-05T02:25:14.999Z</time></trkpt><trkpt lat="-31.901158350981834" lon="116.07345648865035"><ele>211.5</ele><time>2026-04-05T02:25:15.999Z</time></trkpt><trkpt lat="-31.90121241428288" lon="116.07361322507289"><ele>213.25</ele><time>2026-04-05T02:25:16.999Z</time></trkpt><trkpt lat="-31.901264963701102" lon="116.07376384370122"><ele>215.0</ele><time>2026-04-05T02:25:17.999Z</time></trkpt><trkpt lat="-31.901314022178706" lon="116.07390938479581"><ele>215.0</ele><time>2026-04-05T02:25:18.999Z</time></trkpt><trkpt lat="-31.901363524886133" lon="116.07406727262301"><ele>215.0</ele><time>2026-04-05T02:25:19.999Z</time></trkpt><trkpt lat="-31.901410946700455" lon="116.07424542907596"><ele>215.0</ele><time>2026-04-05T02:25:20.999Z</time></trkpt><trkpt lat="-31.90145309783546" lon="116.07444071360837"><ele>216.66666666666669</ele><time>2026-04-05T02:25:21.999Z</time></trkpt><trkpt lat="-31.90148641507968" lon="116.07465238153759"><ele>218.33333333333331</ele><time>2026-04-05T02:25:22.999Z</time></trkpt><trkpt lat="-31.901504033984928" lon="116.07487180696812"><ele>220.0</ele><time>2026-04-05T02:25:23.999Z</time></trkpt><trkpt lat="-31.90150477706592" lon="116.07510088431884"><ele>221.0</ele><time>2026-04-05T02:25:24.999Z</time></trkpt><trkpt lat="-31.901491650863335" lon="116.07532790701374"><ele>222.0</ele><time>2026-04-05T02:25:25.999Z</time></trkpt><trkpt lat="-31.901465927400363" lon="116.07553126779555"><ele>223.0</ele><time>2026-04-05T02:25:26.999Z</time></trkpt><trkpt lat="-31.901434244320214" lon="116.07570943035417"><ele>225.66666666666666</ele><time>2026-04-05T02:25:27.999Z</time></trkpt><trkpt lat="-31.901393625339963" lon="116.07587464921016"><ele>228.33333333333331</ele><time>2026-04-05T02:25:28.999Z</time></trkpt><trkpt lat="-31.90134592832938" lon="116.07604346062531"><ele>231.0</ele><time>2026-04-05T02:25:29.999Z</time></trkpt><trkpt lat="-31.90129629704317" lon="116.07621663997041"><ele>231.0</ele><time>2026-04-05T02:25:30.999Z</time></trkpt><trkpt lat="-31.901244405910926" lon="116.07639138094794"><ele>231.0</ele><time>2026-04-05T02:25:31.999Z</time></trkpt><trkpt lat="-31.901192791541426" lon="116.076552895003"><ele>231.0</ele><time>2026-04-05T02:25:32.999Z</time></trkpt><trkpt lat="-31.901141762210703" lon="116.07669331617974"><ele>231.0</ele><time>2026-04-05T02:25:33.999Z</time></trkpt><trkpt lat="-31.901096463182817" lon="116.07683659072606"><ele>231.0</ele><time>2026-04-05T02:25:34.999Z</time></trkpt><trkpt lat="-31.90105898112073" lon="116.07698845562854"><ele>231.0</ele><time>2026-04-05T02:25:35.999Z</time></trkpt><trkpt lat="-31.901024486552867" lon="116.07715083999537"><ele>231.0</ele><time>2026-04-05T02:25:37Z</time></trkpt><trkpt lat="-31.900989030941655" lon="116.07731602764515"><ele>231.0</ele><time>2026-04-05T02:25:38Z</time></trkpt><trkpt lat="-31.900955650619892" lon="116.0774885642506"><ele>231.0</ele><time>2026-04-05T02:25:39Z</time></trkpt><trkpt lat="-31.90091995112757" lon="116.07766086815562"><ele>231.0</ele><time>2026-04-05T02:25:40Z</time></trkpt><trkpt lat="-31.90088410174878" lon="116.07783630861023"><ele>231.0</ele><time>2026-04-05T02:25:41Z</time></trkpt><trkpt lat="-31.9008574565915" lon="116.07801615434623"><ele>234.66666666666669</ele><time>2026-04-05T02:25:42Z</time></trkpt><trkpt lat="-31.900841115926045" lon="116.07819942351509"><ele>238.33333333333334</ele><time>2026-04-05T02:25:43Z</time></trkpt><trkpt lat="-31.900830925907844" lon="116.07838776041253"><ele>242.0</ele><time>2026-04-05T02:25:44Z</time></trkpt><trkpt lat="-31.900826422421677" lon="116.07857857777847"><ele>242.0</ele><time>2026-04-05T02:25:45Z</time></trkpt><trkpt lat="-31.900826312746783" lon="116.07877057932483"><ele>242.0</ele><time>2026-04-05T02:25:46Z</time></trkpt><trkpt lat="-31.900830205936604" lon="116.07896420901481"><ele>242.0</ele><time>2026-04-05T02:25:47Z</time></trkpt><trkpt lat="-31.900835620887218" lon="116.07915604120332"><ele>243.33333333333334</ele><time>2026-04-05T02:25:48Z</time></trkpt><trkpt lat="-31.90084332195539" lon="116.07933979180538"><ele>244.66666666666669</ele><time>2026-04-05T02:25:49Z</time></trkpt><trkpt lat="-31.90085322889923" lon="116.07952416093623"><ele>246.0</ele><time>2026-04-05T02:25:50Z</time></trkpt><trkpt lat="-31.90086587540451" lon="116.07970692796107"><ele>246.0</ele><time>2026-04-05T02:25:51Z</time></trkpt><trkpt lat="-31.900882554753863" lon="116.07989341057863"><ele>246.0</ele><time>2026-04-05T02:25:52Z</time></trkpt><trkpt lat="-31.900893980068137" lon="116.08009175775365"><ele>246.0</ele><time>2026-04-05T02:25:53Z</time></trkpt><trkpt lat="-31.90090429166109" lon="116.08028441979262"><ele>247.0</ele><time>2026-04-05T02:25:54Z</time></trkpt><trkpt lat="-31.900917797855673" lon="116.0804781888561"><ele>248.0</ele><time>2026-04-05T02:25:55Z</time></trkpt><trkpt lat="-31.9009373920385" lon="116.08067584916424"><ele>249.0</ele><time>2026-04-05T02:25:56Z</time></trkpt><trkpt lat="-31.900955107193106" lon="116.08087292237727"><ele>250.33333333333331</ele><time>2026-04-05T02:25:57Z</time></trkpt><trkpt lat="-31.90097019418104" lon="116.08107025720544"><ele>251.66666666666666</ele><time>2026-04-05T02:25:58Z</time></trkpt><trkpt lat="-31.900981950309948" lon="116.08126922407983"><ele>253.0</ele><time>2026-04-05T02:25:59Z</time></trkpt><trkpt lat="-31.900995589011004" lon="116.08146814061271"><ele>255.0</ele><time>2026-04-05T02:26:00Z</time></trkpt><trkpt lat="-31.901009077776994" lon="116.08167324467702"><ele>257.0</ele><time>2026-04-05T02:26:01Z</time></trkpt><trkpt lat="-31.90102264603528" lon="116.08187426959634"><ele>259.0</ele><time>2026-04-05T02:26:02Z</time></trkpt><trkpt lat="-31.9010397439166" lon="116.08207861502537"><ele>259.0</ele><time>2026-04-05T02:26:03Z</time></trkpt><trkpt lat="-31.901051641304402" lon="116.0822852532688"><ele>259.0</ele><time>2026-04-05T02:26:04Z</time></trkpt><trkpt lat="-31.901061623607156" lon="116.08249474243715"><ele>259.0</ele><time>2026-04-05T02:26:05Z</time></trkpt><trkpt lat="-31.901070192920507" lon="116.082713472914"><ele>259.66666666666663</ele><time>2026-04-05T02:26:06Z</time></trkpt><trkpt lat="-31.901077370375347" lon="116.08294336892685"><ele>260.3333333333333</ele><time>2026-04-05T02:26:07Z</time></trkpt><trkpt lat="-31.90108433747297" lon="116.08317093374347"><ele>261.0</ele><time>2026-04-05T02:26:08Z</time></trkpt><trkpt lat="-31.901092122898433" lon="116.08339968875295"><ele>261.6666666666667</ele><time>2026-04-05T02:26:09Z</time></trkpt><trkpt lat="-31.901100773758778" lon="116.08362906640815"><ele>262.33333333333337</ele><time>2026-04-05T02:26:10Z</time></trkpt><trkpt lat="-31.901111333564156" lon="116.08385472378922"><ele>263.0</ele><time>2026-04-05T02:26:11Z</time></trkpt><trkpt lat="-31.901121694743296" lon="116.08408040859979"><ele>263.6666666666667</ele><time>2026-04-05T02:26:12Z</time></trkpt><trkpt lat="-31.901132902780116" lon="116.08430404499617"><ele>264.3333333333333</ele><time>2026-04-05T02:26:13Z</time></trkpt><trkpt lat="-31.901141669039337" lon="116.0845262130608"><ele>265.0</ele><time>2026-04-05T02:26:14Z</time></trkpt><trkpt lat="-31.9011482751618" lon="116.0847414792726"><ele>265.66666666666663</ele><time>2026-04-05T02:26:14.999Z</time></trkpt><trkpt lat="-31.901155066832068" lon="116.08495345849087"><ele>266.3333333333333</ele><time>2026-04-05T02:26:15.999Z</time></trkpt><trkpt lat="-31.901161894609313" lon="116.08516284964784"><ele>267.0</ele><time>2026-04-05T02:26:16.999Z</time></trkpt><trkpt lat="-31.901163721011446" lon="116.08537095947372"><ele>267.0</ele><time>2026-04-05T02:26:17.999Z</time></trkpt><trkpt lat="-31.9011536082719" lon="116.08558151391205"><ele>267.0</ele><time>2026-04-05T02:26:18.999Z</time></trkpt><trkpt lat="-31.90113487355008" lon="116.08578621550869"><ele>267.0</ele><time>2026-04-05T02:26:19.999Z</time></trkpt><trkpt lat="-31.90110615553105" lon="116.08598390862359"><ele>267.6666666666667</ele><time>2026-04-05T02:26:20.999Z</time></trkpt><trkpt lat="-31.90107018900372" lon="116.08617816611134"><ele>268.33333333333337</ele><time>2026-04-05T02:26:21.999Z</time></trkpt><trkpt lat="-31.901031051784685" lon="116.08636810055503"><ele>269.0</ele><time>2026-04-05T02:26:22.999Z</time></trkpt><trkpt lat="-31.900988911190687" lon="116.08656066921398"><ele>270.6666666666667</ele><time>2026-04-05T02:26:23.999Z</time></trkpt><trkpt lat="-31.900943232941465" lon="116.08675683622938"><ele>272.3333333333333</ele><time>2026-04-05T02:26:24.999Z</time></trkpt><trkpt lat="-31.90089618108168" lon="116.08697051064811"><ele>274.0</ele><time>2026-04-05T02:26:25.999Z</time></trkpt><trkpt lat="-31.90084802736754" lon="116.08719177035579"><ele>275.3333333333333</ele><time>2026-04-05T02:26:26.999Z</time></trkpt><trkpt lat="-31.90080418445286" lon="116.08740975194208"><ele>276.6666666666667</ele><time>2026-04-05T02:26:27.999Z</time></trkpt><trkpt lat="-31.900758834510416" lon="116.08762050936997"><ele>278.0</ele><time>2026-04-05T02:26:28.999Z</time></trkpt><trkpt lat="-31.90071273362646" lon="116.08782789649246"><ele>279.0</ele><time>2026-04-05T02:26:29.999Z</time></trkpt><trkpt lat="-31.90067011338413" lon="116.08803127934647"><ele>280.0</ele><time>2026-04-05T02:26:30.999Z</time></trkpt><trkpt lat="-31.90063225502295" lon="116.088235988158"><ele>281.0</ele><time>2026-04-05T02:26:31.999Z</time></trkpt><trkpt lat="-31.900595549986857" lon="116.08844453344733"><ele>281.0</ele><time>2026-04-05T02:26:32.999Z</time></trkpt><trkpt lat="-31.9005665257437" lon="116.08866507450475"><ele>281.0</ele><time>2026-04-05T02:26:33.999Z</time></trkpt><trkpt lat="-31.90054497374213" lon="116.08890420814896"><ele>281.0</ele><time>2026-04-05T02:26:34.999Z</time></trkpt><trkpt lat="-31.90053176805523" lon="116.08915606336654"><ele>282.6666666666667</ele><time>2026-04-05T02:26:35.999Z</time></trkpt><trkpt lat="-31.900524305290794" lon="116.08940573605693"><ele>284.3333333333333</ele><time>2026-04-05T02:26:36.999Z</time></trkpt><trkpt lat="-31.900523654624184" lon="116.0896488958764"><ele>286.0</ele><time>2026-04-05T02:26:37.999Z</time></trkpt><trkpt lat="-31.900529164476897" lon="116.08988670774366"><ele>284.3333333333333</ele><time>2026-04-05T02:26:38.999Z</time></trkpt><trkpt lat="-31.900549550658727" lon="116.09012050618911"><ele>282.6666666666667</ele><time>2026-04-05T02:26:39.999Z</time></trkpt><trkpt lat="-31.900579273472143" lon="116.09035396332195"><ele>281.0</ele><time>2026-04-05T02:26:40.999Z</time></trkpt><trkpt lat="-31.900614548413895" lon="116.09058519113788"><ele>279.6666666666667</ele><time>2026-04-05T02:26:41.999Z</time></trkpt><trkpt lat="-31.9006534966044" lon="116.0908159280688"><ele>278.3333333333333</ele><time>2026-04-05T02:26:42.999Z</time></trkpt><trkpt lat="-31.900689887364408" lon="116.09104707194685"><ele>277.0</ele><time>2026-04-05T02:26:43.999Z</time></trkpt><trkpt lat="-31.900722953444912" lon="116.09127608502057"><ele>277.0</ele><time>2026-04-05T02:26:44.999Z</time></trkpt><trkpt lat="-31.900755748493474" lon="116.09150365861517"><ele>277.0</ele><time>2026-04-05T02:26:45.999Z</time></trkpt><trkpt lat="-31.900787625994415" lon="116.0917295695447"><ele>277.0</ele><time>2026-04-05T02:26:46.999Z</time></trkpt><trkpt lat="-31.900820157033476" lon="116.09195701952898"><ele>276.66666666666663</ele><time>2026-04-05T02:26:47.999Z</time></trkpt><trkpt lat="-31.900853832330164" lon="116.09218271193073"><ele>276.3333333333333</ele><time>2026-04-05T02:26:48.999Z</time></trkpt><trkpt lat="-31.90088814445784" lon="116.09240983248331"><ele>276.0</ele><time>2026-04-05T02:26:49.999Z</time></trkpt><trkpt lat="-31.900921961923043" lon="116.09263807619953"><ele>274.6666666666667</ele><time>2026-04-05T02:26:50.999Z</time></trkpt><trkpt lat="-31.90095574155239" lon="116.09286796883438"><ele>273.33333333333337</ele><time>2026-04-05T02:26:51.999Z</time></trkpt><trkpt lat="-31.9009883912045" lon="116.0930986528868"><ele>272.0</ele><time>2026-04-05T02:26:52.999Z</time></trkpt><trkpt lat="-31.901022377336766" lon="116.0933300307555"><ele>271.6666666666667</ele><time>2026-04-05T02:26:53.999Z</time></trkpt><trkpt lat="-31.901057507911226" lon="116.09356022052107"><ele>271.3333333333333</ele><time>2026-04-05T02:26:54.999Z</time></trkpt><trkpt lat="-31.901094086810346" lon="116.09378658781178"><ele>271.0</ele><time>2026-04-05T02:26:55.999Z</time></trkpt><trkpt lat="-31.901129313008298" lon="116.09401541351208"><ele>271.66666666666663</ele><time>2026-04-05T02:26:56.999Z</time></trkpt><trkpt lat="-31.90116299660026" lon="116.09424532841064"><ele>272.3333333333333</ele><time>2026-04-05T02:26:57.999Z</time></trkpt><trkpt lat="-31.901195199160952" lon="116.09447937736216"><ele>273.0</ele><time>2026-04-05T02:26:58.999Z</time></trkpt><trkpt lat="-31.90122886247166" lon="116.09471461380684"><ele>272.6666666666667</ele><time>2026-04-05T02:26:59.999Z</time></trkpt><trkpt lat="-31.90126233039262" lon="116.09495216186387"><ele>272.33333333333337</ele><time>2026-04-05T02:27:00.999Z</time></trkpt><trkpt lat="-31.9012929925349" lon="116.09519407542805"><ele>272.0</ele><time>2026-04-05T02:27:01.999Z</time></trkpt><trkpt lat="-31.901321040577066" lon="116.09545326687012"><ele>272.0</ele><time>2026-04-05T02:27:02.999Z</time></trkpt><trkpt lat="-31.90134261874793" lon="116.09573101774978"><ele>272.0</ele><time>2026-04-05T02:27:03.999Z</time></trkpt><trkpt lat="-31.90135849046698" lon="116.09599860798573"><ele>271.5</ele><time>2026-04-05T02:27:04.999Z</time></trkpt><trkpt lat="-31.901375577499284" lon="116.09627585530055"><ele>271.0</ele><time>2026-04-05T02:27:05.999Z</time></trkpt><trkpt lat="-31.90139278874198" lon="116.09654130255632"><ele>270.3333333333333</ele><time>2026-04-05T02:27:06.999Z</time></trkpt><trkpt lat="-31.901405161890292" lon="116.09679347407658"><ele>269.6666666666667</ele><time>2026-04-05T02:27:07.999Z</time></trkpt><trkpt lat="-31.901411855960074" lon="116.09704172265256"><ele>269.0</ele><time>2026-04-05T02:27:08.999Z</time></trkpt><trkpt lat="-31.90140807679896" lon="116.09728434887568"><ele>268.0</ele><time>2026-04-05T02:27:09.999Z</time></trkpt><trkpt lat="-31.90140347719018" lon="116.09752200355156"><ele>267.0</ele><time>2026-04-05T02:27:10.999Z</time></trkpt><trkpt lat="-31.90140829133145" lon="116.09775631881479"><ele>266.0</ele><time>2026-04-05T02:27:11.999Z</time></trkpt><trkpt lat="-31.90141402395336" lon="116.09798922102635"><ele>266.0</ele><time>2026-04-05T02:27:12.999Z</time></trkpt><trkpt lat="-31.90142088578029" lon="116.09822073912905"><ele>266.0</ele><time>2026-04-05T02:27:13.999Z</time></trkpt><trkpt lat="-31.901432324575637" lon="116.09845305093938"><ele>266.0</ele><time>2026-04-05T02:27:14.999Z</time></trkpt><trkpt lat="-31.901447618420498" lon="116.09868779859049"><ele>266.33333333333337</ele><time>2026-04-05T02:27:15.999Z</time></trkpt><trkpt lat="-31.9014715277495" lon="116.09892410120352"><ele>266.6666666666667</ele><time>2026-04-05T02:27:16.999Z</time></trkpt><trkpt lat="-31.901504231916466" lon="116.0991583712919"><ele>267.0</ele><time>2026-04-05T02:27:17.999Z</time></trkpt><trkpt lat="-31.90154481370821" lon="116.09939631191558"><ele>267.0</ele><time>2026-04-05T02:27:18.999Z</time></trkpt><trkpt lat="-31.901596014704456" lon="116.09963058386454"><ele>267.0</ele><time>2026-04-05T02:27:19.999Z</time></trkpt><trkpt lat="-31.901654041539437" lon="116.09986942566897"><ele>267.0</ele><time>2026-04-05T02:27:20.999Z</time></trkpt><trkpt lat="-31.901718300898786" lon="116.10011144176133"><ele>264.6666666666667</ele><time>2026-04-05T02:27:21.999Z</time></trkpt><trkpt lat="-31.90178765655296" lon="116.10034619190174"><ele>262.33333333333337</ele><time>2026-04-05T02:27:22.999Z</time></trkpt><trkpt lat="-31.90185986508019" lon="116.10057775055073"><ele>260.0</ele><time>2026-04-05T02:27:23.999Z</time></trkpt><trkpt lat="-31.90193484510853" lon="116.10081110156479"><ele>260.0</ele><time>2026-04-05T02:27:24.999Z</time></trkpt><trkpt lat="-31.902010662979723" lon="116.10104823881422"><ele>260.0</ele><time>2026-04-05T02:27:25.999Z</time></trkpt><trkpt lat="-31.902084795586152" lon="116.10128660094018"><ele>260.0</ele><time>2026-04-05T02:27:26.999Z</time></trkpt><trkpt lat="-31.902156867890437" lon="116.10152876120382"><ele>260.33333333333337</ele><time>2026-04-05T02:27:27.999Z</time></trkpt><trkpt lat="-31.90222770505796" lon="116.10177176507045"><ele>260.6666666666667</ele><time>2026-04-05T02:27:28.999Z</time></trkpt><trkpt lat="-31.90229905381702" lon="116.10200785819421"><ele>261.0</ele><time>2026-04-05T02:27:29.999Z</time></trkpt><trkpt lat="-31.902373898653913" lon="116.10223620397095"><ele>260.6666666666667</ele><time>2026-04-05T02:27:30.999Z</time></trkpt><trkpt lat="-31.902440726190154" lon="116.10245626198844"><ele>260.33333333333337</ele><time>2026-04-05T02:27:31.999Z</time></trkpt><trkpt lat="-31.90250464582569" lon="116.10267204695924"><ele>260.0</ele><time>2026-04-05T02:27:32.999Z</time></trkpt><trkpt lat="-31.90256387338043" lon="116.10288512493884"><ele>259.33333333333337</ele><time>2026-04-05T02:27:33.999Z</time></trkpt><trkpt lat="-31.90261779262646" lon="116.10309380017506"><ele>258.6666666666667</ele><time>2026-04-05T02:27:34.999Z</time></trkpt><trkpt lat="-31.902664859990328" lon="116.10329849104461"><ele>258.0</ele><time>2026-04-05T02:27:35.999Z</time></trkpt><trkpt lat="-31.902703122904153" lon="116.10349985223428"><ele>257.6666666666667</ele><time>2026-04-05T02:27:36.999Z</time></trkpt><trkpt lat="-31.902730117038807" lon="116.10369576399914"><ele>257.33333333333337</ele><time>2026-04-05T02:27:37.999Z</time></trkpt><trkpt lat="-31.902746471956746" lon="116.10388258058421"><ele>257.0</ele><time>2026-04-05T02:27:38.999Z</time></trkpt><trkpt lat="-31.902757058838798" lon="116.10406982227096"><ele>257.6666666666667</ele><time>2026-04-05T02:27:39.999Z</time></trkpt><trkpt lat="-31.9027669680261" lon="116.10425404375678"><ele>258.3333333333333</ele><time>2026-04-05T02:27:40.999Z</time></trkpt><trkpt lat="-31.902773879236612" lon="116.1044528091666"><ele>259.0</ele><time>2026-04-05T02:27:41.999Z</time></trkpt><trkpt lat="-31.90277563447273" lon="116.1046622447969"><ele>259.0</ele><time>2026-04-05T02:27:43Z</time></trkpt><trkpt lat="-31.902772344714737" lon="116.10488138766989"><ele>259.0</ele><time>2026-04-05T02:27:44Z</time></trkpt><trkpt lat="-31.90275527928921" lon="116.10510600647038"><ele>259.0</ele><time>2026-04-05T02:27:45Z</time></trkpt><trkpt lat="-31.902725727943874" lon="116.10533610467093"><ele>259.0</ele><time>2026-04-05T02:27:46Z</time></trkpt><trkpt lat="-31.902683669009754" lon="116.10557740922994"><ele>259.0</ele><time>2026-04-05T02:27:47Z</time></trkpt><trkpt lat="-31.90263308899629" lon="116.10582389976635"><ele>259.0</ele><time>2026-04-05T02:27:48Z</time></trkpt><trkpt lat="-31.902574945717088" lon="116.10606390861015"><ele>258.66666666666663</ele><time>2026-04-05T02:27:49Z</time></trkpt><trkpt lat="-31.902509510391834" lon="116.10629449640757"><ele>258.3333333333333</ele><time>2026-04-05T02:27:50Z</time></trkpt><trkpt lat="-31.90243916131045" lon="116.10652178910408"><ele>258.0</ele><time>2026-04-05T02:27:51Z</time></trkpt><trkpt lat="-31.90236284773464" lon="116.10673814415841"><ele>258.0</ele><time>2026-04-05T02:27:52Z</time></trkpt><trkpt lat="-31.90228016080437" lon="116.10694514363793"><ele>258.0</ele><time>2026-04-05T02:27:53Z</time></trkpt><trkpt lat="-31.90219089549751" lon="116.10714342091786"><ele>258.0</ele><time>2026-04-05T02:27:54Z</time></trkpt><trkpt lat="-31.902092635484237" lon="116.10733774714438"><ele>260.6666666666667</ele><time>2026-04-05T02:27:55Z</time></trkpt><trkpt lat="-31.901986198593654" lon="116.10753055893987"><ele>263.33333333333337</ele><time>2026-04-05T02:27:56Z</time></trkpt><trkpt lat="-31.901878253862808" lon="116.10772548507339"><ele>266.0</ele><time>2026-04-05T02:27:57Z</time></trkpt><trkpt lat="-31.90177542573247" lon="116.10792365972577"><ele>266.0</ele><time>2026-04-05T02:27:58Z</time></trkpt><trkpt lat="-31.901678969810117" lon="116.10812146469179"><ele>266.0</ele><time>2026-04-05T02:27:59Z</time></trkpt><trkpt lat="-31.90159082291403" lon="116.10831590918357"><ele>266.0</ele><time>2026-04-05T02:28:00Z</time></trkpt><trkpt lat="-31.901511830216375" lon="116.10850445423075"><ele>266.0</ele><time>2026-04-05T02:28:01Z</time></trkpt><trkpt lat="-31.901446982381103" lon="116.10868714620483"><ele>266.0</ele><time>2026-04-05T02:28:02Z</time></trkpt><trkpt lat="-31.901386213825923" lon="116.10887710436867"><ele>266.0</ele><time>2026-04-05T02:28:03Z</time></trkpt><trkpt lat="-31.901330278209972" lon="116.10907417033759"><ele>267.0</ele><time>2026-04-05T02:28:04Z</time></trkpt><trkpt lat="-31.901277007217185" lon="116.10928329826686"><ele>268.0</ele><time>2026-04-05T02:28:05Z</time></trkpt><trkpt lat="-31.90122396651" lon="116.10951474711386"><ele>269.0</ele><time>2026-04-05T02:28:06Z</time></trkpt><trkpt lat="-31.901177798837544" lon="116.10976305620984"><ele>269.33333333333337</ele><time>2026-04-05T02:28:07Z</time></trkpt><trkpt lat="-31.90114736814995" lon="116.11001785501772"><ele>269.6666666666667</ele><time>2026-04-05T02:28:08Z</time></trkpt><trkpt lat="-31.90112673439475" lon="116.1102835845052"><ele>270.0</ele><time>2026-04-05T02:28:09Z</time></trkpt><trkpt lat="-31.90111632450058" lon="116.11054152149843"><ele>269.6666666666667</ele><time>2026-04-05T02:28:10Z</time></trkpt><trkpt lat="-31.901113424097247" lon="116.11080246921689"><ele>269.33333333333337</ele><time>2026-04-05T02:28:11Z</time></trkpt><trkpt lat="-31.901114151235653" lon="116.1110652824262"><ele>269.0</ele><time>2026-04-05T02:28:12Z</time></trkpt><trkpt lat="-31.901113391822822" lon="116.11132392205664"><ele>268.6666666666667</ele><time>2026-04-05T02:28:13Z</time></trkpt><trkpt lat="-31.901111000894517" lon="116.11157715332702"><ele>268.3333333333333</ele><time>2026-04-05T02:28:14Z</time></trkpt><trkpt lat="-31.901108533017773" lon="116.11182629756374"><ele>268.0</ele><time>2026-04-05T02:28:15Z</time></trkpt><trkpt lat="-31.901103535728627" lon="116.11207577268763"><ele>268.0</ele><time>2026-04-05T02:28:16Z</time></trkpt><trkpt lat="-31.90109665451684" lon="116.11232676641384"><ele>268.0</ele><time>2026-04-05T02:28:17Z</time></trkpt><trkpt lat="-31.901083143308384" lon="116.11258537847687"><ele>268.0</ele><time>2026-04-05T02:28:18Z</time></trkpt><trkpt lat="-31.901060920396343" lon="116.112850816771"><ele>267.66666666666663</ele><time>2026-04-05T02:28:19Z</time></trkpt><trkpt lat="-31.901025935564366" lon="116.11310758207057"><ele>267.3333333333333</ele><time>2026-04-05T02:28:20Z</time></trkpt><trkpt lat="-31.90098399725074" lon="116.11335138680278"><ele>267.0</ele><time>2026-04-05T02:28:21Z</time></trkpt><trkpt lat="-31.900938102890613" lon="116.11359287794549"><ele>263.3333333333333</ele><time>2026-04-05T02:28:22Z</time></trkpt><trkpt lat="-31.900881747394617" lon="116.11384089697528"><ele>259.66666666666663</ele><time>2026-04-05T02:28:23Z</time></trkpt><trkpt lat="-31.900819256384132" lon="116.11408870064356"><ele>256.0</ele><time>2026-04-05T02:28:24Z</time></trkpt><trkpt lat="-31.900748628156038" lon="116.11433048452903"><ele>256.0</ele><time>2026-04-05T02:28:25Z</time></trkpt><trkpt lat="-31.900669991831474" lon="116.11456993095113"><ele>256.0</ele><time>2026-04-05T02:28:25.999Z</time></trkpt><trkpt lat="-31.900587383127124" lon="116.114802243291"><ele>256.0</ele><time>2026-04-05T02:28:26.999Z</time></trkpt><trkpt lat="-31.900511351373737" lon="116.1150229395563"><ele>257.0</ele><time>2026-04-05T02:28:27.999Z</time></trkpt><trkpt lat="-31.900440864691983" lon="116.11523535445976"><ele>258.0</ele><time>2026-04-05T02:28:28.999Z</time></trkpt><trkpt lat="-31.900372601184294" lon="116.11543848755149"><ele>259.0</ele><time>2026-04-05T02:28:29.999Z</time></trkpt><trkpt lat="-31.900301242320246" lon="116.11563989669003"><ele>262.0</ele><time>2026-04-05T02:28:30.999Z</time></trkpt><trkpt lat="-31.900229597060317" lon="116.11584549421855"><ele>265.0</ele><time>2026-04-05T02:28:31.999Z</time></trkpt><trkpt lat="-31.900163066447234" lon="116.11605067767891"><ele>268.0</ele><time>2026-04-05T02:28:32.999Z</time></trkpt><trkpt lat="-31.900094585761018" lon="116.11625892432234"><ele>268.0</ele><time>2026-04-05T02:28:33.999Z</time></trkpt><trkpt lat="-31.900024824293293" lon="116.11646491016614"><ele>268.0</ele><time>2026-04-05T02:28:34.999Z</time></trkpt><trkpt lat="-31.89995476211473" lon="116.11666707567565"><ele>268.0</ele><time>2026-04-05T02:28:35.999Z</time></trkpt><trkpt lat="-31.899886888234118" lon="116.11686279586083"><ele>268.0</ele><time>2026-04-05T02:28:36.999Z</time></trkpt><trkpt lat="-31.89982435866861" lon="116.11705358711966"><ele>268.0</ele><time>2026-04-05T02:28:37.999Z</time></trkpt><trkpt lat="-31.899760576998087" lon="116.11724344262826"><ele>268.0</ele><time>2026-04-05T02:28:38.999Z</time></trkpt><trkpt lat="-31.89969864824416" lon="116.11743612065472"><ele>269.0</ele><time>2026-04-05T02:28:39.999Z</time></trkpt><trkpt lat="-31.899636098972493" lon="116.11763316723699"><ele>270.0</ele><time>2026-04-05T02:28:40.999Z</time></trkpt><trkpt lat="-31.899572228592692" lon="116.11783083725105"><ele>271.0</ele><time>2026-04-05T02:28:41.999Z</time></trkpt><trkpt lat="-31.899506913161943" lon="116.11803116789848"><ele>273.0</ele><time>2026-04-05T02:28:42.999Z</time></trkpt><trkpt lat="-31.899443609699144" lon="116.11823553365504"><ele>275.0</ele><time>2026-04-05T02:28:43.999Z</time></trkpt><trkpt lat="-31.89938737116112" lon="116.11844557793731"><ele>277.0</ele><time>2026-04-05T02:28:44.999Z</time></trkpt><trkpt lat="-31.899337655678522" lon="116.11866040182758"><ele>277.0</ele><time>2026-04-05T02:28:45.999Z</time></trkpt><trkpt lat="-31.89929416304105" lon="116.11887612130896"><ele>277.0</ele><time>2026-04-05T02:28:46.999Z</time></trkpt><trkpt lat="-31.899255232053907" lon="116.11909463712912"><ele>277.0</ele><time>2026-04-05T02:28:47.999Z</time></trkpt><trkpt lat="-31.899223461654643" lon="116.1193150997348"><ele>275.3333333333333</ele><time>2026-04-05T02:28:48.999Z</time></trkpt><trkpt lat="-31.899202712340838" lon="116.11954001523236"><ele>273.6666666666667</ele><time>2026-04-05T02:28:49.999Z</time></trkpt><trkpt lat="-31.899189427051933" lon="116.11976573611929"><ele>272.0</ele><time>2026-04-05T02:28:50.999Z</time></trkpt><trkpt lat="-31.899182248491474" lon="116.1199999194718"><ele>272.0</ele><time>2026-04-05T02:28:51.999Z</time></trkpt><trkpt lat="-31.89917786095512" lon="116.12024042969918"><ele>272.0</ele><time>2026-04-05T02:28:52.999Z</time></trkpt><trkpt lat="-31.89917527971852" lon="116.12048483438127"><ele>272.0</ele><time>2026-04-05T02:28:53.999Z</time></trkpt><trkpt lat="-31.8991739031677" lon="116.12072301608455"><ele>271.33333333333337</ele><time>2026-04-05T02:28:54.999Z</time></trkpt><trkpt lat="-31.899175142021743" lon="116.12094995212509"><ele>270.6666666666667</ele><time>2026-04-05T02:28:55.999Z</time></trkpt><trkpt lat="-31.899175416757554" lon="116.12116385553267"><ele>270.0</ele><time>2026-04-05T02:28:56.999Z</time></trkpt><trkpt lat="-31.899171224829516" lon="116.1213729235407"><ele>271.6666666666667</ele><time>2026-04-05T02:28:57.999Z</time></trkpt><trkpt lat="-31.899169883881346" lon="116.12157894114682"><ele>273.33333333333337</ele><time>2026-04-05T02:28:58.999Z</time></trkpt><trkpt lat="-31.8991703985667" lon="116.12179097372001"><ele>275.0</ele><time>2026-04-05T02:28:59.999Z</time></trkpt><trkpt lat="-31.899172970195117" lon="116.12200606315378"><ele>275.0</ele><time>2026-04-05T02:29:00.999Z</time></trkpt><trkpt lat="-31.899172235937304" lon="116.12222685648099"><ele>275.0</ele><time>2026-04-05T02:29:01.999Z</time></trkpt><trkpt lat="-31.899168917121237" lon="116.1224478866525"><ele>275.0</ele><time>2026-04-05T02:29:02.999Z</time></trkpt><trkpt lat="-31.89916703289595" lon="116.12266798851796"><ele>275.33333333333337</ele><time>2026-04-05T02:29:03.999Z</time></trkpt><trkpt lat="-31.899165606196167" lon="116.12288716630103"><ele>275.6666666666667</ele><time>2026-04-05T02:29:04.999Z</time></trkpt><trkpt lat="-31.899165957337686" lon="116.1231072435943"><ele>276.0</ele><time>2026-04-05T02:29:05.999Z</time></trkpt><trkpt lat="-31.899166999028857" lon="116.12332707571949"><ele>277.0</ele><time>2026-04-05T02:29:06.999Z</time></trkpt><trkpt lat="-31.89916710420489" lon="116.12354606418866"><ele>278.0</ele><time>2026-04-05T02:29:07.999Z</time></trkpt><trkpt lat="-31.899168615028348" lon="116.1237599175236"><ele>279.0</ele><time>2026-04-05T02:29:08.999Z</time></trkpt><trkpt lat="-31.899171134387295" lon="116.123981220714"><ele>278.0</ele><time>2026-04-05T02:29:09.999Z</time></trkpt><trkpt lat="-31.89917633452319" lon="116.12419949215108"><ele>277.0</ele><time>2026-04-05T02:29:10.999Z</time></trkpt><trkpt lat="-31.89918626230744" lon="116.1244193511309"><ele>276.0</ele><time>2026-04-05T02:29:11.999Z</time></trkpt><trkpt lat="-31.899200259638288" lon="116.12463678573368"><ele>276.0</ele><time>2026-04-05T02:29:12.999Z</time></trkpt><trkpt lat="-31.899218004995877" lon="116.12485963825247"><ele>276.0</ele><time>2026-04-05T02:29:13.999Z</time></trkpt><trkpt lat="-31.899238725671918" lon="116.12508668971572"><ele>276.0</ele><time>2026-04-05T02:29:14.999Z</time></trkpt><trkpt lat="-31.899263440183546" lon="116.12531365955981"><ele>276.6666666666667</ele><time>2026-04-05T02:29:15.999Z</time></trkpt><trkpt lat="-31.899288110880494" lon="116.12554503406218"><ele>277.33333333333337</ele><time>2026-04-05T02:29:16.999Z</time></trkpt><trkpt lat="-31.899317570349872" lon="116.12577929515169"><ele>278.0</ele><time>2026-04-05T02:29:17.999Z</time></trkpt><trkpt lat="-31.899353709705636" lon="116.12601004577665"><ele>278.0</ele><time>2026-04-05T02:29:18.999Z</time></trkpt><trkpt lat="-31.89939426472703" lon="116.12624586725697"><ele>278.0</ele><time>2026-04-05T02:29:19.999Z</time></trkpt><trkpt lat="-31.899435736854706" lon="116.12647797941955"><ele>278.0</ele><time>2026-04-05T02:29:20.999Z</time></trkpt><trkpt lat="-31.899480748801626" lon="116.1267065725315"><ele>278.33333333333337</ele><time>2026-04-05T02:29:21.999Z</time></trkpt><trkpt lat="-31.89953069033789" lon="116.12693090217891"><ele>278.6666666666667</ele><time>2026-04-05T02:29:22.999Z</time></trkpt><trkpt lat="-31.899582232662468" lon="116.12715458674809"><ele>279.0</ele><time>2026-04-05T02:29:23.999Z</time></trkpt><trkpt lat="-31.899631955981807" lon="116.12738072307046"><ele>277.3333333333333</ele><time>2026-04-05T02:29:24.999Z</time></trkpt><trkpt lat="-31.8996856438128" lon="116.12760666397776"><ele>275.66666666666663</ele><time>2026-04-05T02:29:25.999Z</time></trkpt><trkpt lat="-31.899745073797384" lon="116.12783454691352"><ele>274.0</ele><time>2026-04-05T02:29:26.999Z</time></trkpt><trkpt lat="-31.899802569830207" lon="116.12806826187344"><ele>273.66666666666663</ele><time>2026-04-05T02:29:27.999Z</time></trkpt><trkpt lat="-31.899857045713553" lon="116.12830404937881"><ele>273.3333333333333</ele><time>2026-04-05T02:29:28.999Z</time></trkpt><trkpt lat="-31.899910200976453" lon="116.1285371513647"><ele>273.0</ele><time>2026-04-05T02:29:29.999Z</time></trkpt><trkpt lat="-31.899961285162266" lon="116.12876757732207"><ele>273.0</ele><time>2026-04-05T02:29:30.999Z</time></trkpt><trkpt lat="-31.900013547302198" lon="116.12900036470455"><ele>273.0</ele><time>2026-04-05T02:29:31.999Z</time></trkpt><trkpt lat="-31.900065692286162" lon="116.12923549625066"><ele>273.0</ele><time>2026-04-05T02:29:32.999Z</time></trkpt><trkpt lat="-31.90011973490257" lon="116.12947390874508"><ele>273.6666666666667</ele><time>2026-04-05T02:29:33.999Z</time></trkpt><trkpt lat="-31.900181775992632" lon="116.12972737835273"><ele>274.33333333333337</ele><time>2026-04-05T02:29:34.999Z</time></trkpt><trkpt lat="-31.900232013877634" lon="116.12998475500187"><ele>275.0</ele><time>2026-04-05T02:29:35.999Z</time></trkpt><trkpt lat="-31.900280738669387" lon="116.13023838668823"><ele>275.0</ele><time>2026-04-05T02:29:36.999Z</time></trkpt><trkpt lat="-31.90031036213469" lon="116.13049136854785"><ele>275.0</ele><time>2026-04-05T02:29:37.999Z</time></trkpt><trkpt lat="-31.90032845974601" lon="116.13074225142421"><ele>275.0</ele><time>2026-04-05T02:29:38.999Z</time></trkpt><trkpt lat="-31.900333773050832" lon="116.13099539090861"><ele>274.0</ele><time>2026-04-05T02:29:39.999Z</time></trkpt><trkpt lat="-31.900333147138326" lon="116.131254469357"><ele>273.0</ele><time>2026-04-05T02:29:40.999Z</time></trkpt><trkpt lat="-31.900326258152873" lon="116.13151421886322"><ele>272.0</ele><time>2026-04-05T02:29:41.999Z</time></trkpt><trkpt lat="-31.900311322435567" lon="116.1317686352849"><ele>271.0</ele><time>2026-04-05T02:29:42.999Z</time></trkpt><trkpt lat="-31.900285761809606" lon="116.13202253972578"><ele>270.0</ele><time>2026-04-05T02:29:43.999Z</time></trkpt><trkpt lat="-31.90025307908689" lon="116.13227993500922"><ele>269.0</ele><time>2026-04-05T02:29:44.999Z</time></trkpt><trkpt lat="-31.900215970167746" lon="116.1325437874225"><ele>268.0</ele><time>2026-04-05T02:29:45.999Z</time></trkpt><trkpt lat="-31.90018228361361" lon="116.13280681173796"><ele>267.0</ele><time>2026-04-05T02:29:46.999Z</time></trkpt><trkpt lat="-31.900150898556838" lon="116.13305022581432"><ele>266.0</ele><time>2026-04-05T02:29:47.999Z</time></trkpt><trkpt lat="-31.900119173878057" lon="116.13327912685305"><ele>266.0</ele><time>2026-04-05T02:29:49Z</time></trkpt><trkpt lat="-31.900089789783248" lon="116.1334971908005"><ele>266.0</ele><time>2026-04-05T02:29:50Z</time></trkpt><trkpt lat="-31.900060402189425" lon="116.13371110557993"><ele>266.0</ele><time>2026-04-05T02:29:51Z</time></trkpt><trkpt lat="-31.900034349215467" lon="116.13392278302385"><ele>263.6666666666667</ele><time>2026-04-05T02:29:52Z</time></trkpt><trkpt lat="-31.900007995438752" lon="116.1341314069335"><ele>261.3333333333333</ele><time>2026-04-05T02:29:53Z</time></trkpt><trkpt lat="-31.899979194335216" lon="116.1343392974483"><ele>259.0</ele><time>2026-04-05T02:29:54Z</time></trkpt><trkpt lat="-31.899953626089637" lon="116.13455517686543"><ele>259.0</ele><time>2026-04-05T02:29:55Z</time></trkpt><trkpt lat="-31.89992634818658" lon="116.13476774040653"><ele>259.0</ele><time>2026-04-05T02:29:56Z</time></trkpt><trkpt lat="-31.89989633373261" lon="116.13499324028734"><ele>259.0</ele><time>2026-04-05T02:29:57Z</time></trkpt><trkpt lat="-31.89986819505074" lon="116.13521436288318"><ele>259.3333333333333</ele><time>2026-04-05T02:29:58Z</time></trkpt><trkpt lat="-31.899836730250406" lon="116.13543446208341"><ele>259.6666666666667</ele><time>2026-04-05T02:29:59Z</time></trkpt><trkpt lat="-31.899799345226533" lon="116.13566046889024"><ele>260.0</ele><time>2026-04-05T02:30:00Z</time></trkpt><trkpt lat="-31.899763267978052" lon="116.13587869507354"><ele>260.33333333333337</ele><time>2026-04-05T02:30:01Z</time></trkpt><trkpt lat="-31.8997329245543" lon="116.13609430008887"><ele>260.6666666666667</ele><time>2026-04-05T02:30:02Z</time></trkpt><trkpt lat="-31.89970702401221" lon="116.13630949280969"><ele>261.0</ele><time>2026-04-05T02:30:03Z</time></trkpt><trkpt lat="-31.899680534564688" lon="116.13651671337556"><ele>262.6666666666667</ele><time>2026-04-05T02:30:04Z</time></trkpt><trkpt lat="-31.899652923363934" lon="116.1367062455596"><ele>264.33333333333337</ele><time>2026-04-05T02:30:05Z</time></trkpt><trkpt lat="-31.89961437020756" lon="116.13689418708196"><ele>266.0</ele><time>2026-04-05T02:30:06Z</time></trkpt><trkpt lat="-31.899568778593697" lon="116.13708733511173"><ele>266.0</ele><time>2026-04-05T02:30:07Z</time></trkpt><trkpt lat="-31.89951677888802" lon="116.13728896334565"><ele>266.0</ele><time>2026-04-05T02:30:08Z</time></trkpt><trkpt lat="-31.899459367976092" lon="116.13749513713218"><ele>266.0</ele><time>2026-04-05T02:30:09Z</time></trkpt><trkpt lat="-31.89939132871019" lon="116.13770748641593"><ele>265.0</ele><time>2026-04-05T02:30:10Z</time></trkpt><trkpt lat="-31.899318922635256" lon="116.13791587289789"><ele>264.0</ele><time>2026-04-05T02:30:11Z</time></trkpt><trkpt lat="-31.899252275781723" lon="116.13812623224555"><ele>263.0</ele><time>2026-04-05T02:30:12Z</time></trkpt><trkpt lat="-31.899188646448497" lon="116.13832896457657"><ele>263.0</ele><time>2026-04-05T02:30:13Z</time></trkpt><trkpt lat="-31.899125384719305" lon="116.13853159543072"><ele>263.0</ele><time>2026-04-05T02:30:14Z</time></trkpt><trkpt lat="-31.89906409281846" lon="116.13873166742363"><ele>263.0</ele><time>2026-04-05T02:30:15Z</time></trkpt><trkpt lat="-31.899013596311406" lon="116.1389340664261"><ele>264.6666666666667</ele><time>2026-04-05T02:30:16Z</time></trkpt><trkpt lat="-31.89897639358362" lon="116.13914531811763"><ele>266.3333333333333</ele><time>2026-04-05T02:30:17Z</time></trkpt><trkpt lat="-31.898950565910944" lon="116.1393638573581"><ele>268.0</ele><time>2026-04-05T02:30:18Z</time></trkpt><trkpt lat="-31.89893008076759" lon="116.13959279522591"><ele>268.0</ele><time>2026-04-05T02:30:19Z</time></trkpt><trkpt lat="-31.898915365192" lon="116.13982698596686"><ele>268.0</ele><time>2026-04-05T02:30:20Z</time></trkpt><trkpt lat="-31.89890813420521" lon="116.14005756547039"><ele>268.0</ele><time>2026-04-05T02:30:21Z</time></trkpt><trkpt lat="-31.898911059371862" lon="116.14027653415901"><ele>268.66666666666663</ele><time>2026-04-05T02:30:22Z</time></trkpt><trkpt lat="-31.89892223299412" lon="116.14049130252214"><ele>269.3333333333333</ele><time>2026-04-05T02:30:23Z</time></trkpt><trkpt lat="-31.89894060138115" lon="116.14069965788929"><ele>270.0</ele><time>2026-04-05T02:30:24Z</time></trkpt><trkpt lat="-31.898963686628363" lon="116.14090586709922"><ele>270.0</ele><time>2026-04-05T02:30:25Z</time></trkpt><trkpt lat="-31.898995279813562" lon="116.14111448295016"><ele>270.0</ele><time>2026-04-05T02:30:26Z</time></trkpt><trkpt lat="-31.899032474497368" lon="116.14132609034282"><ele>270.0</ele><time>2026-04-05T02:30:27Z</time></trkpt><trkpt lat="-31.899078343787604" lon="116.14153553416965"><ele>273.6666666666667</ele><time>2026-04-05T02:30:28Z</time></trkpt><trkpt lat="-31.899133514963488" lon="116.14174372381994"><ele>277.33333333333337</ele><time>2026-04-05T02:30:29Z</time></trkpt><trkpt lat="-31.899194579980374" lon="116.14194826193966"><ele>281.0</ele><time>2026-04-05T02:30:30Z</time></trkpt><trkpt lat="-31.899261872880952" lon="116.1421557368258"><ele>282.6666666666667</ele><time>2026-04-05T02:30:31Z</time></trkpt><trkpt lat="-31.899340774469923" lon="116.14236300626595"><ele>284.3333333333333</ele><time>2026-04-05T02:30:32Z</time></trkpt><trkpt lat="-31.89942472009718" lon="116.14257496520875"><ele>286.0</ele><time>2026-04-05T02:30:33Z</time></trkpt><trkpt lat="-31.899508821664543" lon="116.14278893159107"><ele>288.0</ele><time>2026-04-05T02:30:33.999Z</time></trkpt><trkpt lat="-31.899589873644732" lon="116.14299921281932"><ele>290.0</ele><time>2026-04-05T02:30:34.999Z</time></trkpt><trkpt lat="-31.89966769298982" lon="116.14320307751197"><ele>292.0</ele><time>2026-04-05T02:30:35.999Z</time></trkpt><trkpt lat="-31.89974293718041" lon="116.14339925800915"><ele>292.0</ele><time>2026-04-05T02:30:36.999Z</time></trkpt><trkpt lat="-31.899814873487845" lon="116.14359876840062"><ele>292.0</ele><time>2026-04-05T02:30:37.999Z</time></trkpt><trkpt lat="-31.89988147807378" lon="116.14380372440039"><ele>292.0</ele><time>2026-04-05T02:30:38.999Z</time></trkpt><trkpt lat="-31.899946218695483" lon="116.14401218557897"><ele>292.0</ele><time>2026-04-05T02:30:39.999Z</time></trkpt><trkpt lat="-31.90000986571765" lon="116.14422509388328"><ele>292.0</ele><time>2026-04-05T02:30:40.999Z</time></trkpt><trkpt lat="-31.90007394119393" lon="116.14443773404315"><ele>292.0</ele><time>2026-04-05T02:30:41.999Z</time></trkpt><trkpt lat="-31.90013830536874" lon="116.14465196979545"><ele>293.66666666666663</ele><time>2026-04-05T02:30:42.999Z</time></trkpt><trkpt lat="-31.900207584173977" lon="116.14487625160227"><ele>295.3333333333333</ele><time>2026-04-05T02:30:43.999Z</time></trkpt><trkpt lat="-31.90027039284035" lon="116.14511034646674"><ele>297.0</ele><time>2026-04-05T02:30:44.999Z</time></trkpt><trkpt lat="-31.900320497549043" lon="116.14535183815016"><ele>297.0</ele><time>2026-04-05T02:30:45.999Z</time></trkpt><trkpt lat="-31.90036733162461" lon="116.14559664570261"><ele>297.0</ele><time>2026-04-05T02:30:46.999Z</time></trkpt><trkpt lat="-31.90040735343865" lon="116.14583791725592"><ele>297.0</ele><time>2026-04-05T02:30:47.999Z</time></trkpt><trkpt lat="-31.9004418551048" lon="116.1460670070694"><ele>299.6666666666667</ele><time>2026-04-05T02:30:48.999Z</time></trkpt><trkpt lat="-31.90046806868056" lon="116.14628402285432"><ele>302.33333333333337</ele><time>2026-04-05T02:30:49.999Z</time></trkpt><trkpt lat="-31.900487875089652" lon="116.1464936091197"><ele>305.0</ele><time>2026-04-05T02:30:50.999Z</time></trkpt><trkpt lat="-31.90050568480555" lon="116.14670128248667"><ele>305.6666666666667</ele><time>2026-04-05T02:30:51.999Z</time></trkpt><trkpt lat="-31.900521615475416" lon="116.14690656132292"><ele>306.3333333333333</ele><time>2026-04-05T02:30:52.999Z</time></trkpt><trkpt lat="-31.900533162161977" lon="116.14711522777972"><ele>307.0</ele><time>2026-04-05T02:30:53.999Z</time></trkpt><trkpt lat="-31.90054425049227" lon="116.14732481603515"><ele>306.66666666666663</ele><time>2026-04-05T02:30:54.999Z</time></trkpt><trkpt lat="-31.90055620307664" lon="116.14753417185503"><ele>306.3333333333333</ele><time>2026-04-05T02:30:55.999Z</time></trkpt><trkpt lat="-31.900569060629106" lon="116.14775342128006"><ele>306.0</ele><time>2026-04-05T02:30:56.999Z</time></trkpt><trkpt lat="-31.900586317005136" lon="116.14798267327593"><ele>306.0</ele><time>2026-04-05T02:30:57.999Z</time></trkpt><trkpt lat="-31.900606111806987" lon="116.14822187485476"><ele>306.0</ele><time>2026-04-05T02:30:58.999Z</time></trkpt><trkpt lat="-31.90062599985355" lon="116.14846649629173"><ele>306.0</ele><time>2026-04-05T02:30:59.999Z</time></trkpt><trkpt lat="-31.900643945092668" lon="116.14871427862161"><ele>306.0</ele><time>2026-04-05T02:31:00.999Z</time></trkpt><trkpt lat="-31.900660583319194" lon="116.14896096655421"><ele>306.0</ele><time>2026-04-05T02:31:01.999Z</time></trkpt><trkpt lat="-31.900676200636" lon="116.1492070661437"><ele>306.0</ele><time>2026-04-05T02:31:02.999Z</time></trkpt><trkpt lat="-31.900690292326136" lon="116.14945100948458"><ele>305.6666666666667</ele><time>2026-04-05T02:31:03.999Z</time></trkpt><trkpt lat="-31.900704366389967" lon="116.14968129048536"><ele>305.33333333333337</ele><time>2026-04-05T02:31:04.999Z</time></trkpt><trkpt lat="-31.900720459108957" lon="116.14989895547902"><ele>305.0</ele><time>2026-04-05T02:31:05.999Z</time></trkpt><trkpt lat="-31.900738028320102" lon="116.15010997085412"><ele>303.33333333333337</ele><time>2026-04-05T02:31:06.999Z</time></trkpt><trkpt lat="-31.900754803857232" lon="116.1503216030252"><ele>301.6666666666667</ele><time>2026-04-05T02:31:07.999Z</time></trkpt><trkpt lat="-31.900774297142643" lon="116.15053102902229"><ele>300.0</ele><time>2026-04-05T02:31:08.999Z</time></trkpt><trkpt lat="-31.900789422629643" lon="116.15073950723908"><ele>299.3333333333333</ele><time>2026-04-05T02:31:09.999Z</time></trkpt><trkpt lat="-31.900801334525003" lon="116.1509506082881"><ele>298.66666666666663</ele><time>2026-04-05T02:31:10.999Z</time></trkpt><trkpt lat="-31.900813995454204" lon="116.15116729579437"><ele>298.0</ele><time>2026-04-05T02:31:11.999Z</time></trkpt><trkpt lat="-31.900827096518807" lon="116.15139729661276"><ele>297.3333333333333</ele><time>2026-04-05T02:31:12.999Z</time></trkpt><trkpt lat="-31.90084181502945" lon="116.15163705809317"><ele>296.6666666666667</ele><time>2026-04-05T02:31:13.999Z</time></trkpt><trkpt lat="-31.900857290465495" lon="116.1518822322605"><ele>296.0</ele><time>2026-04-05T02:31:14.999Z</time></trkpt><trkpt lat="-31.900873302726833" lon="116.15212829704471"><ele>296.0</ele><time>2026-04-05T02:31:15.999Z</time></trkpt><trkpt lat="-31.900889928269596" lon="116.15237737051974"><ele>296.0</ele><time>2026-04-05T02:31:16.999Z</time></trkpt><trkpt lat="-31.900907007395197" lon="116.15262584615436"><ele>296.0</ele><time>2026-04-05T02:31:17.999Z</time></trkpt><trkpt lat="-31.900924348369546" lon="116.15287798208585"><ele>296.0</ele><time>2026-04-05T02:31:18.999Z</time></trkpt><trkpt lat="-31.90094422852819" lon="116.15312293664506"><ele>296.0</ele><time>2026-04-05T02:31:19.999Z</time></trkpt><trkpt lat="-31.90096289231849" lon="116.15336608798732"><ele>296.0</ele><time>2026-04-05T02:31:20.999Z</time></trkpt><trkpt lat="-31.900980460050118" lon="116.15360561831345"><ele>298.33333333333337</ele><time>2026-04-05T02:31:21.999Z</time></trkpt><trkpt lat="-31.901000766162504" lon="116.15384818641898"><ele>300.6666666666667</ele><time>2026-04-05T02:31:22.999Z</time></trkpt><trkpt lat="-31.901027066650663" lon="116.15408912962154"><ele>303.0</ele><time>2026-04-05T02:31:23.999Z</time></trkpt><trkpt lat="-31.90105831372165" lon="116.1543308395984"><ele>304.6666666666667</ele><time>2026-04-05T02:31:24.999Z</time></trkpt><trkpt lat="-31.901092196710607" lon="116.15457581564117"><ele>306.33333333333337</ele><time>2026-04-05T02:31:25.999Z</time></trkpt><trkpt lat="-31.901127519990588" lon="116.15482726331894"><ele>308.0</ele><time>2026-04-05T02:31:26.999Z</time></trkpt><trkpt lat="-31.901164053263667" lon="116.15507077932737"><ele>308.33333333333337</ele><time>2026-04-05T02:31:27.999Z</time></trkpt><trkpt lat="-31.901194440953585" lon="116.15531478977215"><ele>308.6666666666667</ele><time>2026-04-05T02:31:28.999Z</time></trkpt><trkpt lat="-31.90121953843598" lon="116.15556139105995"><ele>309.0</ele><time>2026-04-05T02:31:29.999Z</time></trkpt><trkpt lat="-31.901240292106124" lon="116.15580688521791"><ele>309.0</ele><time>2026-04-05T02:31:30.999Z</time></trkpt><trkpt lat="-31.90125375684055" lon="116.15604367520864"><ele>309.0</ele><time>2026-04-05T02:31:31.999Z</time></trkpt><trkpt lat="-31.901261900610997" lon="116.15626753409096"><ele>309.0</ele><time>2026-04-05T02:31:32.999Z</time></trkpt><trkpt lat="-31.901266489118974" lon="116.15648729524219"><ele>307.6666666666667</ele><time>2026-04-05T02:31:33.999Z</time></trkpt><trkpt lat="-31.901266450659282" lon="116.15670358128058"><ele>306.33333333333337</ele><time>2026-04-05T02:31:34.999Z</time></trkpt><trkpt lat="-31.901260800537575" lon="116.15690887370111"><ele>305.0</ele><time>2026-04-05T02:31:35.999Z</time></trkpt><trkpt lat="-31.901251740784083" lon="116.15711623764022"><ele>305.0</ele><time>2026-04-05T02:31:36.999Z</time></trkpt><trkpt lat="-31.901246575139574" lon="116.15730815893717"><ele>305.0</ele><time>2026-04-05T02:31:37.999Z</time></trkpt><trkpt lat="-31.90124131332783" lon="116.15750182531966"><ele>305.0</ele><time>2026-04-05T02:31:38.999Z</time></trkpt><trkpt lat="-31.901235153163324" lon="116.15769584177269"><ele>304.0</ele><time>2026-04-05T02:31:39.999Z</time></trkpt><trkpt lat="-31.901225325177325" lon="116.15789742337239"><ele>303.0</ele><time>2026-04-05T02:31:40.999Z</time></trkpt><trkpt lat="-31.901216443401758" lon="116.15810473464433"><ele>302.0</ele><time>2026-04-05T02:31:41.999Z</time></trkpt><trkpt lat="-31.90121559390759" lon="116.15831555993188"><ele>301.33333333333337</ele><time>2026-04-05T02:31:42.999Z</time></trkpt><trkpt lat="-31.901213648172714" lon="116.15853192379731"><ele>300.6666666666667</ele><time>2026-04-05T02:31:43.999Z</time></trkpt><trkpt lat="-31.901210558709717" lon="116.15874039799716"><ele>300.0</ele><time>2026-04-05T02:31:44.999Z</time></trkpt><trkpt lat="-31.901218935477562" lon="116.15893858036755"><ele>298.3333333333333</ele><time>2026-04-05T02:31:45.999Z</time></trkpt><trkpt lat="-31.901233140686635" lon="116.15913384731843"><ele>296.66666666666663</ele><time>2026-04-05T02:31:46.999Z</time></trkpt><trkpt lat="-31.901247738188676" lon="116.15932389055433"><ele>295.0</ele><time>2026-04-05T02:31:47.999Z</time></trkpt><trkpt lat="-31.901265948117782" lon="116.15951772320496"><ele>295.0</ele><time>2026-04-05T02:31:48.999Z</time></trkpt><trkpt lat="-31.901285868142526" lon="116.15971305172496"><ele>295.0</ele><time>2026-04-05T02:31:49.999Z</time></trkpt><trkpt lat="-31.90131455338445" lon="116.15990521781148"><ele>295.0</ele><time>2026-04-05T02:31:50.999Z</time></trkpt><trkpt lat="-31.901349181060457" lon="116.16009832245271"><ele>293.0</ele><time>2026-04-05T02:31:51.999Z</time></trkpt><trkpt lat="-31.90138514327229" lon="116.16029388917127"><ele>291.0</ele><time>2026-04-05T02:31:52.999Z</time></trkpt><trkpt lat="-31.901424989371055" lon="116.16048840553215"><ele>289.0</ele><time>2026-04-05T02:31:53.999Z</time></trkpt><trkpt lat="-31.901466804055186" lon="116.16068723126484"><ele>288.0</ele><time>2026-04-05T02:31:55Z</time></trkpt><trkpt lat="-31.901505073693468" lon="116.16088166044885"><ele>287.0</ele><time>2026-04-05T02:31:56Z</time></trkpt><trkpt lat="-31.90153792942896" lon="116.16108111805381"><ele>286.0</ele><time>2026-04-05T02:31:57Z</time></trkpt><trkpt lat="-31.901564069444238" lon="116.16128094542618"><ele>286.0</ele><time>2026-04-05T02:31:58Z</time></trkpt><trkpt lat="-31.901583180328977" lon="116.16148156379406"><ele>286.0</ele><time>2026-04-05T02:31:59Z</time></trkpt><trkpt lat="-31.90159550614268" lon="116.16168657443492"><ele>286.0</ele><time>2026-04-05T02:32:00Z</time></trkpt><trkpt lat="-31.90160135172963" lon="116.16189381426933"><ele>288.0</ele><time>2026-04-05T02:32:01Z</time></trkpt><trkpt lat="-31.90160412456794" lon="116.16209712544413"><ele>290.0</ele><time>2026-04-05T02:32:02Z</time></trkpt><trkpt lat="-31.901603839299664" lon="116.16229868832717"><ele>292.0</ele><time>2026-04-05T02:32:03Z</time></trkpt><trkpt lat="-31.9016031328652" lon="116.16249895969803"><ele>294.3333333333333</ele><time>2026-04-05T02:32:04Z</time></trkpt><trkpt lat="-31.90160304593811" lon="116.16269614998804"><ele>296.6666666666667</ele><time>2026-04-05T02:32:05Z</time></trkpt><trkpt lat="-31.901603183111686" lon="116.16288836429567"><ele>299.0</ele><time>2026-04-05T02:32:06Z</time></trkpt><trkpt lat="-31.901601324374067" lon="116.16306840082139"><ele>298.33333333333337</ele><time>2026-04-05T02:32:07Z</time></trkpt><trkpt lat="-31.901601442560285" lon="116.16324617021276"><ele>297.6666666666667</ele><time>2026-04-05T02:32:08Z</time></trkpt><trkpt lat="-31.90160222330175" lon="116.16342613107884"><ele>297.0</ele><time>2026-04-05T02:32:09Z</time></trkpt><trkpt lat="-31.901603201356703" lon="116.16360840140561"><ele>297.0</ele><time>2026-04-05T02:32:10Z</time></trkpt><trkpt lat="-31.90160666413909" lon="116.16379418244397"><ele>297.0</ele><time>2026-04-05T02:32:11Z</time></trkpt><trkpt lat="-31.90161242281828" lon="116.16397573910416"><ele>297.0</ele><time>2026-04-05T02:32:12Z</time></trkpt><trkpt lat="-31.90162217594078" lon="116.16414368175518"><ele>297.25</ele><time>2026-04-05T02:32:13Z</time></trkpt><trkpt lat="-31.90164008884809" lon="116.16430243333748"><ele>297.5</ele><time>2026-04-05T02:32:14Z</time></trkpt><trkpt lat="-31.90165810259613" lon="116.16444669471657"><ele>297.75</ele><time>2026-04-05T02:32:15Z</time></trkpt><trkpt lat="-31.9016739306392" lon="116.16459136782437"><ele>298.0</ele><time>2026-04-05T02:32:16Z</time></trkpt><trkpt lat="-31.90168018759702" lon="116.16473491550528"><ele>298.0</ele><time>2026-04-05T02:32:17Z</time></trkpt><trkpt lat="-31.901688451357714" lon="116.16486665605986"><ele>298.0</ele><time>2026-04-05T02:32:18Z</time></trkpt><trkpt lat="-31.901700882511133" lon="116.16499613821473"><ele>298.0</ele><time>2026-04-05T02:32:19Z</time></trkpt><trkpt lat="-31.901715089773543" lon="116.16512977089292"><ele>298.0</ele><time>2026-04-05T02:32:20Z</time></trkpt><trkpt lat="-31.901729799326993" lon="116.16526704082719"><ele>298.0</ele><time>2026-04-05T02:32:21Z</time></trkpt><trkpt lat="-31.901745372815007" lon="116.16540585295576"><ele>298.0</ele><time>2026-04-05T02:32:22Z</time></trkpt><trkpt lat="-31.901758808057473" lon="116.16554283841704"><ele>298.0</ele><time>2026-04-05T02:32:23Z</time></trkpt><trkpt lat="-31.901772022141856" lon="116.1656813650373"><ele>298.0</ele><time>2026-04-05T02:32:24Z</time></trkpt><trkpt lat="-31.90178472975354" lon="116.165817848968"><ele>298.5</ele><time>2026-04-05T02:32:25Z</time></trkpt><trkpt lat="-31.901795762028968" lon="116.16595423310632"><ele>299.0</ele><time>2026-04-05T02:32:26Z</time></trkpt><trkpt lat="-31.901807059809112" lon="116.16608779263832"><ele>299.5</ele><time>2026-04-05T02:32:27Z</time></trkpt><trkpt lat="-31.901820374286963" lon="116.16622294880271"><ele>300.0</ele><time>2026-04-05T02:32:28Z</time></trkpt><trkpt lat="-31.90183572896123" lon="116.16635962476516"><ele>300.0</ele><time>2026-04-05T02:32:29Z</time></trkpt><trkpt lat="-31.901847286335748" lon="116.16649149949372"><ele>300.0</ele><time>2026-04-05T02:32:30Z</time></trkpt><trkpt lat="-31.90185617769754" lon="116.16661594374091"><ele>300.0</ele><time>2026-04-05T02:32:31Z</time></trkpt><trkpt lat="-31.901866219164827" lon="116.16673298683422"><ele>300.0</ele><time>2026-04-05T02:32:32Z</time></trkpt><trkpt lat="-31.901875233297915" lon="116.16684319885078"><ele>300.0</ele><time>2026-04-05T02:32:33Z</time></trkpt><trkpt lat="-31.90188492584865" lon="116.16694973045234"><ele>299.3333333333333</ele><time>2026-04-05T02:32:34Z</time></trkpt><trkpt lat="-31.901895404131626" lon="116.16705042393905"><ele>298.6666666666667</ele><time>2026-04-05T02:32:35Z</time></trkpt><trkpt lat="-31.90190542960214" lon="116.1671460638356"><ele>298.0</ele><time>2026-04-05T02:32:36Z</time></trkpt><trkpt lat="-31.901914810509634" lon="116.16724185512781"><ele>297.33333333333337</ele><time>2026-04-05T02:32:37Z</time></trkpt><trkpt lat="-31.901922079058043" lon="116.1673384427145"><ele>296.6666666666667</ele><time>2026-04-05T02:32:38Z</time></trkpt><trkpt lat="-31.901927571836186" lon="116.16742779768586"><ele>296.0</ele><time>2026-04-05T02:32:38.999Z</time></trkpt><trkpt lat="-31.90193343298055" lon="116.16750951215943"><ele>295.8</ele><time>2026-04-05T02:32:39.999Z</time></trkpt><trkpt lat="-31.9019418522323" lon="116.16758450893576"><ele>295.6</ele><time>2026-04-05T02:32:40.999Z</time></trkpt><trkpt lat="-31.901957988895255" lon="116.16771511396594"><ele>295.4</ele><time>2026-04-05T02:32:42.999Z</time></trkpt><trkpt lat="-31.90196725938507" lon="116.16781249424211"><ele>295.2</ele><time>2026-04-05T02:33:00.999Z</time></trkpt><trkpt lat="-31.901976119697252" lon="116.16795114880901"><ele>295.0</ele><time>2026-04-05T02:33:02.999Z</time></trkpt><trkpt lat="-31.901985232801067" lon="116.1680489115105"><ele>295.0</ele><time>2026-04-05T02:33:03.999Z</time></trkpt><trkpt lat="-31.90199238603416" lon="116.16815789772397"><ele>295.0</ele><time>2026-04-05T02:33:04.999Z</time></trkpt><trkpt lat="-31.90200210915524" lon="116.1682855512223"><ele>295.0</ele><time>2026-04-05T02:33:05.999Z</time></trkpt><trkpt lat="-31.902015602496" lon="116.16843733285985"><ele>295.0</ele><time>2026-04-05T02:33:06.999Z</time></trkpt><trkpt lat="-31.902030718897905" lon="116.16860158382316"><ele>295.66666666666663</ele><time>2026-04-05T02:33:07.999Z</time></trkpt><trkpt lat="-31.902047790526176" lon="116.16878980004029"><ele>296.3333333333333</ele><time>2026-04-05T02:33:08.999Z</time></trkpt><trkpt lat="-31.902065978475644" lon="116.16898651935166"><ele>297.0</ele><time>2026-04-05T02:33:09.999Z</time></trkpt><trkpt lat="-31.902090533921573" lon="116.16920303033334"><ele>297.0</ele><time>2026-04-05T02:33:10.999Z</time></trkpt><trkpt lat="-31.902110185772436" lon="116.16940644024108"><ele>297.0</ele><time>2026-04-05T02:33:11.999Z</time></trkpt><trkpt lat="-31.902129485052154" lon="116.16960972754283"><ele>297.0</ele><time>2026-04-05T02:33:12.999Z</time></trkpt><trkpt lat="-31.90215056567728" lon="116.1698282028812"><ele>299.3333333333333</ele><time>2026-04-05T02:33:13.999Z</time></trkpt><trkpt lat="-31.902171352525368" lon="116.17005941463404"><ele>301.66666666666663</ele><time>2026-04-05T02:33:14.999Z</time></trkpt><trkpt lat="-31.902193159268553" lon="116.17029058381394"><ele>304.0</ele><time>2026-04-05T02:33:15.999Z</time></trkpt><trkpt lat="-31.902214500126068" lon="116.1705277606144"><ele>304.66666666666663</ele><time>2026-04-05T02:33:16.999Z</time></trkpt><trkpt lat="-31.902233091140616" lon="116.17077590649947"><ele>305.3333333333333</ele><time>2026-04-05T02:33:17.999Z</time></trkpt><trkpt lat="-31.902253574805425" lon="116.17101516494425"><ele>306.0</ele><time>2026-04-05T02:33:18.999Z</time></trkpt><trkpt lat="-31.902275781095156" lon="116.17125397531981"><ele>306.0</ele><time>2026-04-05T02:33:19.999Z</time></trkpt><trkpt lat="-31.902300423049457" lon="116.171498285429"><ele>306.0</ele><time>2026-04-05T02:33:20.999Z</time></trkpt><trkpt lat="-31.902324379435107" lon="116.17174233816003"><ele>306.0</ele><time>2026-04-05T02:33:21.999Z</time></trkpt><trkpt lat="-31.902349028363833" lon="116.17198813489972"><ele>306.0</ele><time>2026-04-05T02:33:22.999Z</time></trkpt><trkpt lat="-31.90237126994571" lon="116.17223072295513"><ele>306.0</ele><time>2026-04-05T02:33:23.999Z</time></trkpt><trkpt lat="-31.902393696974027" lon="116.17246622754986"><ele>306.0</ele><time>2026-04-05T02:33:24.999Z</time></trkpt><trkpt lat="-31.902417202442052" lon="116.17269751487244"><ele>308.0</ele><time>2026-04-05T02:33:25.999Z</time></trkpt><trkpt lat="-31.902443266254803" lon="116.17292617595321"><ele>310.0</ele><time>2026-04-05T02:33:26.999Z</time></trkpt><trkpt lat="-31.9024701574673" lon="116.17315703577192"><ele>312.0</ele><time>2026-04-05T02:33:27.999Z</time></trkpt><trkpt lat="-31.90249364960594" lon="116.173387766506"><ele>313.3333333333333</ele><time>2026-04-05T02:33:28.999Z</time></trkpt><trkpt lat="-31.90251789582127" lon="116.17361988934964"><ele>314.66666666666663</ele><time>2026-04-05T02:33:29.999Z</time></trkpt><trkpt lat="-31.902541777532434" lon="116.17385268963015"><ele>316.0</ele><time>2026-04-05T02:33:30.999Z</time></trkpt><trkpt lat="-31.902565409562623" lon="116.1740865490057"><ele>316.3333333333333</ele><time>2026-04-05T02:33:31.999Z</time></trkpt><trkpt lat="-31.90259241748769" lon="116.17432012321557"><ele>316.6666666666667</ele><time>2026-04-05T02:33:32.999Z</time></trkpt><trkpt lat="-31.90262100313842" lon="116.17455202067583"><ele>317.0</ele><time>2026-04-05T02:33:33.999Z</time></trkpt><trkpt lat="-31.902648522274863" lon="116.1747862831119"><ele>316.0</ele><time>2026-04-05T02:33:34.999Z</time></trkpt><trkpt lat="-31.902678399186886" lon="116.17501881890502"><ele>315.0</ele><time>2026-04-05T02:33:35.999Z</time></trkpt><trkpt lat="-31.902709795504975" lon="116.17524948217728"><ele>314.0</ele><time>2026-04-05T02:33:36.999Z</time></trkpt><trkpt lat="-31.902738588584054" lon="116.17548628878613"><ele>313.6666666666667</ele><time>2026-04-05T02:33:37.999Z</time></trkpt><trkpt lat="-31.902768418905417" lon="116.17572389905834"><ele>313.3333333333333</ele><time>2026-04-05T02:33:38.999Z</time></trkpt><trkpt lat="-31.902800008863352" lon="116.17596372510661"><ele>313.0</ele><time>2026-04-05T02:33:39.999Z</time></trkpt><trkpt lat="-31.902836072980268" lon="116.17620352064756"><ele>313.0</ele><time>2026-04-05T02:33:40.999Z</time></trkpt><trkpt lat="-31.902875725753923" lon="116.17644352458261"><ele>313.0</ele><time>2026-04-05T02:33:41.999Z</time></trkpt><trkpt lat="-31.902918046601666" lon="116.17668057158527"><ele>313.0</ele><time>2026-04-05T02:33:42.999Z</time></trkpt><trkpt lat="-31.902965752336122" lon="116.17691017590953"><ele>312.66666666666663</ele><time>2026-04-05T02:33:43.999Z</time></trkpt><trkpt lat="-31.903020000995642" lon="116.17713533437924"><ele>312.3333333333333</ele><time>2026-04-05T02:33:44.999Z</time></trkpt><trkpt lat="-31.903079182128998" lon="116.17735754402557"><ele>312.0</ele><time>2026-04-05T02:33:45.999Z</time></trkpt><trkpt lat="-31.903141886238036" lon="116.17758117789293"><ele>310.3333333333333</ele><time>2026-04-05T02:33:46.999Z</time></trkpt><trkpt lat="-31.903204781918195" lon="116.1778059436008"><ele>308.66666666666663</ele><time>2026-04-05T02:33:47.999Z</time></trkpt><trkpt lat="-31.903272639251046" lon="116.178024232035"><ele>307.0</ele><time>2026-04-05T02:33:48.999Z</time></trkpt><trkpt lat="-31.903347657381477" lon="116.17824309918107"><ele>306.66666666666663</ele><time>2026-04-05T02:33:49.999Z</time></trkpt><trkpt lat="-31.90342368077661" lon="116.17845955340478"><ele>306.3333333333333</ele><time>2026-04-05T02:33:50.999Z</time></trkpt><trkpt lat="-31.903500721018265" lon="116.1786712550847"><ele>306.0</ele><time>2026-04-05T02:33:51.999Z</time></trkpt><trkpt lat="-31.903580711457256" lon="116.1788780118056"><ele>305.6666666666667</ele><time>2026-04-05T02:33:52.999Z</time></trkpt><trkpt lat="-31.903663273215567" lon="116.17907662520246"><ele>305.33333333333337</ele><time>2026-04-05T02:33:53.999Z</time></trkpt><trkpt lat="-31.90374261803275" lon="116.1792696007466"><ele>305.0</ele><time>2026-04-05T02:33:54.999Z</time></trkpt><trkpt lat="-31.90382109992684" lon="116.17946123923561"><ele>305.0</ele><time>2026-04-05T02:33:55.999Z</time></trkpt><trkpt lat="-31.903899742088274" lon="116.17965533445395"><ele>305.0</ele><time>2026-04-05T02:33:56.999Z</time></trkpt><trkpt lat="-31.903979660138482" lon="116.17984652943498"><ele>305.0</ele><time>2026-04-05T02:33:57.999Z</time></trkpt><trkpt lat="-31.904060288700453" lon="116.18003663795275"><ele>306.0</ele><time>2026-04-05T02:33:58.999Z</time></trkpt><trkpt lat="-31.904143193980875" lon="116.18022852694294"><ele>307.0</ele><time>2026-04-05T02:34:00Z</time></trkpt><trkpt lat="-31.904226346445792" lon="116.18042175091307"><ele>308.0</ele><time>2026-04-05T02:34:01Z</time></trkpt><trkpt lat="-31.904308633675548" lon="116.18061798364643"><ele>311.6666666666667</ele><time>2026-04-05T02:34:02Z</time></trkpt><trkpt lat="-31.904393563485343" lon="116.18081549952356"><ele>315.3333333333333</ele><time>2026-04-05T02:34:03Z</time></trkpt><trkpt lat="-31.904476498949887" lon="116.18101439600943"><ele>319.0</ele><time>2026-04-05T02:34:04Z</time></trkpt><trkpt lat="-31.904554841627476" lon="116.18121108270226"><ele>319.0</ele><time>2026-04-05T02:34:05Z</time></trkpt><trkpt lat="-31.904631702876763" lon="116.18141201455998"><ele>319.0</ele><time>2026-04-05T02:34:06Z</time></trkpt><trkpt lat="-31.90470313977215" lon="116.18161687358304"><ele>319.0</ele><time>2026-04-05T02:34:07Z</time></trkpt><trkpt lat="-31.904770041261763" lon="116.18182856188119"><ele>318.3333333333333</ele><time>2026-04-05T02:34:08Z</time></trkpt><trkpt lat="-31.90483363853871" lon="116.1820386963784"><ele>317.6666666666667</ele><time>2026-04-05T02:34:09Z</time></trkpt><trkpt lat="-31.904892563250865" lon="116.18225256313575"><ele>317.0</ele><time>2026-04-05T02:34:10Z</time></trkpt><trkpt lat="-31.904946774946687" lon="116.18246564084984"><ele>318.33333333333337</ele><time>2026-04-05T02:34:11Z</time></trkpt><trkpt lat="-31.904997648435263" lon="116.18267280631738"><ele>319.6666666666667</ele><time>2026-04-05T02:34:12Z</time></trkpt><trkpt lat="-31.90504454604656" lon="116.18288324212408"><ele>321.0</ele><time>2026-04-05T02:34:13Z</time></trkpt><trkpt lat="-31.90508742609785" lon="116.18309181930354"><ele>323.3333333333333</ele><time>2026-04-05T02:34:14Z</time></trkpt><trkpt lat="-31.905124298858638" lon="116.18328870929379"><ele>325.66666666666663</ele><time>2026-04-05T02:34:15Z</time></trkpt><trkpt lat="-31.905157912090324" lon="116.18348427049752"><ele>328.0</ele><time>2026-04-05T02:34:16Z</time></trkpt><trkpt lat="-31.905187419014563" lon="116.18368799510922"><ele>328.0</ele><time>2026-04-05T02:34:17Z</time></trkpt><trkpt lat="-31.90521330526972" lon="116.18390464647663"><ele>328.0</ele><time>2026-04-05T02:34:18Z</time></trkpt><trkpt lat="-31.90524150949162" lon="116.18413192433779"><ele>328.0</ele><time>2026-04-05T02:34:19Z</time></trkpt><trkpt lat="-31.905266869499137" lon="116.18435582042909"><ele>329.66666666666663</ele><time>2026-04-05T02:34:20Z</time></trkpt><trkpt lat="-31.90528612693211" lon="116.18457729021381"><ele>331.3333333333333</ele><time>2026-04-05T02:34:21Z</time></trkpt><trkpt lat="-31.905303167462154" lon="116.18479631476103"><ele>333.0</ele><time>2026-04-05T02:34:22Z</time></trkpt><trkpt lat="-31.905320453891512" lon="116.18502477543241"><ele>333.0</ele><time>2026-04-05T02:34:23Z</time></trkpt><trkpt lat="-31.905334828255558" lon="116.1852517893351"><ele>333.0</ele><time>2026-04-05T02:34:24Z</time></trkpt><trkpt lat="-31.90535134578833" lon="116.18547788603468"><ele>333.0</ele><time>2026-04-05T02:34:25Z</time></trkpt><trkpt lat="-31.905358983446334" lon="116.18569744135858"><ele>332.3333333333333</ele><time>2026-04-05T02:34:26Z</time></trkpt><trkpt lat="-31.905364979154008" lon="116.18591548123457"><ele>331.66666666666663</ele><time>2026-04-05T02:34:27Z</time></trkpt><trkpt lat="-31.905370399170387" lon="116.18614360997407"><ele>331.0</ele><time>2026-04-05T02:34:28Z</time></trkpt><trkpt lat="-31.905375747700916" lon="116.18636873176936"><ele>331.3333333333333</ele><time>2026-04-05T02:34:29Z</time></trkpt><trkpt lat="-31.905385526839243" lon="116.18658325071425"><ele>331.6666666666667</ele><time>2026-04-05T02:34:30Z</time></trkpt><trkpt lat="-31.905393909528357" lon="116.18678235875862"><ele>332.0</ele><time>2026-04-05T02:34:31Z</time></trkpt><trkpt lat="-31.905403844648777" lon="116.186987063068"><ele>332.0</ele><time>2026-04-05T02:34:32Z</time></trkpt><trkpt lat="-31.90541088454887" lon="116.1871914449046"><ele>332.0</ele><time>2026-04-05T02:34:33Z</time></trkpt><trkpt lat="-31.905418261949325" lon="116.18740222689176"><ele>332.0</ele><time>2026-04-05T02:34:34Z</time></trkpt><trkpt lat="-31.90542541951808" lon="116.18761219824866"><ele>330.6666666666667</ele><time>2026-04-05T02:34:35Z</time></trkpt><trkpt lat="-31.905432697571598" lon="116.18781945474998"><ele>329.3333333333333</ele><time>2026-04-05T02:34:36Z</time></trkpt><trkpt lat="-31.90543725645641" lon="116.18802978284833"><ele>328.0</ele><time>2026-04-05T02:34:37Z</time></trkpt><trkpt lat="-31.90543885086583" lon="116.18824572473221"><ele>326.3333333333333</ele><time>2026-04-05T02:34:37.999Z</time></trkpt><trkpt lat="-31.905434794389166" lon="116.1884683283104"><ele>324.6666666666667</ele><time>2026-04-05T02:34:38.999Z</time></trkpt><trkpt lat="-31.905426898029894" lon="116.18869981726492"><ele>323.0</ele><time>2026-04-05T02:34:39.999Z</time></trkpt><trkpt lat="-31.905415613259247" lon="116.18893441346492"><ele>321.33333333333337</ele><time>2026-04-05T02:34:40.999Z</time></trkpt><trkpt lat="-31.90539914310139" lon="116.18916167623146"><ele>319.6666666666667</ele><time>2026-04-05T02:34:41.999Z</time></trkpt><trkpt lat="-31.90537791630194" lon="116.18937697681292"><ele>318.0</ele><time>2026-04-05T02:34:42.999Z</time></trkpt><trkpt lat="-31.90535410909675" lon="116.18958930135581"><ele>318.0</ele><time>2026-04-05T02:34:43.999Z</time></trkpt><trkpt lat="-31.905331997785822" lon="116.18980976923466"><ele>318.0</ele><time>2026-04-05T02:34:44.999Z</time></trkpt><trkpt lat="-31.905307003762527" lon="116.19003937862486"><ele>318.0</ele><time>2026-04-05T02:34:45.999Z</time></trkpt><trkpt lat="-31.905279534052227" lon="116.19027189072507"><ele>317.3333333333333</ele><time>2026-04-05T02:34:46.999Z</time></trkpt><trkpt lat="-31.90525093608761" lon="116.19050427740198"><ele>316.66666666666663</ele><time>2026-04-05T02:34:47.999Z</time></trkpt><trkpt lat="-31.90522050609347" lon="116.19073100019659"><ele>316.0</ele><time>2026-04-05T02:34:48.999Z</time></trkpt><trkpt lat="-31.90518801764157" lon="116.19095392197492"><ele>315.0</ele><time>2026-04-05T02:34:49.999Z</time></trkpt><trkpt lat="-31.905154518516547" lon="116.19117647164597"><ele>314.0</ele><time>2026-04-05T02:34:50.999Z</time></trkpt><trkpt lat="-31.905127112910147" lon="116.19139646168267"><ele>313.0</ele><time>2026-04-05T02:34:51.999Z</time></trkpt><trkpt lat="-31.905105160481884" lon="116.19161998969484"><ele>313.0</ele><time>2026-04-05T02:34:52.999Z</time></trkpt><trkpt lat="-31.90508409095637" lon="116.1918487972486"><ele>313.0</ele><time>2026-04-05T02:34:53.999Z</time></trkpt><trkpt lat="-31.905062090247473" lon="116.19208918468462"><ele>313.0</ele><time>2026-04-05T02:34:54.999Z</time></trkpt><trkpt lat="-31.90503825259267" lon="116.1923336657338"><ele>311.66666666666663</ele><time>2026-04-05T02:34:55.999Z</time></trkpt><trkpt lat="-31.90501181206765" lon="116.19257961336979"><ele>310.3333333333333</ele><time>2026-04-05T02:34:56.999Z</time></trkpt><trkpt lat="-31.904983348371488" lon="116.19281951263643"><ele>309.0</ele><time>2026-04-05T02:34:57.999Z</time></trkpt><trkpt lat="-31.904950764546868" lon="116.19306252338222"><ele>309.6666666666667</ele><time>2026-04-05T02:34:58.999Z</time></trkpt><trkpt lat="-31.904918626899452" lon="116.19329785070614"><ele>310.33333333333337</ele><time>2026-04-05T02:34:59.999Z</time></trkpt><trkpt lat="-31.904887334199955" lon="116.19353768032609"><ele>311.0</ele><time>2026-04-05T02:35:00.999Z</time></trkpt><trkpt lat="-31.904856665637727" lon="116.19377551238628"><ele>312.0</ele><time>2026-04-05T02:35:01.999Z</time></trkpt><trkpt lat="-31.904825824311057" lon="116.1940131373226"><ele>313.0</ele><time>2026-04-05T02:35:02.999Z</time></trkpt><trkpt lat="-31.90479488039711" lon="116.19425191349272"><ele>314.0</ele><time>2026-04-05T02:35:03.999Z</time></trkpt><trkpt lat="-31.90476538251493" lon="116.19449136570702"><ele>314.0</ele><time>2026-04-05T02:35:04.999Z</time></trkpt><trkpt lat="-31.90473691059296" lon="116.19473715786648"><ele>314.0</ele><time>2026-04-05T02:35:05.999Z</time></trkpt><trkpt lat="-31.904704470340764" lon="116.19499417533216"><ele>314.0</ele><time>2026-04-05T02:35:06.999Z</time></trkpt><trkpt lat="-31.90467085663545" lon="116.19523475534135"><ele>314.0</ele><time>2026-04-05T02:35:07.999Z</time></trkpt><trkpt lat="-31.904639417729488" lon="116.1954599834854"><ele>314.0</ele><time>2026-04-05T02:35:08.999Z</time></trkpt><trkpt lat="-31.9046093990688" lon="116.19568311193466"><ele>314.0</ele><time>2026-04-05T02:35:09.999Z</time></trkpt><trkpt lat="-31.904583285833013" lon="116.19590052717416"><ele>314.0</ele><time>2026-04-05T02:35:10.999Z</time></trkpt><trkpt lat="-31.904558438847523" lon="116.19612234982131"><ele>314.0</ele><time>2026-04-05T02:35:11.999Z</time></trkpt><trkpt lat="-31.904537976178574" lon="116.19634896566059"><ele>314.0</ele><time>2026-04-05T02:35:12.999Z</time></trkpt><trkpt lat="-31.904517508997053" lon="116.1965804989407"><ele>314.0</ele><time>2026-04-05T02:35:13.999Z</time></trkpt><trkpt lat="-31.90449576599266" lon="116.19681681288856"><ele>314.0</ele><time>2026-04-05T02:35:15Z</time></trkpt><trkpt lat="-31.90447321658372" lon="116.19705718144732"><ele>314.0</ele><time>2026-04-05T02:35:16Z</time></trkpt><trkpt lat="-31.904452618001383" lon="116.19729258324146"><ele>313.6666666666667</ele><time>2026-04-05T02:35:17Z</time></trkpt><trkpt lat="-31.90442918565327" lon="116.19752360401743"><ele>313.3333333333333</ele><time>2026-04-05T02:35:18Z</time></trkpt><trkpt lat="-31.9044054928639" lon="116.19774961394312"><ele>313.0</ele><time>2026-04-05T02:35:19Z</time></trkpt><trkpt lat="-31.904382358719616" lon="116.19797177838895"><ele>313.3333333333333</ele><time>2026-04-05T02:35:20Z</time></trkpt><trkpt lat="-31.904357013115625" lon="116.19818767665429"><ele>313.6666666666667</ele><time>2026-04-05T02:35:21Z</time></trkpt><trkpt lat="-31.904334256257208" lon="116.19839459546789"><ele>314.0</ele><time>2026-04-05T02:35:22Z</time></trkpt><trkpt lat="-31.904310252068115" lon="116.19860319988065"><ele>314.0</ele><time>2026-04-05T02:35:23Z</time></trkpt><trkpt lat="-31.904290462051115" lon="116.19880501485022"><ele>314.0</ele><time>2026-04-05T02:35:24Z</time></trkpt><trkpt lat="-31.90427301655072" lon="116.19898960765698"><ele>314.0</ele><time>2026-04-05T02:35:25Z</time></trkpt><trkpt lat="-31.904260148360535" lon="116.19915577744622"><ele>314.5</ele><time>2026-04-05T02:35:26Z</time></trkpt><trkpt lat="-31.904248093531045" lon="116.19931252746036"><ele>315.0</ele><time>2026-04-05T02:35:27Z</time></trkpt><trkpt lat="-31.904231306165997" lon="116.19945712100849"><ele>315.5</ele><time>2026-04-05T02:35:28Z</time></trkpt><trkpt lat="-31.90421492122796" lon="116.19958917159815"><ele>316.0</ele><time>2026-04-05T02:35:29Z</time></trkpt><trkpt lat="-31.904200709286197" lon="116.19971314942303"><ele>316.0</ele><time>2026-04-05T02:35:30Z</time></trkpt><trkpt lat="-31.904188076348262" lon="116.19981765476838"><ele>316.0</ele><time>2026-04-05T02:35:31Z</time></trkpt><trkpt lat="-31.90418098270318" lon="116.19989899518286"><ele>316.0</ele><time>2026-04-05T02:35:32Z</time></trkpt><trkpt lat="-31.904191891874014" lon="116.20002551326516"><ele>316.0</ele><time>2026-04-05T02:35:34Z</time></trkpt><trkpt lat="-31.904285498764143" lon="116.2000364078957"><ele>316.0</ele><time>2026-04-05T02:35:35Z</time></trkpt><trkpt lat="-31.90434887175779" lon="116.20002999894236"><ele>316.0</ele><time>2026-04-05T02:35:36Z</time></trkpt><trkpt lat="-31.90442008871975" lon="116.2000267774493"><ele>316.16666666666663</ele><time>2026-04-05T02:35:37Z</time></trkpt><trkpt lat="-31.904477986534577" lon="116.19997304251513"><ele>316.3333333333333</ele><time>2026-04-05T02:35:38Z</time></trkpt><trkpt lat="-31.9045277958915" lon="116.19990516494416"><ele>316.5</ele><time>2026-04-05T02:35:39Z</time></trkpt><trkpt lat="-31.904579088931634" lon="116.19977098399075"><ele>316.6666666666667</ele><time>2026-04-05T02:35:41Z</time></trkpt><trkpt lat="-31.904592410847556" lon="116.19969239941416"><ele>316.83333333333337</ele><time>2026-04-05T02:35:42Z</time></trkpt><trkpt lat="-31.904613068020733" lon="116.19962015092334"><ele>317.0</ele><time>2026-04-05T02:35:43Z</time></trkpt><trkpt lat="-31.90463566390795" lon="116.19952990320922"><ele>317.0</ele><time>2026-04-05T02:35:44Z</time></trkpt><trkpt lat="-31.904683483090633" lon="116.1994447899243"><ele>317.0</ele><time>2026-04-05T02:35:45Z</time></trkpt><trkpt lat="-31.90475902163887" lon="116.19938457643245"><ele>317.0</ele><time>2026-04-05T02:35:46Z</time></trkpt><trkpt lat="-31.904839817450085" lon="116.19931889251788"><ele>317.0</ele><time>2026-04-05T02:35:47Z</time></trkpt><trkpt lat="-31.904937582640223" lon="116.19925300268397"><ele>317.0</ele><time>2026-04-05T02:35:48Z</time></trkpt><trkpt lat="-31.90502932650829" lon="116.19919402250274"><ele>317.0</ele><time>2026-04-05T02:35:49Z</time></trkpt><trkpt lat="-31.905117238930288" lon="116.19914023065772"><ele>317.0</ele><time>2026-04-05T02:35:50Z</time></trkpt><trkpt lat="-31.90520028606844" lon="116.1990898118747"><ele>317.0</ele><time>2026-04-05T02:35:51Z</time></trkpt><trkpt lat="-31.90527757434927" lon="116.1990431957823"><ele>317.0</ele><time>2026-04-05T02:35:52Z</time></trkpt><trkpt lat="-31.9053453298148" lon="116.1990020756807"><ele>317.0</ele><time>2026-04-05T02:35:53Z</time></trkpt><trkpt lat="-31.905392947807105" lon="116.1989517163103"><ele>317.0</ele><time>2026-04-05T02:35:54Z</time></trkpt><trkpt lat="-31.905492019309886" lon="116.19890309330764"><ele>316.6666666666667</ele><time>2026-04-05T02:41:51Z</time></trkpt><trkpt lat="-31.905558209550538" lon="116.19886491576058"><ele>316.33333333333337</ele><time>2026-04-05T02:41:52Z</time></trkpt><trkpt lat="-31.905629331528278" lon="116.1988243747294"><ele>316.0</ele><time>2026-04-05T02:41:53Z</time></trkpt><trkpt lat="-31.905705308231443" lon="116.19878297214534"><ele>315.6666666666667</ele><time>2026-04-05T02:41:54Z</time></trkpt><trkpt lat="-31.905784334132182" lon="116.19873871669968"><ele>315.3333333333333</ele><time>2026-04-05T02:41:55Z</time></trkpt><trkpt lat="-31.905869306391054" lon="116.19869120879241"><ele>315.0</ele><time>2026-04-05T02:41:56Z</time></trkpt><trkpt lat="-31.905949260939174" lon="116.19864766790627"><ele>315.0</ele><time>2026-04-05T02:41:57Z</time></trkpt><trkpt lat="-31.90602121309392" lon="116.19861453129195"><ele>315.0</ele><time>2026-04-05T02:41:58Z</time></trkpt><trkpt lat="-31.90609136263684" lon="116.19858188744195"><ele>315.0</ele><time>2026-04-05T02:41:59Z</time></trkpt><trkpt lat="-31.90616517438829" lon="116.1985385200133"><ele>315.0</ele><time>2026-04-05T02:42:00Z</time></trkpt><trkpt lat="-31.906235827896996" lon="116.19848731061658"><ele>315.0</ele><time>2026-04-05T02:42:02Z</time></trkpt><trkpt lat="-31.906347670706314" lon="116.19841440844709"><ele>315.0</ele><time>2026-04-05T02:42:04Z</time></trkpt><trkpt lat="-31.906457066161217" lon="116.19834788180512"><ele>315.0</ele><time>2026-04-05T02:42:05Z</time></trkpt><trkpt lat="-31.906562699322812" lon="116.19828891763315"><ele>315.0</ele><time>2026-04-05T02:42:06Z</time></trkpt><trkpt lat="-31.906647726551927" lon="116.19825014861951"><ele>315.0</ele><time>2026-04-05T02:42:08Z</time></trkpt><trkpt lat="-31.906708999377127" lon="116.19820689141338"><ele>315.0</ele><time>2026-04-05T02:42:11Z</time></trkpt><trkpt lat="-31.906822458263882" lon="116.198141376101"><ele>315.0</ele><time>2026-04-05T02:42:24Z</time></trkpt><trkpt lat="-31.90691419208708" lon="116.19811164848286"><ele>314.3333333333333</ele><time>2026-04-05T02:42:26Z</time></trkpt><trkpt lat="-31.90698237524761" lon="116.19807157849668"><ele>313.6666666666667</ele><time>2026-04-05T02:42:27Z</time></trkpt><trkpt lat="-31.907046050515884" lon="116.1980365720171"><ele>313.0</ele><time>2026-04-05T02:42:28Z</time></trkpt><trkpt lat="-31.907135402133086" lon="116.19798745046239"><ele>312.33333333333337</ele><time>2026-04-05T02:42:30Z</time></trkpt><trkpt lat="-31.907204423577458" lon="116.1979496281759"><ele>311.6666666666667</ele><time>2026-04-05T02:42:31Z</time></trkpt><trkpt lat="-31.907306899356556" lon="116.19789391380486"><ele>311.0</ele><time>2026-04-05T02:42:32Z</time></trkpt><trkpt lat="-31.90742522269818" lon="116.19782867712844"><ele>311.0</ele><time>2026-04-05T02:42:33Z</time></trkpt><trkpt lat="-31.90757167284176" lon="116.19774894161158"><ele>311.0</ele><time>2026-04-05T02:42:34Z</time></trkpt><trkpt lat="-31.90770156096066" lon="116.19767702338801"><ele>311.0</ele><time>2026-04-05T02:42:35Z</time></trkpt><trkpt lat="-31.907826130536716" lon="116.19760903381311"><ele>311.0</ele><time>2026-04-05T02:42:36Z</time></trkpt><trkpt lat="-31.907950240601707" lon="116.19753799288678"><ele>311.33333333333337</ele><time>2026-04-05T02:42:37Z</time></trkpt><trkpt lat="-31.908088188162097" lon="116.19745965856427"><ele>311.6666666666667</ele><time>2026-04-05T02:42:38Z</time></trkpt><trkpt lat="-31.908236113491064" lon="116.19737478475133"><ele>312.0</ele><time>2026-04-05T02:42:39Z</time></trkpt><trkpt lat="-31.908372814456257" lon="116.19729656004071"><ele>307.0</ele><time>2026-04-05T02:42:40Z</time></trkpt><trkpt lat="-31.908506617763774" lon="116.19721931043155"><ele>302.0</ele><time>2026-04-05T02:42:41Z</time></trkpt><trkpt lat="-31.908639871660796" lon="116.19714172969627"><ele>297.0</ele><time>2026-04-05T02:42:42Z</time></trkpt><trkpt lat="-31.908784228308082" lon="116.19705867988125"><ele>297.0</ele><time>2026-04-05T02:42:43Z</time></trkpt><trkpt lat="-31.908922203236465" lon="116.19696083689084"><ele>297.0</ele><time>2026-04-05T02:42:44Z</time></trkpt><trkpt lat="-31.909071458104854" lon="116.19687599974851"><ele>297.0</ele><time>2026-04-05T02:42:45Z</time></trkpt><trkpt lat="-31.909224551006567" lon="116.19678757570054"><ele>296.0</ele><time>2026-04-05T02:42:46Z</time></trkpt><trkpt lat="-31.90938541730656" lon="116.19669221374258"><ele>295.0</ele><time>2026-04-05T02:42:47Z</time></trkpt><trkpt lat="-31.909539118371278" lon="116.1966032179525"><ele>294.0</ele><time>2026-04-05T02:42:48Z</time></trkpt><trkpt lat="-31.909689173495643" lon="116.1965227555181"><ele>294.6666666666667</ele><time>2026-04-05T02:42:49Z</time></trkpt><trkpt lat="-31.90983149334135" lon="116.1964384914441"><ele>295.33333333333337</ele><time>2026-04-05T02:42:50Z</time></trkpt><trkpt lat="-31.909976336974847" lon="116.19635849016869"><ele>296.0</ele><time>2026-04-05T02:42:51Z</time></trkpt><trkpt lat="-31.910139398700615" lon="116.19626780117258"><ele>296.0</ele><time>2026-04-05T02:42:52Z</time></trkpt><trkpt lat="-31.910307235570375" lon="116.19617125155497"><ele>296.0</ele><time>2026-04-05T02:42:53Z</time></trkpt><trkpt lat="-31.910499037088925" lon="116.19606269267025"><ele>296.0</ele><time>2026-04-05T02:42:54Z</time></trkpt><trkpt lat="-31.910685783637177" lon="116.19595553197414"><ele>296.0</ele><time>2026-04-05T02:42:55Z</time></trkpt><trkpt lat="-31.91085324624075" lon="116.1958560112482"><ele>296.0</ele><time>2026-04-05T02:42:56Z</time></trkpt><trkpt lat="-31.91100368296553" lon="116.19576564199984"><ele>296.0</ele><time>2026-04-05T02:42:57Z</time></trkpt><trkpt lat="-31.91115929789569" lon="116.19567480552297"><ele>301.0</ele><time>2026-04-05T02:42:58Z</time></trkpt><trkpt lat="-31.911304997601018" lon="116.19558824655118"><ele>306.0</ele><time>2026-04-05T02:42:59Z</time></trkpt><trkpt lat="-31.911446966896293" lon="116.19550860513246"><ele>311.0</ele><time>2026-04-05T02:43:00Z</time></trkpt><trkpt lat="-31.911589586188924" lon="116.19542894432814"><ele>311.0</ele><time>2026-04-05T02:43:01Z</time></trkpt><trkpt lat="-31.91169850973086" lon="116.19536307176632"><ele>311.0</ele><time>2026-04-05T02:43:02Z</time></trkpt><trkpt lat="-31.91181072308942" lon="116.19529972586103"><ele>311.0</ele><time>2026-04-05T02:43:03Z</time></trkpt><trkpt lat="-31.911934243148252" lon="116.19523748893873"><ele>311.0</ele><time>2026-04-05T02:43:04Z</time></trkpt><trkpt lat="-31.912059067333505" lon="116.19517485702804"><ele>312.75</ele><time>2026-04-05T02:43:05Z</time></trkpt><trkpt lat="-31.912191750776216" lon="116.19509617479096"><ele>314.5</ele><time>2026-04-05T02:43:06Z</time></trkpt><trkpt lat="-31.912312780848197" lon="116.19501835644766"><ele>316.25</ele><time>2026-04-05T02:43:07Z</time></trkpt><trkpt lat="-31.91240699848421" lon="116.19496045962012"><ele>318.0</ele><time>2026-04-05T02:43:08Z</time></trkpt><trkpt lat="-31.912507840387857" lon="116.19492100744169"><ele>318.5</ele><time>2026-04-05T02:43:09Z</time></trkpt><trkpt lat="-31.91262250202155" lon="116.19484084050153"><ele>319.0</ele><time>2026-04-05T02:43:10Z</time></trkpt><trkpt lat="-31.91273863856675" lon="116.1947882103274"><ele>319.5</ele><time>2026-04-05T02:43:11Z</time></trkpt><trkpt lat="-31.912853948084273" lon="116.19472325559148"><ele>320.0</ele><time>2026-04-05T02:43:12Z</time></trkpt><trkpt lat="-31.912966165787875" lon="116.19465248965011"><ele>322.6</ele><time>2026-04-05T02:43:13Z</time></trkpt><trkpt lat="-31.91308842841175" lon="116.19458472656831"><ele>325.2</ele><time>2026-04-05T02:43:14Z</time></trkpt><trkpt lat="-31.91318769632696" lon="116.19453034990933"><ele>327.79999999999995</ele><time>2026-04-05T02:43:15Z</time></trkpt><trkpt lat="-31.913260549946887" lon="116.19448263004026"><ele>330.4</ele><time>2026-04-05T02:43:16Z</time></trkpt><trkpt lat="-31.913329735266544" lon="116.19446322447317"><ele>333.0</ele><time>2026-04-05T02:43:17Z</time></trkpt><trkpt lat="-31.913438235973207" lon="116.19440280123375"><ele>333.59999999999997</ele><time>2026-04-05T02:43:19Z</time></trkpt><trkpt lat="-31.913500557582168" lon="116.19436809520394"><ele>334.2</ele><time>2026-04-05T02:43:20Z</time></trkpt><trkpt lat="-31.913613575807226" lon="116.19430504883657"><ele>334.8</ele><time>2026-04-05T02:43:22Z</time></trkpt><trkpt lat="-31.913675254779864" lon="116.19427050120315"><ele>335.4</ele><time>2026-04-05T02:43:23Z</time></trkpt><trkpt lat="-31.913795858278704" lon="116.1942029487521"><ele>336.0</ele><time>2026-04-05T02:43:25Z</time></trkpt><trkpt lat="-31.913871824019367" lon="116.19416039878223"><ele>336.0</ele><time>2026-04-05T02:43:26Z</time></trkpt><trkpt lat="-31.913968426277624" lon="116.19410637169078"><ele>336.0</ele><time>2026-04-05T02:43:27Z</time></trkpt><trkpt lat="-31.91407406257321" lon="116.1940469996401"><ele>336.0</ele><time>2026-04-05T02:43:28Z</time></trkpt><trkpt lat="-31.914149686671635" lon="116.19400314167176"><ele>336.0</ele><time>2026-04-05T02:43:29Z</time></trkpt><trkpt lat="-31.9142111800021" lon="116.19396751546981"><ele>336.0</ele><time>2026-04-05T02:43:30Z</time></trkpt><trkpt lat="-31.914289443424416" lon="116.19391984726482"><ele>336.0</ele><time>2026-04-05T02:43:32Z</time></trkpt><trkpt lat="-31.914404680484516" lon="116.1938473720081"><ele>336.0</ele><time>2026-04-05T02:43:34Z</time></trkpt><trkpt lat="-31.91446035022071" lon="116.19381149283922"><ele>336.0</ele><time>2026-04-05T02:43:35Z</time></trkpt><trkpt lat="-31.914515996119192" lon="116.1937741283873"><ele>336.0</ele><time>2026-04-05T02:43:36Z</time></trkpt><trkpt lat="-31.91459354762173" lon="116.19370930321045"><ele>336.0</ele><time>2026-04-05T02:43:38Z</time></trkpt><trkpt lat="-31.91465388387749" lon="116.19365462917487"><ele>336.0</ele><time>2026-04-05T02:43:40Z</time></trkpt><trkpt lat="-31.914705829255436" lon="116.1936075588933"><ele>336.0</ele><time>2026-04-05T02:43:55Z</time></trkpt><trkpt lat="-31.914777794711682" lon="116.1935782040771"><ele>336.0</ele><time>2026-04-05T02:43:57Z</time></trkpt><trkpt lat="-31.91484706895442" lon="116.19356286632393"><ele>336.0</ele><time>2026-04-05T02:43:58Z</time></trkpt><trkpt lat="-31.914908935740012" lon="116.19354809543414"><ele>336.0</ele><time>2026-04-05T02:43:59Z</time></trkpt><trkpt lat="-31.915008203276567" lon="116.19350156554655"><ele>336.0</ele><time>2026-04-05T02:44:01Z</time></trkpt><trkpt lat="-31.91507637853963" lon="116.19346688442297"><ele>336.0</ele><time>2026-04-05T02:44:03Z</time></trkpt><trkpt lat="-31.91513678242785" lon="116.19343953952315"><ele>336.0</ele><time>2026-04-05T02:44:10Z</time></trkpt><trkpt lat="-31.915243476361518" lon="116.19338539986103"><ele>336.0</ele><time>2026-04-05T02:44:12Z</time></trkpt><trkpt lat="-31.91531829237439" lon="116.19332227732355"><ele>336.0</ele><time>2026-04-05T02:44:15Z</time></trkpt><trkpt lat="-31.91537434356575" lon="116.19327896606823"><ele>336.0</ele><time>2026-04-05T02:44:16Z</time></trkpt><trkpt lat="-31.915434729147794" lon="116.19307228875223"><ele>334.8</ele><time>2026-04-05T02:44:17Z</time></trkpt><trkpt lat="-31.915517775067038" lon="116.19305918594948"><ele>333.6</ele><time>2026-04-05T02:44:18Z</time></trkpt><trkpt lat="-31.91561610226709" lon="116.19302117317939"><ele>332.4</ele><time>2026-04-05T02:44:19Z</time></trkpt><trkpt lat="-31.915733175741266" lon="116.19296705820634"><ele>331.2</ele><time>2026-04-05T02:44:20Z</time></trkpt><trkpt lat="-31.91584179521304" lon="116.19291444986528"><ele>330.0</ele><time>2026-04-05T02:44:21Z</time></trkpt><trkpt lat="-31.91595206464845" lon="116.19285918169629"><ele>329.2</ele><time>2026-04-05T02:44:22Z</time></trkpt><trkpt lat="-31.916051055765923" lon="116.19280844562323"><ele>328.4</ele><time>2026-04-05T02:44:23Z</time></trkpt><trkpt lat="-31.916124963826583" lon="116.19277002548097"><ele>327.6</ele><time>2026-04-05T02:44:24Z</time></trkpt><trkpt lat="-31.91621577158697" lon="116.19272162972872"><ele>326.8</ele><time>2026-04-05T02:44:25Z</time></trkpt><trkpt lat="-31.91629664149719" lon="116.1926844506046"><ele>326.0</ele><time>2026-04-05T02:44:26Z</time></trkpt><trkpt lat="-31.916374920288238" lon="116.19264084787378"><ele>326.0</ele><time>2026-04-05T02:44:27Z</time></trkpt><trkpt lat="-31.916469452792338" lon="116.1925975186217"><ele>326.0</ele><time>2026-04-05T02:44:28Z</time></trkpt><trkpt lat="-31.916555711717933" lon="116.19255679155549"><ele>326.0</ele><time>2026-04-05T02:44:29Z</time></trkpt><trkpt lat="-31.91664266716019" lon="116.19250098897774"><ele>326.0</ele><time>2026-04-05T02:44:30Z</time></trkpt><trkpt lat="-31.916727326162146" lon="116.19243690185961"><ele>326.0</ele><time>2026-04-05T02:44:31Z</time></trkpt><trkpt lat="-31.91682230166221" lon="116.19238130520604"><ele>325.4</ele><time>2026-04-05T02:44:32Z</time></trkpt><trkpt lat="-31.91690664956178" lon="116.19233193157078"><ele>324.8</ele><time>2026-04-05T02:44:33Z</time></trkpt><trkpt lat="-31.91699903096452" lon="116.19227819446706"><ele>324.2</ele><time>2026-04-05T02:44:34Z</time></trkpt><trkpt lat="-31.917096572362492" lon="116.19221912896687"><ele>323.59999999999997</ele><time>2026-04-05T02:44:35Z</time></trkpt><trkpt lat="-31.917202522762278" lon="116.1921556240574"><ele>323.0</ele><time>2026-04-05T02:44:36Z</time></trkpt><trkpt lat="-31.91731457773767" lon="116.1921013942193"><ele>323.0</ele><time>2026-04-05T02:44:37Z</time></trkpt><trkpt lat="-31.917424177334237" lon="116.1920346015771"><ele>323.0</ele><time>2026-04-05T02:44:38Z</time></trkpt><trkpt lat="-31.917550196265655" lon="116.19194606759245"><ele>323.0</ele><time>2026-04-05T02:44:39Z</time></trkpt><trkpt lat="-31.917659315497307" lon="116.19188022570022"><ele>323.0</ele><time>2026-04-05T02:44:40Z</time></trkpt><trkpt lat="-31.917758166382228" lon="116.1918212315717"><ele>321.75</ele><time>2026-04-05T02:44:41Z</time></trkpt><trkpt lat="-31.91785606900956" lon="116.19176280339488"><ele>320.5</ele><time>2026-04-05T02:44:42Z</time></trkpt><trkpt lat="-31.917956214190607" lon="116.19170356196862"><ele>319.25</ele><time>2026-04-05T02:44:43Z</time></trkpt><trkpt lat="-31.918055075096156" lon="116.19164610823205"><ele>318.0</ele><time>2026-04-05T02:44:44Z</time></trkpt><trkpt lat="-31.918161743790545" lon="116.19158469822938"><ele>318.0</ele><time>2026-04-05T02:44:45Z</time></trkpt><trkpt lat="-31.918258301492678" lon="116.19152910925837"><ele>318.0</ele><time>2026-04-05T02:44:46Z</time></trkpt><trkpt lat="-31.91835095365094" lon="116.19147713455533"><ele>318.0</ele><time>2026-04-05T02:44:47Z</time></trkpt><trkpt lat="-31.91843795914814" lon="116.19142949181843"><ele>318.0</ele><time>2026-04-05T02:44:48Z</time></trkpt><trkpt lat="-31.918509321236815" lon="116.19139084431804"><ele>318.0</ele><time>2026-04-05T02:44:49Z</time></trkpt><trkpt lat="-31.918575138741556" lon="116.19135519956977"><ele>316.4</ele><time>2026-04-05T02:44:50Z</time></trkpt><trkpt lat="-31.918637286907163" lon="116.19132228139863"><ele>314.8</ele><time>2026-04-05T02:44:51Z</time></trkpt><trkpt lat="-31.918758065533535" lon="116.1912583801627"><ele>313.2</ele><time>2026-04-05T02:44:53Z</time></trkpt><trkpt lat="-31.918837796385347" lon="116.19121577040933"><ele>311.6</ele><time>2026-04-05T02:44:54Z</time></trkpt><trkpt lat="-31.91895642979144" lon="116.19117391095737"><ele>310.0</ele><time>2026-04-05T02:44:55Z</time></trkpt><trkpt lat="-31.91905084627206" lon="116.19110875875056"><ele>310.0</ele><time>2026-04-05T02:44:56Z</time></trkpt><trkpt lat="-31.919143414744752" lon="116.19105138693945"><ele>310.0</ele><time>2026-04-05T02:44:57Z</time></trkpt><trkpt lat="-31.919230556328376" lon="116.19100170981012"><ele>310.0</ele><time>2026-04-05T02:44:58Z</time></trkpt><trkpt lat="-31.919332906515102" lon="116.19095808875254"><ele>310.0</ele><time>2026-04-05T02:44:59Z</time></trkpt><trkpt lat="-31.919433797626535" lon="116.19089967671287"><ele>310.0</ele><time>2026-04-05T02:45:00Z</time></trkpt><trkpt lat="-31.919534715353592" lon="116.19084426307346"><ele>309.6</ele><time>2026-04-05T02:45:01Z</time></trkpt><trkpt lat="-31.919619350295747" lon="116.19079229712332"><ele>309.2</ele><time>2026-04-05T02:45:02Z</time></trkpt><trkpt lat="-31.91970582036519" lon="116.19074998675725"><ele>308.8</ele><time>2026-04-05T02:45:03Z</time></trkpt><trkpt lat="-31.919793669273208" lon="116.190703904711"><ele>308.4</ele><time>2026-04-05T02:45:04Z</time></trkpt><trkpt lat="-31.919882561414685" lon="116.1906544492865"><ele>308.0</ele><time>2026-04-05T02:45:05Z</time></trkpt><trkpt lat="-31.919982564969644" lon="116.19058508671807"><ele>307.0</ele><time>2026-04-05T02:45:06Z</time></trkpt><trkpt lat="-31.920106826900145" lon="116.19050752213555"><ele>306.0</ele><time>2026-04-05T02:45:07Z</time></trkpt><trkpt lat="-31.920228527069142" lon="116.19043995392342"><ele>305.0</ele><time>2026-04-05T02:45:08Z</time></trkpt><trkpt lat="-31.920347828508653" lon="116.19036676298377"><ele>304.0</ele><time>2026-04-05T02:45:09Z</time></trkpt><trkpt lat="-31.920460601712836" lon="116.19027728117133"><ele>304.0</ele><time>2026-04-05T02:45:10Z</time></trkpt><trkpt lat="-31.920588920650587" lon="116.19019789861446"><ele>304.0</ele><time>2026-04-05T02:45:11Z</time></trkpt><trkpt lat="-31.92070222389372" lon="116.19012969131386"><ele>304.0</ele><time>2026-04-05T02:45:12Z</time></trkpt><trkpt lat="-31.920816027054432" lon="116.19006134717024"><ele>304.0</ele><time>2026-04-05T02:45:13Z</time></trkpt><trkpt lat="-31.920925500247648" lon="116.18999573345155"><ele>303.4</ele><time>2026-04-05T02:45:14Z</time></trkpt><trkpt lat="-31.921028273567135" lon="116.1899337990636"><ele>302.79999999999995</ele><time>2026-04-05T02:45:15Z</time></trkpt><trkpt lat="-31.92113738473413" lon="116.18986864167906"><ele>302.20000000000005</ele><time>2026-04-05T02:45:16Z</time></trkpt><trkpt lat="-31.921233583057834" lon="116.18981102916628"><ele>301.6</ele><time>2026-04-05T02:45:17Z</time></trkpt><trkpt lat="-31.921318052828745" lon="116.18976055856203"><ele>301.0</ele><time>2026-04-05T02:45:18Z</time></trkpt><trkpt lat="-31.9213788810224" lon="116.18972455156269"><ele>299.2</ele><time>2026-04-05T02:45:19Z</time></trkpt><trkpt lat="-31.92143854793939" lon="116.18968923194235"><ele>297.40000000000003</ele><time>2026-04-05T02:45:20Z</time></trkpt><trkpt lat="-31.921543264553353" lon="116.18962654789158"><ele>295.6</ele><time>2026-04-05T02:45:22Z</time></trkpt><trkpt lat="-31.92165093259387" lon="116.1895616031704"><ele>293.8</ele><time>2026-04-05T02:45:24Z</time></trkpt><trkpt lat="-31.92175771399943" lon="116.18949749238911"><ele>292.0</ele><time>2026-04-05T02:45:26Z</time></trkpt><trkpt lat="-31.921868743176425" lon="116.18943075930477"><ele>291.0</ele><time>2026-04-05T02:45:28Z</time></trkpt><trkpt lat="-31.921930963164304" lon="116.18939294928312"><ele>290.0</ele><time>2026-04-05T02:45:29Z</time></trkpt><trkpt lat="-31.92199257491371" lon="116.18935535620996"><ele>289.0</ele><time>2026-04-05T02:45:30Z</time></trkpt><trkpt lat="-31.922057581998303" lon="116.1893156908327"><ele>288.0</ele><time>2026-04-05T02:45:31Z</time></trkpt><trkpt lat="-31.92211720395546" lon="116.18927931144357"><ele>287.0</ele><time>2026-04-05T02:45:32Z</time></trkpt><trkpt lat="-31.922183915359366" lon="116.18923894996396"><ele>286.0</ele><time>2026-04-05T02:45:33Z</time></trkpt><trkpt lat="-31.922251738680533" lon="116.18919838071403"><ele>285.0</ele><time>2026-04-05T02:45:34Z</time></trkpt><trkpt lat="-31.92233153159756" lon="116.1891506517158"><ele>285.0</ele><time>2026-04-05T02:45:36Z</time></trkpt><trkpt lat="-31.922404279753625" lon="116.18910702152995"><ele>285.0</ele><time>2026-04-05T02:45:39Z</time></trkpt><trkpt lat="-31.922489130318635" lon="116.18905595792737"><ele>285.0</ele><time>2026-04-05T02:45:42Z</time></trkpt><trkpt lat="-31.922571232958575" lon="116.18900654807548"><ele>285.0</ele><time>2026-04-05T02:45:44Z</time></trkpt><trkpt lat="-31.922721586449438" lon="116.1890590606015"><ele>285.0</ele><time>2026-04-05T02:45:46Z</time></trkpt><trkpt lat="-31.92278411759195" lon="116.18902115900211"><ele>283.3333333333333</ele><time>2026-04-05T02:45:47Z</time></trkpt><trkpt lat="-31.922846768777685" lon="116.18899167593456"><ele>281.6666666666667</ele><time>2026-04-05T02:45:48Z</time></trkpt><trkpt lat="-31.92290262894744" lon="116.18895531116009"><ele>280.0</ele><time>2026-04-05T02:45:49Z</time></trkpt><trkpt lat="-31.92295767841916" lon="116.18891807507569"><ele>278.33333333333337</ele><time>2026-04-05T02:45:50Z</time></trkpt><trkpt lat="-31.923033373872894" lon="116.18886505195574"><ele>276.6666666666667</ele><time>2026-04-05T02:45:52Z</time></trkpt><trkpt lat="-31.92309901919073" lon="116.18881710597809"><ele>275.0</ele><time>2026-04-05T02:45:54Z</time></trkpt><trkpt lat="-31.923227771034046" lon="116.18875913191071"><ele>275.0</ele><time>2026-04-05T02:45:56Z</time></trkpt><trkpt lat="-31.923296160503224" lon="116.18871856696603"><ele>275.0</ele><time>2026-04-05T02:45:57Z</time></trkpt><trkpt lat="-31.92336298397105" lon="116.18867149325575"><ele>275.0</ele><time>2026-04-05T02:45:58Z</time></trkpt><trkpt lat="-31.923420524070554" lon="116.18863500766038"><ele>275.0</ele><time>2026-04-05T02:45:59Z</time></trkpt><trkpt lat="-31.923525708628638" lon="116.18857361042436"><ele>275.0</ele><time>2026-04-05T02:46:01Z</time></trkpt><trkpt lat="-31.923624309254585" lon="116.18852211159667"><ele>275.0</ele><time>2026-04-05T02:46:03Z</time></trkpt><trkpt lat="-31.923719106605766" lon="116.18849020382488"><ele>273.5</ele><time>2026-04-05T02:46:05Z</time></trkpt><trkpt lat="-31.92381087607262" lon="116.18840979234646"><ele>272.0</ele><time>2026-04-05T02:46:07Z</time></trkpt><trkpt lat="-31.92386585329877" lon="116.1883706373607"><ele>270.5</ele><time>2026-04-05T02:46:08Z</time></trkpt><trkpt lat="-31.92393211789782" lon="116.1883336449231"><ele>269.0</ele><time>2026-04-05T02:46:09Z</time></trkpt><trkpt lat="-31.923993672998876" lon="116.1883038303453"><ele>267.5</ele><time>2026-04-05T02:46:10Z</time></trkpt><trkpt lat="-31.92409452102642" lon="116.18826333535975"><ele>266.0</ele><time>2026-04-05T02:46:12Z</time></trkpt><trkpt lat="-31.924177650150295" lon="116.18819680582453"><ele>264.6666666666667</ele><time>2026-04-05T02:46:14Z</time></trkpt><trkpt lat="-31.924248791692783" lon="116.18813783320026"><ele>263.33333333333337</ele><time>2026-04-05T02:46:16Z</time></trkpt><trkpt lat="-31.924313689917277" lon="116.18809058494979"><ele>262.0</ele><time>2026-04-05T02:46:18Z</time></trkpt><trkpt lat="-31.924417567524102" lon="116.18805597331911"><ele>260.6666666666667</ele><time>2026-04-05T02:46:20Z</time></trkpt><trkpt lat="-31.924481848258157" lon="116.18802497657877"><ele>259.3333333333333</ele><time>2026-04-05T02:46:21Z</time></trkpt><trkpt lat="-31.92454611043922" lon="116.18799490833851"><ele>258.0</ele><time>2026-04-05T02:46:22Z</time></trkpt><trkpt lat="-31.924650177380794" lon="116.18792446257258"><ele>258.0</ele><time>2026-04-05T02:46:24Z</time></trkpt><trkpt lat="-31.92470508798942" lon="116.18788561812774"><ele>258.0</ele><time>2026-04-05T02:46:25Z</time></trkpt><trkpt lat="-31.924821176715934" lon="116.18784196941056"><ele>258.0</ele><time>2026-04-05T02:46:27Z</time></trkpt><trkpt lat="-31.924881685037853" lon="116.1878096003081"><ele>258.0</ele><time>2026-04-05T02:46:28Z</time></trkpt><trkpt lat="-31.924891789491994" lon="116.18765377739126"><ele>258.0</ele><time>2026-04-05T02:46:29Z</time></trkpt><trkpt lat="-31.924973259090127" lon="116.18761223038578"><ele>258.0</ele><time>2026-04-05T02:46:31Z</time></trkpt><trkpt lat="-31.92503729144048" lon="116.1877139793342"><ele>258.0</ele><time>2026-04-05T02:46:32Z</time></trkpt><trkpt lat="-31.92510346750154" lon="116.18771611893699"><ele>258.0</ele><time>2026-04-05T02:46:34Z</time></trkpt><trkpt lat="-31.925184198794152" lon="116.18776600751664"><ele>258.0</ele><time>2026-04-05T02:46:36Z</time></trkpt><trkpt lat="-31.925255348806843" lon="116.18773802711806"><ele>258.0</ele><time>2026-04-05T02:46:39Z</time></trkpt><trkpt lat="-31.925286496216813" lon="116.18766248042209"><ele>258.0</ele><time>2026-04-05T02:46:41Z</time></trkpt><trkpt lat="-31.9253273109963" lon="116.18759677772748"><ele>258.2</ele><time>2026-04-05T02:46:43Z</time></trkpt><trkpt lat="-31.925422568496625" lon="116.1875366782092"><ele>258.4</ele><time>2026-04-05T02:46:45Z</time></trkpt><trkpt lat="-31.92550924052394" lon="116.1875055747802"><ele>258.59999999999997</ele><time>2026-04-05T02:46:46Z</time></trkpt><trkpt lat="-31.925609606349585" lon="116.18746894585848"><ele>258.8</ele><time>2026-04-05T02:46:47Z</time></trkpt><trkpt lat="-31.925712349440236" lon="116.18743026628471"><ele>259.0</ele><time>2026-04-05T02:46:48Z</time></trkpt><trkpt lat="-31.925809208371792" lon="116.18739907946215"><ele>259.0</ele><time>2026-04-05T02:46:49Z</time></trkpt><trkpt lat="-31.925893908387696" lon="116.18737991837854"><ele>259.0</ele><time>2026-04-05T02:46:50Z</time></trkpt><trkpt lat="-31.92598624409238" lon="116.18736904076077"><ele>259.0</ele><time>2026-04-05T02:46:51Z</time></trkpt><trkpt lat="-31.92604970275334" lon="116.18735191286802"><ele>259.0</ele><time>2026-04-05T02:46:52Z</time></trkpt><trkpt lat="-31.926129481958423" lon="116.18731133308746"><ele>259.0</ele><time>2026-04-05T02:46:54Z</time></trkpt><trkpt lat="-31.926220676327663" lon="116.18731139324836"><ele>259.0</ele><time>2026-04-05T02:46:56Z</time></trkpt><trkpt lat="-31.9263115892317" lon="116.18730103297196"><ele>259.4</ele><time>2026-04-05T02:46:58Z</time></trkpt><trkpt lat="-31.92641903450765" lon="116.18728386978074"><ele>259.79999999999995</ele><time>2026-04-05T02:47:00Z</time></trkpt><trkpt lat="-31.926486585469295" lon="116.18726602506364"><ele>260.20000000000005</ele><time>2026-04-05T02:47:01Z</time></trkpt><trkpt lat="-31.926564941026115" lon="116.18725765285161"><ele>260.6</ele><time>2026-04-05T02:47:03Z</time></trkpt><trkpt lat="-31.926655139358534" lon="116.1872503811645"><ele>261.0</ele><time>2026-04-05T02:47:05Z</time></trkpt><trkpt lat="-31.92677090839868" lon="116.18727716556916"><ele>261.8</ele><time>2026-04-05T02:47:07Z</time></trkpt><trkpt lat="-31.9268449376975" lon="116.18731474009509"><ele>262.6</ele><time>2026-04-05T02:47:09Z</time></trkpt><trkpt lat="-31.92692211486312" lon="116.18726990823092"><ele>263.4</ele><time>2026-04-05T02:47:11Z</time></trkpt><trkpt lat="-31.926995443488835" lon="116.18718183101372"><ele>264.2</ele><time>2026-04-05T02:47:13Z</time></trkpt><trkpt lat="-31.927073446304423" lon="116.18712882562397"><ele>265.0</ele><time>2026-04-05T02:47:15Z</time></trkpt><trkpt lat="-31.92716576136836" lon="116.18702554858268"><ele>265.0</ele><time>2026-04-05T02:47:17Z</time></trkpt><trkpt lat="-31.927216625332377" lon="116.18696253455732"><ele>265.0</ele><time>2026-04-05T02:47:18Z</time></trkpt><trkpt lat="-31.927266299132587" lon="116.18688574030531"><ele>265.0</ele><time>2026-04-05T02:47:19Z</time></trkpt><trkpt lat="-31.92732099523883" lon="116.18677112187906"><ele>265.0</ele><time>2026-04-05T02:47:21Z</time></trkpt><trkpt lat="-31.927339630006745" lon="116.18669232209983"><ele>265.0</ele><time>2026-04-05T02:47:24Z</time></trkpt><trkpt lat="-31.927314319687007" lon="116.18678653065489"><ele>265.0</ele><time>2026-04-05T02:47:29Z</time></trkpt><trkpt lat="-31.9273936370754" lon="116.18690099775921"><ele>265.0</ele><time>2026-04-05T02:47:31Z</time></trkpt><trkpt lat="-31.92744756531173" lon="116.18702291976548"><ele>265.0</ele><time>2026-04-05T02:47:33Z</time></trkpt><trkpt lat="-31.927461405216157" lon="116.18710097870697"><ele>265.0</ele><time>2026-04-05T02:47:34Z</time></trkpt><trkpt lat="-31.92750639060351" lon="116.18723668532179"><ele>265.0</ele><time>2026-04-05T02:47:36Z</time></trkpt><trkpt lat="-31.927547344964836" lon="116.18732726543519"><ele>265.0</ele><time>2026-04-05T02:47:37Z</time></trkpt><trkpt lat="-31.927581916401223" lon="116.1874540229758"><ele>265.6</ele><time>2026-04-05T02:47:38Z</time></trkpt><trkpt lat="-31.9276283128005" lon="116.18756877839942"><ele>266.2</ele><time>2026-04-05T02:47:39Z</time></trkpt><trkpt lat="-31.927670031735648" lon="116.18767218992555"><ele>266.8</ele><time>2026-04-05T02:47:40Z</time></trkpt><trkpt lat="-31.92772690898217" lon="116.1877722920219"><ele>267.4</ele><time>2026-04-05T02:47:41Z</time></trkpt><trkpt lat="-31.927764738205667" lon="116.1879174477628"><ele>268.0</ele><time>2026-04-05T02:47:42Z</time></trkpt><trkpt lat="-31.927804577684856" lon="116.18805116145994"><ele>268.0</ele><time>2026-04-05T02:47:43Z</time></trkpt><trkpt lat="-31.927844888109234" lon="116.18816980924792"><ele>268.0</ele><time>2026-04-05T02:47:44Z</time></trkpt><trkpt lat="-31.927877482163172" lon="116.18828002470329"><ele>268.0</ele><time>2026-04-05T02:47:45Z</time></trkpt><trkpt lat="-31.92788959873436" lon="116.18841540587024"><ele>268.0</ele><time>2026-04-05T02:47:46Z</time></trkpt><trkpt lat="-31.927907365340094" lon="116.18856432286984"><ele>267.5</ele><time>2026-04-05T02:47:47Z</time></trkpt><trkpt lat="-31.92790981680807" lon="116.18870854432416"><ele>267.0</ele><time>2026-04-05T02:47:48Z</time></trkpt><trkpt lat="-31.92790063311229" lon="116.18886268477486"><ele>266.5</ele><time>2026-04-05T02:47:49Z</time></trkpt><trkpt lat="-31.927881842196218" lon="116.18904325787521"><ele>266.0</ele><time>2026-04-05T02:47:50Z</time></trkpt><trkpt lat="-31.927855042451686" lon="116.1892549930545"><ele>265.6666666666667</ele><time>2026-04-05T02:47:51Z</time></trkpt><trkpt lat="-31.927816848567378" lon="116.18949534303536"><ele>265.3333333333333</ele><time>2026-04-05T02:47:52Z</time></trkpt><trkpt lat="-31.92777794795277" lon="116.18972819851267"><ele>265.0</ele><time>2026-04-05T02:47:53Z</time></trkpt><trkpt lat="-31.927747441939427" lon="116.18992401749802"><ele>264.75</ele><time>2026-04-05T02:47:54Z</time></trkpt><trkpt lat="-31.927724649134234" lon="116.19009761531636"><ele>264.5</ele><time>2026-04-05T02:47:55Z</time></trkpt><trkpt lat="-31.92771776342833" lon="116.19026180017244"><ele>264.25</ele><time>2026-04-05T02:47:56Z</time></trkpt><trkpt lat="-31.92769161967278" lon="116.19040855582676"><ele>264.0</ele><time>2026-04-05T02:47:57Z</time></trkpt><trkpt lat="-31.92767871867865" lon="116.19055577167008"><ele>262.0</ele><time>2026-04-05T02:47:58Z</time></trkpt><trkpt lat="-31.92766779513304" lon="116.19072213075133"><ele>260.0</ele><time>2026-04-05T02:47:59Z</time></trkpt><trkpt lat="-31.927657269374084" lon="116.1909171577734"><ele>258.0</ele><time>2026-04-05T02:48:00Z</time></trkpt><trkpt lat="-31.92765251678574" lon="116.19110425545479"><ele>258.0</ele><time>2026-04-05T02:48:01Z</time></trkpt><trkpt lat="-31.927657881985702" lon="116.19130385726791"><ele>258.0</ele><time>2026-04-05T02:48:02Z</time></trkpt><trkpt lat="-31.927671658742764" lon="116.19148309764553"><ele>258.0</ele><time>2026-04-05T02:48:03Z</time></trkpt><trkpt lat="-31.92770723223604" lon="116.19165787293319"><ele>257.75</ele><time>2026-04-05T02:48:04Z</time></trkpt><trkpt lat="-31.92773390342325" lon="116.1918214821969"><ele>257.5</ele><time>2026-04-05T02:48:05Z</time></trkpt><trkpt lat="-31.92776109986784" lon="116.19197259401219"><ele>257.25</ele><time>2026-04-05T02:48:06Z</time></trkpt><trkpt lat="-31.927790282402206" lon="116.19211314664072"><ele>257.0</ele><time>2026-04-05T02:48:07Z</time></trkpt><trkpt lat="-31.927827296580592" lon="116.19227380678625"><ele>256.0</ele><time>2026-04-05T02:48:08Z</time></trkpt><trkpt lat="-31.92788437400246" lon="116.19244940285375"><ele>255.0</ele><time>2026-04-05T02:48:09Z</time></trkpt><trkpt lat="-31.927965000517016" lon="116.19264586454351"><ele>254.0</ele><time>2026-04-05T02:48:10Z</time></trkpt><trkpt lat="-31.92806395461704" lon="116.19286575886623"><ele>254.0</ele><time>2026-04-05T02:48:11Z</time></trkpt><trkpt lat="-31.928169721550983" lon="116.19309036722356"><ele>254.0</ele><time>2026-04-05T02:48:12Z</time></trkpt><trkpt lat="-31.928261375014387" lon="116.19328187725309"><ele>254.0</ele><time>2026-04-05T02:48:13Z</time></trkpt><trkpt lat="-31.928338353009973" lon="116.19343741953162"><ele>254.50000000000003</ele><time>2026-04-05T02:48:14Z</time></trkpt><trkpt lat="-31.928402493191665" lon="116.19355499761696"><ele>255.0</ele><time>2026-04-05T02:48:15Z</time></trkpt><trkpt lat="-31.928435977672393" lon="116.19365485745652"><ele>255.5</ele><time>2026-04-05T02:48:16Z</time></trkpt><trkpt lat="-31.92846857285678" lon="116.19372021251108"><ele>256.0</ele><time>2026-04-05T02:48:17Z</time></trkpt><trkpt lat="-31.928507610435503" lon="116.19379848473551"><ele>256.5</ele><time>2026-04-05T02:48:20Z</time></trkpt><trkpt lat="-31.928432318051094" lon="116.19373605580252"><ele>257.0</ele><time>2026-04-05T02:48:27Z</time></trkpt><trkpt lat="-31.92842164427487" lon="116.19364684220942"><ele>256.4</ele><time>2026-04-05T02:48:28Z</time></trkpt><trkpt lat="-31.92837473851438" lon="116.19352907255116"><ele>255.79999999999998</ele><time>2026-04-05T02:48:30Z</time></trkpt><trkpt lat="-31.928322208884467" lon="116.19340284177547"><ele>255.2</ele><time>2026-04-05T02:48:32Z</time></trkpt><trkpt lat="-31.928281663971873" lon="116.19332036054011"><ele>254.6</ele><time>2026-04-05T02:48:34Z</time></trkpt><trkpt lat="-31.928242561283643" lon="116.19325988691287"><ele>254.0</ele><time>2026-04-05T02:48:49Z</time></trkpt><trkpt lat="-31.9282326581401" lon="116.1931576388332"><ele>254.00000000000003</ele><time>2026-04-05T02:48:51Z</time></trkpt><trkpt lat="-31.92818940615795" lon="116.19306615341411"><ele>254.0</ele><time>2026-04-05T02:48:54Z</time></trkpt><trkpt lat="-31.928229419394732" lon="116.19316178858807"><ele>254.0</ele><time>2026-04-05T02:49:41Z</time></trkpt><trkpt lat="-31.92826539701924" lon="116.19322825619781"><ele>254.0</ele><time>2026-04-05T02:49:42Z</time></trkpt><trkpt lat="-31.928256250648367" lon="116.19332824944702"><ele>254.00000000000003</ele><time>2026-04-05T02:49:43Z</time></trkpt><trkpt lat="-31.92831163980893" lon="116.19341522480318"><ele>254.0</ele><time>2026-04-05T02:49:44Z</time></trkpt><trkpt lat="-31.928371966017853" lon="116.19351760387289"><ele>254.75</ele><time>2026-04-05T02:49:45Z</time></trkpt><trkpt lat="-31.928430507306366" lon="116.19363311010642"><ele>255.5</ele><time>2026-04-05T02:49:46Z</time></trkpt><trkpt lat="-31.92848658614556" lon="116.19374629393002"><ele>256.25</ele><time>2026-04-05T02:49:47Z</time></trkpt><trkpt lat="-31.928542015316754" lon="116.19386003094876"><ele>257.0</ele><time>2026-04-05T02:49:48Z</time></trkpt><trkpt lat="-31.92860095101095" lon="116.19398442142078"><ele>255.5</ele><time>2026-04-05T02:49:49Z</time></trkpt><trkpt lat="-31.92866350624968" lon="116.19411920555326"><ele>254.0</ele><time>2026-04-05T02:49:50Z</time></trkpt><trkpt lat="-31.92873085374676" lon="116.19424988839168"><ele>252.5</ele><time>2026-04-05T02:49:51Z</time></trkpt><trkpt lat="-31.928793689261266" lon="116.19437885742565"><ele>251.0</ele><time>2026-04-05T02:49:52Z</time></trkpt><trkpt lat="-31.9288467381384" lon="116.19449749980991"><ele>251.0</ele><time>2026-04-05T02:49:53Z</time></trkpt><trkpt lat="-31.928864194025657" lon="116.19463130630916"><ele>251.0</ele><time>2026-04-05T02:49:54Z</time></trkpt><trkpt lat="-31.928886843678097" lon="116.19474782817146"><ele>251.0</ele><time>2026-04-05T02:49:55Z</time></trkpt><trkpt lat="-31.92890717325603" lon="116.19488212648046"><ele>251.0</ele><time>2026-04-05T02:49:56Z</time></trkpt><trkpt lat="-31.92892613234473" lon="116.19503490732751"><ele>251.0</ele><time>2026-04-05T02:49:57Z</time></trkpt><trkpt lat="-31.928943698083582" lon="116.19520651227464"><ele>251.0</ele><time>2026-04-05T02:49:58Z</time></trkpt><trkpt lat="-31.928955354874727" lon="116.19536561271474"><ele>251.0</ele><time>2026-04-05T02:49:59Z</time></trkpt><trkpt lat="-31.92897455826989" lon="116.19553723303473"><ele>251.0</ele><time>2026-04-05T02:50:00Z</time></trkpt><trkpt lat="-31.928982995115792" lon="116.19571787694231"><ele>250.75</ele><time>2026-04-05T02:50:01Z</time></trkpt><trkpt lat="-31.928992113025444" lon="116.19588770269691"><ele>250.5</ele><time>2026-04-05T02:50:02Z</time></trkpt><trkpt lat="-31.92900173690625" lon="116.19604687198449"><ele>250.25</ele><time>2026-04-05T02:50:03Z</time></trkpt><trkpt lat="-31.929008252350698" lon="116.19620247466099"><ele>250.0</ele><time>2026-04-05T02:50:04Z</time></trkpt><trkpt lat="-31.92900984467916" lon="116.1963402399482"><ele>249.99999999999997</ele><time>2026-04-05T02:50:05Z</time></trkpt><trkpt lat="-31.929007315882885" lon="116.19645860369017"><ele>250.0</ele><time>2026-04-05T02:50:06Z</time></trkpt><trkpt lat="-31.92900629101712" lon="116.19657137203602"><ele>250.0</ele><time>2026-04-05T02:50:07Z</time></trkpt><trkpt lat="-31.929009897803677" lon="116.19667605112056"><ele>250.0</ele><time>2026-04-05T02:50:08Z</time></trkpt><trkpt lat="-31.929018377294852" lon="116.19676294763008"><ele>249.99999999999997</ele><time>2026-04-05T02:50:09Z</time></trkpt><trkpt lat="-31.929041423202758" lon="116.19684300567056"><ele>250.0</ele><time>2026-04-05T02:50:10Z</time></trkpt><trkpt lat="-31.9290499843382" lon="116.19693097837158"><ele>250.2</ele><time>2026-04-05T02:50:11Z</time></trkpt><trkpt lat="-31.92911194879154" lon="116.19700903832937"><ele>250.4</ele><time>2026-04-05T02:50:12Z</time></trkpt><trkpt lat="-31.929211876881695" lon="116.19701318346235"><ele>250.60000000000002</ele><time>2026-04-05T02:50:13Z</time></trkpt><trkpt lat="-31.92930458928961" lon="116.19702248235764"><ele>250.8</ele><time>2026-04-05T02:50:14Z</time></trkpt><trkpt lat="-31.929406058537815" lon="116.19700777498224"><ele>251.0</ele><time>2026-04-05T02:50:15Z</time></trkpt><trkpt lat="-31.92952584016973" lon="116.19700029671158"><ele>251.0</ele><time>2026-04-05T02:50:16Z</time></trkpt><trkpt lat="-31.929661651137593" lon="116.19699265966356"><ele>251.0</ele><time>2026-04-05T02:50:17Z</time></trkpt><trkpt lat="-31.929812524728288" lon="116.19699044472246"><ele>251.0</ele><time>2026-04-05T02:50:18Z</time></trkpt><trkpt lat="-31.92998098351662" lon="116.19698747814"><ele>253.0</ele><time>2026-04-05T02:50:19Z</time></trkpt><trkpt lat="-31.930164274682305" lon="116.19698554249898"><ele>255.0</ele><time>2026-04-05T02:50:20Z</time></trkpt><trkpt lat="-31.930338731899344" lon="116.19698802686469"><ele>257.0</ele><time>2026-04-05T02:50:21Z</time></trkpt><trkpt lat="-31.930490765416664" lon="116.19698609208433"><ele>257.0</ele><time>2026-04-05T02:50:22Z</time></trkpt><trkpt lat="-31.930621249633912" lon="116.19698168038387"><ele>257.0</ele><time>2026-04-05T02:50:23Z</time></trkpt><trkpt lat="-31.93073419928789" lon="116.19697297735075"><ele>257.0</ele><time>2026-04-05T02:50:24Z</time></trkpt><trkpt lat="-31.93084651022038" lon="116.19696417173932"><ele>257.0</ele><time>2026-04-05T02:50:25Z</time></trkpt><trkpt lat="-31.93096194500304" lon="116.19696693278392"><ele>259.4</ele><time>2026-04-05T02:50:26Z</time></trkpt><trkpt lat="-31.931058791663414" lon="116.19696164030346"><ele>261.79999999999995</ele><time>2026-04-05T02:50:27Z</time></trkpt><trkpt lat="-31.931154072300536" lon="116.19695821470427"><ele>264.2</ele><time>2026-04-05T02:50:28Z</time></trkpt><trkpt lat="-31.93125017208836" lon="116.19695380529218"><ele>266.59999999999997</ele><time>2026-04-05T02:50:29Z</time></trkpt><trkpt lat="-31.93135047262014" lon="116.19695202720659"><ele>269.0</ele><time>2026-04-05T02:50:30Z</time></trkpt><trkpt lat="-31.931445376253127" lon="116.19697123386817"><ele>269.0</ele><time>2026-04-05T02:50:31Z</time></trkpt><trkpt lat="-31.931542315944764" lon="116.19695925727181"><ele>269.0</ele><time>2026-04-05T02:50:32Z</time></trkpt><trkpt lat="-31.931637096552922" lon="116.19696393661387"><ele>269.0</ele><time>2026-04-05T02:50:33Z</time></trkpt><trkpt lat="-31.931737748361325" lon="116.19697990115655"><ele>269.0</ele><time>2026-04-05T02:50:34Z</time></trkpt><trkpt lat="-31.93184806917515" lon="116.19698224878483"><ele>269.0</ele><time>2026-04-05T02:50:35Z</time></trkpt><trkpt lat="-31.931959325426362" lon="116.196972118872"><ele>270.75</ele><time>2026-04-05T02:50:36Z</time></trkpt><trkpt lat="-31.9320673450052" lon="116.19697320200152"><ele>272.5</ele><time>2026-04-05T02:50:37Z</time></trkpt><trkpt lat="-31.9321846755828" lon="116.19697248959345"><ele>274.25</ele><time>2026-04-05T02:50:38Z</time></trkpt><trkpt lat="-31.932302915283664" lon="116.19697334544517"><ele>276.0</ele><time>2026-04-05T02:50:39Z</time></trkpt><trkpt lat="-31.93242284027774" lon="116.19697298164279"><ele>276.0</ele><time>2026-04-05T02:50:40Z</time></trkpt><trkpt lat="-31.93254965245724" lon="116.19697456369384"><ele>276.0</ele><time>2026-04-05T02:50:41Z</time></trkpt><trkpt lat="-31.932676847817365" lon="116.19697593791099"><ele>276.0</ele><time>2026-04-05T02:50:42Z</time></trkpt><trkpt lat="-31.93280241630888" lon="116.19697386669633"><ele>276.0</ele><time>2026-04-05T02:50:43Z</time></trkpt><trkpt lat="-31.932921668970273" lon="116.19697311962345"><ele>276.25</ele><time>2026-04-05T02:50:44Z</time></trkpt><trkpt lat="-31.933028181751595" lon="116.19697220724879"><ele>276.5</ele><time>2026-04-05T02:50:45Z</time></trkpt><trkpt lat="-31.933134233366946" lon="116.19697247891744"><ele>276.75</ele><time>2026-04-05T02:50:46Z</time></trkpt><trkpt lat="-31.933255618392785" lon="116.19697050476195"><ele>277.0</ele><time>2026-04-05T02:50:47Z</time></trkpt><trkpt lat="-31.93339178134063" lon="116.19697280016143"><ele>278.0</ele><time>2026-04-05T02:50:48Z</time></trkpt><trkpt lat="-31.933523658395828" lon="116.19697718952222"><ele>279.0</ele><time>2026-04-05T02:50:49Z</time></trkpt><trkpt lat="-31.93365906166606" lon="116.19697205034073"><ele>280.0</ele><time>2026-04-05T02:50:50Z</time></trkpt><trkpt lat="-31.933805072951873" lon="116.19696866027378"><ele>281.0</ele><time>2026-04-05T02:50:51Z</time></trkpt><trkpt lat="-31.933958832645725" lon="116.19696576018912"><ele>281.0</ele><time>2026-04-05T02:50:52Z</time></trkpt><trkpt lat="-31.93411057595868" lon="116.19698372918249"><ele>281.0</ele><time>2026-04-05T02:50:53Z</time></trkpt><trkpt lat="-31.93426183332521" lon="116.19699149105514"><ele>281.0</ele><time>2026-04-05T02:50:54Z</time></trkpt><trkpt lat="-31.934403622866615" lon="116.1970021583933"><ele>281.0</ele><time>2026-04-05T02:50:55Z</time></trkpt><trkpt lat="-31.934527546455268" lon="116.19701341059805"><ele>283.2</ele><time>2026-04-05T02:50:56Z</time></trkpt><trkpt lat="-31.934637836084338" lon="116.1970136946908"><ele>285.40000000000003</ele><time>2026-04-05T02:50:57Z</time></trkpt><trkpt lat="-31.93475456732181" lon="116.19701954507649"><ele>287.6</ele><time>2026-04-05T02:50:58Z</time></trkpt><trkpt lat="-31.934859622666192" lon="116.19705340936582"><ele>289.8</ele><time>2026-04-05T02:50:59Z</time></trkpt><trkpt lat="-31.934947942816976" lon="116.19707380199162"><ele>292.0</ele><time>2026-04-05T02:51:00Z</time></trkpt><trkpt lat="-31.935047132326698" lon="116.19710645919879"><ele>291.8</ele><time>2026-04-05T02:51:01Z</time></trkpt><trkpt lat="-31.935130510016588" lon="116.19715331094154"><ele>291.6</ele><time>2026-04-05T02:51:02Z</time></trkpt><trkpt lat="-31.935219499855748" lon="116.19720924483664"><ele>291.40000000000003</ele><time>2026-04-05T02:51:03Z</time></trkpt><trkpt lat="-31.935310208632824" lon="116.19727805589021"><ele>291.2</ele><time>2026-04-05T02:51:04Z</time></trkpt><trkpt lat="-31.93541393258902" lon="116.19736046503922"><ele>291.0</ele><time>2026-04-05T02:51:05Z</time></trkpt><trkpt lat="-31.935535013885968" lon="116.19745817340765"><ele>291.0</ele><time>2026-04-05T02:51:06Z</time></trkpt><trkpt lat="-31.935670217096312" lon="116.19755584195353"><ele>291.0</ele><time>2026-04-05T02:51:07Z</time></trkpt><trkpt lat="-31.93581040731009" lon="116.19765159192417"><ele>291.0</ele><time>2026-04-05T02:51:08Z</time></trkpt><trkpt lat="-31.935934349824404" lon="116.19775134362251"><ele>294.3333333333333</ele><time>2026-04-05T02:51:09Z</time></trkpt><trkpt lat="-31.936068502829382" lon="116.19783117085012"><ele>297.66666666666663</ele><time>2026-04-05T02:51:10Z</time></trkpt><trkpt lat="-31.93619325238186" lon="116.19792808332876"><ele>301.0</ele><time>2026-04-05T02:51:11Z</time></trkpt><trkpt lat="-31.93632168067445" lon="116.1980212142144"><ele>301.0</ele><time>2026-04-05T02:51:12Z</time></trkpt><trkpt lat="-31.93645000498429" lon="116.1981218278403"><ele>301.0</ele><time>2026-04-05T02:51:13Z</time></trkpt><trkpt lat="-31.93657693667856" lon="116.19823167686268"><ele>301.0</ele><time>2026-04-05T02:51:14Z</time></trkpt><trkpt lat="-31.93671227034452" lon="116.19833695168579"><ele>300.66666666666663</ele><time>2026-04-05T02:51:15Z</time></trkpt><trkpt lat="-31.936865030852072" lon="116.19845805920377"><ele>300.3333333333333</ele><time>2026-04-05T02:51:16Z</time></trkpt><trkpt lat="-31.93700666187328" lon="116.19856536078203"><ele>300.0</ele><time>2026-04-05T02:51:17Z</time></trkpt><trkpt lat="-31.93712878263811" lon="116.19866229639625"><ele>300.0</ele><time>2026-04-05T02:51:18Z</time></trkpt><trkpt lat="-31.937241813197545" lon="116.19874921971278"><ele>300.0</ele><time>2026-04-05T02:51:19Z</time></trkpt><trkpt lat="-31.9373437089806" lon="116.19881623721058"><ele>300.0</ele><time>2026-04-05T02:51:20Z</time></trkpt><trkpt lat="-31.93740738925013" lon="116.19889548927571"><ele>300.0</ele><time>2026-04-05T02:51:21Z</time></trkpt><trkpt lat="-31.93746580597894" lon="116.19895321500383"><ele>300.0</ele><time>2026-04-05T02:51:22Z</time></trkpt><trkpt lat="-31.93754385631583" lon="116.19903033459771"><ele>299.6</ele><time>2026-04-05T02:51:24Z</time></trkpt><trkpt lat="-31.937492749950547" lon="116.19907412529209"><ele>299.2</ele><time>2026-04-05T02:51:27Z</time></trkpt><trkpt lat="-31.93740449213233" lon="116.19918963233131"><ele>298.8</ele><time>2026-04-05T02:51:29Z</time></trkpt><trkpt lat="-31.93734827268613" lon="116.19926971687612"><ele>298.4</ele><time>2026-04-05T02:51:30Z</time></trkpt><trkpt lat="-31.93727060874231" lon="116.1993847138077"><ele>298.0</ele><time>2026-04-05T02:51:31Z</time></trkpt><trkpt lat="-31.937201359535816" lon="116.19952416515127"><ele>298.0</ele><time>2026-04-05T02:51:32Z</time></trkpt><trkpt lat="-31.9371282769114" lon="116.19964889682126"><ele>298.0</ele><time>2026-04-05T02:51:33Z</time></trkpt><trkpt lat="-31.937067921602612" lon="116.19977804080047"><ele>298.0</ele><time>2026-04-05T02:51:34Z</time></trkpt><trkpt lat="-31.937014350353532" lon="116.19989891154783"><ele>298.0</ele><time>2026-04-05T02:51:35Z</time></trkpt><trkpt lat="-31.936966734910992" lon="116.20002775598546"><ele>297.5</ele><time>2026-04-05T02:51:36Z</time></trkpt><trkpt lat="-31.93691317032343" lon="116.20017823988519"><ele>297.0</ele><time>2026-04-05T02:51:37Z</time></trkpt><trkpt lat="-31.93686171516123" lon="116.20033381422105"><ele>296.5</ele><time>2026-04-05T02:51:38Z</time></trkpt><trkpt lat="-31.93682479528307" lon="116.20048547309771"><ele>296.0</ele><time>2026-04-05T02:51:39Z</time></trkpt><trkpt lat="-31.936797715899342" lon="116.20065318084563"><ele>295.33333333333337</ele><time>2026-04-05T02:51:40Z</time></trkpt><trkpt lat="-31.936784247721505" lon="116.200849118587"><ele>294.6666666666667</ele><time>2026-04-05T02:51:41Z</time></trkpt><trkpt lat="-31.93678226571803" lon="116.20108019599158"><ele>294.0</ele><time>2026-04-05T02:51:42Z</time></trkpt><trkpt lat="-31.936784090273743" lon="116.20133595183225"><ele>293.3333333333333</ele><time>2026-04-05T02:51:43Z</time></trkpt><trkpt lat="-31.936789610471013" lon="116.2015939906915"><ele>292.66666666666663</ele><time>2026-04-05T02:51:44Z</time></trkpt><trkpt lat="-31.93679915672127" lon="116.20184809226924"><ele>292.0</ele><time>2026-04-05T02:51:45Z</time></trkpt><trkpt lat="-31.936817362255987" lon="116.2020935714649"><ele>292.0</ele><time>2026-04-05T02:51:46Z</time></trkpt><trkpt lat="-31.93683380956952" lon="116.20232792584454"><ele>292.0</ele><time>2026-04-05T02:51:47Z</time></trkpt><trkpt lat="-31.936850161698004" lon="116.20255070139638"><ele>292.0</ele><time>2026-04-05T02:51:48Z</time></trkpt><trkpt lat="-31.936861053660724" lon="116.20275079654797"><ele>290.66666666666663</ele><time>2026-04-05T02:51:49Z</time></trkpt><trkpt lat="-31.936873270606604" lon="116.20294693372388"><ele>289.3333333333333</ele><time>2026-04-05T02:51:50Z</time></trkpt><trkpt lat="-31.936893814515713" lon="116.20314968503047"><ele>288.0</ele><time>2026-04-05T02:51:51Z</time></trkpt><trkpt lat="-31.936919582461698" lon="116.20334634927927"><ele>285.6666666666667</ele><time>2026-04-05T02:51:52Z</time></trkpt><trkpt lat="-31.936954685846455" lon="116.20354355351698"><ele>283.33333333333337</ele><time>2026-04-05T02:51:53Z</time></trkpt><trkpt lat="-31.937001619168296" lon="116.20374536099087"><ele>281.0</ele><time>2026-04-05T02:51:54Z</time></trkpt><trkpt lat="-31.937054194628995" lon="116.2039574801218"><ele>281.33333333333337</ele><time>2026-04-05T02:51:55Z</time></trkpt><trkpt lat="-31.937105063143274" lon="116.20417736576002"><ele>281.6666666666667</ele><time>2026-04-05T02:51:56Z</time></trkpt><trkpt lat="-31.937143877969746" lon="116.20441840341427"><ele>282.0</ele><time>2026-04-05T02:51:57Z</time></trkpt><trkpt lat="-31.937214196416807" lon="116.20464443695045"><ele>279.6666666666667</ele><time>2026-04-05T02:51:58Z</time></trkpt><trkpt lat="-31.937253256537428" lon="116.20487254067083"><ele>277.33333333333337</ele><time>2026-04-05T02:51:59Z</time></trkpt><trkpt lat="-31.937304409201428" lon="116.20508753765554"><ele>275.0</ele><time>2026-04-05T02:52:00Z</time></trkpt><trkpt lat="-31.937354950093045" lon="116.20529681027158"><ele>275.0</ele><time>2026-04-05T02:52:01Z</time></trkpt><trkpt lat="-31.937402546214095" lon="116.20549694626666"><ele>275.0</ele><time>2026-04-05T02:52:02Z</time></trkpt><trkpt lat="-31.937448629788335" lon="116.20569395637811"><ele>275.0</ele><time>2026-04-05T02:52:03Z</time></trkpt><trkpt lat="-31.93749269393502" lon="116.20589072778314"><ele>275.0</ele><time>2026-04-05T02:52:04Z</time></trkpt><trkpt lat="-31.9375406556581" lon="116.20610927320676"><ele>275.0</ele><time>2026-04-05T02:52:05Z</time></trkpt><trkpt lat="-31.93758782817684" lon="116.20631208199674"><ele>275.0</ele><time>2026-04-05T02:52:06Z</time></trkpt><trkpt lat="-31.937651312522267" lon="116.20649656471437"><ele>273.0</ele><time>2026-04-05T02:52:07Z</time></trkpt><trkpt lat="-31.937704257234362" lon="116.2066813208181"><ele>271.0</ele><time>2026-04-05T02:52:08Z</time></trkpt><trkpt lat="-31.93777424691569" lon="116.20685995174146"><ele>269.0</ele><time>2026-04-05T02:52:09Z</time></trkpt><trkpt lat="-31.93786478468747" lon="116.20704770848126"><ele>269.0</ele><time>2026-04-05T02:52:10Z</time></trkpt><trkpt lat="-31.937971993827045" lon="116.20726120668039"><ele>269.0</ele><time>2026-04-05T02:52:11Z</time></trkpt><trkpt lat="-31.93808362203528" lon="116.2074764385863"><ele>269.0</ele><time>2026-04-05T02:52:12Z</time></trkpt><trkpt lat="-31.938187297771687" lon="116.2077163239596"><ele>268.6666666666667</ele><time>2026-04-05T02:52:13Z</time></trkpt><trkpt lat="-31.938290833080412" lon="116.20792703472179"><ele>268.3333333333333</ele><time>2026-04-05T02:52:14Z</time></trkpt><trkpt lat="-31.93838431040847" lon="116.20812345379044"><ele>268.0</ele><time>2026-04-05T02:52:15Z</time></trkpt><trkpt lat="-31.93846840129727" lon="116.2082992966962"><ele>268.0</ele><time>2026-04-05T02:52:16Z</time></trkpt><trkpt lat="-31.938551961909827" lon="116.20847405315645"><ele>268.0</ele><time>2026-04-05T02:52:17Z</time></trkpt><trkpt lat="-31.93862982555207" lon="116.20864520132156"><ele>268.0</ele><time>2026-04-05T02:52:18Z</time></trkpt><trkpt lat="-31.938705409396924" lon="116.20882451394559"><ele>266.0</ele><time>2026-04-05T02:52:19Z</time></trkpt><trkpt lat="-31.93876608296761" lon="116.20899843160291"><ele>264.0</ele><time>2026-04-05T02:52:20Z</time></trkpt><trkpt lat="-31.938814252833744" lon="116.20918471171954"><ele>262.0</ele><time>2026-04-05T02:52:21Z</time></trkpt><trkpt lat="-31.93884954620945" lon="116.20936536594994"><ele>262.0</ele><time>2026-04-05T02:52:22Z</time></trkpt><trkpt lat="-31.93888802699707" lon="116.20954023105848"><ele>262.0</ele><time>2026-04-05T02:52:23Z</time></trkpt><trkpt lat="-31.93888714036446" lon="116.20971533538929"><ele>262.0</ele><time>2026-04-05T02:52:24Z</time></trkpt><trkpt lat="-31.938862867874715" lon="116.20988602458097"><ele>262.0</ele><time>2026-04-05T02:52:25Z</time></trkpt><trkpt lat="-31.938828290014946" lon="116.2100762751209"><ele>262.0</ele><time>2026-04-05T02:52:26Z</time></trkpt><trkpt lat="-31.938782615245458" lon="116.21028772432152"><ele>262.0</ele><time>2026-04-05T02:52:27Z</time></trkpt><trkpt lat="-31.938724546255195" lon="116.21049332155482"><ele>262.0</ele><time>2026-04-05T02:52:28Z</time></trkpt><trkpt lat="-31.93864175998492" lon="116.21068864118736"><ele>262.0</ele><time>2026-04-05T02:52:29Z</time></trkpt><trkpt lat="-31.938529541901424" lon="116.21088412651211"><ele>262.0</ele><time>2026-04-05T02:52:30Z</time></trkpt><trkpt lat="-31.938412595226602" lon="116.2110848923055"><ele>262.0</ele><time>2026-04-05T02:52:31Z</time></trkpt><trkpt lat="-31.938293043569946" lon="116.2112916071809"><ele>259.66666666666663</ele><time>2026-04-05T02:52:32Z</time></trkpt><trkpt lat="-31.93816968085989" lon="116.21150135111624"><ele>257.3333333333333</ele><time>2026-04-05T02:52:33Z</time></trkpt><trkpt lat="-31.938043913391063" lon="116.21171668995038"><ele>255.0</ele><time>2026-04-05T02:52:34Z</time></trkpt><trkpt lat="-31.9379089182777" lon="116.21194791418434"><ele>255.0</ele><time>2026-04-05T02:52:35Z</time></trkpt><trkpt lat="-31.937776381067987" lon="116.21217418416369"><ele>255.0</ele><time>2026-04-05T02:52:36Z</time></trkpt><trkpt lat="-31.937658601707735" lon="116.21237276440802"><ele>255.0</ele><time>2026-04-05T02:52:37Z</time></trkpt><trkpt lat="-31.937541519704105" lon="116.21256920710485"><ele>252.33333333333331</ele><time>2026-04-05T02:52:38Z</time></trkpt><trkpt lat="-31.93742558226695" lon="116.21276040857049"><ele>249.66666666666666</ele><time>2026-04-05T02:52:39Z</time></trkpt><trkpt lat="-31.937307324309185" lon="116.21295679101613"><ele>247.0</ele><time>2026-04-05T02:52:40Z</time></trkpt><trkpt lat="-31.93718478453862" lon="116.21316478246278"><ele>247.0</ele><time>2026-04-05T02:52:41Z</time></trkpt><trkpt lat="-31.937075853718454" lon="116.21334670382848"><ele>247.0</ele><time>2026-04-05T02:52:42Z</time></trkpt><trkpt lat="-31.93696335838876" lon="116.21352468543131"><ele>247.0</ele><time>2026-04-05T02:52:43Z</time></trkpt><trkpt lat="-31.936853839124165" lon="116.21369629440058"><ele>247.0</ele><time>2026-04-05T02:52:44Z</time></trkpt><trkpt lat="-31.936744040912362" lon="116.21386377933943"><ele>247.0</ele><time>2026-04-05T02:52:45Z</time></trkpt><trkpt lat="-31.936634471138692" lon="116.214044787038"><ele>247.0</ele><time>2026-04-05T02:52:46Z</time></trkpt><trkpt lat="-31.93653403296381" lon="116.21422695697548"><ele>244.0</ele><time>2026-04-05T02:52:47Z</time></trkpt><trkpt lat="-31.936446572717582" lon="116.21441073376859"><ele>241.0</ele><time>2026-04-05T02:52:48Z</time></trkpt><trkpt lat="-31.936382821010774" lon="116.21460466190865"><ele>238.0</ele><time>2026-04-05T02:52:49Z</time></trkpt><trkpt lat="-31.936334249019804" lon="116.21483703795131"><ele>236.0</ele><time>2026-04-05T02:52:50Z</time></trkpt><trkpt lat="-31.93627075430096" lon="116.21511097562833"><ele>234.0</ele><time>2026-04-05T02:52:51Z</time></trkpt><trkpt lat="-31.936178250388323" lon="116.21540564923366"><ele>233.0</ele><time>2026-04-05T02:52:52Z</time></trkpt><trkpt lat="-31.93609025978396" lon="116.21571496225653"><ele>232.0</ele><time>2026-04-05T02:52:53Z</time></trkpt><trkpt lat="-31.936009666624095" lon="116.21599050073114"><ele>232.0</ele><time>2026-04-05T02:52:54Z</time></trkpt><trkpt lat="-31.935942370914027" lon="116.2162281078438"><ele>232.0</ele><time>2026-04-05T02:52:55Z</time></trkpt><trkpt lat="-31.935876669260068" lon="116.21646603955065"><ele>232.0</ele><time>2026-04-05T02:52:56Z</time></trkpt><trkpt lat="-31.935826080608035" lon="116.21670739618519"><ele>228.66666666666666</ele><time>2026-04-05T02:52:57Z</time></trkpt><trkpt lat="-31.935742113393562" lon="116.21693961607815"><ele>225.33333333333331</ele><time>2026-04-05T02:52:58Z</time></trkpt><trkpt lat="-31.93567822862446" lon="116.21715720608539"><ele>222.0</ele><time>2026-04-05T02:52:59Z</time></trkpt><trkpt lat="-31.935619458219488" lon="116.21736189981529"><ele>220.33333333333331</ele><time>2026-04-05T02:53:00Z</time></trkpt><trkpt lat="-31.93557968830085" lon="116.21755294117746"><ele>218.66666666666666</ele><time>2026-04-05T02:53:01Z</time></trkpt><trkpt lat="-31.935506921997302" lon="116.21771852731752"><ele>217.0</ele><time>2026-04-05T02:53:02Z</time></trkpt><trkpt lat="-31.93543988236077" lon="116.21787575413653"><ele>217.0</ele><time>2026-04-05T02:53:03Z</time></trkpt><trkpt lat="-31.93536554990905" lon="116.21800578290876"><ele>217.0</ele><time>2026-04-05T02:53:04Z</time></trkpt><trkpt lat="-31.935274193971676" lon="116.21812394346097"><ele>217.0</ele><time>2026-04-05T02:53:05Z</time></trkpt><trkpt lat="-31.935166441594795" lon="116.21823955533141"><ele>217.0</ele><time>2026-04-05T02:53:06Z</time></trkpt><trkpt lat="-31.9350359078099" lon="116.21835946918011"><ele>216.66666666666666</ele><time>2026-04-05T02:53:07Z</time></trkpt><trkpt lat="-31.934885984957162" lon="116.21847866717243"><ele>216.33333333333331</ele><time>2026-04-05T02:53:08Z</time></trkpt><trkpt lat="-31.934710836891885" lon="116.21860023576163"><ele>216.0</ele><time>2026-04-05T02:53:09Z</time></trkpt><trkpt lat="-31.9345144435719" lon="116.21873096475105"><ele>216.0</ele><time>2026-04-05T02:53:10Z</time></trkpt><trkpt lat="-31.934313530683166" lon="116.21886284303136"><ele>216.0</ele><time>2026-04-05T02:53:11Z</time></trkpt><trkpt lat="-31.934128627678387" lon="116.21897865051226"><ele>216.0</ele><time>2026-04-05T02:53:12Z</time></trkpt><trkpt lat="-31.93395100198572" lon="116.21909132586792"><ele>215.33333333333331</ele><time>2026-04-05T02:53:13Z</time></trkpt><trkpt lat="-31.93379184560289" lon="116.21918997187105"><ele>214.66666666666666</ele><time>2026-04-05T02:53:14Z</time></trkpt><trkpt lat="-31.93362304159583" lon="116.21929318626741"><ele>214.0</ele><time>2026-04-05T02:53:15Z</time></trkpt><trkpt lat="-31.93342891502206" lon="116.21942524496548"><ele>214.66666666666666</ele><time>2026-04-05T02:53:16Z</time></trkpt><trkpt lat="-31.933239637049986" lon="116.21955729772367"><ele>215.33333333333331</ele><time>2026-04-05T02:53:17Z</time></trkpt><trkpt lat="-31.933053490578207" lon="116.21969021661576"><ele>216.0</ele><time>2026-04-05T02:53:18Z</time></trkpt><trkpt lat="-31.93287148469203" lon="116.21983285024278"><ele>215.5</ele><time>2026-04-05T02:53:19Z</time></trkpt><trkpt lat="-31.932672109401718" lon="116.22000992589462"><ele>215.0</ele><time>2026-04-05T02:53:20Z</time></trkpt><trkpt lat="-31.93247257971045" lon="116.22019938673432"><ele>215.0</ele><time>2026-04-05T02:53:21Z</time></trkpt><trkpt lat="-31.932283266900544" lon="116.22038405783394"><ele>215.0</ele><time>2026-04-05T02:53:22Z</time></trkpt><trkpt lat="-31.93208452346109" lon="116.22058374036602"><ele>217.0</ele><time>2026-04-05T02:53:23Z</time></trkpt><trkpt lat="-31.931885422384184" lon="116.22077612860811"><ele>219.0</ele><time>2026-04-05T02:53:24Z</time></trkpt><trkpt lat="-31.931685252314143" lon="116.22096452306361"><ele>219.0</ele><time>2026-04-05T02:53:25Z</time></trkpt><trkpt lat="-31.931485251429233" lon="116.2211487639551"><ele>219.0</ele><time>2026-04-05T02:53:26Z</time></trkpt><trkpt lat="-31.9312767616358" lon="116.22134133134662"><ele>223.5</ele><time>2026-04-05T02:53:27Z</time></trkpt><trkpt lat="-31.931063050372664" lon="116.22154100984532"><ele>228.0</ele><time>2026-04-05T02:53:28Z</time></trkpt><trkpt lat="-31.93087169592363" lon="116.22171905600652"><ele>229.0</ele><time>2026-04-05T02:53:29Z</time></trkpt><trkpt lat="-31.93070679477968" lon="116.22187068715964"><ele>230.0</ele><time>2026-04-05T02:53:30Z</time></trkpt><trkpt lat="-31.930551388772056" lon="116.22200802276512"><ele>231.0</ele><time>2026-04-05T02:53:31Z</time></trkpt><trkpt lat="-31.930413394300448" lon="116.2221330790449"><ele>231.0</ele><time>2026-04-05T02:53:32Z</time></trkpt><trkpt lat="-31.930282226342694" lon="116.22225447280579"><ele>231.0</ele><time>2026-04-05T02:53:33Z</time></trkpt><trkpt lat="-31.930150425258386" lon="116.22237891436288"><ele>231.0</ele><time>2026-04-05T02:53:34Z</time></trkpt><trkpt lat="-31.930020831765916" lon="116.22251806875181"><ele>233.33333333333331</ele><time>2026-04-05T02:53:35Z</time></trkpt><trkpt lat="-31.929897833515593" lon="116.22266509703068"><ele>235.66666666666666</ele><time>2026-04-05T02:53:36Z</time></trkpt><trkpt lat="-31.92977590301647" lon="116.22284925817645"><ele>238.0</ele><time>2026-04-05T02:53:37Z</time></trkpt><trkpt lat="-31.929629735806166" lon="116.22303611211129"><ele>237.5</ele><time>2026-04-05T02:53:38Z</time></trkpt><trkpt lat="-31.929464117765555" lon="116.22322914743336"><ele>237.0</ele><time>2026-04-05T02:53:39Z</time></trkpt><trkpt lat="-31.929304678343993" lon="116.2234393538334"><ele>236.66666666666669</ele><time>2026-04-05T02:53:40Z</time></trkpt><trkpt lat="-31.92916391443244" lon="116.22362723344426"><ele>236.33333333333334</ele><time>2026-04-05T02:53:41Z</time></trkpt><trkpt lat="-31.92903721613946" lon="116.22379673671334"><ele>236.0</ele><time>2026-04-05T02:53:42Z</time></trkpt><trkpt lat="-31.92892379165234" lon="116.2239568551305"><ele>237.66666666666669</ele><time>2026-04-05T02:53:43Z</time></trkpt><trkpt lat="-31.928823458129223" lon="116.2241039153636"><ele>239.33333333333331</ele><time>2026-04-05T02:53:44Z</time></trkpt><trkpt lat="-31.92872844243819" lon="116.2242498375539"><ele>241.0</ele><time>2026-04-05T02:53:45Z</time></trkpt><trkpt lat="-31.92864201198986" lon="116.22438876822913"><ele>241.0</ele><time>2026-04-05T02:53:46Z</time></trkpt><trkpt lat="-31.928563306845255" lon="116.22451901920019"><ele>241.0</ele><time>2026-04-05T02:53:47Z</time></trkpt><trkpt lat="-31.928481017332835" lon="116.22465520202483"><ele>241.0</ele><time>2026-04-05T02:53:48Z</time></trkpt><trkpt lat="-31.92845387041097" lon="116.224848198732"><ele>241.0</ele><time>2026-04-05T02:53:49Z</time></trkpt><trkpt lat="-31.928397176152828" lon="116.22504361287837"><ele>241.0</ele><time>2026-04-05T02:53:50Z</time></trkpt><trkpt lat="-31.92833295524183" lon="116.2252570499896"><ele>241.0</ele><time>2026-04-05T02:53:51Z</time></trkpt><trkpt lat="-31.928271314461085" lon="116.22548580888908"><ele>241.0</ele><time>2026-04-05T02:53:52Z</time></trkpt><trkpt lat="-31.92820877964342" lon="116.22571771786745"><ele>243.0</ele><time>2026-04-05T02:53:53Z</time></trkpt><trkpt lat="-31.928150503502096" lon="116.22593379926754"><ele>245.0</ele><time>2026-04-05T02:53:54Z</time></trkpt><trkpt lat="-31.928090213110597" lon="116.22616089647326"><ele>247.0</ele><time>2026-04-05T02:53:55Z</time></trkpt><trkpt lat="-31.928027493577712" lon="116.22638425519455"><ele>246.66666666666666</ele><time>2026-04-05T02:53:56Z</time></trkpt><trkpt lat="-31.927972693509275" lon="116.22660724878615"><ele>246.33333333333331</ele><time>2026-04-05T02:53:57Z</time></trkpt><trkpt lat="-31.92792236524284" lon="116.22684351326326"><ele>246.0</ele><time>2026-04-05T02:53:58Z</time></trkpt><trkpt lat="-31.92788122992012" lon="116.22707384780357"><ele>246.0</ele><time>2026-04-05T02:53:59Z</time></trkpt><trkpt lat="-31.92784202438469" lon="116.22730596725579"><ele>246.0</ele><time>2026-04-05T02:54:00Z</time></trkpt><trkpt lat="-31.927805551317356" lon="116.22753673195791"><ele>246.0</ele><time>2026-04-05T02:54:01Z</time></trkpt><trkpt lat="-31.927766913689204" lon="116.2277640429933"><ele>247.66666666666669</ele><time>2026-04-05T02:54:02Z</time></trkpt><trkpt lat="-31.927729636367005" lon="116.2279705252377"><ele>249.33333333333334</ele><time>2026-04-05T02:54:03Z</time></trkpt><trkpt lat="-31.927693935332037" lon="116.22815486331767"><ele>251.0</ele><time>2026-04-05T02:54:04Z</time></trkpt><trkpt lat="-31.927657780943896" lon="116.22832870031033"><ele>250.25</ele><time>2026-04-05T02:54:05Z</time></trkpt><trkpt lat="-31.927617621178324" lon="116.22848977485472"><ele>249.5</ele><time>2026-04-05T02:54:06Z</time></trkpt><trkpt lat="-31.927580212938572" lon="116.2286343893338"><ele>248.75</ele><time>2026-04-05T02:54:07Z</time></trkpt><trkpt lat="-31.927536569078974" lon="116.22878326874363"><ele>248.0</ele><time>2026-04-05T02:54:08Z</time></trkpt><trkpt lat="-31.927480782392383" lon="116.22895630374363"><ele>251.33333333333334</ele><time>2026-04-05T02:54:09Z</time></trkpt><trkpt lat="-31.927412298283176" lon="116.22915742930796"><ele>254.66666666666669</ele><time>2026-04-05T02:54:10Z</time></trkpt><trkpt lat="-31.927336271216067" lon="116.22937738450122"><ele>258.0</ele><time>2026-04-05T02:54:11Z</time></trkpt><trkpt lat="-31.92725893340431" lon="116.22960162493915"><ele>259.3333333333333</ele><time>2026-04-05T02:54:12Z</time></trkpt><trkpt lat="-31.927177161042557" lon="116.22983913848834"><ele>260.66666666666663</ele><time>2026-04-05T02:54:13Z</time></trkpt><trkpt lat="-31.927097665503492" lon="116.23007310671876"><ele>262.0</ele><time>2026-04-05T02:54:14Z</time></trkpt><trkpt lat="-31.927019471718214" lon="116.23031233006225"><ele>262.0</ele><time>2026-04-05T02:54:15Z</time></trkpt><trkpt lat="-31.92693594369604" lon="116.23055196183638"><ele>262.0</ele><time>2026-04-05T02:54:16Z</time></trkpt><trkpt lat="-31.926849425360093" lon="116.23078599965358"><ele>262.0</ele><time>2026-04-05T02:54:17Z</time></trkpt><trkpt lat="-31.926758046777064" lon="116.23099703335421"><ele>261.66666666666663</ele><time>2026-04-05T02:54:18Z</time></trkpt><trkpt lat="-31.926653917689432" lon="116.23119964221863"><ele>261.3333333333333</ele><time>2026-04-05T02:54:19Z</time></trkpt><trkpt lat="-31.926544033968366" lon="116.23140383150765"><ele>261.0</ele><time>2026-04-05T02:54:20Z</time></trkpt><trkpt lat="-31.926432270220662" lon="116.23162295393428"><ele>261.0</ele><time>2026-04-05T02:54:21Z</time></trkpt><trkpt lat="-31.926330102134045" lon="116.23183019776967"><ele>261.0</ele><time>2026-04-05T02:54:22Z</time></trkpt><trkpt lat="-31.926233199118265" lon="116.23202685593029"><ele>261.0</ele><time>2026-04-05T02:54:23Z</time></trkpt><trkpt lat="-31.926142508481064" lon="116.23221112040332"><ele>262.6666666666667</ele><time>2026-04-05T02:54:24Z</time></trkpt><trkpt lat="-31.92606320504698" lon="116.23240199199284"><ele>264.33333333333337</ele><time>2026-04-05T02:54:25Z</time></trkpt><trkpt lat="-31.9259859374536" lon="116.23262099481413"><ele>266.0</ele><time>2026-04-05T02:54:26Z</time></trkpt><trkpt lat="-31.925913006906754" lon="116.23284325403077"><ele>264.0</ele><time>2026-04-05T02:54:27Z</time></trkpt><trkpt lat="-31.925842799673372" lon="116.23306032611055"><ele>262.0</ele><time>2026-04-05T02:54:28Z</time></trkpt><trkpt lat="-31.92578854821815" lon="116.2332751896658"><ele>260.0</ele><time>2026-04-05T02:54:29Z</time></trkpt><trkpt lat="-31.925755803857463" lon="116.23348294010769"><ele>260.0</ele><time>2026-04-05T02:54:30Z</time></trkpt><trkpt lat="-31.92573486893509" lon="116.23371005897543"><ele>260.0</ele><time>2026-04-05T02:54:31Z</time></trkpt><trkpt lat="-31.92573035128116" lon="116.23392734522201"><ele>260.0</ele><time>2026-04-05T02:54:32Z</time></trkpt><trkpt lat="-31.925726013909095" lon="116.2341717017508"><ele>259.5</ele><time>2026-04-05T02:54:33Z</time></trkpt><trkpt lat="-31.925725910983914" lon="116.23443458960087"><ele>259.0</ele><time>2026-04-05T02:54:34Z</time></trkpt><trkpt lat="-31.925725553482554" lon="116.23471481558664"><ele>259.5</ele><time>2026-04-05T02:54:35Z</time></trkpt><trkpt lat="-31.9257269702987" lon="116.23501454494067"><ele>260.0</ele><time>2026-04-05T02:54:36Z</time></trkpt><trkpt lat="-31.925733314729207" lon="116.23532014433368"><ele>260.0</ele><time>2026-04-05T02:54:37Z</time></trkpt><trkpt lat="-31.925733034888214" lon="116.23559755621353"><ele>260.0</ele><time>2026-04-05T02:54:38Z</time></trkpt><trkpt lat="-31.92573069079784" lon="116.23584896756017"><ele>260.0</ele><time>2026-04-05T02:54:39Z</time></trkpt><trkpt lat="-31.925720685577318" lon="116.23609036691849"><ele>262.0</ele><time>2026-04-05T02:54:40Z</time></trkpt><trkpt lat="-31.92571096663379" lon="116.23632174199423"><ele>264.0</ele><time>2026-04-05T02:54:41Z</time></trkpt><trkpt lat="-31.92570442616811" lon="116.23654290928464"><ele>266.0</ele><time>2026-04-05T02:54:42Z</time></trkpt><trkpt lat="-31.925699350887808" lon="116.23676749277472"><ele>266.33333333333337</ele><time>2026-04-05T02:54:43Z</time></trkpt><trkpt lat="-31.925690299439268" lon="116.23696840716205"><ele>266.6666666666667</ele><time>2026-04-05T02:54:44Z</time></trkpt><trkpt lat="-31.925683929915245" lon="116.23717504081255"><ele>267.0</ele><time>2026-04-05T02:54:45Z</time></trkpt><trkpt lat="-31.925679130567527" lon="116.23738336015103"><ele>268.3333333333333</ele><time>2026-04-05T02:54:46Z</time></trkpt><trkpt lat="-31.925671662942655" lon="116.2376206791173"><ele>269.66666666666663</ele><time>2026-04-05T02:54:47Z</time></trkpt><trkpt lat="-31.925664341413956" lon="116.23786750768186"><ele>271.0</ele><time>2026-04-05T02:54:48Z</time></trkpt><trkpt lat="-31.92565867897613" lon="116.23813183339271"><ele>271.5</ele><time>2026-04-05T02:54:49Z</time></trkpt><trkpt lat="-31.925653826712118" lon="116.2384174466988"><ele>272.0</ele><time>2026-04-05T02:54:50Z</time></trkpt><trkpt lat="-31.92564421543879" lon="116.23870102306134"><ele>272.0</ele><time>2026-04-05T02:54:51Z</time></trkpt><trkpt lat="-31.925627303444543" lon="116.23896185260051"><ele>272.0</ele><time>2026-04-05T02:54:52Z</time></trkpt><trkpt lat="-31.925601107397327" lon="116.23922731948386"><ele>272.0</ele><time>2026-04-05T02:54:53Z</time></trkpt><trkpt lat="-31.92556615772464" lon="116.23950037799206"><ele>271.5</ele><time>2026-04-05T02:54:54Z</time></trkpt><trkpt lat="-31.9255200131067" lon="116.23977007415876"><ele>271.0</ele><time>2026-04-05T02:54:55Z</time></trkpt><trkpt lat="-31.925466958889118" lon="116.24002294649132"><ele>272.3333333333333</ele><time>2026-04-05T02:54:56Z</time></trkpt><trkpt lat="-31.92541156680648" lon="116.24024083667341"><ele>273.6666666666667</ele><time>2026-04-05T02:54:57Z</time></trkpt><trkpt lat="-31.92535780528313" lon="116.24044078730105"><ele>275.0</ele><time>2026-04-05T02:54:58Z</time></trkpt><trkpt lat="-31.92529999106469" lon="116.24064311034333"><ele>275.0</ele><time>2026-04-05T02:54:59Z</time></trkpt><trkpt lat="-31.92521106446375" lon="116.24085317537794"><ele>275.0</ele><time>2026-04-05T02:55:00Z</time></trkpt><trkpt lat="-31.925111438034392" lon="116.2410667639534"><ele>275.0</ele><time>2026-04-05T02:55:01Z</time></trkpt><trkpt lat="-31.92501938890033" lon="116.24127183661278"><ele>275.0</ele><time>2026-04-05T02:55:02Z</time></trkpt><trkpt lat="-31.92493391736841" lon="116.24146406412419"><ele>275.0</ele><time>2026-04-05T02:55:03Z</time></trkpt><trkpt lat="-31.92486374434023" lon="116.24165667668979"><ele>275.0</ele><time>2026-04-05T02:55:04Z</time></trkpt><trkpt lat="-31.924786923095926" lon="116.24183552364899"><ele>276.0</ele><time>2026-04-05T02:55:05Z</time></trkpt><trkpt lat="-31.924698688734715" lon="116.2420108125896"><ele>277.0</ele><time>2026-04-05T02:55:06Z</time></trkpt><trkpt lat="-31.9246301773237" lon="116.24222646362024"><ele>278.0</ele><time>2026-04-05T02:55:07Z</time></trkpt><trkpt lat="-31.924601377748104" lon="116.24246539006187"><ele>279.0</ele><time>2026-04-05T02:55:08Z</time></trkpt><trkpt lat="-31.924588454414497" lon="116.24271008588543"><ele>280.0</ele><time>2026-04-05T02:55:09Z</time></trkpt><trkpt lat="-31.924543988687418" lon="116.24295738597293"><ele>281.0</ele><time>2026-04-05T02:55:10Z</time></trkpt><trkpt lat="-31.92451340064123" lon="116.24320212569586"><ele>283.0</ele><time>2026-04-05T02:55:11Z</time></trkpt><trkpt lat="-31.92448336706689" lon="116.24344023834699"><ele>285.0</ele><time>2026-04-05T02:55:12Z</time></trkpt><trkpt lat="-31.924455705434784" lon="116.2436763569039"><ele>287.0</ele><time>2026-04-05T02:55:13Z</time></trkpt><trkpt lat="-31.924399942720804" lon="116.24389248089238"><ele>288.33333333333337</ele><time>2026-04-05T02:55:14Z</time></trkpt><trkpt lat="-31.924340644402946" lon="116.24408232551316"><ele>289.6666666666667</ele><time>2026-04-05T02:55:15Z</time></trkpt><trkpt lat="-31.924276675300227" lon="116.24426319614064"><ele>291.0</ele><time>2026-04-05T02:55:16Z</time></trkpt><trkpt lat="-31.924182397659752" lon="116.24443357100965"><ele>288.3333333333333</ele><time>2026-04-05T02:55:17Z</time></trkpt><trkpt lat="-31.92409946773969" lon="116.2446043125072"><ele>285.66666666666663</ele><time>2026-04-05T02:55:18Z</time></trkpt><trkpt lat="-31.924036412558678" lon="116.24477793206248"><ele>283.0</ele><time>2026-04-05T02:55:19Z</time></trkpt><trkpt lat="-31.9239587215962" lon="116.2449412386188"><ele>283.0</ele><time>2026-04-05T02:55:20Z</time></trkpt><trkpt lat="-31.92389557324757" lon="116.24511004941726"><ele>283.0</ele><time>2026-04-05T02:55:21Z</time></trkpt><trkpt lat="-31.923829599740674" lon="116.24527434333937"><ele>283.0</ele><time>2026-04-05T02:55:22Z</time></trkpt><trkpt lat="-31.923784512236026" lon="116.24545749813744"><ele>286.0</ele><time>2026-04-05T02:55:23Z</time></trkpt><trkpt lat="-31.923740185191473" lon="116.24567919651281"><ele>289.0</ele><time>2026-04-05T02:55:24Z</time></trkpt><trkpt lat="-31.92370534696179" lon="116.24591519225929"><ele>292.0</ele><time>2026-04-05T02:55:25Z</time></trkpt><trkpt lat="-31.92368735721524" lon="116.2461361151962"><ele>292.0</ele><time>2026-04-05T02:55:26Z</time></trkpt><trkpt lat="-31.923680129917344" lon="116.24632222626197"><ele>292.0</ele><time>2026-04-05T02:55:27Z</time></trkpt><trkpt lat="-31.92368947376618" lon="116.24649436456689"><ele>292.0</ele><time>2026-04-05T02:55:28Z</time></trkpt><trkpt lat="-31.923691523666104" lon="116.24666040050582"><ele>292.0</ele><time>2026-04-05T02:55:29Z</time></trkpt><trkpt lat="-31.923684981232316" lon="116.24684094131746"><ele>291.66666666666663</ele><time>2026-04-05T02:55:30Z</time></trkpt><trkpt lat="-31.92369753969261" lon="116.24704772765683"><ele>291.3333333333333</ele><time>2026-04-05T02:55:31Z</time></trkpt><trkpt lat="-31.923730668101424" lon="116.24728226110636"><ele>291.0</ele><time>2026-04-05T02:55:32Z</time></trkpt><trkpt lat="-31.923768188861498" lon="116.24746408451473"><ele>292.0</ele><time>2026-04-05T02:55:33Z</time></trkpt><trkpt lat="-31.923811893129628" lon="116.24762920976784"><ele>293.0</ele><time>2026-04-05T02:55:34Z</time></trkpt><trkpt lat="-31.923864575372658" lon="116.24777395925861"><ele>294.0</ele><time>2026-04-05T02:55:35Z</time></trkpt><trkpt lat="-31.92393347889046" lon="116.24788528206754"><ele>295.0</ele><time>2026-04-05T02:55:36Z</time></trkpt><trkpt lat="-31.92398019882955" lon="116.24798397779323"><ele>295.0</ele><time>2026-04-05T02:55:37Z</time></trkpt><trkpt lat="-31.92402403133339" lon="116.24806221689977"><ele>295.0</ele><time>2026-04-05T02:55:38Z</time></trkpt><trkpt lat="-31.924072791493277" lon="116.24815764957518"><ele>295.0</ele><time>2026-04-05T02:55:40Z</time></trkpt><trkpt lat="-31.924127029317987" lon="116.24823311434736"><ele>295.0</ele><time>2026-04-05T02:55:43Z</time></trkpt><trkpt lat="-31.924188228721093" lon="116.24827889705884"><ele>295.0</ele><time>2026-04-05T02:55:47Z</time></trkpt><trkpt lat="-31.92424030941626" lon="116.24837097970372"><ele>295.0</ele><time>2026-04-05T02:55:50Z</time></trkpt><trkpt lat="-31.92429498228275" lon="116.24841863051998"><ele>296.0</ele><time>2026-04-05T02:55:51Z</time></trkpt><trkpt lat="-31.924348847168655" lon="116.24847648191209"><ele>297.0</ele><time>2026-04-05T02:55:52Z</time></trkpt><trkpt lat="-31.924398848732537" lon="116.24855809440454"><ele>298.0</ele><time>2026-04-05T02:55:53Z</time></trkpt><trkpt lat="-31.924467987374282" lon="116.24863661296173"><ele>299.0</ele><time>2026-04-05T02:55:54Z</time></trkpt><trkpt lat="-31.924547217919784" lon="116.24869961456226"><ele>300.0</ele><time>2026-04-05T02:55:55Z</time></trkpt><trkpt lat="-31.92462011802035" lon="116.24877719225378"><ele>301.0</ele><time>2026-04-05T02:55:56Z</time></trkpt><trkpt lat="-31.9246992495892" lon="116.24886627427402"><ele>300.75</ele><time>2026-04-05T02:55:57Z</time></trkpt><trkpt lat="-31.924780590912235" lon="116.2489615152989"><ele>300.5</ele><time>2026-04-05T02:55:58Z</time></trkpt><trkpt lat="-31.924870444345157" lon="116.24905768640765"><ele>300.25</ele><time>2026-04-05T02:55:59Z</time></trkpt><trkpt lat="-31.924965181363092" lon="116.24916010399868"><ele>300.0</ele><time>2026-04-05T02:56:00Z</time></trkpt><trkpt lat="-31.925058863949047" lon="116.24926839283611"><ele>300.6666666666667</ele><time>2026-04-05T02:56:01Z</time></trkpt><trkpt lat="-31.92516269729346" lon="116.24938842838198"><ele>301.33333333333337</ele><time>2026-04-05T02:56:02Z</time></trkpt><trkpt lat="-31.92526865116976" lon="116.24950838969302"><ele>302.0</ele><time>2026-04-05T02:56:03Z</time></trkpt><trkpt lat="-31.925387668772263" lon="116.24964214540142"><ele>302.0</ele><time>2026-04-05T02:56:04Z</time></trkpt><trkpt lat="-31.925500974396083" lon="116.24977512594563"><ele>302.0</ele><time>2026-04-05T02:56:05Z</time></trkpt><trkpt lat="-31.92561445934055" lon="116.24991298030851"><ele>302.0</ele><time>2026-04-05T02:56:06Z</time></trkpt><trkpt lat="-31.925735243242286" lon="116.25005507924821"><ele>302.0</ele><time>2026-04-05T02:56:07Z</time></trkpt><trkpt lat="-31.92585271493451" lon="116.25018578771865"><ele>302.0</ele><time>2026-04-05T02:56:08Z</time></trkpt><trkpt lat="-31.925966586857925" lon="116.25029784743231"><ele>302.0</ele><time>2026-04-05T02:56:09Z</time></trkpt><trkpt lat="-31.92606807582925" lon="116.25039256759433"><ele>302.0</ele><time>2026-04-05T02:56:10Z</time></trkpt><trkpt lat="-31.926175146397853" lon="116.25048337734749"><ele>303.0</ele><time>2026-04-05T02:56:11Z</time></trkpt><trkpt lat="-31.92630953676812" lon="116.25056608004722"><ele>304.0</ele><time>2026-04-05T02:56:12Z</time></trkpt><trkpt lat="-31.926475709592783" lon="116.25064253557728"><ele>305.0</ele><time>2026-04-05T02:56:13Z</time></trkpt><trkpt lat="-31.92665693142961" lon="116.25074678327745"><ele>305.5</ele><time>2026-04-05T02:56:14Z</time></trkpt><trkpt lat="-31.92687275880164" lon="116.25082997947058"><ele>306.0</ele><time>2026-04-05T02:56:15Z</time></trkpt><trkpt lat="-31.927108019389017" lon="116.25091090539775"><ele>306.0</ele><time>2026-04-05T02:56:16Z</time></trkpt><trkpt lat="-31.927339859941274" lon="116.25101476262023"><ele>306.0</ele><time>2026-04-05T02:56:17Z</time></trkpt><trkpt lat="-31.92759069118694" lon="116.25112542528643"><ele>306.5</ele><time>2026-04-05T02:56:18Z</time></trkpt><trkpt lat="-31.927835079419562" lon="116.25122533998453"><ele>307.0</ele><time>2026-04-05T02:56:19Z</time></trkpt><trkpt lat="-31.928052874260704" lon="116.25131683709056"><ele>307.0</ele><time>2026-04-05T02:56:20Z</time></trkpt><trkpt lat="-31.928274306407303" lon="116.25140065413477"><ele>307.0</ele><time>2026-04-05T02:56:21Z</time></trkpt><trkpt lat="-31.92847695402439" lon="116.25146408794507"><ele>307.0</ele><time>2026-04-05T02:56:22Z</time></trkpt><trkpt lat="-31.928659022590278" lon="116.25151148582547"><ele>307.0</ele><time>2026-04-05T02:56:23Z</time></trkpt><trkpt lat="-31.928854271798826" lon="116.25155767585031"><ele>307.0</ele><time>2026-04-05T02:56:24Z</time></trkpt><trkpt lat="-31.929054561723873" lon="116.25160317207427"><ele>307.0</ele><time>2026-04-05T02:56:25Z</time></trkpt><trkpt lat="-31.929261007802108" lon="116.25165462275395"><ele>307.0</ele><time>2026-04-05T02:56:26Z</time></trkpt><trkpt lat="-31.929457409185" lon="116.25170193075519"><ele>307.0</ele><time>2026-04-05T02:56:27Z</time></trkpt><trkpt lat="-31.929633005652168" lon="116.25173561007233"><ele>307.0</ele><time>2026-04-05T02:56:28Z</time></trkpt><trkpt lat="-31.929795336191923" lon="116.25179783393283"><ele>307.0</ele><time>2026-04-05T02:56:29Z</time></trkpt><trkpt lat="-31.92995320755663" lon="116.25185186597527"><ele>307.0</ele><time>2026-04-05T02:56:30Z</time></trkpt><trkpt lat="-31.930128917867812" lon="116.25191842991168"><ele>307.0</ele><time>2026-04-05T02:56:31Z</time></trkpt><trkpt lat="-31.930317834126107" lon="116.25200073050205"><ele>304.0</ele><time>2026-04-05T02:56:32Z</time></trkpt><trkpt lat="-31.930532548866363" lon="116.25208797783021"><ele>301.0</ele><time>2026-04-05T02:56:33Z</time></trkpt><trkpt lat="-31.930740179797837" lon="116.25221419858136"><ele>298.3333333333333</ele><time>2026-04-05T02:56:34Z</time></trkpt><trkpt lat="-31.930942897186984" lon="116.25234584539596"><ele>295.6666666666667</ele><time>2026-04-05T02:56:35Z</time></trkpt><trkpt lat="-31.931128926638422" lon="116.25246899940107"><ele>293.0</ele><time>2026-04-05T02:56:36Z</time></trkpt><trkpt lat="-31.931308383401202" lon="116.25259302266554"><ele>293.0</ele><time>2026-04-05T02:56:37Z</time></trkpt><trkpt lat="-31.931481952987202" lon="116.25270352221305"><ele>293.0</ele><time>2026-04-05T02:56:38Z</time></trkpt><trkpt lat="-31.931659528864802" lon="116.252802393163"><ele>293.0</ele><time>2026-04-05T02:56:39Z</time></trkpt><trkpt lat="-31.931829927355267" lon="116.2528860429851"><ele>293.0</ele><time>2026-04-05T02:56:40Z</time></trkpt><trkpt lat="-31.931992714523453" lon="116.25295262961552"><ele>293.0</ele><time>2026-04-05T02:56:41Z</time></trkpt><trkpt lat="-31.932175449556574" lon="116.2530160294596"><ele>293.0</ele><time>2026-04-05T02:56:42Z</time></trkpt><trkpt lat="-31.932384619401947" lon="116.2530633953007"><ele>291.0</ele><time>2026-04-05T02:56:43Z</time></trkpt><trkpt lat="-31.932612081460533" lon="116.25310630487957"><ele>289.0</ele><time>2026-04-05T02:56:44Z</time></trkpt><trkpt lat="-31.93283240476288" lon="116.25313717110986"><ele>287.66666666666663</ele><time>2026-04-05T02:56:45Z</time></trkpt><trkpt lat="-31.933029268986772" lon="116.25316572084681"><ele>286.3333333333333</ele><time>2026-04-05T02:56:46Z</time></trkpt><trkpt lat="-31.933213115400296" lon="116.25319182776435"><ele>285.0</ele><time>2026-04-05T02:56:47Z</time></trkpt><trkpt lat="-31.933385059667874" lon="116.25322942515929"><ele>284.0</ele><time>2026-04-05T02:56:48Z</time></trkpt><trkpt lat="-31.93355181894572" lon="116.25327193739275"><ele>283.0</ele><time>2026-04-05T02:56:49Z</time></trkpt><trkpt lat="-31.93371507646565" lon="116.25332710018333"><ele>282.0</ele><time>2026-04-05T02:56:50Z</time></trkpt><trkpt lat="-31.933872265940984" lon="116.25340504850283"><ele>282.0</ele><time>2026-04-05T02:56:51Z</time></trkpt><trkpt lat="-31.9340153241019" lon="116.25352354494778"><ele>282.0</ele><time>2026-04-05T02:56:52Z</time></trkpt><trkpt lat="-31.93418200490857" lon="116.25365452207424"><ele>282.0</ele><time>2026-04-05T02:56:53Z</time></trkpt><trkpt lat="-31.934353821752065" lon="116.25379869575815"><ele>282.0</ele><time>2026-04-05T02:56:54Z</time></trkpt><trkpt lat="-31.93453690780644" lon="116.25392571267416"><ele>282.0</ele><time>2026-04-05T02:56:55Z</time></trkpt><trkpt lat="-31.934697974205555" lon="116.25406731049702"><ele>282.0</ele><time>2026-04-05T02:56:56Z</time></trkpt><trkpt lat="-31.934878583866038" lon="116.25420008973677"><ele>282.5</ele><time>2026-04-05T02:56:57Z</time></trkpt><trkpt lat="-31.935075948202165" lon="116.25432973413334"><ele>283.0</ele><time>2026-04-05T02:56:58Z</time></trkpt><trkpt lat="-31.935284968085227" lon="116.25445807920839"><ele>283.0</ele><time>2026-04-05T02:56:59Z</time></trkpt><trkpt lat="-31.93549984327614" lon="116.25458510273772"><ele>283.0</ele><time>2026-04-05T02:57:00Z</time></trkpt><trkpt lat="-31.93571948071886" lon="116.25471275695244"><ele>285.0</ele><time>2026-04-05T02:57:01Z</time></trkpt><trkpt lat="-31.93592972937592" lon="116.25483265395722"><ele>287.0</ele><time>2026-04-05T02:57:02Z</time></trkpt><trkpt lat="-31.936134702770353" lon="116.25494547922777"><ele>287.0</ele><time>2026-04-05T02:57:03Z</time></trkpt><trkpt lat="-31.936326834921346" lon="116.25504125745795"><ele>287.0</ele><time>2026-04-05T02:57:04Z</time></trkpt><trkpt lat="-31.936532344840263" lon="116.25512867767696"><ele>287.0</ele><time>2026-04-05T02:57:05Z</time></trkpt><trkpt lat="-31.936728200288744" lon="116.2552428153227"><ele>286.6666666666667</ele><time>2026-04-05T02:57:06Z</time></trkpt><trkpt lat="-31.936918030331267" lon="116.25533459527938"><ele>286.3333333333333</ele><time>2026-04-05T02:57:07Z</time></trkpt><trkpt lat="-31.937088101303228" lon="116.25540542101615"><ele>286.0</ele><time>2026-04-05T02:57:08Z</time></trkpt><trkpt lat="-31.93722867102877" lon="116.25550434921425"><ele>286.0</ele><time>2026-04-05T02:57:09Z</time></trkpt><trkpt lat="-31.937356469576432" lon="116.25559161669209"><ele>286.0</ele><time>2026-04-05T02:57:10Z</time></trkpt><trkpt lat="-31.937488215856245" lon="116.25565205332722"><ele>286.0</ele><time>2026-04-05T02:57:11Z</time></trkpt><trkpt lat="-31.937650520521597" lon="116.2556850210823"><ele>287.66666666666663</ele><time>2026-04-05T02:57:12Z</time></trkpt><trkpt lat="-31.937817371428824" lon="116.2556913977998"><ele>289.3333333333333</ele><time>2026-04-05T02:57:13Z</time></trkpt><trkpt lat="-31.93800187038895" lon="116.25567490365336"><ele>291.0</ele><time>2026-04-05T02:57:14Z</time></trkpt><trkpt lat="-31.93818213602606" lon="116.25564315660912"><ele>290.0</ele><time>2026-04-05T02:57:15Z</time></trkpt><trkpt lat="-31.93838093524036" lon="116.25561946769825"><ele>289.0</ele><time>2026-04-05T02:57:16Z</time></trkpt><trkpt lat="-31.938577430395497" lon="116.25560037370319"><ele>288.0</ele><time>2026-04-05T02:57:17Z</time></trkpt><trkpt lat="-31.93877171967184" lon="116.2555795668042"><ele>288.0</ele><time>2026-04-05T02:57:18Z</time></trkpt><trkpt lat="-31.938940768907052" lon="116.25556196336551"><ele>288.0</ele><time>2026-04-05T02:57:19Z</time></trkpt><trkpt lat="-31.93909274774844" lon="116.25554534049509"><ele>288.0</ele><time>2026-04-05T02:57:20Z</time></trkpt><trkpt lat="-31.9392356439628" lon="116.25552162639907"><ele>287.25</ele><time>2026-04-05T02:57:21Z</time></trkpt><trkpt lat="-31.93936817981096" lon="116.2554958687081"><ele>286.5</ele><time>2026-04-05T02:57:22Z</time></trkpt><trkpt lat="-31.939487708599103" lon="116.2554761767043"><ele>285.75</ele><time>2026-04-05T02:57:23Z</time></trkpt><trkpt lat="-31.939593752396384" lon="116.25546384999664"><ele>285.0</ele><time>2026-04-05T02:57:24Z</time></trkpt><trkpt lat="-31.939696896828654" lon="116.25546825791183"><ele>285.0</ele><time>2026-04-05T02:57:25Z</time></trkpt><trkpt lat="-31.939798000289173" lon="116.25550765901878"><ele>285.0</ele><time>2026-04-05T02:57:26Z</time></trkpt><trkpt lat="-31.939911487798817" lon="116.25553784614009"><ele>285.0</ele><time>2026-04-05T02:57:27Z</time></trkpt><trkpt lat="-31.940036992741717" lon="116.25558806102947"><ele>285.0</ele><time>2026-04-05T02:57:28Z</time></trkpt><trkpt lat="-31.94014870757771" lon="116.2556602773778"><ele>285.6666666666667</ele><time>2026-04-05T02:57:29Z</time></trkpt><trkpt lat="-31.94026436795091" lon="116.25574466839129"><ele>286.33333333333337</ele><time>2026-04-05T02:57:30Z</time></trkpt><trkpt lat="-31.94039534135736" lon="116.25584523135281"><ele>287.0</ele><time>2026-04-05T02:57:31Z</time></trkpt><trkpt lat="-31.940540597616728" lon="116.25594942899608"><ele>287.0</ele><time>2026-04-05T02:57:32Z</time></trkpt><trkpt lat="-31.940699583591652" lon="116.25607056819027"><ele>287.0</ele><time>2026-04-05T02:57:33Z</time></trkpt><trkpt lat="-31.94086861046529" lon="116.25620414228771"><ele>287.0</ele><time>2026-04-05T02:57:34Z</time></trkpt><trkpt lat="-31.941043724588447" lon="116.25633819431397"><ele>288.0</ele><time>2026-04-05T02:57:35Z</time></trkpt><trkpt lat="-31.94121645633246" lon="116.25650384604839"><ele>289.0</ele><time>2026-04-05T02:57:36Z</time></trkpt><trkpt lat="-31.941407965008313" lon="116.25666527408364"><ele>289.0</ele><time>2026-04-05T02:57:37Z</time></trkpt><trkpt lat="-31.941605706144028" lon="116.25683492955122"><ele>289.0</ele><time>2026-04-05T02:57:38Z</time></trkpt><trkpt lat="-31.94181263750145" lon="116.25700990872848"><ele>290.3333333333333</ele><time>2026-04-05T02:57:39Z</time></trkpt><trkpt lat="-31.941995194276668" lon="116.25716372854866"><ele>291.6666666666667</ele><time>2026-04-05T02:57:40Z</time></trkpt><trkpt lat="-31.942155654230234" lon="116.25730058923315"><ele>293.0</ele><time>2026-04-05T02:57:41Z</time></trkpt><trkpt lat="-31.94230231196164" lon="116.2574259785161"><ele>294.33333333333337</ele><time>2026-04-05T02:57:42Z</time></trkpt><trkpt lat="-31.942435387339486" lon="116.25754520296906"><ele>295.6666666666667</ele><time>2026-04-05T02:57:43Z</time></trkpt><trkpt lat="-31.942560269073628" lon="116.2576694807425"><ele>297.0</ele><time>2026-04-05T02:57:44Z</time></trkpt><trkpt lat="-31.942691555187206" lon="116.25781070113725"><ele>297.0</ele><time>2026-04-05T02:57:45Z</time></trkpt><trkpt lat="-31.942824695615897" lon="116.25795657203338"><ele>297.0</ele><time>2026-04-05T02:57:46Z</time></trkpt><trkpt lat="-31.942963424166006" lon="116.25811576914333"><ele>297.0</ele><time>2026-04-05T02:57:47Z</time></trkpt><trkpt lat="-31.943115482515125" lon="116.2582696746228"><ele>298.0</ele><time>2026-04-05T02:57:48Z</time></trkpt><trkpt lat="-31.943252521710495" lon="116.25844691162153"><ele>299.0</ele><time>2026-04-05T02:57:49Z</time></trkpt><trkpt lat="-31.943381500294816" lon="116.25862309331508"><ele>300.0</ele><time>2026-04-05T02:57:50Z</time></trkpt><trkpt lat="-31.94347357253207" lon="116.2588003838818"><ele>302.3333333333333</ele><time>2026-04-05T02:57:51Z</time></trkpt><trkpt lat="-31.943566332295646" lon="116.25895980517137"><ele>304.66666666666663</ele><time>2026-04-05T02:57:52Z</time></trkpt><trkpt lat="-31.943650364368576" lon="116.25911448696745"><ele>307.0</ele><time>2026-04-05T02:57:53Z</time></trkpt><trkpt lat="-31.9437213648257" lon="116.25925910497507"><ele>307.0</ele><time>2026-04-05T02:57:54Z</time></trkpt><trkpt lat="-31.943784161587942" lon="116.25940823840136"><ele>307.0</ele><time>2026-04-05T02:57:55Z</time></trkpt><trkpt lat="-31.943836304425783" lon="116.25957558438749"><ele>307.0</ele><time>2026-04-05T02:57:56Z</time></trkpt><trkpt lat="-31.943876071376916" lon="116.25975934951256"><ele>307.66666666666663</ele><time>2026-04-05T02:57:57Z</time></trkpt><trkpt lat="-31.943900636887097" lon="116.25996172761995"><ele>308.3333333333333</ele><time>2026-04-05T02:57:58Z</time></trkpt><trkpt lat="-31.94391693959683" lon="116.26015797471668"><ele>309.0</ele><time>2026-04-05T02:57:59Z</time></trkpt><trkpt lat="-31.943935164216533" lon="116.26035513262828"><ele>309.0</ele><time>2026-04-05T02:58:00Z</time></trkpt><trkpt lat="-31.943959598968537" lon="116.26055452938037"><ele>309.0</ele><time>2026-04-05T02:58:01Z</time></trkpt><trkpt lat="-31.943966746548476" lon="116.26074159748231"><ele>309.0</ele><time>2026-04-05T02:58:02Z</time></trkpt><trkpt lat="-31.94398157358893" lon="116.26090532457162"><ele>309.2</ele><time>2026-04-05T02:58:03Z</time></trkpt><trkpt lat="-31.94400928807784" lon="116.26105842418107"><ele>309.4</ele><time>2026-04-05T02:58:04Z</time></trkpt><trkpt lat="-31.944042248845612" lon="116.26118881732849"><ele>309.6</ele><time>2026-04-05T02:58:05Z</time></trkpt><trkpt lat="-31.94407391152196" lon="116.26130439566748"><ele>309.8</ele><time>2026-04-05T02:58:06Z</time></trkpt><trkpt lat="-31.94410301675356" lon="116.26140499400091"><ele>310.0</ele><time>2026-04-05T02:58:07Z</time></trkpt><trkpt lat="-31.944137508095775" lon="116.26148790873872"><ele>310.0</ele><time>2026-04-05T02:58:08Z</time></trkpt><trkpt lat="-31.944173631765565" lon="116.2615522473241"><ele>310.0</ele><time>2026-04-05T02:58:09Z</time></trkpt><trkpt lat="-31.944221879156665" lon="116.26162261977719"><ele>310.0</ele><time>2026-04-05T02:59:12Z</time></trkpt><trkpt lat="-31.944279734306924" lon="116.2617218273237"><ele>310.0</ele><time>2026-04-05T02:59:14Z</time></trkpt><trkpt lat="-31.944363037988154" lon="116.26185452716742"><ele>310.0</ele><time>2026-04-05T02:59:16Z</time></trkpt><trkpt lat="-31.944427093208464" lon="116.26194428395999"><ele>309.75</ele><time>2026-04-05T02:59:17Z</time></trkpt><trkpt lat="-31.944520255462454" lon="116.26204027246115"><ele>309.5</ele><time>2026-04-05T02:59:18Z</time></trkpt><trkpt lat="-31.944644954854805" lon="116.26213346967987"><ele>309.25</ele><time>2026-04-05T02:59:19Z</time></trkpt><trkpt lat="-31.944774505671166" lon="116.26223072989181"><ele>309.0</ele><time>2026-04-05T02:59:20Z</time></trkpt><trkpt lat="-31.94493794100745" lon="116.26233259136745"><ele>309.3333333333333</ele><time>2026-04-05T02:59:21Z</time></trkpt><trkpt lat="-31.94508886428613" lon="116.26241625338609"><ele>309.66666666666663</ele><time>2026-04-05T02:59:22Z</time></trkpt><trkpt lat="-31.945233291362143" lon="116.26248878538"><ele>310.0</ele><time>2026-04-05T02:59:23Z</time></trkpt><trkpt lat="-31.945381936673733" lon="116.26255444732702"><ele>310.0</ele><time>2026-04-05T02:59:24Z</time></trkpt><trkpt lat="-31.945515844216935" lon="116.26260176419328"><ele>310.0</ele><time>2026-04-05T02:59:25Z</time></trkpt><trkpt lat="-31.945647019202756" lon="116.26263276754557"><ele>310.0</ele><time>2026-04-05T02:59:26Z</time></trkpt><trkpt lat="-31.945784168388272" lon="116.26266034281906"><ele>310.0</ele><time>2026-04-05T02:59:27Z</time></trkpt><trkpt lat="-31.94591978526507" lon="116.26268793643996"><ele>309.75</ele><time>2026-04-05T02:59:28Z</time></trkpt><trkpt lat="-31.946052141634333" lon="116.26270530291855"><ele>309.5</ele><time>2026-04-05T02:59:29Z</time></trkpt><trkpt lat="-31.94619297779162" lon="116.26271111730884"><ele>309.25</ele><time>2026-04-05T02:59:30Z</time></trkpt><trkpt lat="-31.946344304267814" lon="116.26269880816737"><ele>309.0</ele><time>2026-04-05T02:59:31Z</time></trkpt><trkpt lat="-31.946502230747534" lon="116.26267141665599"><ele>309.0</ele><time>2026-04-05T02:59:32Z</time></trkpt><trkpt lat="-31.946675434538626" lon="116.26263940474578"><ele>309.0</ele><time>2026-04-05T02:59:33Z</time></trkpt><trkpt lat="-31.946837628566115" lon="116.2626153722407"><ele>309.0</ele><time>2026-04-05T02:59:34Z</time></trkpt><trkpt lat="-31.946981157745988" lon="116.26262159453339"><ele>309.0</ele><time>2026-04-05T02:59:35Z</time></trkpt><trkpt lat="-31.947117749678284" lon="116.26263147308924"><ele>309.0</ele><time>2026-04-05T02:59:36Z</time></trkpt><trkpt lat="-31.947259481228887" lon="116.26265493470409"><ele>309.0</ele><time>2026-04-05T02:59:37Z</time></trkpt><trkpt lat="-31.947410948288763" lon="116.26267936659896"><ele>309.0</ele><time>2026-04-05T02:59:38Z</time></trkpt><trkpt lat="-31.947573152577892" lon="116.26275327285985"><ele>308.3333333333333</ele><time>2026-04-05T02:59:39Z</time></trkpt><trkpt lat="-31.947738779884645" lon="116.2628458538919"><ele>307.66666666666663</ele><time>2026-04-05T02:59:40Z</time></trkpt><trkpt lat="-31.947903364117114" lon="116.26295686930598"><ele>307.0</ele><time>2026-04-05T02:59:41Z</time></trkpt><trkpt lat="-31.948062901645798" lon="116.26307811075063"><ele>305.3333333333333</ele><time>2026-04-05T02:59:42Z</time></trkpt><trkpt lat="-31.948210621229617" lon="116.26320221864212"><ele>303.6666666666667</ele><time>2026-04-05T02:59:43Z</time></trkpt><trkpt lat="-31.948355216832255" lon="116.26332292865854"><ele>302.0</ele><time>2026-04-05T02:59:44Z</time></trkpt><trkpt lat="-31.948495720551698" lon="116.26343948836298"><ele>301.75</ele><time>2026-04-05T02:59:45Z</time></trkpt><trkpt lat="-31.948620248234334" lon="116.26355000283002"><ele>301.5</ele><time>2026-04-05T02:59:46Z</time></trkpt><trkpt lat="-31.94873839027002" lon="116.2636578275431"><ele>301.25</ele><time>2026-04-05T02:59:47Z</time></trkpt><trkpt lat="-31.948837561746245" lon="116.26375038921427"><ele>301.0</ele><time>2026-04-05T02:59:48Z</time></trkpt><trkpt lat="-31.948920757660588" lon="116.26383003547468"><ele>301.0</ele><time>2026-04-05T02:59:49Z</time></trkpt><trkpt lat="-31.948997713640054" lon="116.2639010543467"><ele>301.0</ele><time>2026-04-05T02:59:50Z</time></trkpt><trkpt lat="-31.949078508970537" lon="116.26396824376656"><ele>301.0</ele><time>2026-04-05T02:59:51Z</time></trkpt><trkpt lat="-31.94916715182033" lon="116.26404665845534"><ele>301.0</ele><time>2026-04-05T02:59:52Z</time></trkpt><trkpt lat="-31.94927432571122" lon="116.2641372869591"><ele>301.0</ele><time>2026-04-05T02:59:53Z</time></trkpt><trkpt lat="-31.949386161364792" lon="116.26424048112611"><ele>299.0</ele><time>2026-04-05T02:59:54Z</time></trkpt><trkpt lat="-31.94950291236619" lon="116.26434774498163"><ele>297.0</ele><time>2026-04-05T02:59:55Z</time></trkpt><trkpt lat="-31.9496248530426" lon="116.264458911152"><ele>295.0</ele><time>2026-04-05T02:59:56Z</time></trkpt><trkpt lat="-31.949739079497885" lon="116.26456152695452"><ele>293.0</ele><time>2026-04-05T02:59:57Z</time></trkpt><trkpt lat="-31.949863577992396" lon="116.2646677009264"><ele>293.0</ele><time>2026-04-05T02:59:58Z</time></trkpt><trkpt lat="-31.9499913046154" lon="116.26476136707517"><ele>293.0</ele><time>2026-04-05T02:59:59Z</time></trkpt><trkpt lat="-31.95012742996856" lon="116.2648481591982"><ele>293.0</ele><time>2026-04-05T03:00:00Z</time></trkpt><trkpt lat="-31.950283211384857" lon="116.2649332658508"><ele>290.0</ele><time>2026-04-05T03:00:01Z</time></trkpt><trkpt lat="-31.95043792442651" lon="116.26501248759287"><ele>287.0</ele><time>2026-04-05T03:00:02Z</time></trkpt><trkpt lat="-31.950585620639753" lon="116.26508145108895"><ele>284.0</ele><time>2026-04-05T03:00:03Z</time></trkpt><trkpt lat="-31.950719221939675" lon="116.26513840730193"><ele>284.0</ele><time>2026-04-05T03:00:04Z</time></trkpt><trkpt lat="-31.950833068556694" lon="116.26517852090909"><ele>284.0</ele><time>2026-04-05T03:00:05Z</time></trkpt><trkpt lat="-31.950925144572746" lon="116.26520349965537"><ele>284.0</ele><time>2026-04-05T03:00:06Z</time></trkpt><trkpt lat="-31.950995856194073" lon="116.26521452859434"><ele>284.0</ele><time>2026-04-05T03:00:07Z</time></trkpt><trkpt lat="-31.951070674758505" lon="116.26522169129957"><ele>284.0</ele><time>2026-04-05T03:00:09Z</time></trkpt><trkpt lat="-31.951150946838567" lon="116.26525566084123"><ele>284.0</ele><time>2026-04-05T03:00:59Z</time></trkpt><trkpt lat="-31.95122902612443" lon="116.26527410645276"><ele>284.25</ele><time>2026-04-05T03:01:00Z</time></trkpt><trkpt lat="-31.951328836852795" lon="116.26529177979707"><ele>284.5</ele><time>2026-04-05T03:01:01Z</time></trkpt><trkpt lat="-31.951456168613625" lon="116.2653145457167"><ele>284.75</ele><time>2026-04-05T03:01:02Z</time></trkpt><trkpt lat="-31.951604151449473" lon="116.26536624131364"><ele>285.0</ele><time>2026-04-05T03:01:03Z</time></trkpt><trkpt lat="-31.951780531620702" lon="116.26538867433734"><ele>285.0</ele><time>2026-04-05T03:01:04Z</time></trkpt><trkpt lat="-31.951974986049784" lon="116.26544888109908"><ele>285.0</ele><time>2026-04-05T03:01:05Z</time></trkpt><trkpt lat="-31.952186023395253" lon="116.2654927162899"><ele>285.0</ele><time>2026-04-05T03:01:06Z</time></trkpt><trkpt lat="-31.952432719440594" lon="116.26553459192735"><ele>283.0</ele><time>2026-04-05T03:01:07Z</time></trkpt><trkpt lat="-31.95268328840775" lon="116.2655514750131"><ele>281.0</ele><time>2026-04-05T03:01:08Z</time></trkpt><trkpt lat="-31.95292769044374" lon="116.26555748014576"><ele>281.0</ele><time>2026-04-05T03:01:09Z</time></trkpt><trkpt lat="-31.953136834088664" lon="116.26554608032218"><ele>281.0</ele><time>2026-04-05T03:01:10Z</time></trkpt><trkpt lat="-31.953314459356072" lon="116.26553273653406"><ele>281.0</ele><time>2026-04-05T03:01:11Z</time></trkpt><trkpt lat="-31.953467742876843" lon="116.26552006242682"><ele>281.33333333333337</ele><time>2026-04-05T03:01:12Z</time></trkpt><trkpt lat="-31.953633370511135" lon="116.26550936646431"><ele>281.6666666666667</ele><time>2026-04-05T03:01:13Z</time></trkpt><trkpt lat="-31.953803757547647" lon="116.265503599327"><ele>282.0</ele><time>2026-04-05T03:01:14Z</time></trkpt><trkpt lat="-31.953959122214133" lon="116.26551138062658"><ele>282.0</ele><time>2026-04-05T03:01:15Z</time></trkpt><trkpt lat="-31.954110008625545" lon="116.26554188048486"><ele>282.0</ele><time>2026-04-05T03:01:16Z</time></trkpt><trkpt lat="-31.95424383595055" lon="116.26558523337035"><ele>282.0</ele><time>2026-04-05T03:01:17Z</time></trkpt><trkpt lat="-31.954349114801637" lon="116.2656240244266"><ele>282.0</ele><time>2026-04-05T03:01:18Z</time></trkpt><trkpt lat="-31.954422514022585" lon="116.26565573781758"><ele>282.0</ele><time>2026-04-05T03:01:19Z</time></trkpt><trkpt lat="-31.954491529690323" lon="116.26567314791315"><ele>282.0</ele><time>2026-04-05T03:01:21Z</time></trkpt><trkpt lat="-31.954416852636" lon="116.26567639884729"><ele>282.0</ele><time>2026-04-05T03:01:28Z</time></trkpt><trkpt lat="-31.954324718143184" lon="116.26563962763353"><ele>282.0</ele><time>2026-04-05T03:01:29Z</time></trkpt><trkpt lat="-31.95422692807494" lon="116.26561984502477"><ele>282.0</ele><time>2026-04-05T03:01:30Z</time></trkpt><trkpt lat="-31.954115500728843" lon="116.26558551952833"><ele>282.0</ele><time>2026-04-05T03:01:31Z</time></trkpt><trkpt lat="-31.953980870589103" lon="116.26554855862025"><ele>282.0</ele><time>2026-04-05T03:01:32Z</time></trkpt><trkpt lat="-31.953823013714665" lon="116.26551925404101"><ele>282.0</ele><time>2026-04-05T03:01:33Z</time></trkpt><trkpt lat="-31.9536416557216" lon="116.26551024229191"><ele>282.0</ele><time>2026-04-05T03:01:34Z</time></trkpt><trkpt lat="-31.95342939362721" lon="116.26551371547728"><ele>282.0</ele><time>2026-04-05T03:01:35Z</time></trkpt><trkpt lat="-31.9532124138091" lon="116.2655279123489"><ele>282.0</ele><time>2026-04-05T03:01:36Z</time></trkpt><trkpt lat="-31.952965743523606" lon="116.2655003868168"><ele>285.0</ele><time>2026-04-05T03:01:37Z</time></trkpt><trkpt lat="-31.952449812214763" lon="116.26548748940458"><ele>285.0</ele><time>2026-04-05T03:01:39Z</time></trkpt><trkpt lat="-31.952201607156937" lon="116.26545158248877"><ele>285.0</ele><time>2026-04-05T03:01:40Z</time></trkpt><trkpt lat="-31.951938579759634" lon="116.2653993295594"><ele>283.5</ele><time>2026-04-05T03:01:41Z</time></trkpt><trkpt lat="-31.951663520884164" lon="116.26533968716633"><ele>282.0</ele><time>2026-04-05T03:01:42Z</time></trkpt><trkpt lat="-31.951388483887815" lon="116.26527641549562"><ele>282.0</ele><time>2026-04-05T03:01:43Z</time></trkpt><trkpt lat="-31.951102498659125" lon="116.26520487514419"><ele>282.0</ele><time>2026-04-05T03:01:44Z</time></trkpt><trkpt lat="-31.950827697601024" lon="116.26513012912422"><ele>283.0</ele><time>2026-04-05T03:01:45Z</time></trkpt><trkpt lat="-31.95056473442605" lon="116.26504074545623"><ele>284.0</ele><time>2026-04-05T03:01:46Z</time></trkpt><trkpt lat="-31.950342357673748" lon="116.26494098597463"><ele>284.0</ele><time>2026-04-05T03:01:47Z</time></trkpt><trkpt lat="-31.950163189330848" lon="116.26482994734434"><ele>284.0</ele><time>2026-04-05T03:01:48Z</time></trkpt><trkpt lat="-31.95000038921797" lon="116.26471454329105"><ele>284.0</ele><time>2026-04-05T03:01:49Z</time></trkpt><trkpt lat="-31.949833603945926" lon="116.26458791469867"><ele>288.5</ele><time>2026-04-05T03:01:50Z</time></trkpt><trkpt lat="-31.94965661675453" lon="116.26444502881318"><ele>293.0</ele><time>2026-04-05T03:01:51Z</time></trkpt><trkpt lat="-31.949457809743684" lon="116.26427385318175"><ele>293.0</ele><time>2026-04-05T03:01:52Z</time></trkpt><trkpt lat="-31.949282109487978" lon="116.26411521386929"><ele>293.0</ele><time>2026-04-05T03:01:53Z</time></trkpt><trkpt lat="-31.949129432648938" lon="116.26397599733514"><ele>293.0</ele><time>2026-04-05T03:01:54Z</time></trkpt><trkpt lat="-31.948977944147078" lon="116.26383733921445"><ele>295.6666666666667</ele><time>2026-04-05T03:01:55Z</time></trkpt><trkpt lat="-31.948831626302756" lon="116.26370211444869"><ele>298.3333333333333</ele><time>2026-04-05T03:01:56Z</time></trkpt><trkpt lat="-31.948696447798742" lon="116.2635748171475"><ele>301.0</ele><time>2026-04-05T03:01:57Z</time></trkpt><trkpt lat="-31.948577831929033" lon="116.26346202319405"><ele>301.0</ele><time>2026-04-05T03:01:58Z</time></trkpt><trkpt lat="-31.948476458949276" lon="116.26337122882353"><ele>301.0</ele><time>2026-04-05T03:01:59Z</time></trkpt><trkpt lat="-31.948403122889495" lon="116.26330874325637"><ele>301.0</ele><time>2026-04-05T03:02:00Z</time></trkpt><trkpt lat="-31.9483138361549" lon="116.26325487556929"><ele>301.0</ele><time>2026-04-05T03:02:02Z</time></trkpt><trkpt lat="-31.94841371252003" lon="116.26339501666617"><ele>301.0</ele><time>2026-04-05T03:02:09Z</time></trkpt><trkpt lat="-31.94849725284504" lon="116.26345082849635"><ele>301.0</ele><time>2026-04-05T03:02:10Z</time></trkpt><trkpt lat="-31.948595439709255" lon="116.26353227208548"><ele>301.0</ele><time>2026-04-05T03:02:11Z</time></trkpt><trkpt lat="-31.948699675173643" lon="116.26362390902975"><ele>301.0</ele><time>2026-04-05T03:02:12Z</time></trkpt><trkpt lat="-31.948813350273202" lon="116.26372540769471"><ele>301.0</ele><time>2026-04-05T03:02:13Z</time></trkpt><trkpt lat="-31.948945946569484" lon="116.26384736642753"><ele>301.0</ele><time>2026-04-05T03:02:14Z</time></trkpt><trkpt lat="-31.949095614645785" lon="116.26398052317754"><ele>301.0</ele><time>2026-04-05T03:02:15Z</time></trkpt><trkpt lat="-31.94924219308765" lon="116.26410999553802"><ele>298.3333333333333</ele><time>2026-04-05T03:02:16Z</time></trkpt><trkpt lat="-31.949394204316935" lon="116.26424300926445"><ele>295.6666666666667</ele><time>2026-04-05T03:02:17Z</time></trkpt><trkpt lat="-31.949534799871913" lon="116.2643747270913"><ele>293.0</ele><time>2026-04-05T03:02:18Z</time></trkpt><trkpt lat="-31.949684330602047" lon="116.26450497098958"><ele>293.0</ele><time>2026-04-05T03:02:19Z</time></trkpt><trkpt lat="-31.949820284996996" lon="116.26463220111802"><ele>293.0</ele><time>2026-04-05T03:02:20Z</time></trkpt><trkpt lat="-31.94998671678569" lon="116.26476382290944"><ele>293.0</ele><time>2026-04-05T03:02:21Z</time></trkpt><trkpt lat="-31.950171976480494" lon="116.26487823510001"><ele>288.5</ele><time>2026-04-05T03:02:22Z</time></trkpt><trkpt lat="-31.950382926043954" lon="116.26499149350477"><ele>284.0</ele><time>2026-04-05T03:02:23Z</time></trkpt><trkpt lat="-31.950600605957355" lon="116.2650908387028"><ele>284.0</ele><time>2026-04-05T03:02:24Z</time></trkpt><trkpt lat="-31.95084310581419" lon="116.26518473853437"><ele>284.0</ele><time>2026-04-05T03:02:25Z</time></trkpt><trkpt lat="-31.951114416374487" lon="116.26526151571764"><ele>283.0</ele><time>2026-04-05T03:02:26Z</time></trkpt><trkpt lat="-31.951397096311297" lon="116.26532093061559"><ele>282.0</ele><time>2026-04-05T03:02:27Z</time></trkpt><trkpt lat="-31.951700873771614" lon="116.26538209349437"><ele>283.5</ele><time>2026-04-05T03:02:28Z</time></trkpt><trkpt lat="-31.95200494900265" lon="116.26544619841638"><ele>285.0</ele><time>2026-04-05T03:02:29Z</time></trkpt><trkpt lat="-31.95228130623013" lon="116.26550471920791"><ele>283.0</ele><time>2026-04-05T03:02:30Z</time></trkpt><trkpt lat="-31.952544218652662" lon="116.26554685430159"><ele>281.0</ele><time>2026-04-05T03:02:31Z</time></trkpt><trkpt lat="-31.952812353054092" lon="116.26555587703722"><ele>281.0</ele><time>2026-04-05T03:02:32Z</time></trkpt><trkpt lat="-31.953099404035072" lon="116.26554504502136"><ele>281.0</ele><time>2026-04-05T03:02:33Z</time></trkpt><trkpt lat="-31.95336512049947" lon="116.26552288466775"><ele>281.33333333333337</ele><time>2026-04-05T03:02:34Z</time></trkpt><trkpt lat="-31.953587683052433" lon="116.26550142126115"><ele>281.6666666666667</ele><time>2026-04-05T03:02:35Z</time></trkpt><trkpt lat="-31.953784072661005" lon="116.26548918860874"><ele>282.0</ele><time>2026-04-05T03:02:36Z</time></trkpt><trkpt lat="-31.953939765809775" lon="116.26552114700164"><ele>282.0</ele><time>2026-04-05T03:02:37Z</time></trkpt><trkpt lat="-31.954063388824487" lon="116.2655432453751"><ele>282.0</ele><time>2026-04-05T03:02:38Z</time></trkpt><trkpt lat="-31.954148713159764" lon="116.26556563391298"><ele>282.0</ele><time>2026-04-05T03:02:39Z</time></trkpt><trkpt lat="-31.954213051428752" lon="116.26556771303275"><ele>282.0</ele><time>2026-04-05T03:02:40Z</time></trkpt><trkpt lat="-31.954117061425258" lon="116.26557648302672"><ele>282.0</ele><time>2026-04-05T03:02:48Z</time></trkpt><trkpt lat="-31.95405021187345" lon="116.2655683168182"><ele>282.0</ele><time>2026-04-05T03:02:49Z</time></trkpt><trkpt lat="-31.953895427040752" lon="116.26553145001725"><ele>282.0</ele><time>2026-04-05T03:02:51Z</time></trkpt><trkpt lat="-31.953784030885355" lon="116.26546502091534"><ele>282.0</ele><time>2026-04-05T03:02:52Z</time></trkpt><trkpt lat="-31.953656186721258" lon="116.26546223285465"><ele>282.0</ele><time>2026-04-05T03:02:53Z</time></trkpt><trkpt lat="-31.953532515842674" lon="116.26546519129766"><ele>282.0</ele><time>2026-04-05T03:02:54Z</time></trkpt><trkpt lat="-31.95339335750367" lon="116.26547371063954"><ele>281.6666666666667</ele><time>2026-04-05T03:02:55Z</time></trkpt><trkpt lat="-31.953245203065595" lon="116.26548433590987"><ele>281.33333333333337</ele><time>2026-04-05T03:02:56Z</time></trkpt><trkpt lat="-31.95309375873456" lon="116.26549444264555"><ele>281.0</ele><time>2026-04-05T03:02:57Z</time></trkpt><trkpt lat="-31.95293643526046" lon="116.26550174478699"><ele>281.0</ele><time>2026-04-05T03:02:58Z</time></trkpt><trkpt lat="-31.952777230112513" lon="116.26550513285295"><ele>281.0</ele><time>2026-04-05T03:02:59Z</time></trkpt><trkpt lat="-31.95261514439979" lon="116.26550011552112"><ele>281.0</ele><time>2026-04-05T03:03:00Z</time></trkpt><trkpt lat="-31.952449542517865" lon="116.26548746848961"><ele>282.33333333333337</ele><time>2026-04-05T03:03:01Z</time></trkpt><trkpt lat="-31.95228776441085" lon="116.2654655893026"><ele>283.6666666666667</ele><time>2026-04-05T03:03:02Z</time></trkpt><trkpt lat="-31.952110154133468" lon="116.26543469010194"><ele>285.0</ele><time>2026-04-05T03:03:03Z</time></trkpt><trkpt lat="-31.951923956684265" lon="116.26539615876388"><ele>285.0</ele><time>2026-04-05T03:03:04Z</time></trkpt><trkpt lat="-31.95175091543628" lon="116.26535863736956"><ele>285.0</ele><time>2026-04-05T03:03:05Z</time></trkpt><trkpt lat="-31.951605778005906" lon="116.26532675356512"><ele>285.0</ele><time>2026-04-05T03:03:06Z</time></trkpt><trkpt lat="-31.95147093572815" lon="116.26529564937677"><ele>284.4</ele><time>2026-04-05T03:03:07Z</time></trkpt><trkpt lat="-31.951350873838894" lon="116.26526764203709"><ele>283.8</ele><time>2026-04-05T03:03:08Z</time></trkpt><trkpt lat="-31.951248619586472" lon="116.26524205793562"><ele>283.2</ele><time>2026-04-05T03:03:09Z</time></trkpt><trkpt lat="-31.951173330103597" lon="116.2652228993409"><ele>282.6</ele><time>2026-04-05T03:03:10Z</time></trkpt><trkpt lat="-31.951072392672046" lon="116.26519721422065"><ele>282.0</ele><time>2026-04-05T03:03:12Z</time></trkpt><trkpt lat="-31.95101638931941" lon="116.26526126187149"><ele>282.0</ele><time>2026-04-05T03:09:37Z</time></trkpt><trkpt lat="-31.95092418905674" lon="116.26522175826712"><ele>282.0</ele><time>2026-04-05T03:09:39Z</time></trkpt><trkpt lat="-31.950854506867024" lon="116.26519122646457"><ele>282.0</ele><time>2026-04-05T03:09:40Z</time></trkpt><trkpt lat="-31.95077839178685" lon="116.26514995380725"><ele>282.0</ele><time>2026-04-05T03:09:41Z</time></trkpt><trkpt lat="-31.950690735050205" lon="116.26508741635845"><ele>282.0</ele><time>2026-04-05T03:09:42Z</time></trkpt><trkpt lat="-31.95057905348776" lon="116.26504620913593"><ele>282.5</ele><time>2026-04-05T03:09:43Z</time></trkpt><trkpt lat="-31.950451429366975" lon="116.2649943156665"><ele>283.0</ele><time>2026-04-05T03:09:44Z</time></trkpt><trkpt lat="-31.950319076438312" lon="116.26492669584516"><ele>283.5</ele><time>2026-04-05T03:09:45Z</time></trkpt><trkpt lat="-31.95018591881306" lon="116.26484450390265"><ele>284.0</ele><time>2026-04-05T03:09:46Z</time></trkpt><trkpt lat="-31.95007695933525" lon="116.2647713789497"><ele>287.0</ele><time>2026-04-05T03:09:47Z</time></trkpt><trkpt lat="-31.949956927136995" lon="116.26468218142509"><ele>290.0</ele><time>2026-04-05T03:09:48Z</time></trkpt><trkpt lat="-31.949825130777484" lon="116.2645811732857"><ele>293.0</ele><time>2026-04-05T03:09:49Z</time></trkpt><trkpt lat="-31.94967395657895" lon="116.26445917183935"><ele>293.0</ele><time>2026-04-05T03:09:50Z</time></trkpt><trkpt lat="-31.94952629343989" lon="116.26433368394548"><ele>293.0</ele><time>2026-04-05T03:09:51Z</time></trkpt><trkpt lat="-31.949404411908798" lon="116.2642262263786"><ele>293.0</ele><time>2026-04-05T03:09:52Z</time></trkpt><trkpt lat="-31.94930883783361" lon="116.26413973067537"><ele>293.0</ele><time>2026-04-05T03:09:53Z</time></trkpt><trkpt lat="-31.949238510250545" lon="116.2640754287207"><ele>293.0</ele><time>2026-04-05T03:09:54Z</time></trkpt><trkpt lat="-31.9491566848707" lon="116.26400124841513"><ele>293.0</ele><time>2026-04-05T03:09:56Z</time></trkpt><trkpt lat="-31.949104408592383" lon="116.26395706230667"><ele>293.0</ele><time>2026-04-05T03:09:58Z</time></trkpt><trkpt lat="-31.94921282551371" lon="116.26405214528948"><ele>293.0</ele><time>2026-04-05T03:10:05Z</time></trkpt><trkpt lat="-31.94930841082377" lon="116.2641388009962"><ele>293.0</ele><time>2026-04-05T03:10:06Z</time></trkpt><trkpt lat="-31.949406622004968" lon="116.26423567033167"><ele>293.0</ele><time>2026-04-05T03:10:07Z</time></trkpt><trkpt lat="-31.949522796044388" lon="116.26435201267978"><ele>293.0</ele><time>2026-04-05T03:10:08Z</time></trkpt><trkpt lat="-31.949629574580563" lon="116.26444979081388"><ele>293.0</ele><time>2026-04-05T03:10:09Z</time></trkpt><trkpt lat="-31.94974710011925" lon="116.26452499016652"><ele>293.0</ele><time>2026-04-05T03:10:10Z</time></trkpt><trkpt lat="-31.949869297664325" lon="116.26461850256138"><ele>293.0</ele><time>2026-04-05T03:10:11Z</time></trkpt><trkpt lat="-31.949977664704075" lon="116.2647025336833"><ele>293.0</ele><time>2026-04-05T03:10:12Z</time></trkpt><trkpt lat="-31.9500843511224" lon="116.26477893757463"><ele>293.0</ele><time>2026-04-05T03:10:13Z</time></trkpt><trkpt lat="-31.950177093859853" lon="116.264875236725"><ele>290.75</ele><time>2026-04-05T03:10:14Z</time></trkpt><trkpt lat="-31.950290987817958" lon="116.26493784615289"><ele>288.5</ele><time>2026-04-05T03:10:15Z</time></trkpt><trkpt lat="-31.950409951299076" lon="116.26499285111973"><ele>286.25</ele><time>2026-04-05T03:10:16Z</time></trkpt><trkpt lat="-31.950521806793144" lon="116.26506524455033"><ele>284.0</ele><time>2026-04-05T03:10:17Z</time></trkpt><trkpt lat="-31.950637266743577" lon="116.26509609817197"><ele>284.0</ele><time>2026-04-05T03:10:18Z</time></trkpt><trkpt lat="-31.95074467221739" lon="116.26513876066693"><ele>284.0</ele><time>2026-04-05T03:10:19Z</time></trkpt><trkpt lat="-31.95084761517497" lon="116.26517490393307"><ele>284.0</ele><time>2026-04-05T03:10:20Z</time></trkpt><trkpt lat="-31.950944102271723" lon="116.2652033810773"><ele>284.0</ele><time>2026-04-05T03:10:21Z</time></trkpt><trkpt lat="-31.951022651500654" lon="116.26522360050876"><ele>284.0</ele><time>2026-04-05T03:10:22Z</time></trkpt><trkpt lat="-31.951088059214122" lon="116.26523723254289"><ele>283.59999999999997</ele><time>2026-04-05T03:10:23Z</time></trkpt><trkpt lat="-31.951152146036655" lon="116.26524784053058"><ele>283.2</ele><time>2026-04-05T03:10:25Z</time></trkpt><trkpt lat="-31.951236026212428" lon="116.26526539142007"><ele>282.79999999999995</ele><time>2026-04-05T03:10:39Z</time></trkpt><trkpt lat="-31.951313493118967" lon="116.26528315453197"><ele>282.4</ele><time>2026-04-05T03:10:40Z</time></trkpt><trkpt lat="-31.951414401868213" lon="116.26531508177969"><ele>282.0</ele><time>2026-04-05T03:10:41Z</time></trkpt><trkpt lat="-31.95153130171665" lon="116.265346207199"><ele>282.0</ele><time>2026-04-05T03:10:42Z</time></trkpt><trkpt lat="-31.95167757148608" lon="116.26538196978417"><ele>282.0</ele><time>2026-04-05T03:10:43Z</time></trkpt><trkpt lat="-31.951830439011918" lon="116.26541432249383"><ele>282.0</ele><time>2026-04-05T03:10:44Z</time></trkpt><trkpt lat="-31.951976421851306" lon="116.26544667421996"><ele>281.75</ele><time>2026-04-05T03:10:45Z</time></trkpt><trkpt lat="-31.952113205855746" lon="116.26548203774074"><ele>281.5</ele><time>2026-04-05T03:10:46Z</time></trkpt><trkpt lat="-31.95224515895883" lon="116.26550961040871"><ele>281.25</ele><time>2026-04-05T03:10:47Z</time></trkpt><trkpt lat="-31.952389557920796" lon="116.26552804032139"><ele>281.0</ele><time>2026-04-05T03:10:48Z</time></trkpt><trkpt lat="-31.95254222762885" lon="116.26554075851216"><ele>281.0</ele><time>2026-04-05T03:10:49Z</time></trkpt><trkpt lat="-31.952704867541698" lon="116.2655442276563"><ele>281.0</ele><time>2026-04-05T03:10:49.999Z</time></trkpt><trkpt lat="-31.95287852864573" lon="116.26554361882674"><ele>281.0</ele><time>2026-04-05T03:10:50.999Z</time></trkpt><trkpt lat="-31.953077167606498" lon="116.26553606808166"><ele>281.0</ele><time>2026-04-05T03:10:51.999Z</time></trkpt><trkpt lat="-31.95329333964988" lon="116.26552035437969"><ele>281.0</ele><time>2026-04-05T03:10:52.999Z</time></trkpt><trkpt lat="-31.95350268179509" lon="116.26550727366268"><ele>281.0</ele><time>2026-04-05T03:10:53.999Z</time></trkpt><trkpt lat="-31.953697876855774" lon="116.26549879791558"><ele>281.33333333333337</ele><time>2026-04-05T03:10:54.999Z</time></trkpt><trkpt lat="-31.953863988862864" lon="116.26550049759207"><ele>281.6666666666667</ele><time>2026-04-05T03:10:55.999Z</time></trkpt><trkpt lat="-31.954023980683186" lon="116.26552130316729"><ele>282.0</ele><time>2026-04-05T03:10:56.999Z</time></trkpt><trkpt lat="-31.95418527531587" lon="116.26556608513187"><ele>279.6666666666667</ele><time>2026-04-05T03:10:57.999Z</time></trkpt><trkpt lat="-31.954360979748476" lon="116.26563563163127"><ele>277.33333333333337</ele><time>2026-04-05T03:10:58.999Z</time></trkpt><trkpt lat="-31.95455103199444" lon="116.26571630281214"><ele>275.0</ele><time>2026-04-05T03:10:59.999Z</time></trkpt><trkpt lat="-31.954754481353724" lon="116.26581474148455"><ele>275.0</ele><time>2026-04-05T03:11:00.999Z</time></trkpt><trkpt lat="-31.954972307383315" lon="116.26592580605826"><ele>275.0</ele><time>2026-04-05T03:11:01.999Z</time></trkpt><trkpt lat="-31.955160335914677" lon="116.26603191924822"><ele>275.0</ele><time>2026-04-05T03:11:02.999Z</time></trkpt><trkpt lat="-31.955333757282133" lon="116.2661414272047"><ele>274.6666666666667</ele><time>2026-04-05T03:11:03.999Z</time></trkpt><trkpt lat="-31.955504295815164" lon="116.26625907248284"><ele>274.3333333333333</ele><time>2026-04-05T03:11:04.999Z</time></trkpt><trkpt lat="-31.955660682073983" lon="116.2663733428409"><ele>274.0</ele><time>2026-04-05T03:11:05.999Z</time></trkpt><trkpt lat="-31.955812210405284" lon="116.26648771996508"><ele>276.66666666666663</ele><time>2026-04-05T03:11:06.999Z</time></trkpt><trkpt lat="-31.955979786873485" lon="116.26661910895373"><ele>279.3333333333333</ele><time>2026-04-05T03:11:07.999Z</time></trkpt><trkpt lat="-31.956152230786376" lon="116.26675159334725"><ele>282.0</ele><time>2026-04-05T03:11:08.999Z</time></trkpt><trkpt lat="-31.956324974560697" lon="116.2668759901056"><ele>282.0</ele><time>2026-04-05T03:11:09.999Z</time></trkpt><trkpt lat="-31.956488492254387" lon="116.26698492851207"><ele>282.0</ele><time>2026-04-05T03:11:10.999Z</time></trkpt><trkpt lat="-31.956637365553796" lon="116.26707843746841"><ele>282.0</ele><time>2026-04-05T03:11:11.999Z</time></trkpt><trkpt lat="-31.956785745880296" lon="116.26716047607711"><ele>283.25</ele><time>2026-04-05T03:11:12.999Z</time></trkpt><trkpt lat="-31.956912301517374" lon="116.26722811866074"><ele>284.5</ele><time>2026-04-05T03:11:13.999Z</time></trkpt><trkpt lat="-31.957023745275333" lon="116.26729341081976"><ele>285.75</ele><time>2026-04-05T03:11:14.999Z</time></trkpt><trkpt lat="-31.95712205691473" lon="116.26734622230974"><ele>287.0</ele><time>2026-04-05T03:11:15.999Z</time></trkpt><trkpt lat="-31.957212775425678" lon="116.26738064394662"><ele>285.25</ele><time>2026-04-05T03:11:16.999Z</time></trkpt><trkpt lat="-31.95732728724688" lon="116.26742123851582"><ele>283.5</ele><time>2026-04-05T03:11:17.999Z</time></trkpt><trkpt lat="-31.95745354843489" lon="116.26747605604966"><ele>281.75</ele><time>2026-04-05T03:11:18.999Z</time></trkpt><trkpt lat="-31.957580976040774" lon="116.26753810047508"><ele>280.0</ele><time>2026-04-05T03:11:19.999Z</time></trkpt><trkpt lat="-31.95771958544323" lon="116.26761815607291"><ele>280.0</ele><time>2026-04-05T03:11:20.999Z</time></trkpt><trkpt lat="-31.957859238235866" lon="116.26770353778711"><ele>280.0</ele><time>2026-04-05T03:11:21.999Z</time></trkpt><trkpt lat="-31.958003576919626" lon="116.26779054436574"><ele>280.0</ele><time>2026-04-05T03:11:22.999Z</time></trkpt><trkpt lat="-31.95814485393287" lon="116.26787625676732"><ele>280.0</ele><time>2026-04-05T03:11:23.999Z</time></trkpt><trkpt lat="-31.958284854460988" lon="116.26796103850374"><ele>280.0</ele><time>2026-04-05T03:11:24.999Z</time></trkpt><trkpt lat="-31.958427422814687" lon="116.26803894355486"><ele>280.0</ele><time>2026-04-05T03:11:25.999Z</time></trkpt><trkpt lat="-31.958565321827088" lon="116.26810660913249"><ele>278.66666666666663</ele><time>2026-04-05T03:11:26.999Z</time></trkpt><trkpt lat="-31.958716283349716" lon="116.268185657168"><ele>277.3333333333333</ele><time>2026-04-05T03:11:27.999Z</time></trkpt><trkpt lat="-31.958869094102553" lon="116.26827902445028"><ele>276.0</ele><time>2026-04-05T03:11:28.999Z</time></trkpt><trkpt lat="-31.959013664355382" lon="116.26839108891721"><ele>276.0</ele><time>2026-04-05T03:11:29.999Z</time></trkpt><trkpt lat="-31.959151571561996" lon="116.26853683568235"><ele>276.0</ele><time>2026-04-05T03:11:30.999Z</time></trkpt><trkpt lat="-31.95930105882711" lon="116.26871288577925"><ele>276.0</ele><time>2026-04-05T03:11:31.999Z</time></trkpt><trkpt lat="-31.959453551579475" lon="116.26890635556438"><ele>273.3333333333333</ele><time>2026-04-05T03:11:32.999Z</time></trkpt><trkpt lat="-31.959588476922306" lon="116.26909130233975"><ele>270.66666666666663</ele><time>2026-04-05T03:11:33.999Z</time></trkpt><trkpt lat="-31.9597043972166" lon="116.26924827926048"><ele>268.0</ele><time>2026-04-05T03:11:34.999Z</time></trkpt><trkpt lat="-31.959810271424978" lon="116.26940267606007"><ele>268.0</ele><time>2026-04-05T03:11:35.999Z</time></trkpt><trkpt lat="-31.95990961501053" lon="116.26954815331982"><ele>268.0</ele><time>2026-04-05T03:11:36.999Z</time></trkpt><trkpt lat="-31.960002153879312" lon="116.26969713891393"><ele>268.0</ele><time>2026-04-05T03:11:37.999Z</time></trkpt><trkpt lat="-31.960090476498134" lon="116.26985855824311"><ele>266.3333333333333</ele><time>2026-04-05T03:11:38.999Z</time></trkpt><trkpt lat="-31.960182855306417" lon="116.2700196147726"><ele>264.6666666666667</ele><time>2026-04-05T03:11:39.999Z</time></trkpt><trkpt lat="-31.960281745010985" lon="116.27017777292922"><ele>263.0</ele><time>2026-04-05T03:11:41Z</time></trkpt><trkpt lat="-31.960381887298393" lon="116.27034543850276"><ele>263.0</ele><time>2026-04-05T03:11:42Z</time></trkpt><trkpt lat="-31.960482557366593" lon="116.2705095875704"><ele>263.0</ele><time>2026-04-05T03:11:43Z</time></trkpt><trkpt lat="-31.96058992385964" lon="116.27067965930472"><ele>263.0</ele><time>2026-04-05T03:11:44Z</time></trkpt><trkpt lat="-31.96069822010936" lon="116.27086571860094"><ele>263.6666666666667</ele><time>2026-04-05T03:11:45Z</time></trkpt><trkpt lat="-31.96079329516921" lon="116.27105378098928"><ele>264.3333333333333</ele><time>2026-04-05T03:11:46Z</time></trkpt><trkpt lat="-31.960888153346616" lon="116.27127260516832"><ele>265.0</ele><time>2026-04-05T03:11:47Z</time></trkpt><trkpt lat="-31.96097850976506" lon="116.27150759323288"><ele>262.5</ele><time>2026-04-05T03:11:48Z</time></trkpt><trkpt lat="-31.961076636749848" lon="116.27174364390295"><ele>260.0</ele><time>2026-04-05T03:11:49Z</time></trkpt><trkpt lat="-31.961193485226083" lon="116.27200317074228"><ele>256.5</ele><time>2026-04-05T03:11:50Z</time></trkpt><trkpt lat="-31.961316695082793" lon="116.27227978067239"><ele>253.0</ele><time>2026-04-05T03:11:51Z</time></trkpt><trkpt lat="-31.961420663013758" lon="116.27257698580205"><ele>253.0</ele><time>2026-04-05T03:11:52Z</time></trkpt><trkpt lat="-31.961560209113525" lon="116.2728684547659"><ele>253.0</ele><time>2026-04-05T03:11:53Z</time></trkpt><trkpt lat="-31.961696226537544" lon="116.27317506500023"><ele>252.5</ele><time>2026-04-05T03:11:54Z</time></trkpt><trkpt lat="-31.961831391509904" lon="116.27347245136552"><ele>252.0</ele><time>2026-04-05T03:11:55Z</time></trkpt><trkpt lat="-31.961967196000508" lon="116.27376388575559"><ele>251.0</ele><time>2026-04-05T03:11:56Z</time></trkpt><trkpt lat="-31.962089856350435" lon="116.27402829985314"><ele>250.0</ele><time>2026-04-05T03:11:57Z</time></trkpt><trkpt lat="-31.96219879873484" lon="116.27426800925127"><ele>250.0</ele><time>2026-04-05T03:11:58Z</time></trkpt><trkpt lat="-31.96229907657905" lon="116.27449340030965"><ele>250.0</ele><time>2026-04-05T03:11:59Z</time></trkpt><trkpt lat="-31.962395105194837" lon="116.27469572427366"><ele>250.0</ele><time>2026-04-05T03:12:00Z</time></trkpt><trkpt lat="-31.962486066125447" lon="116.27488890675833"><ele>251.33333333333331</ele><time>2026-04-05T03:12:01Z</time></trkpt><trkpt lat="-31.962569990946914" lon="116.27506257011368"><ele>252.66666666666669</ele><time>2026-04-05T03:12:02Z</time></trkpt><trkpt lat="-31.962657630972014" lon="116.27524903850075"><ele>254.0</ele><time>2026-04-05T03:12:03Z</time></trkpt><trkpt lat="-31.962753165555895" lon="116.27545741108042"><ele>252.0</ele><time>2026-04-05T03:12:04Z</time></trkpt><trkpt lat="-31.96283394043452" lon="116.27564628360165"><ele>250.0</ele><time>2026-04-05T03:12:05Z</time></trkpt><trkpt lat="-31.96290155632915" lon="116.2758132261763"><ele>248.0</ele><time>2026-04-05T03:12:06Z</time></trkpt><trkpt lat="-31.962958668416526" lon="116.27598021200575"><ele>248.0</ele><time>2026-04-05T03:12:07Z</time></trkpt><trkpt lat="-31.96298996103323" lon="116.27618209087576"><ele>248.0</ele><time>2026-04-05T03:12:08Z</time></trkpt><trkpt lat="-31.963020880919863" lon="116.27639108948719"><ele>248.0</ele><time>2026-04-05T03:12:09Z</time></trkpt><trkpt lat="-31.96305858215609" lon="116.27662665499201"><ele>247.66666666666669</ele><time>2026-04-05T03:12:10Z</time></trkpt><trkpt lat="-31.963067146752422" lon="116.27687164549704"><ele>247.33333333333331</ele><time>2026-04-05T03:12:11Z</time></trkpt><trkpt lat="-31.963089303343843" lon="116.27710654815303"><ele>247.0</ele><time>2026-04-05T03:12:12Z</time></trkpt><trkpt lat="-31.963125398065984" lon="116.27734670303312"><ele>245.5</ele><time>2026-04-05T03:12:13Z</time></trkpt><trkpt lat="-31.9631732245238" lon="116.27761298775799"><ele>244.0</ele><time>2026-04-05T03:12:14Z</time></trkpt><trkpt lat="-31.963232861842506" lon="116.27790583438683"><ele>243.0</ele><time>2026-04-05T03:12:15Z</time></trkpt><trkpt lat="-31.96327590464983" lon="116.27821258498582"><ele>242.0</ele><time>2026-04-05T03:12:16Z</time></trkpt><trkpt lat="-31.96332865659658" lon="116.27849275497671"><ele>241.66666666666669</ele><time>2026-04-05T03:12:17Z</time></trkpt><trkpt lat="-31.963392058444853" lon="116.27874026430419"><ele>241.33333333333331</ele><time>2026-04-05T03:12:18Z</time></trkpt><trkpt lat="-31.963434560573916" lon="116.27897702734053"><ele>241.0</ele><time>2026-04-05T03:12:19Z</time></trkpt><trkpt lat="-31.963482983182082" lon="116.27920500025941"><ele>239.33333333333331</ele><time>2026-04-05T03:12:20Z</time></trkpt><trkpt lat="-31.96353809443578" lon="116.27942384830729"><ele>237.66666666666669</ele><time>2026-04-05T03:12:21Z</time></trkpt><trkpt lat="-31.963600438291103" lon="116.27964410728607"><ele>236.0</ele><time>2026-04-05T03:12:22Z</time></trkpt><trkpt lat="-31.963651416380657" lon="116.27987336844063"><ele>235.33333333333334</ele><time>2026-04-05T03:12:23Z</time></trkpt><trkpt lat="-31.963715680816783" lon="116.28012195042055"><ele>234.66666666666669</ele><time>2026-04-05T03:12:24Z</time></trkpt><trkpt lat="-31.96383352952302" lon="116.28034679803713"><ele>234.0</ele><time>2026-04-05T03:12:25Z</time></trkpt><trkpt lat="-31.963920276853496" lon="116.28057311239324"><ele>232.5</ele><time>2026-04-05T03:12:26Z</time></trkpt><trkpt lat="-31.964021263558138" lon="116.28083612316603"><ele>231.0</ele><time>2026-04-05T03:12:27Z</time></trkpt><trkpt lat="-31.96413015088046" lon="116.2811148516005"><ele>231.5</ele><time>2026-04-05T03:12:28Z</time></trkpt><trkpt lat="-31.964241276361797" lon="116.28140946632146"><ele>232.0</ele><time>2026-04-05T03:12:29Z</time></trkpt><trkpt lat="-31.964352546438917" lon="116.28170216818442"><ele>230.0</ele><time>2026-04-05T03:12:30Z</time></trkpt><trkpt lat="-31.964452913068204" lon="116.28197113260204"><ele>228.0</ele><time>2026-04-05T03:12:31Z</time></trkpt><trkpt lat="-31.96453550913285" lon="116.28221004974623"><ele>226.66666666666669</ele><time>2026-04-05T03:12:31.999Z</time></trkpt><trkpt lat="-31.964615090201796" lon="116.28244175103117"><ele>225.33333333333334</ele><time>2026-04-05T03:12:32.999Z</time></trkpt><trkpt lat="-31.964696287314137" lon="116.28266672801442"><ele>224.0</ele><time>2026-04-05T03:12:33.999Z</time></trkpt><trkpt lat="-31.96478013096187" lon="116.28288736635938"><ele>224.0</ele><time>2026-04-05T03:12:34.999Z</time></trkpt><trkpt lat="-31.964852086295824" lon="116.28307967730795"><ele>224.0</ele><time>2026-04-05T03:12:35.999Z</time></trkpt><trkpt lat="-31.964921994992377" lon="116.28328524884665"><ele>224.0</ele><time>2026-04-05T03:12:36.999Z</time></trkpt><trkpt lat="-31.964986212080607" lon="116.28348894321738"><ele>224.0</ele><time>2026-04-05T03:12:37.999Z</time></trkpt><trkpt lat="-31.965049518046385" lon="116.28368895926847"><ele>224.0</ele><time>2026-04-05T03:12:38.999Z</time></trkpt><trkpt lat="-31.965118052155738" lon="116.28388505543991"><ele>224.0</ele><time>2026-04-05T03:12:39.999Z</time></trkpt><trkpt lat="-31.965186497470672" lon="116.28410683066937"><ele>223.0</ele><time>2026-04-05T03:12:40.999Z</time></trkpt><trkpt lat="-31.965242954710114" lon="116.28435859915785"><ele>222.0</ele><time>2026-04-05T03:12:41.999Z</time></trkpt><trkpt lat="-31.965292754269058" lon="116.28462661052548"><ele>219.0</ele><time>2026-04-05T03:12:42.999Z</time></trkpt><trkpt lat="-31.965340428459083" lon="116.284907673001"><ele>216.0</ele><time>2026-04-05T03:12:43.999Z</time></trkpt><trkpt lat="-31.965382278268898" lon="116.28517450430964"><ele>216.0</ele><time>2026-04-05T03:12:44.999Z</time></trkpt><trkpt lat="-31.965416873633743" lon="116.28541984980444"><ele>216.0</ele><time>2026-04-05T03:12:45.999Z</time></trkpt><trkpt lat="-31.9654452261181" lon="116.28565177551877"><ele>216.0</ele><time>2026-04-05T03:12:46.999Z</time></trkpt><trkpt lat="-31.96547485543095" lon="116.28587852524116"><ele>213.33333333333331</ele><time>2026-04-05T03:12:47.999Z</time></trkpt><trkpt lat="-31.965500212383596" lon="116.28609193438884"><ele>210.66666666666666</ele><time>2026-04-05T03:12:48.999Z</time></trkpt><trkpt lat="-31.96552887777689" lon="116.28629771016266"><ele>208.0</ele><time>2026-04-05T03:12:49.999Z</time></trkpt><trkpt lat="-31.965559940185887" lon="116.28650026087678"><ele>206.33333333333331</ele><time>2026-04-05T03:12:50.999Z</time></trkpt><trkpt lat="-31.96558669971068" lon="116.2866929681719"><ele>204.66666666666669</ele><time>2026-04-05T03:12:51.999Z</time></trkpt><trkpt lat="-31.96561288320631" lon="116.28687882041845"><ele>203.0</ele><time>2026-04-05T03:12:52.999Z</time></trkpt><trkpt lat="-31.965639189031457" lon="116.28706446365852"><ele>203.0</ele><time>2026-04-05T03:12:53.999Z</time></trkpt><trkpt lat="-31.965665983528265" lon="116.28724544543698"><ele>203.0</ele><time>2026-04-05T03:12:54.999Z</time></trkpt><trkpt lat="-31.96569750311114" lon="116.28743137617758"><ele>203.0</ele><time>2026-04-05T03:12:55.999Z</time></trkpt><trkpt lat="-31.96572246013441" lon="116.28762156442897"><ele>202.33333333333334</ele><time>2026-04-05T03:12:56.999Z</time></trkpt><trkpt lat="-31.965748965527133" lon="116.28780479829939"><ele>201.66666666666669</ele><time>2026-04-05T03:12:57.999Z</time></trkpt><trkpt lat="-31.965771557184816" lon="116.28799906046895"><ele>201.0</ele><time>2026-04-05T03:12:58.999Z</time></trkpt><trkpt lat="-31.96577677188933" lon="116.28821280046368"><ele>200.0</ele><time>2026-04-05T03:12:59.999Z</time></trkpt><trkpt lat="-31.96577315537075" lon="116.28843910236081"><ele>199.0</ele><time>2026-04-05T03:13:00.999Z</time></trkpt><trkpt lat="-31.965773146267413" lon="116.28865071099175"><ele>198.0</ele><time>2026-04-05T03:13:01.999Z</time></trkpt><trkpt lat="-31.965776250574542" lon="116.28885830109456"><ele>195.33333333333334</ele><time>2026-04-05T03:13:02.999Z</time></trkpt><trkpt lat="-31.965770423489335" lon="116.28905985062288"><ele>192.66666666666669</ele><time>2026-04-05T03:13:03.999Z</time></trkpt><trkpt lat="-31.96576165206093" lon="116.28925662606967"><ele>190.0</ele><time>2026-04-05T03:13:04.999Z</time></trkpt><trkpt lat="-31.965753868752802" lon="116.28943058641775"><ele>190.0</ele><time>2026-04-05T03:13:05.999Z</time></trkpt><trkpt lat="-31.96575280305126" lon="116.28960225061152"><ele>190.0</ele><time>2026-04-05T03:13:06.999Z</time></trkpt><trkpt lat="-31.965757944996167" lon="116.28977280137666"><ele>190.0</ele><time>2026-04-05T03:13:07.999Z</time></trkpt><trkpt lat="-31.965770632229134" lon="116.28994675596437"><ele>190.0</ele><time>2026-04-05T03:13:08.999Z</time></trkpt><trkpt lat="-31.96579231408317" lon="116.2901228339055"><ele>185.0</ele><time>2026-04-05T03:13:09.999Z</time></trkpt><trkpt lat="-31.965818044686475" lon="116.29029994483031"><ele>180.0</ele><time>2026-04-05T03:13:10.999Z</time></trkpt><trkpt lat="-31.965854242285854" lon="116.29047866190602"><ele>175.0</ele><time>2026-04-05T03:13:11.999Z</time></trkpt><trkpt lat="-31.965889873255566" lon="116.29067405834424"><ele>173.66666666666669</ele><time>2026-04-05T03:13:12.999Z</time></trkpt><trkpt lat="-31.96592867262124" lon="116.29085597994647"><ele>172.33333333333334</ele><time>2026-04-05T03:13:13.999Z</time></trkpt><trkpt lat="-31.96597370317675" lon="116.29103469823237"><ele>171.0</ele><time>2026-04-05T03:13:14.999Z</time></trkpt><trkpt lat="-31.966025421619776" lon="116.29119988698999"><ele>171.0</ele><time>2026-04-05T03:13:15.999Z</time></trkpt><trkpt lat="-31.966086454512247" lon="116.29135293140664"><ele>171.0</ele><time>2026-04-05T03:13:16.999Z</time></trkpt><trkpt lat="-31.966156298319593" lon="116.29149485299807"><ele>171.0</ele><time>2026-04-05T03:13:17.999Z</time></trkpt><trkpt lat="-31.966220866869637" lon="116.29161890964501"><ele>171.0</ele><time>2026-04-05T03:13:18.999Z</time></trkpt><trkpt lat="-31.96627720062797" lon="116.2917173179493"><ele>169.66666666666666</ele><time>2026-04-05T03:13:19.999Z</time></trkpt><trkpt lat="-31.96633094068493" lon="116.29181106059438"><ele>168.33333333333334</ele><time>2026-04-05T03:13:20.999Z</time></trkpt><trkpt lat="-31.966376367905674" lon="116.29189083256315"><ele>167.0</ele><time>2026-04-05T03:13:21.999Z</time></trkpt><trkpt lat="-31.96641812780597" lon="116.2919656498143"><ele>165.66666666666669</ele><time>2026-04-05T03:13:22.999Z</time></trkpt><trkpt lat="-31.96646589825625" lon="116.29203725418138"><ele>164.33333333333334</ele><time>2026-04-05T03:13:23.999Z</time></trkpt><trkpt lat="-31.966511302574975" lon="116.2920887676524"><ele>163.0</ele><time>2026-04-05T03:13:24.999Z</time></trkpt><trkpt lat="-31.96659694899015" lon="116.2921493936216"><ele>163.0</ele><time>2026-04-05T03:13:26.999Z</time></trkpt><trkpt lat="-31.966661684026054" lon="116.29218844945848"><ele>163.0</ele><time>2026-04-05T03:13:27.999Z</time></trkpt><trkpt lat="-31.966759174232106" lon="116.2922463988704"><ele>163.0</ele><time>2026-04-05T03:13:28.999Z</time></trkpt><trkpt lat="-31.966876726177755" lon="116.29233454837221"><ele>163.0</ele><time>2026-04-05T03:13:29.999Z</time></trkpt><trkpt lat="-31.967008467414935" lon="116.29244144121061"><ele>160.66666666666669</ele><time>2026-04-05T03:13:30.999Z</time></trkpt><trkpt lat="-31.96714813725866" lon="116.29255592450895"><ele>158.33333333333334</ele><time>2026-04-05T03:13:31.999Z</time></trkpt><trkpt lat="-31.967280564243243" lon="116.29266849721964"><ele>156.0</ele><time>2026-04-05T03:13:32.999Z</time></trkpt><trkpt lat="-31.967416011457924" lon="116.29277648770982"><ele>155.0</ele><time>2026-04-05T03:13:33.999Z</time></trkpt><trkpt lat="-31.967567570819224" lon="116.29288993695636"><ele>154.0</ele><time>2026-04-05T03:13:34.999Z</time></trkpt><trkpt lat="-31.96771458253108" lon="116.29300110655413"><ele>153.0</ele><time>2026-04-05T03:13:35.999Z</time></trkpt><trkpt lat="-31.967853350657286" lon="116.29311404946594"><ele>153.0</ele><time>2026-04-05T03:13:36.999Z</time></trkpt><trkpt lat="-31.967991812283774" lon="116.29323060829385"><ele>153.0</ele><time>2026-04-05T03:13:37.999Z</time></trkpt><trkpt lat="-31.968138765266584" lon="116.29335576505133"><ele>153.0</ele><time>2026-04-05T03:13:38.999Z</time></trkpt><trkpt lat="-31.968296986335293" lon="116.29347846329067"><ele>154.0</ele><time>2026-04-05T03:13:39.999Z</time></trkpt><trkpt lat="-31.9684926378714" lon="116.293621328061"><ele>155.0</ele><time>2026-04-05T03:13:40.999Z</time></trkpt><trkpt lat="-31.968679599926862" lon="116.29376677079145"><ele>155.0</ele><time>2026-04-05T03:13:41.999Z</time></trkpt><trkpt lat="-31.968882711646263" lon="116.29393119003171"><ele>155.0</ele><time>2026-04-05T03:13:42.999Z</time></trkpt><trkpt lat="-31.9690937806792" lon="116.29410372637147"><ele>155.0</ele><time>2026-04-05T03:13:43.999Z</time></trkpt><trkpt lat="-31.969307284817702" lon="116.29428164626688"><ele>155.0</ele><time>2026-04-05T03:13:44.999Z</time></trkpt><trkpt lat="-31.96950448434839" lon="116.29443533479544"><ele>155.0</ele><time>2026-04-05T03:13:45.999Z</time></trkpt><trkpt lat="-31.969678128220437" lon="116.29456899030113"><ele>155.0</ele><time>2026-04-05T03:13:46.999Z</time></trkpt><trkpt lat="-31.969854470841813" lon="116.29469967068651"><ele>155.0</ele><time>2026-04-05T03:13:47.999Z</time></trkpt><trkpt lat="-31.970023567007697" lon="116.29482932050875"><ele>156.33333333333331</ele><time>2026-04-05T03:13:48.999Z</time></trkpt><trkpt lat="-31.97017205461108" lon="116.29495129787175"><ele>157.66666666666666</ele><time>2026-04-05T03:13:49.999Z</time></trkpt><trkpt lat="-31.97031551293023" lon="116.29508500667446"><ele>159.0</ele><time>2026-04-05T03:13:50.999Z</time></trkpt><trkpt lat="-31.970455120129234" lon="116.2952567292329"><ele>159.0</ele><time>2026-04-05T03:13:51.999Z</time></trkpt><trkpt lat="-31.970587530634045" lon="116.29545127004165"><ele>159.0</ele><time>2026-04-05T03:13:52.999Z</time></trkpt><trkpt lat="-31.9707150994989" lon="116.29567692224465"><ele>159.0</ele><time>2026-04-05T03:13:53.999Z</time></trkpt><trkpt lat="-31.970840839950366" lon="116.29591678161047"><ele>161.5</ele><time>2026-04-05T03:13:54.999Z</time></trkpt><trkpt lat="-31.970962349908973" lon="116.2961501549379"><ele>164.0</ele><time>2026-04-05T03:13:55.999Z</time></trkpt><trkpt lat="-31.971075869407716" lon="116.29637784623023"><ele>166.0</ele><time>2026-04-05T03:13:57Z</time></trkpt><trkpt lat="-31.97119072585009" lon="116.29661844147043"><ele>168.0</ele><time>2026-04-05T03:13:58Z</time></trkpt><trkpt lat="-31.97132041413419" lon="116.29688051038119"><ele>168.0</ele><time>2026-04-05T03:13:59Z</time></trkpt><trkpt lat="-31.97144485137594" lon="116.2971379501886"><ele>168.0</ele><time>2026-04-05T03:14:00Z</time></trkpt><trkpt lat="-31.97156295926014" lon="116.29739032803411"><ele>167.5</ele><time>2026-04-05T03:14:01Z</time></trkpt><trkpt lat="-31.971677723562628" lon="116.29764825944808"><ele>167.0</ele><time>2026-04-05T03:14:02Z</time></trkpt><trkpt lat="-31.97179010555509" lon="116.29788569846983"><ele>168.0</ele><time>2026-04-05T03:14:03Z</time></trkpt><trkpt lat="-31.97189724049694" lon="116.29811020524595"><ele>169.0</ele><time>2026-04-05T03:14:04Z</time></trkpt><trkpt lat="-31.971998671465883" lon="116.29831899207872"><ele>170.0</ele><time>2026-04-05T03:14:05Z</time></trkpt><trkpt lat="-31.972095926662366" lon="116.29852211163696"><ele>170.0</ele><time>2026-04-05T03:14:06Z</time></trkpt><trkpt lat="-31.972177001269625" lon="116.29869691432556"><ele>170.0</ele><time>2026-04-05T03:14:07Z</time></trkpt><trkpt lat="-31.972247623327373" lon="116.29885708899063"><ele>170.0</ele><time>2026-04-05T03:14:08Z</time></trkpt><trkpt lat="-31.97230554775932" lon="116.29899861190127"><ele>171.0</ele><time>2026-04-05T03:14:09Z</time></trkpt><trkpt lat="-31.972347122741176" lon="116.29911672839766"><ele>172.0</ele><time>2026-04-05T03:14:10Z</time></trkpt><trkpt lat="-31.972382034148165" lon="116.29922007628737"><ele>173.0</ele><time>2026-04-05T03:14:11Z</time></trkpt><trkpt lat="-31.972419056502535" lon="116.2993034806333"><ele>174.0</ele><time>2026-04-05T03:14:12Z</time></trkpt><trkpt lat="-31.97246098376413" lon="116.29936616203626"><ele>175.0</ele><time>2026-04-05T03:14:13Z</time></trkpt><trkpt lat="-31.97251037679176" lon="116.29941559551897"><ele>176.0</ele><time>2026-04-05T03:14:14Z</time></trkpt><trkpt lat="-31.972595838490772" lon="116.29948786866463"><ele>177.60000000000002</ele><time>2026-04-05T03:14:16Z</time></trkpt><trkpt lat="-31.972641634248735" lon="116.29953924470753"><ele>179.2</ele><time>2026-04-05T03:14:19Z</time></trkpt><trkpt lat="-31.972704026159388" lon="116.29957517559356"><ele>180.8</ele><time>2026-04-05T03:17:04.999Z</time></trkpt><trkpt lat="-31.972817218133073" lon="116.29962269521177"><ele>182.39999999999998</ele><time>2026-04-05T03:17:11.999Z</time></trkpt><trkpt lat="-31.972910775527104" lon="116.29963973462672"><ele>184.0</ele><time>2026-04-05T03:17:12.999Z</time></trkpt><trkpt lat="-31.973026467214673" lon="116.29964900843713"><ele>184.0</ele><time>2026-04-05T03:17:13.999Z</time></trkpt><trkpt lat="-31.97316551630617" lon="116.29965299019027"><ele>184.0</ele><time>2026-04-05T03:17:14.999Z</time></trkpt><trkpt lat="-31.97332556293741" lon="116.29964917433999"><ele>184.0</ele><time>2026-04-05T03:17:15.999Z</time></trkpt><trkpt lat="-31.973492662053697" lon="116.2996362322093"><ele>185.0</ele><time>2026-04-05T03:17:16.999Z</time></trkpt><trkpt lat="-31.973631656695208" lon="116.2996096440554"><ele>186.0</ele><time>2026-04-05T03:17:17.999Z</time></trkpt><trkpt lat="-31.973748833535847" lon="116.29958034048333"><ele>187.0</ele><time>2026-04-05T03:17:18.999Z</time></trkpt><trkpt lat="-31.973829632655548" lon="116.2995510795663"><ele>188.0</ele><time>2026-04-05T03:17:19.999Z</time></trkpt><trkpt lat="-31.973899501393028" lon="116.29951970509089"><ele>189.0</ele><time>2026-04-05T03:17:20.999Z</time></trkpt><trkpt lat="-31.973974604149344" lon="116.29947593278656"><ele>189.0</ele><time>2026-04-05T03:17:22.999Z</time></trkpt><trkpt lat="-31.97406541345129" lon="116.29942437920009"><ele>189.0</ele><time>2026-04-05T03:17:39.999Z</time></trkpt><trkpt lat="-31.974133072120466" lon="116.29938246868737"><ele>189.0</ele><time>2026-04-05T03:17:40.999Z</time></trkpt><trkpt lat="-31.97419713563494" lon="116.29934236889076"><ele>189.0</ele><time>2026-04-05T03:17:42.999Z</time></trkpt><trkpt lat="-31.974257147383987" lon="116.29930906695155"><ele>189.0</ele><time>2026-04-05T03:17:44.999Z</time></trkpt><trkpt lat="-31.974344715305573" lon="116.29927535541933"><ele>189.0</ele><time>2026-04-05T03:17:47.999Z</time></trkpt><trkpt lat="-31.974419289109974" lon="116.29922988296694"><ele>189.83333333333334</ele><time>2026-04-05T03:17:49.999Z</time></trkpt><trkpt lat="-31.974498687530374" lon="116.29919042228693"><ele>190.66666666666669</ele><time>2026-04-05T03:17:52.999Z</time></trkpt><trkpt lat="-31.974556436027516" lon="116.29915521760898"><ele>191.5</ele><time>2026-04-05T03:17:56.999Z</time></trkpt><trkpt lat="-31.9744967689422" lon="116.29912457718996"><ele>192.33333333333334</ele><time>2026-04-05T03:18:26Z</time></trkpt><trkpt lat="-31.974432617225652" lon="116.29915664072433"><ele>193.16666666666669</ele><time>2026-04-05T03:18:27Z</time></trkpt><trkpt lat="-31.974356943501274" lon="116.29920691200519"><ele>194.0</ele><time>2026-04-05T03:18:28Z</time></trkpt><trkpt lat="-31.974274678614844" lon="116.29925633710555"><ele>194.0</ele><time>2026-04-05T03:18:29Z</time></trkpt><trkpt lat="-31.974195306231184" lon="116.29930476821188"><ele>194.0</ele><time>2026-04-05T03:18:30Z</time></trkpt><trkpt lat="-31.974107307432195" lon="116.29935507874042"><ele>194.0</ele><time>2026-04-05T03:18:31Z</time></trkpt><trkpt lat="-31.974022302801313" lon="116.29940142605096"><ele>194.0</ele><time>2026-04-05T03:18:32Z</time></trkpt><trkpt lat="-31.973927389803713" lon="116.29944794448166"><ele>194.0</ele><time>2026-04-05T03:18:33Z</time></trkpt><trkpt lat="-31.97382844650228" lon="116.29949086108499"><ele>193.16666666666669</ele><time>2026-04-05T03:18:34Z</time></trkpt><trkpt lat="-31.973739788053116" lon="116.29953148092049"><ele>192.33333333333334</ele><time>2026-04-05T03:18:35Z</time></trkpt><trkpt lat="-31.973655636172776" lon="116.29955993603066"><ele>191.5</ele><time>2026-04-05T03:18:36Z</time></trkpt><trkpt lat="-31.973578639994802" lon="116.29957905182056"><ele>190.66666666666669</ele><time>2026-04-05T03:18:37Z</time></trkpt><trkpt lat="-31.97349438026495" lon="116.29959628547768"><ele>189.83333333333334</ele><time>2026-04-05T03:18:38Z</time></trkpt><trkpt lat="-31.973402244877782" lon="116.29961359205632"><ele>189.0</ele><time>2026-04-05T03:18:38.999Z</time></trkpt><trkpt lat="-31.9732930789921" lon="116.299622705244"><ele>188.16666666666666</ele><time>2026-04-05T03:18:39.999Z</time></trkpt><trkpt lat="-31.973189139879423" lon="116.29962462171753"><ele>187.33333333333334</ele><time>2026-04-05T03:18:40.999Z</time></trkpt><trkpt lat="-31.97310079574575" lon="116.29962349367166"><ele>186.5</ele><time>2026-04-05T03:18:41.999Z</time></trkpt><trkpt lat="-31.97302456637117" lon="116.29962337451273"><ele>185.66666666666669</ele><time>2026-04-05T03:18:42.999Z</time></trkpt><trkpt lat="-31.97294622617424" lon="116.29962260832426"><ele>184.83333333333334</ele><time>2026-04-05T03:18:43.999Z</time></trkpt><trkpt lat="-31.972874272641345" lon="116.29959138077938"><ele>184.0</ele><time>2026-04-05T03:18:44.999Z</time></trkpt><trkpt lat="-31.972749749711475" lon="116.29957172496012"><ele>184.0</ele><time>2026-04-05T03:18:46.999Z</time></trkpt><trkpt lat="-31.97269781626044" lon="116.29952745890654"><ele>184.0</ele><time>2026-04-05T03:18:47.999Z</time></trkpt><trkpt lat="-31.972616031441028" lon="116.29947268298187"><ele>184.0</ele><time>2026-04-05T03:18:49.999Z</time></trkpt><trkpt lat="-31.97268058417286" lon="116.29952525497487"><ele>184.0</ele><time>2026-04-05T03:21:01.999Z</time></trkpt><trkpt lat="-31.972747584552458" lon="116.2995536027109"><ele>184.0</ele><time>2026-04-05T03:21:04.999Z</time></trkpt><trkpt lat="-31.97286113455697" lon="116.29960522595935"><ele>184.0</ele><time>2026-04-05T03:21:07.999Z</time></trkpt><trkpt lat="-31.972931976007008" lon="116.29962229376946"><ele>184.0</ele><time>2026-04-05T03:21:08.999Z</time></trkpt><trkpt lat="-31.97301645467266" lon="116.29962935338693"><ele>184.0</ele><time>2026-04-05T03:21:09.999Z</time></trkpt><trkpt lat="-31.973121657279712" lon="116.29962980936824"><ele>184.0</ele><time>2026-04-05T03:21:10.999Z</time></trkpt><trkpt lat="-31.973220536609666" lon="116.29962482678766"><ele>184.0</ele><time>2026-04-05T03:21:11.999Z</time></trkpt><trkpt lat="-31.97331753757556" lon="116.29961652102686"><ele>184.0</ele><time>2026-04-05T03:21:12.999Z</time></trkpt><trkpt lat="-31.973426067814465" lon="116.2996047936904"><ele>185.25</ele><time>2026-04-05T03:21:13.999Z</time></trkpt><trkpt lat="-31.973559004664178" lon="116.29958503022996"><ele>186.5</ele><time>2026-04-05T03:21:14.999Z</time></trkpt><trkpt lat="-31.97369535873524" lon="116.29954884228465"><ele>187.75</ele><time>2026-04-05T03:21:15.999Z</time></trkpt><trkpt lat="-31.973830355233062" lon="116.29949863370658"><ele>189.0</ele><time>2026-04-05T03:21:16.999Z</time></trkpt><trkpt lat="-31.973988578523333" lon="116.29942423858384"><ele>189.0</ele><time>2026-04-05T03:21:17.999Z</time></trkpt><trkpt lat="-31.974179110226125" lon="116.2993881709984"><ele>189.0</ele><time>2026-04-05T03:21:18.999Z</time></trkpt><trkpt lat="-31.974343436890678" lon="116.2992381108734"><ele>189.0</ele><time>2026-04-05T03:21:19.999Z</time></trkpt><trkpt lat="-31.974513194406512" lon="116.29914818510292"><ele>190.66666666666669</ele><time>2026-04-05T03:21:20.999Z</time></trkpt><trkpt lat="-31.974677497507862" lon="116.29905478371373"><ele>192.33333333333334</ele><time>2026-04-05T03:21:21.999Z</time></trkpt><trkpt lat="-31.97484745836352" lon="116.29894190334547"><ele>194.0</ele><time>2026-04-05T03:21:22.999Z</time></trkpt><trkpt lat="-31.975028049517647" lon="116.29883301092539"><ele>190.33333333333334</ele><time>2026-04-05T03:21:23.999Z</time></trkpt><trkpt lat="-31.97518915104899" lon="116.2987219591945"><ele>186.66666666666669</ele><time>2026-04-05T03:21:24.999Z</time></trkpt><trkpt lat="-31.97533405143575" lon="116.29862077278605"><ele>183.0</ele><time>2026-04-05T03:21:25.999Z</time></trkpt><trkpt lat="-31.975482525211163" lon="116.29850152216015"><ele>183.0</ele><time>2026-04-05T03:21:26.999Z</time></trkpt><trkpt lat="-31.975666647335803" lon="116.29839349800423"><ele>183.0</ele><time>2026-04-05T03:21:27.999Z</time></trkpt><trkpt lat="-31.975825546940392" lon="116.29831772624757"><ele>183.0</ele><time>2026-04-05T03:21:28.999Z</time></trkpt><trkpt lat="-31.975990691510464" lon="116.29825461192627"><ele>182.0</ele><time>2026-04-05T03:21:29.999Z</time></trkpt><trkpt lat="-31.976162498587616" lon="116.2981963778049"><ele>181.0</ele><time>2026-04-05T03:21:30.999Z</time></trkpt><trkpt lat="-31.976341267875615" lon="116.29812611706592"><ele>180.0</ele><time>2026-04-05T03:21:31.999Z</time></trkpt><trkpt lat="-31.976514943850525" lon="116.29803818442346"><ele>178.33333333333334</ele><time>2026-04-05T03:21:32.999Z</time></trkpt><trkpt lat="-31.97669017653107" lon="116.29794355995179"><ele>176.66666666666669</ele><time>2026-04-05T03:21:33.999Z</time></trkpt><trkpt lat="-31.97686627836368" lon="116.29784968434777"><ele>175.0</ele><time>2026-04-05T03:21:34.999Z</time></trkpt><trkpt lat="-31.977034476206462" lon="116.29775842699296"><ele>175.0</ele><time>2026-04-05T03:21:35.999Z</time></trkpt><trkpt lat="-31.977209071703967" lon="116.29768692352364"><ele>175.0</ele><time>2026-04-05T03:21:36.999Z</time></trkpt><trkpt lat="-31.977401569776134" lon="116.29762608545374"><ele>175.0</ele><time>2026-04-05T03:21:37.999Z</time></trkpt><trkpt lat="-31.977599850637397" lon="116.29757387489269"><ele>172.66666666666669</ele><time>2026-04-05T03:21:38.999Z</time></trkpt><trkpt lat="-31.977786153403528" lon="116.29753330322691"><ele>170.33333333333334</ele><time>2026-04-05T03:21:39.999Z</time></trkpt><trkpt lat="-31.977955532717356" lon="116.29749688218536"><ele>168.0</ele><time>2026-04-05T03:21:40.999Z</time></trkpt><trkpt lat="-31.978105432360167" lon="116.2974700876399"><ele>168.0</ele><time>2026-04-05T03:21:41.999Z</time></trkpt><trkpt lat="-31.97824236893404" lon="116.29748235878407"><ele>168.0</ele><time>2026-04-05T03:21:42.999Z</time></trkpt><trkpt lat="-31.97836080159467" lon="116.2974993163243"><ele>168.0</ele><time>2026-04-05T03:21:43.999Z</time></trkpt><trkpt lat="-31.978466639131437" lon="116.29753816441007"><ele>168.0</ele><time>2026-04-05T03:21:44.999Z</time></trkpt><trkpt lat="-31.97855633967176" lon="116.29759357853186"><ele>166.25</ele><time>2026-04-05T03:21:45.999Z</time></trkpt><trkpt lat="-31.97865085483279" lon="116.29764393959891"><ele>164.5</ele><time>2026-04-05T03:21:46.999Z</time></trkpt><trkpt lat="-31.978702378154946" lon="116.29775376373388"><ele>162.75</ele><time>2026-04-05T03:21:47.999Z</time></trkpt><trkpt lat="-31.97877575878395" lon="116.2978607284801"><ele>161.0</ele><time>2026-04-05T03:21:48.999Z</time></trkpt><trkpt lat="-31.97885270971467" lon="116.298020644313"><ele>162.66666666666666</ele><time>2026-04-05T03:21:49.999Z</time></trkpt><trkpt lat="-31.97894206256999" lon="116.29818479956805"><ele>164.33333333333334</ele><time>2026-04-05T03:21:50.999Z</time></trkpt><trkpt lat="-31.979052562182" lon="116.29831896868289"><ele>166.0</ele><time>2026-04-05T03:21:51.999Z</time></trkpt><trkpt lat="-31.97919273331134" lon="116.29844985931548"><ele>166.0</ele><time>2026-04-05T03:21:52.999Z</time></trkpt><trkpt lat="-31.979345641511436" lon="116.29857878955681"><ele>166.0</ele><time>2026-04-05T03:21:53.999Z</time></trkpt><trkpt lat="-31.979469832178427" lon="116.29870737127153"><ele>166.0</ele><time>2026-04-05T03:21:54.999Z</time></trkpt><trkpt lat="-31.979601592203984" lon="116.29876847298854"><ele>166.0</ele><time>2026-04-05T03:21:55.999Z</time></trkpt><trkpt lat="-31.979713240269774" lon="116.29881170496407"><ele>166.0</ele><time>2026-04-05T03:21:56.999Z</time></trkpt><trkpt lat="-31.979833041581145" lon="116.29881630700636"><ele>166.0</ele><time>2026-04-05T03:21:57.999Z</time></trkpt><trkpt lat="-31.979951757860977" lon="116.2987895326773"><ele>166.0</ele><time>2026-04-05T03:21:58.999Z</time></trkpt><trkpt lat="-31.98005998064498" lon="116.29871642852062"><ele>166.0</ele><time>2026-04-05T03:21:59.999Z</time></trkpt><trkpt lat="-31.98019617144124" lon="116.2986365049125"><ele>166.0</ele><time>2026-04-05T03:22:00.999Z</time></trkpt><trkpt lat="-31.98033403074465" lon="116.2985687875517"><ele>166.0</ele><time>2026-04-05T03:22:01.999Z</time></trkpt><trkpt lat="-31.98044943668203" lon="116.29847249812471"><ele>166.0</ele><time>2026-04-05T03:22:02.999Z</time></trkpt><trkpt lat="-31.980597353017494" lon="116.29845813938364"><ele>166.0</ele><time>2026-04-05T03:22:03.999Z</time></trkpt><trkpt lat="-31.98078312041433" lon="116.29845631555251"><ele>166.0</ele><time>2026-04-05T03:22:04.999Z</time></trkpt><trkpt lat="-31.980962573160586" lon="116.29847473775827"><ele>166.0</ele><time>2026-04-05T03:22:05.999Z</time></trkpt><trkpt lat="-31.98113991459179" lon="116.29850177397849"><ele>165.66666666666669</ele><time>2026-04-05T03:22:06.999Z</time></trkpt><trkpt lat="-31.981297440841153" lon="116.29853859172864"><ele>165.33333333333334</ele><time>2026-04-05T03:22:07.999Z</time></trkpt><trkpt lat="-31.98144951568844" lon="116.29859092863369"><ele>165.0</ele><time>2026-04-05T03:22:08.999Z</time></trkpt><trkpt lat="-31.98158875612642" lon="116.29866357924493"><ele>166.0</ele><time>2026-04-05T03:22:09.999Z</time></trkpt><trkpt lat="-31.98171945850244" lon="116.29875027342176"><ele>167.0</ele><time>2026-04-05T03:22:10.999Z</time></trkpt><trkpt lat="-31.98184310265442" lon="116.2988419799525"><ele>168.0</ele><time>2026-04-05T03:22:11.999Z</time></trkpt><trkpt lat="-31.98195806815076" lon="116.29893923998036"><ele>169.0</ele><time>2026-04-05T03:22:12.999Z</time></trkpt><trkpt lat="-31.982069605742062" lon="116.29904690935494"><ele>169.0</ele><time>2026-04-05T03:22:13.999Z</time></trkpt><trkpt lat="-31.98217641081714" lon="116.2991769763695"><ele>169.0</ele><time>2026-04-05T03:22:14.999Z</time></trkpt><trkpt lat="-31.982270768805485" lon="116.29934065903505"><ele>169.0</ele><time>2026-04-05T03:22:15.999Z</time></trkpt><trkpt lat="-31.982354387364726" lon="116.29952625316679"><ele>168.33333333333334</ele><time>2026-04-05T03:22:16.999Z</time></trkpt><trkpt lat="-31.982443972344896" lon="116.29975191977941"><ele>167.66666666666666</ele><time>2026-04-05T03:22:17.999Z</time></trkpt><trkpt lat="-31.982534292349815" lon="116.29999388332918"><ele>167.0</ele><time>2026-04-05T03:22:18.999Z</time></trkpt><trkpt lat="-31.982627122109072" lon="116.30025255345542"><ele>167.33333333333331</ele><time>2026-04-05T03:22:19.999Z</time></trkpt><trkpt lat="-31.98270522775385" lon="116.30046158943426"><ele>167.66666666666666</ele><time>2026-04-05T03:22:20.999Z</time></trkpt><trkpt lat="-31.982788614746365" lon="116.30063930005453"><ele>168.0</ele><time>2026-04-05T03:22:21.999Z</time></trkpt><trkpt lat="-31.98288104147491" lon="116.30078200862015"><ele>168.0</ele><time>2026-04-05T03:22:22.999Z</time></trkpt><trkpt lat="-31.982993639261927" lon="116.30091702087655"><ele>168.0</ele><time>2026-04-05T03:22:23.999Z</time></trkpt><trkpt lat="-31.983135545797094" lon="116.30103637046439"><ele>168.0</ele><time>2026-04-05T03:22:24.999Z</time></trkpt><trkpt lat="-31.98330338617746" lon="116.30114469202312"><ele>169.0</ele><time>2026-04-05T03:22:25.999Z</time></trkpt><trkpt lat="-31.983502912278457" lon="116.30124006986387"><ele>170.0</ele><time>2026-04-05T03:22:26.999Z</time></trkpt><trkpt lat="-31.983726301422614" lon="116.30132050843179"><ele>171.0</ele><time>2026-04-05T03:22:27.999Z</time></trkpt><trkpt lat="-31.983967292079726" lon="116.301389977768"><ele>168.5</ele><time>2026-04-05T03:22:28.999Z</time></trkpt><trkpt lat="-31.984231616520166" lon="116.3014540991908"><ele>166.0</ele><time>2026-04-05T03:22:30Z</time></trkpt><trkpt lat="-31.984521663435938" lon="116.30151529477727"><ele>166.0</ele><time>2026-04-05T03:22:31Z</time></trkpt><trkpt lat="-31.984778793942134" lon="116.30157843629095"><ele>166.0</ele><time>2026-04-05T03:22:31.999Z</time></trkpt><trkpt lat="-31.984997563516732" lon="116.30164698502233"><ele>168.0</ele><time>2026-04-05T03:22:32.999Z</time></trkpt><trkpt lat="-31.985198739277312" lon="116.30171778002743"><ele>170.0</ele><time>2026-04-05T03:22:33.999Z</time></trkpt><trkpt lat="-31.98537232134136" lon="116.3017948319334"><ele>172.0</ele><time>2026-04-05T03:22:34.999Z</time></trkpt><trkpt lat="-31.985518402505196" lon="116.3018765914554"><ele>172.0</ele><time>2026-04-05T03:22:35.999Z</time></trkpt><trkpt lat="-31.985653278908522" lon="116.30196330785222"><ele>172.0</ele><time>2026-04-05T03:22:36.999Z</time></trkpt><trkpt lat="-31.985780179326003" lon="116.30204948663523"><ele>172.0</ele><time>2026-04-05T03:22:37.999Z</time></trkpt><trkpt lat="-31.985893051985666" lon="116.30214084118624"><ele>172.0</ele><time>2026-04-05T03:22:38.999Z</time></trkpt><trkpt lat="-31.986003707103404" lon="116.30225368864967"><ele>172.0</ele><time>2026-04-05T03:22:39.999Z</time></trkpt><trkpt lat="-31.98612990432109" lon="116.30237557554146"><ele>172.0</ele><time>2026-04-05T03:22:40.999Z</time></trkpt><trkpt lat="-31.986248688209496" lon="116.30247989800857"><ele>172.0</ele><time>2026-04-05T03:22:41.999Z</time></trkpt><trkpt lat="-31.986355577402016" lon="116.30256328119192"><ele>172.0</ele><time>2026-04-05T03:22:42.999Z</time></trkpt><trkpt lat="-31.98645584481691" lon="116.30264237359366"><ele>172.0</ele><time>2026-04-05T03:22:43.999Z</time></trkpt><trkpt lat="-31.986545758921388" lon="116.30271565749054"><ele>172.0</ele><time>2026-04-05T03:22:44.999Z</time></trkpt><trkpt lat="-31.986636011205196" lon="116.3027837649865"><ele>172.0</ele><time>2026-04-05T03:22:45.999Z</time></trkpt><trkpt lat="-31.98671870478492" lon="116.3028461369262"><ele>172.0</ele><time>2026-04-05T03:22:46.999Z</time></trkpt><trkpt lat="-31.986816202363293" lon="116.30291989841679"><ele>172.0</ele><time>2026-04-05T03:22:47.999Z</time></trkpt><trkpt lat="-31.986947732839578" lon="116.30299114578467"><ele>172.33333333333334</ele><time>2026-04-05T03:22:48.999Z</time></trkpt><trkpt lat="-31.987112830487998" lon="116.3030613350816"><ele>172.66666666666666</ele><time>2026-04-05T03:22:49.999Z</time></trkpt><trkpt lat="-31.987301351414683" lon="116.30312220562489"><ele>173.0</ele><time>2026-04-05T03:22:50.999Z</time></trkpt><trkpt lat="-31.987502739927738" lon="116.3031722307874"><ele>172.66666666666666</ele><time>2026-04-05T03:22:51.999Z</time></trkpt><trkpt lat="-31.987695123131342" lon="116.30321703433265"><ele>172.33333333333334</ele><time>2026-04-05T03:22:52.999Z</time></trkpt><trkpt lat="-31.987876572421275" lon="116.30325717446237"><ele>172.0</ele><time>2026-04-05T03:22:53.999Z</time></trkpt><trkpt lat="-31.98804592011631" lon="116.3032805225626"><ele>172.0</ele><time>2026-04-05T03:22:54.999Z</time></trkpt><trkpt lat="-31.98820268032045" lon="116.30329419666157"><ele>172.0</ele><time>2026-04-05T03:22:55.999Z</time></trkpt><trkpt lat="-31.988374769561243" lon="116.3032878234497"><ele>172.0</ele><time>2026-04-05T03:22:56.999Z</time></trkpt><trkpt lat="-31.98857156835009" lon="116.30326928171758"><ele>172.66666666666669</ele><time>2026-04-05T03:22:57.999Z</time></trkpt><trkpt lat="-31.988773964961343" lon="116.30324951257813"><ele>173.33333333333334</ele><time>2026-04-05T03:22:58.999Z</time></trkpt><trkpt lat="-31.988943768718254" lon="116.30324456556743"><ele>174.0</ele><time>2026-04-05T03:22:59.999Z</time></trkpt><trkpt lat="-31.9891100514042" lon="116.30325027185141"><ele>173.0</ele><time>2026-04-05T03:23:00.999Z</time></trkpt><trkpt lat="-31.989295372554203" lon="116.30326391213951"><ele>172.0</ele><time>2026-04-05T03:23:01.999Z</time></trkpt><trkpt lat="-31.989464121054652" lon="116.30327017965378"><ele>171.0</ele><time>2026-04-05T03:23:02.999Z</time></trkpt><trkpt lat="-31.989623493409834" lon="116.30326369163542"><ele>171.0</ele><time>2026-04-05T03:23:03.999Z</time></trkpt><trkpt lat="-31.989773113143958" lon="116.30325287501749"><ele>171.0</ele><time>2026-04-05T03:23:04.999Z</time></trkpt><trkpt lat="-31.989925198601846" lon="116.30324251241962"><ele>171.0</ele><time>2026-04-05T03:23:05.999Z</time></trkpt><trkpt lat="-31.99006930836439" lon="116.30323873395459"><ele>171.0</ele><time>2026-04-05T03:23:06.999Z</time></trkpt><trkpt lat="-31.99020951202056" lon="116.30323340872573"><ele>170.33333333333334</ele><time>2026-04-05T03:23:07.999Z</time></trkpt><trkpt lat="-31.990353182477968" lon="116.30322661370991"><ele>169.66666666666669</ele><time>2026-04-05T03:23:08.999Z</time></trkpt><trkpt lat="-31.990509898728728" lon="116.30319171038505"><ele>169.0</ele><time>2026-04-05T03:23:09.999Z</time></trkpt><trkpt lat="-31.99068711432058" lon="116.30314093625213"><ele>168.66666666666669</ele><time>2026-04-05T03:23:10.999Z</time></trkpt><trkpt lat="-31.990894569000602" lon="116.30307605761335"><ele>168.33333333333334</ele><time>2026-04-05T03:23:11.999Z</time></trkpt><trkpt lat="-31.99110023248426" lon="116.30299569960603"><ele>168.0</ele><time>2026-04-05T03:23:12.999Z</time></trkpt><trkpt lat="-31.991287791042645" lon="116.30291836498341"><ele>168.0</ele><time>2026-04-05T03:23:13.999Z</time></trkpt><trkpt lat="-31.991448162173093" lon="116.30285317894766"><ele>168.0</ele><time>2026-04-05T03:23:14.999Z</time></trkpt><trkpt lat="-31.991598291591508" lon="116.30280684154151"><ele>168.0</ele><time>2026-04-05T03:23:15.999Z</time></trkpt><trkpt lat="-31.991747455431362" lon="116.30277260559762"><ele>169.0</ele><time>2026-04-05T03:23:16.999Z</time></trkpt><trkpt lat="-31.991914684426845" lon="116.30274022159158"><ele>170.0</ele><time>2026-04-05T03:23:17.999Z</time></trkpt><trkpt lat="-31.992099178866017" lon="116.30271143920055"><ele>171.0</ele><time>2026-04-05T03:23:18.999Z</time></trkpt><trkpt lat="-31.992309355939206" lon="116.30268144873696"><ele>171.66666666666666</ele><time>2026-04-05T03:23:19.999Z</time></trkpt><trkpt lat="-31.992506380118712" lon="116.30264694654888"><ele>172.33333333333331</ele><time>2026-04-05T03:23:20.999Z</time></trkpt><trkpt lat="-31.99267228646644" lon="116.3026068879693"><ele>173.0</ele><time>2026-04-05T03:23:21.999Z</time></trkpt><trkpt lat="-31.992820809138816" lon="116.3025505318506"><ele>173.0</ele><time>2026-04-05T03:23:22.999Z</time></trkpt><trkpt lat="-31.992979962777827" lon="116.30247627530106"><ele>173.0</ele><time>2026-04-05T03:23:23.999Z</time></trkpt><trkpt lat="-31.99315581925556" lon="116.30239154350164"><ele>173.0</ele><time>2026-04-05T03:23:24.999Z</time></trkpt><trkpt lat="-31.993350090842835" lon="116.3022944460462"><ele>177.33333333333331</ele><time>2026-04-05T03:23:25.999Z</time></trkpt><trkpt lat="-31.993543494678192" lon="116.30219263594476"><ele>181.66666666666666</ele><time>2026-04-05T03:23:26.999Z</time></trkpt><trkpt lat="-31.9937070546631" lon="116.30209870892108"><ele>186.0</ele><time>2026-04-05T03:23:27.999Z</time></trkpt><trkpt lat="-31.993857904470453" lon="116.30201810878391"><ele>186.0</ele><time>2026-04-05T03:23:28.999Z</time></trkpt><trkpt lat="-31.99401106648447" lon="116.30195013777157"><ele>186.0</ele><time>2026-04-05T03:23:29.999Z</time></trkpt><trkpt lat="-31.994160943226284" lon="116.30189569633886"><ele>186.0</ele><time>2026-04-05T03:23:30.999Z</time></trkpt><trkpt lat="-31.99428801485193" lon="116.30184990910357"><ele>185.4</ele><time>2026-04-05T03:23:31.999Z</time></trkpt><trkpt lat="-31.994410597739353" lon="116.30180234865934"><ele>184.8</ele><time>2026-04-05T03:23:32.999Z</time></trkpt><trkpt lat="-31.99451547808059" lon="116.30176790403418"><ele>184.20000000000002</ele><time>2026-04-05T03:23:33.999Z</time></trkpt><trkpt lat="-31.994612923953348" lon="116.30174691023939"><ele>183.60000000000002</ele><time>2026-04-05T03:23:34.999Z</time></trkpt><trkpt lat="-31.994706928379365" lon="116.30172999987063"><ele>183.0</ele><time>2026-04-05T03:23:35.999Z</time></trkpt><trkpt lat="-31.99480118793538" lon="116.30171610015995"><ele>183.0</ele><time>2026-04-05T03:23:36.999Z</time></trkpt><trkpt lat="-31.994893160939984" lon="116.30170788779952"><ele>183.0</ele><time>2026-04-05T03:23:37.999Z</time></trkpt><trkpt lat="-31.99499000663788" lon="116.30171769087507"><ele>183.0</ele><time>2026-04-05T03:23:38.999Z</time></trkpt><trkpt lat="-31.995083325287894" lon="116.30173780384989"><ele>183.0</ele><time>2026-04-05T03:23:39.999Z</time></trkpt><trkpt lat="-31.99518265147609" lon="116.30176562292196"><ele>183.0</ele><time>2026-04-05T03:23:40.999Z</time></trkpt><trkpt lat="-31.995292108480626" lon="116.30180036251174"><ele>182.4</ele><time>2026-04-05T03:23:41.999Z</time></trkpt><trkpt lat="-31.995400684080696" lon="116.30185142173077"><ele>181.8</ele><time>2026-04-05T03:23:42.999Z</time></trkpt><trkpt lat="-31.995497220398985" lon="116.30191087074039"><ele>181.2</ele><time>2026-04-05T03:23:43.999Z</time></trkpt><trkpt lat="-31.99558583241257" lon="116.30196729590327"><ele>180.6</ele><time>2026-04-05T03:23:44.999Z</time></trkpt><trkpt lat="-31.995673728946755" lon="116.30202834753496"><ele>180.0</ele><time>2026-04-05T03:23:45.999Z</time></trkpt><trkpt lat="-31.995760842620385" lon="116.3020828308135"><ele>180.0</ele><time>2026-04-05T03:23:46.999Z</time></trkpt><trkpt lat="-31.99583639026889" lon="116.3021274149747"><ele>180.0</ele><time>2026-04-05T03:23:47.999Z</time></trkpt><trkpt lat="-31.995901633530355" lon="116.30216459890748"><ele>180.0</ele><time>2026-04-05T03:23:48.999Z</time></trkpt><trkpt lat="-31.995962604096054" lon="116.30219845963889"><ele>180.0</ele><time>2026-04-05T03:23:49.999Z</time></trkpt><trkpt lat="-31.99602075443147" lon="116.30222909959157"><ele>180.0</ele><time>2026-04-05T03:23:50.999Z</time></trkpt><trkpt lat="-31.99607815639522" lon="116.30226209642407"><ele>180.0</ele><time>2026-04-05T03:23:51.999Z</time></trkpt><trkpt lat="-31.996175503561883" lon="116.30232219935525"><ele>180.8</ele><time>2026-04-05T03:23:53.999Z</time></trkpt><trkpt lat="-31.996259088795952" lon="116.30237874807173"><ele>181.6</ele><time>2026-04-05T03:23:55.999Z</time></trkpt><trkpt lat="-31.996333936399143" lon="116.30241928464572"><ele>182.39999999999998</ele><time>2026-04-05T03:23:57.999Z</time></trkpt><trkpt lat="-31.996408287921223" lon="116.30246519640286"><ele>183.2</ele><time>2026-04-05T03:23:59.999Z</time></trkpt><trkpt lat="-31.99651640936786" lon="116.30254269139994"><ele>184.0</ele><time>2026-04-05T03:24:01.999Z</time></trkpt><trkpt lat="-31.996590741419354" lon="116.30259138805198"><ele>183.79999999999998</ele><time>2026-04-05T03:24:02.999Z</time></trkpt><trkpt lat="-31.996681798568204" lon="116.30264679710527"><ele>183.6</ele><time>2026-04-05T03:24:03.999Z</time></trkpt><trkpt lat="-31.996764818947046" lon="116.30269833029838"><ele>183.4</ele><time>2026-04-05T03:24:04.999Z</time></trkpt><trkpt lat="-31.996851498535687" lon="116.30275767229688"><ele>183.2</ele><time>2026-04-05T03:24:05.999Z</time></trkpt><trkpt lat="-31.99693586737518" lon="116.30281605738175"><ele>183.0</ele><time>2026-04-05T03:24:06.999Z</time></trkpt><trkpt lat="-31.99701771690321" lon="116.30287031435746"><ele>183.0</ele><time>2026-04-05T03:24:07.999Z</time></trkpt><trkpt lat="-31.99710159244372" lon="116.30292557014148"><ele>183.0</ele><time>2026-04-05T03:24:08.999Z</time></trkpt><trkpt lat="-31.997190915004854" lon="116.30297733938025"><ele>183.0</ele><time>2026-04-05T03:24:09.999Z</time></trkpt><trkpt lat="-31.997287240037867" lon="116.30302343618563"><ele>183.0</ele><time>2026-04-05T03:24:10.999Z</time></trkpt><trkpt lat="-31.997391118593868" lon="116.30306297748372"><ele>183.0</ele><time>2026-04-05T03:24:11.999Z</time></trkpt><trkpt lat="-31.997511838610677" lon="116.30310625678365"><ele>182.66666666666666</ele><time>2026-04-05T03:24:12.999Z</time></trkpt><trkpt lat="-31.997663640589376" lon="116.30314240044082"><ele>182.33333333333331</ele><time>2026-04-05T03:24:13.999Z</time></trkpt><trkpt lat="-31.997826064062725" lon="116.30317237948024"><ele>182.0</ele><time>2026-04-05T03:24:15Z</time></trkpt><trkpt lat="-31.99804006270165" lon="116.30319096882697"><ele>182.0</ele><time>2026-04-05T03:24:16Z</time></trkpt><trkpt lat="-31.998261659770993" lon="116.30320755124629"><ele>182.0</ele><time>2026-04-05T03:24:17Z</time></trkpt><trkpt lat="-31.99851349371971" lon="116.303218639527"><ele>183.5</ele><time>2026-04-05T03:24:18Z</time></trkpt><trkpt lat="-31.99878203136948" lon="116.30321170062952"><ele>185.0</ele><time>2026-04-05T03:24:19Z</time></trkpt><trkpt lat="-31.99906646368465" lon="116.30319374084505"><ele>186.5</ele><time>2026-04-05T03:24:20Z</time></trkpt><trkpt lat="-31.99933461871215" lon="116.3031681877974"><ele>188.0</ele><time>2026-04-05T03:24:21Z</time></trkpt><trkpt lat="-31.999558749384846" lon="116.30315682244336"><ele>188.0</ele><time>2026-04-05T03:24:21.999Z</time></trkpt><trkpt lat="-31.99978465141221" lon="116.30315305930766"><ele>188.0</ele><time>2026-04-05T03:24:22.999Z</time></trkpt><trkpt lat="-32.000014285545156" lon="116.30314051635969"><ele>188.0</ele><time>2026-04-05T03:24:23.999Z</time></trkpt><trkpt lat="-32.00024616426705" lon="116.30310630797088"><ele>188.0</ele><time>2026-04-05T03:24:25Z</time></trkpt><trkpt lat="-32.000482260289395" lon="116.30305840007762"><ele>190.0</ele><time>2026-04-05T03:24:26Z</time></trkpt><trkpt lat="-32.000712018073166" lon="116.30298786745965"><ele>192.0</ele><time>2026-04-05T03:24:27Z</time></trkpt><trkpt lat="-32.00091865612412" lon="116.30292099578357"><ele>194.66666666666669</ele><time>2026-04-05T03:24:28Z</time></trkpt><trkpt lat="-32.001100379339746" lon="116.30286120706529"><ele>197.33333333333334</ele><time>2026-04-05T03:24:29Z</time></trkpt><trkpt lat="-32.00126824674363" lon="116.30280868287298"><ele>200.0</ele><time>2026-04-05T03:24:30Z</time></trkpt><trkpt lat="-32.001450993217794" lon="116.30275138604273"><ele>200.0</ele><time>2026-04-05T03:24:31Z</time></trkpt><trkpt lat="-32.001637036493825" lon="116.30267860597571"><ele>200.0</ele><time>2026-04-05T03:24:32Z</time></trkpt><trkpt lat="-32.00184730573316" lon="116.30258521611087"><ele>200.0</ele><time>2026-04-05T03:24:33Z</time></trkpt><trkpt lat="-32.002049988627235" lon="116.30248531508407"><ele>199.66666666666669</ele><time>2026-04-05T03:24:34Z</time></trkpt><trkpt lat="-32.00223726162087" lon="116.30238691842455"><ele>199.33333333333331</ele><time>2026-04-05T03:24:35Z</time></trkpt><trkpt lat="-32.002427041280825" lon="116.30228724514525"><ele>199.0</ele><time>2026-04-05T03:24:36Z</time></trkpt><trkpt lat="-32.00262213037345" lon="116.3022004074704"><ele>202.0</ele><time>2026-04-05T03:24:37Z</time></trkpt><trkpt lat="-32.00281096339539" lon="116.30213197626433"><ele>205.0</ele><time>2026-04-05T03:24:38Z</time></trkpt><trkpt lat="-32.00300490882731" lon="116.30208026383876"><ele>208.0</ele><time>2026-04-05T03:24:39Z</time></trkpt><trkpt lat="-32.00322976166204" lon="116.30204239457"><ele>209.0</ele><time>2026-04-05T03:24:40Z</time></trkpt><trkpt lat="-32.00344200722515" lon="116.30202766839895"><ele>210.0</ele><time>2026-04-05T03:24:41Z</time></trkpt><trkpt lat="-32.00366358889977" lon="116.30203960353322"><ele>211.0</ele><time>2026-04-05T03:24:42Z</time></trkpt><trkpt lat="-32.00387991052212" lon="116.30205969699846"><ele>211.0</ele><time>2026-04-05T03:24:43Z</time></trkpt><trkpt lat="-32.00409784565319" lon="116.30209793454341"><ele>211.0</ele><time>2026-04-05T03:24:44Z</time></trkpt><trkpt lat="-32.00428927845246" lon="116.30214503166712"><ele>211.0</ele><time>2026-04-05T03:24:45Z</time></trkpt><trkpt lat="-32.004453208087085" lon="116.30220616051874"><ele>210.75</ele><time>2026-04-05T03:24:46Z</time></trkpt><trkpt lat="-32.00459350244808" lon="116.30227945010792"><ele>210.5</ele><time>2026-04-05T03:24:47Z</time></trkpt><trkpt lat="-32.004707959456525" lon="116.30235680407631"><ele>210.25</ele><time>2026-04-05T03:24:48Z</time></trkpt><trkpt lat="-32.00481098638057" lon="116.30243433784284"><ele>210.0</ele><time>2026-04-05T03:24:49Z</time></trkpt><trkpt lat="-32.004904488712256" lon="116.30250886116961"><ele>210.0</ele><time>2026-04-05T03:24:50Z</time></trkpt><trkpt lat="-32.004986304408895" lon="116.30258290293723"><ele>210.0</ele><time>2026-04-05T03:24:51Z</time></trkpt><trkpt lat="-32.0050569684783" lon="116.30263907609759"><ele>210.0</ele><time>2026-04-05T03:24:52Z</time></trkpt><trkpt lat="-32.00514012079229" lon="116.30269130768012"><ele>210.0</ele><time>2026-04-05T03:24:53.999Z</time></trkpt><trkpt lat="-32.00520302577822" lon="116.30273328955417"><ele>210.0</ele><time>2026-04-05T03:24:55.999Z</time></trkpt><trkpt lat="-32.005277976214856" lon="116.3027910774589"><ele>210.0</ele><time>2026-04-05T03:24:57.999Z</time></trkpt><trkpt lat="-32.005345330641966" lon="116.30282970710108"><ele>210.83333333333334</ele><time>2026-04-05T03:24:59.999Z</time></trkpt><trkpt lat="-32.005410698568916" lon="116.30286537552892"><ele>211.66666666666669</ele><time>2026-04-05T03:25:01.999Z</time></trkpt><trkpt lat="-32.005477592788885" lon="116.30290750653889"><ele>212.5</ele><time>2026-04-05T03:25:03.999Z</time></trkpt><trkpt lat="-32.0055502715022" lon="116.30295386252169"><ele>213.33333333333334</ele><time>2026-04-05T03:25:05.999Z</time></trkpt><trkpt lat="-32.0056438012037" lon="116.30300520139396"><ele>214.16666666666669</ele><time>2026-04-05T03:25:07.999Z</time></trkpt><trkpt lat="-32.00570647666756" lon="116.30304446543913"><ele>215.0</ele><time>2026-04-05T03:25:08.999Z</time></trkpt><trkpt lat="-32.00581957783852" lon="116.30311095865567"><ele>215.33333333333334</ele><time>2026-04-05T03:25:10.999Z</time></trkpt><trkpt lat="-32.00589495367051" lon="116.30315128426994"><ele>215.66666666666669</ele><time>2026-04-05T03:25:11.999Z</time></trkpt><trkpt lat="-32.00596791733247" lon="116.30319671841235"><ele>216.0</ele><time>2026-04-05T03:25:12.999Z</time></trkpt><trkpt lat="-32.00603329335258" lon="116.30324212963419"><ele>216.33333333333331</ele><time>2026-04-05T03:25:13.999Z</time></trkpt><trkpt lat="-32.006106165650344" lon="116.30327871891919"><ele>216.66666666666666</ele><time>2026-04-05T03:25:14.999Z</time></trkpt><trkpt lat="-32.0061803757871" lon="116.303320823875"><ele>217.0</ele><time>2026-04-05T03:25:15.999Z</time></trkpt><trkpt lat="-32.00626607624009" lon="116.30337428802146"><ele>217.0</ele><time>2026-04-05T03:25:16.999Z</time></trkpt><trkpt lat="-32.006354871881605" lon="116.30343640071375"><ele>217.0</ele><time>2026-04-05T03:25:17.999Z</time></trkpt><trkpt lat="-32.006455568186375" lon="116.30350263345889"><ele>217.0</ele><time>2026-04-05T03:25:18.999Z</time></trkpt><trkpt lat="-32.006545590719554" lon="116.30356126455908"><ele>217.0</ele><time>2026-04-05T03:25:19.999Z</time></trkpt><trkpt lat="-32.00664627963395" lon="116.30362708365422"><ele>217.0</ele><time>2026-04-05T03:25:20.999Z</time></trkpt><trkpt lat="-32.006743613644986" lon="116.30369335671487"><ele>215.0</ele><time>2026-04-05T03:25:21.999Z</time></trkpt><trkpt lat="-32.00684880032868" lon="116.30376599439352"><ele>213.0</ele><time>2026-04-05T03:25:22.999Z</time></trkpt><trkpt lat="-32.006956296797725" lon="116.30384152108827"><ele>211.0</ele><time>2026-04-05T03:25:23.999Z</time></trkpt><trkpt lat="-32.00705815511926" lon="116.30391540275755"><ele>209.0</ele><time>2026-04-05T03:25:24.999Z</time></trkpt><trkpt lat="-32.00716937965798" lon="116.30399537636072"><ele>208.25</ele><time>2026-04-05T03:25:25.999Z</time></trkpt><trkpt lat="-32.00728259979648" lon="116.30406964037068"><ele>207.5</ele><time>2026-04-05T03:25:26.999Z</time></trkpt><trkpt lat="-32.00738377209726" lon="116.30414131842643"><ele>206.75</ele><time>2026-04-05T03:25:27.999Z</time></trkpt><trkpt lat="-32.007486400474406" lon="116.30421621476258"><ele>206.0</ele><time>2026-04-05T03:25:28.999Z</time></trkpt><trkpt lat="-32.00760203760865" lon="116.30429893053606"><ele>206.0</ele><time>2026-04-05T03:25:29.999Z</time></trkpt><trkpt lat="-32.007725947900475" lon="116.30438733110194"><ele>206.0</ele><time>2026-04-05T03:25:30.999Z</time></trkpt><trkpt lat="-32.00784408371998" lon="116.30448034463804"><ele>206.0</ele><time>2026-04-05T03:25:31.999Z</time></trkpt><trkpt lat="-32.0079633951811" lon="116.30458738981557"><ele>206.0</ele><time>2026-04-05T03:25:32.999Z</time></trkpt><trkpt lat="-32.00808648127298" lon="116.30470490873637"><ele>205.33333333333334</ele><time>2026-04-05T03:25:33.999Z</time></trkpt><trkpt lat="-32.008199142559384" lon="116.30483086566949"><ele>204.66666666666669</ele><time>2026-04-05T03:25:34.999Z</time></trkpt><trkpt lat="-32.00830402304632" lon="116.30495680590849"><ele>204.0</ele><time>2026-04-05T03:25:35.999Z</time></trkpt><trkpt lat="-32.008408981593924" lon="116.30507893042613"><ele>206.33333333333331</ele><time>2026-04-05T03:25:36.999Z</time></trkpt><trkpt lat="-32.008523541348495" lon="116.30520622387914"><ele>208.66666666666666</ele><time>2026-04-05T03:25:37.999Z</time></trkpt><trkpt lat="-32.00865706505583" lon="116.30533524847371"><ele>211.0</ele><time>2026-04-05T03:25:38.999Z</time></trkpt><trkpt lat="-32.008808957847066" lon="116.30545232712984"><ele>211.0</ele><time>2026-04-05T03:25:39.999Z</time></trkpt><trkpt lat="-32.008966273862455" lon="116.30556279454773"><ele>211.0</ele><time>2026-04-05T03:25:40.999Z</time></trkpt><trkpt lat="-32.009127087640785" lon="116.30566395263806"><ele>211.0</ele><time>2026-04-05T03:25:41.999Z</time></trkpt><trkpt lat="-32.00928559200848" lon="116.30574868138827"><ele>212.0</ele><time>2026-04-05T03:25:42.999Z</time></trkpt><trkpt lat="-32.00945437309403" lon="116.30583784773484"><ele>213.0</ele><time>2026-04-05T03:25:43.999Z</time></trkpt><trkpt lat="-32.0096187980841" lon="116.30592463169803"><ele>214.0</ele><time>2026-04-05T03:25:44.999Z</time></trkpt><trkpt lat="-32.00976619476332" lon="116.30600269424934"><ele>214.0</ele><time>2026-04-05T03:25:45.999Z</time></trkpt><trkpt lat="-32.00992023274714" lon="116.30608716997148"><ele>214.0</ele><time>2026-04-05T03:25:46.999Z</time></trkpt><trkpt lat="-32.01005444731788" lon="116.30616575902702"><ele>214.0</ele><time>2026-04-05T03:25:47.999Z</time></trkpt><trkpt lat="-32.01019858402729" lon="116.30626248975022"><ele>213.66666666666666</ele><time>2026-04-05T03:25:48.999Z</time></trkpt><trkpt lat="-32.01033168571391" lon="116.30636055791558"><ele>213.33333333333331</ele><time>2026-04-05T03:25:49.999Z</time></trkpt><trkpt lat="-32.010473276592855" lon="116.30646510287968"><ele>213.0</ele><time>2026-04-05T03:25:50.999Z</time></trkpt><trkpt lat="-32.01061773787751" lon="116.30656408819013"><ele>213.0</ele><time>2026-04-05T03:25:51.999Z</time></trkpt><trkpt lat="-32.01075216910199" lon="116.30664103743645"><ele>213.0</ele><time>2026-04-05T03:25:52.999Z</time></trkpt><trkpt lat="-32.010888508415675" lon="116.30670743287718"><ele>213.0</ele><time>2026-04-05T03:25:53.999Z</time></trkpt><trkpt lat="-32.01104136670803" lon="116.30675967016485"><ele>215.66666666666669</ele><time>2026-04-05T03:25:54.999Z</time></trkpt><trkpt lat="-32.0112000849487" lon="116.30680470173557"><ele>218.33333333333334</ele><time>2026-04-05T03:25:55.999Z</time></trkpt><trkpt lat="-32.01135133491229" lon="116.30684456086009"><ele>221.0</ele><time>2026-04-05T03:25:56.999Z</time></trkpt><trkpt lat="-32.01150171354328" lon="116.3068855052954"><ele>221.0</ele><time>2026-04-05T03:25:57.999Z</time></trkpt><trkpt lat="-32.01165074823791" lon="116.30692814768453"><ele>221.0</ele><time>2026-04-05T03:25:58.999Z</time></trkpt><trkpt lat="-32.011793985629005" lon="116.30696370554949"><ele>221.0</ele><time>2026-04-05T03:25:59.999Z</time></trkpt><trkpt lat="-32.01193580166565" lon="116.30698938417075"><ele>221.0</ele><time>2026-04-05T03:26:00.999Z</time></trkpt><trkpt lat="-32.01206820098403" lon="116.3070087092342"><ele>221.8</ele><time>2026-04-05T03:26:01.999Z</time></trkpt><trkpt lat="-32.012188535112905" lon="116.3070253730988"><ele>222.60000000000002</ele><time>2026-04-05T03:26:02.999Z</time></trkpt><trkpt lat="-32.01230080717727" lon="116.3070384903528"><ele>223.4</ele><time>2026-04-05T03:26:03.999Z</time></trkpt><trkpt lat="-32.01240658565106" lon="116.30705340894633"><ele>224.2</ele><time>2026-04-05T03:26:04.999Z</time></trkpt><trkpt lat="-32.01250767464578" lon="116.3070708064169"><ele>225.0</ele><time>2026-04-05T03:26:05.999Z</time></trkpt><trkpt lat="-32.01261751393476" lon="116.30708750918927"><ele>225.0</ele><time>2026-04-05T03:26:06.999Z</time></trkpt><trkpt lat="-32.01274801088138" lon="116.30710748627254"><ele>225.0</ele><time>2026-04-05T03:26:07.999Z</time></trkpt><trkpt lat="-32.012887358569685" lon="116.30713046552282"><ele>225.0</ele><time>2026-04-05T03:26:08.999Z</time></trkpt><trkpt lat="-32.01306753774177" lon="116.30716170068244"><ele>225.0</ele><time>2026-04-05T03:26:09.999Z</time></trkpt><trkpt lat="-32.01327585030621" lon="116.30719404047842"><ele>225.0</ele><time>2026-04-05T03:26:10.999Z</time></trkpt><trkpt lat="-32.01350990436986" lon="116.30723344602978"><ele>225.0</ele><time>2026-04-05T03:26:11.999Z</time></trkpt><trkpt lat="-32.013754014201524" lon="116.30728203985421"><ele>222.0</ele><time>2026-04-05T03:26:12.999Z</time></trkpt><trkpt lat="-32.01400166169855" lon="116.30733495027712"><ele>219.0</ele><time>2026-04-05T03:26:13.999Z</time></trkpt><trkpt lat="-32.0142277872227" lon="116.30738088857748"><ele>218.33333333333331</ele><time>2026-04-05T03:26:14.999Z</time></trkpt><trkpt lat="-32.01442081327258" lon="116.30746836641511"><ele>217.66666666666666</ele><time>2026-04-05T03:26:15.999Z</time></trkpt><trkpt lat="-32.01459322473533" lon="116.3075293812672"><ele>217.0</ele><time>2026-04-05T03:26:16.999Z</time></trkpt><trkpt lat="-32.014670792825086" lon="116.30770241042278"><ele>217.0</ele><time>2026-04-05T03:26:17.999Z</time></trkpt><trkpt lat="-32.014929707113275" lon="116.30752350360274"><ele>217.0</ele><time>2026-04-05T03:26:18.999Z</time></trkpt><trkpt lat="-32.015072053016844" lon="116.30754052665147"><ele>217.0</ele><time>2026-04-05T03:26:19.999Z</time></trkpt><trkpt lat="-32.015200425620975" lon="116.30753873335259"><ele>217.2</ele><time>2026-04-05T03:26:21Z</time></trkpt><trkpt lat="-32.0153104139859" lon="116.30752754884558"><ele>217.39999999999998</ele><time>2026-04-05T03:26:22Z</time></trkpt><trkpt lat="-32.01540606579636" lon="116.30752019054154"><ele>217.60000000000002</ele><time>2026-04-05T03:26:23Z</time></trkpt><trkpt lat="-32.01546921595988" lon="116.30751207263125"><ele>217.8</ele><time>2026-04-05T03:26:24Z</time></trkpt><trkpt lat="-32.01553135409371" lon="116.30754478595226"><ele>218.0</ele><time>2026-04-05T03:26:26Z</time></trkpt><trkpt lat="-32.01541071492227" lon="116.30753446130426"><ele>218.0</ele><time>2026-04-05T03:26:39Z</time></trkpt><trkpt lat="-32.01534174336833" lon="116.30754531477864"><ele>218.0</ele><time>2026-04-05T03:26:40Z</time></trkpt><trkpt lat="-32.015230678425446" lon="116.30753856095683"><ele>218.0</ele><time>2026-04-05T03:26:42Z</time></trkpt><trkpt lat="-32.01512085017005" lon="116.30753412403239"><ele>218.0</ele><time>2026-04-05T03:26:44Z</time></trkpt><trkpt lat="-32.01501647918248" lon="116.30752557124609"><ele>218.0</ele><time>2026-04-05T03:26:46Z</time></trkpt><trkpt lat="-32.01490056282815" lon="116.30751960548378"><ele>217.83333333333334</ele><time>2026-04-05T03:26:48Z</time></trkpt><trkpt lat="-32.014837300861984" lon="116.3075070600025"><ele>217.66666666666669</ele><time>2026-04-05T03:26:49Z</time></trkpt><trkpt lat="-32.01476903900384" lon="116.30749860942689"><ele>217.5</ele><time>2026-04-05T03:26:50Z</time></trkpt><trkpt lat="-32.01469043124579" lon="116.3074861864179"><ele>217.33333333333331</ele><time>2026-04-05T03:26:51Z</time></trkpt><trkpt lat="-32.014602711312236" lon="116.30747029845244"><ele>217.16666666666666</ele><time>2026-04-05T03:26:52Z</time></trkpt><trkpt lat="-32.01451368572349" lon="116.3074522626765"><ele>217.0</ele><time>2026-04-05T03:26:53Z</time></trkpt><trkpt lat="-32.01443882331964" lon="116.30744265666355"><ele>216.99999999999997</ele><time>2026-04-05T03:26:54Z</time></trkpt><trkpt lat="-32.01437362910281" lon="116.30743136897087"><ele>217.0</ele><time>2026-04-05T03:26:55Z</time></trkpt><trkpt lat="-32.01428153805952" lon="116.30737818672047"><ele>217.0</ele><time>2026-04-05T03:26:57Z</time></trkpt><trkpt lat="-32.01422056458667" lon="116.30734354237285"><ele>217.0</ele><time>2026-04-05T03:27:02.999Z</time></trkpt><trkpt lat="-32.01420621890594" lon="116.30726706384483"><ele>216.99999999999997</ele><time>2026-04-05T03:27:03.999Z</time></trkpt><trkpt lat="-32.01420480538413" lon="116.3071641333033"><ele>217.0</ele><time>2026-04-05T03:27:05.999Z</time></trkpt><trkpt lat="-32.01442874441889" lon="116.30701467372919"><ele>218.6</ele><time>2026-04-05T03:27:06.999Z</time></trkpt><trkpt lat="-32.01450274348911" lon="116.30691702904709"><ele>220.2</ele><time>2026-04-05T03:27:07.999Z</time></trkpt><trkpt lat="-32.014558990727146" lon="116.30684342088267"><ele>221.8</ele><time>2026-04-05T03:27:08.999Z</time></trkpt><trkpt lat="-32.01462718183384" lon="116.30677616788206"><ele>223.4</ele><time>2026-04-05T03:27:09.999Z</time></trkpt><trkpt lat="-32.014703935905466" lon="116.30671634389621"><ele>225.0</ele><time>2026-04-05T03:27:10.999Z</time></trkpt><trkpt lat="-32.01478160186226" lon="116.30665084609335"><ele>225.0</ele><time>2026-04-05T03:27:11.999Z</time></trkpt><trkpt lat="-32.01487133942119" lon="116.30660015928807"><ele>225.0</ele><time>2026-04-05T03:27:12.999Z</time></trkpt><trkpt lat="-32.01496373515754" lon="116.30653494436982"><ele>225.0</ele><time>2026-04-05T03:27:13.999Z</time></trkpt><trkpt lat="-32.015057975528705" lon="116.30644636332472"><ele>225.0</ele><time>2026-04-05T03:27:14.999Z</time></trkpt><trkpt lat="-32.01515255114202" lon="116.30635414458855"><ele>226.75</ele><time>2026-04-05T03:27:15.999Z</time></trkpt><trkpt lat="-32.015244974971644" lon="116.30627378092855"><ele>228.5</ele><time>2026-04-05T03:27:16.999Z</time></trkpt><trkpt lat="-32.01533481386266" lon="116.30618474364002"><ele>230.25</ele><time>2026-04-05T03:27:17.999Z</time></trkpt><trkpt lat="-32.01542352831884" lon="116.30609129587872"><ele>232.0</ele><time>2026-04-05T03:27:18.999Z</time></trkpt><trkpt lat="-32.01550606962527" lon="116.30597913774493"><ele>232.0</ele><time>2026-04-05T03:27:19.999Z</time></trkpt><trkpt lat="-32.01557682602617" lon="116.30588952072064"><ele>232.0</ele><time>2026-04-05T03:27:20.999Z</time></trkpt><trkpt lat="-32.01564321419482" lon="116.30580626924635"><ele>232.0</ele><time>2026-04-05T03:27:21.999Z</time></trkpt><trkpt lat="-32.015717063910856" lon="116.30572408490147"><ele>232.0</ele><time>2026-04-05T03:27:22.999Z</time></trkpt><trkpt lat="-32.01579724683293" lon="116.30566498607588"><ele>232.0</ele><time>2026-04-05T03:27:23.999Z</time></trkpt><trkpt lat="-32.015876934352015" lon="116.3055998297255"><ele>233.6</ele><time>2026-04-05T03:27:24.999Z</time></trkpt><trkpt lat="-32.01594654242142" lon="116.30553194079569"><ele>235.2</ele><time>2026-04-05T03:27:25.999Z</time></trkpt><trkpt lat="-32.01602217700279" lon="116.30546362358774"><ele>236.8</ele><time>2026-04-05T03:27:26.999Z</time></trkpt><trkpt lat="-32.01608852181032" lon="116.30540767312146"><ele>238.4</ele><time>2026-04-05T03:27:27.999Z</time></trkpt><trkpt lat="-32.0161663975714" lon="116.30534223332587"><ele>240.0</ele><time>2026-04-05T03:27:28.999Z</time></trkpt><trkpt lat="-32.01624530043717" lon="116.30528127494092"><ele>240.0</ele><time>2026-04-05T03:27:29.999Z</time></trkpt><trkpt lat="-32.01630346847608" lon="116.30523760083506"><ele>240.0</ele><time>2026-04-05T03:27:30.999Z</time></trkpt><trkpt lat="-32.016384434953416" lon="116.30517257261577"><ele>240.0</ele><time>2026-04-05T03:27:32.999Z</time></trkpt><trkpt lat="-32.016488280829705" lon="116.30511985226856"><ele>240.0</ele><time>2026-04-05T03:27:34.999Z</time></trkpt><trkpt lat="-32.01655334824231" lon="116.30507472966991"><ele>240.0</ele><time>2026-04-05T03:27:35.999Z</time></trkpt><trkpt lat="-32.016614866306696" lon="116.30502634333459"><ele>240.0</ele><time>2026-04-05T03:27:36.999Z</time></trkpt><trkpt lat="-32.01666621603006" lon="116.30497672600124"><ele>241.4</ele><time>2026-04-05T03:27:37.999Z</time></trkpt><trkpt lat="-32.01673647884898" lon="116.30490154920305"><ele>242.8</ele><time>2026-04-05T03:27:39.999Z</time></trkpt><trkpt lat="-32.016812850537065" lon="116.30484041130222"><ele>244.2</ele><time>2026-04-05T03:27:41.999Z</time></trkpt><trkpt lat="-32.01689213778976" lon="116.30478518208727"><ele>245.6</ele><time>2026-04-05T03:27:43.999Z</time></trkpt><trkpt lat="-32.01698320753511" lon="116.30470996679784"><ele>247.0</ele><time>2026-04-05T03:27:45.999Z</time></trkpt><trkpt lat="-32.01706013217438" lon="116.30463790288857"><ele>248.8</ele><time>2026-04-05T03:27:47.999Z</time></trkpt><trkpt lat="-32.017103564715306" lon="116.30458404156832"><ele>250.6</ele><time>2026-04-05T03:27:48.999Z</time></trkpt><trkpt lat="-32.01717386671431" lon="116.30449687695801"><ele>252.40000000000003</ele><time>2026-04-05T03:27:50.999Z</time></trkpt><trkpt lat="-32.017218631224175" lon="116.30438410139936"><ele>254.20000000000002</ele><time>2026-04-05T03:27:52.999Z</time></trkpt><trkpt lat="-32.01727859106291" lon="116.30424498776803"><ele>256.0</ele><time>2026-04-05T03:27:54.999Z</time></trkpt><trkpt lat="-32.01731576420188" lon="116.30415944693307"><ele>256.0</ele><time>2026-04-05T03:27:55.999Z</time></trkpt><trkpt lat="-32.017357072064115" lon="116.30405717224197"><ele>256.0</ele><time>2026-04-05T03:27:56.999Z</time></trkpt><trkpt lat="-32.01740085105557" lon="116.303970339291"><ele>256.0</ele><time>2026-04-05T03:27:57.999Z</time></trkpt><trkpt lat="-32.01744559298972" lon="116.3038980369709"><ele>256.0</ele><time>2026-04-05T03:27:58.999Z</time></trkpt><trkpt lat="-32.017500458854734" lon="116.30377230438374"><ele>256.0</ele><time>2026-04-05T03:28:00.999Z</time></trkpt><trkpt lat="-32.0175304812952" lon="116.30366867903744"><ele>257.5</ele><time>2026-04-05T03:28:01.999Z</time></trkpt><trkpt lat="-32.017558332282036" lon="116.30355885033933"><ele>259.0</ele><time>2026-04-05T03:28:02.999Z</time></trkpt><trkpt lat="-32.017577943329805" lon="116.30347533400871"><ele>260.5</ele><time>2026-04-05T03:28:03.999Z</time></trkpt><trkpt lat="-32.017610209037514" lon="116.30340896768193"><ele>262.0</ele><time>2026-04-05T03:28:04.999Z</time></trkpt><trkpt lat="-32.01765901640156" lon="116.3033466984585"><ele>263.5</ele><time>2026-04-05T03:28:05.999Z</time></trkpt><trkpt lat="-32.017693476813385" lon="116.30326780115003"><ele>265.0</ele><time>2026-04-05T03:28:06.999Z</time></trkpt><trkpt lat="-32.01770767512721" lon="116.3031731812582"><ele>266.8</ele><time>2026-04-05T03:28:07.999Z</time></trkpt><trkpt lat="-32.01769997098372" lon="116.30306709852891"><ele>268.6</ele><time>2026-04-05T03:28:08.999Z</time></trkpt><trkpt lat="-32.01768978446122" lon="116.3029449260053"><ele>270.4</ele><time>2026-04-05T03:28:09.999Z</time></trkpt><trkpt lat="-32.01768633870798" lon="116.30280008863953"><ele>272.2</ele><time>2026-04-05T03:28:10.999Z</time></trkpt><trkpt lat="-32.01768957474291" lon="116.30265831864187"><ele>274.0</ele><time>2026-04-05T03:28:11.999Z</time></trkpt><trkpt lat="-32.017698918228696" lon="116.30252027126292"><ele>274.0</ele><time>2026-04-05T03:28:12.999Z</time></trkpt><trkpt lat="-32.017707587661505" lon="116.30238392142789"><ele>274.0</ele><time>2026-04-05T03:28:13.999Z</time></trkpt><trkpt lat="-32.01770580606644" lon="116.30225730374848"><ele>274.0</ele><time>2026-04-05T03:28:14.999Z</time></trkpt><trkpt lat="-32.017700686105854" lon="116.30211097048715"><ele>274.0</ele><time>2026-04-05T03:28:15.999Z</time></trkpt><trkpt lat="-32.01769928461248" lon="116.30196150957299"><ele>274.59999999999997</ele><time>2026-04-05T03:28:16.999Z</time></trkpt><trkpt lat="-32.01771373276789" lon="116.30184461705842"><ele>275.2</ele><time>2026-04-05T03:28:17.999Z</time></trkpt><trkpt lat="-32.01774033510902" lon="116.30173452732554"><ele>275.79999999999995</ele><time>2026-04-05T03:28:18.999Z</time></trkpt><trkpt lat="-32.017766238083446" lon="116.30162830515012"><ele>276.4</ele><time>2026-04-05T03:28:19.999Z</time></trkpt><trkpt lat="-32.017779364998695" lon="116.30153433744869"><ele>277.0</ele><time>2026-04-05T03:28:20.999Z</time></trkpt><trkpt lat="-32.01778077906157" lon="116.30142223402734"><ele>277.75</ele><time>2026-04-05T03:28:21.999Z</time></trkpt><trkpt lat="-32.01776586994535" lon="116.30130090027792"><ele>278.5</ele><time>2026-04-05T03:28:22.999Z</time></trkpt><trkpt lat="-32.017731755175866" lon="116.30115653870122"><ele>279.25</ele><time>2026-04-05T03:28:23.999Z</time></trkpt><trkpt lat="-32.01768839297031" lon="116.30101036421352"><ele>280.0</ele><time>2026-04-05T03:28:24.999Z</time></trkpt><trkpt lat="-32.01763787237716" lon="116.30085966720303"><ele>280.0</ele><time>2026-04-05T03:28:25.999Z</time></trkpt><trkpt lat="-32.01758372048172" lon="116.3007113255945"><ele>280.0</ele><time>2026-04-05T03:28:27Z</time></trkpt><trkpt lat="-32.01754384911627" lon="116.3005843147788"><ele>280.0</ele><time>2026-04-05T03:28:28Z</time></trkpt><trkpt lat="-32.01750593728694" lon="116.30044806951108"><ele>280.0</ele><time>2026-04-05T03:28:29Z</time></trkpt><trkpt lat="-32.0174699371964" lon="116.30031573664915"><ele>282.0</ele><time>2026-04-05T03:28:30Z</time></trkpt><trkpt lat="-32.017425712631905" lon="116.30017825328628"><ele>284.0</ele><time>2026-04-05T03:28:31Z</time></trkpt><trkpt lat="-32.01738652969706" lon="116.30006593594146"><ele>286.0</ele><time>2026-04-05T03:28:32Z</time></trkpt><trkpt lat="-32.017351857644435" lon="116.29996946619053"><ele>288.0</ele><time>2026-04-05T03:28:33Z</time></trkpt><trkpt lat="-32.01731334657211" lon="116.2998719583762"><ele>290.0</ele><time>2026-04-05T03:28:34Z</time></trkpt><trkpt lat="-32.01727277216307" lon="116.29976316507508"><ele>290.6</ele><time>2026-04-05T03:28:35Z</time></trkpt><trkpt lat="-32.017235667588935" lon="116.29964755146452"><ele>291.2</ele><time>2026-04-05T03:28:36Z</time></trkpt><trkpt lat="-32.017204532773725" lon="116.29953160238338"><ele>291.8</ele><time>2026-04-05T03:28:37Z</time></trkpt><trkpt lat="-32.0171912388162" lon="116.29940351075471"><ele>292.4</ele><time>2026-04-05T03:28:38Z</time></trkpt><trkpt lat="-32.01716827333812" lon="116.29925356678305"><ele>293.0</ele><time>2026-04-05T03:28:39Z</time></trkpt><trkpt lat="-32.01714031842897" lon="116.29909694746333"><ele>293.0</ele><time>2026-04-05T03:28:40Z</time></trkpt><trkpt lat="-32.017115295807606" lon="116.29893874899861"><ele>293.0</ele><time>2026-04-05T03:28:41Z</time></trkpt><trkpt lat="-32.01710129846608" lon="116.29877613670081"><ele>293.0</ele><time>2026-04-05T03:28:42Z</time></trkpt><trkpt lat="-32.017088394620174" lon="116.29861137481556"><ele>293.0</ele><time>2026-04-05T03:28:43Z</time></trkpt><trkpt lat="-32.017064590523766" lon="116.29846166515567"><ele>294.0</ele><time>2026-04-05T03:28:44Z</time></trkpt><trkpt lat="-32.017028619521106" lon="116.29833111061568"><ele>295.0</ele><time>2026-04-05T03:28:45Z</time></trkpt><trkpt lat="-32.01699820563" lon="116.29819411474907"><ele>296.0</ele><time>2026-04-05T03:28:46Z</time></trkpt><trkpt lat="-32.016980386411056" lon="116.29804579617665"><ele>297.0</ele><time>2026-04-05T03:28:47Z</time></trkpt><trkpt lat="-32.01697211628691" lon="116.29788202692218"><ele>298.5</ele><time>2026-04-05T03:28:48Z</time></trkpt><trkpt lat="-32.01695360285129" lon="116.2977179792536"><ele>300.0</ele><time>2026-04-05T03:28:49Z</time></trkpt><trkpt lat="-32.01693784332867" lon="116.2975459570316"><ele>301.5</ele><time>2026-04-05T03:28:50Z</time></trkpt><trkpt lat="-32.01692759543295" lon="116.29738269066554"><ele>303.0</ele><time>2026-04-05T03:28:51Z</time></trkpt><trkpt lat="-32.01691239790227" lon="116.2972295828815"><ele>305.6</ele><time>2026-04-05T03:28:52Z</time></trkpt><trkpt lat="-32.01689657933092" lon="116.29710533146893"><ele>308.20000000000005</ele><time>2026-04-05T03:28:53Z</time></trkpt><trkpt lat="-32.016892739702826" lon="116.29698942775565"><ele>310.8</ele><time>2026-04-05T03:28:54Z</time></trkpt><trkpt lat="-32.01691392652489" lon="116.2968678780585"><ele>313.40000000000003</ele><time>2026-04-05T03:28:55Z</time></trkpt><trkpt lat="-32.016949295261234" lon="116.29673413088449"><ele>316.0</ele><time>2026-04-05T03:28:56Z</time></trkpt><trkpt lat="-32.016979790469335" lon="116.2966000361313"><ele>316.0</ele><time>2026-04-05T03:28:57Z</time></trkpt><trkpt lat="-32.01701146802677" lon="116.29647015104571"><ele>316.0</ele><time>2026-04-05T03:28:58Z</time></trkpt><trkpt lat="-32.01704459436889" lon="116.29634881960584"><ele>316.0</ele><time>2026-04-05T03:28:59Z</time></trkpt><trkpt lat="-32.01706822898712" lon="116.29623358915504"><ele>316.0</ele><time>2026-04-05T03:29:00Z</time></trkpt><trkpt lat="-32.017081316550474" lon="116.29614286950203"><ele>316.0</ele><time>2026-04-05T03:29:01Z</time></trkpt><trkpt lat="-32.01709264522667" lon="116.29606821835398"><ele>317.3333333333333</ele><time>2026-04-05T03:29:02Z</time></trkpt><trkpt lat="-32.01712811616879" lon="116.29600118496316"><ele>318.66666666666663</ele><time>2026-04-05T03:29:03Z</time></trkpt><trkpt lat="-32.01717376960353" lon="116.29592375675556"><ele>320.0</ele><time>2026-04-05T03:29:04Z</time></trkpt><trkpt lat="-32.01723356046014" lon="116.29586684378519"><ele>321.3333333333333</ele><time>2026-04-05T03:29:05Z</time></trkpt><trkpt lat="-32.01729790356951" lon="116.29582909543709"><ele>322.6666666666667</ele><time>2026-04-05T03:29:06Z</time></trkpt><trkpt lat="-32.01737170778293" lon="116.29577593757462"><ele>324.0</ele><time>2026-04-05T03:29:07Z</time></trkpt><trkpt lat="-32.01745432157313" lon="116.29569747466175"><ele>324.3333333333333</ele><time>2026-04-05T03:29:08Z</time></trkpt><trkpt lat="-32.01752133810861" lon="116.29560422656965"><ele>324.6666666666667</ele><time>2026-04-05T03:29:09Z</time></trkpt><trkpt lat="-32.01758483813475" lon="116.29551408201922"><ele>325.0</ele><time>2026-04-05T03:29:10Z</time></trkpt><trkpt lat="-32.01762736048708" lon="116.29543799441382"><ele>325.33333333333337</ele><time>2026-04-05T03:29:11Z</time></trkpt><trkpt lat="-32.0176572962368" lon="116.29535662063456"><ele>325.6666666666667</ele><time>2026-04-05T03:29:12Z</time></trkpt><trkpt lat="-32.01768872253685" lon="116.29527898102224"><ele>326.0</ele><time>2026-04-05T03:29:13Z</time></trkpt><trkpt lat="-32.017772363198254" lon="116.29520263133105"><ele>327.14285714285717</ele><time>2026-04-05T03:29:15Z</time></trkpt><trkpt lat="-32.01782775068802" lon="116.2951630927119"><ele>328.2857142857143</ele><time>2026-04-05T03:29:16Z</time></trkpt><trkpt lat="-32.017877565925914" lon="116.29510771448014"><ele>329.42857142857144</ele><time>2026-04-05T03:29:17Z</time></trkpt><trkpt lat="-32.01792327612721" lon="116.29503981136884"><ele>330.57142857142856</ele><time>2026-04-05T03:29:18Z</time></trkpt><trkpt lat="-32.017961497057534" lon="116.29495387296943"><ele>331.7142857142857</ele><time>2026-04-05T03:29:19Z</time></trkpt><trkpt lat="-32.01799549746159" lon="116.29488168345179"><ele>332.85714285714283</ele><time>2026-04-05T03:29:20Z</time></trkpt><trkpt lat="-32.018047273473194" lon="116.29483355350523"><ele>334.0</ele><time>2026-04-05T03:29:21Z</time></trkpt><trkpt lat="-32.018130742152735" lon="116.29477822810107"><ele>335.4</ele><time>2026-04-05T03:29:22Z</time></trkpt><trkpt lat="-32.018215276102914" lon="116.29472142153533"><ele>336.79999999999995</ele><time>2026-04-05T03:29:23Z</time></trkpt><trkpt lat="-32.01828051568006" lon="116.29465513051585"><ele>338.20000000000005</ele><time>2026-04-05T03:29:24Z</time></trkpt><trkpt lat="-32.018336260441835" lon="116.29457111317389"><ele>339.6</ele><time>2026-04-05T03:29:25Z</time></trkpt><trkpt lat="-32.018409961417746" lon="116.29446852452301"><ele>341.0</ele><time>2026-04-05T03:29:25.999Z</time></trkpt><trkpt lat="-32.0184870672941" lon="116.29438853534144"><ele>342.0</ele><time>2026-04-05T03:29:26.999Z</time></trkpt><trkpt lat="-32.01858164358683" lon="116.29431770898091"><ele>343.0</ele><time>2026-04-05T03:29:27.999Z</time></trkpt><trkpt lat="-32.018677272851605" lon="116.294226156911"><ele>344.0</ele><time>2026-04-05T03:29:28.999Z</time></trkpt><trkpt lat="-32.018768855183026" lon="116.2941148979786"><ele>345.0</ele><time>2026-04-05T03:29:29.999Z</time></trkpt><trkpt lat="-32.01885227503261" lon="116.29400460769189"><ele>345.0</ele><time>2026-04-05T03:29:30.999Z</time></trkpt><trkpt lat="-32.018910379794654" lon="116.29392289948572"><ele>345.0</ele><time>2026-04-05T03:29:32Z</time></trkpt><trkpt lat="-32.01896510117201" lon="116.29385683402245"><ele>345.0</ele><time>2026-04-05T03:29:32.999Z</time></trkpt><trkpt lat="-32.01901347904497" lon="116.29379616821944"><ele>345.0</ele><time>2026-04-05T03:29:33.999Z</time></trkpt><trkpt lat="-32.01910933099966" lon="116.2937112855928"><ele>345.0</ele><time>2026-04-05T03:29:35.999Z</time></trkpt><trkpt lat="-32.019185938173045" lon="116.29365225768076"><ele>345.2</ele><time>2026-04-05T03:29:37.999Z</time></trkpt><trkpt lat="-32.01920315887752" lon="116.29355058658783"><ele>345.4</ele><time>2026-04-05T03:29:39.999Z</time></trkpt><trkpt lat="-32.01923170429152" lon="116.29343976113226"><ele>345.6</ele><time>2026-04-05T03:29:41.999Z</time></trkpt><trkpt lat="-32.01929024352743" lon="116.29339722109701"><ele>345.8</ele><time>2026-04-05T03:29:42.999Z</time></trkpt><trkpt lat="-32.019375596101646" lon="116.29333031355046"><ele>346.0</ele><time>2026-04-05T03:29:43.999Z</time></trkpt><trkpt lat="-32.01948157921609" lon="116.29323240941387"><ele>346.0</ele><time>2026-04-05T03:29:44.999Z</time></trkpt><trkpt lat="-32.01958744464466" lon="116.29312002275842"><ele>346.0</ele><time>2026-04-05T03:29:45.999Z</time></trkpt><trkpt lat="-32.01966952956597" lon="116.29302993735926"><ele>346.0</ele><time>2026-04-05T03:29:46.999Z</time></trkpt><trkpt lat="-32.01973220055266" lon="116.29295077472608"><ele>346.0</ele><time>2026-04-05T03:29:47.999Z</time></trkpt><trkpt lat="-32.01979488367128" lon="116.29288242018077"><ele>346.0</ele><time>2026-04-05T03:29:48.999Z</time></trkpt><trkpt lat="-32.01986153273566" lon="116.29283175246844"><ele>346.5</ele><time>2026-04-05T03:29:49.999Z</time></trkpt><trkpt lat="-32.019939262110455" lon="116.29277613084065"><ele>347.0</ele><time>2026-04-05T03:29:50.999Z</time></trkpt><trkpt lat="-32.020028089176385" lon="116.2927114380002"><ele>347.5</ele><time>2026-04-05T03:29:51.999Z</time></trkpt><trkpt lat="-32.020142099412844" lon="116.29261875207243"><ele>348.0</ele><time>2026-04-05T03:29:52.999Z</time></trkpt><trkpt lat="-32.02024737462907" lon="116.29252432978217"><ele>346.5</ele><time>2026-04-05T03:29:53.999Z</time></trkpt><trkpt lat="-32.02034610956112" lon="116.29244420411138"><ele>345.0</ele><time>2026-04-05T03:29:54.999Z</time></trkpt><trkpt lat="-32.02044306818233" lon="116.29236608804945"><ele>343.5</ele><time>2026-04-05T03:29:55.999Z</time></trkpt><trkpt lat="-32.020544604253395" lon="116.29229063440447"><ele>342.0</ele><time>2026-04-05T03:29:56.999Z</time></trkpt><trkpt lat="-32.020657178862486" lon="116.29222364811572"><ele>341.5</ele><time>2026-04-05T03:29:57.999Z</time></trkpt><trkpt lat="-32.02076445933981" lon="116.29217232926128"><ele>341.0</ele><time>2026-04-05T03:29:58.999Z</time></trkpt><trkpt lat="-32.020877654763524" lon="116.2921232493556"><ele>340.5</ele><time>2026-04-05T03:29:59.999Z</time></trkpt><trkpt lat="-32.021000344570446" lon="116.29207083586189"><ele>340.0</ele><time>2026-04-05T03:30:00.999Z</time></trkpt><trkpt lat="-32.02112863259923" lon="116.29201911395725"><ele>339.5</ele><time>2026-04-05T03:30:01.999Z</time></trkpt><trkpt lat="-32.02125290581155" lon="116.29197277817248"><ele>339.0</ele><time>2026-04-05T03:30:02.999Z</time></trkpt><trkpt lat="-32.02137150461997" lon="116.29192838044061"><ele>338.5</ele><time>2026-04-05T03:30:03.999Z</time></trkpt><trkpt lat="-32.02149196313341" lon="116.2918907508007"><ele>338.0</ele><time>2026-04-05T03:30:04.999Z</time></trkpt><trkpt lat="-32.02161162466498" lon="116.29186433028349"><ele>337.2</ele><time>2026-04-05T03:30:05.999Z</time></trkpt><trkpt lat="-32.02173278965289" lon="116.29183803861191"><ele>336.4</ele><time>2026-04-05T03:30:06.999Z</time></trkpt><trkpt lat="-32.02184616615912" lon="116.29180750282998"><ele>335.59999999999997</ele><time>2026-04-05T03:30:07.999Z</time></trkpt><trkpt lat="-32.02193889822169" lon="116.29177433856886"><ele>334.79999999999995</ele><time>2026-04-05T03:30:08.999Z</time></trkpt><trkpt lat="-32.02201255099013" lon="116.29173012212131"><ele>334.0</ele><time>2026-04-05T03:30:09.999Z</time></trkpt><trkpt lat="-32.0221006057224" lon="116.29165259948006"><ele>334.0</ele><time>2026-04-05T03:30:10.999Z</time></trkpt><trkpt lat="-32.02219911657148" lon="116.29154763756809"><ele>334.0</ele><time>2026-04-05T03:30:11.999Z</time></trkpt><trkpt lat="-32.02230469673237" lon="116.29141351062694"><ele>334.0</ele><time>2026-04-05T03:30:12.999Z</time></trkpt><trkpt lat="-32.02241289846864" lon="116.29125789868267"><ele>332.66666666666663</ele><time>2026-04-05T03:30:13.999Z</time></trkpt><trkpt lat="-32.022516993275865" lon="116.29108423539763"><ele>331.3333333333333</ele><time>2026-04-05T03:30:14.999Z</time></trkpt><trkpt lat="-32.02261681881591" lon="116.29091776992202"><ele>330.0</ele><time>2026-04-05T03:30:15.999Z</time></trkpt><trkpt lat="-32.022710331084966" lon="116.29078501431964"><ele>330.0</ele><time>2026-04-05T03:30:16.999Z</time></trkpt><trkpt lat="-32.02279934790115" lon="116.2906677325469"><ele>330.0</ele><time>2026-04-05T03:30:17.999Z</time></trkpt><trkpt lat="-32.02287745212631" lon="116.29055718444626"><ele>330.0</ele><time>2026-04-05T03:30:18.999Z</time></trkpt><trkpt lat="-32.022948028480045" lon="116.29045069628646"><ele>330.0</ele><time>2026-04-05T03:30:19.999Z</time></trkpt><trkpt lat="-32.02301975005484" lon="116.2903653692073"><ele>329.3333333333333</ele><time>2026-04-05T03:30:20.999Z</time></trkpt><trkpt lat="-32.0230728324859" lon="116.2903012541032"><ele>328.6666666666667</ele><time>2026-04-05T03:30:21.999Z</time></trkpt><trkpt lat="-32.023111959045124" lon="116.29023526787945"><ele>328.0</ele><time>2026-04-05T03:30:23.999Z</time></trkpt><trkpt lat="-32.02316569843954" lon="116.29017763539701"><ele>327.33333333333337</ele><time>2026-04-05T03:30:26.999Z</time></trkpt><trkpt lat="-32.023207651803766" lon="116.29010911530973"><ele>326.6666666666667</ele><time>2026-04-05T03:30:30.999Z</time></trkpt><trkpt lat="-32.02316413045009" lon="116.2901674845762"><ele>326.0</ele><time>2026-04-05T03:33:38.999Z</time></trkpt><trkpt lat="-32.02325298694121" lon="116.29011515420765"><ele>326.0</ele><time>2026-04-05T03:44:43Z</time></trkpt><trkpt lat="-32.023295500088864" lon="116.29003030583237"><ele>326.0</ele><time>2026-04-05T03:44:44Z</time></trkpt><trkpt lat="-32.02335264033378" lon="116.28997186728913"><ele>326.0</ele><time>2026-04-05T03:44:45Z</time></trkpt><trkpt lat="-32.02339978467002" lon="116.2899016757146"><ele>326.0</ele><time>2026-04-05T03:44:46Z</time></trkpt><trkpt lat="-32.023462655073" lon="116.28983879927351"><ele>326.0</ele><time>2026-04-05T03:44:47Z</time></trkpt><trkpt lat="-32.0235198652217" lon="116.28975208830495"><ele>326.0</ele><time>2026-04-05T03:44:48Z</time></trkpt><trkpt lat="-32.02358264874619" lon="116.2896685110579"><ele>325.6</ele><time>2026-04-05T03:44:49Z</time></trkpt><trkpt lat="-32.02364612928172" lon="116.28957888267176"><ele>325.20000000000005</ele><time>2026-04-05T03:44:50Z</time></trkpt><trkpt lat="-32.02371421580412" lon="116.2894896425745"><ele>324.79999999999995</ele><time>2026-04-05T03:44:51Z</time></trkpt><trkpt lat="-32.02377931536797" lon="116.28941773307093"><ele>324.4</ele><time>2026-04-05T03:44:52Z</time></trkpt><trkpt lat="-32.0238443172535" lon="116.28934576323773"><ele>324.0</ele><time>2026-04-05T03:44:53Z</time></trkpt><trkpt lat="-32.02393746210243" lon="116.28926912395642"><ele>324.0</ele><time>2026-04-05T03:44:54Z</time></trkpt><trkpt lat="-32.02404732949817" lon="116.28919346112876"><ele>324.0</ele><time>2026-04-05T03:44:55Z</time></trkpt><trkpt lat="-32.024146557356865" lon="116.28911857165473"><ele>324.0</ele><time>2026-04-05T03:44:56Z</time></trkpt><trkpt lat="-32.02424541589112" lon="116.28904928206435"><ele>324.0</ele><time>2026-04-05T03:44:57Z</time></trkpt><trkpt lat="-32.02433777117331" lon="116.28896914359717"><ele>324.6666666666667</ele><time>2026-04-05T03:44:58Z</time></trkpt><trkpt lat="-32.02441735871957" lon="116.28890960905717"><ele>325.3333333333333</ele><time>2026-04-05T03:44:59Z</time></trkpt><trkpt lat="-32.02449998224476" lon="116.28886067873985"><ele>326.0</ele><time>2026-04-05T03:45:00Z</time></trkpt><trkpt lat="-32.02457680782761" lon="116.28880640939454"><ele>326.66666666666663</ele><time>2026-04-05T03:45:01Z</time></trkpt><trkpt lat="-32.02464177032704" lon="116.28874592278794"><ele>327.3333333333333</ele><time>2026-04-05T03:45:02Z</time></trkpt><trkpt lat="-32.02469355462591" lon="116.2886786688601"><ele>328.0</ele><time>2026-04-05T03:45:03Z</time></trkpt><trkpt lat="-32.02473679174787" lon="116.28860857106878"><ele>328.0</ele><time>2026-04-05T03:45:04Z</time></trkpt><trkpt lat="-32.024783317171334" lon="116.28849861666929"><ele>328.0</ele><time>2026-04-05T03:45:05Z</time></trkpt><trkpt lat="-32.024828295734274" lon="116.28839324824827"><ele>328.0</ele><time>2026-04-05T03:45:06Z</time></trkpt><trkpt lat="-32.02487595701781" lon="116.28830858752949"><ele>328.0</ele><time>2026-04-05T03:45:07Z</time></trkpt><trkpt lat="-32.024925874827225" lon="116.28822995835236"><ele>328.0</ele><time>2026-04-05T03:45:08Z</time></trkpt><trkpt lat="-32.02498382581408" lon="116.28815444279316"><ele>328.4</ele><time>2026-04-05T03:45:09Z</time></trkpt><trkpt lat="-32.02507110423816" lon="116.28808264662678"><ele>328.79999999999995</ele><time>2026-04-05T03:45:10Z</time></trkpt><trkpt lat="-32.025176055489474" lon="116.28800283106663"><ele>329.2</ele><time>2026-04-05T03:45:10.999Z</time></trkpt><trkpt lat="-32.02527115182126" lon="116.28792726917993"><ele>329.6</ele><time>2026-04-05T03:45:11.999Z</time></trkpt><trkpt lat="-32.02534364266868" lon="116.28785884169945"><ele>330.0</ele><time>2026-04-05T03:45:13Z</time></trkpt><trkpt lat="-32.02540240288113" lon="116.28780750290753"><ele>330.0</ele><time>2026-04-05T03:45:14Z</time></trkpt><trkpt lat="-32.02546221325653" lon="116.28775159004913"><ele>330.0</ele><time>2026-04-05T03:45:15Z</time></trkpt><trkpt lat="-32.02553509247526" lon="116.2876853280815"><ele>330.0</ele><time>2026-04-05T03:45:16Z</time></trkpt><trkpt lat="-32.025621269623365" lon="116.28762645629624"><ele>330.0</ele><time>2026-04-05T03:45:17Z</time></trkpt><trkpt lat="-32.02571996896865" lon="116.28757260923592"><ele>330.0</ele><time>2026-04-05T03:45:18Z</time></trkpt><trkpt lat="-32.025840920753346" lon="116.2875137837867"><ele>329.5</ele><time>2026-04-05T03:45:19Z</time></trkpt><trkpt lat="-32.02595046049048" lon="116.28744754674038"><ele>329.0</ele><time>2026-04-05T03:45:20Z</time></trkpt><trkpt lat="-32.026053591964995" lon="116.28738693469425"><ele>328.5</ele><time>2026-04-05T03:45:21Z</time></trkpt><trkpt lat="-32.02615415053706" lon="116.28732377380159"><ele>328.0</ele><time>2026-04-05T03:45:22Z</time></trkpt><trkpt lat="-32.026256546404966" lon="116.28726058192522"><ele>327.4</ele><time>2026-04-05T03:45:23Z</time></trkpt><trkpt lat="-32.02635799475941" lon="116.28720112335583"><ele>326.79999999999995</ele><time>2026-04-05T03:45:24Z</time></trkpt><trkpt lat="-32.02644979640981" lon="116.28713764180473"><ele>326.2</ele><time>2026-04-05T03:45:25Z</time></trkpt><trkpt lat="-32.02653633780958" lon="116.28706175710877"><ele>325.6</ele><time>2026-04-05T03:45:26Z</time></trkpt><trkpt lat="-32.02661098000103" lon="116.28699574373486"><ele>325.0</ele><time>2026-04-05T03:45:27Z</time></trkpt><trkpt lat="-32.02668024424926" lon="116.2869283886431"><ele>325.0</ele><time>2026-04-05T03:45:28Z</time></trkpt><trkpt lat="-32.0267330375826" lon="116.28687187812554"><ele>325.0</ele><time>2026-04-05T03:45:29Z</time></trkpt><trkpt lat="-32.026795369783194" lon="116.28680563504558"><ele>325.0</ele><time>2026-04-05T03:45:30Z</time></trkpt><trkpt lat="-32.02686974202408" lon="116.28672417277286"><ele>325.0</ele><time>2026-04-05T03:45:31Z</time></trkpt><trkpt lat="-32.02694493003346" lon="116.28664519004097"><ele>325.0</ele><time>2026-04-05T03:45:32Z</time></trkpt><trkpt lat="-32.02700979256796" lon="116.28656933369733"><ele>325.0</ele><time>2026-04-05T03:45:33Z</time></trkpt><trkpt lat="-32.02706184243599" lon="116.2864919951397"><ele>323.3333333333333</ele><time>2026-04-05T03:45:34Z</time></trkpt><trkpt lat="-32.02710944105611" lon="116.28641027205505"><ele>321.66666666666663</ele><time>2026-04-05T03:45:35Z</time></trkpt><trkpt lat="-32.027152858122285" lon="116.28633862748012"><ele>320.0</ele><time>2026-04-05T03:45:36Z</time></trkpt><trkpt lat="-32.02720555324413" lon="116.28625057927353"><ele>318.3333333333333</ele><time>2026-04-05T03:45:37Z</time></trkpt><trkpt lat="-32.027251973778746" lon="116.28617390490722"><ele>316.6666666666667</ele><time>2026-04-05T03:45:38Z</time></trkpt><trkpt lat="-32.0272998397906" lon="116.28610190431141"><ele>315.0</ele><time>2026-04-05T03:45:39Z</time></trkpt><trkpt lat="-32.027354124438624" lon="116.28602256792526"><ele>315.0</ele><time>2026-04-05T03:45:40Z</time></trkpt><trkpt lat="-32.02739182262199" lon="116.2859591020229"><ele>315.0</ele><time>2026-04-05T03:45:41Z</time></trkpt><trkpt lat="-32.02744092243204" lon="116.28587589185621"><ele>315.0</ele><time>2026-04-05T03:45:42Z</time></trkpt><trkpt lat="-32.02747741336121" lon="116.28579862504087"><ele>315.0</ele><time>2026-04-05T03:45:43Z</time></trkpt><trkpt lat="-32.02752631989723" lon="116.28571952630729"><ele>315.0</ele><time>2026-04-05T03:45:44Z</time></trkpt><trkpt lat="-32.02757887232292" lon="116.28563583765867"><ele>315.0</ele><time>2026-04-05T03:45:45Z</time></trkpt><trkpt lat="-32.02763062862918" lon="116.28554848023727"><ele>314.25</ele><time>2026-04-05T03:45:46Z</time></trkpt><trkpt lat="-32.02768586158152" lon="116.28542075276373"><ele>313.5</ele><time>2026-04-05T03:45:47Z</time></trkpt><trkpt lat="-32.02775365596111" lon="116.28526135721363"><ele>312.75</ele><time>2026-04-05T03:45:48Z</time></trkpt><trkpt lat="-32.02782941992041" lon="116.28508615500668"><ele>312.0</ele><time>2026-04-05T03:45:49Z</time></trkpt><trkpt lat="-32.027918874838534" lon="116.2848861617982"><ele>311.0</ele><time>2026-04-05T03:45:50Z</time></trkpt><trkpt lat="-32.028015350976744" lon="116.28467846614194"><ele>310.0</ele><time>2026-04-05T03:45:51Z</time></trkpt><trkpt lat="-32.02811043285231" lon="116.28449639449087"><ele>309.0</ele><time>2026-04-05T03:45:52Z</time></trkpt><trkpt lat="-32.02820413141985" lon="116.28434880667628"><ele>309.0</ele><time>2026-04-05T03:45:53Z</time></trkpt><trkpt lat="-32.02828624806681" lon="116.28422730183229"><ele>309.0</ele><time>2026-04-05T03:45:54Z</time></trkpt><trkpt lat="-32.028329751471574" lon="116.28412510026197"><ele>309.0</ele><time>2026-04-05T03:45:55Z</time></trkpt><trkpt lat="-32.0283599684817" lon="116.28403330256504"><ele>309.0</ele><time>2026-04-05T03:45:56Z</time></trkpt><trkpt lat="-32.028383984086894" lon="116.28396291944051"><ele>309.0</ele><time>2026-04-05T03:45:57Z</time></trkpt><trkpt lat="-32.02836707558662" lon="116.2838897450034"><ele>309.0</ele><time>2026-04-05T03:46:02Z</time></trkpt><trkpt lat="-32.028305689249294" lon="116.2838654649223"><ele>309.0</ele><time>2026-04-05T03:46:05Z</time></trkpt><trkpt lat="-32.028291889221" lon="116.2839393425911"><ele>309.0</ele><time>2026-04-05T03:46:08Z</time></trkpt><trkpt lat="-32.02835977246484" lon="116.28403986383121"><ele>309.0</ele><time>2026-04-05T03:46:10Z</time></trkpt><trkpt lat="-32.02841538831014" lon="116.28408761913384"><ele>309.0</ele><time>2026-04-05T03:46:11Z</time></trkpt><trkpt lat="-32.02848084941342" lon="116.2841444578654"><ele>309.0</ele><time>2026-04-05T03:46:12Z</time></trkpt><trkpt lat="-32.02856941942357" lon="116.28421299634357"><ele>309.0</ele><time>2026-04-05T03:46:13Z</time></trkpt><trkpt lat="-32.02867948075141" lon="116.28428348362755"><ele>310.75</ele><time>2026-04-05T03:46:14Z</time></trkpt><trkpt lat="-32.028787616247165" lon="116.28433517816799"><ele>312.5</ele><time>2026-04-05T03:46:15Z</time></trkpt><trkpt lat="-32.02889318632244" lon="116.28437249517422"><ele>314.25</ele><time>2026-04-05T03:46:16Z</time></trkpt><trkpt lat="-32.02900941637256" lon="116.2844032523553"><ele>316.0</ele><time>2026-04-05T03:46:17Z</time></trkpt><trkpt lat="-32.02914128845735" lon="116.28444301994496"><ele>316.40000000000003</ele><time>2026-04-05T03:46:18Z</time></trkpt><trkpt lat="-32.029256009430625" lon="116.28448427738094"><ele>316.8</ele><time>2026-04-05T03:46:19Z</time></trkpt><trkpt lat="-32.02934854649788" lon="116.2845297718153"><ele>317.20000000000005</ele><time>2026-04-05T03:46:20Z</time></trkpt><trkpt lat="-32.029423659698175" lon="116.28457071018101"><ele>317.6</ele><time>2026-04-05T03:46:21Z</time></trkpt><trkpt lat="-32.029488496615144" lon="116.28460521213049"><ele>318.0</ele><time>2026-04-05T03:46:22Z</time></trkpt><trkpt lat="-32.029569031633855" lon="116.28463809329446"><ele>318.0</ele><time>2026-04-05T03:46:23Z</time></trkpt><trkpt lat="-32.029657756465355" lon="116.28466296653767"><ele>318.0</ele><time>2026-04-05T03:46:24Z</time></trkpt><trkpt lat="-32.02974465639821" lon="116.28468267843738"><ele>318.0</ele><time>2026-04-05T03:46:25Z</time></trkpt><trkpt lat="-32.02984932212042" lon="116.2847000204265"><ele>318.0</ele><time>2026-04-05T03:46:26Z</time></trkpt><trkpt lat="-32.02994781237399" lon="116.28471980324404"><ele>318.0</ele><time>2026-04-05T03:46:27Z</time></trkpt><trkpt lat="-32.030048055622586" lon="116.28476004911647"><ele>318.0</ele><time>2026-04-05T03:46:28Z</time></trkpt><trkpt lat="-32.030170750301465" lon="116.28480975856789"><ele>318.0</ele><time>2026-04-05T03:46:29Z</time></trkpt><trkpt lat="-32.030322964583355" lon="116.28486061657118"><ele>318.0</ele><time>2026-04-05T03:46:30Z</time></trkpt><trkpt lat="-32.03049850876821" lon="116.28491106586407"><ele>318.0</ele><time>2026-04-05T03:46:31Z</time></trkpt><trkpt lat="-32.03068507204036" lon="116.28496659039696"><ele>318.0</ele><time>2026-04-05T03:46:32Z</time></trkpt><trkpt lat="-32.030862282178745" lon="116.28502256273241"><ele>318.0</ele><time>2026-04-05T03:46:33Z</time></trkpt><trkpt lat="-32.031010830478884" lon="116.28507366108391"><ele>317.6666666666667</ele><time>2026-04-05T03:46:34Z</time></trkpt><trkpt lat="-32.03114741859968" lon="116.28512811522184"><ele>317.33333333333337</ele><time>2026-04-05T03:46:35Z</time></trkpt><trkpt lat="-32.03128610957532" lon="116.28520584531323"><ele>317.0</ele><time>2026-04-05T03:46:36Z</time></trkpt><trkpt lat="-32.03144980396656" lon="116.28531266694466"><ele>317.0</ele><time>2026-04-05T03:46:37Z</time></trkpt><trkpt lat="-32.0316198750145" lon="116.28542026018705"><ele>317.0</ele><time>2026-04-05T03:46:38Z</time></trkpt><trkpt lat="-32.0317642640884" lon="116.28550700319963"><ele>317.0</ele><time>2026-04-05T03:46:39Z</time></trkpt><trkpt lat="-32.031890867354484" lon="116.28558088534398"><ele>318.25</ele><time>2026-04-05T03:46:40Z</time></trkpt><trkpt lat="-32.03200355967547" lon="116.28564507874707"><ele>319.5</ele><time>2026-04-05T03:46:41Z</time></trkpt><trkpt lat="-32.03211435815687" lon="116.28569966601398"><ele>320.75</ele><time>2026-04-05T03:46:42Z</time></trkpt><trkpt lat="-32.032241054555456" lon="116.28575237334454"><ele>322.0</ele><time>2026-04-05T03:46:43Z</time></trkpt><trkpt lat="-32.032382265210686" lon="116.28580941652027"><ele>321.3333333333333</ele><time>2026-04-05T03:46:44Z</time></trkpt><trkpt lat="-32.0325435712135" lon="116.28586799275655"><ele>320.6666666666667</ele><time>2026-04-05T03:46:45Z</time></trkpt><trkpt lat="-32.03271130739027" lon="116.28593591146489"><ele>320.0</ele><time>2026-04-05T03:46:46Z</time></trkpt><trkpt lat="-32.03288646452099" lon="116.28600389459179"><ele>320.0</ele><time>2026-04-05T03:46:47Z</time></trkpt><trkpt lat="-32.03305267335488" lon="116.28606792747566"><ele>320.0</ele><time>2026-04-05T03:46:48Z</time></trkpt><trkpt lat="-32.03321737426412" lon="116.28613879260195"><ele>320.0</ele><time>2026-04-05T03:46:49Z</time></trkpt><trkpt lat="-32.03338554574838" lon="116.28622154415396"><ele>320.33333333333337</ele><time>2026-04-05T03:46:50Z</time></trkpt><trkpt lat="-32.03354432818822" lon="116.286303519583"><ele>320.6666666666667</ele><time>2026-04-05T03:46:51Z</time></trkpt><trkpt lat="-32.03369213788429" lon="116.28637876608481"><ele>321.0</ele><time>2026-04-05T03:46:52Z</time></trkpt><trkpt lat="-32.0338426651355" lon="116.28644576251978"><ele>321.0</ele><time>2026-04-05T03:46:53Z</time></trkpt><trkpt lat="-32.03400266901759" lon="116.28651439894328"><ele>321.0</ele><time>2026-04-05T03:46:54Z</time></trkpt><trkpt lat="-32.03416993234318" lon="116.28658569638434"><ele>321.0</ele><time>2026-04-05T03:46:55Z</time></trkpt><trkpt lat="-32.03435133480514" lon="116.28667460602001"><ele>320.0</ele><time>2026-04-05T03:46:56Z</time></trkpt><trkpt lat="-32.03451544577324" lon="116.28675719854284"><ele>319.0</ele><time>2026-04-05T03:46:57Z</time></trkpt><trkpt lat="-32.034656657837736" lon="116.28682902736124"><ele>318.0</ele><time>2026-04-05T03:46:58Z</time></trkpt><trkpt lat="-32.03479311682431" lon="116.28690318344769"><ele>318.0</ele><time>2026-04-05T03:46:59Z</time></trkpt><trkpt lat="-32.03491603915733" lon="116.28697738861172"><ele>318.0</ele><time>2026-04-05T03:47:00Z</time></trkpt><trkpt lat="-32.03504353749695" lon="116.28705050772142"><ele>318.0</ele><time>2026-04-05T03:47:01Z</time></trkpt><trkpt lat="-32.03514586626609" lon="116.28709057038384"><ele>318.0</ele><time>2026-04-05T03:47:02Z</time></trkpt><trkpt lat="-32.03524805087981" lon="116.28711534958063"><ele>317.0</ele><time>2026-04-05T03:47:03Z</time></trkpt><trkpt lat="-32.035363539980885" lon="116.28711792522066"><ele>316.0</ele><time>2026-04-05T03:47:04Z</time></trkpt><trkpt lat="-32.03550546497877" lon="116.2871221205353"><ele>315.0</ele><time>2026-04-05T03:47:05Z</time></trkpt><trkpt lat="-32.035649891010955" lon="116.28714154692427"><ele>314.0</ele><time>2026-04-05T03:47:06Z</time></trkpt><trkpt lat="-32.03577500401882" lon="116.28715791741357"><ele>313.0</ele><time>2026-04-05T03:47:07Z</time></trkpt><trkpt lat="-32.03589318599761" lon="116.28717050534846"><ele>312.0</ele><time>2026-04-05T03:47:08Z</time></trkpt><trkpt lat="-32.036002757574146" lon="116.28718291876102"><ele>311.0</ele><time>2026-04-05T03:47:09Z</time></trkpt><trkpt lat="-32.036117179160584" lon="116.28719575741485"><ele>310.0</ele><time>2026-04-05T03:47:10Z</time></trkpt><trkpt lat="-32.03624477681543" lon="116.28720901862741"><ele>310.0</ele><time>2026-04-05T03:47:11Z</time></trkpt><trkpt lat="-32.03638301103744" lon="116.28722668635987"><ele>310.0</ele><time>2026-04-05T03:47:12Z</time></trkpt><trkpt lat="-32.036511842544655" lon="116.28723895435817"><ele>310.0</ele><time>2026-04-05T03:47:13Z</time></trkpt><trkpt lat="-32.03661618966446" lon="116.28724351483919"><ele>310.0</ele><time>2026-04-05T03:47:14Z</time></trkpt><trkpt lat="-32.03671601035063" lon="116.28725064189754"><ele>311.0</ele><time>2026-04-05T03:47:15Z</time></trkpt><trkpt lat="-32.03682245370875" lon="116.28726115874271"><ele>312.0</ele><time>2026-04-05T03:47:16Z</time></trkpt><trkpt lat="-32.03693601337594" lon="116.28727353454349"><ele>313.0</ele><time>2026-04-05T03:47:17Z</time></trkpt><trkpt lat="-32.03704728653822" lon="116.28728710664448"><ele>314.0</ele><time>2026-04-05T03:47:18Z</time></trkpt><trkpt lat="-32.03716835774543" lon="116.28729679575444"><ele>314.0</ele><time>2026-04-05T03:47:18.999Z</time></trkpt><trkpt lat="-32.03729086277833" lon="116.2873010154435"><ele>314.0</ele><time>2026-04-05T03:47:19.999Z</time></trkpt><trkpt lat="-32.03740161603833" lon="116.28730871462989"><ele>314.0</ele><time>2026-04-05T03:47:20.999Z</time></trkpt><trkpt lat="-32.0375125627791" lon="116.28731958698275"><ele>314.0</ele><time>2026-04-05T03:47:22Z</time></trkpt><trkpt lat="-32.03761096090898" lon="116.28732737327965"><ele>314.0</ele><time>2026-04-05T03:47:23Z</time></trkpt><trkpt lat="-32.037691585034906" lon="116.28733211998338"><ele>313.33333333333337</ele><time>2026-04-05T03:47:24Z</time></trkpt><trkpt lat="-32.03775759363713" lon="116.28733514719934"><ele>312.6666666666667</ele><time>2026-04-05T03:47:25Z</time></trkpt><trkpt lat="-32.037836437707526" lon="116.28733793478736"><ele>312.0</ele><time>2026-04-05T03:47:27Z</time></trkpt><trkpt lat="-32.03790481344007" lon="116.28733842009127"><ele>311.3333333333333</ele><time>2026-04-05T03:47:49Z</time></trkpt><trkpt lat="-32.03800769473439" lon="116.2873550425263"><ele>310.66666666666663</ele><time>2026-04-05T03:47:51Z</time></trkpt><trkpt lat="-32.038097160921104" lon="116.28737041803372"><ele>310.0</ele><time>2026-04-05T03:47:52Z</time></trkpt><trkpt lat="-32.03819772018703" lon="116.28737845825944"><ele>309.5</ele><time>2026-04-05T03:47:53Z</time></trkpt><trkpt lat="-32.038310212508335" lon="116.28738724974076"><ele>309.0</ele><time>2026-04-05T03:47:54Z</time></trkpt><trkpt lat="-32.038454079640836" lon="116.28740415099634"><ele>308.5</ele><time>2026-04-05T03:47:55Z</time></trkpt><trkpt lat="-32.03862611322809" lon="116.28741490703834"><ele>308.0</ele><time>2026-04-05T03:47:56Z</time></trkpt><trkpt lat="-32.0388015025841" lon="116.28742140140753"><ele>308.0</ele><time>2026-04-05T03:47:57Z</time></trkpt><trkpt lat="-32.038947560695185" lon="116.28742574246185"><ele>308.0</ele><time>2026-04-05T03:47:58Z</time></trkpt><trkpt lat="-32.03906563658144" lon="116.28743845378015"><ele>308.0</ele><time>2026-04-05T03:47:59Z</time></trkpt><trkpt lat="-32.03915086185585" lon="116.2874578503514"><ele>308.0</ele><time>2026-04-05T03:48:00Z</time></trkpt><trkpt lat="-32.039222836363564" lon="116.2874870570391"><ele>308.0</ele><time>2026-04-05T03:48:01Z</time></trkpt><trkpt lat="-32.03928601059326" lon="116.28753079706937"><ele>307.75</ele><time>2026-04-05T03:48:02Z</time></trkpt><trkpt lat="-32.03935003864306" lon="116.28760137947025"><ele>307.5</ele><time>2026-04-05T03:48:03Z</time></trkpt><trkpt lat="-32.03943500737605" lon="116.28769395487366"><ele>307.25</ele><time>2026-04-05T03:48:04Z</time></trkpt><trkpt lat="-32.03953674884999" lon="116.2877836685739"><ele>307.0</ele><time>2026-04-05T03:48:05Z</time></trkpt><trkpt lat="-32.039642455724234" lon="116.28786076567549"><ele>307.0</ele><time>2026-04-05T03:48:06Z</time></trkpt><trkpt lat="-32.03976164910162" lon="116.28794335149158"><ele>307.0</ele><time>2026-04-05T03:48:07Z</time></trkpt><trkpt lat="-32.039895327250285" lon="116.28806284362079"><ele>307.0</ele><time>2026-04-05T03:48:08Z</time></trkpt><trkpt lat="-32.04001918877806" lon="116.28819446537176"><ele>307.66666666666663</ele><time>2026-04-05T03:48:09Z</time></trkpt><trkpt lat="-32.04013126589828" lon="116.28832822313738"><ele>308.3333333333333</ele><time>2026-04-05T03:48:10Z</time></trkpt><trkpt lat="-32.04023090176893" lon="116.28844813481737"><ele>309.0</ele><time>2026-04-05T03:48:11Z</time></trkpt><trkpt lat="-32.040343986495444" lon="116.28857835725465"><ele>309.0</ele><time>2026-04-05T03:48:12Z</time></trkpt><trkpt lat="-32.04046693924548" lon="116.288722541772"><ele>309.0</ele><time>2026-04-05T03:48:13Z</time></trkpt><trkpt lat="-32.04057274652192" lon="116.28884730457237"><ele>309.0</ele><time>2026-04-05T03:48:14Z</time></trkpt><trkpt lat="-32.04070095973044" lon="116.28898580753993"><ele>310.0</ele><time>2026-04-05T03:48:15Z</time></trkpt><trkpt lat="-32.040844002784574" lon="116.28914788525175"><ele>311.0</ele><time>2026-04-05T03:48:16Z</time></trkpt><trkpt lat="-32.04099884020226" lon="116.28933204453911"><ele>312.0</ele><time>2026-04-05T03:48:17Z</time></trkpt><trkpt lat="-32.041136633420486" lon="116.28949241103412"><ele>312.0</ele><time>2026-04-05T03:48:18Z</time></trkpt><trkpt lat="-32.041271025922086" lon="116.28964596757824"><ele>312.0</ele><time>2026-04-05T03:48:19Z</time></trkpt><trkpt lat="-32.04140204720033" lon="116.28979213441944"><ele>312.0</ele><time>2026-04-05T03:48:20Z</time></trkpt><trkpt lat="-32.04151627094527" lon="116.28993044167213"><ele>312.5</ele><time>2026-04-05T03:48:21Z</time></trkpt><trkpt lat="-32.04161329481481" lon="116.29005531340032"><ele>313.0</ele><time>2026-04-05T03:48:22Z</time></trkpt><trkpt lat="-32.0416960754865" lon="116.2901678671771"><ele>313.5</ele><time>2026-04-05T03:48:23Z</time></trkpt><trkpt lat="-32.041764541973386" lon="116.29028240595999"><ele>314.0</ele><time>2026-04-05T03:48:24Z</time></trkpt><trkpt lat="-32.04182250816859" lon="116.29042299624922"><ele>313.0</ele><time>2026-04-05T03:48:25Z</time></trkpt><trkpt lat="-32.04187908682109" lon="116.29059331273733"><ele>312.0</ele><time>2026-04-05T03:48:26Z</time></trkpt><trkpt lat="-32.0419308562762" lon="116.29079191813334"><ele>311.0</ele><time>2026-04-05T03:48:27Z</time></trkpt><trkpt lat="-32.041988032628154" lon="116.29101105460398"><ele>311.0</ele><time>2026-04-05T03:48:28Z</time></trkpt><trkpt lat="-32.04205041128281" lon="116.29120530280375"><ele>311.0</ele><time>2026-04-05T03:48:29Z</time></trkpt><trkpt lat="-32.042111764312985" lon="116.29137156023211"><ele>311.0</ele><time>2026-04-05T03:48:30Z</time></trkpt><trkpt lat="-32.04216396738072" lon="116.29152820001102"><ele>312.5</ele><time>2026-04-05T03:48:31Z</time></trkpt><trkpt lat="-32.04222209945505" lon="116.29166920394974"><ele>314.0</ele><time>2026-04-05T03:48:32Z</time></trkpt><trkpt lat="-32.04227260829085" lon="116.2917978663286"><ele>315.5</ele><time>2026-04-05T03:48:33Z</time></trkpt><trkpt lat="-32.04231822012945" lon="116.29194449701777"><ele>317.0</ele><time>2026-04-05T03:48:34Z</time></trkpt><trkpt lat="-32.04236329918782" lon="116.292112307259"><ele>317.33333333333337</ele><time>2026-04-05T03:48:35Z</time></trkpt><trkpt lat="-32.04239187562233" lon="116.29228588819257"><ele>317.6666666666667</ele><time>2026-04-05T03:48:36Z</time></trkpt><trkpt lat="-32.04242238913999" lon="116.29247515590976"><ele>318.0</ele><time>2026-04-05T03:48:37Z</time></trkpt><trkpt lat="-32.04246243761212" lon="116.2926871025063"><ele>315.0</ele><time>2026-04-05T03:48:38Z</time></trkpt><trkpt lat="-32.04251453245915" lon="116.29289856621385"><ele>312.0</ele><time>2026-04-05T03:48:39Z</time></trkpt><trkpt lat="-32.04256243918962" lon="116.2930864633168"><ele>309.0</ele><time>2026-04-05T03:48:40Z</time></trkpt><trkpt lat="-32.0426074503247" lon="116.2932692678346"><ele>309.0</ele><time>2026-04-05T03:48:41Z</time></trkpt><trkpt lat="-32.04264534964177" lon="116.29346384603487"><ele>309.0</ele><time>2026-04-05T03:48:42Z</time></trkpt><trkpt lat="-32.042683200872716" lon="116.29364451031111"><ele>309.0</ele><time>2026-04-05T03:48:43Z</time></trkpt><trkpt lat="-32.042722613106555" lon="116.29380690152247"><ele>308.75</ele><time>2026-04-05T03:48:44Z</time></trkpt><trkpt lat="-32.04275648310898" lon="116.29393390289644"><ele>308.5</ele><time>2026-04-05T03:48:45Z</time></trkpt><trkpt lat="-32.042800293154876" lon="116.29405610766348"><ele>308.25</ele><time>2026-04-05T03:48:46Z</time></trkpt><trkpt lat="-32.04287191923124" lon="116.29421651325234"><ele>308.0</ele><time>2026-04-05T03:48:47Z</time></trkpt><trkpt lat="-32.042969944365325" lon="116.29440877812252"><ele>308.0</ele><time>2026-04-05T03:48:48Z</time></trkpt><trkpt lat="-32.043085027972424" lon="116.2946259869226"><ele>308.0</ele><time>2026-04-05T03:48:49Z</time></trkpt><trkpt lat="-32.04317461659428" lon="116.2948107203764"><ele>308.0</ele><time>2026-04-05T03:48:50Z</time></trkpt><trkpt lat="-32.04324275240658" lon="116.29494711548065"><ele>306.6</ele><time>2026-04-05T03:48:51Z</time></trkpt><trkpt lat="-32.04331010624986" lon="116.29506083052905"><ele>305.20000000000005</ele><time>2026-04-05T03:48:52Z</time></trkpt><trkpt lat="-32.04338346263054" lon="116.29515416770583"><ele>303.8</ele><time>2026-04-05T03:48:53Z</time></trkpt><trkpt lat="-32.043465372590624" lon="116.29522587865651"><ele>302.40000000000003</ele><time>2026-04-05T03:48:54Z</time></trkpt><trkpt lat="-32.04356257634842" lon="116.29529231306897"><ele>301.0</ele><time>2026-04-05T03:48:55Z</time></trkpt><trkpt lat="-32.04369250818929" lon="116.29535993040399"><ele>301.0</ele><time>2026-04-05T03:48:56Z</time></trkpt><trkpt lat="-32.043827960346114" lon="116.29543900112327"><ele>301.0</ele><time>2026-04-05T03:48:57Z</time></trkpt><trkpt lat="-32.043951867765195" lon="116.29552886619052"><ele>301.0</ele><time>2026-04-05T03:48:58Z</time></trkpt><trkpt lat="-32.04406989285773" lon="116.29561272753239"><ele>301.0</ele><time>2026-04-05T03:48:59Z</time></trkpt><trkpt lat="-32.044185571780154" lon="116.29568722194877"><ele>301.75</ele><time>2026-04-05T03:49:00Z</time></trkpt><trkpt lat="-32.04429256797241" lon="116.29575973907062"><ele>302.5</ele><time>2026-04-05T03:49:01Z</time></trkpt><trkpt lat="-32.044389413678054" lon="116.29583861425456"><ele>303.25</ele><time>2026-04-05T03:49:02Z</time></trkpt><trkpt lat="-32.044502172551155" lon="116.29591555127547"><ele>304.0</ele><time>2026-04-05T03:49:03Z</time></trkpt><trkpt lat="-32.0446385495691" lon="116.29597784160529"><ele>304.0</ele><time>2026-04-05T03:49:04Z</time></trkpt><trkpt lat="-32.044796126771445" lon="116.29602505547463"><ele>304.0</ele><time>2026-04-05T03:49:05Z</time></trkpt><trkpt lat="-32.04493565346995" lon="116.296053631916"><ele>304.0</ele><time>2026-04-05T03:49:06Z</time></trkpt><trkpt lat="-32.04506996613695" lon="116.29607352860761"><ele>304.0</ele><time>2026-04-05T03:49:07Z</time></trkpt><trkpt lat="-32.045220759981035" lon="116.2960902555101"><ele>301.3333333333333</ele><time>2026-04-05T03:49:08Z</time></trkpt><trkpt lat="-32.045368305181455" lon="116.29610258750246"><ele>298.6666666666667</ele><time>2026-04-05T03:49:09Z</time></trkpt><trkpt lat="-32.045515952508275" lon="116.29611961215227"><ele>296.0</ele><time>2026-04-05T03:49:10Z</time></trkpt><trkpt lat="-32.04567367358501" lon="116.29613591236115"><ele>294.33333333333337</ele><time>2026-04-05T03:49:11Z</time></trkpt><trkpt lat="-32.04584533186462" lon="116.29614177845565"><ele>292.6666666666667</ele><time>2026-04-05T03:49:12Z</time></trkpt><trkpt lat="-32.04600428260959" lon="116.2961527606446"><ele>291.0</ele><time>2026-04-05T03:49:13Z</time></trkpt><trkpt lat="-32.04616260110647" lon="116.29617078799478"><ele>291.0</ele><time>2026-04-05T03:49:14Z</time></trkpt><trkpt lat="-32.046326589001225" lon="116.29618757740582"><ele>291.0</ele><time>2026-04-05T03:49:15Z</time></trkpt><trkpt lat="-32.04648713330702" lon="116.29620308308364"><ele>291.0</ele><time>2026-04-05T03:49:16Z</time></trkpt><trkpt lat="-32.04664647798563" lon="116.2962162891718"><ele>290.3333333333333</ele><time>2026-04-05T03:49:17Z</time></trkpt><trkpt lat="-32.04680870976014" lon="116.29622044906054"><ele>289.66666666666663</ele><time>2026-04-05T03:49:18Z</time></trkpt><trkpt lat="-32.04697573002033" lon="116.2962135981293"><ele>289.0</ele><time>2026-04-05T03:49:19Z</time></trkpt><trkpt lat="-32.04716843706499" lon="116.2962193862685"><ele>289.0</ele><time>2026-04-05T03:49:20Z</time></trkpt><trkpt lat="-32.04735574190692" lon="116.29622945395082"><ele>289.0</ele><time>2026-04-05T03:49:21Z</time></trkpt><trkpt lat="-32.047529894563404" lon="116.29625080719579"><ele>289.0</ele><time>2026-04-05T03:49:22Z</time></trkpt><trkpt lat="-32.047718424753114" lon="116.29626731319419"><ele>287.3333333333333</ele><time>2026-04-05T03:49:23Z</time></trkpt><trkpt lat="-32.047907841229645" lon="116.29628393031744"><ele>285.6666666666667</ele><time>2026-04-05T03:49:24Z</time></trkpt><trkpt lat="-32.048070799502675" lon="116.29630114685241"><ele>284.0</ele><time>2026-04-05T03:49:25Z</time></trkpt><trkpt lat="-32.04820627134288" lon="116.29631252486314"><ele>283.75</ele><time>2026-04-05T03:49:26Z</time></trkpt><trkpt lat="-32.04833803970802" lon="116.2963220152685"><ele>283.5</ele><time>2026-04-05T03:49:27Z</time></trkpt><trkpt lat="-32.048454580334415" lon="116.29633362095332"><ele>283.25</ele><time>2026-04-05T03:49:28Z</time></trkpt><trkpt lat="-32.04856145055487" lon="116.29634147665246"><ele>283.0</ele><time>2026-04-05T03:49:29Z</time></trkpt><trkpt lat="-32.048655284685495" lon="116.29634281743407"><ele>283.0</ele><time>2026-04-05T03:49:30Z</time></trkpt><trkpt lat="-32.048718980897675" lon="116.29633714052198"><ele>283.0</ele><time>2026-04-05T03:49:31Z</time></trkpt><trkpt lat="-32.048784320379745" lon="116.29633493317037"><ele>283.0</ele><time>2026-04-05T03:49:32Z</time></trkpt><trkpt lat="-32.04885863423052" lon="116.29633444052614"><ele>283.0</ele><time>2026-04-05T03:49:33Z</time></trkpt><trkpt lat="-32.048982973183165" lon="116.29634605099132"><ele>283.0</ele><time>2026-04-05T03:49:35Z</time></trkpt><trkpt lat="-32.049098803142215" lon="116.29634960077898"><ele>283.0</ele><time>2026-04-05T03:49:37Z</time></trkpt><trkpt lat="-32.04920662677934" lon="116.29634311414591"><ele>283.4</ele><time>2026-04-05T03:49:39Z</time></trkpt><trkpt lat="-32.04930766272615" lon="116.2963766652423"><ele>283.8</ele><time>2026-04-05T03:49:41Z</time></trkpt><trkpt lat="-32.049370261937405" lon="116.29640427611056"><ele>284.2</ele><time>2026-04-05T03:49:42Z</time></trkpt><trkpt lat="-32.049441420588366" lon="116.29643179421433"><ele>284.6</ele><time>2026-04-05T03:49:43Z</time></trkpt><trkpt lat="-32.0495409628273" lon="116.29646593841201"><ele>285.0</ele><time>2026-04-05T03:49:44Z</time></trkpt><trkpt lat="-32.04964678051423" lon="116.29649957357766"><ele>286.2</ele><time>2026-04-05T03:49:45Z</time></trkpt><trkpt lat="-32.049741566722425" lon="116.29654298335329"><ele>287.4</ele><time>2026-04-05T03:49:46Z</time></trkpt><trkpt lat="-32.049825832302915" lon="116.2965912714695"><ele>288.6</ele><time>2026-04-05T03:49:47Z</time></trkpt><trkpt lat="-32.04990872893713" lon="116.29664056988769"><ele>289.8</ele><time>2026-04-05T03:49:48Z</time></trkpt><trkpt lat="-32.04999390958472" lon="116.29668702598319"><ele>291.0</ele><time>2026-04-05T03:49:49Z</time></trkpt><trkpt lat="-32.050085363969" lon="116.2967368593507"><ele>291.0</ele><time>2026-04-05T03:49:50Z</time></trkpt><trkpt lat="-32.05017867322294" lon="116.29679972031865"><ele>291.0</ele><time>2026-04-05T03:49:51Z</time></trkpt><trkpt lat="-32.05027278313619" lon="116.29686038778492"><ele>291.0</ele><time>2026-04-05T03:49:52Z</time></trkpt><trkpt lat="-32.0503703080044" lon="116.29692567435855"><ele>291.0</ele><time>2026-04-05T03:49:53Z</time></trkpt><trkpt lat="-32.05046717680374" lon="116.29699485682961"><ele>291.0</ele><time>2026-04-05T03:49:54Z</time></trkpt><trkpt lat="-32.050561019450484" lon="116.2970666857656"><ele>291.0</ele><time>2026-04-05T03:49:55Z</time></trkpt><trkpt lat="-32.05065269489868" lon="116.29713997059423"><ele>291.0</ele><time>2026-04-05T03:49:56Z</time></trkpt><trkpt lat="-32.05074636760484" lon="116.2972204564694"><ele>291.0</ele><time>2026-04-05T03:49:57Z</time></trkpt><trkpt lat="-32.05084133024601" lon="116.29730394285616"><ele>291.0</ele><time>2026-04-05T03:49:58Z</time></trkpt><trkpt lat="-32.050949364124314" lon="116.2973901307366"><ele>291.5</ele><time>2026-04-05T03:49:59Z</time></trkpt><trkpt lat="-32.0510522036264" lon="116.29747530261182"><ele>292.0</ele><time>2026-04-05T03:50:00Z</time></trkpt><trkpt lat="-32.051144468339" lon="116.29755534623551"><ele>292.5</ele><time>2026-04-05T03:50:01Z</time></trkpt><trkpt lat="-32.05124042835104" lon="116.29764346015325"><ele>293.0</ele><time>2026-04-05T03:50:02Z</time></trkpt><trkpt lat="-32.05134115893444" lon="116.29772649365464"><ele>293.0</ele><time>2026-04-05T03:50:03Z</time></trkpt><trkpt lat="-32.051441317836556" lon="116.29781094838337"><ele>293.0</ele><time>2026-04-05T03:50:04Z</time></trkpt><trkpt lat="-32.05153650090501" lon="116.29789190525823"><ele>293.0</ele><time>2026-04-05T03:50:05Z</time></trkpt><trkpt lat="-32.05162093831982" lon="116.29797746622872"><ele>293.0</ele><time>2026-04-05T03:50:06Z</time></trkpt><trkpt lat="-32.05170854471434" lon="116.29807195447425"><ele>293.8</ele><time>2026-04-05T03:50:07Z</time></trkpt><trkpt lat="-32.05179537621542" lon="116.29817066178705"><ele>294.6</ele><time>2026-04-05T03:50:08Z</time></trkpt><trkpt lat="-32.05187115981547" lon="116.2982587495986"><ele>295.4</ele><time>2026-04-05T03:50:09Z</time></trkpt><trkpt lat="-32.05193344163172" lon="116.29832946850328"><ele>296.2</ele><time>2026-04-05T03:50:10Z</time></trkpt><trkpt lat="-32.051976756881196" lon="116.29839016254462"><ele>297.0</ele><time>2026-04-05T03:50:11Z</time></trkpt><trkpt lat="-32.05200601886293" lon="116.29853038315343"><ele>297.0</ele><time>2026-04-05T03:50:13Z</time></trkpt><trkpt lat="-32.05199636904303" lon="116.29861298714451"><ele>297.0</ele><time>2026-04-05T03:50:15Z</time></trkpt><trkpt lat="-32.05197162318017" lon="116.29869342205104"><ele>297.0</ele><time>2026-04-05T03:50:19Z</time></trkpt><trkpt lat="-32.05197206270497" lon="116.29882242047785"><ele>297.0</ele><time>2026-04-05T03:50:24Z</time></trkpt><trkpt lat="-32.051947785736836" lon="116.29897245747192"><ele>297.0</ele><time>2026-04-05T03:50:26Z</time></trkpt><trkpt lat="-32.051932627966956" lon="116.29906852326337"><ele>296.8</ele><time>2026-04-05T03:50:27Z</time></trkpt><trkpt lat="-32.051921577171534" lon="116.29917408582084"><ele>296.6</ele><time>2026-04-05T03:50:28Z</time></trkpt><trkpt lat="-32.051905541486576" lon="116.29928544328624"><ele>296.40000000000003</ele><time>2026-04-05T03:50:29Z</time></trkpt><trkpt lat="-32.05187812702442" lon="116.29940190940765"><ele>296.2</ele><time>2026-04-05T03:50:30Z</time></trkpt><trkpt lat="-32.05183941467245" lon="116.29953264189913"><ele>296.0</ele><time>2026-04-05T03:50:31Z</time></trkpt><trkpt lat="-32.05179982689941" lon="116.29968484542633"><ele>297.25</ele><time>2026-04-05T03:50:32Z</time></trkpt><trkpt lat="-32.05177668280634" lon="116.29982295917499"><ele>298.5</ele><time>2026-04-05T03:50:33Z</time></trkpt><trkpt lat="-32.05175718723249" lon="116.29998067772311"><ele>299.75</ele><time>2026-04-05T03:50:34Z</time></trkpt><trkpt lat="-32.051732860673724" lon="116.30014686806506"><ele>301.0</ele><time>2026-04-05T03:50:35Z</time></trkpt><trkpt lat="-32.051702432081115" lon="116.30028198926271"><ele>301.0</ele><time>2026-04-05T03:50:36Z</time></trkpt><trkpt lat="-32.05167667435658" lon="116.30041965105521"><ele>301.0</ele><time>2026-04-05T03:50:37Z</time></trkpt><trkpt lat="-32.05165407309993" lon="116.30058550212031"><ele>301.0</ele><time>2026-04-05T03:50:38Z</time></trkpt><trkpt lat="-32.05163696810278" lon="116.30077804454592"><ele>301.0</ele><time>2026-04-05T03:50:39Z</time></trkpt><trkpt lat="-32.051612663848616" lon="116.30098000864915"><ele>303.75</ele><time>2026-04-05T03:50:40Z</time></trkpt><trkpt lat="-32.05159029608021" lon="116.30115155061875"><ele>306.5</ele><time>2026-04-05T03:50:41Z</time></trkpt><trkpt lat="-32.0515682935358" lon="116.30132026813165"><ele>309.25</ele><time>2026-04-05T03:50:42Z</time></trkpt><trkpt lat="-32.05153823758554" lon="116.30148687607945"><ele>312.0</ele><time>2026-04-05T03:50:43Z</time></trkpt><trkpt lat="-32.05149956250327" lon="116.30165155956364"><ele>312.6666666666667</ele><time>2026-04-05T03:50:44Z</time></trkpt><trkpt lat="-32.05145490148966" lon="116.30184030009403"><ele>313.33333333333337</ele><time>2026-04-05T03:50:45Z</time></trkpt><trkpt lat="-32.05142088956079" lon="116.30202506681555"><ele>314.0</ele><time>2026-04-05T03:50:46Z</time></trkpt><trkpt lat="-32.051390637886534" lon="116.3022077046249"><ele>313.5</ele><time>2026-04-05T03:50:47Z</time></trkpt><trkpt lat="-32.05137109055158" lon="116.30238219555027"><ele>313.0</ele><time>2026-04-05T03:50:48Z</time></trkpt><trkpt lat="-32.051348268788956" lon="116.30255459146821"><ele>312.5</ele><time>2026-04-05T03:50:49Z</time></trkpt><trkpt lat="-32.05132257041672" lon="116.30270190772579"><ele>312.0</ele><time>2026-04-05T03:50:50Z</time></trkpt><trkpt lat="-32.05128964778433" lon="116.30285890333215"><ele>312.0</ele><time>2026-04-05T03:50:51Z</time></trkpt><trkpt lat="-32.05124853122995" lon="116.30302923272588"><ele>312.0</ele><time>2026-04-05T03:50:52Z</time></trkpt><trkpt lat="-32.051190484861955" lon="116.30321541506143"><ele>312.0</ele><time>2026-04-05T03:50:53Z</time></trkpt><trkpt lat="-32.05111996997231" lon="116.30341756811433"><ele>312.5</ele><time>2026-04-05T03:50:54Z</time></trkpt><trkpt lat="-32.05104943095361" lon="116.30365056283765"><ele>313.0</ele><time>2026-04-05T03:50:55Z</time></trkpt><trkpt lat="-32.050968336133884" lon="116.3039209736406"><ele>313.5</ele><time>2026-04-05T03:50:56Z</time></trkpt><trkpt lat="-32.05089074466683" lon="116.30419550840712"><ele>314.0</ele><time>2026-04-05T03:50:57Z</time></trkpt><trkpt lat="-32.050822308193816" lon="116.30442432977279"><ele>316.0</ele><time>2026-04-05T03:50:58Z</time></trkpt><trkpt lat="-32.050772182428545" lon="116.30463915808356"><ele>318.0</ele><time>2026-04-05T03:50:59Z</time></trkpt><trkpt lat="-32.050724962639784" lon="116.30486926269892"><ele>320.0</ele><time>2026-04-05T03:51:00Z</time></trkpt><trkpt lat="-32.050683706485536" lon="116.3050876375039"><ele>320.0</ele><time>2026-04-05T03:51:01Z</time></trkpt><trkpt lat="-32.05064895415532" lon="116.30529368391069"><ele>320.0</ele><time>2026-04-05T03:51:02Z</time></trkpt><trkpt lat="-32.050617180144954" lon="116.30549483806371"><ele>320.0</ele><time>2026-04-05T03:51:03Z</time></trkpt><trkpt lat="-32.050598076834696" lon="116.30569008941791"><ele>320.0</ele><time>2026-04-05T03:51:04Z</time></trkpt><trkpt lat="-32.05057820905322" lon="116.30589540874827"><ele>320.0</ele><time>2026-04-05T03:51:05Z</time></trkpt><trkpt lat="-32.0505638830022" lon="116.30607979016693"><ele>320.0</ele><time>2026-04-05T03:51:06Z</time></trkpt><trkpt lat="-32.05055573802335" lon="116.30624498254176"><ele>320.0</ele><time>2026-04-05T03:51:07Z</time></trkpt><trkpt lat="-32.050546100753536" lon="116.3064015744594"><ele>320.0</ele><time>2026-04-05T03:51:08Z</time></trkpt><trkpt lat="-32.05053000178325" lon="116.30656574843543"><ele>320.0</ele><time>2026-04-05T03:51:09Z</time></trkpt><trkpt lat="-32.05049694314485" lon="116.30673414499407"><ele>320.0</ele><time>2026-04-05T03:51:10Z</time></trkpt><trkpt lat="-32.05045116400173" lon="116.30691457520204"><ele>320.0</ele><time>2026-04-05T03:51:11Z</time></trkpt><trkpt lat="-32.05040316597477" lon="116.30710731030051"><ele>320.0</ele><time>2026-04-05T03:51:12Z</time></trkpt><trkpt lat="-32.05036026434232" lon="116.30728334649332"><ele>320.0</ele><time>2026-04-05T03:51:13Z</time></trkpt><trkpt lat="-32.050311868404776" lon="116.3074650071093"><ele>320.0</ele><time>2026-04-05T03:51:14Z</time></trkpt><trkpt lat="-32.05026061010825" lon="116.30763357377127"><ele>320.0</ele><time>2026-04-05T03:51:15Z</time></trkpt><trkpt lat="-32.05021505173051" lon="116.30777962822783"><ele>320.0</ele><time>2026-04-05T03:51:16Z</time></trkpt><trkpt lat="-32.05016935039953" lon="116.30791172621832"><ele>320.0</ele><time>2026-04-05T03:51:17Z</time></trkpt><trkpt lat="-32.05012244640679" lon="116.30803316137178"><ele>319.4</ele><time>2026-04-05T03:51:18Z</time></trkpt><trkpt lat="-32.050079279378934" lon="116.30814765763466"><ele>318.8</ele><time>2026-04-05T03:51:19Z</time></trkpt><trkpt lat="-32.050040943861724" lon="116.30825506746802"><ele>318.2</ele><time>2026-04-05T03:51:20Z</time></trkpt><trkpt lat="-32.05000623598585" lon="116.30834328547785"><ele>317.6</ele><time>2026-04-05T03:51:21Z</time></trkpt><trkpt lat="-32.04995016318449" lon="116.30843806977241"><ele>317.0</ele><time>2026-04-05T03:51:22Z</time></trkpt><trkpt lat="-32.04987664129942" lon="116.3085378385489"><ele>316.25</ele><time>2026-04-05T03:51:23Z</time></trkpt><trkpt lat="-32.04979220393151" lon="116.3086355775088"><ele>315.5</ele><time>2026-04-05T03:51:24Z</time></trkpt><trkpt lat="-32.04971729083566" lon="116.308734497546"><ele>314.75</ele><time>2026-04-05T03:51:25Z</time></trkpt><trkpt lat="-32.04965030610216" lon="116.30883468920923"><ele>314.0</ele><time>2026-04-05T03:51:26Z</time></trkpt><trkpt lat="-32.04957832060298" lon="116.30894526019675"><ele>313.59999999999997</ele><time>2026-04-05T03:51:27Z</time></trkpt><trkpt lat="-32.049512160851855" lon="116.30904094799108"><ele>313.2</ele><time>2026-04-05T03:51:28Z</time></trkpt><trkpt lat="-32.0494562843858" lon="116.30913133714922"><ele>312.79999999999995</ele><time>2026-04-05T03:51:29Z</time></trkpt><trkpt lat="-32.04940586009176" lon="116.30922883935189"><ele>312.4</ele><time>2026-04-05T03:51:30Z</time></trkpt><trkpt lat="-32.0493588258487" lon="116.3093138284644"><ele>312.0</ele><time>2026-04-05T03:51:31Z</time></trkpt><trkpt lat="-32.049306200798206" lon="116.30939490248772"><ele>312.0</ele><time>2026-04-05T03:51:32Z</time></trkpt><trkpt lat="-32.049238545377754" lon="116.30947083071125"><ele>312.0</ele><time>2026-04-05T03:51:33Z</time></trkpt><trkpt lat="-32.04916707771192" lon="116.30954535253919"><ele>312.0</ele><time>2026-04-05T03:51:34Z</time></trkpt><trkpt lat="-32.04910186824564" lon="116.30961845655533"><ele>312.0</ele><time>2026-04-05T03:51:35Z</time></trkpt><trkpt lat="-32.049036934808136" lon="116.30969532523902"><ele>312.0</ele><time>2026-04-05T03:51:36Z</time></trkpt><trkpt lat="-32.04897099170415" lon="116.30975948624089"><ele>309.8</ele><time>2026-04-05T03:51:37Z</time></trkpt><trkpt lat="-32.04889395715848" lon="116.30980272495303"><ele>307.6</ele><time>2026-04-05T03:51:38Z</time></trkpt><trkpt lat="-32.04882026931601" lon="116.30983585074746"><ele>305.40000000000003</ele><time>2026-04-05T03:51:39Z</time></trkpt><trkpt lat="-32.04873075375467" lon="116.30988144778455"><ele>303.2</ele><time>2026-04-05T03:51:40Z</time></trkpt><trkpt lat="-32.048631938505544" lon="116.30996172523953"><ele>301.0</ele><time>2026-04-05T03:51:41Z</time></trkpt><trkpt lat="-32.048536109648204" lon="116.31002657435822"><ele>301.0</ele><time>2026-04-05T03:51:42Z</time></trkpt><trkpt lat="-32.04844241783388" lon="116.31007703793638"><ele>301.0</ele><time>2026-04-05T03:51:43Z</time></trkpt><trkpt lat="-32.048361089312095" lon="116.31012516314874"><ele>301.0</ele><time>2026-04-05T03:51:44Z</time></trkpt><trkpt lat="-32.04828820034498" lon="116.31017195636983"><ele>301.0</ele><time>2026-04-05T03:51:45Z</time></trkpt><trkpt lat="-32.048223341555996" lon="116.31022056539977"><ele>301.0</ele><time>2026-04-05T03:51:46Z</time></trkpt><trkpt lat="-32.04815990174252" lon="116.31026735936749"><ele>301.0</ele><time>2026-04-05T03:51:47Z</time></trkpt><trkpt lat="-32.048084128241264" lon="116.31031688021031"><ele>300.0</ele><time>2026-04-05T03:51:48Z</time></trkpt><trkpt lat="-32.04800226547594" lon="116.31037772715509"><ele>299.0</ele><time>2026-04-05T03:51:49Z</time></trkpt><trkpt lat="-32.04792499810719" lon="116.31044839316992"><ele>298.0</ele><time>2026-04-05T03:51:50Z</time></trkpt><trkpt lat="-32.04786787669657" lon="116.31052988984042"><ele>297.0</ele><time>2026-04-05T03:51:51Z</time></trkpt><trkpt lat="-32.0478048651828" lon="116.31061390587259"><ele>296.0</ele><time>2026-04-05T03:51:52Z</time></trkpt><trkpt lat="-32.04774321074157" lon="116.31069488363146"><ele>294.8</ele><time>2026-04-05T03:51:53Z</time></trkpt><trkpt lat="-32.04767648822319" lon="116.31078624521389"><ele>293.6</ele><time>2026-04-05T03:51:54Z</time></trkpt><trkpt lat="-32.04760576430638" lon="116.31089481540882"><ele>292.4</ele><time>2026-04-05T03:51:55Z</time></trkpt><trkpt lat="-32.04754542200821" lon="116.31100494643233"><ele>291.2</ele><time>2026-04-05T03:51:56Z</time></trkpt><trkpt lat="-32.04747762155808" lon="116.31110679050823"><ele>290.0</ele><time>2026-04-05T03:51:57Z</time></trkpt><trkpt lat="-32.04739559216811" lon="116.31121652451438"><ele>289.25</ele><time>2026-04-05T03:51:58Z</time></trkpt><trkpt lat="-32.047317900713445" lon="116.31131660707781"><ele>288.5</ele><time>2026-04-05T03:51:59Z</time></trkpt><trkpt lat="-32.04723108676151" lon="116.31141908975977"><ele>287.75</ele><time>2026-04-05T03:52:00Z</time></trkpt><trkpt lat="-32.04714201575989" lon="116.31152066019389"><ele>287.0</ele><time>2026-04-05T03:52:01Z</time></trkpt><trkpt lat="-32.04705292894384" lon="116.31163727892722"><ele>285.5</ele><time>2026-04-05T03:52:02Z</time></trkpt><trkpt lat="-32.0469531631222" lon="116.31176504401745"><ele>284.0</ele><time>2026-04-05T03:52:03Z</time></trkpt><trkpt lat="-32.04686262098096" lon="116.31187769739795"><ele>282.5</ele><time>2026-04-05T03:52:04Z</time></trkpt><trkpt lat="-32.04678371278324" lon="116.31196816185381"><ele>281.0</ele><time>2026-04-05T03:52:05Z</time></trkpt><trkpt lat="-32.046709764859436" lon="116.31204892989463"><ele>280.6</ele><time>2026-04-05T03:52:06Z</time></trkpt><trkpt lat="-32.04662577904269" lon="116.31214515497787"><ele>280.20000000000005</ele><time>2026-04-05T03:52:07Z</time></trkpt><trkpt lat="-32.04655503081862" lon="116.31225154187567"><ele>279.79999999999995</ele><time>2026-04-05T03:52:08Z</time></trkpt><trkpt lat="-32.046501717865986" lon="116.31236309290463"><ele>279.4</ele><time>2026-04-05T03:52:09Z</time></trkpt><trkpt lat="-32.04645042320377" lon="116.31246582397324"><ele>279.0</ele><time>2026-04-05T03:52:10Z</time></trkpt><trkpt lat="-32.04639910627068" lon="116.3125610626869"><ele>278.2</ele><time>2026-04-05T03:52:11Z</time></trkpt><trkpt lat="-32.046344443801075" lon="116.31264639393818"><ele>277.4</ele><time>2026-04-05T03:52:12Z</time></trkpt><trkpt lat="-32.04626530014666" lon="116.31274249504376"><ele>276.6</ele><time>2026-04-05T03:52:13Z</time></trkpt><trkpt lat="-32.04620100711055" lon="116.31282110765653"><ele>275.8</ele><time>2026-04-05T03:52:14Z</time></trkpt><trkpt lat="-32.046164963989895" lon="116.31290613631612"><ele>275.0</ele><time>2026-04-05T03:52:15Z</time></trkpt><trkpt lat="-32.04613257523461" lon="116.31302334187473"><ele>273.75</ele><time>2026-04-05T03:52:16Z</time></trkpt><trkpt lat="-32.04609979033286" lon="116.31316339059963"><ele>272.5</ele><time>2026-04-05T03:52:17Z</time></trkpt><trkpt lat="-32.04605622051446" lon="116.31329270682686"><ele>271.25</ele><time>2026-04-05T03:52:18Z</time></trkpt><trkpt lat="-32.04600402088839" lon="116.31342805278605"><ele>270.0</ele><time>2026-04-05T03:52:19Z</time></trkpt><trkpt lat="-32.045946832152" lon="116.31356508754688"><ele>270.0</ele><time>2026-04-05T03:52:20Z</time></trkpt><trkpt lat="-32.04589736553723" lon="116.31368616985071"><ele>270.0</ele><time>2026-04-05T03:52:21Z</time></trkpt><trkpt lat="-32.04586125831631" lon="116.31380313799541"><ele>270.0</ele><time>2026-04-05T03:52:22Z</time></trkpt><trkpt lat="-32.045821601035" lon="116.31393024136742"><ele>270.0</ele><time>2026-04-05T03:52:23Z</time></trkpt><trkpt lat="-32.04579098200047" lon="116.31405002524454"><ele>270.0</ele><time>2026-04-05T03:52:24Z</time></trkpt><trkpt lat="-32.04576926417085" lon="116.31416605607384"><ele>269.6</ele><time>2026-04-05T03:52:25Z</time></trkpt><trkpt lat="-32.04574668382098" lon="116.31427257847375"><ele>269.2</ele><time>2026-04-05T03:52:26Z</time></trkpt><trkpt lat="-32.04572057079985" lon="116.31437390094912"><ele>268.8</ele><time>2026-04-05T03:52:27Z</time></trkpt><trkpt lat="-32.045689410782096" lon="116.31447148254387"><ele>268.4</ele><time>2026-04-05T03:52:28Z</time></trkpt><trkpt lat="-32.04565266163032" lon="116.31457715398449"><ele>268.0</ele><time>2026-04-05T03:52:29Z</time></trkpt><trkpt lat="-32.04559065533001" lon="116.31470387810865"><ele>265.25</ele><time>2026-04-05T03:52:30Z</time></trkpt><trkpt lat="-32.04553014485113" lon="116.31482986563681"><ele>262.5</ele><time>2026-04-05T03:52:31Z</time></trkpt><trkpt lat="-32.045470745927396" lon="116.31494319300776"><ele>259.75</ele><time>2026-04-05T03:52:32Z</time></trkpt><trkpt lat="-32.04540754092383" lon="116.31505626622432"><ele>257.0</ele><time>2026-04-05T03:52:33Z</time></trkpt><trkpt lat="-32.04533658519026" lon="116.31516602140883"><ele>257.0</ele><time>2026-04-05T03:52:34Z</time></trkpt><trkpt lat="-32.04526391396862" lon="116.31526446649535"><ele>257.0</ele><time>2026-04-05T03:52:35Z</time></trkpt><trkpt lat="-32.04518842452973" lon="116.31535094661544"><ele>257.0</ele><time>2026-04-05T03:52:36Z</time></trkpt><trkpt lat="-32.04510134505364" lon="116.31543101587086"><ele>257.0</ele><time>2026-04-05T03:52:37Z</time></trkpt><trkpt lat="-32.044994457423655" lon="116.31550679813952"><ele>256.6</ele><time>2026-04-05T03:52:38Z</time></trkpt><trkpt lat="-32.04489771487512" lon="116.31557355944567"><ele>256.2</ele><time>2026-04-05T03:52:39Z</time></trkpt><trkpt lat="-32.04481645808515" lon="116.31563412558843"><ele>255.8</ele><time>2026-04-05T03:52:40Z</time></trkpt><trkpt lat="-32.04474584012467" lon="116.31570185794199"><ele>255.4</ele><time>2026-04-05T03:52:41Z</time></trkpt><trkpt lat="-32.04464704253629" lon="116.31578695714543"><ele>255.0</ele><time>2026-04-05T03:52:42Z</time></trkpt><trkpt lat="-32.04453933993569" lon="116.31586402202855"><ele>255.0</ele><time>2026-04-05T03:52:43Z</time></trkpt><trkpt lat="-32.044443494090174" lon="116.31591421081288"><ele>255.0</ele><time>2026-04-05T03:52:44Z</time></trkpt><trkpt lat="-32.04434852465273" lon="116.31595254465769"><ele>255.0</ele><time>2026-04-05T03:52:45Z</time></trkpt><trkpt lat="-32.044247300719036" lon="116.31598927709204"><ele>255.0</ele><time>2026-04-05T03:52:46Z</time></trkpt><trkpt lat="-32.0441365050732" lon="116.31602001227077"><ele>255.0</ele><time>2026-04-05T03:52:47Z</time></trkpt><trkpt lat="-32.0440157657427" lon="116.31605627884078"><ele>254.8</ele><time>2026-04-05T03:52:48Z</time></trkpt><trkpt lat="-32.04389949568844" lon="116.31609379655467"><ele>254.6</ele><time>2026-04-05T03:52:49Z</time></trkpt><trkpt lat="-32.04380052645264" lon="116.31612388924655"><ele>254.39999999999998</ele><time>2026-04-05T03:52:50Z</time></trkpt><trkpt lat="-32.04369623475477" lon="116.31616016980277"><ele>254.2</ele><time>2026-04-05T03:52:51Z</time></trkpt><trkpt lat="-32.04358874447627" lon="116.31619512960792"><ele>254.0</ele><time>2026-04-05T03:52:52Z</time></trkpt><trkpt lat="-32.04349101155706" lon="116.3162188564844"><ele>254.0</ele><time>2026-04-05T03:52:53Z</time></trkpt><trkpt lat="-32.04338553943856" lon="116.31624447362026"><ele>253.99999999999997</ele><time>2026-04-05T03:52:54Z</time></trkpt><trkpt lat="-32.043279003840894" lon="116.31627211638073"><ele>253.99999999999997</ele><time>2026-04-05T03:52:55Z</time></trkpt><trkpt lat="-32.04318191434634" lon="116.3162987207537"><ele>254.0</ele><time>2026-04-05T03:52:56Z</time></trkpt><trkpt lat="-32.04309128343682" lon="116.31632720675715"><ele>254.0</ele><time>2026-04-05T03:52:57Z</time></trkpt><trkpt lat="-32.04300247905324" lon="116.31636131652061"><ele>254.16666666666669</ele><time>2026-04-05T03:52:58Z</time></trkpt><trkpt lat="-32.04291749267915" lon="116.31639880501551"><ele>254.33333333333334</ele><time>2026-04-05T03:52:59Z</time></trkpt><trkpt lat="-32.042835680722156" lon="116.31644216642741"><ele>254.5</ele><time>2026-04-05T03:53:00Z</time></trkpt><trkpt lat="-32.04275669271949" lon="116.31648478433759"><ele>254.66666666666669</ele><time>2026-04-05T03:53:01Z</time></trkpt><trkpt lat="-32.042681165342806" lon="116.3165305981578"><ele>254.83333333333334</ele><time>2026-04-05T03:53:02Z</time></trkpt><trkpt lat="-32.04260307631599" lon="116.31657747297045"><ele>255.0</ele><time>2026-04-05T03:53:03Z</time></trkpt><trkpt lat="-32.04252989037528" lon="116.31661355720266"><ele>254.33333333333334</ele><time>2026-04-05T03:53:04Z</time></trkpt><trkpt lat="-32.0424425959394" lon="116.31664940272282"><ele>253.66666666666669</ele><time>2026-04-05T03:53:05Z</time></trkpt><trkpt lat="-32.0423582696713" lon="116.3166846119609"><ele>253.0</ele><time>2026-04-05T03:53:06Z</time></trkpt><trkpt lat="-32.042274745111705" lon="116.31671357200291"><ele>252.33333333333334</ele><time>2026-04-05T03:53:07Z</time></trkpt><trkpt lat="-32.042194357969066" lon="116.31673678501744"><ele>251.66666666666669</ele><time>2026-04-05T03:53:08Z</time></trkpt><trkpt lat="-32.0421145449642" lon="116.31676278873093"><ele>251.0</ele><time>2026-04-05T03:53:09Z</time></trkpt><trkpt lat="-32.04203536996583" lon="116.3167889542668"><ele>251.00000000000003</ele><time>2026-04-05T03:53:10Z</time></trkpt><trkpt lat="-32.04195791931191" lon="116.31681499928854"><ele>251.0</ele><time>2026-04-05T03:53:11Z</time></trkpt><trkpt lat="-32.041881514832184" lon="116.31684172919108"><ele>251.0</ele><time>2026-04-05T03:53:12Z</time></trkpt><trkpt lat="-32.04180073801343" lon="116.31687258157281"><ele>251.0</ele><time>2026-04-05T03:53:13Z</time></trkpt><trkpt lat="-32.04173119420727" lon="116.31690249061174"><ele>251.00000000000003</ele><time>2026-04-05T03:53:14Z</time></trkpt><trkpt lat="-32.041661064541714" lon="116.31693356601217"><ele>251.0</ele><time>2026-04-05T03:53:15Z</time></trkpt><trkpt lat="-32.04160022308047" lon="116.31696604387191"><ele>250.83333333333334</ele><time>2026-04-05T03:53:16Z</time></trkpt><trkpt lat="-32.041533950680154" lon="116.3170005596938"><ele>250.66666666666669</ele><time>2026-04-05T03:53:17Z</time></trkpt><trkpt lat="-32.04146212636317" lon="116.31703352165795"><ele>250.5</ele><time>2026-04-05T03:53:18Z</time></trkpt><trkpt lat="-32.041390456506726" lon="116.31707267482324"><ele>250.33333333333331</ele><time>2026-04-05T03:53:19Z</time></trkpt><trkpt lat="-32.041322145870254" lon="116.31712032464782"><ele>250.16666666666666</ele><time>2026-04-05T03:53:20Z</time></trkpt><trkpt lat="-32.04125711860572" lon="116.31718185814216"><ele>250.0</ele><time>2026-04-05T03:53:21Z</time></trkpt><trkpt lat="-32.04119725731738" lon="116.31724110547637"><ele>248.8</ele><time>2026-04-05T03:53:22Z</time></trkpt><trkpt lat="-32.04112775479642" lon="116.31730703044865"><ele>247.6</ele><time>2026-04-05T03:53:23Z</time></trkpt><trkpt lat="-32.041044100501516" lon="116.31738056718072"><ele>246.39999999999998</ele><time>2026-04-05T03:53:24Z</time></trkpt><trkpt lat="-32.04094615948472" lon="116.31745743344563"><ele>245.2</ele><time>2026-04-05T03:53:25Z</time></trkpt><trkpt lat="-32.04084139829636" lon="116.31752997274366"><ele>244.0</ele><time>2026-04-05T03:53:26Z</time></trkpt><trkpt lat="-32.04074466338682" lon="116.31759851830677"><ele>243.83333333333331</ele><time>2026-04-05T03:53:27Z</time></trkpt><trkpt lat="-32.04065712662359" lon="116.31766272949343"><ele>243.66666666666666</ele><time>2026-04-05T03:53:28Z</time></trkpt><trkpt lat="-32.040583840629765" lon="116.3177162534651"><ele>243.5</ele><time>2026-04-05T03:53:29Z</time></trkpt><trkpt lat="-32.04051516127432" lon="116.31776030948463"><ele>243.33333333333331</ele><time>2026-04-05T03:53:30Z</time></trkpt><trkpt lat="-32.040440841644724" lon="116.31783001092924"><ele>243.16666666666666</ele><time>2026-04-05T03:53:32Z</time></trkpt><trkpt lat="-32.040414161341566" lon="116.31792253616136"><ele>243.0</ele><time>2026-04-05T03:53:34Z</time></trkpt><trkpt lat="-32.04046156822414" lon="116.31798814560547"><ele>243.0</ele><time>2026-04-05T03:53:36Z</time></trkpt><trkpt lat="-32.04057391207719" lon="116.31805390831612"><ele>243.0</ele><time>2026-04-05T03:53:38.001Z</time></trkpt><trkpt lat="-32.040654466964796" lon="116.31808619389273"><ele>243.0</ele><time>2026-04-05T03:53:39.001Z</time></trkpt><trkpt lat="-32.04075254265069" lon="116.31813554267028"><ele>243.0</ele><time>2026-04-05T03:53:40.001Z</time></trkpt><trkpt lat="-32.04087269723786" lon="116.31819635880139"><ele>243.0</ele><time>2026-04-05T03:53:41.001Z</time></trkpt><trkpt lat="-32.040997161355165" lon="116.31825908771033"><ele>242.0</ele><time>2026-04-05T03:53:42.001Z</time></trkpt><trkpt lat="-32.04114055382934" lon="116.31834305507292"><ele>241.0</ele><time>2026-04-05T03:53:43.001Z</time></trkpt><trkpt lat="-32.04130700942732" lon="116.31843092269766"><ele>240.0</ele><time>2026-04-05T03:53:44.001Z</time></trkpt><trkpt lat="-32.04147871369729" lon="116.3185166184955"><ele>240.66666666666669</ele><time>2026-04-05T03:53:45.001Z</time></trkpt><trkpt lat="-32.0416365068691" lon="116.31859151468684"><ele>241.33333333333334</ele><time>2026-04-05T03:53:46.001Z</time></trkpt><trkpt lat="-32.04178363206958" lon="116.31866342259244"><ele>242.0</ele><time>2026-04-05T03:53:47.001Z</time></trkpt><trkpt lat="-32.04195921516849" lon="116.31875826915456"><ele>242.0</ele><time>2026-04-05T03:53:48.001Z</time></trkpt><trkpt lat="-32.04215881952656" lon="116.31885690041207"><ele>242.0</ele><time>2026-04-05T03:53:49.001Z</time></trkpt><trkpt lat="-32.04237202947311" lon="116.31897230840998"><ele>241.0</ele><time>2026-04-05T03:53:50.001Z</time></trkpt><trkpt lat="-32.04258005805901" lon="116.31908360181558"><ele>240.0</ele><time>2026-04-05T03:53:51.001Z</time></trkpt><trkpt lat="-32.04278708833374" lon="116.31918605118004"><ele>240.0</ele><time>2026-04-05T03:53:52.001Z</time></trkpt><trkpt lat="-32.04298695901086" lon="116.31928683898757"><ele>240.0</ele><time>2026-04-05T03:53:53.001Z</time></trkpt><trkpt lat="-32.0432049164967" lon="116.31939390821616"><ele>240.0</ele><time>2026-04-05T03:53:54.001Z</time></trkpt><trkpt lat="-32.043393095402266" lon="116.31948723518059"><ele>240.0</ele><time>2026-04-05T03:53:55.001Z</time></trkpt><trkpt lat="-32.043586331613696" lon="116.31957953047065"><ele>240.0</ele><time>2026-04-05T03:53:56.001Z</time></trkpt><trkpt lat="-32.043779412459656" lon="116.31967260943242"><ele>239.66666666666669</ele><time>2026-04-05T03:53:57.001Z</time></trkpt><trkpt lat="-32.043973217007604" lon="116.31977707172494"><ele>239.33333333333334</ele><time>2026-04-05T03:53:58Z</time></trkpt><trkpt lat="-32.0441820430862" lon="116.3198782473747"><ele>239.0</ele><time>2026-04-05T03:53:59Z</time></trkpt><trkpt lat="-32.044381463131366" lon="116.31996635740062"><ele>240.0</ele><time>2026-04-05T03:54:00Z</time></trkpt><trkpt lat="-32.04456570803652" lon="116.32005387668124"><ele>241.0</ele><time>2026-04-05T03:54:01Z</time></trkpt><trkpt lat="-32.04474234914951" lon="116.3201338841879"><ele>242.0</ele><time>2026-04-05T03:54:02Z</time></trkpt><trkpt lat="-32.04492661574562" lon="116.32021137698554"><ele>243.0</ele><time>2026-04-05T03:54:03Z</time></trkpt><trkpt lat="-32.04511649544485" lon="116.32030211334948"><ele>244.0</ele><time>2026-04-05T03:54:04Z</time></trkpt><trkpt lat="-32.045296329945565" lon="116.32039292739243"><ele>245.0</ele><time>2026-04-05T03:54:05Z</time></trkpt><trkpt lat="-32.04549122677512" lon="116.32049194584829"><ele>245.0</ele><time>2026-04-05T03:54:06Z</time></trkpt><trkpt lat="-32.045696457621546" lon="116.32060306149957"><ele>245.0</ele><time>2026-04-05T03:54:07Z</time></trkpt><trkpt lat="-32.04589798605134" lon="116.32072074511584"><ele>246.0</ele><time>2026-04-05T03:54:08Z</time></trkpt><trkpt lat="-32.04609007153933" lon="116.32083208161757"><ele>247.0</ele><time>2026-04-05T03:54:09Z</time></trkpt><trkpt lat="-32.04626099682724" lon="116.32093283610517"><ele>248.0</ele><time>2026-04-05T03:54:10Z</time></trkpt><trkpt lat="-32.04642905863642" lon="116.3210467762242"><ele>248.0</ele><time>2026-04-05T03:54:11Z</time></trkpt><trkpt lat="-32.04659971793237" lon="116.32116892646991"><ele>248.0</ele><time>2026-04-05T03:54:12Z</time></trkpt><trkpt lat="-32.046772774381196" lon="116.32130236552791"><ele>248.0</ele><time>2026-04-05T03:54:13Z</time></trkpt><trkpt lat="-32.04695089035045" lon="116.32144965380044"><ele>248.33333333333334</ele><time>2026-04-05T03:54:14Z</time></trkpt><trkpt lat="-32.047112994718695" lon="116.32159013119355"><ele>248.66666666666669</ele><time>2026-04-05T03:54:15Z</time></trkpt><trkpt lat="-32.0472641525167" lon="116.32171016486318"><ele>249.0</ele><time>2026-04-05T03:54:16Z</time></trkpt><trkpt lat="-32.0474180395568" lon="116.32183675502111"><ele>249.0</ele><time>2026-04-05T03:54:17Z</time></trkpt><trkpt lat="-32.04758071297264" lon="116.32195899565015"><ele>249.0</ele><time>2026-04-05T03:54:18Z</time></trkpt><trkpt lat="-32.047755296597494" lon="116.32207452892169"><ele>249.0</ele><time>2026-04-05T03:54:19Z</time></trkpt><trkpt lat="-32.047931938537744" lon="116.32217396861522"><ele>248.33333333333331</ele><time>2026-04-05T03:54:20Z</time></trkpt><trkpt lat="-32.048123181660436" lon="116.32226844311414"><ele>247.66666666666666</ele><time>2026-04-05T03:54:21Z</time></trkpt><trkpt lat="-32.048324060856466" lon="116.32234999350854"><ele>247.0</ele><time>2026-04-05T03:54:22Z</time></trkpt><trkpt lat="-32.048543796117656" lon="116.32242490373959"><ele>247.0</ele><time>2026-04-05T03:54:23Z</time></trkpt><trkpt lat="-32.04877041566608" lon="116.32249923082276"><ele>247.0</ele><time>2026-04-05T03:54:24Z</time></trkpt><trkpt lat="-32.04900598652596" lon="116.32257112137944"><ele>246.0</ele><time>2026-04-05T03:54:25Z</time></trkpt><trkpt lat="-32.049259782831776" lon="116.32264068848644"><ele>245.0</ele><time>2026-04-05T03:54:26Z</time></trkpt><trkpt lat="-32.04952242246762" lon="116.32270852055412"><ele>245.0</ele><time>2026-04-05T03:54:27Z</time></trkpt><trkpt lat="-32.04975671160321" lon="116.32276179839927"><ele>245.0</ele><time>2026-04-05T03:54:28Z</time></trkpt><trkpt lat="-32.049965795562024" lon="116.32280830673274"><ele>245.33333333333334</ele><time>2026-04-05T03:54:29Z</time></trkpt><trkpt lat="-32.050174751086715" lon="116.32285242582792"><ele>245.66666666666669</ele><time>2026-04-05T03:54:30Z</time></trkpt><trkpt lat="-32.05038918915857" lon="116.3228955451556"><ele>246.0</ele><time>2026-04-05T03:54:31Z</time></trkpt><trkpt lat="-32.05060979320474" lon="116.32294601557943"><ele>245.66666666666669</ele><time>2026-04-05T03:54:32Z</time></trkpt><trkpt lat="-32.05081324098856" lon="116.3229965939565"><ele>245.33333333333334</ele><time>2026-04-05T03:54:33Z</time></trkpt><trkpt lat="-32.05101540148205" lon="116.32304988980664"><ele>245.0</ele><time>2026-04-05T03:54:34Z</time></trkpt><trkpt lat="-32.05121821192183" lon="116.32309918647587"><ele>245.0</ele><time>2026-04-05T03:54:35Z</time></trkpt><trkpt lat="-32.05140691652133" lon="116.3231517748673"><ele>245.0</ele><time>2026-04-05T03:54:36Z</time></trkpt><trkpt lat="-32.05159272731547" lon="116.3232030838047"><ele>245.0</ele><time>2026-04-05T03:54:37Z</time></trkpt><trkpt lat="-32.05177497661114" lon="116.32325282633897"><ele>243.33333333333334</ele><time>2026-04-05T03:54:38Z</time></trkpt><trkpt lat="-32.051951036949056" lon="116.32331106179714"><ele>241.66666666666669</ele><time>2026-04-05T03:54:39Z</time></trkpt><trkpt lat="-32.0521276766575" lon="116.32337723995727"><ele>240.0</ele><time>2026-04-05T03:54:40Z</time></trkpt><trkpt lat="-32.052309325159186" lon="116.32345675232354"><ele>242.33333333333331</ele><time>2026-04-05T03:54:41Z</time></trkpt><trkpt lat="-32.05246554413299" lon="116.32353741534455"><ele>244.66666666666666</ele><time>2026-04-05T03:54:42Z</time></trkpt><trkpt lat="-32.05262565394066" lon="116.32361758861164"><ele>247.0</ele><time>2026-04-05T03:54:43Z</time></trkpt><trkpt lat="-32.05279971850252" lon="116.3237051394312"><ele>247.0</ele><time>2026-04-05T03:54:44Z</time></trkpt><trkpt lat="-32.052972844788684" lon="116.32379047810997"><ele>247.0</ele><time>2026-04-05T03:54:45Z</time></trkpt><trkpt lat="-32.05313785764351" lon="116.32387291021227"><ele>247.0</ele><time>2026-04-05T03:54:46Z</time></trkpt><trkpt lat="-32.053289571800775" lon="116.32395198687074"><ele>246.66666666666666</ele><time>2026-04-05T03:54:47Z</time></trkpt><trkpt lat="-32.053465541605085" lon="116.32406501639949"><ele>246.33333333333331</ele><time>2026-04-05T03:54:48Z</time></trkpt><trkpt lat="-32.05364016370603" lon="116.32419451379877"><ele>246.0</ele><time>2026-04-05T03:54:49Z</time></trkpt><trkpt lat="-32.053825439031684" lon="116.32434320722895"><ele>246.0</ele><time>2026-04-05T03:54:50Z</time></trkpt><trkpt lat="-32.05402220330684" lon="116.32450763050247"><ele>246.0</ele><time>2026-04-05T03:54:51Z</time></trkpt><trkpt lat="-32.05419740414789" lon="116.32465687686629"><ele>245.0</ele><time>2026-04-05T03:54:52Z</time></trkpt><trkpt lat="-32.05433702829018" lon="116.32479304405133"><ele>244.0</ele><time>2026-04-05T03:54:53Z</time></trkpt><trkpt lat="-32.05447711205138" lon="116.32491790714151"><ele>243.0</ele><time>2026-04-05T03:54:54Z</time></trkpt><trkpt lat="-32.05462345281656" lon="116.3250389052114"><ele>243.0</ele><time>2026-04-05T03:54:55Z</time></trkpt><trkpt lat="-32.05478569585745" lon="116.32515801772641"><ele>243.0</ele><time>2026-04-05T03:54:56Z</time></trkpt><trkpt lat="-32.05496795014196" lon="116.3252769266706"><ele>243.0</ele><time>2026-04-05T03:54:57Z</time></trkpt><trkpt lat="-32.05516657585172" lon="116.32539819359786"><ele>242.0</ele><time>2026-04-05T03:54:58Z</time></trkpt><trkpt lat="-32.05537283508697" lon="116.32550953185367"><ele>241.0</ele><time>2026-04-05T03:54:59Z</time></trkpt><trkpt lat="-32.05560676757539" lon="116.32562497471558"><ele>242.5</ele><time>2026-04-05T03:55:00Z</time></trkpt><trkpt lat="-32.055857696349214" lon="116.32574196738952"><ele>244.0</ele><time>2026-04-05T03:55:01Z</time></trkpt><trkpt lat="-32.056088635915" lon="116.32584615915555"><ele>244.0</ele><time>2026-04-05T03:55:02Z</time></trkpt><trkpt lat="-32.05628322442687" lon="116.32594111904753"><ele>244.0</ele><time>2026-04-05T03:55:03Z</time></trkpt><trkpt lat="-32.0564906996755" lon="116.32604124001085"><ele>244.0</ele><time>2026-04-05T03:55:04Z</time></trkpt><trkpt lat="-32.05670463007405" lon="116.32614362768153"><ele>247.0</ele><time>2026-04-05T03:55:05Z</time></trkpt><trkpt lat="-32.05692222303671" lon="116.3262460369494"><ele>250.0</ele><time>2026-04-05T03:55:06Z</time></trkpt><trkpt lat="-32.057130794784406" lon="116.32635030970434"><ele>250.66666666666666</ele><time>2026-04-05T03:55:07Z</time></trkpt><trkpt lat="-32.05732018530122" lon="116.326439789228"><ele>251.33333333333331</ele><time>2026-04-05T03:55:08Z</time></trkpt><trkpt lat="-32.05749598837392" lon="116.32651893920814"><ele>252.0</ele><time>2026-04-05T03:55:09Z</time></trkpt><trkpt lat="-32.05765227843569" lon="116.32658776505978"><ele>252.0</ele><time>2026-04-05T03:55:10Z</time></trkpt><trkpt lat="-32.05781269857135" lon="116.32666798613751"><ele>252.0</ele><time>2026-04-05T03:55:11Z</time></trkpt><trkpt lat="-32.05797164536832" lon="116.32674333539553"><ele>252.0</ele><time>2026-04-05T03:55:12Z</time></trkpt><trkpt lat="-32.05813384226266" lon="116.32681552358761"><ele>253.66666666666669</ele><time>2026-04-05T03:55:13Z</time></trkpt><trkpt lat="-32.058299791955264" lon="116.32687208924776"><ele>255.33333333333334</ele><time>2026-04-05T03:55:14Z</time></trkpt><trkpt lat="-32.05847390157504" lon="116.32691056702737"><ele>257.0</ele><time>2026-04-05T03:55:15Z</time></trkpt><trkpt lat="-32.05866137962921" lon="116.32693247002257"><ele>257.0</ele><time>2026-04-05T03:55:16Z</time></trkpt><trkpt lat="-32.05885670794334" lon="116.32695261752922"><ele>257.0</ele><time>2026-04-05T03:55:17Z</time></trkpt><trkpt lat="-32.05906514655955" lon="116.3269659696999"><ele>257.0</ele><time>2026-04-05T03:55:18Z</time></trkpt><trkpt lat="-32.05926498911489" lon="116.32696689361993"><ele>259.0</ele><time>2026-04-05T03:55:19Z</time></trkpt><trkpt lat="-32.059463631703196" lon="116.32697093575615"><ele>261.0</ele><time>2026-04-05T03:55:20Z</time></trkpt><trkpt lat="-32.05966323241359" lon="116.32698186992998"><ele>263.0</ele><time>2026-04-05T03:55:21Z</time></trkpt><trkpt lat="-32.059869076828164" lon="116.32700840120584"><ele>264.33333333333337</ele><time>2026-04-05T03:55:22Z</time></trkpt><trkpt lat="-32.060074928420384" lon="116.32704112631437"><ele>265.6666666666667</ele><time>2026-04-05T03:55:23Z</time></trkpt><trkpt lat="-32.060280151241926" lon="116.32707700164902"><ele>267.0</ele><time>2026-04-05T03:55:24Z</time></trkpt><trkpt lat="-32.06047523748507" lon="116.3271121915155"><ele>267.0</ele><time>2026-04-05T03:55:25Z</time></trkpt><trkpt lat="-32.060658980039214" lon="116.32714413141024"><ele>267.0</ele><time>2026-04-05T03:55:26Z</time></trkpt><trkpt lat="-32.060824313314114" lon="116.32717448292294"><ele>267.0</ele><time>2026-04-05T03:55:27Z</time></trkpt><trkpt lat="-32.06097990266853" lon="116.32721074714708"><ele>266.25</ele><time>2026-04-05T03:55:28Z</time></trkpt><trkpt lat="-32.061119722894304" lon="116.32724070350818"><ele>265.5</ele><time>2026-04-05T03:55:29Z</time></trkpt><trkpt lat="-32.06125210362268" lon="116.3272677329391"><ele>264.75</ele><time>2026-04-05T03:55:30Z</time></trkpt><trkpt lat="-32.061378418522494" lon="116.32729379912321"><ele>264.0</ele><time>2026-04-05T03:55:31Z</time></trkpt><trkpt lat="-32.0614970112177" lon="116.32731400314896"><ele>264.0</ele><time>2026-04-05T03:55:32Z</time></trkpt><trkpt lat="-32.06160581601974" lon="116.32733105131395"><ele>264.0</ele><time>2026-04-05T03:55:33Z</time></trkpt><trkpt lat="-32.061701608603045" lon="116.32734759784887"><ele>264.0</ele><time>2026-04-05T03:55:34Z</time></trkpt><trkpt lat="-32.06179264311874" lon="116.32736844911565"><ele>264.0</ele><time>2026-04-05T03:55:35Z</time></trkpt><trkpt lat="-32.061885820179214" lon="116.32739352801433"><ele>264.0</ele><time>2026-04-05T03:55:36Z</time></trkpt><trkpt lat="-32.0619883068073" lon="116.32741944094039"><ele>264.59999999999997</ele><time>2026-04-05T03:55:37Z</time></trkpt><trkpt lat="-32.06209498922611" lon="116.32744373868562"><ele>265.2</ele><time>2026-04-05T03:55:38Z</time></trkpt><trkpt lat="-32.062199218832696" lon="116.32746059705822"><ele>265.79999999999995</ele><time>2026-04-05T03:55:39Z</time></trkpt><trkpt lat="-32.06230238468346" lon="116.327474550991"><ele>266.4</ele><time>2026-04-05T03:55:40Z</time></trkpt><trkpt lat="-32.062396442928176" lon="116.32748965597926"><ele>267.0</ele><time>2026-04-05T03:55:41Z</time></trkpt><trkpt lat="-32.06248174546747" lon="116.32750593795265"><ele>267.1666666666667</ele><time>2026-04-05T03:55:42Z</time></trkpt><trkpt lat="-32.0625604965108" lon="116.32752164793561"><ele>267.3333333333333</ele><time>2026-04-05T03:55:43.001Z</time></trkpt><trkpt lat="-32.06266571859322" lon="116.327527432908"><ele>267.5</ele><time>2026-04-05T03:55:45.001Z</time></trkpt><trkpt lat="-32.06273705694894" lon="116.32752505818046"><ele>267.66666666666663</ele><time>2026-04-05T03:55:47.001Z</time></trkpt><trkpt lat="-32.062852148109286" lon="116.32753321040444"><ele>267.8333333333333</ele><time>2026-04-05T03:55:50.001Z</time></trkpt><trkpt lat="-32.06292383949455" lon="116.32751530255997"><ele>268.0</ele><time>2026-04-05T03:55:51.001Z</time></trkpt><trkpt lat="-32.06299704947661" lon="116.32749962072896"><ele>268.0</ele><time>2026-04-05T03:55:52.001Z</time></trkpt><trkpt lat="-32.06308946377581" lon="116.32746964432663"><ele>268.0</ele><time>2026-04-05T03:55:53.001Z</time></trkpt><trkpt lat="-32.06317716606149" lon="116.32743846796235"><ele>268.0</ele><time>2026-04-05T03:55:54.001Z</time></trkpt><trkpt lat="-32.06326927556185" lon="116.32741350793353"><ele>268.0</ele><time>2026-04-05T03:55:55.001Z</time></trkpt><trkpt lat="-32.06337384885536" lon="116.32738983335099"><ele>268.0</ele><time>2026-04-05T03:55:56.001Z</time></trkpt><trkpt lat="-32.06348809743781" lon="116.32735215721758"><ele>268.25</ele><time>2026-04-05T03:55:57.001Z</time></trkpt><trkpt lat="-32.063606120738555" lon="116.32730250503477"><ele>268.5</ele><time>2026-04-05T03:55:58.001Z</time></trkpt><trkpt lat="-32.063722234194124" lon="116.32725617351883"><ele>268.75</ele><time>2026-04-05T03:55:59.001Z</time></trkpt><trkpt lat="-32.06384031080063" lon="116.327209200421"><ele>269.0</ele><time>2026-04-05T03:56:00Z</time></trkpt><trkpt lat="-32.06396775460905" lon="116.32716468842365"><ele>268.33333333333337</ele><time>2026-04-05T03:56:01Z</time></trkpt><trkpt lat="-32.064114678850174" lon="116.32710914718031"><ele>267.6666666666667</ele><time>2026-04-05T03:56:02Z</time></trkpt><trkpt lat="-32.06428002804276" lon="116.32705067338676"><ele>267.0</ele><time>2026-04-05T03:56:03Z</time></trkpt><trkpt lat="-32.064435344965815" lon="116.32700496781439"><ele>267.0</ele><time>2026-04-05T03:56:04Z</time></trkpt><trkpt lat="-32.06458352632008" lon="116.32695614876043"><ele>267.0</ele><time>2026-04-05T03:56:05Z</time></trkpt><trkpt lat="-32.06472289128463" lon="116.32689382796323"><ele>267.0</ele><time>2026-04-05T03:56:06Z</time></trkpt><trkpt lat="-32.06486432825844" lon="116.32681756916344"><ele>265.25</ele><time>2026-04-05T03:56:07Z</time></trkpt><trkpt lat="-32.0649880947699" lon="116.32673131410363"><ele>263.5</ele><time>2026-04-05T03:56:08Z</time></trkpt><trkpt lat="-32.06510678273453" lon="116.326640963634"><ele>261.75</ele><time>2026-04-05T03:56:09Z</time></trkpt><trkpt lat="-32.065219522845744" lon="116.32656387590612"><ele>260.0</ele><time>2026-04-05T03:56:10Z</time></trkpt><trkpt lat="-32.06533461874065" lon="116.32648976127162"><ele>260.0</ele><time>2026-04-05T03:56:11Z</time></trkpt><trkpt lat="-32.06545724573148" lon="116.32640841468884"><ele>260.0</ele><time>2026-04-05T03:56:12Z</time></trkpt><trkpt lat="-32.065583745293786" lon="116.32630486027583"><ele>260.0</ele><time>2026-04-05T03:56:13Z</time></trkpt><trkpt lat="-32.06570546261948" lon="116.32619599069734"><ele>260.0</ele><time>2026-04-05T03:56:14Z</time></trkpt><trkpt lat="-32.06582736042379" lon="116.32609419064246"><ele>258.25</ele><time>2026-04-05T03:56:15Z</time></trkpt><trkpt lat="-32.065952446944706" lon="116.32600500909554"><ele>256.5</ele><time>2026-04-05T03:56:16Z</time></trkpt><trkpt lat="-32.06608277246034" lon="116.32592217242735"><ele>254.75</ele><time>2026-04-05T03:56:17Z</time></trkpt><trkpt lat="-32.06621107103175" lon="116.32585110172221"><ele>253.0</ele><time>2026-04-05T03:56:18Z</time></trkpt><trkpt lat="-32.06635828533905" lon="116.32577962518458"><ele>253.0</ele><time>2026-04-05T03:56:19Z</time></trkpt><trkpt lat="-32.06650446686417" lon="116.32572471736806"><ele>253.0</ele><time>2026-04-05T03:56:20Z</time></trkpt><trkpt lat="-32.06664250788388" lon="116.32566817375367"><ele>253.0</ele><time>2026-04-05T03:56:21Z</time></trkpt><trkpt lat="-32.06677938357164" lon="116.325610226776"><ele>253.0</ele><time>2026-04-05T03:56:22Z</time></trkpt><trkpt lat="-32.06692011081714" lon="116.32555907946553"><ele>250.66666666666666</ele><time>2026-04-05T03:56:23Z</time></trkpt><trkpt lat="-32.067053051846614" lon="116.32549975399662"><ele>248.33333333333331</ele><time>2026-04-05T03:56:24Z</time></trkpt><trkpt lat="-32.06719344151831" lon="116.32543115374642"><ele>246.0</ele><time>2026-04-05T03:56:25Z</time></trkpt><trkpt lat="-32.06733631778813" lon="116.32535544465118"><ele>245.33333333333331</ele><time>2026-04-05T03:56:26Z</time></trkpt><trkpt lat="-32.067473242410976" lon="116.32527277944143"><ele>244.66666666666666</ele><time>2026-04-05T03:56:27Z</time></trkpt><trkpt lat="-32.0676210898307" lon="116.32515976804692"><ele>244.0</ele><time>2026-04-05T03:56:28Z</time></trkpt><trkpt lat="-32.067769195778524" lon="116.32503743802071"><ele>244.0</ele><time>2026-04-05T03:56:29Z</time></trkpt><trkpt lat="-32.067912032607616" lon="116.32493022667093"><ele>244.0</ele><time>2026-04-05T03:56:30Z</time></trkpt><trkpt lat="-32.0680527454295" lon="116.32482958907629"><ele>244.0</ele><time>2026-04-05T03:56:31Z</time></trkpt><trkpt lat="-32.06819393249312" lon="116.32473441618708"><ele>241.66666666666666</ele><time>2026-04-05T03:56:32Z</time></trkpt><trkpt lat="-32.068347437961975" lon="116.32463804142056"><ele>239.33333333333331</ele><time>2026-04-05T03:56:33Z</time></trkpt><trkpt lat="-32.06851111197952" lon="116.32454832070671"><ele>237.0</ele><time>2026-04-05T03:56:34Z</time></trkpt><trkpt lat="-32.068677425024084" lon="116.32446005474247"><ele>237.0</ele><time>2026-04-05T03:56:35Z</time></trkpt><trkpt lat="-32.06885501570423" lon="116.32436323819786"><ele>237.0</ele><time>2026-04-05T03:56:36Z</time></trkpt><trkpt lat="-32.06903039441516" lon="116.32425848972242"><ele>237.0</ele><time>2026-04-05T03:56:37Z</time></trkpt><trkpt lat="-32.06919483713164" lon="116.32414768234354"><ele>236.66666666666669</ele><time>2026-04-05T03:56:38Z</time></trkpt><trkpt lat="-32.069346756628676" lon="116.32403843835888"><ele>236.33333333333334</ele><time>2026-04-05T03:56:39Z</time></trkpt><trkpt lat="-32.069492303607284" lon="116.32393339216709"><ele>236.0</ele><time>2026-04-05T03:56:40Z</time></trkpt><trkpt lat="-32.06963671707381" lon="116.32383297533649"><ele>236.0</ele><time>2026-04-05T03:56:41Z</time></trkpt><trkpt lat="-32.06977367770125" lon="116.32373730233405"><ele>236.0</ele><time>2026-04-05T03:56:42Z</time></trkpt><trkpt lat="-32.06992042157917" lon="116.32363699927267"><ele>236.0</ele><time>2026-04-05T03:56:43Z</time></trkpt><trkpt lat="-32.07006129348881" lon="116.32353879949677"><ele>233.66666666666669</ele><time>2026-04-05T03:56:44Z</time></trkpt><trkpt lat="-32.07018891762402" lon="116.32344662251542"><ele>231.33333333333331</ele><time>2026-04-05T03:56:45Z</time></trkpt><trkpt lat="-32.070321681994194" lon="116.32334941457187"><ele>229.0</ele><time>2026-04-05T03:56:46Z</time></trkpt><trkpt lat="-32.07045005424074" lon="116.32324544033095"><ele>229.0</ele><time>2026-04-05T03:56:47Z</time></trkpt><trkpt lat="-32.070573201351785" lon="116.32314098566775"><ele>229.0</ele><time>2026-04-05T03:56:48Z</time></trkpt><trkpt lat="-32.07069513194695" lon="116.3230284623268"><ele>229.0</ele><time>2026-04-05T03:56:49Z</time></trkpt><trkpt lat="-32.07082185182609" lon="116.3228965044092"><ele>228.0</ele><time>2026-04-05T03:56:50Z</time></trkpt><trkpt lat="-32.07095356363648" lon="116.32274933586285"><ele>227.0</ele><time>2026-04-05T03:56:51Z</time></trkpt><trkpt lat="-32.0710873911429" lon="116.32259350107677"><ele>226.0</ele><time>2026-04-05T03:56:52Z</time></trkpt><trkpt lat="-32.071210062576704" lon="116.3224541054179"><ele>226.0</ele><time>2026-04-05T03:56:53Z</time></trkpt><trkpt lat="-32.071323410082535" lon="116.32231931175835"><ele>226.0</ele><time>2026-04-05T03:56:54Z</time></trkpt><trkpt lat="-32.07143188540837" lon="116.3221780484712"><ele>226.0</ele><time>2026-04-05T03:56:55Z</time></trkpt><trkpt lat="-32.071563818421716" lon="116.32201710282331"><ele>225.33333333333331</ele><time>2026-04-05T03:56:56Z</time></trkpt><trkpt lat="-32.0717214906101" lon="116.32184964957759"><ele>224.66666666666669</ele><time>2026-04-05T03:56:57Z</time></trkpt><trkpt lat="-32.07189565913765" lon="116.32167546562079"><ele>224.0</ele><time>2026-04-05T03:56:58Z</time></trkpt><trkpt lat="-32.072043813619665" lon="116.3215292031732"><ele>226.66666666666669</ele><time>2026-04-05T03:56:59Z</time></trkpt><trkpt lat="-32.07217879780416" lon="116.32139694198128"><ele>229.33333333333331</ele><time>2026-04-05T03:57:00Z</time></trkpt><trkpt lat="-32.07230785073002" lon="116.32127555566363"><ele>232.0</ele><time>2026-04-05T03:57:01Z</time></trkpt><trkpt lat="-32.07243436075705" lon="116.3211673085224"><ele>229.0</ele><time>2026-04-05T03:57:02Z</time></trkpt><trkpt lat="-32.07254863444368" lon="116.32107140405026"><ele>226.0</ele><time>2026-04-05T03:57:03Z</time></trkpt><trkpt lat="-32.0726530063067" lon="116.32097249057874"><ele>223.0</ele><time>2026-04-05T03:57:04Z</time></trkpt><trkpt lat="-32.072742794499476" lon="116.32087124771284"><ele>220.0</ele><time>2026-04-05T03:57:05Z</time></trkpt><trkpt lat="-32.072817870216504" lon="116.32075956133731"><ele>220.0</ele><time>2026-04-05T03:57:06Z</time></trkpt><trkpt lat="-32.07288009078295" lon="116.32061176177578"><ele>220.0</ele><time>2026-04-05T03:57:07Z</time></trkpt><trkpt lat="-32.07293118843999" lon="116.32041433928507"><ele>220.0</ele><time>2026-04-05T03:57:08Z</time></trkpt><trkpt lat="-32.072980880887854" lon="116.32022732212594"><ele>220.2</ele><time>2026-04-05T03:57:09Z</time></trkpt><trkpt lat="-32.07300972339601" lon="116.32006892886311"><ele>220.4</ele><time>2026-04-05T03:57:10Z</time></trkpt><trkpt lat="-32.07303228700948" lon="116.31994701944554"><ele>220.60000000000002</ele><time>2026-04-05T03:57:11Z</time></trkpt><trkpt lat="-32.07304841251918" lon="116.31983687164858"><ele>220.8</ele><time>2026-04-05T03:57:12Z</time></trkpt><trkpt lat="-32.07307199379581" lon="116.31973162715785"><ele>221.0</ele><time>2026-04-05T03:57:13Z</time></trkpt><trkpt lat="-32.07312120357494" lon="116.31961988383308"><ele>221.0</ele><time>2026-04-05T03:57:14Z</time></trkpt><trkpt lat="-32.07319469424529" lon="116.31950652748672"><ele>221.0</ele><time>2026-04-05T03:57:15Z</time></trkpt><trkpt lat="-32.07328551747727" lon="116.31940420730194"><ele>221.0</ele><time>2026-04-05T03:57:16Z</time></trkpt><trkpt lat="-32.07338841490624" lon="116.31931921646684"><ele>221.0</ele><time>2026-04-05T03:57:17Z</time></trkpt><trkpt lat="-32.073500563357115" lon="116.3192535309737"><ele>219.5</ele><time>2026-04-05T03:57:18Z</time></trkpt><trkpt lat="-32.07361075168054" lon="116.31921758314674"><ele>218.0</ele><time>2026-04-05T03:57:19Z</time></trkpt><trkpt lat="-32.0737198900746" lon="116.31920134057724"><ele>216.5</ele><time>2026-04-05T03:57:20Z</time></trkpt><trkpt lat="-32.07384552849579" lon="116.31919710732082"><ele>215.0</ele><time>2026-04-05T03:57:21Z</time></trkpt><trkpt lat="-32.0739755684362" lon="116.31920287198595"><ele>212.5</ele><time>2026-04-05T03:57:22Z</time></trkpt><trkpt lat="-32.074106997524765" lon="116.31921621311491"><ele>210.0</ele><time>2026-04-05T03:57:23Z</time></trkpt><trkpt lat="-32.074250295610405" lon="116.31922523991614"><ele>207.5</ele><time>2026-04-05T03:57:24Z</time></trkpt><trkpt lat="-32.07438526536253" lon="116.31922024341796"><ele>205.0</ele><time>2026-04-05T03:57:25Z</time></trkpt><trkpt lat="-32.07450442268785" lon="116.31919847194251"><ele>205.0</ele><time>2026-04-05T03:57:26Z</time></trkpt><trkpt lat="-32.074621170164995" lon="116.31915956009034"><ele>205.0</ele><time>2026-04-05T03:57:27Z</time></trkpt><trkpt lat="-32.0747173298636" lon="116.31910100274163"><ele>205.0</ele><time>2026-04-05T03:57:28Z</time></trkpt><trkpt lat="-32.074820044747405" lon="116.31903201535741"><ele>205.0</ele><time>2026-04-05T03:57:29Z</time></trkpt><trkpt lat="-32.074946927772174" lon="116.31895567050165"><ele>205.75</ele><time>2026-04-05T03:57:30Z</time></trkpt><trkpt lat="-32.07507547548581" lon="116.31887447124527"><ele>206.5</ele><time>2026-04-05T03:57:31Z</time></trkpt><trkpt lat="-32.07519759661551" lon="116.31879928841748"><ele>207.25</ele><time>2026-04-05T03:57:32Z</time></trkpt><trkpt lat="-32.075310781714784" lon="116.31873542974446"><ele>208.0</ele><time>2026-04-05T03:57:33Z</time></trkpt><trkpt lat="-32.075414979915486" lon="116.31868194021091"><ele>208.0</ele><time>2026-04-05T03:57:34Z</time></trkpt><trkpt lat="-32.07551361396505" lon="116.31862710781097"><ele>208.0</ele><time>2026-04-05T03:57:35Z</time></trkpt><trkpt lat="-32.0756102169288" lon="116.318581034078"><ele>208.0</ele><time>2026-04-05T03:57:36Z</time></trkpt><trkpt lat="-32.075708441207844" lon="116.31854653703746"><ele>208.0</ele><time>2026-04-05T03:57:37Z</time></trkpt><trkpt lat="-32.07581423046158" lon="116.31852612199437"><ele>208.0</ele><time>2026-04-05T03:57:38Z</time></trkpt><trkpt lat="-32.075942449563705" lon="116.3185076822189"><ele>206.0</ele><time>2026-04-05T03:57:39Z</time></trkpt><trkpt lat="-32.076093917572905" lon="116.31848186564588"><ele>204.0</ele><time>2026-04-05T03:57:40Z</time></trkpt><trkpt lat="-32.076238512717694" lon="116.31845942659561"><ele>202.0</ele><time>2026-04-05T03:57:41Z</time></trkpt><trkpt lat="-32.07635723246864" lon="116.31844291342853"><ele>200.0</ele><time>2026-04-05T03:57:42Z</time></trkpt><trkpt lat="-32.07646134061427" lon="116.31843932525558"><ele>200.0</ele><time>2026-04-05T03:57:43Z</time></trkpt><trkpt lat="-32.076561297648716" lon="116.31843469591313"><ele>200.0</ele><time>2026-04-05T03:57:44Z</time></trkpt><trkpt lat="-32.07665407994321" lon="116.31843122402059"><ele>200.0</ele><time>2026-04-05T03:57:45Z</time></trkpt><trkpt lat="-32.07674852070515" lon="116.31842605193889"><ele>200.0</ele><time>2026-04-05T03:57:46Z</time></trkpt><trkpt lat="-32.076841277271406" lon="116.31842002282819"><ele>200.0</ele><time>2026-04-05T03:57:47Z</time></trkpt><trkpt lat="-32.07693448387806" lon="116.31841365875384"><ele>199.66666666666669</ele><time>2026-04-05T03:57:48Z</time></trkpt><trkpt lat="-32.07702374179703" lon="116.31840658675272"><ele>199.33333333333334</ele><time>2026-04-05T03:57:49.001Z</time></trkpt><trkpt lat="-32.07710838326417" lon="116.31840311868406"><ele>199.0</ele><time>2026-04-05T03:57:50.001Z</time></trkpt><trkpt lat="-32.077192935230386" lon="116.31840019924252"><ele>198.66666666666669</ele><time>2026-04-05T03:57:51.001Z</time></trkpt><trkpt lat="-32.077271066350036" lon="116.3183996022765"><ele>198.33333333333334</ele><time>2026-04-05T03:57:52.001Z</time></trkpt><trkpt lat="-32.07736053901228" lon="116.31839621625817"><ele>198.0</ele><time>2026-04-05T03:57:53.001Z</time></trkpt><trkpt lat="-32.07745872635947" lon="116.31838903654415"><ele>196.75</ele><time>2026-04-05T03:57:54.001Z</time></trkpt><trkpt lat="-32.07757830164056" lon="116.31837806435198"><ele>195.5</ele><time>2026-04-05T03:57:55.001Z</time></trkpt><trkpt lat="-32.077724618225496" lon="116.31837202542873"><ele>194.25</ele><time>2026-04-05T03:57:56.001Z</time></trkpt><trkpt lat="-32.0778835835454" lon="116.31835724042124"><ele>193.0</ele><time>2026-04-05T03:57:57.001Z</time></trkpt><trkpt lat="-32.07804792543086" lon="116.31835191774853"><ele>193.0</ele><time>2026-04-05T03:57:58.001Z</time></trkpt><trkpt lat="-32.07823034967242" lon="116.31833641270183"><ele>193.0</ele><time>2026-04-05T03:57:59.001Z</time></trkpt><trkpt lat="-32.0783978613633" lon="116.31832727207357"><ele>193.0</ele><time>2026-04-05T03:58:00.001Z</time></trkpt><trkpt lat="-32.078545495734396" lon="116.31832668607127"><ele>193.0</ele><time>2026-04-05T03:58:01.001Z</time></trkpt><trkpt lat="-32.07869207079769" lon="116.31834094561854"><ele>193.0</ele><time>2026-04-05T03:58:02.001Z</time></trkpt><trkpt lat="-32.07885475882621" lon="116.31837285762575"><ele>193.0</ele><time>2026-04-05T03:58:03.001Z</time></trkpt><trkpt lat="-32.07901978065626" lon="116.318422100553"><ele>194.33333333333331</ele><time>2026-04-05T03:58:04.001Z</time></trkpt><trkpt lat="-32.0791943713814" lon="116.31848997793978"><ele>195.66666666666669</ele><time>2026-04-05T03:58:05.001Z</time></trkpt><trkpt lat="-32.07937627133125" lon="116.3185728846652"><ele>197.0</ele><time>2026-04-05T03:58:06.001Z</time></trkpt><trkpt lat="-32.0795606010474" lon="116.31867157199933"><ele>197.0</ele><time>2026-04-05T03:58:07.001Z</time></trkpt><trkpt lat="-32.079756241887885" lon="116.31878501487576"><ele>197.0</ele><time>2026-04-05T03:58:08Z</time></trkpt><trkpt lat="-32.079940721043265" lon="116.3188905084164"><ele>197.0</ele><time>2026-04-05T03:58:09Z</time></trkpt><trkpt lat="-32.08010606226026" lon="116.31898332477104"><ele>195.0</ele><time>2026-04-05T03:58:10Z</time></trkpt><trkpt lat="-32.080260557295375" lon="116.3190664853093"><ele>193.0</ele><time>2026-04-05T03:58:11Z</time></trkpt><trkpt lat="-32.08040845181754" lon="116.31914807549744"><ele>191.0</ele><time>2026-04-05T03:58:12Z</time></trkpt><trkpt lat="-32.08056184085" lon="116.31922922755986"><ele>191.0</ele><time>2026-04-05T03:58:13Z</time></trkpt><trkpt lat="-32.08072811938038" lon="116.31931776410998"><ele>191.0</ele><time>2026-04-05T03:58:14Z</time></trkpt><trkpt lat="-32.08089829481322" lon="116.31940230189608"><ele>191.0</ele><time>2026-04-05T03:58:15Z</time></trkpt><trkpt lat="-32.081064819709546" lon="116.31946929164535"><ele>189.66666666666666</ele><time>2026-04-05T03:58:16Z</time></trkpt><trkpt lat="-32.08122971792076" lon="116.31951488220727"><ele>188.33333333333334</ele><time>2026-04-05T03:58:17Z</time></trkpt><trkpt lat="-32.08139440906622" lon="116.3195277084136"><ele>187.0</ele><time>2026-04-05T03:58:18Z</time></trkpt><trkpt lat="-32.081559493397975" lon="116.31951313071113"><ele>187.66666666666669</ele><time>2026-04-05T03:58:19Z</time></trkpt><trkpt lat="-32.081726070885644" lon="116.31947827835353"><ele>188.33333333333334</ele><time>2026-04-05T03:58:20Z</time></trkpt><trkpt lat="-32.081897406235576" lon="116.31943284621157"><ele>189.0</ele><time>2026-04-05T03:58:21Z</time></trkpt><trkpt lat="-32.08209265362734" lon="116.31936886194104"><ele>189.0</ele><time>2026-04-05T03:58:22Z</time></trkpt><trkpt lat="-32.08230786826235" lon="116.31930103852778"><ele>189.0</ele><time>2026-04-05T03:58:23Z</time></trkpt><trkpt lat="-32.0824994882914" lon="116.31924899555486"><ele>189.0</ele><time>2026-04-05T03:58:24Z</time></trkpt><trkpt lat="-32.08266173876992" lon="116.31921314068505"><ele>188.79999999999998</ele><time>2026-04-05T03:58:25Z</time></trkpt><trkpt lat="-32.082790240237685" lon="116.31918825982588"><ele>188.6</ele><time>2026-04-05T03:58:26Z</time></trkpt><trkpt lat="-32.08290383194318" lon="116.31917193418957"><ele>188.4</ele><time>2026-04-05T03:58:27Z</time></trkpt><trkpt lat="-32.083009188787024" lon="116.31916199275015"><ele>188.2</ele><time>2026-04-05T03:58:28Z</time></trkpt><trkpt lat="-32.08310429207638" lon="116.31916183490179"><ele>188.0</ele><time>2026-04-05T03:58:29Z</time></trkpt><trkpt lat="-32.083168380951015" lon="116.31916571196963"><ele>188.0</ele><time>2026-04-05T03:58:30Z</time></trkpt><trkpt lat="-32.08325716765404" lon="116.31917952237356"><ele>188.0</ele><time>2026-04-05T03:58:33Z</time></trkpt><trkpt lat="-32.08332205688964" lon="116.31917525569409"><ele>188.0</ele><time>2026-04-05T03:58:35Z</time></trkpt><trkpt lat="-32.08346247345181" lon="116.31919967705048"><ele>188.0</ele><time>2026-04-05T03:58:37Z</time></trkpt><trkpt lat="-32.08356106987521" lon="116.31923112253268"><ele>188.0</ele><time>2026-04-05T03:58:38Z</time></trkpt><trkpt lat="-32.08367840647296" lon="116.31927841144392"><ele>187.4</ele><time>2026-04-05T03:58:39Z</time></trkpt><trkpt lat="-32.08379780805508" lon="116.31933081518467"><ele>186.8</ele><time>2026-04-05T03:58:40Z</time></trkpt><trkpt lat="-32.08390063984021" lon="116.31937983497632"><ele>186.2</ele><time>2026-04-05T03:58:41Z</time></trkpt><trkpt lat="-32.083997279877664" lon="116.31942782773937"><ele>185.6</ele><time>2026-04-05T03:58:42Z</time></trkpt><trkpt lat="-32.08408607257147" lon="116.31947332544367"><ele>185.0</ele><time>2026-04-05T03:58:43Z</time></trkpt><trkpt lat="-32.08419280052464" lon="116.31952868499859"><ele>184.75</ele><time>2026-04-05T03:58:44Z</time></trkpt><trkpt lat="-32.08431420065412" lon="116.31959763309406"><ele>184.5</ele><time>2026-04-05T03:58:45Z</time></trkpt><trkpt lat="-32.08443861465856" lon="116.31968159695317"><ele>184.25</ele><time>2026-04-05T03:58:46Z</time></trkpt><trkpt lat="-32.08455253202637" lon="116.31976833770034"><ele>184.0</ele><time>2026-04-05T03:58:47Z</time></trkpt><trkpt lat="-32.08466009894345" lon="116.31984911249775"><ele>182.5</ele><time>2026-04-05T03:58:48Z</time></trkpt><trkpt lat="-32.08477576985185" lon="116.31991213001687"><ele>181.0</ele><time>2026-04-05T03:58:49Z</time></trkpt><trkpt lat="-32.08490228730967" lon="116.31996220886694"><ele>179.5</ele><time>2026-04-05T03:58:50Z</time></trkpt><trkpt lat="-32.08504370475644" lon="116.31999246828605"><ele>178.0</ele><time>2026-04-05T03:58:51Z</time></trkpt><trkpt lat="-32.085187903105734" lon="116.32000843085054"><ele>177.25</ele><time>2026-04-05T03:58:52Z</time></trkpt><trkpt lat="-32.085322683470764" lon="116.32001771154466"><ele>176.5</ele><time>2026-04-05T03:58:53Z</time></trkpt><trkpt lat="-32.08546267001456" lon="116.32002587171448"><ele>175.75</ele><time>2026-04-05T03:58:54Z</time></trkpt><trkpt lat="-32.08561333502121" lon="116.3200216058775"><ele>175.0</ele><time>2026-04-05T03:58:55Z</time></trkpt><trkpt lat="-32.085773152913234" lon="116.32000593651932"><ele>174.5</ele><time>2026-04-05T03:58:56Z</time></trkpt><trkpt lat="-32.0859171293849" lon="116.31998239633566"><ele>174.0</ele><time>2026-04-05T03:58:57Z</time></trkpt><trkpt lat="-32.08606035615768" lon="116.31994732605399"><ele>173.5</ele><time>2026-04-05T03:58:58Z</time></trkpt><trkpt lat="-32.08620268175939" lon="116.31990149790605"><ele>173.0</ele><time>2026-04-05T03:58:59Z</time></trkpt><trkpt lat="-32.08633927213697" lon="116.31985100876447"><ele>173.0</ele><time>2026-04-05T03:59:00Z</time></trkpt><trkpt lat="-32.0864629263224" lon="116.31980493446153"><ele>173.0</ele><time>2026-04-05T03:59:01Z</time></trkpt><trkpt lat="-32.086570240564676" lon="116.31977251693431"><ele>173.0</ele><time>2026-04-05T03:59:02Z</time></trkpt><trkpt lat="-32.08666877781172" lon="116.31975959992285"><ele>173.0</ele><time>2026-04-05T03:59:03Z</time></trkpt><trkpt lat="-32.08675046399449" lon="116.31976740192765"><ele>173.0</ele><time>2026-04-05T03:59:04Z</time></trkpt><trkpt lat="-32.086856996000805" lon="116.31982090071445"><ele>173.2</ele><time>2026-04-05T03:59:06Z</time></trkpt><trkpt lat="-32.08690223162229" lon="116.31993643645673"><ele>173.4</ele><time>2026-04-05T03:59:08Z</time></trkpt><trkpt lat="-32.086912183483484" lon="116.32001327248634"><ele>173.6</ele><time>2026-04-05T03:59:09Z</time></trkpt><trkpt lat="-32.08691618170496" lon="116.32011430783862"><ele>173.79999999999998</ele><time>2026-04-05T03:59:10Z</time></trkpt><trkpt lat="-32.08692098751401" lon="116.32023300504243"><ele>174.0</ele><time>2026-04-05T03:59:11Z</time></trkpt><trkpt lat="-32.08692544164814" lon="116.32038322627321"><ele>173.66666666666666</ele><time>2026-04-05T03:59:12Z</time></trkpt><trkpt lat="-32.08692876459593" lon="116.32057504113307"><ele>173.33333333333331</ele><time>2026-04-05T03:59:13Z</time></trkpt><trkpt lat="-32.08692837045634" lon="116.32080137381517"><ele>173.0</ele><time>2026-04-05T03:59:14Z</time></trkpt><trkpt lat="-32.086926013965375" lon="116.32107061277225"><ele>173.0</ele><time>2026-04-05T03:59:15Z</time></trkpt><trkpt lat="-32.08691935856262" lon="116.32139077082118"><ele>173.0</ele><time>2026-04-05T03:59:16Z</time></trkpt><trkpt lat="-32.086911585620065" lon="116.32167836221521"><ele>174.0</ele><time>2026-04-05T03:59:17Z</time></trkpt><trkpt lat="-32.086898930082505" lon="116.32192345272681"><ele>175.0</ele><time>2026-04-05T03:59:18Z</time></trkpt><trkpt lat="-32.08688624683087" lon="116.32214325714357"><ele>176.0</ele><time>2026-04-05T03:59:19Z</time></trkpt><trkpt lat="-32.086871011877314" lon="116.32231502187632"><ele>176.0</ele><time>2026-04-05T03:59:20Z</time></trkpt><trkpt lat="-32.08687070898171" lon="116.32243659743733"><ele>176.0</ele><time>2026-04-05T03:59:21Z</time></trkpt><trkpt lat="-32.086865974281636" lon="116.3225844849351"><ele>176.0</ele><time>2026-04-05T03:59:22Z</time></trkpt><trkpt lat="-32.08685753382367" lon="116.32273952785117"><ele>176.0</ele><time>2026-04-05T03:59:23Z</time></trkpt><trkpt lat="-32.0868641694546" lon="116.32293702421919"><ele>175.66666666666666</ele><time>2026-04-05T03:59:24Z</time></trkpt><trkpt lat="-32.08689419092192" lon="116.32315205630226"><ele>175.33333333333334</ele><time>2026-04-05T03:59:25Z</time></trkpt><trkpt lat="-32.08692643547999" lon="116.32333065367258"><ele>175.0</ele><time>2026-04-05T03:59:26Z</time></trkpt><trkpt lat="-32.08696364492392" lon="116.323490738043"><ele>175.0</ele><time>2026-04-05T03:59:27Z</time></trkpt><trkpt lat="-32.087010889366404" lon="116.32364321831291"><ele>175.0</ele><time>2026-04-05T03:59:28Z</time></trkpt><trkpt lat="-32.08708432303123" lon="116.32379783350152"><ele>175.0</ele><time>2026-04-05T03:59:29Z</time></trkpt><trkpt lat="-32.087177187479284" lon="116.32396647616861"><ele>175.0</ele><time>2026-04-05T03:59:30Z</time></trkpt><trkpt lat="-32.087286389892384" lon="116.32411620399111"><ele>175.0</ele><time>2026-04-05T03:59:31Z</time></trkpt><trkpt lat="-32.087409773264824" lon="116.3242377842799"><ele>175.0</ele><time>2026-04-05T03:59:32Z</time></trkpt><trkpt lat="-32.08756558490637" lon="116.32438265648867"><ele>175.0</ele><time>2026-04-05T03:59:33Z</time></trkpt><trkpt lat="-32.087749731197995" lon="116.3245620145782"><ele>175.0</ele><time>2026-04-05T03:59:34Z</time></trkpt><trkpt lat="-32.087939608189174" lon="116.32473254132925"><ele>175.33333333333334</ele><time>2026-04-05T03:59:35Z</time></trkpt><trkpt lat="-32.08809301399218" lon="116.32487582081379"><ele>175.66666666666666</ele><time>2026-04-05T03:59:36Z</time></trkpt><trkpt lat="-32.08823815847621" lon="116.32499247178973"><ele>176.0</ele><time>2026-04-05T03:59:37Z</time></trkpt><trkpt lat="-32.088373722993786" lon="116.3250962731235"><ele>176.0</ele><time>2026-04-05T03:59:38Z</time></trkpt><trkpt lat="-32.088491058887705" lon="116.32518632843369"><ele>176.0</ele><time>2026-04-05T03:59:39Z</time></trkpt><trkpt lat="-32.08858751209017" lon="116.32526913505777"><ele>176.0</ele><time>2026-04-05T03:59:40Z</time></trkpt><trkpt lat="-32.088665170080375" lon="116.32534248868957"><ele>176.0</ele><time>2026-04-05T03:59:41Z</time></trkpt><trkpt lat="-32.08872672936879" lon="116.32541381125499"><ele>176.0</ele><time>2026-04-05T03:59:42Z</time></trkpt><trkpt lat="-32.0887774640341" lon="116.3255200419247"><ele>176.75</ele><time>2026-04-05T03:59:43Z</time></trkpt><trkpt lat="-32.088816450154226" lon="116.32564516294315"><ele>177.5</ele><time>2026-04-05T03:59:44Z</time></trkpt><trkpt lat="-32.088828402483536" lon="116.32579942218354"><ele>178.25</ele><time>2026-04-05T03:59:45Z</time></trkpt><trkpt lat="-32.08882756805252" lon="116.3259434921725"><ele>179.0</ele><time>2026-04-05T03:59:46Z</time></trkpt><trkpt lat="-32.088809146186534" lon="116.3260742505884"><ele>179.0</ele><time>2026-04-05T03:59:47Z</time></trkpt><trkpt lat="-32.08878529549396" lon="116.32618940586367"><ele>179.0</ele><time>2026-04-05T03:59:48Z</time></trkpt><trkpt lat="-32.08875135657508" lon="116.32632184099883"><ele>179.0</ele><time>2026-04-05T03:59:49Z</time></trkpt><trkpt lat="-32.08871761100167" lon="116.32646560475055"><ele>179.0</ele><time>2026-04-05T03:59:50Z</time></trkpt><trkpt lat="-32.088691975609834" lon="116.32665072916608"><ele>180.33333333333331</ele><time>2026-04-05T03:59:51Z</time></trkpt><trkpt lat="-32.08866581530323" lon="116.3268793264797"><ele>181.66666666666666</ele><time>2026-04-05T03:59:52Z</time></trkpt><trkpt lat="-32.088649578814675" lon="116.32712862034231"><ele>183.0</ele><time>2026-04-05T03:59:53Z</time></trkpt><trkpt lat="-32.08864690951803" lon="116.3273471924379"><ele>185.33333333333334</ele><time>2026-04-05T03:59:54Z</time></trkpt><trkpt lat="-32.08865625659223" lon="116.32756292755961"><ele>187.66666666666669</ele><time>2026-04-05T03:59:55.001Z</time></trkpt><trkpt lat="-32.088673407054785" lon="116.32778028045736"><ele>190.0</ele><time>2026-04-05T03:59:56.001Z</time></trkpt><trkpt lat="-32.08868387124982" lon="116.32798527477578"><ele>193.25</ele><time>2026-04-05T03:59:57.001Z</time></trkpt><trkpt lat="-32.088678371324455" lon="116.32817394633669"><ele>196.5</ele><time>2026-04-05T03:59:58.001Z</time></trkpt><trkpt lat="-32.08867321889532" lon="116.32834691717156"><ele>199.75</ele><time>2026-04-05T03:59:59.001Z</time></trkpt><trkpt lat="-32.08866317262562" lon="116.32848517993409"><ele>203.0</ele><time>2026-04-05T04:00:00.001Z</time></trkpt><trkpt lat="-32.088655410061236" lon="116.32858837057401"><ele>203.0</ele><time>2026-04-05T04:00:01.001Z</time></trkpt><trkpt lat="-32.08864580630185" lon="116.328689596583"><ele>203.0</ele><time>2026-04-05T04:00:02Z</time></trkpt><trkpt lat="-32.08862551579248" lon="116.32879768215396"><ele>203.0</ele><time>2026-04-05T04:00:03Z</time></trkpt><trkpt lat="-32.08858652721876" lon="116.32890706306169"><ele>203.0</ele><time>2026-04-05T04:00:04Z</time></trkpt><trkpt lat="-32.08854380345269" lon="116.32900821186301"><ele>203.0</ele><time>2026-04-05T04:00:05Z</time></trkpt><trkpt lat="-32.088495478444116" lon="116.329098778718"><ele>203.0</ele><time>2026-04-05T04:00:06Z</time></trkpt><trkpt lat="-32.08843379040815" lon="116.32919347045711"><ele>203.0</ele><time>2026-04-05T04:00:07Z</time></trkpt><trkpt lat="-32.08835957914184" lon="116.32932916127771"><ele>203.0</ele><time>2026-04-05T04:00:08Z</time></trkpt><trkpt lat="-32.08829478849267" lon="116.32945034443148"><ele>203.0</ele><time>2026-04-05T04:00:09Z</time></trkpt><trkpt lat="-32.08825529064503" lon="116.32954173034348"><ele>203.0</ele><time>2026-04-05T04:00:10Z</time></trkpt><trkpt lat="-32.088213473980176" lon="116.32962436926701"><ele>205.00000000000003</ele><time>2026-04-05T04:00:11Z</time></trkpt><trkpt lat="-32.08817041445683" lon="116.3296817522906"><ele>207.0</ele><time>2026-04-05T04:00:12Z</time></trkpt><trkpt lat="-32.08813161632685" lon="116.32974243088714"><ele>209.0</ele><time>2026-04-05T04:00:13Z</time></trkpt><trkpt lat="-32.08807569608584" lon="116.32980555356484"><ele>211.0</ele><time>2026-04-05T04:00:14Z</time></trkpt><trkpt lat="-32.08800223703325" lon="116.32986072170333"><ele>213.00000000000003</ele><time>2026-04-05T04:00:15Z</time></trkpt><trkpt lat="-32.08792699457458" lon="116.32995150802603"><ele>215.0</ele><time>2026-04-05T04:00:16Z</time></trkpt><trkpt lat="-32.08787082600547" lon="116.33003498266083"><ele>215.0</ele><time>2026-04-05T04:00:17Z</time></trkpt><trkpt lat="-32.08781998932356" lon="116.33010907156323"><ele>215.0</ele><time>2026-04-05T04:00:18Z</time></trkpt><trkpt lat="-32.08774558468596" lon="116.33022206471851"><ele>215.0</ele><time>2026-04-05T04:00:19Z</time></trkpt><trkpt lat="-32.08766689173233" lon="116.33034867273865"><ele>215.0</ele><time>2026-04-05T04:00:20Z</time></trkpt><trkpt lat="-32.08759095844275" lon="116.33045879569447"><ele>213.33333333333334</ele><time>2026-04-05T04:00:21Z</time></trkpt><trkpt lat="-32.087494920551194" lon="116.33057161566734"><ele>211.66666666666669</ele><time>2026-04-05T04:00:22Z</time></trkpt><trkpt lat="-32.08737252129444" lon="116.33068847390874"><ele>210.0</ele><time>2026-04-05T04:00:23Z</time></trkpt><trkpt lat="-32.08724722337589" lon="116.33080834729202"><ele>210.0</ele><time>2026-04-05T04:00:24Z</time></trkpt><trkpt lat="-32.087148423188346" lon="116.33092671750153"><ele>210.0</ele><time>2026-04-05T04:00:25Z</time></trkpt><trkpt lat="-32.08707782899201" lon="116.33104555392705"><ele>210.0</ele><time>2026-04-05T04:00:26Z</time></trkpt><trkpt lat="-32.08700950518438" lon="116.3311601322014"><ele>210.0</ele><time>2026-04-05T04:00:26.999Z</time></trkpt><trkpt lat="-32.08696504471808" lon="116.33127167394707"><ele>208.5</ele><time>2026-04-05T04:00:27.999Z</time></trkpt><trkpt lat="-32.08693476948638" lon="116.33139594472577"><ele>207.0</ele><time>2026-04-05T04:00:28.999Z</time></trkpt><trkpt lat="-32.08691475021957" lon="116.33150676006798"><ele>205.5</ele><time>2026-04-05T04:00:29.999Z</time></trkpt><trkpt lat="-32.086886631455485" lon="116.33160436048063"><ele>204.0</ele><time>2026-04-05T04:00:30.999Z</time></trkpt><trkpt lat="-32.08685867539428" lon="116.33168688622118"><ele>202.5</ele><time>2026-04-05T04:00:31.999Z</time></trkpt><trkpt lat="-32.0868206829333" lon="116.33175918492745"><ele>201.0</ele><time>2026-04-05T04:00:32.999Z</time></trkpt><trkpt lat="-32.086776644566946" lon="116.3318363115826"><ele>201.0</ele><time>2026-04-05T04:00:33.999Z</time></trkpt><trkpt lat="-32.086711926021884" lon="116.33191949849841"><ele>201.0</ele><time>2026-04-05T04:00:34.999Z</time></trkpt><trkpt lat="-32.08663008665337" lon="116.33202756120204"><ele>201.0</ele><time>2026-04-05T04:00:35.999Z</time></trkpt><trkpt lat="-32.08654255208825" lon="116.33214272685713"><ele>201.0</ele><time>2026-04-05T04:00:36.999Z</time></trkpt><trkpt lat="-32.086462396149386" lon="116.33225855340042"><ele>200.83333333333334</ele><time>2026-04-05T04:00:37.999Z</time></trkpt><trkpt lat="-32.08639306986601" lon="116.33235261427733"><ele>200.66666666666669</ele><time>2026-04-05T04:00:38.999Z</time></trkpt><trkpt lat="-32.08632980462511" lon="116.33242547865441"><ele>200.5</ele><time>2026-04-05T04:00:39.999Z</time></trkpt><trkpt lat="-32.08629969325636" lon="116.33249711839784"><ele>200.33333333333334</ele><time>2026-04-05T04:00:40.999Z</time></trkpt><trkpt lat="-32.08630539517543" lon="116.33257283805668"><ele>200.16666666666669</ele><time>2026-04-05T04:00:41.999Z</time></trkpt><trkpt lat="-32.086298475276884" lon="116.33266697829977"><ele>200.0</ele><time>2026-04-05T04:00:42.999Z</time></trkpt><trkpt lat="-32.08628274221953" lon="116.33278515560485"><ele>200.0</ele><time>2026-04-05T04:00:43.999Z</time></trkpt><trkpt lat="-32.08628867417689" lon="116.3329050494057"><ele>200.0</ele><time>2026-04-05T04:00:44.999Z</time></trkpt><trkpt lat="-32.08630400174502" lon="116.33303457734382"><ele>200.0</ele><time>2026-04-05T04:00:45.999Z</time></trkpt><trkpt lat="-32.08633050480344" lon="116.33317127497794"><ele>200.0</ele><time>2026-04-05T04:00:46.999Z</time></trkpt><trkpt lat="-32.08638264059508" lon="116.33330831634672"><ele>198.66666666666669</ele><time>2026-04-05T04:00:47.999Z</time></trkpt><trkpt lat="-32.086467936074456" lon="116.33349408793474"><ele>197.33333333333331</ele><time>2026-04-05T04:00:48.999Z</time></trkpt><trkpt lat="-32.086527558144425" lon="116.3336704941897"><ele>196.0</ele><time>2026-04-05T04:00:49.999Z</time></trkpt><trkpt lat="-32.08658710654841" lon="116.33382940211635"><ele>195.25</ele><time>2026-04-05T04:00:50.999Z</time></trkpt><trkpt lat="-32.08664773387471" lon="116.33397778303248"><ele>194.5</ele><time>2026-04-05T04:00:51.999Z</time></trkpt><trkpt lat="-32.086703464351096" lon="116.33411755006829"><ele>193.75</ele><time>2026-04-05T04:00:52.999Z</time></trkpt><trkpt lat="-32.086761089597715" lon="116.33423795634639"><ele>193.0</ele><time>2026-04-05T04:00:53.999Z</time></trkpt><trkpt lat="-32.08683315808109" lon="116.3343622670006"><ele>193.0</ele><time>2026-04-05T04:00:54.999Z</time></trkpt><trkpt lat="-32.08691573288021" lon="116.334496159423"><ele>193.0</ele><time>2026-04-05T04:00:55.999Z</time></trkpt><trkpt lat="-32.086994885390695" lon="116.33462492698727"><ele>193.0</ele><time>2026-04-05T04:00:56.999Z</time></trkpt><trkpt lat="-32.08706814711562" lon="116.33473910764005"><ele>193.0</ele><time>2026-04-05T04:00:57.999Z</time></trkpt><trkpt lat="-32.087135759086514" lon="116.33483928217842"><ele>192.60000000000002</ele><time>2026-04-05T04:00:58.999Z</time></trkpt><trkpt lat="-32.087200091625974" lon="116.3349198497089"><ele>192.20000000000002</ele><time>2026-04-05T04:00:59.999Z</time></trkpt><trkpt lat="-32.087265474001995" lon="116.3349896969648"><ele>191.8</ele><time>2026-04-05T04:01:00.999Z</time></trkpt><trkpt lat="-32.087326934102514" lon="116.33504676590367"><ele>191.4</ele><time>2026-04-05T04:01:01.999Z</time></trkpt><trkpt lat="-32.087408872467385" lon="116.33511926057942"><ele>191.0</ele><time>2026-04-05T04:01:02.999Z</time></trkpt><trkpt lat="-32.08750195205171" lon="116.33517696113144"><ele>190.16666666666666</ele><time>2026-04-05T04:01:03.999Z</time></trkpt><trkpt lat="-32.08758232022032" lon="116.3352110723934"><ele>189.33333333333331</ele><time>2026-04-05T04:01:04.999Z</time></trkpt><trkpt lat="-32.0876736682538" lon="116.3352330227309"><ele>188.5</ele><time>2026-04-05T04:01:06.999Z</time></trkpt><trkpt lat="-32.087741403594706" lon="116.33525665555172"><ele>187.66666666666666</ele><time>2026-04-05T04:01:40.999Z</time></trkpt><trkpt lat="-32.087814225115636" lon="116.33531168682605"><ele>186.83333333333334</ele><time>2026-04-05T04:01:43.999Z</time></trkpt><trkpt lat="-32.08788019693511" lon="116.33536554838763"><ele>186.0</ele><time>2026-04-05T04:01:45.999Z</time></trkpt><trkpt lat="-32.087930446215054" lon="116.33541372979201"><ele>186.0</ele><time>2026-04-05T04:01:46.999Z</time></trkpt><trkpt lat="-32.08798925531749" lon="116.33546773744382"><ele>186.0</ele><time>2026-04-05T04:01:47.999Z</time></trkpt><trkpt lat="-32.08804391581153" lon="116.33552200900435"><ele>186.0</ele><time>2026-04-05T04:01:48.999Z</time></trkpt><trkpt lat="-32.088121317067824" lon="116.33561021311219"><ele>186.0</ele><time>2026-04-05T04:01:50.999Z</time></trkpt><trkpt lat="-32.08820027469906" lon="116.33566435522862"><ele>186.0</ele><time>2026-04-05T04:01:52.999Z</time></trkpt><trkpt lat="-32.0882464607591" lon="116.33571712676031"><ele>186.0</ele><time>2026-04-05T04:01:56.999Z</time></trkpt><trkpt lat="-32.08818344365594" lon="116.3357109386072"><ele>186.0</ele><time>2026-04-05T04:01:59.999Z</time></trkpt><trkpt lat="-32.088115937888645" lon="116.33560427651767"><ele>186.0</ele><time>2026-04-05T04:02:01.999Z</time></trkpt><trkpt lat="-32.08805842747993" lon="116.33551943047323"><ele>186.0</ele><time>2026-04-05T04:02:03.999Z</time></trkpt><trkpt lat="-32.08800030668726" lon="116.3354738721072"><ele>186.0</ele><time>2026-04-05T04:02:04.999Z</time></trkpt><trkpt lat="-32.08792708025323" lon="116.33541505624488"><ele>186.0</ele><time>2026-04-05T04:02:06Z</time></trkpt><trkpt lat="-32.08782781994009" lon="116.33534044377079"><ele>186.0</ele><time>2026-04-05T04:02:07Z</time></trkpt><trkpt lat="-32.08771884915509" lon="116.33527589286761"><ele>186.0</ele><time>2026-04-05T04:02:08Z</time></trkpt><trkpt lat="-32.0876024874857" lon="116.33521980119026"><ele>186.0</ele><time>2026-04-05T04:02:09Z</time></trkpt><trkpt lat="-32.087483037790435" lon="116.33515514313859"><ele>186.0</ele><time>2026-04-05T04:02:10Z</time></trkpt><trkpt lat="-32.08737331834292" lon="116.33509221735035"><ele>187.25</ele><time>2026-04-05T04:02:11Z</time></trkpt><trkpt lat="-32.08727863031056" lon="116.33500351066661"><ele>188.5</ele><time>2026-04-05T04:02:12Z</time></trkpt><trkpt lat="-32.0871914404979" lon="116.33489884371174"><ele>189.75</ele><time>2026-04-05T04:02:13Z</time></trkpt><trkpt lat="-32.08710977838919" lon="116.33478712902978"><ele>191.0</ele><time>2026-04-05T04:02:14Z</time></trkpt><trkpt lat="-32.087010895328504" lon="116.33466627107892"><ele>191.4</ele><time>2026-04-05T04:02:15Z</time></trkpt><trkpt lat="-32.08693089121552" lon="116.33452918705065"><ele>191.8</ele><time>2026-04-05T04:02:16Z</time></trkpt><trkpt lat="-32.086876665241114" lon="116.33442194553537"><ele>192.20000000000002</ele><time>2026-04-05T04:02:17Z</time></trkpt><trkpt lat="-32.08683556805019" lon="116.3343508926941"><ele>192.60000000000002</ele><time>2026-04-05T04:02:18Z</time></trkpt><trkpt lat="-32.086773256852936" lon="116.3342557359659"><ele>193.0</ele><time>2026-04-05T04:02:20Z</time></trkpt><trkpt lat="-32.08682424559334" lon="116.33420017626678"><ele>193.0</ele><time>2026-04-05T04:02:23Z</time></trkpt><trkpt lat="-32.08689199003656" lon="116.3342291374652"><ele>193.0</ele><time>2026-04-05T04:02:25Z</time></trkpt><trkpt lat="-32.08689905224827" lon="116.33431633748138"><ele>193.0</ele><time>2026-04-05T04:02:27Z</time></trkpt><trkpt lat="-32.08686486224661" lon="116.33440346077326"><ele>193.0</ele><time>2026-04-05T04:02:29Z</time></trkpt><trkpt lat="-32.086931646061196" lon="116.33453428509821"><ele>193.0</ele><time>2026-04-05T04:02:32Z</time></trkpt><trkpt lat="-32.08699273228171" lon="116.33463350367116"><ele>192.5</ele><time>2026-04-05T04:02:33Z</time></trkpt><trkpt lat="-32.08706671909035" lon="116.334751809917"><ele>192.0</ele><time>2026-04-05T04:02:34Z</time></trkpt><trkpt lat="-32.087139375984215" lon="116.33485336299461"><ele>191.5</ele><time>2026-04-05T04:02:35Z</time></trkpt><trkpt lat="-32.0872232307535" lon="116.33494178144088"><ele>191.0</ele><time>2026-04-05T04:02:36Z</time></trkpt><trkpt lat="-32.08731521846721" lon="116.33503287748383"><ele>191.0</ele><time>2026-04-05T04:02:37Z</time></trkpt><trkpt lat="-32.0874150042894" lon="116.33512744334033"><ele>191.0</ele><time>2026-04-05T04:02:38Z</time></trkpt><trkpt lat="-32.087521799566844" lon="116.33520358395359"><ele>191.0</ele><time>2026-04-05T04:02:39Z</time></trkpt><trkpt lat="-32.08762974701633" lon="116.33524906663405"><ele>191.0</ele><time>2026-04-05T04:02:40Z</time></trkpt><trkpt lat="-32.08774571694494" lon="116.33529112363114"><ele>190.20000000000002</ele><time>2026-04-05T04:02:41Z</time></trkpt><trkpt lat="-32.08784680056531" lon="116.33534486443205"><ele>189.4</ele><time>2026-04-05T04:02:42Z</time></trkpt><trkpt lat="-32.08793474852118" lon="116.33540809387759"><ele>188.6</ele><time>2026-04-05T04:02:43Z</time></trkpt><trkpt lat="-32.08800817026221" lon="116.33547681135961"><ele>187.8</ele><time>2026-04-05T04:02:44Z</time></trkpt><trkpt lat="-32.088066278857546" lon="116.33554598807889"><ele>187.0</ele><time>2026-04-05T04:02:45Z</time></trkpt><trkpt lat="-32.0881230232424" lon="116.335604363415"><ele>187.0</ele><time>2026-04-05T04:02:46Z</time></trkpt><trkpt lat="-32.08821689204793" lon="116.33568053574464"><ele>187.0</ele><time>2026-04-05T04:02:48Z</time></trkpt><trkpt lat="-32.08813107181023" lon="116.33566838472481"><ele>187.0</ele><time>2026-04-05T04:02:55Z</time></trkpt><trkpt lat="-32.088084967347584" lon="116.33557319255459"><ele>187.0</ele><time>2026-04-05T04:02:56Z</time></trkpt><trkpt lat="-32.08802267544887" lon="116.33549288488668"><ele>187.0</ele><time>2026-04-05T04:02:57Z</time></trkpt><trkpt lat="-32.08793207898159" lon="116.33541966267289"><ele>186.66666666666669</ele><time>2026-04-05T04:02:58Z</time></trkpt><trkpt lat="-32.0878110195248" lon="116.33533352709344"><ele>186.33333333333334</ele><time>2026-04-05T04:02:59Z</time></trkpt><trkpt lat="-32.08768118408907" lon="116.33525290860834"><ele>186.0</ele><time>2026-04-05T04:03:00Z</time></trkpt><trkpt lat="-32.08752494144682" lon="116.33517976533999"><ele>187.25</ele><time>2026-04-05T04:03:01Z</time></trkpt><trkpt lat="-32.08738933124778" lon="116.33510298399734"><ele>188.5</ele><time>2026-04-05T04:03:02Z</time></trkpt><trkpt lat="-32.08727072701895" lon="116.33501260468935"><ele>189.75</ele><time>2026-04-05T04:03:03Z</time></trkpt><trkpt lat="-32.087183581859" lon="116.33490573420046"><ele>191.0</ele><time>2026-04-05T04:03:04Z</time></trkpt><trkpt lat="-32.08709254707233" lon="116.33478451830233"><ele>191.66666666666666</ele><time>2026-04-05T04:03:05Z</time></trkpt><trkpt lat="-32.08699778526686" lon="116.33465530633207"><ele>192.33333333333331</ele><time>2026-04-05T04:03:06Z</time></trkpt><trkpt lat="-32.08690519052003" lon="116.33448796397867"><ele>193.0</ele><time>2026-04-05T04:03:07Z</time></trkpt><trkpt lat="-32.08680963603898" lon="116.3343146586042"><ele>193.0</ele><time>2026-04-05T04:03:08Z</time></trkpt><trkpt lat="-32.086732901509926" lon="116.33417267443947"><ele>193.0</ele><time>2026-04-05T04:03:09Z</time></trkpt><trkpt lat="-32.08666967769491" lon="116.33403623985417"><ele>193.0</ele><time>2026-04-05T04:03:10Z</time></trkpt><trkpt lat="-32.08661550710746" lon="116.33391196548315"><ele>193.0</ele><time>2026-04-05T04:03:11Z</time></trkpt><trkpt lat="-32.086578930531175" lon="116.33379855209594"><ele>192.99999999999997</ele><time>2026-04-05T04:03:12Z</time></trkpt><trkpt lat="-32.08654529709227" lon="116.33368780756705"><ele>193.0</ele><time>2026-04-05T04:03:13Z</time></trkpt><trkpt lat="-32.086501810221016" lon="116.33359757138425"><ele>193.0</ele><time>2026-04-05T04:03:15Z</time></trkpt><trkpt lat="-32.086566566582036" lon="116.33367700365304"><ele>193.0</ele><time>2026-04-05T04:03:26Z</time></trkpt><trkpt lat="-32.086570395552805" lon="116.33376953240524"><ele>192.99999999999997</ele><time>2026-04-05T04:03:27Z</time></trkpt><trkpt lat="-32.08659298648452" lon="116.33385513799014"><ele>193.0</ele><time>2026-04-05T04:03:28Z</time></trkpt><trkpt lat="-32.08663196393871" lon="116.33394924876691"><ele>193.0</ele><time>2026-04-05T04:03:29Z</time></trkpt><trkpt lat="-32.08667390475068" lon="116.33405475136026"><ele>193.0</ele><time>2026-04-05T04:03:30Z</time></trkpt><trkpt lat="-32.086719630965234" lon="116.33417721680402"><ele>193.0</ele><time>2026-04-05T04:03:31Z</time></trkpt><trkpt lat="-32.08678186991756" lon="116.33430005537798"><ele>193.0</ele><time>2026-04-05T04:03:32Z</time></trkpt><trkpt lat="-32.08687191377352" lon="116.33444729704318"><ele>193.0</ele><time>2026-04-05T04:03:33Z</time></trkpt><trkpt lat="-32.086966296598106" lon="116.33458806793602"><ele>193.0</ele><time>2026-04-05T04:03:34Z</time></trkpt><trkpt lat="-32.087041550845406" lon="116.33471294519161"><ele>193.0</ele><time>2026-04-05T04:03:35Z</time></trkpt><trkpt lat="-32.08711441098017" lon="116.3348283514204"><ele>193.0</ele><time>2026-04-05T04:03:36Z</time></trkpt><trkpt lat="-32.0871870850289" lon="116.33492478336667"><ele>192.60000000000002</ele><time>2026-04-05T04:03:37Z</time></trkpt><trkpt lat="-32.0872587239986" lon="116.33498660712421"><ele>192.20000000000002</ele><time>2026-04-05T04:03:38Z</time></trkpt><trkpt lat="-32.08734599671099" lon="116.33505848814652"><ele>191.8</ele><time>2026-04-05T04:03:39Z</time></trkpt><trkpt lat="-32.087444635579715" lon="116.33514683491393"><ele>191.4</ele><time>2026-04-05T04:03:40Z</time></trkpt><trkpt lat="-32.087545514653456" lon="116.33520746112531"><ele>191.0</ele><time>2026-04-05T04:03:41Z</time></trkpt><trkpt lat="-32.08763352773071" lon="116.33523535593211"><ele>190.16666666666666</ele><time>2026-04-05T04:03:42Z</time></trkpt><trkpt lat="-32.08769680106474" lon="116.33526106751127"><ele>189.33333333333331</ele><time>2026-04-05T04:03:43Z</time></trkpt><trkpt lat="-32.0877597307832" lon="116.33527485496656"><ele>188.5</ele><time>2026-04-05T04:03:46Z</time></trkpt><trkpt lat="-32.08782626584142" lon="116.3353302158197"><ele>187.66666666666666</ele><time>2026-04-05T04:07:09Z</time></trkpt><trkpt lat="-32.08793090820781" lon="116.33541382684383"><ele>186.83333333333334</ele><time>2026-04-05T04:07:11Z</time></trkpt><trkpt lat="-32.08799178911924" lon="116.33547057620022"><ele>186.0</ele><time>2026-04-05T04:07:12Z</time></trkpt><trkpt lat="-32.08804884534001" lon="116.33552362053932"><ele>186.16666666666666</ele><time>2026-04-05T04:07:13Z</time></trkpt><trkpt lat="-32.08810113922722" lon="116.33558434045577"><ele>186.33333333333334</ele><time>2026-04-05T04:07:14Z</time></trkpt><trkpt lat="-32.08816894818615" lon="116.3356528094057"><ele>186.5</ele><time>2026-04-05T04:07:15Z</time></trkpt><trkpt lat="-32.08824016278752" lon="116.33573700201859"><ele>186.66666666666669</ele><time>2026-04-05T04:07:16Z</time></trkpt><trkpt lat="-32.08830404521997" lon="116.33581164669327"><ele>186.83333333333334</ele><time>2026-04-05T04:07:17Z</time></trkpt><trkpt lat="-32.0883626881528" lon="116.33588196764693"><ele>187.0</ele><time>2026-04-05T04:07:18Z</time></trkpt><trkpt lat="-32.088416235414826" lon="116.33594640169012"><ele>185.8</ele><time>2026-04-05T04:07:19Z</time></trkpt><trkpt lat="-32.08851729508671" lon="116.33605603215884"><ele>184.6</ele><time>2026-04-05T04:07:21Z</time></trkpt><trkpt lat="-32.088579141440434" lon="116.33611159754231"><ele>183.4</ele><time>2026-04-05T04:07:22Z</time></trkpt><trkpt lat="-32.08864198317145" lon="116.33617148746546"><ele>182.20000000000002</ele><time>2026-04-05T04:07:23Z</time></trkpt><trkpt lat="-32.08871562043588" lon="116.3362433483807"><ele>181.0</ele><time>2026-04-05T04:07:24Z</time></trkpt><trkpt lat="-32.08878465536374" lon="116.3363201265517"><ele>180.75</ele><time>2026-04-05T04:07:25Z</time></trkpt><trkpt lat="-32.08887427490737" lon="116.33640799027161"><ele>180.5</ele><time>2026-04-05T04:07:26Z</time></trkpt><trkpt lat="-32.088952507639895" lon="116.33650386973864"><ele>180.25</ele><time>2026-04-05T04:07:27Z</time></trkpt><trkpt lat="-32.089032225126026" lon="116.33661562122046"><ele>180.0</ele><time>2026-04-05T04:07:28Z</time></trkpt><trkpt lat="-32.08908817872443" lon="116.33672701580026"><ele>179.83333333333334</ele><time>2026-04-05T04:07:29Z</time></trkpt><trkpt lat="-32.08913002217117" lon="116.33682776259525"><ele>179.66666666666666</ele><time>2026-04-05T04:07:30Z</time></trkpt><trkpt lat="-32.089158145772586" lon="116.33690484504507"><ele>179.5</ele><time>2026-04-05T04:07:31Z</time></trkpt><trkpt lat="-32.089166485485094" lon="116.33698411039951"><ele>179.33333333333331</ele><time>2026-04-05T04:07:32Z</time></trkpt><trkpt lat="-32.08915356847052" lon="116.337065161411"><ele>179.16666666666666</ele><time>2026-04-05T04:07:33Z</time></trkpt><trkpt lat="-32.08911966321226" lon="116.33714792103724"><ele>179.0</ele><time>2026-04-05T04:07:34Z</time></trkpt><trkpt lat="-32.089063189300454" lon="116.33724784887966"><ele>179.0</ele><time>2026-04-05T04:07:35Z</time></trkpt><trkpt lat="-32.08898487970428" lon="116.33737498905484"><ele>179.0</ele><time>2026-04-05T04:07:36Z</time></trkpt><trkpt lat="-32.08889771013763" lon="116.3375198393192"><ele>179.0</ele><time>2026-04-05T04:07:37Z</time></trkpt><trkpt lat="-32.08883432281642" lon="116.33764790285011"><ele>179.0</ele><time>2026-04-05T04:07:38Z</time></trkpt><trkpt lat="-32.088785308735595" lon="116.33777418620132"><ele>179.0</ele><time>2026-04-05T04:07:39Z</time></trkpt><trkpt lat="-32.08876122091433" lon="116.3379001027888"><ele>179.0</ele><time>2026-04-05T04:07:40Z</time></trkpt><trkpt lat="-32.08875484439549" lon="116.33803510786382"><ele>179.0</ele><time>2026-04-05T04:07:41Z</time></trkpt><trkpt lat="-32.08875775070255" lon="116.33820678461551"><ele>179.0</ele><time>2026-04-05T04:07:42Z</time></trkpt><trkpt lat="-32.08876820408565" lon="116.33842221828564"><ele>179.33333333333331</ele><time>2026-04-05T04:07:43Z</time></trkpt><trkpt lat="-32.08876931655865" lon="116.33864549469082"><ele>179.66666666666666</ele><time>2026-04-05T04:07:44Z</time></trkpt><trkpt lat="-32.08874600416267" lon="116.33884936041595"><ele>180.0</ele><time>2026-04-05T04:07:45Z</time></trkpt><trkpt lat="-32.08871744498157" lon="116.33904510068095"><ele>181.33333333333334</ele><time>2026-04-05T04:07:46Z</time></trkpt><trkpt lat="-32.08868121607776" lon="116.3392412048829"><ele>182.66666666666669</ele><time>2026-04-05T04:07:47Z</time></trkpt><trkpt lat="-32.088642316892454" lon="116.33940706340108"><ele>184.0</ele><time>2026-04-05T04:07:48Z</time></trkpt><trkpt lat="-32.08859927641633" lon="116.33958796706295"><ele>184.33333333333334</ele><time>2026-04-05T04:07:49Z</time></trkpt><trkpt lat="-32.088557566749564" lon="116.33978326341335"><ele>184.66666666666666</ele><time>2026-04-05T04:07:49.999Z</time></trkpt><trkpt lat="-32.08851423316231" lon="116.33998130140591"><ele>185.0</ele><time>2026-04-05T04:07:50.999Z</time></trkpt><trkpt lat="-32.08846878617049" lon="116.34017318190563"><ele>185.0</ele><time>2026-04-05T04:07:51.999Z</time></trkpt><trkpt lat="-32.08842917164408" lon="116.34034719467711"><ele>185.0</ele><time>2026-04-05T04:07:52.999Z</time></trkpt><trkpt lat="-32.08839062637702" lon="116.34053164115642"><ele>185.0</ele><time>2026-04-05T04:07:53.999Z</time></trkpt><trkpt lat="-32.08835649779409" lon="116.34071414779395"><ele>185.25</ele><time>2026-04-05T04:07:54.999Z</time></trkpt><trkpt lat="-32.08832086846779" lon="116.3408841723929"><ele>185.5</ele><time>2026-04-05T04:07:55.999Z</time></trkpt><trkpt lat="-32.08829088631303" lon="116.34104964859061"><ele>185.75</ele><time>2026-04-05T04:07:56.999Z</time></trkpt><trkpt lat="-32.08826808965604" lon="116.3412289975502"><ele>186.0</ele><time>2026-04-05T04:07:57.999Z</time></trkpt><trkpt lat="-32.088251400286914" lon="116.34141608937989"><ele>185.33333333333334</ele><time>2026-04-05T04:07:58.999Z</time></trkpt><trkpt lat="-32.088238089042775" lon="116.3416077348542"><ele>184.66666666666669</ele><time>2026-04-05T04:07:59.999Z</time></trkpt><trkpt lat="-32.088232281490015" lon="116.34180284216944"><ele>184.0</ele><time>2026-04-05T04:08:00.999Z</time></trkpt><trkpt lat="-32.08823059731543" lon="116.34197980219703"><ele>184.0</ele><time>2026-04-05T04:08:01.999Z</time></trkpt><trkpt lat="-32.08823142302397" lon="116.3421575944677"><ele>184.0</ele><time>2026-04-05T04:08:02.999Z</time></trkpt><trkpt lat="-32.0882350690217" lon="116.34233568108557"><ele>184.0</ele><time>2026-04-05T04:08:03.999Z</time></trkpt><trkpt lat="-32.08823185594398" lon="116.34253301686938"><ele>186.66666666666669</ele><time>2026-04-05T04:08:04.999Z</time></trkpt><trkpt lat="-32.088210395076814" lon="116.34269957437199"><ele>189.33333333333334</ele><time>2026-04-05T04:08:05.999Z</time></trkpt><trkpt lat="-32.08817599226454" lon="116.34288761564649"><ele>192.0</ele><time>2026-04-05T04:08:06.999Z</time></trkpt><trkpt lat="-32.0881314993207" lon="116.34310415511362"><ele>195.33333333333331</ele><time>2026-04-05T04:08:07.999Z</time></trkpt><trkpt lat="-32.088090103310904" lon="116.34330209203779"><ele>198.66666666666666</ele><time>2026-04-05T04:08:08.999Z</time></trkpt><trkpt lat="-32.08805249164351" lon="116.34348061972646"><ele>202.0</ele><time>2026-04-05T04:08:09.999Z</time></trkpt><trkpt lat="-32.088018177263116" lon="116.34365846018059"><ele>202.0</ele><time>2026-04-05T04:08:10.999Z</time></trkpt><trkpt lat="-32.087985418098405" lon="116.34383202754056"><ele>202.0</ele><time>2026-04-05T04:08:11.999Z</time></trkpt><trkpt lat="-32.087947441221914" lon="116.34399825964155"><ele>202.0</ele><time>2026-04-05T04:08:12.999Z</time></trkpt><trkpt lat="-32.08791602327155" lon="116.34416687843162"><ele>202.0</ele><time>2026-04-05T04:08:13.999Z</time></trkpt><trkpt lat="-32.08789386768221" lon="116.34433903459066"><ele>205.0</ele><time>2026-04-05T04:08:14.999Z</time></trkpt><trkpt lat="-32.08786812357082" lon="116.34452887831517"><ele>208.0</ele><time>2026-04-05T04:08:15.999Z</time></trkpt><trkpt lat="-32.0878308113087" lon="116.34473008514583"><ele>211.0</ele><time>2026-04-05T04:08:16.999Z</time></trkpt><trkpt lat="-32.087797651273185" lon="116.34492857767039"><ele>213.0</ele><time>2026-04-05T04:08:17.999Z</time></trkpt><trkpt lat="-32.08777300117565" lon="116.34512609313187"><ele>215.0</ele><time>2026-04-05T04:08:19Z</time></trkpt><trkpt lat="-32.08775151140794" lon="116.34535026046765"><ele>217.0</ele><time>2026-04-05T04:08:20Z</time></trkpt><trkpt lat="-32.087731779298345" lon="116.34556331697861"><ele>217.33333333333331</ele><time>2026-04-05T04:08:21Z</time></trkpt><trkpt lat="-32.08771877209915" lon="116.34575022578737"><ele>217.66666666666669</ele><time>2026-04-05T04:08:22Z</time></trkpt><trkpt lat="-32.08770651745619" lon="116.34595312325074"><ele>218.0</ele><time>2026-04-05T04:08:23Z</time></trkpt><trkpt lat="-32.087692973730206" lon="116.3461488275872"><ele>218.0</ele><time>2026-04-05T04:08:24Z</time></trkpt><trkpt lat="-32.087680566466055" lon="116.34634363054182"><ele>218.0</ele><time>2026-04-05T04:08:25Z</time></trkpt><trkpt lat="-32.08767549925849" lon="116.34653701039292"><ele>218.0</ele><time>2026-04-05T04:08:26Z</time></trkpt><trkpt lat="-32.087669858256284" lon="116.34673336468423"><ele>217.66666666666669</ele><time>2026-04-05T04:08:27Z</time></trkpt><trkpt lat="-32.08766826637864" lon="116.34693461069253"><ele>217.33333333333331</ele><time>2026-04-05T04:08:28Z</time></trkpt><trkpt lat="-32.08766337505933" lon="116.3471140376534"><ele>217.0</ele><time>2026-04-05T04:08:29Z</time></trkpt><trkpt lat="-32.08765810078612" lon="116.34729725892859"><ele>217.0</ele><time>2026-04-05T04:08:30Z</time></trkpt><trkpt lat="-32.08766922253764" lon="116.34748052787687"><ele>217.0</ele><time>2026-04-05T04:08:31Z</time></trkpt><trkpt lat="-32.08768944707695" lon="116.34767051568299"><ele>217.0</ele><time>2026-04-05T04:08:32Z</time></trkpt><trkpt lat="-32.08772544347139" lon="116.34786387406369"><ele>217.0</ele><time>2026-04-05T04:08:33Z</time></trkpt><trkpt lat="-32.08776260295385" lon="116.34805381938361"><ele>217.0</ele><time>2026-04-05T04:08:34Z</time></trkpt><trkpt lat="-32.08777966276266" lon="116.34823925525417"><ele>217.0</ele><time>2026-04-05T04:08:35Z</time></trkpt><trkpt lat="-32.08777549410537" lon="116.34842226108246"><ele>217.0</ele><time>2026-04-05T04:08:36Z</time></trkpt><trkpt lat="-32.08776143941334" lon="116.34861691923675"><ele>217.0</ele><time>2026-04-05T04:08:37Z</time></trkpt><trkpt lat="-32.08775823940208" lon="116.34882161875461"><ele>217.0</ele><time>2026-04-05T04:08:38Z</time></trkpt><trkpt lat="-32.08777112228646" lon="116.34901391142449"><ele>217.75</ele><time>2026-04-05T04:08:39Z</time></trkpt><trkpt lat="-32.08779377277438" lon="116.34917447892961"><ele>218.5</ele><time>2026-04-05T04:08:40Z</time></trkpt><trkpt lat="-32.08783613995899" lon="116.34930367073235"><ele>219.25</ele><time>2026-04-05T04:08:41Z</time></trkpt><trkpt lat="-32.087896067383085" lon="116.34942115276425"><ele>220.0</ele><time>2026-04-05T04:08:42Z</time></trkpt><trkpt lat="-32.087975381987505" lon="116.34952173753786"><ele>220.0</ele><time>2026-04-05T04:08:43Z</time></trkpt><trkpt lat="-32.08806039977451" lon="116.34964376449909"><ele>220.0</ele><time>2026-04-05T04:08:44Z</time></trkpt><trkpt lat="-32.08813284217465" lon="116.34977338918743"><ele>220.0</ele><time>2026-04-05T04:08:45Z</time></trkpt><trkpt lat="-32.088187151870976" lon="116.3498901614484"><ele>220.0</ele><time>2026-04-05T04:08:46Z</time></trkpt><trkpt lat="-32.088240186856396" lon="116.34999525676258"><ele>220.5</ele><time>2026-04-05T04:08:47Z</time></trkpt><trkpt lat="-32.08831689997888" lon="116.350106725394"><ele>221.0</ele><time>2026-04-05T04:08:48Z</time></trkpt><trkpt lat="-32.0884117441976" lon="116.35022297393989"><ele>221.5</ele><time>2026-04-05T04:08:49Z</time></trkpt><trkpt lat="-32.08850747905264" lon="116.35036074354268"><ele>222.0</ele><time>2026-04-05T04:08:50Z</time></trkpt><trkpt lat="-32.08861014129346" lon="116.35052283245616"><ele>221.66666666666669</ele><time>2026-04-05T04:08:51Z</time></trkpt><trkpt lat="-32.08871561178133" lon="116.35069104775145"><ele>221.33333333333334</ele><time>2026-04-05T04:08:52Z</time></trkpt><trkpt lat="-32.088825906177945" lon="116.35084111875128"><ele>221.0</ele><time>2026-04-05T04:08:53Z</time></trkpt><trkpt lat="-32.08895818099808" lon="116.35100195336247"><ele>221.5</ele><time>2026-04-05T04:08:54Z</time></trkpt><trkpt lat="-32.08910323430507" lon="116.3511815859595"><ele>222.0</ele><time>2026-04-05T04:08:55Z</time></trkpt><trkpt lat="-32.08926931657569" lon="116.35139150122122"><ele>223.0</ele><time>2026-04-05T04:08:56Z</time></trkpt><trkpt lat="-32.089453808909866" lon="116.35161971451602"><ele>224.0</ele><time>2026-04-05T04:08:57Z</time></trkpt><trkpt lat="-32.08964594979972" lon="116.35185270489563"><ele>224.0</ele><time>2026-04-05T04:08:58Z</time></trkpt><trkpt lat="-32.08983476444593" lon="116.3520819570812"><ele>224.0</ele><time>2026-04-05T04:08:59Z</time></trkpt><trkpt lat="-32.090008730419555" lon="116.3522984167201"><ele>225.0</ele><time>2026-04-05T04:09:00Z</time></trkpt><trkpt lat="-32.09018151647492" lon="116.35250996242424"><ele>226.0</ele><time>2026-04-05T04:09:01Z</time></trkpt><trkpt lat="-32.0903571648306" lon="116.35272163100547"><ele>226.0</ele><time>2026-04-05T04:09:02Z</time></trkpt><trkpt lat="-32.09053176096417" lon="116.3529311666486"><ele>226.0</ele><time>2026-04-05T04:09:03Z</time></trkpt><trkpt lat="-32.09069779914123" lon="116.35313794450678"><ele>228.0</ele><time>2026-04-05T04:09:04Z</time></trkpt><trkpt lat="-32.09086263566263" lon="116.35333513933432"><ele>230.0</ele><time>2026-04-05T04:09:05Z</time></trkpt><trkpt lat="-32.09101422506108" lon="116.35351995345687"><ele>230.0</ele><time>2026-04-05T04:09:06Z</time></trkpt><trkpt lat="-32.09116531904401" lon="116.35370702454097"><ele>230.0</ele><time>2026-04-05T04:09:07Z</time></trkpt><trkpt lat="-32.0913224296879" lon="116.35390234936413"><ele>230.0</ele><time>2026-04-05T04:09:08Z</time></trkpt><trkpt lat="-32.09146821867202" lon="116.35408656864907"><ele>230.66666666666669</ele><time>2026-04-05T04:09:09Z</time></trkpt><trkpt lat="-32.09159438865137" lon="116.35424435268571"><ele>231.33333333333331</ele><time>2026-04-05T04:09:10Z</time></trkpt><trkpt lat="-32.09171864548456" lon="116.35439790050782"><ele>232.0</ele><time>2026-04-05T04:09:11Z</time></trkpt><trkpt lat="-32.091849158703255" lon="116.35455224921142"><ele>232.0</ele><time>2026-04-05T04:09:12Z</time></trkpt><trkpt lat="-32.091987018035375" lon="116.35468970797109"><ele>232.0</ele><time>2026-04-05T04:09:13Z</time></trkpt><trkpt lat="-32.09212799845936" lon="116.35480478203247"><ele>232.0</ele><time>2026-04-05T04:09:14Z</time></trkpt><trkpt lat="-32.092281824722726" lon="116.35491325081645"><ele>233.33333333333331</ele><time>2026-04-05T04:09:15Z</time></trkpt><trkpt lat="-32.092442562943205" lon="116.35500453809063"><ele>234.66666666666669</ele><time>2026-04-05T04:09:16Z</time></trkpt><trkpt lat="-32.09262599362025" lon="116.35507641203662"><ele>236.0</ele><time>2026-04-05T04:09:17Z</time></trkpt><trkpt lat="-32.0928232781254" lon="116.35514295260946"><ele>236.0</ele><time>2026-04-05T04:09:18Z</time></trkpt><trkpt lat="-32.09302532604779" lon="116.35520229321371"><ele>236.0</ele><time>2026-04-05T04:09:19Z</time></trkpt><trkpt lat="-32.09320974285296" lon="116.35525888920805"><ele>236.0</ele><time>2026-04-05T04:09:20Z</time></trkpt><trkpt lat="-32.093393217895965" lon="116.35531545890336"><ele>234.33333333333334</ele><time>2026-04-05T04:09:21Z</time></trkpt><trkpt lat="-32.09359598833877" lon="116.35537422404119"><ele>232.66666666666669</ele><time>2026-04-05T04:09:22Z</time></trkpt><trkpt lat="-32.0937967887722" lon="116.35542756481622"><ele>231.0</ele><time>2026-04-05T04:09:23Z</time></trkpt><trkpt lat="-32.094016437294265" lon="116.35548206754049"><ele>232.0</ele><time>2026-04-05T04:09:24Z</time></trkpt><trkpt lat="-32.09423812729309" lon="116.35554107779214"><ele>233.0</ele><time>2026-04-05T04:09:25Z</time></trkpt><trkpt lat="-32.09445253042704" lon="116.35560240311094"><ele>234.0</ele><time>2026-04-05T04:09:26Z</time></trkpt><trkpt lat="-32.09468364733172" lon="116.35567346361597"><ele>235.5</ele><time>2026-04-05T04:09:27Z</time></trkpt><trkpt lat="-32.09492389798455" lon="116.35574516009068"><ele>237.0</ele><time>2026-04-05T04:09:28Z</time></trkpt><trkpt lat="-32.09516727251531" lon="116.35581826139794"><ele>237.0</ele><time>2026-04-05T04:09:29Z</time></trkpt><trkpt lat="-32.095419543745415" lon="116.35589125982834"><ele>237.0</ele><time>2026-04-05T04:09:30Z</time></trkpt><trkpt lat="-32.09566762257445" lon="116.35596458481089"><ele>235.5</ele><time>2026-04-05T04:09:31Z</time></trkpt><trkpt lat="-32.095917247598905" lon="116.35603601894951"><ele>234.0</ele><time>2026-04-05T04:09:32Z</time></trkpt><trkpt lat="-32.09615952232318" lon="116.35610577825337"><ele>234.0</ele><time>2026-04-05T04:09:33Z</time></trkpt><trkpt lat="-32.09639478839642" lon="116.356172566918"><ele>234.0</ele><time>2026-04-05T04:09:34Z</time></trkpt><trkpt lat="-32.096640541296495" lon="116.35624397987246"><ele>235.5</ele><time>2026-04-05T04:09:34.999Z</time></trkpt><trkpt lat="-32.09689608808175" lon="116.35631949124704"><ele>237.0</ele><time>2026-04-05T04:09:35.999Z</time></trkpt><trkpt lat="-32.097159793226155" lon="116.3563962959547"><ele>240.5</ele><time>2026-04-05T04:09:36.999Z</time></trkpt><trkpt lat="-32.09742260676904" lon="116.35647268551429"><ele>244.0</ele><time>2026-04-05T04:09:37.999Z</time></trkpt><trkpt lat="-32.09768907045227" lon="116.35654746750654"><ele>244.0</ele><time>2026-04-05T04:09:38.999Z</time></trkpt><trkpt lat="-32.0979605101647" lon="116.35662613473991"><ele>244.0</ele><time>2026-04-05T04:09:39.999Z</time></trkpt><trkpt lat="-32.09822520637155" lon="116.35670485779525"><ele>243.5</ele><time>2026-04-05T04:09:40.999Z</time></trkpt><trkpt lat="-32.09848597989174" lon="116.35678130386789"><ele>243.0</ele><time>2026-04-05T04:09:41.999Z</time></trkpt><trkpt lat="-32.09874540748169" lon="116.35686053063435"><ele>243.0</ele><time>2026-04-05T04:09:42.999Z</time></trkpt><trkpt lat="-32.09901556954503" lon="116.35693945959427"><ele>243.0</ele><time>2026-04-05T04:09:43.999Z</time></trkpt><trkpt lat="-32.09928339916686" lon="116.35701864350489"><ele>242.0</ele><time>2026-04-05T04:09:44.999Z</time></trkpt><trkpt lat="-32.09953793957485" lon="116.35709257700096"><ele>241.0</ele><time>2026-04-05T04:09:45.999Z</time></trkpt><trkpt lat="-32.09977946435735" lon="116.35716267715178"><ele>244.5</ele><time>2026-04-05T04:09:46.999Z</time></trkpt><trkpt lat="-32.100021493503164" lon="116.35723745217518"><ele>248.0</ele><time>2026-04-05T04:09:47.999Z</time></trkpt><trkpt lat="-32.10026979608721" lon="116.3573136003217"><ele>248.0</ele><time>2026-04-05T04:09:48.999Z</time></trkpt><trkpt lat="-32.10051747472983" lon="116.35738678141679"><ele>248.0</ele><time>2026-04-05T04:09:49.999Z</time></trkpt><trkpt lat="-32.10076512502962" lon="116.35745741119192"><ele>247.5</ele><time>2026-04-05T04:09:50.999Z</time></trkpt><trkpt lat="-32.10100061676526" lon="116.35752572588999"><ele>247.0</ele><time>2026-04-05T04:09:51.999Z</time></trkpt><trkpt lat="-32.101238447584656" lon="116.35759536556078"><ele>247.0</ele><time>2026-04-05T04:09:52.999Z</time></trkpt><trkpt lat="-32.10148148704071" lon="116.35767011845903"><ele>247.0</ele><time>2026-04-05T04:09:53.999Z</time></trkpt><trkpt lat="-32.101709810638724" lon="116.35773489955247"><ele>248.5</ele><time>2026-04-05T04:09:54.999Z</time></trkpt><trkpt lat="-32.101929884748564" lon="116.35780342094519"><ele>250.0</ele><time>2026-04-05T04:09:55.999Z</time></trkpt><trkpt lat="-32.102179847700654" lon="116.35787824010971"><ele>249.0</ele><time>2026-04-05T04:09:56.999Z</time></trkpt><trkpt lat="-32.102441740640025" lon="116.35795316455692"><ele>248.0</ele><time>2026-04-05T04:09:57.999Z</time></trkpt><trkpt lat="-32.10267653594391" lon="116.35802545385336"><ele>250.5</ele><time>2026-04-05T04:09:58.999Z</time></trkpt><trkpt lat="-32.102899322916564" lon="116.35809851734886"><ele>253.0</ele><time>2026-04-05T04:09:59.999Z</time></trkpt><trkpt lat="-32.103129063901676" lon="116.35816777257573"><ele>252.0</ele><time>2026-04-05T04:10:00.999Z</time></trkpt><trkpt lat="-32.10336985150746" lon="116.35823880332376"><ele>251.0</ele><time>2026-04-05T04:10:01.999Z</time></trkpt><trkpt lat="-32.10361295228141" lon="116.35831622113804"><ele>251.0</ele><time>2026-04-05T04:10:02.999Z</time></trkpt><trkpt lat="-32.10385200179263" lon="116.35839004632268"><ele>251.0</ele><time>2026-04-05T04:10:03.999Z</time></trkpt><trkpt lat="-32.104099269265724" lon="116.35846566008453"><ele>249.5</ele><time>2026-04-05T04:10:04.999Z</time></trkpt><trkpt lat="-32.104341727374035" lon="116.35853879765725"><ele>248.0</ele><time>2026-04-05T04:10:05.999Z</time></trkpt><trkpt lat="-32.104588248406564" lon="116.35861571809797"><ele>248.0</ele><time>2026-04-05T04:10:06.999Z</time></trkpt><trkpt lat="-32.104845729258514" lon="116.35869809026912"><ele>248.0</ele><time>2026-04-05T04:10:07.999Z</time></trkpt><trkpt lat="-32.105105950779674" lon="116.35877755032095"><ele>246.5</ele><time>2026-04-05T04:10:08.999Z</time></trkpt><trkpt lat="-32.10536192232188" lon="116.35885977525125"><ele>245.0</ele><time>2026-04-05T04:10:09.999Z</time></trkpt><trkpt lat="-32.10561251319912" lon="116.3589416164376"><ele>247.0</ele><time>2026-04-05T04:10:10.999Z</time></trkpt><trkpt lat="-32.10586862414402" lon="116.35902563576698"><ele>249.0</ele><time>2026-04-05T04:10:11.999Z</time></trkpt><trkpt lat="-32.106137428326846" lon="116.35911043438635"><ele>249.0</ele><time>2026-04-05T04:10:12.999Z</time></trkpt><trkpt lat="-32.10641246820587" lon="116.35919644425961"><ele>249.0</ele><time>2026-04-05T04:10:13.999Z</time></trkpt><trkpt lat="-32.10668479309343" lon="116.3592799829142"><ele>250.0</ele><time>2026-04-05T04:10:14.999Z</time></trkpt><trkpt lat="-32.10694513200234" lon="116.35936400358527"><ele>251.0</ele><time>2026-04-05T04:10:15.999Z</time></trkpt><trkpt lat="-32.107194284740935" lon="116.35944788958719"><ele>252.0</ele><time>2026-04-05T04:10:16.999Z</time></trkpt><trkpt lat="-32.10744860856118" lon="116.35953383356427"><ele>253.0</ele><time>2026-04-05T04:10:17.999Z</time></trkpt><trkpt lat="-32.10770265872957" lon="116.35961501950756"><ele>253.0</ele><time>2026-04-05T04:10:18.999Z</time></trkpt><trkpt lat="-32.10795903974023" lon="116.35969673673713"><ele>253.0</ele><time>2026-04-05T04:10:19.999Z</time></trkpt><trkpt lat="-32.108212772552534" lon="116.35977927151251"><ele>254.0</ele><time>2026-04-05T04:10:20.999Z</time></trkpt><trkpt lat="-32.1084714153558" lon="116.35986328372331"><ele>255.0</ele><time>2026-04-05T04:10:21.999Z</time></trkpt><trkpt lat="-32.10873211451593" lon="116.3599466189544"><ele>255.0</ele><time>2026-04-05T04:10:22.999Z</time></trkpt><trkpt lat="-32.108990305739226" lon="116.36003922915715"><ele>255.0</ele><time>2026-04-05T04:10:23.999Z</time></trkpt><trkpt lat="-32.10925332025885" lon="116.36012790533063"><ele>253.5</ele><time>2026-04-05T04:10:25Z</time></trkpt><trkpt lat="-32.109513220165525" lon="116.3602189622479"><ele>252.0</ele><time>2026-04-05T04:10:26Z</time></trkpt><trkpt lat="-32.10977241485462" lon="116.36031199655216"><ele>251.5</ele><time>2026-04-05T04:10:27Z</time></trkpt><trkpt lat="-32.110036558138" lon="116.36040314376558"><ele>251.0</ele><time>2026-04-05T04:10:28Z</time></trkpt><trkpt lat="-32.11029953448781" lon="116.36049237719251"><ele>252.5</ele><time>2026-04-05T04:10:29Z</time></trkpt><trkpt lat="-32.11055683854177" lon="116.36057479088585"><ele>254.0</ele><time>2026-04-05T04:10:30Z</time></trkpt><trkpt lat="-32.11081054585549" lon="116.36065784733862"><ele>254.0</ele><time>2026-04-05T04:10:31Z</time></trkpt><trkpt lat="-32.11105092093453" lon="116.36074014814623"><ele>254.0</ele><time>2026-04-05T04:10:32Z</time></trkpt><trkpt lat="-32.111288730621084" lon="116.36082311025328"><ele>254.0</ele><time>2026-04-05T04:10:33Z</time></trkpt><trkpt lat="-32.11152963099021" lon="116.36090736314148"><ele>254.0</ele><time>2026-04-05T04:10:34Z</time></trkpt><trkpt lat="-32.1117744884026" lon="116.36098852888604"><ele>254.0</ele><time>2026-04-05T04:10:35Z</time></trkpt><trkpt lat="-32.112017620703206" lon="116.361069789204"><ele>254.0</ele><time>2026-04-05T04:10:36Z</time></trkpt><trkpt lat="-32.11225251340547" lon="116.36114950442109"><ele>254.0</ele><time>2026-04-05T04:10:37Z</time></trkpt><trkpt lat="-32.11248801996529" lon="116.36122850060892"><ele>254.0</ele><time>2026-04-05T04:10:38Z</time></trkpt><trkpt lat="-32.11271923519026" lon="116.36130460992655"><ele>253.66666666666669</ele><time>2026-04-05T04:10:39Z</time></trkpt><trkpt lat="-32.11293125711377" lon="116.36137387683304"><ele>253.33333333333331</ele><time>2026-04-05T04:10:40Z</time></trkpt><trkpt lat="-32.11314087111979" lon="116.36144709250054"><ele>253.0</ele><time>2026-04-05T04:10:41Z</time></trkpt><trkpt lat="-32.11333962292896" lon="116.36151702429385"><ele>252.66666666666666</ele><time>2026-04-05T04:10:42Z</time></trkpt><trkpt lat="-32.113534603170855" lon="116.36158478660704"><ele>252.33333333333331</ele><time>2026-04-05T04:10:43Z</time></trkpt><trkpt lat="-32.113726693886385" lon="116.36165225189826"><ele>252.0</ele><time>2026-04-05T04:10:44Z</time></trkpt><trkpt lat="-32.11390957804191" lon="116.36171488815661"><ele>253.66666666666669</ele><time>2026-04-05T04:10:45Z</time></trkpt><trkpt lat="-32.114080782638375" lon="116.36178372449892"><ele>255.33333333333334</ele><time>2026-04-05T04:10:46Z</time></trkpt><trkpt lat="-32.11425550147566" lon="116.36185627090777"><ele>257.0</ele><time>2026-04-05T04:10:47Z</time></trkpt><trkpt lat="-32.11443148080988" lon="116.36194342455894"><ele>257.0</ele><time>2026-04-05T04:10:48Z</time></trkpt><trkpt lat="-32.1146082408849" lon="116.36204072942756"><ele>257.0</ele><time>2026-04-05T04:10:49Z</time></trkpt><trkpt lat="-32.11478555333383" lon="116.36214679423807"><ele>257.0</ele><time>2026-04-05T04:10:50Z</time></trkpt><trkpt lat="-32.11495111854244" lon="116.36225639440715"><ele>258.33333333333337</ele><time>2026-04-05T04:10:51Z</time></trkpt><trkpt lat="-32.11510675173358" lon="116.36236574253411"><ele>259.6666666666667</ele><time>2026-04-05T04:10:52Z</time></trkpt><trkpt lat="-32.115242777822566" lon="116.36247055228519"><ele>261.0</ele><time>2026-04-05T04:10:53Z</time></trkpt><trkpt lat="-32.11536329396655" lon="116.3625631368539"><ele>261.0</ele><time>2026-04-05T04:10:54Z</time></trkpt><trkpt lat="-32.1154560963352" lon="116.362641407362"><ele>261.0</ele><time>2026-04-05T04:10:55Z</time></trkpt><trkpt lat="-32.11552435986547" lon="116.36270223855256"><ele>261.0</ele><time>2026-04-05T04:10:56Z</time></trkpt><trkpt lat="-32.115609165516325" lon="116.36277824301028"><ele>261.0</ele><time>2026-04-05T04:10:58Z</time></trkpt><trkpt lat="-32.115570604327694" lon="116.36284453769784"><ele>261.0</ele><time>2026-04-05T04:11:02Z</time></trkpt><trkpt lat="-32.115498211235696" lon="116.36281473163098"><ele>261.0</ele><time>2026-04-05T04:11:05Z</time></trkpt><trkpt lat="-32.11543336186589" lon="116.36285145039425"><ele>261.0</ele><time>2026-04-05T04:11:53.999Z</time></trkpt><trkpt lat="-32.11539935249242" lon="116.36295611359195"><ele>261.0</ele><time>2026-04-05T04:11:55.999Z</time></trkpt><trkpt lat="-32.11539462343768" lon="116.36311498041385"><ele>261.0</ele><time>2026-04-05T04:11:57.999Z</time></trkpt><trkpt lat="-32.11539764377349" lon="116.36322166344956"><ele>261.0</ele><time>2026-04-05T04:11:58.999Z</time></trkpt><trkpt lat="-32.1153989508429" lon="116.36332049618343"><ele>261.40000000000003</ele><time>2026-04-05T04:11:59.999Z</time></trkpt><trkpt lat="-32.11540163560131" lon="116.3634380745197"><ele>261.8</ele><time>2026-04-05T04:12:00.999Z</time></trkpt><trkpt lat="-32.11540192973915" lon="116.36358245884041"><ele>262.20000000000005</ele><time>2026-04-05T04:12:01.999Z</time></trkpt><trkpt lat="-32.11540534938062" lon="116.36371478915065"><ele>262.6</ele><time>2026-04-05T04:12:02.999Z</time></trkpt><trkpt lat="-32.11540704028505" lon="116.36382871467067"><ele>263.0</ele><time>2026-04-05T04:12:03.999Z</time></trkpt><trkpt lat="-32.11541006491552" lon="116.36394037937141"><ele>263.0</ele><time>2026-04-05T04:12:04.999Z</time></trkpt><trkpt lat="-32.11541211432719" lon="116.36405655858049"><ele>263.0</ele><time>2026-04-05T04:12:05.999Z</time></trkpt><trkpt lat="-32.11541780115184" lon="116.36418169443998"><ele>263.0</ele><time>2026-04-05T04:12:06.999Z</time></trkpt><trkpt lat="-32.11542788501278" lon="116.36431332885633"><ele>263.0</ele><time>2026-04-05T04:12:07.999Z</time></trkpt><trkpt lat="-32.1154332161233" lon="116.36446478667891"><ele>263.0</ele><time>2026-04-05T04:12:08.999Z</time></trkpt><trkpt lat="-32.11543680048016" lon="116.36463693244445"><ele>262.33333333333337</ele><time>2026-04-05T04:12:09.999Z</time></trkpt><trkpt lat="-32.11544134519668" lon="116.36484887368928"><ele>261.6666666666667</ele><time>2026-04-05T04:12:10.999Z</time></trkpt><trkpt lat="-32.11544875267554" lon="116.36510091120843"><ele>261.0</ele><time>2026-04-05T04:12:11.999Z</time></trkpt><trkpt lat="-32.11544918391473" lon="116.36538097977451"><ele>261.5</ele><time>2026-04-05T04:12:12.999Z</time></trkpt><trkpt lat="-32.11543152379925" lon="116.36568439016047"><ele>262.0</ele><time>2026-04-05T04:12:13.999Z</time></trkpt><trkpt lat="-32.1154053655164" lon="116.3660049586485"><ele>262.0</ele><time>2026-04-05T04:12:14.999Z</time></trkpt><trkpt lat="-32.1153803572326" lon="116.36634202370796"><ele>262.0</ele><time>2026-04-05T04:12:15.999Z</time></trkpt><trkpt lat="-32.115372084100066" lon="116.3666735877206"><ele>262.5</ele><time>2026-04-05T04:12:16.999Z</time></trkpt><trkpt lat="-32.115384858356954" lon="116.36703507124801"><ele>263.0</ele><time>2026-04-05T04:12:17.999Z</time></trkpt><trkpt lat="-32.11539968469529" lon="116.36737455703663"><ele>263.5</ele><time>2026-04-05T04:12:18.999Z</time></trkpt><trkpt lat="-32.115421606979375" lon="116.36768767805087"><ele>264.0</ele><time>2026-04-05T04:12:19.999Z</time></trkpt><trkpt lat="-32.11543955068903" lon="116.36796692479275"><ele>264.5</ele><time>2026-04-05T04:12:20.999Z</time></trkpt><trkpt lat="-32.115454958305676" lon="116.36824765459232"><ele>265.0</ele><time>2026-04-05T04:12:21.999Z</time></trkpt><trkpt lat="-32.11547114978671" lon="116.3685289683329"><ele>265.0</ele><time>2026-04-05T04:12:22.999Z</time></trkpt><trkpt lat="-32.1154833772933" lon="116.36880412764896"><ele>265.0</ele><time>2026-04-05T04:12:23.999Z</time></trkpt><trkpt lat="-32.11549694592268" lon="116.36907515611358"><ele>267.0</ele><time>2026-04-05T04:12:24.999Z</time></trkpt><trkpt lat="-32.115513864579775" lon="116.36935052947952"><ele>269.0</ele><time>2026-04-05T04:12:25.999Z</time></trkpt><trkpt lat="-32.11553085411949" lon="116.36962539975966"><ele>269.6666666666667</ele><time>2026-04-05T04:12:26.999Z</time></trkpt><trkpt lat="-32.11554366281546" lon="116.36989063622374"><ele>270.3333333333333</ele><time>2026-04-05T04:12:27.999Z</time></trkpt><trkpt lat="-32.11554588298236" lon="116.37013303415705"><ele>271.0</ele><time>2026-04-05T04:12:28.999Z</time></trkpt><trkpt lat="-32.115539049080226" lon="116.3703515909481"><ele>272.0</ele><time>2026-04-05T04:12:29.999Z</time></trkpt><trkpt lat="-32.11552991756923" lon="116.37055056550395"><ele>273.0</ele><time>2026-04-05T04:12:31Z</time></trkpt><trkpt lat="-32.11551830958476" lon="116.37075618819388"><ele>274.0</ele><time>2026-04-05T04:12:32Z</time></trkpt><trkpt lat="-32.115503707311426" lon="116.37098226432961"><ele>274.0</ele><time>2026-04-05T04:12:33Z</time></trkpt><trkpt lat="-32.11548537570461" lon="116.37122669702599"><ele>274.0</ele><time>2026-04-05T04:12:34Z</time></trkpt><trkpt lat="-32.115464175495646" lon="116.371479611711"><ele>274.0</ele><time>2026-04-05T04:12:35Z</time></trkpt><trkpt lat="-32.115440859315235" lon="116.3717460267519"><ele>275.0</ele><time>2026-04-05T04:12:36Z</time></trkpt><trkpt lat="-32.115417614541165" lon="116.37203373713757"><ele>276.0</ele><time>2026-04-05T04:12:37Z</time></trkpt><trkpt lat="-32.115393619698864" lon="116.37232597711507"><ele>276.0</ele><time>2026-04-05T04:12:38Z</time></trkpt><trkpt lat="-32.11536541099457" lon="116.37261533660094"><ele>276.0</ele><time>2026-04-05T04:12:39Z</time></trkpt><trkpt lat="-32.11533236511862" lon="116.37289950707753"><ele>278.5</ele><time>2026-04-05T04:12:40Z</time></trkpt><trkpt lat="-32.11530150965202" lon="116.37318358447708"><ele>281.0</ele><time>2026-04-05T04:12:41Z</time></trkpt><trkpt lat="-32.11527744238318" lon="116.37345638859568"><ele>281.0</ele><time>2026-04-05T04:12:42Z</time></trkpt><trkpt lat="-32.11525854797581" lon="116.37373644800454"><ele>281.0</ele><time>2026-04-05T04:12:43Z</time></trkpt><trkpt lat="-32.1152503842129" lon="116.37401595762236"><ele>284.0</ele><time>2026-04-05T04:12:44Z</time></trkpt><trkpt lat="-32.115251802620776" lon="116.37429355837038"><ele>287.0</ele><time>2026-04-05T04:12:45Z</time></trkpt><trkpt lat="-32.11526250407187" lon="116.37456849947301"><ele>286.5</ele><time>2026-04-05T04:12:46Z</time></trkpt><trkpt lat="-32.11527910861767" lon="116.37484872019823"><ele>286.0</ele><time>2026-04-05T04:12:47Z</time></trkpt><trkpt lat="-32.11529922508215" lon="116.37513359751429"><ele>286.0</ele><time>2026-04-05T04:12:48Z</time></trkpt><trkpt lat="-32.115317020221994" lon="116.37542103632371"><ele>286.0</ele><time>2026-04-05T04:12:49Z</time></trkpt><trkpt lat="-32.11534075429445" lon="116.3757112684331"><ele>288.0</ele><time>2026-04-05T04:12:50Z</time></trkpt><trkpt lat="-32.11536281450921" lon="116.37600388317651"><ele>290.0</ele><time>2026-04-05T04:12:51Z</time></trkpt><trkpt lat="-32.11538316964781" lon="116.37629590160445"><ele>290.0</ele><time>2026-04-05T04:12:52Z</time></trkpt><trkpt lat="-32.11540237276132" lon="116.37657730263831"><ele>290.0</ele><time>2026-04-05T04:12:53Z</time></trkpt><trkpt lat="-32.11542446095664" lon="116.37686121562646"><ele>290.0</ele><time>2026-04-05T04:12:54Z</time></trkpt><trkpt lat="-32.115449479613744" lon="116.37713957013361"><ele>290.0</ele><time>2026-04-05T04:12:55Z</time></trkpt><trkpt lat="-32.1154764104592" lon="116.37740653084013"><ele>291.6666666666667</ele><time>2026-04-05T04:12:56Z</time></trkpt><trkpt lat="-32.115505569280444" lon="116.37765206407379"><ele>293.3333333333333</ele><time>2026-04-05T04:12:57Z</time></trkpt><trkpt lat="-32.11553688730472" lon="116.3778752222698"><ele>295.0</ele><time>2026-04-05T04:12:58Z</time></trkpt><trkpt lat="-32.11557403079307" lon="116.37808520190454"><ele>295.0</ele><time>2026-04-05T04:12:59Z</time></trkpt><trkpt lat="-32.11561745321601" lon="116.3782864954719"><ele>295.0</ele><time>2026-04-05T04:13:00Z</time></trkpt><trkpt lat="-32.11567471776888" lon="116.37849559301632"><ele>295.0</ele><time>2026-04-05T04:13:01Z</time></trkpt><trkpt lat="-32.11574165860484" lon="116.378711139663"><ele>294.66666666666663</ele><time>2026-04-05T04:13:02Z</time></trkpt><trkpt lat="-32.11581180033936" lon="116.37894638099169"><ele>294.3333333333333</ele><time>2026-04-05T04:13:03Z</time></trkpt><trkpt lat="-32.11588484511849" lon="116.37917482008045"><ele>294.0</ele><time>2026-04-05T04:13:04Z</time></trkpt><trkpt lat="-32.1159600477288" lon="116.37940822341471"><ele>294.0</ele><time>2026-04-05T04:13:05Z</time></trkpt><trkpt lat="-32.11603201932007" lon="116.3796440583598"><ele>294.0</ele><time>2026-04-05T04:13:06Z</time></trkpt><trkpt lat="-32.11610071535545" lon="116.37988223836678"><ele>294.0</ele><time>2026-04-05T04:13:07Z</time></trkpt><trkpt lat="-32.1161693655263" lon="116.38013418125007"><ele>293.5</ele><time>2026-04-05T04:13:08Z</time></trkpt><trkpt lat="-32.11624095808804" lon="116.38040036370975"><ele>293.0</ele><time>2026-04-05T04:13:09Z</time></trkpt><trkpt lat="-32.116307145055764" lon="116.3806624469283"><ele>293.0</ele><time>2026-04-05T04:13:10Z</time></trkpt><trkpt lat="-32.11636904200562" lon="116.38092026668757"><ele>293.0</ele><time>2026-04-05T04:13:11Z</time></trkpt><trkpt lat="-32.116432785589815" lon="116.38118970094342"><ele>292.6666666666667</ele><time>2026-04-05T04:13:12Z</time></trkpt><trkpt lat="-32.11649242376657" lon="116.38143821504877"><ele>292.3333333333333</ele><time>2026-04-05T04:13:13Z</time></trkpt><trkpt lat="-32.116546554963634" lon="116.3816657175594"><ele>292.0</ele><time>2026-04-05T04:13:14Z</time></trkpt><trkpt lat="-32.11659576906291" lon="116.38188500329369"><ele>293.0</ele><time>2026-04-05T04:13:15Z</time></trkpt><trkpt lat="-32.11664758984456" lon="116.38213456364828"><ele>294.0</ele><time>2026-04-05T04:13:16Z</time></trkpt><trkpt lat="-32.116700841574946" lon="116.3823873891878"><ele>295.0</ele><time>2026-04-05T04:13:17Z</time></trkpt><trkpt lat="-32.116748093429834" lon="116.38262491435047"><ele>296.0</ele><time>2026-04-05T04:13:18Z</time></trkpt><trkpt lat="-32.11678856573193" lon="116.38284307367428"><ele>297.0</ele><time>2026-04-05T04:13:19Z</time></trkpt><trkpt lat="-32.11682265605911" lon="116.38305032899015"><ele>298.0</ele><time>2026-04-05T04:13:20Z</time></trkpt><trkpt lat="-32.11685529609234" lon="116.38324456231959"><ele>298.25</ele><time>2026-04-05T04:13:21Z</time></trkpt><trkpt lat="-32.11688526654947" lon="116.38342442793103"><ele>298.5</ele><time>2026-04-05T04:13:22Z</time></trkpt><trkpt lat="-32.116912724052725" lon="116.38358347601202"><ele>298.75</ele><time>2026-04-05T04:13:23Z</time></trkpt><trkpt lat="-32.11693418552387" lon="116.38373288957645"><ele>299.0</ele><time>2026-04-05T04:13:24Z</time></trkpt><trkpt lat="-32.11695752581915" lon="116.38387740344128"><ele>299.0</ele><time>2026-04-05T04:13:25Z</time></trkpt><trkpt lat="-32.11699243871985" lon="116.38403776659545"><ele>299.0</ele><time>2026-04-05T04:13:26Z</time></trkpt><trkpt lat="-32.11703212395474" lon="116.38420701353375"><ele>299.0</ele><time>2026-04-05T04:13:27Z</time></trkpt><trkpt lat="-32.117074305595025" lon="116.38439586100006"><ele>299.0</ele><time>2026-04-05T04:13:28Z</time></trkpt><trkpt lat="-32.117113667016916" lon="116.38459039647493"><ele>299.0</ele><time>2026-04-05T04:13:29Z</time></trkpt><trkpt lat="-32.11715300319183" lon="116.3847750207909"><ele>299.0</ele><time>2026-04-05T04:13:30Z</time></trkpt><trkpt lat="-32.117190245046544" lon="116.38495970681905"><ele>297.0</ele><time>2026-04-05T04:13:31Z</time></trkpt><trkpt lat="-32.11723286250484" lon="116.3851528772435"><ele>295.0</ele><time>2026-04-05T04:13:32Z</time></trkpt><trkpt lat="-32.11728021403079" lon="116.38536244141666"><ele>293.0</ele><time>2026-04-05T04:13:33Z</time></trkpt><trkpt lat="-32.11733199137429" lon="116.38558612988437"><ele>291.0</ele><time>2026-04-05T04:13:34Z</time></trkpt><trkpt lat="-32.117376658159365" lon="116.38580502774194"><ele>289.0</ele><time>2026-04-05T04:13:35Z</time></trkpt><trkpt lat="-32.1174209899695" lon="116.3860228040384"><ele>287.0</ele><time>2026-04-05T04:13:36Z</time></trkpt><trkpt lat="-32.11746185532301" lon="116.38624395714258"><ele>286.6666666666667</ele><time>2026-04-05T04:13:37Z</time></trkpt><trkpt lat="-32.117492807594985" lon="116.38648855501106"><ele>286.3333333333333</ele><time>2026-04-05T04:13:38Z</time></trkpt><trkpt lat="-32.11752018859516" lon="116.38673141061352"><ele>286.0</ele><time>2026-04-05T04:13:38.999Z</time></trkpt><trkpt lat="-32.11754640994873" lon="116.38696859470676"><ele>284.3333333333333</ele><time>2026-04-05T04:13:39.999Z</time></trkpt><trkpt lat="-32.11757310919451" lon="116.38721827564743"><ele>282.6666666666667</ele><time>2026-04-05T04:13:40.999Z</time></trkpt><trkpt lat="-32.11760008475328" lon="116.38746339025411"><ele>281.0</ele><time>2026-04-05T04:13:41.999Z</time></trkpt><trkpt lat="-32.11762602015095" lon="116.38769803463381"><ele>281.0</ele><time>2026-04-05T04:13:42.999Z</time></trkpt><trkpt lat="-32.11765015503014" lon="116.38791283998331"><ele>281.0</ele><time>2026-04-05T04:13:43.999Z</time></trkpt><trkpt lat="-32.11767879762285" lon="116.3881205510082"><ele>281.0</ele><time>2026-04-05T04:13:44.999Z</time></trkpt><trkpt lat="-32.117703584068344" lon="116.38831648937212"><ele>280.6666666666667</ele><time>2026-04-05T04:13:45.999Z</time></trkpt><trkpt lat="-32.11772396087537" lon="116.38850930192002"><ele>280.3333333333333</ele><time>2026-04-05T04:13:46.999Z</time></trkpt><trkpt lat="-32.117732062663755" lon="116.38870361855588"><ele>280.0</ele><time>2026-04-05T04:13:47.999Z</time></trkpt><trkpt lat="-32.11772719429723" lon="116.38889856399868"><ele>280.0</ele><time>2026-04-05T04:13:48.999Z</time></trkpt><trkpt lat="-32.11770432073917" lon="116.38910161241925"><ele>280.0</ele><time>2026-04-05T04:13:49.999Z</time></trkpt><trkpt lat="-32.11767184233776" lon="116.38931725022132"><ele>280.0</ele><time>2026-04-05T04:13:50.999Z</time></trkpt><trkpt lat="-32.11763888445863" lon="116.3895475311166"><ele>279.3333333333333</ele><time>2026-04-05T04:13:51.999Z</time></trkpt><trkpt lat="-32.11760199341589" lon="116.38979649484679"><ele>278.6666666666667</ele><time>2026-04-05T04:13:52.999Z</time></trkpt><trkpt lat="-32.11756519045516" lon="116.39002788575584"><ele>278.0</ele><time>2026-04-05T04:13:53.999Z</time></trkpt><trkpt lat="-32.11752247112252" lon="116.39029129967012"><ele>278.0</ele><time>2026-04-05T04:13:54.999Z</time></trkpt><trkpt lat="-32.11748240592087" lon="116.39054435133363"><ele>278.0</ele><time>2026-04-05T04:13:55.999Z</time></trkpt><trkpt lat="-32.11744584119017" lon="116.39077186649895"><ele>278.0</ele><time>2026-04-05T04:13:56.999Z</time></trkpt><trkpt lat="-32.1174105569123" lon="116.39099696142343"><ele>278.0</ele><time>2026-04-05T04:13:57.999Z</time></trkpt><trkpt lat="-32.117387255721795" lon="116.39122130235012"><ele>278.0</ele><time>2026-04-05T04:13:58.999Z</time></trkpt><trkpt lat="-32.11738084155997" lon="116.3914467890047"><ele>278.0</ele><time>2026-04-05T04:13:59.999Z</time></trkpt><trkpt lat="-32.11739407631073" lon="116.39166984416015"><ele>278.0</ele><time>2026-04-05T04:14:00.999Z</time></trkpt><trkpt lat="-32.11742507372897" lon="116.39189723173463"><ele>278.0</ele><time>2026-04-05T04:14:01.999Z</time></trkpt><trkpt lat="-32.11747317104415" lon="116.39212948820462"><ele>278.0</ele><time>2026-04-05T04:14:02.999Z</time></trkpt><trkpt lat="-32.11754393914815" lon="116.39236911775207"><ele>278.33333333333337</ele><time>2026-04-05T04:14:03.999Z</time></trkpt><trkpt lat="-32.11762260434136" lon="116.39260565526867"><ele>278.6666666666667</ele><time>2026-04-05T04:14:04.999Z</time></trkpt><trkpt lat="-32.11771676466545" lon="116.3928512672212"><ele>279.0</ele><time>2026-04-05T04:14:05.999Z</time></trkpt><trkpt lat="-32.117803117811626" lon="116.39309205907682"><ele>279.3333333333333</ele><time>2026-04-05T04:14:06.999Z</time></trkpt><trkpt lat="-32.11787544244833" lon="116.39332467453588"><ele>279.66666666666663</ele><time>2026-04-05T04:14:07.999Z</time></trkpt><trkpt lat="-32.117941818099425" lon="116.39355962511941"><ele>280.0</ele><time>2026-04-05T04:14:08.999Z</time></trkpt><trkpt lat="-32.117995314062455" lon="116.39379375761472"><ele>281.0</ele><time>2026-04-05T04:14:09.999Z</time></trkpt><trkpt lat="-32.11803572095919" lon="116.39403790483419"><ele>282.0</ele><time>2026-04-05T04:14:10.999Z</time></trkpt><trkpt lat="-32.11807038514208" lon="116.39428884115065"><ele>283.0</ele><time>2026-04-05T04:14:11.999Z</time></trkpt><trkpt lat="-32.1181091470811" lon="116.39454970727255"><ele>284.5</ele><time>2026-04-05T04:14:12.999Z</time></trkpt><trkpt lat="-32.118155965369915" lon="116.39481764981308"><ele>286.0</ele><time>2026-04-05T04:14:13.999Z</time></trkpt><trkpt lat="-32.11820442424297" lon="116.39508201078438"><ele>284.0</ele><time>2026-04-05T04:14:14.999Z</time></trkpt><trkpt lat="-32.11825187847957" lon="116.39536308105662"><ele>282.0</ele><time>2026-04-05T04:14:15.999Z</time></trkpt><trkpt lat="-32.11829833124263" lon="116.39564314425323"><ele>282.0</ele><time>2026-04-05T04:14:16.999Z</time></trkpt><trkpt lat="-32.118344604267236" lon="116.39590804419049"><ele>282.0</ele><time>2026-04-05T04:14:17.999Z</time></trkpt><trkpt lat="-32.11838491724737" lon="116.39615865642479"><ele>282.0</ele><time>2026-04-05T04:14:18.999Z</time></trkpt><trkpt lat="-32.11842587074819" lon="116.39640498752492"><ele>283.0</ele><time>2026-04-05T04:14:19.999Z</time></trkpt><trkpt lat="-32.11846920167899" lon="116.39665231485978"><ele>284.0</ele><time>2026-04-05T04:14:20.999Z</time></trkpt><trkpt lat="-32.11851199075804" lon="116.39689801748182"><ele>285.0</ele><time>2026-04-05T04:14:21.999Z</time></trkpt><trkpt lat="-32.118552435827944" lon="116.3971404490232"><ele>285.6666666666667</ele><time>2026-04-05T04:14:22.999Z</time></trkpt><trkpt lat="-32.11859045002836" lon="116.39738464665113"><ele>286.33333333333337</ele><time>2026-04-05T04:14:23.999Z</time></trkpt><trkpt lat="-32.11862850633104" lon="116.39762889516749"><ele>287.0</ele><time>2026-04-05T04:14:24.999Z</time></trkpt><trkpt lat="-32.118666271347415" lon="116.39787202838461"><ele>288.33333333333337</ele><time>2026-04-05T04:14:25.999Z</time></trkpt><trkpt lat="-32.118704263421165" lon="116.39811976694058"><ele>289.6666666666667</ele><time>2026-04-05T04:14:26.999Z</time></trkpt><trkpt lat="-32.118742022887226" lon="116.39836749170604"><ele>291.0</ele><time>2026-04-05T04:14:27.999Z</time></trkpt><trkpt lat="-32.118782479407955" lon="116.39861376037088"><ele>292.3333333333333</ele><time>2026-04-05T04:14:28.999Z</time></trkpt><trkpt lat="-32.11882158277157" lon="116.39885360561021"><ele>293.66666666666663</ele><time>2026-04-05T04:14:29.999Z</time></trkpt><trkpt lat="-32.118856859556615" lon="116.39907344903513"><ele>295.0</ele><time>2026-04-05T04:14:30.999Z</time></trkpt><trkpt lat="-32.11889399940441" lon="116.39926695989632"><ele>295.0</ele><time>2026-04-05T04:14:31.999Z</time></trkpt><trkpt lat="-32.11893010644379" lon="116.3994665810174"><ele>295.0</ele><time>2026-04-05T04:14:32.999Z</time></trkpt><trkpt lat="-32.11897047436314" lon="116.39967605898721"><ele>295.0</ele><time>2026-04-05T04:14:33.999Z</time></trkpt><trkpt lat="-32.119012852375825" lon="116.3998852328785"><ele>296.0</ele><time>2026-04-05T04:14:34.999Z</time></trkpt><trkpt lat="-32.119049223817676" lon="116.40008900446841"><ele>297.0</ele><time>2026-04-05T04:14:35.999Z</time></trkpt><trkpt lat="-32.11907888089843" lon="116.40028099095463"><ele>298.0</ele><time>2026-04-05T04:14:37Z</time></trkpt><trkpt lat="-32.11910769617684" lon="116.40046464309067"><ele>298.0</ele><time>2026-04-05T04:14:38Z</time></trkpt><trkpt lat="-32.119130049639544" lon="116.40064065540842"><ele>298.0</ele><time>2026-04-05T04:14:39Z</time></trkpt><trkpt lat="-32.11915363093329" lon="116.40080449601497"><ele>298.0</ele><time>2026-04-05T04:14:40Z</time></trkpt><trkpt lat="-32.11918051556578" lon="116.40096012637669"><ele>298.0</ele><time>2026-04-05T04:14:41Z</time></trkpt><trkpt lat="-32.11920870710477" lon="116.40110890557101"><ele>298.0</ele><time>2026-04-05T04:14:42Z</time></trkpt><trkpt lat="-32.1192354983854" lon="116.40125479937635"><ele>298.0</ele><time>2026-04-05T04:14:43Z</time></trkpt><trkpt lat="-32.119264181886166" lon="116.40141179959409"><ele>298.0</ele><time>2026-04-05T04:14:44Z</time></trkpt><trkpt lat="-32.119293340353124" lon="116.40157562579829"><ele>298.0</ele><time>2026-04-05T04:14:45Z</time></trkpt><trkpt lat="-32.11932102273875" lon="116.40174625580082"><ele>297.75</ele><time>2026-04-05T04:14:46Z</time></trkpt><trkpt lat="-32.119344284866436" lon="116.40192738823185"><ele>297.5</ele><time>2026-04-05T04:14:47Z</time></trkpt><trkpt lat="-32.11936593113701" lon="116.40210367512788"><ele>297.25</ele><time>2026-04-05T04:14:48Z</time></trkpt><trkpt lat="-32.1193829218171" lon="116.40226762745867"><ele>297.0</ele><time>2026-04-05T04:14:49Z</time></trkpt><trkpt lat="-32.11939888111018" lon="116.40243438294512"><ele>297.0</ele><time>2026-04-05T04:14:50Z</time></trkpt><trkpt lat="-32.11941131238784" lon="116.4026152637979"><ele>297.0</ele><time>2026-04-05T04:14:51Z</time></trkpt><trkpt lat="-32.11942638019893" lon="116.40280292963384"><ele>297.0</ele><time>2026-04-05T04:14:52Z</time></trkpt><trkpt lat="-32.1194471186806" lon="116.40299657824355"><ele>297.6666666666667</ele><time>2026-04-05T04:14:53Z</time></trkpt><trkpt lat="-32.119463298798486" lon="116.40319356741276"><ele>298.33333333333337</ele><time>2026-04-05T04:14:54Z</time></trkpt><trkpt lat="-32.119476274555005" lon="116.40339663089705"><ele>299.0</ele><time>2026-04-05T04:14:55Z</time></trkpt><trkpt lat="-32.11949122298894" lon="116.40360297384127"><ele>299.0</ele><time>2026-04-05T04:14:56Z</time></trkpt><trkpt lat="-32.11950554862672" lon="116.40381636086941"><ele>299.0</ele><time>2026-04-05T04:14:57Z</time></trkpt><trkpt lat="-32.1195198110224" lon="116.4040319919603"><ele>299.0</ele><time>2026-04-05T04:14:58Z</time></trkpt><trkpt lat="-32.11953319766061" lon="116.4042522892986"><ele>300.0</ele><time>2026-04-05T04:14:59Z</time></trkpt><trkpt lat="-32.11954727452359" lon="116.40446538939949"><ele>301.0</ele><time>2026-04-05T04:15:00Z</time></trkpt><trkpt lat="-32.119562810882286" lon="116.40467403713"><ele>302.0</ele><time>2026-04-05T04:15:01Z</time></trkpt><trkpt lat="-32.119575525353916" lon="116.40489175693241"><ele>303.33333333333337</ele><time>2026-04-05T04:15:02Z</time></trkpt><trkpt lat="-32.119588751577446" lon="116.40510510668344"><ele>304.6666666666667</ele><time>2026-04-05T04:15:03Z</time></trkpt><trkpt lat="-32.11960550809481" lon="116.40532786426643"><ele>306.0</ele><time>2026-04-05T04:15:04Z</time></trkpt><trkpt lat="-32.11962062992905" lon="116.40554765647663"><ele>307.3333333333333</ele><time>2026-04-05T04:15:05Z</time></trkpt><trkpt lat="-32.119637525115394" lon="116.40577406795462"><ele>308.66666666666663</ele><time>2026-04-05T04:15:06Z</time></trkpt><trkpt lat="-32.11965521285433" lon="116.40599319934665"><ele>310.0</ele><time>2026-04-05T04:15:07Z</time></trkpt><trkpt lat="-32.1196735352162" lon="116.40621410056764"><ele>312.0</ele><time>2026-04-05T04:15:08Z</time></trkpt><trkpt lat="-32.119696730818546" lon="116.40644640919605"><ele>314.0</ele><time>2026-04-05T04:15:09Z</time></trkpt><trkpt lat="-32.119720762724576" lon="116.40665161255649"><ele>316.0</ele><time>2026-04-05T04:15:10Z</time></trkpt><trkpt lat="-32.119738512429095" lon="116.4068624604522"><ele>316.0</ele><time>2026-04-05T04:15:11Z</time></trkpt><trkpt lat="-32.119757255229594" lon="116.40705641877148"><ele>316.0</ele><time>2026-04-05T04:15:12Z</time></trkpt><trkpt lat="-32.11977911705879" lon="116.40726796352946"><ele>316.0</ele><time>2026-04-05T04:15:13Z</time></trkpt><trkpt lat="-32.11979890054526" lon="116.40747302895859"><ele>317.0</ele><time>2026-04-05T04:15:14Z</time></trkpt><trkpt lat="-32.11982284563699" lon="116.40768037967896"><ele>318.0</ele><time>2026-04-05T04:15:15Z</time></trkpt><trkpt lat="-32.11985194081133" lon="116.4079050963782"><ele>319.0</ele><time>2026-04-05T04:15:16Z</time></trkpt><trkpt lat="-32.119885678146005" lon="116.40813467845355"><ele>320.3333333333333</ele><time>2026-04-05T04:15:17Z</time></trkpt><trkpt lat="-32.11992493650908" lon="116.40837608696512"><ele>321.6666666666667</ele><time>2026-04-05T04:15:18Z</time></trkpt><trkpt lat="-32.119965160410345" lon="116.40861508398429"><ele>323.0</ele><time>2026-04-05T04:15:19Z</time></trkpt><trkpt lat="-32.12000631715341" lon="116.40882716836823"><ele>323.0</ele><time>2026-04-05T04:15:20Z</time></trkpt><trkpt lat="-32.12004469882734" lon="116.4090252486726"><ele>323.0</ele><time>2026-04-05T04:15:21Z</time></trkpt><trkpt lat="-32.12008108060919" lon="116.40922468116914"><ele>323.0</ele><time>2026-04-05T04:15:22Z</time></trkpt><trkpt lat="-32.12012219054087" lon="116.40943263458165"><ele>323.0</ele><time>2026-04-05T04:15:23Z</time></trkpt><trkpt lat="-32.120159841758586" lon="116.40962646677359"><ele>323.0</ele><time>2026-04-05T04:15:24Z</time></trkpt><trkpt lat="-32.12019710978796" lon="116.40980665365147"><ele>323.0</ele><time>2026-04-05T04:15:25Z</time></trkpt><trkpt lat="-32.12023431165108" lon="116.40996964702506"><ele>323.33333333333337</ele><time>2026-04-05T04:15:26Z</time></trkpt><trkpt lat="-32.1202789947526" lon="116.41012835282301"><ele>323.6666666666667</ele><time>2026-04-05T04:15:27Z</time></trkpt><trkpt lat="-32.12033628842404" lon="116.41029667298467"><ele>324.0</ele><time>2026-04-05T04:15:28Z</time></trkpt><trkpt lat="-32.12040536222339" lon="116.41047067881094"><ele>323.3333333333333</ele><time>2026-04-05T04:15:29Z</time></trkpt><trkpt lat="-32.120482486195314" lon="116.41064642736596"><ele>322.66666666666663</ele><time>2026-04-05T04:15:30Z</time></trkpt><trkpt lat="-32.12056461272398" lon="116.41081016562714"><ele>322.0</ele><time>2026-04-05T04:15:31Z</time></trkpt><trkpt lat="-32.12066151960001" lon="116.4109666807451"><ele>321.66666666666663</ele><time>2026-04-05T04:15:32Z</time></trkpt><trkpt lat="-32.120771310824125" lon="116.41113278572406"><ele>321.3333333333333</ele><time>2026-04-05T04:15:33Z</time></trkpt><trkpt lat="-32.12089695878588" lon="116.41129978585403"><ele>321.0</ele><time>2026-04-05T04:15:34Z</time></trkpt><trkpt lat="-32.1210367570247" lon="116.4114701641998"><ele>320.3333333333333</ele><time>2026-04-05T04:15:35Z</time></trkpt><trkpt lat="-32.12118330523344" lon="116.41164513111511"><ele>319.66666666666663</ele><time>2026-04-05T04:15:36Z</time></trkpt><trkpt lat="-32.12133261005465" lon="116.41182314480248"><ele>319.0</ele><time>2026-04-05T04:15:37Z</time></trkpt><trkpt lat="-32.12149088244263" lon="116.41200657506286"><ele>317.66666666666663</ele><time>2026-04-05T04:15:38Z</time></trkpt><trkpt lat="-32.12164785492918" lon="116.41218535628477"><ele>316.3333333333333</ele><time>2026-04-05T04:15:39Z</time></trkpt><trkpt lat="-32.121808733539496" lon="116.41237049724562"><ele>315.0</ele><time>2026-04-05T04:15:40Z</time></trkpt><trkpt lat="-32.12196568220757" lon="116.41254640208982"><ele>315.0</ele><time>2026-04-05T04:15:41Z</time></trkpt><trkpt lat="-32.12213092510141" lon="116.4127270422384"><ele>315.0</ele><time>2026-04-05T04:15:42Z</time></trkpt><trkpt lat="-32.12229648169131" lon="116.41290297552875"><ele>315.0</ele><time>2026-04-05T04:15:43Z</time></trkpt><trkpt lat="-32.12246070388113" lon="116.41307387999174"><ele>315.0</ele><time>2026-04-05T04:15:44Z</time></trkpt><trkpt lat="-32.12262498272545" lon="116.41324877211268"><ele>315.0</ele><time>2026-04-05T04:15:45Z</time></trkpt><trkpt lat="-32.12279167869788" lon="116.41342170807755"><ele>315.0</ele><time>2026-04-05T04:15:46Z</time></trkpt><trkpt lat="-32.122957298714276" lon="116.41359460777832"><ele>315.0</ele><time>2026-04-05T04:15:47Z</time></trkpt><trkpt lat="-32.12311836384395" lon="116.41376563895889"><ele>315.0</ele><time>2026-04-05T04:15:48Z</time></trkpt><trkpt lat="-32.12327155004684" lon="116.41393110579259"><ele>315.0</ele><time>2026-04-05T04:15:48.999Z</time></trkpt><trkpt lat="-32.12343055162719" lon="116.41410328977756"><ele>314.3333333333333</ele><time>2026-04-05T04:15:49.999Z</time></trkpt><trkpt lat="-32.12358635383183" lon="116.41426822365024"><ele>313.66666666666663</ele><time>2026-04-05T04:15:50.999Z</time></trkpt><trkpt lat="-32.123737989440414" lon="116.41443407611116"><ele>313.0</ele><time>2026-04-05T04:15:51.999Z</time></trkpt><trkpt lat="-32.12388988193094" lon="116.41459870462673"><ele>311.0</ele><time>2026-04-05T04:15:52.999Z</time></trkpt><trkpt lat="-32.12404462104265" lon="116.41475887696612"><ele>309.0</ele><time>2026-04-05T04:15:53.999Z</time></trkpt><trkpt lat="-32.124198964213456" lon="116.41491879612306"><ele>307.0</ele><time>2026-04-05T04:15:54.999Z</time></trkpt><trkpt lat="-32.12435451587469" lon="116.41507906023064"><ele>307.0</ele><time>2026-04-05T04:15:55.999Z</time></trkpt><trkpt lat="-32.12451143994981" lon="116.41524006686032"><ele>307.0</ele><time>2026-04-05T04:15:56.999Z</time></trkpt><trkpt lat="-32.124669312506136" lon="116.415406064322"><ele>307.0</ele><time>2026-04-05T04:15:57.999Z</time></trkpt><trkpt lat="-32.124824589445105" lon="116.41557237830693"><ele>306.3333333333333</ele><time>2026-04-05T04:15:58.999Z</time></trkpt><trkpt lat="-32.1249762604491" lon="116.41573467619018"><ele>305.6666666666667</ele><time>2026-04-05T04:15:59.999Z</time></trkpt><trkpt lat="-32.12512728139345" lon="116.41590382550673"><ele>305.0</ele><time>2026-04-05T04:16:00.999Z</time></trkpt><trkpt lat="-32.12527718338268" lon="116.4160938874127"><ele>305.0</ele><time>2026-04-05T04:16:01.999Z</time></trkpt><trkpt lat="-32.12542918191035" lon="116.41629433264343"><ele>305.0</ele><time>2026-04-05T04:16:02.999Z</time></trkpt><trkpt lat="-32.12557960970386" lon="116.41650260860659"><ele>305.5</ele><time>2026-04-05T04:16:03.999Z</time></trkpt><trkpt lat="-32.125726860998554" lon="116.41670708992952"><ele>306.0</ele><time>2026-04-05T04:16:04.999Z</time></trkpt><trkpt lat="-32.125874404329565" lon="116.41690455623451"><ele>306.0</ele><time>2026-04-05T04:16:05.999Z</time></trkpt><trkpt lat="-32.126012401194565" lon="116.41710059184929"><ele>306.0</ele><time>2026-04-05T04:16:06.999Z</time></trkpt><trkpt lat="-32.12615822742416" lon="116.41730351812488"><ele>306.0</ele><time>2026-04-05T04:16:07.999Z</time></trkpt><trkpt lat="-32.126293642066756" lon="116.41748712243692"><ele>306.0</ele><time>2026-04-05T04:16:08.999Z</time></trkpt><trkpt lat="-32.126428039481674" lon="116.4176783192958"><ele>306.0</ele><time>2026-04-05T04:16:09.999Z</time></trkpt><trkpt lat="-32.12656255371423" lon="116.41786893431603"><ele>306.0</ele><time>2026-04-05T04:16:10.999Z</time></trkpt><trkpt lat="-32.12669929684168" lon="116.41805399947938"><ele>306.0</ele><time>2026-04-05T04:16:11.999Z</time></trkpt><trkpt lat="-32.1268410551303" lon="116.4182466428266"><ele>306.0</ele><time>2026-04-05T04:16:12.999Z</time></trkpt><trkpt lat="-32.126980372693176" lon="116.41843691125088"><ele>306.0</ele><time>2026-04-05T04:16:13.999Z</time></trkpt><trkpt lat="-32.12710907487557" lon="116.41862062998511"><ele>306.0</ele><time>2026-04-05T04:16:14.999Z</time></trkpt><trkpt lat="-32.12723569861311" lon="116.41880909127691"><ele>306.0</ele><time>2026-04-05T04:16:15.999Z</time></trkpt><trkpt lat="-32.127352328015235" lon="116.41899947688178"><ele>306.0</ele><time>2026-04-05T04:16:16.999Z</time></trkpt><trkpt lat="-32.127468819674405" lon="116.41919911260003"><ele>307.3333333333333</ele><time>2026-04-05T04:16:17.999Z</time></trkpt><trkpt lat="-32.12759205597808" lon="116.41940373894126"><ele>308.66666666666663</ele><time>2026-04-05T04:16:18.999Z</time></trkpt><trkpt lat="-32.12771487638173" lon="116.41961397840751"><ele>310.0</ele><time>2026-04-05T04:16:19.999Z</time></trkpt><trkpt lat="-32.12782511909541" lon="116.41980663582108"><ele>311.3333333333333</ele><time>2026-04-05T04:16:20.999Z</time></trkpt><trkpt lat="-32.12792455043652" lon="116.41998960783732"><ele>312.6666666666667</ele><time>2026-04-05T04:16:21.999Z</time></trkpt><trkpt lat="-32.128014548161694" lon="116.4201623608934"><ele>314.0</ele><time>2026-04-05T04:16:22.999Z</time></trkpt><trkpt lat="-32.12809507731416" lon="116.42032368481807"><ele>314.0</ele><time>2026-04-05T04:16:23.999Z</time></trkpt><trkpt lat="-32.12817083371462" lon="116.42048148753886"><ele>314.0</ele><time>2026-04-05T04:16:24.999Z</time></trkpt><trkpt lat="-32.128237586850624" lon="116.42063464676241"><ele>314.0</ele><time>2026-04-05T04:16:25.999Z</time></trkpt><trkpt lat="-32.12830142368432" lon="116.4207736815115"><ele>314.0</ele><time>2026-04-05T04:16:26.999Z</time></trkpt><trkpt lat="-32.12836941649072" lon="116.42091260231533"><ele>314.0</ele><time>2026-04-05T04:16:27.999Z</time></trkpt><trkpt lat="-32.1284430783867" lon="116.42106260330578"><ele>314.0</ele><time>2026-04-05T04:16:28.999Z</time></trkpt><trkpt lat="-32.12852488373298" lon="116.42123034384667"><ele>314.0</ele><time>2026-04-05T04:16:29.999Z</time></trkpt><trkpt lat="-32.12860589922463" lon="116.42140806549078"><ele>314.6666666666667</ele><time>2026-04-05T04:16:30.999Z</time></trkpt><trkpt lat="-32.1286819331869" lon="116.42159152219013"><ele>315.3333333333333</ele><time>2026-04-05T04:16:31.999Z</time></trkpt><trkpt lat="-32.12875333306836" lon="116.42176832548769"><ele>316.0</ele><time>2026-04-05T04:16:32.999Z</time></trkpt><trkpt lat="-32.128819606362846" lon="116.42193899820344"><ele>316.0</ele><time>2026-04-05T04:16:33.999Z</time></trkpt><trkpt lat="-32.12888268123658" lon="116.42211421598839"><ele>316.0</ele><time>2026-04-05T04:16:34.999Z</time></trkpt><trkpt lat="-32.1289366257006" lon="116.42228026958396"><ele>316.0</ele><time>2026-04-05T04:16:35.999Z</time></trkpt><trkpt lat="-32.128980213076" lon="116.42242866914887"><ele>316.0</ele><time>2026-04-05T04:16:36.999Z</time></trkpt><trkpt lat="-32.12901751732878" lon="116.42256049958257"><ele>315.8</ele><time>2026-04-05T04:16:37.999Z</time></trkpt><trkpt lat="-32.12905257169078" lon="116.42268509865558"><ele>315.6</ele><time>2026-04-05T04:16:38.999Z</time></trkpt><trkpt lat="-32.12907976169146" lon="116.42279773894738"><ele>315.4</ele><time>2026-04-05T04:16:39.999Z</time></trkpt><trkpt lat="-32.12910054309185" lon="116.42289998145566"><ele>315.2</ele><time>2026-04-05T04:16:40.999Z</time></trkpt><trkpt lat="-32.129120073151974" lon="116.42299513349256"><ele>315.0</ele><time>2026-04-05T04:16:41.999Z</time></trkpt><trkpt lat="-32.12914304326987" lon="116.4230895400791"><ele>315.0</ele><time>2026-04-05T04:16:43Z</time></trkpt><trkpt lat="-32.129162518668" lon="116.4231849236081"><ele>315.0</ele><time>2026-04-05T04:16:44Z</time></trkpt><trkpt lat="-32.12918185968985" lon="116.4232791547876"><ele>315.0</ele><time>2026-04-05T04:16:45Z</time></trkpt><trkpt lat="-32.1292007916228" lon="116.42337832006609"><ele>315.0</ele><time>2026-04-05T04:16:46Z</time></trkpt><trkpt lat="-32.129219029132734" lon="116.42347407295428"><ele>315.0</ele><time>2026-04-05T04:16:47Z</time></trkpt><trkpt lat="-32.129242884963965" lon="116.42356910436891"><ele>315.0</ele><time>2026-04-05T04:16:48Z</time></trkpt><trkpt lat="-32.12926646781247" lon="116.4236630753185"><ele>315.0</ele><time>2026-04-05T04:16:49Z</time></trkpt><trkpt lat="-32.12928973953734" lon="116.4237603832624"><ele>315.0</ele><time>2026-04-05T04:16:50Z</time></trkpt><trkpt lat="-32.12931546989917" lon="116.4238554285138"><ele>315.0</ele><time>2026-04-05T04:16:51Z</time></trkpt><trkpt lat="-32.12933975286124" lon="116.42395233773665"><ele>315.0</ele><time>2026-04-05T04:16:52Z</time></trkpt><trkpt lat="-32.12936696073378" lon="116.42404702216315"><ele>315.0</ele><time>2026-04-05T04:16:53Z</time></trkpt><trkpt lat="-32.12939330353574" lon="116.4241384274477"><ele>315.0</ele><time>2026-04-05T04:16:54Z</time></trkpt><trkpt lat="-32.129417867933235" lon="116.4242306717176"><ele>313.8333333333333</ele><time>2026-04-05T04:16:55Z</time></trkpt><trkpt lat="-32.12944485445672" lon="116.4243168124504"><ele>312.6666666666667</ele><time>2026-04-05T04:16:56Z</time></trkpt><trkpt lat="-32.129472475930086" lon="116.42440884528126"><ele>311.5</ele><time>2026-04-05T04:16:57Z</time></trkpt><trkpt lat="-32.12949887423681" lon="116.42449574438766"><ele>310.33333333333337</ele><time>2026-04-05T04:16:58Z</time></trkpt><trkpt lat="-32.12952337341212" lon="116.42457559088695"><ele>309.1666666666667</ele><time>2026-04-05T04:16:59Z</time></trkpt><trkpt lat="-32.12955007404677" lon="116.42467154246668"><ele>308.0</ele><time>2026-04-05T04:17:00Z</time></trkpt><trkpt lat="-32.129573251743494" lon="116.42476947405018"><ele>306.25</ele><time>2026-04-05T04:17:01Z</time></trkpt><trkpt lat="-32.129604793131705" lon="116.42488484270481"><ele>304.5</ele><time>2026-04-05T04:17:02Z</time></trkpt><trkpt lat="-32.12963963009743" lon="116.425011545118"><ele>302.75</ele><time>2026-04-05T04:17:03Z</time></trkpt><trkpt lat="-32.12967670679451" lon="116.4251429563169"><ele>301.0</ele><time>2026-04-05T04:17:04Z</time></trkpt><trkpt lat="-32.12971555291838" lon="116.42528007947625"><ele>301.0</ele><time>2026-04-05T04:17:05Z</time></trkpt><trkpt lat="-32.12976298187991" lon="116.42544351636171"><ele>301.0</ele><time>2026-04-05T04:17:06Z</time></trkpt><trkpt lat="-32.12981132639463" lon="116.42561426015179"><ele>301.0</ele><time>2026-04-05T04:17:07Z</time></trkpt><trkpt lat="-32.129865047514265" lon="116.42578684414218"><ele>298.66666666666663</ele><time>2026-04-05T04:17:08Z</time></trkpt><trkpt lat="-32.129925699736894" lon="116.42597652085743"><ele>296.3333333333333</ele><time>2026-04-05T04:17:09Z</time></trkpt><trkpt lat="-32.12999570518771" lon="116.42616298773001"><ele>294.0</ele><time>2026-04-05T04:17:10Z</time></trkpt><trkpt lat="-32.13007595549497" lon="116.42635585215902"><ele>292.0</ele><time>2026-04-05T04:17:11Z</time></trkpt><trkpt lat="-32.13016201364234" lon="116.42655925394833"><ele>290.0</ele><time>2026-04-05T04:17:12Z</time></trkpt><trkpt lat="-32.130253519577074" lon="116.4267468503392"><ele>288.0</ele><time>2026-04-05T04:17:13Z</time></trkpt><trkpt lat="-32.1303441961807" lon="116.42691672303481"><ele>288.0</ele><time>2026-04-05T04:17:14Z</time></trkpt><trkpt lat="-32.130434938039734" lon="116.42709022746679"><ele>288.0</ele><time>2026-04-05T04:17:15Z</time></trkpt><trkpt lat="-32.130521283637265" lon="116.42725380137692"><ele>288.0</ele><time>2026-04-05T04:17:16Z</time></trkpt><trkpt lat="-32.13061467075936" lon="116.42742228940816"><ele>287.0</ele><time>2026-04-05T04:17:17Z</time></trkpt><trkpt lat="-32.13071535282296" lon="116.42760018107094"><ele>286.0</ele><time>2026-04-05T04:17:18Z</time></trkpt><trkpt lat="-32.13083058596836" lon="116.42777919792033"><ele>285.0</ele><time>2026-04-05T04:17:19Z</time></trkpt><trkpt lat="-32.13094097622337" lon="116.42795939855951"><ele>284.6666666666667</ele><time>2026-04-05T04:17:20Z</time></trkpt><trkpt lat="-32.13105204566776" lon="116.42814068251722"><ele>284.33333333333337</ele><time>2026-04-05T04:17:21Z</time></trkpt><trkpt lat="-32.13115804430562" lon="116.42831244009315"><ele>284.0</ele><time>2026-04-05T04:17:22Z</time></trkpt><trkpt lat="-32.1312588379242" lon="116.42847811486585"><ele>284.0</ele><time>2026-04-05T04:17:23Z</time></trkpt><trkpt lat="-32.13136253495129" lon="116.42865169078922"><ele>284.0</ele><time>2026-04-05T04:17:24Z</time></trkpt><trkpt lat="-32.13146340096837" lon="116.42882220010844"><ele>284.0</ele><time>2026-04-05T04:17:25Z</time></trkpt><trkpt lat="-32.13155533755873" lon="116.42898475864675"><ele>286.0</ele><time>2026-04-05T04:17:26Z</time></trkpt><trkpt lat="-32.13164489984225" lon="116.4291560269517"><ele>288.0</ele><time>2026-04-05T04:17:27Z</time></trkpt><trkpt lat="-32.13173367028767" lon="116.42933164734616"><ele>290.0</ele><time>2026-04-05T04:17:28Z</time></trkpt><trkpt lat="-32.13182654373375" lon="116.42951475138031"><ele>290.33333333333337</ele><time>2026-04-05T04:17:29Z</time></trkpt><trkpt lat="-32.13191247975235" lon="116.42968287001004"><ele>290.6666666666667</ele><time>2026-04-05T04:17:30Z</time></trkpt><trkpt lat="-32.13198620951526" lon="116.42985285943436"><ele>291.0</ele><time>2026-04-05T04:17:31Z</time></trkpt><trkpt lat="-32.132063393072805" lon="116.4300404225631"><ele>291.0</ele><time>2026-04-05T04:17:32Z</time></trkpt><trkpt lat="-32.13215422199907" lon="116.4302290611042"><ele>291.0</ele><time>2026-04-05T04:17:33Z</time></trkpt><trkpt lat="-32.132249242227495" lon="116.43042237119658"><ele>291.0</ele><time>2026-04-05T04:17:34Z</time></trkpt><trkpt lat="-32.13233538107442" lon="116.43061112055942"><ele>291.0</ele><time>2026-04-05T04:17:35Z</time></trkpt><trkpt lat="-32.132403596676234" lon="116.43079561616891"><ele>291.0</ele><time>2026-04-05T04:17:36Z</time></trkpt><trkpt lat="-32.13245690739365" lon="116.43098172521358"><ele>291.0</ele><time>2026-04-05T04:17:37Z</time></trkpt><trkpt lat="-32.132504762225295" lon="116.43118791311811"><ele>290.6666666666667</ele><time>2026-04-05T04:17:38Z</time></trkpt><trkpt lat="-32.1325452251958" lon="116.43140334142802"><ele>290.33333333333337</ele><time>2026-04-05T04:17:39Z</time></trkpt><trkpt lat="-32.13258400320455" lon="116.43162082450725"><ele>290.0</ele><time>2026-04-05T04:17:40Z</time></trkpt><trkpt lat="-32.13261814036265" lon="116.43182882663785"><ele>290.0</ele><time>2026-04-05T04:17:41Z</time></trkpt><trkpt lat="-32.13265698439912" lon="116.43203224588902"><ele>290.0</ele><time>2026-04-05T04:17:42Z</time></trkpt><trkpt lat="-32.13269428888508" lon="116.43224153509216"><ele>290.0</ele><time>2026-04-05T04:17:43Z</time></trkpt><trkpt lat="-32.132732157267355" lon="116.43244809076887"><ele>290.0</ele><time>2026-04-05T04:17:44Z</time></trkpt><trkpt lat="-32.13276912305702" lon="116.43266443469838"><ele>290.0</ele><time>2026-04-05T04:17:45Z</time></trkpt><trkpt lat="-32.13280282868105" lon="116.4328855643996"><ele>290.0</ele><time>2026-04-05T04:17:46Z</time></trkpt><trkpt lat="-32.13283040504768" lon="116.43311733727042"><ele>287.6666666666667</ele><time>2026-04-05T04:17:47Z</time></trkpt><trkpt lat="-32.132853769323255" lon="116.43335443537373"><ele>285.3333333333333</ele><time>2026-04-05T04:17:48Z</time></trkpt><trkpt lat="-32.13287377981542" lon="116.43357085133655"><ele>283.0</ele><time>2026-04-05T04:17:49Z</time></trkpt><trkpt lat="-32.13287921493317" lon="116.43378194827494"><ele>283.3333333333333</ele><time>2026-04-05T04:17:49.999Z</time></trkpt><trkpt lat="-32.13288001700725" lon="116.43399827402045"><ele>283.6666666666667</ele><time>2026-04-05T04:17:50.999Z</time></trkpt><trkpt lat="-32.13287715705902" lon="116.43421967098872"><ele>284.0</ele><time>2026-04-05T04:17:51.999Z</time></trkpt><trkpt lat="-32.13286425510563" lon="116.43445104273356"><ele>282.0</ele><time>2026-04-05T04:17:52.999Z</time></trkpt><trkpt lat="-32.13285114338172" lon="116.43468117027382"><ele>280.0</ele><time>2026-04-05T04:17:53.999Z</time></trkpt><trkpt lat="-32.13283423012092" lon="116.43489745405047"><ele>278.0</ele><time>2026-04-05T04:17:54.999Z</time></trkpt><trkpt lat="-32.13281952826941" lon="116.43510830515537"><ele>278.0</ele><time>2026-04-05T04:17:55.999Z</time></trkpt><trkpt lat="-32.13280796620459" lon="116.43531450416397"><ele>278.0</ele><time>2026-04-05T04:17:56.999Z</time></trkpt><trkpt lat="-32.13279990352633" lon="116.4355069243946"><ele>278.0</ele><time>2026-04-05T04:17:57.999Z</time></trkpt><trkpt lat="-32.13280559381579" lon="116.43569104875553"><ele>277.6666666666667</ele><time>2026-04-05T04:17:58.999Z</time></trkpt><trkpt lat="-32.13283289225277" lon="116.43588500330578"><ele>277.3333333333333</ele><time>2026-04-05T04:17:59.999Z</time></trkpt><trkpt lat="-32.13288990419257" lon="116.43609124721164"><ele>277.0</ele><time>2026-04-05T04:18:00.999Z</time></trkpt><trkpt lat="-32.132970668387564" lon="116.43628336455713"><ele>276.66666666666663</ele><time>2026-04-05T04:18:01.999Z</time></trkpt><trkpt lat="-32.13305942996845" lon="116.4364742605239"><ele>276.3333333333333</ele><time>2026-04-05T04:18:02.999Z</time></trkpt><trkpt lat="-32.13315378213286" lon="116.43665729884908"><ele>276.0</ele><time>2026-04-05T04:18:03.999Z</time></trkpt><trkpt lat="-32.13326601694955" lon="116.43683726840453"><ele>275.3333333333333</ele><time>2026-04-05T04:18:04.999Z</time></trkpt><trkpt lat="-32.13338441318037" lon="116.43702256835898"><ele>274.66666666666663</ele><time>2026-04-05T04:18:05.999Z</time></trkpt><trkpt lat="-32.133489555384266" lon="116.43719992112078"><ele>274.0</ele><time>2026-04-05T04:18:06.999Z</time></trkpt><trkpt lat="-32.1335831303405" lon="116.43738168881241"><ele>274.0</ele><time>2026-04-05T04:18:07.999Z</time></trkpt><trkpt lat="-32.13366572189705" lon="116.43755950831131"><ele>274.0</ele><time>2026-04-05T04:18:08.999Z</time></trkpt><trkpt lat="-32.1337302514763" lon="116.43774440686828"><ele>274.0</ele><time>2026-04-05T04:18:09.999Z</time></trkpt><trkpt lat="-32.13376766759081" lon="116.43794673657668"><ele>275.3333333333333</ele><time>2026-04-05T04:18:10.999Z</time></trkpt><trkpt lat="-32.13379033415296" lon="116.43815655719187"><ele>276.6666666666667</ele><time>2026-04-05T04:18:11.999Z</time></trkpt><trkpt lat="-32.133790674543825" lon="116.43837654527475"><ele>278.0</ele><time>2026-04-05T04:18:12.999Z</time></trkpt><trkpt lat="-32.133779272957106" lon="116.43861627123206"><ele>280.0</ele><time>2026-04-05T04:18:13.999Z</time></trkpt><trkpt lat="-32.13375544346716" lon="116.438862829924"><ele>282.0</ele><time>2026-04-05T04:18:14.999Z</time></trkpt><trkpt lat="-32.13372473209856" lon="116.43911444623075"><ele>284.0</ele><time>2026-04-05T04:18:15.999Z</time></trkpt><trkpt lat="-32.13369867090249" lon="116.43933699206556"><ele>284.0</ele><time>2026-04-05T04:18:16.999Z</time></trkpt><trkpt lat="-32.133670438758635" lon="116.4395586355893"><ele>284.0</ele><time>2026-04-05T04:18:17.999Z</time></trkpt><trkpt lat="-32.1336497547626" lon="116.43978802352184"><ele>284.0</ele><time>2026-04-05T04:18:18.999Z</time></trkpt><trkpt lat="-32.1336336181703" lon="116.44003973443535"><ele>284.33333333333337</ele><time>2026-04-05T04:18:19.999Z</time></trkpt><trkpt lat="-32.13361538845373" lon="116.44030157146709"><ele>284.6666666666667</ele><time>2026-04-05T04:18:20.999Z</time></trkpt><trkpt lat="-32.13359486544191" lon="116.44056338681335"><ele>285.0</ele><time>2026-04-05T04:18:21.999Z</time></trkpt><trkpt lat="-32.133569958534615" lon="116.44081758829022"><ele>288.3333333333333</ele><time>2026-04-05T04:18:22.999Z</time></trkpt><trkpt lat="-32.133548443791696" lon="116.44105983835581"><ele>291.66666666666663</ele><time>2026-04-05T04:18:23.999Z</time></trkpt><trkpt lat="-32.13352030179335" lon="116.44131400922362"><ele>295.0</ele><time>2026-04-05T04:18:24.999Z</time></trkpt><trkpt lat="-32.133484766886774" lon="116.4415659232628"><ele>297.0</ele><time>2026-04-05T04:18:25.999Z</time></trkpt><trkpt lat="-32.13343285649277" lon="116.44182523017237"><ele>299.0</ele><time>2026-04-05T04:18:26.999Z</time></trkpt><trkpt lat="-32.133376146642966" lon="116.44209213974842"><ele>300.6666666666667</ele><time>2026-04-05T04:18:27.999Z</time></trkpt><trkpt lat="-32.13332349678267" lon="116.44232618255012"><ele>302.3333333333333</ele><time>2026-04-05T04:18:28.999Z</time></trkpt><trkpt lat="-32.133282517612514" lon="116.44254480323978"><ele>304.0</ele><time>2026-04-05T04:18:29.999Z</time></trkpt><trkpt lat="-32.133247397843334" lon="116.44275044082354"><ele>303.66666666666663</ele><time>2026-04-05T04:18:30.999Z</time></trkpt><trkpt lat="-32.13321689602177" lon="116.44296231836204"><ele>303.3333333333333</ele><time>2026-04-05T04:18:31.999Z</time></trkpt><trkpt lat="-32.1331913506645" lon="116.4431835644651"><ele>303.0</ele><time>2026-04-05T04:18:32.999Z</time></trkpt><trkpt lat="-32.13316634594318" lon="116.44342094434327"><ele>303.6666666666667</ele><time>2026-04-05T04:18:33.999Z</time></trkpt><trkpt lat="-32.133143143692365" lon="116.44364655399092"><ele>304.33333333333337</ele><time>2026-04-05T04:18:34.999Z</time></trkpt><trkpt lat="-32.1331193351588" lon="116.44386006025276"><ele>305.0</ele><time>2026-04-05T04:18:35.999Z</time></trkpt><trkpt lat="-32.13308945830183" lon="116.44404986592794"><ele>306.0</ele><time>2026-04-05T04:18:36.999Z</time></trkpt><trkpt lat="-32.13304007815463" lon="116.44422523570614"><ele>307.0</ele><time>2026-04-05T04:18:37.999Z</time></trkpt><trkpt lat="-32.132981223778216" lon="116.44440666583864"><ele>308.0</ele><time>2026-04-05T04:18:38.999Z</time></trkpt><trkpt lat="-32.132931365901264" lon="116.44460580796304"><ele>308.0</ele><time>2026-04-05T04:18:39.999Z</time></trkpt><trkpt lat="-32.13290525537959" lon="116.44481662510046"><ele>308.0</ele><time>2026-04-05T04:18:40.999Z</time></trkpt><trkpt lat="-32.13289359052275" lon="116.44505548829417"><ele>308.0</ele><time>2026-04-05T04:18:41.999Z</time></trkpt><trkpt lat="-32.13289147844066" lon="116.44529644318486"><ele>308.33333333333337</ele><time>2026-04-05T04:18:42.999Z</time></trkpt><trkpt lat="-32.13289348009763" lon="116.44552306857932"><ele>308.6666666666667</ele><time>2026-04-05T04:18:43.999Z</time></trkpt><trkpt lat="-32.13290053228946" lon="116.44573563065453"><ele>309.0</ele><time>2026-04-05T04:18:44.999Z</time></trkpt><trkpt lat="-32.13290503986269" lon="116.44595123649732"><ele>309.0</ele><time>2026-04-05T04:18:45.999Z</time></trkpt><trkpt lat="-32.13291035039687" lon="116.44616779651116"><ele>309.0</ele><time>2026-04-05T04:18:46.999Z</time></trkpt><trkpt lat="-32.132908564444435" lon="116.4463724882703"><ele>309.0</ele><time>2026-04-05T04:18:48Z</time></trkpt><trkpt lat="-32.13289152773741" lon="116.44656151768572"><ele>309.0</ele><time>2026-04-05T04:18:49Z</time></trkpt><trkpt lat="-32.132864512816155" lon="116.44675131100632"><ele>309.0</ele><time>2026-04-05T04:18:50Z</time></trkpt><trkpt lat="-32.132827461574706" lon="116.44692737775905"><ele>309.0</ele><time>2026-04-05T04:18:51Z</time></trkpt><trkpt lat="-32.132781744946364" lon="116.44711267518646"><ele>308.3333333333333</ele><time>2026-04-05T04:18:52Z</time></trkpt><trkpt lat="-32.13273664440981" lon="116.44729839406071"><ele>307.66666666666663</ele><time>2026-04-05T04:18:53Z</time></trkpt><trkpt lat="-32.1326997410488" lon="116.44750272648879"><ele>307.0</ele><time>2026-04-05T04:18:54Z</time></trkpt><trkpt lat="-32.13267830614807" lon="116.44772012778199"><ele>307.0</ele><time>2026-04-05T04:18:55Z</time></trkpt><trkpt lat="-32.13268187612772" lon="116.44795979579158"><ele>307.0</ele><time>2026-04-05T04:18:56Z</time></trkpt><trkpt lat="-32.13269829565936" lon="116.44819259906382"><ele>307.0</ele><time>2026-04-05T04:18:57Z</time></trkpt><trkpt lat="-32.1327214291403" lon="116.44841031596651"><ele>307.3333333333333</ele><time>2026-04-05T04:18:58Z</time></trkpt><trkpt lat="-32.132741168406554" lon="116.44861831409254"><ele>307.6666666666667</ele><time>2026-04-05T04:18:59Z</time></trkpt><trkpt lat="-32.132756666684756" lon="116.44881070099947"><ele>308.0</ele><time>2026-04-05T04:19:00Z</time></trkpt><trkpt lat="-32.1327676081739" lon="116.44898848907975"><ele>308.25</ele><time>2026-04-05T04:19:01Z</time></trkpt><trkpt lat="-32.13277597198439" lon="116.44914877138613"><ele>308.5</ele><time>2026-04-05T04:19:02Z</time></trkpt><trkpt lat="-32.13278888689677" lon="116.44929222275586"><ele>308.75</ele><time>2026-04-05T04:19:03Z</time></trkpt><trkpt lat="-32.13279603957807" lon="116.44941902995322"><ele>309.0</ele><time>2026-04-05T04:19:04Z</time></trkpt><trkpt lat="-32.13280467936679" lon="116.44952577397159"><ele>309.0</ele><time>2026-04-05T04:19:05Z</time></trkpt><trkpt lat="-32.132811867017054" lon="116.4496080336873"><ele>309.0</ele><time>2026-04-05T04:19:06Z</time></trkpt><trkpt lat="-32.132819994381634" lon="116.44970846818966"><ele>309.0</ele><time>2026-04-05T04:19:08Z</time></trkpt><trkpt lat="-32.13282650116866" lon="116.44979869622568"><ele>309.0</ele><time>2026-04-05T04:19:12Z</time></trkpt><trkpt lat="-32.132903264771784" lon="116.44985478308887"><ele>309.0</ele><time>2026-04-05T04:19:15Z</time></trkpt><trkpt lat="-32.13293918215982" lon="116.44992659460151"><ele>309.0</ele><time>2026-04-05T04:19:18Z</time></trkpt><trkpt lat="-32.13289201135704" lon="116.44998735521527"><ele>309.59999999999997</ele><time>2026-04-05T04:19:21Z</time></trkpt><trkpt lat="-32.13282765488267" lon="116.45007876116097"><ele>310.2</ele><time>2026-04-05T04:29:52.999Z</time></trkpt><trkpt lat="-32.13281271220894" lon="116.45018249195562"><ele>310.79999999999995</ele><time>2026-04-05T04:29:54.999Z</time></trkpt><trkpt lat="-32.13282605365367" lon="116.45030081060871"><ele>311.4</ele><time>2026-04-05T04:29:56.999Z</time></trkpt><trkpt lat="-32.13286590784827" lon="116.45043399506855"><ele>312.0</ele><time>2026-04-05T04:29:58.999Z</time></trkpt><trkpt lat="-32.13288068942091" lon="116.45051250218195"><ele>312.0</ele><time>2026-04-05T04:29:59.999Z</time></trkpt><trkpt lat="-32.1328935559056" lon="116.45060371450644"><ele>312.0</ele><time>2026-04-05T04:30:00.999Z</time></trkpt><trkpt lat="-32.13290139878829" lon="116.45071373604392"><ele>312.0</ele><time>2026-04-05T04:30:01.999Z</time></trkpt><trkpt lat="-32.1329071921834" lon="116.450838017927"><ele>312.0</ele><time>2026-04-05T04:30:02.999Z</time></trkpt><trkpt lat="-32.13291699046275" lon="116.45096080862655"><ele>312.0</ele><time>2026-04-05T04:30:03.999Z</time></trkpt><trkpt lat="-32.13292952403863" lon="116.45107649062294"><ele>312.0</ele><time>2026-04-05T04:30:04.999Z</time></trkpt><trkpt lat="-32.132936780206684" lon="116.45122783074987"><ele>312.0</ele><time>2026-04-05T04:30:05.999Z</time></trkpt><trkpt lat="-32.132944147833726" lon="116.45138792151131"><ele>312.0</ele><time>2026-04-05T04:30:06.999Z</time></trkpt><trkpt lat="-32.13295438773702" lon="116.45153430021789"><ele>312.0</ele><time>2026-04-05T04:30:07.999Z</time></trkpt><trkpt lat="-32.13296133563249" lon="116.45166799445056"><ele>312.5</ele><time>2026-04-05T04:30:08.999Z</time></trkpt><trkpt lat="-32.13297015142309" lon="116.45181368782998"><ele>313.0</ele><time>2026-04-05T04:30:09.999Z</time></trkpt><trkpt lat="-32.1329838545649" lon="116.45196526921741"><ele>313.5</ele><time>2026-04-05T04:30:10.999Z</time></trkpt><trkpt lat="-32.133000771689744" lon="116.45209716565765"><ele>314.0</ele><time>2026-04-05T04:30:11.999Z</time></trkpt><trkpt lat="-32.133014624611356" lon="116.45221501588024"><ele>314.4</ele><time>2026-04-05T04:30:12.999Z</time></trkpt><trkpt lat="-32.13302713958342" lon="116.45232339392298"><ele>314.79999999999995</ele><time>2026-04-05T04:30:13.999Z</time></trkpt><trkpt lat="-32.13304656806613" lon="116.45243487735134"><ele>315.20000000000005</ele><time>2026-04-05T04:30:14.999Z</time></trkpt><trkpt lat="-32.13307318180682" lon="116.45256897123924"><ele>315.6</ele><time>2026-04-05T04:30:15.999Z</time></trkpt><trkpt lat="-32.13310799236284" lon="116.45272100832375"><ele>316.0</ele><time>2026-04-05T04:30:16.999Z</time></trkpt><trkpt lat="-32.13314758666096" lon="116.452897739756"><ele>315.66666666666663</ele><time>2026-04-05T04:30:17.999Z</time></trkpt><trkpt lat="-32.13318864372344" lon="116.45308454679184"><ele>315.3333333333333</ele><time>2026-04-05T04:30:18.999Z</time></trkpt><trkpt lat="-32.133236701409764" lon="116.45328267094507"><ele>315.0</ele><time>2026-04-05T04:30:19.999Z</time></trkpt><trkpt lat="-32.13329365912965" lon="116.45350016132613"><ele>315.6666666666667</ele><time>2026-04-05T04:30:20.999Z</time></trkpt><trkpt lat="-32.133353695888665" lon="116.45369574071209"><ele>316.33333333333337</ele><time>2026-04-05T04:30:21.999Z</time></trkpt><trkpt lat="-32.13340680795771" lon="116.45386428784904"><ele>317.0</ele><time>2026-04-05T04:30:22.999Z</time></trkpt><trkpt lat="-32.13345889329364" lon="116.45403352155651"><ele>317.0</ele><time>2026-04-05T04:30:23.999Z</time></trkpt><trkpt lat="-32.13350315976447" lon="116.45417620458511"><ele>317.0</ele><time>2026-04-05T04:30:24.999Z</time></trkpt><trkpt lat="-32.13355014657336" lon="116.45431715089143"><ele>317.0</ele><time>2026-04-05T04:30:25.999Z</time></trkpt><trkpt lat="-32.133591676818234" lon="116.45443902783899"><ele>317.0</ele><time>2026-04-05T04:30:26.999Z</time></trkpt><trkpt lat="-32.13363001762716" lon="116.45454959957341"><ele>316.8</ele><time>2026-04-05T04:30:27.999Z</time></trkpt><trkpt lat="-32.133660286239206" lon="116.4546267214237"><ele>316.6</ele><time>2026-04-05T04:30:28.999Z</time></trkpt><trkpt lat="-32.133695889595785" lon="116.4547217515468"><ele>316.40000000000003</ele><time>2026-04-05T04:30:30.999Z</time></trkpt><trkpt lat="-32.13374310440373" lon="116.45485054204255"><ele>316.2</ele><time>2026-04-05T04:30:53.999Z</time></trkpt><trkpt lat="-32.13377809353655" lon="116.45494128076629"><ele>316.0</ele><time>2026-04-05T04:30:54.999Z</time></trkpt><trkpt lat="-32.13381624785836" lon="116.4550536161545"><ele>316.0</ele><time>2026-04-05T04:30:55.999Z</time></trkpt><trkpt lat="-32.13387013832135" lon="116.4551993067688"><ele>316.0</ele><time>2026-04-05T04:30:56.999Z</time></trkpt><trkpt lat="-32.133934024669706" lon="116.45536472008233"><ele>316.0</ele><time>2026-04-05T04:30:57.999Z</time></trkpt><trkpt lat="-32.13400228704221" lon="116.45554583867809"><ele>316.3333333333333</ele><time>2026-04-05T04:30:58.999Z</time></trkpt><trkpt lat="-32.13407359613089" lon="116.45575393563468"><ele>316.6666666666667</ele><time>2026-04-05T04:30:59.999Z</time></trkpt><trkpt lat="-32.13415936769816" lon="116.45600664898444"><ele>317.0</ele><time>2026-04-05T04:31:00.999Z</time></trkpt><trkpt lat="-32.13424585818574" lon="116.45626040687353"><ele>317.0</ele><time>2026-04-05T04:31:01.999Z</time></trkpt><trkpt lat="-32.13434105606109" lon="116.45652814337284"><ele>317.0</ele><time>2026-04-05T04:31:02.999Z</time></trkpt><trkpt lat="-32.13444890454605" lon="116.45683787475014"><ele>316.5</ele><time>2026-04-05T04:31:03.999Z</time></trkpt><trkpt lat="-32.134553700281494" lon="116.45713356969134"><ele>316.0</ele><time>2026-04-05T04:31:04.999Z</time></trkpt><trkpt lat="-32.134634758788785" lon="116.45738400314589"><ele>316.0</ele><time>2026-04-05T04:31:05.999Z</time></trkpt><trkpt lat="-32.13470751589634" lon="116.4576135339925"><ele>316.0</ele><time>2026-04-05T04:31:06.999Z</time></trkpt><trkpt lat="-32.13476586941958" lon="116.45780637918867"><ele>316.0</ele><time>2026-04-05T04:31:07.999Z</time></trkpt><trkpt lat="-32.13481170011524" lon="116.45796862607945"><ele>316.0</ele><time>2026-04-05T04:31:08.999Z</time></trkpt><trkpt lat="-32.13485544497817" lon="116.4581014875073"><ele>316.0</ele><time>2026-04-05T04:31:09.999Z</time></trkpt><trkpt lat="-32.134908175043805" lon="116.4582242686523"><ele>316.0</ele><time>2026-04-05T04:31:10.999Z</time></trkpt><trkpt lat="-32.13496354014531" lon="116.45833206488149"><ele>316.0</ele><time>2026-04-05T04:31:11.999Z</time></trkpt><trkpt lat="-32.135013060590175" lon="116.45842893518775"><ele>316.0</ele><time>2026-04-05T04:31:12.999Z</time></trkpt><trkpt lat="-32.13505402339835" lon="116.45850401698536"><ele>316.16666666666663</ele><time>2026-04-05T04:31:13.999Z</time></trkpt><trkpt lat="-32.135104321581466" lon="116.45858600909327"><ele>316.3333333333333</ele><time>2026-04-05T04:31:15.999Z</time></trkpt><trkpt lat="-32.13514356226167" lon="116.4586636721017"><ele>316.5</ele><time>2026-04-05T04:31:17.999Z</time></trkpt><trkpt lat="-32.13518259172198" lon="116.45874558353366"><ele>316.6666666666667</ele><time>2026-04-05T04:31:19.999Z</time></trkpt><trkpt lat="-32.135214856506515" lon="116.4588138530097"><ele>316.83333333333337</ele><time>2026-04-05T04:31:21.999Z</time></trkpt><trkpt lat="-32.13525127957699" lon="116.45889191755687"><ele>317.0</ele><time>2026-04-05T04:31:23.999Z</time></trkpt><trkpt lat="-32.13530525721912" lon="116.45899457953561"><ele>317.8</ele><time>2026-04-05T04:31:25.999Z</time></trkpt><trkpt lat="-32.13535073738032" lon="116.459084715513"><ele>318.6</ele><time>2026-04-05T04:31:27.999Z</time></trkpt><trkpt lat="-32.13541846986873" lon="116.45922671833608"><ele>319.40000000000003</ele><time>2026-04-05T04:31:29.999Z</time></trkpt><trkpt lat="-32.13546848290665" lon="116.45931926552602"><ele>320.2</ele><time>2026-04-05T04:31:30.999Z</time></trkpt><trkpt lat="-32.13553701509614" lon="116.45943524928812"><ele>321.0</ele><time>2026-04-05T04:31:31.999Z</time></trkpt><trkpt lat="-32.13560701779468" lon="116.45956177921994"><ele>321.25</ele><time>2026-04-05T04:31:32.999Z</time></trkpt><trkpt lat="-32.1356826737381" lon="116.45969488951839"><ele>321.5</ele><time>2026-04-05T04:31:33.999Z</time></trkpt><trkpt lat="-32.13576405082788" lon="116.45982683963314"><ele>321.75</ele><time>2026-04-05T04:31:34.999Z</time></trkpt><trkpt lat="-32.135856940561595" lon="116.45997804189992"><ele>322.0</ele><time>2026-04-05T04:31:35.999Z</time></trkpt><trkpt lat="-32.13594720015313" lon="116.46012975058083"><ele>322.25</ele><time>2026-04-05T04:31:36.999Z</time></trkpt><trkpt lat="-32.13602706743138" lon="116.46026648474184"><ele>322.5</ele><time>2026-04-05T04:31:37.999Z</time></trkpt><trkpt lat="-32.13609340183588" lon="116.46039144754572"><ele>322.75</ele><time>2026-04-05T04:31:38.999Z</time></trkpt><trkpt lat="-32.13616352718319" lon="116.46050502311863"><ele>323.0</ele><time>2026-04-05T04:31:39.999Z</time></trkpt><trkpt lat="-32.13625447288979" lon="116.46062433163209"><ele>323.0</ele><time>2026-04-05T04:31:40.999Z</time></trkpt><trkpt lat="-32.136358792246746" lon="116.46076154154065"><ele>323.0</ele><time>2026-04-05T04:31:41.999Z</time></trkpt><trkpt lat="-32.13646528672215" lon="116.46090264241715"><ele>323.0</ele><time>2026-04-05T04:31:42.999Z</time></trkpt><trkpt lat="-32.13656265017331" lon="116.46104820905352"><ele>322.6666666666667</ele><time>2026-04-05T04:31:43.999Z</time></trkpt><trkpt lat="-32.13665881610961" lon="116.46121133936371"><ele>322.3333333333333</ele><time>2026-04-05T04:31:44.999Z</time></trkpt><trkpt lat="-32.136753266259426" lon="116.46138043830074"><ele>322.0</ele><time>2026-04-05T04:31:45.999Z</time></trkpt><trkpt lat="-32.13683490835152" lon="116.46154721733122"><ele>323.66666666666663</ele><time>2026-04-05T04:31:46.999Z</time></trkpt><trkpt lat="-32.13691379330548" lon="116.46170697409893"><ele>325.3333333333333</ele><time>2026-04-05T04:31:47.999Z</time></trkpt><trkpt lat="-32.13699809953879" lon="116.46185481512141"><ele>327.0</ele><time>2026-04-05T04:31:48.999Z</time></trkpt><trkpt lat="-32.13710631275887" lon="116.46199383616317"><ele>326.6666666666667</ele><time>2026-04-05T04:31:49.999Z</time></trkpt><trkpt lat="-32.13722752160213" lon="116.46212982405638"><ele>326.33333333333337</ele><time>2026-04-05T04:31:50.999Z</time></trkpt><trkpt lat="-32.137344097142545" lon="116.46228502366299"><ele>326.0</ele><time>2026-04-05T04:31:51.999Z</time></trkpt><trkpt lat="-32.137448076972504" lon="116.46243748103144"><ele>327.25</ele><time>2026-04-05T04:31:52.999Z</time></trkpt><trkpt lat="-32.13753897445186" lon="116.4625894919221"><ele>328.5</ele><time>2026-04-05T04:31:53.999Z</time></trkpt><trkpt lat="-32.13761232034841" lon="116.4627086221303"><ele>329.75</ele><time>2026-04-05T04:31:54.999Z</time></trkpt><trkpt lat="-32.13769684498413" lon="116.46281765508654"><ele>331.0</ele><time>2026-04-05T04:31:55.999Z</time></trkpt><trkpt lat="-32.13778853994039" lon="116.46294340692273"><ele>329.3333333333333</ele><time>2026-04-05T04:31:56.999Z</time></trkpt><trkpt lat="-32.137884730697884" lon="116.46307699646817"><ele>327.6666666666667</ele><time>2026-04-05T04:31:57.999Z</time></trkpt><trkpt lat="-32.13798017658369" lon="116.46323327881059"><ele>326.0</ele><time>2026-04-05T04:31:58.999Z</time></trkpt><trkpt lat="-32.13808815657427" lon="116.4634096127522"><ele>326.0</ele><time>2026-04-05T04:31:59.999Z</time></trkpt><trkpt lat="-32.13820557056883" lon="116.46360256924255"><ele>326.0</ele><time>2026-04-05T04:32:00.999Z</time></trkpt><trkpt lat="-32.13833330789967" lon="116.46380768415952"><ele>326.0</ele><time>2026-04-05T04:32:01.999Z</time></trkpt><trkpt lat="-32.138449732044876" lon="116.46400634385205"><ele>328.33333333333337</ele><time>2026-04-05T04:32:02.999Z</time></trkpt><trkpt lat="-32.13855575951436" lon="116.46419875956667"><ele>330.6666666666667</ele><time>2026-04-05T04:32:03.999Z</time></trkpt><trkpt lat="-32.13865509944387" lon="116.46439662229159"><ele>333.0</ele><time>2026-04-05T04:32:04.999Z</time></trkpt><trkpt lat="-32.13875704208415" lon="116.464600262727"><ele>332.6666666666667</ele><time>2026-04-05T04:32:05.999Z</time></trkpt><trkpt lat="-32.13885510626647" lon="116.46478747623071"><ele>332.33333333333337</ele><time>2026-04-05T04:32:06.999Z</time></trkpt><trkpt lat="-32.138940320016545" lon="116.46496358542583"><ele>332.0</ele><time>2026-04-05T04:32:07.999Z</time></trkpt><trkpt lat="-32.139027999869505" lon="116.46514395735987"><ele>333.0</ele><time>2026-04-05T04:32:08.999Z</time></trkpt><trkpt lat="-32.13910985528151" lon="116.46531979927708"><ele>334.0</ele><time>2026-04-05T04:32:09.999Z</time></trkpt><trkpt lat="-32.13918296943153" lon="116.46547356529423"><ele>335.0</ele><time>2026-04-05T04:32:10.999Z</time></trkpt><trkpt lat="-32.13925811860653" lon="116.46561257933791"><ele>335.6666666666667</ele><time>2026-04-05T04:32:11.999Z</time></trkpt><trkpt lat="-32.13933799233344" lon="116.46574181787835"><ele>336.3333333333333</ele><time>2026-04-05T04:32:12.999Z</time></trkpt><trkpt lat="-32.13942567804213" lon="116.46588080367353"><ele>337.0</ele><time>2026-04-05T04:32:13.999Z</time></trkpt><trkpt lat="-32.139533601295625" lon="116.46603411589483"><ele>337.0</ele><time>2026-04-05T04:32:14.999Z</time></trkpt><trkpt lat="-32.139642316950685" lon="116.46619577715767"><ele>337.0</ele><time>2026-04-05T04:32:15.999Z</time></trkpt><trkpt lat="-32.13975047334787" lon="116.46637516490206"><ele>337.0</ele><time>2026-04-05T04:32:16.999Z</time></trkpt><trkpt lat="-32.139868725407275" lon="116.46657105454571"><ele>338.0</ele><time>2026-04-05T04:32:17.999Z</time></trkpt><trkpt lat="-32.13999028795681" lon="116.46676863194497"><ele>339.0</ele><time>2026-04-05T04:32:18.999Z</time></trkpt><trkpt lat="-32.1401111957928" lon="116.46697112800877"><ele>340.0</ele><time>2026-04-05T04:32:19.999Z</time></trkpt><trkpt lat="-32.14022950946275" lon="116.46717144303284"><ele>340.66666666666663</ele><time>2026-04-05T04:32:20.999Z</time></trkpt><trkpt lat="-32.140342071945845" lon="116.46735915623256"><ele>341.3333333333333</ele><time>2026-04-05T04:32:21.999Z</time></trkpt><trkpt lat="-32.140458042425706" lon="116.46754483754093"><ele>342.0</ele><time>2026-04-05T04:32:22.999Z</time></trkpt><trkpt lat="-32.14056653061768" lon="116.4677147257017"><ele>342.0</ele><time>2026-04-05T04:32:23.999Z</time></trkpt><trkpt lat="-32.140672625400484" lon="116.46788433742839"><ele>342.0</ele><time>2026-04-05T04:32:24.999Z</time></trkpt><trkpt lat="-32.14077579660306" lon="116.46804450005583"><ele>342.0</ele><time>2026-04-05T04:32:25.999Z</time></trkpt><trkpt lat="-32.1408953941393" lon="116.46821308025368"><ele>344.6666666666667</ele><time>2026-04-05T04:32:26.999Z</time></trkpt><trkpt lat="-32.14103510178885" lon="116.46839030421349"><ele>347.33333333333337</ele><time>2026-04-05T04:32:27.999Z</time></trkpt><trkpt lat="-32.14116676064989" lon="116.46854701257683"><ele>350.0</ele><time>2026-04-05T04:32:28.999Z</time></trkpt><trkpt lat="-32.141294821826165" lon="116.46869246529138"><ele>351.33333333333337</ele><time>2026-04-05T04:32:29.999Z</time></trkpt><trkpt lat="-32.141426566441694" lon="116.46883612407696"><ele>352.6666666666667</ele><time>2026-04-05T04:32:30.999Z</time></trkpt><trkpt lat="-32.14155457415042" lon="116.46899020005016"><ele>354.0</ele><time>2026-04-05T04:32:31.999Z</time></trkpt><trkpt lat="-32.14166661305889" lon="116.46913525234963"><ele>354.0</ele><time>2026-04-05T04:32:32.999Z</time></trkpt><trkpt lat="-32.14178435388687" lon="116.46928368853735"><ele>354.0</ele><time>2026-04-05T04:32:33.999Z</time></trkpt><trkpt lat="-32.14189833243062" lon="116.4694312351797"><ele>354.0</ele><time>2026-04-05T04:32:34.999Z</time></trkpt><trkpt lat="-32.14201332959472" lon="116.46957335712668"><ele>355.6666666666667</ele><time>2026-04-05T04:32:35.999Z</time></trkpt><trkpt lat="-32.14211553347976" lon="116.46970921496478"><ele>357.33333333333337</ele><time>2026-04-05T04:32:36.999Z</time></trkpt><trkpt lat="-32.142210778735276" lon="116.46984147101065"><ele>359.0</ele><time>2026-04-05T04:32:37.999Z</time></trkpt><trkpt lat="-32.142317119858774" lon="116.46997495732462"><ele>358.6666666666667</ele><time>2026-04-05T04:32:38.999Z</time></trkpt><trkpt lat="-32.142432353020716" lon="116.47011082511884"><ele>358.3333333333333</ele><time>2026-04-05T04:32:39.999Z</time></trkpt><trkpt lat="-32.142566151797624" lon="116.47025514543346"><ele>358.0</ele><time>2026-04-05T04:32:40.999Z</time></trkpt><trkpt lat="-32.14270498652752" lon="116.47039586746173"><ele>358.0</ele><time>2026-04-05T04:32:41.999Z</time></trkpt><trkpt lat="-32.142842841213906" lon="116.4705343419326"><ele>358.0</ele><time>2026-04-05T04:32:42.999Z</time></trkpt><trkpt lat="-32.142969789425" lon="116.47067011874546"><ele>358.0</ele><time>2026-04-05T04:32:43.999Z</time></trkpt><trkpt lat="-32.14308553469758" lon="116.47081299288493"><ele>358.0</ele><time>2026-04-05T04:32:44.999Z</time></trkpt><trkpt lat="-32.14319876917652" lon="116.47097244284731"><ele>358.0</ele><time>2026-04-05T04:32:45.999Z</time></trkpt><trkpt lat="-32.143313401146095" lon="116.47114400550791"><ele>358.0</ele><time>2026-04-05T04:32:46.999Z</time></trkpt><trkpt lat="-32.143430406100606" lon="116.47133527063522"><ele>357.0</ele><time>2026-04-05T04:32:47.999Z</time></trkpt><trkpt lat="-32.14355164525795" lon="116.47154628708462"><ele>356.0</ele><time>2026-04-05T04:32:48.999Z</time></trkpt><trkpt lat="-32.14367617807906" lon="116.47175792198826"><ele>355.0</ele><time>2026-04-05T04:32:49.999Z</time></trkpt><trkpt lat="-32.143796740851094" lon="116.47196351905843"><ele>354.66666666666663</ele><time>2026-04-05T04:32:50.999Z</time></trkpt><trkpt lat="-32.143905047905974" lon="116.47215105549245"><ele>354.3333333333333</ele><time>2026-04-05T04:32:51.999Z</time></trkpt><trkpt lat="-32.14400724953977" lon="116.47234367698712"><ele>354.0</ele><time>2026-04-05T04:32:52.999Z</time></trkpt><trkpt lat="-32.14409929457643" lon="116.47253482667489"><ele>352.3333333333333</ele><time>2026-04-05T04:32:53.999Z</time></trkpt><trkpt lat="-32.14418011004422" lon="116.47272631449563"><ele>350.66666666666663</ele><time>2026-04-05T04:32:54.999Z</time></trkpt><trkpt lat="-32.14426419962204" lon="116.4729227171245"><ele>349.0</ele><time>2026-04-05T04:32:55.999Z</time></trkpt><trkpt lat="-32.144353408657665" lon="116.47311482635473"><ele>349.0</ele><time>2026-04-05T04:32:56.999Z</time></trkpt><trkpt lat="-32.14444401287091" lon="116.47329297265138"><ele>349.0</ele><time>2026-04-05T04:32:57.999Z</time></trkpt><trkpt lat="-32.14452753891815" lon="116.47345698396701"><ele>349.0</ele><time>2026-04-05T04:32:58.999Z</time></trkpt><trkpt lat="-32.14460468012187" lon="116.47361442665293"><ele>349.0</ele><time>2026-04-05T04:32:59.999Z</time></trkpt><trkpt lat="-32.14468302413397" lon="116.47376348365918"><ele>349.0</ele><time>2026-04-05T04:33:00.999Z</time></trkpt><trkpt lat="-32.14475831335746" lon="116.47389970325044"><ele>349.0</ele><time>2026-04-05T04:33:01.999Z</time></trkpt><trkpt lat="-32.144847656643265" lon="116.47403594008333"><ele>349.0</ele><time>2026-04-05T04:33:02.999Z</time></trkpt><trkpt lat="-32.144946264202616" lon="116.4741859941062"><ele>348.3333333333333</ele><time>2026-04-05T04:33:03.999Z</time></trkpt><trkpt lat="-32.14505739906574" lon="116.47434401790271"><ele>347.6666666666667</ele><time>2026-04-05T04:33:04.999Z</time></trkpt><trkpt lat="-32.145167251423935" lon="116.47448960408789"><ele>347.0</ele><time>2026-04-05T04:33:05.999Z</time></trkpt><trkpt lat="-32.145279732099645" lon="116.47464551537752"><ele>347.0</ele><time>2026-04-05T04:33:06.999Z</time></trkpt><trkpt lat="-32.14539057871607" lon="116.4748131323932"><ele>347.0</ele><time>2026-04-05T04:33:07.999Z</time></trkpt><trkpt lat="-32.145496575099536" lon="116.47498565926469"><ele>347.0</ele><time>2026-04-05T04:33:08.999Z</time></trkpt><trkpt lat="-32.14561350410734" lon="116.4751774571042"><ele>346.0</ele><time>2026-04-05T04:33:09.999Z</time></trkpt><trkpt lat="-32.1457295019924" lon="116.47536511544371"><ele>345.0</ele><time>2026-04-05T04:33:10.999Z</time></trkpt><trkpt lat="-32.145835079535175" lon="116.47555050991303"><ele>344.0</ele><time>2026-04-05T04:33:11.999Z</time></trkpt><trkpt lat="-32.145933903008704" lon="116.47573528764103"><ele>344.0</ele><time>2026-04-05T04:33:12.999Z</time></trkpt><trkpt lat="-32.14603819036008" lon="116.47593054309617"><ele>344.0</ele><time>2026-04-05T04:33:13.999Z</time></trkpt><trkpt lat="-32.14615882706447" lon="116.47613195511693"><ele>344.0</ele><time>2026-04-05T04:33:14.999Z</time></trkpt><trkpt lat="-32.146282798999884" lon="116.47633065950846"><ele>343.6666666666667</ele><time>2026-04-05T04:33:15.999Z</time></trkpt><trkpt lat="-32.14641881329338" lon="116.47653320053809"><ele>343.3333333333333</ele><time>2026-04-05T04:33:16.999Z</time></trkpt><trkpt lat="-32.14655882342995" lon="116.476721878985"><ele>343.0</ele><time>2026-04-05T04:33:17.999Z</time></trkpt><trkpt lat="-32.14670657412302" lon="116.4769097901283"><ele>343.0</ele><time>2026-04-05T04:33:18.999Z</time></trkpt><trkpt lat="-32.146858393042024" lon="116.47710150804235"><ele>343.0</ele><time>2026-04-05T04:33:19.999Z</time></trkpt><trkpt lat="-32.14700025317483" lon="116.47728085436074"><ele>343.0</ele><time>2026-04-05T04:33:20.999Z</time></trkpt><trkpt lat="-32.14714186451275" lon="116.47745199829482"><ele>343.66666666666663</ele><time>2026-04-05T04:33:21.999Z</time></trkpt><trkpt lat="-32.147284864906474" lon="116.47762363368213"><ele>344.3333333333333</ele><time>2026-04-05T04:33:22.999Z</time></trkpt><trkpt lat="-32.14742861749498" lon="116.47779981363406"><ele>345.0</ele><time>2026-04-05T04:33:23.999Z</time></trkpt><trkpt lat="-32.147573579378005" lon="116.47798317677088"><ele>345.0</ele><time>2026-04-05T04:33:24.999Z</time></trkpt><trkpt lat="-32.14771179755096" lon="116.47816245409125"><ele>345.0</ele><time>2026-04-05T04:33:25.999Z</time></trkpt><trkpt lat="-32.1478465002367" lon="116.47834228574492"><ele>345.0</ele><time>2026-04-05T04:33:26.999Z</time></trkpt><trkpt lat="-32.1479864278323" lon="116.47852904731857"><ele>345.0</ele><time>2026-04-05T04:33:27.999Z</time></trkpt><trkpt lat="-32.14811903469677" lon="116.47870928298823"><ele>345.0</ele><time>2026-04-05T04:33:28.999Z</time></trkpt><trkpt lat="-32.148267680757385" lon="116.47890625420101"><ele>345.0</ele><time>2026-04-05T04:33:29.999Z</time></trkpt><trkpt lat="-32.148401912610396" lon="116.47908853589605"><ele>346.0</ele><time>2026-04-05T04:33:30.999Z</time></trkpt><trkpt lat="-32.14852525127344" lon="116.47926022424957"><ele>347.0</ele><time>2026-04-05T04:33:31.999Z</time></trkpt><trkpt lat="-32.14863387628474" lon="116.4794265479807"><ele>348.0</ele><time>2026-04-05T04:33:32.999Z</time></trkpt><trkpt lat="-32.14874334200221" lon="116.47960836868752"><ele>348.3333333333333</ele><time>2026-04-05T04:33:33.999Z</time></trkpt><trkpt lat="-32.148857552682784" lon="116.47981289570433"><ele>348.66666666666663</ele><time>2026-04-05T04:33:34.999Z</time></trkpt><trkpt lat="-32.14896040137103" lon="116.48000808522391"><ele>349.0</ele><time>2026-04-05T04:33:35.999Z</time></trkpt><trkpt lat="-32.14907320995238" lon="116.48021357612815"><ele>349.0</ele><time>2026-04-05T04:33:36.999Z</time></trkpt><trkpt lat="-32.14918412041986" lon="116.48040305777279"><ele>349.0</ele><time>2026-04-05T04:33:37.999Z</time></trkpt><trkpt lat="-32.14931184145768" lon="116.48060842913792"><ele>349.0</ele><time>2026-04-05T04:33:38.999Z</time></trkpt><trkpt lat="-32.14945052479851" lon="116.48081487804397"><ele>348.0</ele><time>2026-04-05T04:33:39.999Z</time></trkpt><trkpt lat="-32.1495987268674" lon="116.4810224682078"><ele>347.0</ele><time>2026-04-05T04:33:40.999Z</time></trkpt><trkpt lat="-32.14975410422956" lon="116.48122931970771"><ele>346.0</ele><time>2026-04-05T04:33:41.999Z</time></trkpt><trkpt lat="-32.14991518197386" lon="116.48144400638621"><ele>345.0</ele><time>2026-04-05T04:33:42.999Z</time></trkpt><trkpt lat="-32.15007433630205" lon="116.4816608396916"><ele>345.0</ele><time>2026-04-05T04:33:43.999Z</time></trkpt><trkpt lat="-32.150232486255206" lon="116.48188274135306"><ele>345.0</ele><time>2026-04-05T04:33:44.999Z</time></trkpt><trkpt lat="-32.150382859926474" lon="116.4820964138891"><ele>344.5</ele><time>2026-04-05T04:33:45.999Z</time></trkpt><trkpt lat="-32.150540465073405" lon="116.48231889174615"><ele>344.0</ele><time>2026-04-05T04:33:46.999Z</time></trkpt><trkpt lat="-32.15068560685251" lon="116.48251715350136"><ele>344.33333333333337</ele><time>2026-04-05T04:33:47.999Z</time></trkpt><trkpt lat="-32.15081995697915" lon="116.48269460615799"><ele>344.6666666666667</ele><time>2026-04-05T04:33:48.999Z</time></trkpt><trkpt lat="-32.150934963027595" lon="116.48285200659183"><ele>345.0</ele><time>2026-04-05T04:33:49.999Z</time></trkpt><trkpt lat="-32.151054078784476" lon="116.48301718851123"><ele>345.0</ele><time>2026-04-05T04:33:50.999Z</time></trkpt><trkpt lat="-32.151173074294356" lon="116.48319019391649"><ele>345.0</ele><time>2026-04-05T04:33:51.999Z</time></trkpt><trkpt lat="-32.1512914015332" lon="116.48336703402128"><ele>345.0</ele><time>2026-04-05T04:33:52.999Z</time></trkpt><trkpt lat="-32.15140741829586" lon="116.48354428807538"><ele>345.0</ele><time>2026-04-05T04:33:53.999Z</time></trkpt><trkpt lat="-32.151523736227055" lon="116.48371423041712"><ele>345.0</ele><time>2026-04-05T04:33:54.999Z</time></trkpt><trkpt lat="-32.15164462793443" lon="116.48388835942842"><ele>345.0</ele><time>2026-04-05T04:33:55.999Z</time></trkpt><trkpt lat="-32.15177215564337" lon="116.48407933907538"><ele>345.3333333333333</ele><time>2026-04-05T04:33:56.999Z</time></trkpt><trkpt lat="-32.15188803960177" lon="116.48427007502977"><ele>345.66666666666663</ele><time>2026-04-05T04:33:57.999Z</time></trkpt><trkpt lat="-32.15200916201109" lon="116.48446448999375"><ele>346.0</ele><time>2026-04-05T04:33:58.999Z</time></trkpt><trkpt lat="-32.152124022092494" lon="116.48464108640229"><ele>346.0</ele><time>2026-04-05T04:33:59.999Z</time></trkpt><trkpt lat="-32.15224943794225" lon="116.48482668964377"><ele>346.0</ele><time>2026-04-05T04:34:00.999Z</time></trkpt><trkpt lat="-32.15237510537388" lon="116.4850005194975"><ele>346.0</ele><time>2026-04-05T04:34:01.999Z</time></trkpt><trkpt lat="-32.152505390285555" lon="116.48518668265156"><ele>346.0</ele><time>2026-04-05T04:34:02.999Z</time></trkpt><trkpt lat="-32.152619473049484" lon="116.48535488320327"><ele>346.0</ele><time>2026-04-05T04:34:03.999Z</time></trkpt><trkpt lat="-32.15272642276844" lon="116.485518029751"><ele>346.0</ele><time>2026-04-05T04:34:04.999Z</time></trkpt><trkpt lat="-32.15281690324405" lon="116.48567585326903"><ele>344.75</ele><time>2026-04-05T04:34:05.999Z</time></trkpt><trkpt lat="-32.152900043763516" lon="116.48583453520003"><ele>343.5</ele><time>2026-04-05T04:34:06.999Z</time></trkpt><trkpt lat="-32.15296701978412" lon="116.48598555686233"><ele>342.25</ele><time>2026-04-05T04:34:07.999Z</time></trkpt><trkpt lat="-32.153026009921795" lon="116.48611858163152"><ele>341.0</ele><time>2026-04-05T04:34:08.999Z</time></trkpt><trkpt lat="-32.153074851225774" lon="116.4862321098519"><ele>340.85714285714283</ele><time>2026-04-05T04:34:09.999Z</time></trkpt><trkpt lat="-32.153122022916996" lon="116.4863183091311"><ele>340.7142857142857</ele><time>2026-04-05T04:34:10.999Z</time></trkpt><trkpt lat="-32.1531690925204" lon="116.48639124719104"><ele>340.57142857142856</ele><time>2026-04-05T04:34:11.999Z</time></trkpt><trkpt lat="-32.153210369703636" lon="116.48645832022942"><ele>340.42857142857144</ele><time>2026-04-05T04:34:12.999Z</time></trkpt><trkpt lat="-32.15324668165824" lon="116.48652504514851"><ele>340.2857142857143</ele><time>2026-04-05T04:34:13.999Z</time></trkpt><trkpt lat="-32.153287440311985" lon="116.4865856769424"><ele>340.14285714285717</ele><time>2026-04-05T04:34:14.999Z</time></trkpt><trkpt lat="-32.1533296510521" lon="116.4866440451361"><ele>340.0</ele><time>2026-04-05T04:34:15.999Z</time></trkpt><trkpt lat="-32.15340160537975" lon="116.48674401188225"><ele>340.0</ele><time>2026-04-05T04:34:17.999Z</time></trkpt><trkpt lat="-32.15345503952115" lon="116.48681550771636"><ele>340.0</ele><time>2026-04-05T04:34:19.999Z</time></trkpt><trkpt lat="-32.15350165494496" lon="116.48687831366465"><ele>340.0</ele><time>2026-04-05T04:34:21.999Z</time></trkpt><trkpt lat="-32.15356365178836" lon="116.48695806531435"><ele>340.0</ele><time>2026-04-05T04:34:24.999Z</time></trkpt><trkpt lat="-32.15361930293516" lon="116.48702457271804"><ele>340.0</ele><time>2026-04-05T04:34:27.999Z</time></trkpt><trkpt lat="-32.15368217748005" lon="116.48710298307604"><ele>340.0</ele><time>2026-04-05T04:34:30.999Z</time></trkpt><trkpt lat="-32.15376674115765" lon="116.48721273841747"><ele>340.0</ele><time>2026-04-05T04:34:32.999Z</time></trkpt><trkpt lat="-32.153826775027206" lon="116.48729232901961"><ele>340.0</ele><time>2026-04-05T04:34:33.999Z</time></trkpt><trkpt lat="-32.15390315413251" lon="116.487388709232"><ele>340.0</ele><time>2026-04-05T04:34:34.999Z</time></trkpt><trkpt lat="-32.1539905823963" lon="116.48748321902399"><ele>340.0</ele><time>2026-04-05T04:34:35.999Z</time></trkpt><trkpt lat="-32.15407140480339" lon="116.4875771106022"><ele>340.0</ele><time>2026-04-05T04:34:36.999Z</time></trkpt><trkpt lat="-32.15416023345514" lon="116.48767475727381"><ele>340.66666666666663</ele><time>2026-04-05T04:34:37.999Z</time></trkpt><trkpt lat="-32.15427294492149" lon="116.48779473930853"><ele>341.3333333333333</ele><time>2026-04-05T04:34:38.999Z</time></trkpt><trkpt lat="-32.154389094413276" lon="116.48791202797148"><ele>342.0</ele><time>2026-04-05T04:34:39.999Z</time></trkpt><trkpt lat="-32.15451171012101" lon="116.48804331234132"><ele>342.0</ele><time>2026-04-05T04:34:40.999Z</time></trkpt><trkpt lat="-32.154642832901324" lon="116.48817665924898"><ele>342.0</ele><time>2026-04-05T04:34:41.999Z</time></trkpt><trkpt lat="-32.15476767124782" lon="116.48828440600377"><ele>342.0</ele><time>2026-04-05T04:34:42.999Z</time></trkpt><trkpt lat="-32.15489578744141" lon="116.4883657881251"><ele>341.0</ele><time>2026-04-05T04:34:43.999Z</time></trkpt><trkpt lat="-32.155022887533015" lon="116.4884206934528"><ele>340.0</ele><time>2026-04-05T04:34:44.999Z</time></trkpt><trkpt lat="-32.155150013249276" lon="116.48845406361521"><ele>339.0</ele><time>2026-04-05T04:34:45.999Z</time></trkpt><trkpt lat="-32.155296562748404" lon="116.48847369800188"><ele>338.0</ele><time>2026-04-05T04:34:46.999Z</time></trkpt><trkpt lat="-32.15546254562097" lon="116.48850419139916"><ele>338.0</ele><time>2026-04-05T04:34:47.999Z</time></trkpt><trkpt lat="-32.15561100154834" lon="116.48852563299249"><ele>338.0</ele><time>2026-04-05T04:34:48.999Z</time></trkpt><trkpt lat="-32.1557578149611" lon="116.48854902501107"><ele>338.0</ele><time>2026-04-05T04:34:49.999Z</time></trkpt><trkpt lat="-32.15591953100021" lon="116.48858367536499"><ele>338.0</ele><time>2026-04-05T04:34:50.999Z</time></trkpt><trkpt lat="-32.15607184125557" lon="116.48862379165683"><ele>338.0</ele><time>2026-04-05T04:34:51.999Z</time></trkpt><trkpt lat="-32.156219336248775" lon="116.48866798374404"><ele>338.0</ele><time>2026-04-05T04:34:52.999Z</time></trkpt><trkpt lat="-32.15636952634064" lon="116.48872058079074"><ele>339.6666666666667</ele><time>2026-04-05T04:34:53.999Z</time></trkpt><trkpt lat="-32.156533620919994" lon="116.48878188173494"><ele>341.3333333333333</ele><time>2026-04-05T04:34:54.999Z</time></trkpt><trkpt lat="-32.15670013285694" lon="116.48884839414376"><ele>343.0</ele><time>2026-04-05T04:34:56Z</time></trkpt><trkpt lat="-32.156889383700445" lon="116.48892892642525"><ele>343.5</ele><time>2026-04-05T04:34:57Z</time></trkpt><trkpt lat="-32.15709127928918" lon="116.48902297551149"><ele>344.0</ele><time>2026-04-05T04:34:58Z</time></trkpt><trkpt lat="-32.15731750814008" lon="116.48913174301325"><ele>344.33333333333337</ele><time>2026-04-05T04:34:59Z</time></trkpt><trkpt lat="-32.15753134375826" lon="116.48923447654671"><ele>344.6666666666667</ele><time>2026-04-05T04:35:00Z</time></trkpt><trkpt lat="-32.15771824771806" lon="116.4893290157856"><ele>345.0</ele><time>2026-04-05T04:35:01Z</time></trkpt><trkpt lat="-32.15789070725135" lon="116.48941601418412"><ele>345.0</ele><time>2026-04-05T04:35:02Z</time></trkpt><trkpt lat="-32.15804813302296" lon="116.48949981515074"><ele>345.0</ele><time>2026-04-05T04:35:03Z</time></trkpt><trkpt lat="-32.15820288576104" lon="116.48959610721823"><ele>345.0</ele><time>2026-04-05T04:35:04Z</time></trkpt><trkpt lat="-32.15835827402845" lon="116.48970198020353"><ele>344.6666666666667</ele><time>2026-04-05T04:35:05Z</time></trkpt><trkpt lat="-32.1585193478999" lon="116.48982049501161"><ele>344.33333333333337</ele><time>2026-04-05T04:35:06Z</time></trkpt><trkpt lat="-32.158666843390925" lon="116.48994101332026"><ele>344.0</ele><time>2026-04-05T04:35:07Z</time></trkpt><trkpt lat="-32.15881344937741" lon="116.49008110678486"><ele>344.0</ele><time>2026-04-05T04:35:08Z</time></trkpt><trkpt lat="-32.15895877716106" lon="116.49022545679361"><ele>344.0</ele><time>2026-04-05T04:35:09Z</time></trkpt><trkpt lat="-32.1591081313154" lon="116.49037204254091"><ele>344.0</ele><time>2026-04-05T04:35:10Z</time></trkpt><trkpt lat="-32.15926261271338" lon="116.49051863808481"><ele>341.6666666666667</ele><time>2026-04-05T04:35:11Z</time></trkpt><trkpt lat="-32.1594117514384" lon="116.49064910927244"><ele>339.3333333333333</ele><time>2026-04-05T04:35:12Z</time></trkpt><trkpt lat="-32.15954900261242" lon="116.4907643866526"><ele>337.0</ele><time>2026-04-05T04:35:13Z</time></trkpt><trkpt lat="-32.159673958875175" lon="116.49086776778618"><ele>337.0</ele><time>2026-04-05T04:35:14Z</time></trkpt><trkpt lat="-32.159794738797416" lon="116.49097553527682"><ele>337.0</ele><time>2026-04-05T04:35:15Z</time></trkpt><trkpt lat="-32.15990348462207" lon="116.49109676544492"><ele>337.0</ele><time>2026-04-05T04:35:16Z</time></trkpt><trkpt lat="-32.16002291033938" lon="116.4912398197402"><ele>335.66666666666663</ele><time>2026-04-05T04:35:17Z</time></trkpt><trkpt lat="-32.16014276866016" lon="116.4913812899698"><ele>334.3333333333333</ele><time>2026-04-05T04:35:18Z</time></trkpt><trkpt lat="-32.16025448598168" lon="116.49152522456836"><ele>333.0</ele><time>2026-04-05T04:35:19Z</time></trkpt><trkpt lat="-32.160372234960896" lon="116.4916543719664"><ele>333.0</ele><time>2026-04-05T04:35:20Z</time></trkpt><trkpt lat="-32.16048388701951" lon="116.49177042324656"><ele>333.0</ele><time>2026-04-05T04:35:21Z</time></trkpt><trkpt lat="-32.16059441427838" lon="116.49188754947708"><ele>333.0</ele><time>2026-04-05T04:35:22Z</time></trkpt><trkpt lat="-32.16070258554308" lon="116.49202259413862"><ele>330.6666666666667</ele><time>2026-04-05T04:35:23Z</time></trkpt><trkpt lat="-32.16080628325448" lon="116.49216958752395"><ele>328.33333333333337</ele><time>2026-04-05T04:35:24Z</time></trkpt><trkpt lat="-32.16091896551851" lon="116.49232378565182"><ele>326.0</ele><time>2026-04-05T04:35:25Z</time></trkpt><trkpt lat="-32.16103751029428" lon="116.4924738914849"><ele>326.0</ele><time>2026-04-05T04:35:26Z</time></trkpt><trkpt lat="-32.161160969699424" lon="116.49264187100268"><ele>326.0</ele><time>2026-04-05T04:35:27Z</time></trkpt><trkpt lat="-32.16128630290119" lon="116.49282424272528"><ele>326.0</ele><time>2026-04-05T04:35:28Z</time></trkpt><trkpt lat="-32.16141855640645" lon="116.4930075287179"><ele>323.6666666666667</ele><time>2026-04-05T04:35:29Z</time></trkpt><trkpt lat="-32.16153827168819" lon="116.49319156016936"><ele>321.3333333333333</ele><time>2026-04-05T04:35:30Z</time></trkpt><trkpt lat="-32.16164755794344" lon="116.49336301567351"><ele>319.0</ele><time>2026-04-05T04:35:31Z</time></trkpt><trkpt lat="-32.161766228040854" lon="116.4935376816135"><ele>319.0</ele><time>2026-04-05T04:35:32Z</time></trkpt><trkpt lat="-32.161883221138915" lon="116.49371499996447"><ele>319.0</ele><time>2026-04-05T04:35:33Z</time></trkpt><trkpt lat="-32.16201213110384" lon="116.49391003059695"><ele>319.0</ele><time>2026-04-05T04:35:34Z</time></trkpt><trkpt lat="-32.16213205818409" lon="116.4940964564846"><ele>318.0</ele><time>2026-04-05T04:35:35Z</time></trkpt><trkpt lat="-32.16223796685353" lon="116.49426670162133"><ele>317.0</ele><time>2026-04-05T04:35:36Z</time></trkpt><trkpt lat="-32.16233932774667" lon="116.49442694799404"><ele>316.0</ele><time>2026-04-05T04:35:37Z</time></trkpt><trkpt lat="-32.162447450723995" lon="116.49458128557035"><ele>313.66666666666663</ele><time>2026-04-05T04:35:38Z</time></trkpt><trkpt lat="-32.162557803296" lon="116.49475471312616"><ele>311.3333333333333</ele><time>2026-04-05T04:35:39Z</time></trkpt><trkpt lat="-32.16266468654966" lon="116.49490682799534"><ele>309.0</ele><time>2026-04-05T04:35:40Z</time></trkpt><trkpt lat="-32.16275533339946" lon="116.49505775951381"><ele>309.0</ele><time>2026-04-05T04:35:41Z</time></trkpt><trkpt lat="-32.162840350384755" lon="116.49521184949496"><ele>309.0</ele><time>2026-04-05T04:35:42Z</time></trkpt><trkpt lat="-32.16292480840073" lon="116.4953580395587"><ele>309.0</ele><time>2026-04-05T04:35:43Z</time></trkpt><trkpt lat="-32.16300697863533" lon="116.49549537971826"><ele>309.0</ele><time>2026-04-05T04:35:44Z</time></trkpt><trkpt lat="-32.163090679546215" lon="116.49563634105375"><ele>308.5</ele><time>2026-04-05T04:35:45Z</time></trkpt><trkpt lat="-32.16317027245016" lon="116.49577312023887"><ele>308.0</ele><time>2026-04-05T04:35:46Z</time></trkpt><trkpt lat="-32.16325118262564" lon="116.49591993116445"><ele>307.5</ele><time>2026-04-05T04:35:47Z</time></trkpt><trkpt lat="-32.16331779026665" lon="116.49607503244312"><ele>307.0</ele><time>2026-04-05T04:35:48Z</time></trkpt><trkpt lat="-32.163377092425826" lon="116.49622327344593"><ele>304.5</ele><time>2026-04-05T04:35:49Z</time></trkpt><trkpt lat="-32.16343207665162" lon="116.49636466717013"><ele>302.0</ele><time>2026-04-05T04:35:50Z</time></trkpt><trkpt lat="-32.16348019669465" lon="116.49649642643156"><ele>299.5</ele><time>2026-04-05T04:35:51Z</time></trkpt><trkpt lat="-32.1635290164246" lon="116.49661496140138"><ele>297.0</ele><time>2026-04-05T04:35:52Z</time></trkpt><trkpt lat="-32.16356850745903" lon="116.4967281554583"><ele>297.0</ele><time>2026-04-05T04:35:53Z</time></trkpt><trkpt lat="-32.163610631746295" lon="116.49683077914324"><ele>297.0</ele><time>2026-04-05T04:35:54Z</time></trkpt><trkpt lat="-32.163651238466464" lon="116.49691756090958"><ele>297.0</ele><time>2026-04-05T04:35:55Z</time></trkpt><trkpt lat="-32.16369017215895" lon="116.49700501971314"><ele>297.0</ele><time>2026-04-05T04:35:56Z</time></trkpt><trkpt lat="-32.163724862064974" lon="116.49708777885056"><ele>297.0</ele><time>2026-04-05T04:35:57Z</time></trkpt><trkpt lat="-32.163768871829824" lon="116.4971988045104"><ele>297.0</ele><time>2026-04-05T04:35:59Z</time></trkpt><trkpt lat="-32.16381189549346" lon="116.49726574027055"><ele>297.0</ele><time>2026-04-05T04:36:02Z</time></trkpt><trkpt lat="-32.163819786090144" lon="116.4973443488845"><ele>297.0</ele><time>2026-04-05T04:36:12Z</time></trkpt><trkpt lat="-32.16375509900957" lon="116.49732914197365"><ele>297.0</ele><time>2026-04-05T04:36:17Z</time></trkpt><trkpt lat="-32.1637656454526" lon="116.49722134508862"><ele>297.0</ele><time>2026-04-05T04:36:21Z</time></trkpt><trkpt lat="-32.16375635914097" lon="116.49712893114692"><ele>297.0</ele><time>2026-04-05T04:36:23Z</time></trkpt><trkpt lat="-32.163702917981865" lon="116.49704888822652"><ele>297.0</ele><time>2026-04-05T04:36:24Z</time></trkpt><trkpt lat="-32.16366980084577" lon="116.49694943541056"><ele>297.0</ele><time>2026-04-05T04:36:25Z</time></trkpt><trkpt lat="-32.16362744878365" lon="116.49685013562645"><ele>297.0</ele><time>2026-04-05T04:36:26Z</time></trkpt><trkpt lat="-32.163582159745" lon="116.49674317071701"><ele>297.0</ele><time>2026-04-05T04:36:27Z</time></trkpt><trkpt lat="-32.163534869165076" lon="116.49662946150491"><ele>297.0</ele><time>2026-04-05T04:36:28Z</time></trkpt><trkpt lat="-32.163486338790314" lon="116.49650258441707"><ele>297.0</ele><time>2026-04-05T04:36:29Z</time></trkpt><trkpt lat="-32.163434759798264" lon="116.496373518659"><ele>299.0</ele><time>2026-04-05T04:36:30Z</time></trkpt><trkpt lat="-32.16338659807086" lon="116.49624984072223"><ele>301.0</ele><time>2026-04-05T04:36:31Z</time></trkpt><trkpt lat="-32.16333534863857" lon="116.49612310806027"><ele>303.0</ele><time>2026-04-05T04:36:32Z</time></trkpt><trkpt lat="-32.16328462527385" lon="116.49599790299324"><ele>305.0</ele><time>2026-04-05T04:36:33Z</time></trkpt><trkpt lat="-32.16323393835378" lon="116.49587794173831"><ele>305.4</ele><time>2026-04-05T04:36:34Z</time></trkpt><trkpt lat="-32.16317794492639" lon="116.49575368387298"><ele>305.8</ele><time>2026-04-05T04:36:35Z</time></trkpt><trkpt lat="-32.16311588929993" lon="116.49564715989895"><ele>306.2</ele><time>2026-04-05T04:36:36Z</time></trkpt><trkpt lat="-32.163061177540875" lon="116.49555758367094"><ele>306.6</ele><time>2026-04-05T04:36:37Z</time></trkpt><trkpt lat="-32.16301544398724" lon="116.49548626618983"><ele>307.0</ele><time>2026-04-05T04:36:38Z</time></trkpt><trkpt lat="-32.16295554099563" lon="116.49545966055489"><ele>307.0</ele><time>2026-04-05T04:37:03Z</time></trkpt><trkpt lat="-32.16292778891047" lon="116.49554990518132"><ele>307.0</ele><time>2026-04-05T04:37:05Z</time></trkpt><trkpt lat="-32.16289372785507" lon="116.49567259373899"><ele>307.0</ele><time>2026-04-05T04:37:07Z</time></trkpt><trkpt lat="-32.16286389355936" lon="116.49574844174384"><ele>307.0</ele><time>2026-04-05T04:37:08Z</time></trkpt><trkpt lat="-32.16279696554142" lon="116.49585875648872"><ele>307.0</ele><time>2026-04-05T04:37:10Z</time></trkpt><trkpt lat="-32.162711615743326" lon="116.4959315287408"><ele>307.0</ele><time>2026-04-05T04:37:12Z</time></trkpt><trkpt lat="-32.1625826976224" lon="116.4959696412492"><ele>307.0</ele><time>2026-04-05T04:37:14Z</time></trkpt><trkpt lat="-32.162516761006124" lon="116.49599468110927"><ele>307.0</ele><time>2026-04-05T04:37:15Z</time></trkpt><trkpt lat="-32.16243767498662" lon="116.49602887906613"><ele>307.0</ele><time>2026-04-05T04:37:16Z</time></trkpt><trkpt lat="-32.162370634639714" lon="116.49605597755837"><ele>307.0</ele><time>2026-04-05T04:37:17Z</time></trkpt><trkpt lat="-32.16225960832436" lon="116.49612413828088"><ele>306.71428571428567</ele><time>2026-04-05T04:37:19Z</time></trkpt><trkpt lat="-32.162202981603855" lon="116.49617452148506"><ele>306.42857142857144</ele><time>2026-04-05T04:37:20Z</time></trkpt><trkpt lat="-32.1621614381697" lon="116.49623859170475"><ele>306.1428571428571</ele><time>2026-04-05T04:37:21Z</time></trkpt><trkpt lat="-32.1621210794388" lon="116.49631386125864"><ele>305.85714285714283</ele><time>2026-04-05T04:37:22Z</time></trkpt><trkpt lat="-32.1620791099642" lon="116.49637624292181"><ele>305.57142857142856</ele><time>2026-04-05T04:37:23Z</time></trkpt><trkpt lat="-32.16202206909452" lon="116.49641729084436"><ele>305.2857142857143</ele><time>2026-04-05T04:37:24Z</time></trkpt><trkpt lat="-32.16193548575215" lon="116.49644534069036"><ele>305.0</ele><time>2026-04-05T04:37:25Z</time></trkpt><trkpt lat="-32.16184480055409" lon="116.49644606831144"><ele>305.0</ele><time>2026-04-05T04:37:26Z</time></trkpt><trkpt lat="-32.16173213019743" lon="116.49645763322881"><ele>305.0</ele><time>2026-04-05T04:37:27Z</time></trkpt><trkpt lat="-32.16162319713191" lon="116.49648390363329"><ele>305.0</ele><time>2026-04-05T04:37:28Z</time></trkpt><trkpt lat="-32.16152732665377" lon="116.49648939490488"><ele>305.0</ele><time>2026-04-05T04:37:29Z</time></trkpt><trkpt lat="-32.161440567769105" lon="116.49648769381997"><ele>305.0</ele><time>2026-04-05T04:37:30Z</time></trkpt><trkpt lat="-32.16136862760055" lon="116.49650224082627"><ele>305.0</ele><time>2026-04-05T04:37:31Z</time></trkpt><trkpt lat="-32.16132138997929" lon="116.49655141025663"><ele>305.0</ele><time>2026-04-05T04:37:32Z</time></trkpt><trkpt lat="-32.16128107054095" lon="116.4966248884957"><ele>305.0</ele><time>2026-04-05T04:37:33Z</time></trkpt><trkpt lat="-32.16124481498818" lon="116.49671187792342"><ele>305.0</ele><time>2026-04-05T04:37:34Z</time></trkpt><trkpt lat="-32.16120268262028" lon="116.4967719247671"><ele>305.0</ele><time>2026-04-05T04:37:35Z</time></trkpt><trkpt lat="-32.16107363661573" lon="116.49679281482118"><ele>305.0</ele><time>2026-04-05T04:37:37Z</time></trkpt><trkpt lat="-32.160997823761804" lon="116.49679156529106"><ele>305.0</ele><time>2026-04-05T04:37:38Z</time></trkpt><trkpt lat="-32.16090847226599" lon="116.49678225280067"><ele>305.0</ele><time>2026-04-05T04:37:39Z</time></trkpt><trkpt lat="-32.16082485432557" lon="116.49678849306493"><ele>305.0</ele><time>2026-04-05T04:37:40Z</time></trkpt><trkpt lat="-32.16075685111504" lon="116.4968222630768"><ele>305.0</ele><time>2026-04-05T04:37:41Z</time></trkpt><trkpt lat="-32.16068354275693" lon="116.49686002756957"><ele>305.0</ele><time>2026-04-05T04:37:42Z</time></trkpt><trkpt lat="-32.16061514108162" lon="116.49691078103642"><ele>305.0</ele><time>2026-04-05T04:37:43Z</time></trkpt><trkpt lat="-32.1605487247367" lon="116.49697423310761"><ele>305.0</ele><time>2026-04-05T04:37:44Z</time></trkpt><trkpt lat="-32.16048227983685" lon="116.49703106085782"><ele>305.0</ele><time>2026-04-05T04:37:45Z</time></trkpt><trkpt lat="-32.1604255109766" lon="116.49707372928538"><ele>305.0</ele><time>2026-04-05T04:37:46Z</time></trkpt><trkpt lat="-32.160329966178075" lon="116.4971011876643"><ele>305.0</ele><time>2026-04-05T04:37:48Z</time></trkpt><trkpt lat="-32.16026815038576" lon="116.4970729352438"><ele>305.0</ele><time>2026-04-05T04:37:49Z</time></trkpt><trkpt lat="-32.160205514035724" lon="116.49703269511215"><ele>305.0</ele><time>2026-04-05T04:37:50Z</time></trkpt><trkpt lat="-32.16013777634164" lon="116.4969980854448"><ele>305.0</ele><time>2026-04-05T04:37:51Z</time></trkpt><trkpt lat="-32.16006277421073" lon="116.4969897104779"><ele>305.0</ele><time>2026-04-05T04:37:52Z</time></trkpt><trkpt lat="-32.15997387220677" lon="116.49698930362611"><ele>305.0</ele><time>2026-04-05T04:37:53Z</time></trkpt><trkpt lat="-32.15987936884326" lon="116.49698908748536"><ele>305.0</ele><time>2026-04-05T04:37:54Z</time></trkpt><trkpt lat="-32.15979865895722" lon="116.49698740293015"><ele>305.0</ele><time>2026-04-05T04:37:55Z</time></trkpt><trkpt lat="-32.15973047291799" lon="116.49697858173708"><ele>305.0</ele><time>2026-04-05T04:37:56Z</time></trkpt><trkpt lat="-32.159654476524615" lon="116.49696548713736"><ele>304.6666666666667</ele><time>2026-04-05T04:37:57Z</time></trkpt><trkpt lat="-32.15958210850021" lon="116.49694035234161"><ele>304.33333333333337</ele><time>2026-04-05T04:37:58Z</time></trkpt><trkpt lat="-32.15949623841203" lon="116.49689171597419"><ele>304.0</ele><time>2026-04-05T04:37:59Z</time></trkpt><trkpt lat="-32.159412374810834" lon="116.49683097844276"><ele>303.6666666666667</ele><time>2026-04-05T04:38:00Z</time></trkpt><trkpt lat="-32.15934319757137" lon="116.4967841073419"><ele>303.3333333333333</ele><time>2026-04-05T04:38:01Z</time></trkpt><trkpt lat="-32.15925635416719" lon="116.49676835547159"><ele>303.0</ele><time>2026-04-05T04:38:02Z</time></trkpt><trkpt lat="-32.15916193649757" lon="116.49677762763604"><ele>303.0</ele><time>2026-04-05T04:38:03Z</time></trkpt><trkpt lat="-32.159052711048744" lon="116.49677907184554"><ele>303.0</ele><time>2026-04-05T04:38:04Z</time></trkpt><trkpt lat="-32.158956065029386" lon="116.49677274879193"><ele>303.0</ele><time>2026-04-05T04:38:05Z</time></trkpt><trkpt lat="-32.158855259512556" lon="116.49674626705631"><ele>303.0</ele><time>2026-04-05T04:38:07Z</time></trkpt><trkpt lat="-32.15880292577433" lon="116.49665380339056"><ele>303.0</ele><time>2026-04-05T04:38:09Z</time></trkpt><trkpt lat="-32.15878688152641" lon="116.49650981410434"><ele>302.8</ele><time>2026-04-05T04:38:11Z</time></trkpt><trkpt lat="-32.15872136400909" lon="116.4964027623678"><ele>302.6</ele><time>2026-04-05T04:38:13Z</time></trkpt><trkpt lat="-32.158651218185675" lon="116.49633389681918"><ele>302.4</ele><time>2026-04-05T04:38:15Z</time></trkpt><trkpt lat="-32.15858322534002" lon="116.49632150880869"><ele>302.2</ele><time>2026-04-05T04:38:16Z</time></trkpt><trkpt lat="-32.15849745605117" lon="116.4963036751709"><ele>302.0</ele><time>2026-04-05T04:38:17Z</time></trkpt><trkpt lat="-32.15840133932281" lon="116.49627406910044"><ele>302.5</ele><time>2026-04-05T04:38:18Z</time></trkpt><trkpt lat="-32.158305842254826" lon="116.49625165757688"><ele>303.0</ele><time>2026-04-05T04:38:19Z</time></trkpt><trkpt lat="-32.15823389216913" lon="116.49624862493773"><ele>303.5</ele><time>2026-04-05T04:38:20Z</time></trkpt><trkpt lat="-32.15816415931601" lon="116.4962014813903"><ele>304.0</ele><time>2026-04-05T04:38:22Z</time></trkpt><trkpt lat="-32.15814273984749" lon="116.49612945313224"><ele>304.5</ele><time>2026-04-05T04:40:01Z</time></trkpt><trkpt lat="-32.158122084615094" lon="116.4960152177793"><ele>305.0</ele><time>2026-04-05T04:40:03Z</time></trkpt><trkpt lat="-32.15808429934673" lon="116.49589551130687"><ele>305.4</ele><time>2026-04-05T04:40:05Z</time></trkpt><trkpt lat="-32.15803863964057" lon="116.49578097758514"><ele>305.8</ele><time>2026-04-05T04:40:07Z</time></trkpt><trkpt lat="-32.15798376988034" lon="116.49564574250317"><ele>306.2</ele><time>2026-04-05T04:40:09Z</time></trkpt><trkpt lat="-32.15794997938145" lon="116.49557759273361"><ele>306.6</ele><time>2026-04-05T04:40:10Z</time></trkpt><trkpt lat="-32.157883246889725" lon="116.49547341948669"><ele>307.0</ele><time>2026-04-05T04:40:12Z</time></trkpt><trkpt lat="-32.157798795370994" lon="116.49539013599023"><ele>307.0</ele><time>2026-04-05T04:40:14Z</time></trkpt><trkpt lat="-32.15773324222303" lon="116.49533455352848"><ele>307.0</ele><time>2026-04-05T04:40:16Z</time></trkpt><trkpt lat="-32.1576657988632" lon="116.49527197028361"><ele>307.0</ele><time>2026-04-05T04:40:19Z</time></trkpt><trkpt lat="-32.15759090568668" lon="116.49524238089668"><ele>307.0</ele><time>2026-04-05T04:40:23Z</time></trkpt><trkpt lat="-32.15751932684248" lon="116.49526395317987"><ele>307.0</ele><time>2026-04-05T04:40:46Z</time></trkpt><trkpt lat="-32.1574803914996" lon="116.49532579558014"><ele>307.0</ele><time>2026-04-05T04:40:48Z</time></trkpt><trkpt lat="-32.15746912654119" lon="116.49542414318404"><ele>307.0</ele><time>2026-04-05T04:40:51Z</time></trkpt><trkpt lat="-32.15737040203739" lon="116.49545794252921"><ele>307.0</ele><time>2026-04-05T04:40:53Z</time></trkpt><trkpt lat="-32.1573071879495" lon="116.49545779893802"><ele>307.0</ele><time>2026-04-05T04:40:54Z</time></trkpt><trkpt lat="-32.15723507709136" lon="116.49545797527347"><ele>307.0</ele><time>2026-04-05T04:40:55Z</time></trkpt><trkpt lat="-32.157163858235265" lon="116.49547262739489"><ele>307.0</ele><time>2026-04-05T04:40:56Z</time></trkpt><trkpt lat="-32.15710508835081" lon="116.49550929098338"><ele>307.0</ele><time>2026-04-05T04:40:57Z</time></trkpt><trkpt lat="-32.15704864397866" lon="116.4955637489694"><ele>307.16666666666663</ele><time>2026-04-05T04:40:58Z</time></trkpt><trkpt lat="-32.15699352136603" lon="116.49561110405844"><ele>307.3333333333333</ele><time>2026-04-05T04:40:59Z</time></trkpt><trkpt lat="-32.15687585501159" lon="116.49567458523799"><ele>307.5</ele><time>2026-04-05T04:41:01Z</time></trkpt><trkpt lat="-32.15681952281835" lon="116.49571413162332"><ele>307.6666666666667</ele><time>2026-04-05T04:41:02Z</time></trkpt><trkpt lat="-32.156768012997794" lon="116.49576670258469"><ele>307.83333333333337</ele><time>2026-04-05T04:41:03Z</time></trkpt><trkpt lat="-32.15668184156785" lon="116.4958415524886"><ele>308.0</ele><time>2026-04-05T04:41:05Z</time></trkpt><trkpt lat="-32.15661224612312" lon="116.49583963478356"><ele>308.0</ele><time>2026-04-05T04:41:07Z</time></trkpt><trkpt lat="-32.156554687949146" lon="116.49578590607052"><ele>308.0</ele><time>2026-04-05T04:41:09Z</time></trkpt><trkpt lat="-32.15650569234091" lon="116.49572415382569"><ele>308.0</ele><time>2026-04-05T04:41:10Z</time></trkpt><trkpt lat="-32.156473482263145" lon="116.49565815878533"><ele>308.0</ele><time>2026-04-05T04:41:11Z</time></trkpt><trkpt lat="-32.15646685730587" lon="116.49550366537635"><ele>308.0</ele><time>2026-04-05T04:41:13Z</time></trkpt><trkpt lat="-32.15642771321415" lon="116.4953998559634"><ele>308.0</ele><time>2026-04-05T04:41:15Z</time></trkpt><trkpt lat="-32.156297838812044" lon="116.49537435595039"><ele>307.4</ele><time>2026-04-05T04:41:17Z</time></trkpt><trkpt lat="-32.156208522475374" lon="116.49537496525325"><ele>306.8</ele><time>2026-04-05T04:41:18Z</time></trkpt><trkpt lat="-32.15613261014615" lon="116.49537972677408"><ele>306.2</ele><time>2026-04-05T04:41:19Z</time></trkpt><trkpt lat="-32.15606818475381" lon="116.4953916878451"><ele>305.6</ele><time>2026-04-05T04:41:20Z</time></trkpt><trkpt lat="-32.15596591019974" lon="116.49540514332702"><ele>305.0</ele><time>2026-04-05T04:41:22Z</time></trkpt><trkpt lat="-32.155867464418954" lon="116.49531545913635"><ele>305.0</ele><time>2026-04-05T04:41:24Z</time></trkpt><trkpt lat="-32.155816677114295" lon="116.49524376887388"><ele>305.0</ele><time>2026-04-05T04:41:25Z</time></trkpt><trkpt lat="-32.155769000075175" lon="116.49515617625192"><ele>305.0</ele><time>2026-04-05T04:41:26Z</time></trkpt><trkpt lat="-32.15572764321767" lon="116.49506607253676"><ele>305.0</ele><time>2026-04-05T04:41:27Z</time></trkpt><trkpt lat="-32.155682785798035" lon="116.4949818435253"><ele>305.0</ele><time>2026-04-05T04:41:28Z</time></trkpt><trkpt lat="-32.15565205283841" lon="116.49491623904841"><ele>305.0</ele><time>2026-04-05T04:41:29Z</time></trkpt><trkpt lat="-32.1556254323509" lon="116.49484659501263"><ele>304.4</ele><time>2026-04-05T04:41:30Z</time></trkpt><trkpt lat="-32.155602583117584" lon="116.49476989182807"><ele>303.8</ele><time>2026-04-05T04:41:31Z</time></trkpt><trkpt lat="-32.155574340332294" lon="116.49465535649631"><ele>303.2</ele><time>2026-04-05T04:41:33Z</time></trkpt><trkpt lat="-32.1555327679694" lon="116.49454196585438"><ele>302.6</ele><time>2026-04-05T04:41:35Z</time></trkpt><trkpt lat="-32.155499628373875" lon="116.49442372898325"><ele>302.0</ele><time>2026-04-05T04:41:37Z</time></trkpt><trkpt lat="-32.15547413879821" lon="116.49429803674101"><ele>303.42857142857144</ele><time>2026-04-05T04:41:39Z</time></trkpt><trkpt lat="-32.155442697321206" lon="116.49422100778054"><ele>304.8571428571429</ele><time>2026-04-05T04:41:40Z</time></trkpt><trkpt lat="-32.155399501100355" lon="116.49413899425603"><ele>306.28571428571433</ele><time>2026-04-05T04:41:41Z</time></trkpt><trkpt lat="-32.15534943754339" lon="116.4940787018634"><ele>307.7142857142857</ele><time>2026-04-05T04:41:42Z</time></trkpt><trkpt lat="-32.15528627148655" lon="116.49404445103195"><ele>309.1428571428571</ele><time>2026-04-05T04:41:43Z</time></trkpt><trkpt lat="-32.155217213146926" lon="116.49402871387146"><ele>310.5714285714286</ele><time>2026-04-05T04:41:44Z</time></trkpt><trkpt lat="-32.15514937159534" lon="116.49403442953555"><ele>312.0</ele><time>2026-04-05T04:41:45Z</time></trkpt><trkpt lat="-32.15507945368191" lon="116.49406864672649"><ele>312.0</ele><time>2026-04-05T04:41:46Z</time></trkpt><trkpt lat="-32.15501259716577" lon="116.49411417499408"><ele>312.0</ele><time>2026-04-05T04:41:47Z</time></trkpt><trkpt lat="-32.15493893530608" lon="116.49415516649461"><ele>312.0</ele><time>2026-04-05T04:41:48Z</time></trkpt><trkpt lat="-32.15487545134532" lon="116.49416833330338"><ele>312.0</ele><time>2026-04-05T04:41:49Z</time></trkpt><trkpt lat="-32.154771689009095" lon="116.49416978094156"><ele>312.0</ele><time>2026-04-05T04:41:51Z</time></trkpt><trkpt lat="-32.1546789154792" lon="116.49406483533528"><ele>311.2</ele><time>2026-04-05T04:41:53Z</time></trkpt><trkpt lat="-32.15463050945853" lon="116.49398756254075"><ele>310.4</ele><time>2026-04-05T04:41:54Z</time></trkpt><trkpt lat="-32.15457615289926" lon="116.4939056825149"><ele>309.6</ele><time>2026-04-05T04:41:55Z</time></trkpt><trkpt lat="-32.15450267417407" lon="116.49382008638513"><ele>308.8</ele><time>2026-04-05T04:41:56Z</time></trkpt><trkpt lat="-32.15442547512313" lon="116.4937344101962"><ele>308.0</ele><time>2026-04-05T04:41:57Z</time></trkpt><trkpt lat="-32.1543610700337" lon="116.49365336673212"><ele>308.0</ele><time>2026-04-05T04:41:58Z</time></trkpt><trkpt lat="-32.15429920288789" lon="116.49358512364161"><ele>308.0</ele><time>2026-04-05T04:41:59Z</time></trkpt><trkpt lat="-32.154241318110685" lon="116.4935152798558"><ele>308.0</ele><time>2026-04-05T04:42:00Z</time></trkpt><trkpt lat="-32.15418747526867" lon="116.49344679263966"><ele>308.0</ele><time>2026-04-05T04:42:01Z</time></trkpt><trkpt lat="-32.15412901964368" lon="116.49332103751134"><ele>308.0</ele><time>2026-04-05T04:42:03Z</time></trkpt><trkpt lat="-32.154109545734336" lon="116.49324351432911"><ele>308.0</ele><time>2026-04-05T04:42:04Z</time></trkpt><trkpt lat="-32.15407270854102" lon="116.4931358710821"><ele>308.0</ele><time>2026-04-05T04:42:06Z</time></trkpt><trkpt lat="-32.15405420446525" lon="116.49304843501066"><ele>308.0</ele><time>2026-04-05T04:42:08Z</time></trkpt><trkpt lat="-32.1540522775027" lon="116.4929615868582"><ele>308.0</ele><time>2026-04-05T04:42:43Z</time></trkpt><trkpt lat="-32.15401378769506" lon="116.49289951157338"><ele>308.0</ele><time>2026-04-05T04:42:47Z</time></trkpt><trkpt lat="-32.15393452889895" lon="116.49287233671073"><ele>308.0</ele><time>2026-04-05T04:42:59Z</time></trkpt><trkpt lat="-32.15381580670911" lon="116.49290695421968"><ele>308.0</ele><time>2026-04-05T04:43:01Z</time></trkpt><trkpt lat="-32.153720584314115" lon="116.49294235698153"><ele>307.6666666666667</ele><time>2026-04-05T04:43:03Z</time></trkpt><trkpt lat="-32.15364681132485" lon="116.49296010963882"><ele>307.33333333333337</ele><time>2026-04-05T04:43:05Z</time></trkpt><trkpt lat="-32.153578405176575" lon="116.49299049316222"><ele>307.0</ele><time>2026-04-05T04:43:08Z</time></trkpt><trkpt lat="-32.15367252630288" lon="116.49293832345325"><ele>306.6666666666667</ele><time>2026-04-05T04:43:13Z</time></trkpt><trkpt lat="-32.15373921474289" lon="116.49294029519865"><ele>306.3333333333333</ele><time>2026-04-05T04:43:14Z</time></trkpt><trkpt lat="-32.15380472927994" lon="116.49293568479753"><ele>306.0</ele><time>2026-04-05T04:43:15Z</time></trkpt><trkpt lat="-32.15387476048075" lon="116.49290533442776"><ele>306.40000000000003</ele><time>2026-04-05T04:43:16Z</time></trkpt><trkpt lat="-32.1539437124688" lon="116.49287262613106"><ele>306.8</ele><time>2026-04-05T04:43:17Z</time></trkpt><trkpt lat="-32.15403987369338" lon="116.49292055082375"><ele>307.20000000000005</ele><time>2026-04-05T04:43:19Z</time></trkpt><trkpt lat="-32.15406811720302" lon="116.4930108695638"><ele>307.6</ele><time>2026-04-05T04:43:20Z</time></trkpt><trkpt lat="-32.15407627184904" lon="116.49313246454938"><ele>308.0</ele><time>2026-04-05T04:43:21Z</time></trkpt><trkpt lat="-32.15408054908153" lon="116.49324848873827"><ele>308.0</ele><time>2026-04-05T04:43:22Z</time></trkpt><trkpt lat="-32.15410800228627" lon="116.49334051973233"><ele>308.0</ele><time>2026-04-05T04:43:23Z</time></trkpt><trkpt lat="-32.15409334389714" lon="116.4932250916023"><ele>308.0</ele><time>2026-04-05T04:49:31Z</time></trkpt><trkpt lat="-32.154046735913695" lon="116.4931213656142"><ele>308.0</ele><time>2026-04-05T04:49:33Z</time></trkpt><trkpt lat="-32.15392608530394" lon="116.4930440501482"><ele>308.0</ele><time>2026-04-05T04:49:35Z</time></trkpt><trkpt lat="-32.153839359638575" lon="116.49301657414703"><ele>307.6666666666667</ele><time>2026-04-05T04:49:36Z</time></trkpt><trkpt lat="-32.15374639733106" lon="116.49298485221195"><ele>307.33333333333337</ele><time>2026-04-05T04:49:37Z</time></trkpt><trkpt lat="-32.153663144338495" lon="116.49294632291043"><ele>307.0</ele><time>2026-04-05T04:49:38Z</time></trkpt><trkpt lat="-32.15357932362845" lon="116.49290609985275"><ele>306.6666666666667</ele><time>2026-04-05T04:49:39Z</time></trkpt><trkpt lat="-32.15351001606489" lon="116.49286971981782"><ele>306.3333333333333</ele><time>2026-04-05T04:49:40Z</time></trkpt><trkpt lat="-32.15344474947243" lon="116.49283660184906"><ele>306.0</ele><time>2026-04-05T04:49:41Z</time></trkpt><trkpt lat="-32.15338768872073" lon="116.49279619409441"><ele>305.8333333333333</ele><time>2026-04-05T04:49:42Z</time></trkpt><trkpt lat="-32.153305913196505" lon="116.49274628168806"><ele>305.6666666666667</ele><time>2026-04-05T04:49:44Z</time></trkpt><trkpt lat="-32.153246792531874" lon="116.49268907812363"><ele>305.5</ele><time>2026-04-05T04:50:02Z</time></trkpt><trkpt lat="-32.15316364956814" lon="116.49259409447193"><ele>305.33333333333337</ele><time>2026-04-05T04:50:04Z</time></trkpt><trkpt lat="-32.15312054721284" lon="116.49252825769412"><ele>305.1666666666667</ele><time>2026-04-05T04:50:05Z</time></trkpt><trkpt lat="-32.15308142527467" lon="116.49246493704771"><ele>305.0</ele><time>2026-04-05T04:50:06Z</time></trkpt><trkpt lat="-32.15303829796731" lon="116.49241026879454"><ele>305.0</ele><time>2026-04-05T04:50:07Z</time></trkpt><trkpt lat="-32.15298756436438" lon="116.4923588616806"><ele>305.0</ele><time>2026-04-05T04:50:08Z</time></trkpt><trkpt lat="-32.15288659216264" lon="116.49229567223799"><ele>305.0</ele><time>2026-04-05T04:50:10Z</time></trkpt><trkpt lat="-32.152818880085114" lon="116.49232571435745"><ele>305.0</ele><time>2026-04-05T04:50:11Z</time></trkpt><trkpt lat="-32.15273732286482" lon="116.4923738832055"><ele>305.0</ele><time>2026-04-05T04:50:12Z</time></trkpt><trkpt lat="-32.15265874707417" lon="116.49240640792863"><ele>305.0</ele><time>2026-04-05T04:50:13Z</time></trkpt><trkpt lat="-32.152578146787945" lon="116.49238317067652"><ele>305.0</ele><time>2026-04-05T04:50:14Z</time></trkpt><trkpt lat="-32.15248326801198" lon="116.49234644040924"><ele>305.0</ele><time>2026-04-05T04:50:15Z</time></trkpt><trkpt lat="-32.15240095567412" lon="116.4922938020996"><ele>305.0</ele><time>2026-04-05T04:50:16Z</time></trkpt><trkpt lat="-32.152331124854754" lon="116.49223898340412"><ele>305.0</ele><time>2026-04-05T04:50:17Z</time></trkpt><trkpt lat="-32.1522637126002" lon="116.49219771051823"><ele>305.0</ele><time>2026-04-05T04:50:18Z</time></trkpt><trkpt lat="-32.15219319224586" lon="116.4921774268288"><ele>305.0</ele><time>2026-04-05T04:50:19Z</time></trkpt><trkpt lat="-32.15212341192977" lon="116.4921839227411"><ele>305.33333333333337</ele><time>2026-04-05T04:50:20Z</time></trkpt><trkpt lat="-32.1520526150722" lon="116.49221312936629"><ele>305.6666666666667</ele><time>2026-04-05T04:50:21Z</time></trkpt><trkpt lat="-32.15197335491104" lon="116.49224766022878"><ele>306.0</ele><time>2026-04-05T04:50:22Z</time></trkpt><trkpt lat="-32.151864208362554" lon="116.49229260405644"><ele>306.3333333333333</ele><time>2026-04-05T04:50:24Z</time></trkpt><trkpt lat="-32.1517988010857" lon="116.49229091672052"><ele>306.66666666666663</ele><time>2026-04-05T04:50:25Z</time></trkpt><trkpt lat="-32.15170304403351" lon="116.49228927862445"><ele>307.0</ele><time>2026-04-05T04:50:26Z</time></trkpt><trkpt lat="-32.151610591164285" lon="116.49228413554506"><ele>307.16666666666663</ele><time>2026-04-05T04:50:27Z</time></trkpt><trkpt lat="-32.1515233336428" lon="116.4922654568609"><ele>307.3333333333333</ele><time>2026-04-05T04:50:28Z</time></trkpt><trkpt lat="-32.151452714271116" lon="116.4922450986159"><ele>307.5</ele><time>2026-04-05T04:50:29Z</time></trkpt><trkpt lat="-32.15138123887957" lon="116.49223110978569"><ele>307.6666666666667</ele><time>2026-04-05T04:50:30Z</time></trkpt><trkpt lat="-32.15131099807631" lon="116.4922200572635"><ele>307.83333333333337</ele><time>2026-04-05T04:50:31Z</time></trkpt><trkpt lat="-32.151247953130685" lon="116.49220357233149"><ele>308.0</ele><time>2026-04-05T04:50:32Z</time></trkpt><trkpt lat="-32.15116173516366" lon="116.49218272524008"><ele>308.0</ele><time>2026-04-05T04:50:33Z</time></trkpt><trkpt lat="-32.15109038120736" lon="116.49214891626872"><ele>308.0</ele><time>2026-04-05T04:50:34Z</time></trkpt><trkpt lat="-32.15101854915566" lon="116.49214497851541"><ele>308.0</ele><time>2026-04-05T04:50:35Z</time></trkpt><trkpt lat="-32.15092320333995" lon="116.49219291825023"><ele>308.0</ele><time>2026-04-05T04:50:37Z</time></trkpt><trkpt lat="-32.15084909925989" lon="116.492324758557"><ele>308.0</ele><time>2026-04-05T04:50:39Z</time></trkpt><trkpt lat="-32.15082837533379" lon="116.4924331805229"><ele>308.0</ele><time>2026-04-05T04:50:40Z</time></trkpt><trkpt lat="-32.15082242111067" lon="116.49253483831643"><ele>308.0</ele><time>2026-04-05T04:50:41Z</time></trkpt><trkpt lat="-32.15081155879945" lon="116.49261922495776"><ele>308.0</ele><time>2026-04-05T04:50:42Z</time></trkpt><trkpt lat="-32.150791201461466" lon="116.49270197463001"><ele>308.0</ele><time>2026-04-05T04:50:43Z</time></trkpt><trkpt lat="-32.150764503983105" lon="116.49281701188637"><ele>308.0</ele><time>2026-04-05T04:50:44Z</time></trkpt><trkpt lat="-32.15075074056083" lon="116.49292029221033"><ele>308.0</ele><time>2026-04-05T04:50:45Z</time></trkpt><trkpt lat="-32.150740745380084" lon="116.49300762279941"><ele>308.33333333333337</ele><time>2026-04-05T04:50:46Z</time></trkpt><trkpt lat="-32.15069466672956" lon="116.49312603791962"><ele>308.6666666666667</ele><time>2026-04-05T04:50:48Z</time></trkpt><trkpt lat="-32.15058416509619" lon="116.49314083202344"><ele>309.0</ele><time>2026-04-05T04:50:50Z</time></trkpt><trkpt lat="-32.150518837593225" lon="116.49312129307773"><ele>309.3333333333333</ele><time>2026-04-05T04:50:51Z</time></trkpt><trkpt lat="-32.15044829855794" lon="116.49310878047207"><ele>309.66666666666663</ele><time>2026-04-05T04:50:52Z</time></trkpt><trkpt lat="-32.15037282896246" lon="116.49310438201246"><ele>310.0</ele><time>2026-04-05T04:50:53Z</time></trkpt><trkpt lat="-32.150297459528325" lon="116.49310705453725"><ele>310.0</ele><time>2026-04-05T04:50:54Z</time></trkpt><trkpt lat="-32.15024246210501" lon="116.49315050842641"><ele>310.0</ele><time>2026-04-05T04:50:55Z</time></trkpt><trkpt lat="-32.15018655393379" lon="116.49320510526302"><ele>310.0</ele><time>2026-04-05T04:50:56Z</time></trkpt><trkpt lat="-32.15011101556279" lon="116.49329197316143"><ele>310.0</ele><time>2026-04-05T04:50:58Z</time></trkpt><trkpt lat="-32.150025556396834" lon="116.49324665130767"><ele>310.0</ele><time>2026-04-05T04:51:00Z</time></trkpt><trkpt lat="-32.14995770013516" lon="116.49318142024428"><ele>310.0</ele><time>2026-04-05T04:51:01Z</time></trkpt><trkpt lat="-32.1498931608959" lon="116.49311418080744"><ele>310.5</ele><time>2026-04-05T04:51:02Z</time></trkpt><trkpt lat="-32.149826212091156" lon="116.49305226004931"><ele>311.0</ele><time>2026-04-05T04:51:03Z</time></trkpt><trkpt lat="-32.1497437010443" lon="116.4930000623816"><ele>311.5</ele><time>2026-04-05T04:51:04Z</time></trkpt><trkpt lat="-32.1496774301985" lon="116.49298463189632"><ele>312.0</ele><time>2026-04-05T04:51:05Z</time></trkpt><trkpt lat="-32.14959739913262" lon="116.49296496454012"><ele>312.5</ele><time>2026-04-05T04:51:06Z</time></trkpt><trkpt lat="-32.14949213917524" lon="116.4929437270298"><ele>313.0</ele><time>2026-04-05T04:51:08Z</time></trkpt><trkpt lat="-32.14941639456354" lon="116.49294345238071"><ele>313.0</ele><time>2026-04-05T04:51:33Z</time></trkpt><trkpt lat="-32.14937244480563" lon="116.493066256995"><ele>313.0</ele><time>2026-04-05T04:51:35Z</time></trkpt><trkpt lat="-32.14934447717962" lon="116.49315617000514"><ele>313.0</ele><time>2026-04-05T04:51:36Z</time></trkpt><trkpt lat="-32.14930262734754" lon="116.49326344741074"><ele>313.0</ele><time>2026-04-05T04:51:37Z</time></trkpt><trkpt lat="-32.14925608694599" lon="116.49337611177197"><ele>313.0</ele><time>2026-04-05T04:51:38Z</time></trkpt><trkpt lat="-32.1491931785591" lon="116.49350539184047"><ele>313.0</ele><time>2026-04-05T04:51:39Z</time></trkpt><trkpt lat="-32.14910624052637" lon="116.4936526825368"><ele>313.0</ele><time>2026-04-05T04:51:40Z</time></trkpt><trkpt lat="-32.14901052385066" lon="116.49379700525373"><ele>313.0</ele><time>2026-04-05T04:51:41Z</time></trkpt><trkpt lat="-32.14892348293287" lon="116.49391825215629"><ele>313.0</ele><time>2026-04-05T04:51:42Z</time></trkpt><trkpt lat="-32.148847980413514" lon="116.49402711362448"><ele>312.25</ele><time>2026-04-05T04:51:43Z</time></trkpt><trkpt lat="-32.14877770631087" lon="116.4941336907927"><ele>311.5</ele><time>2026-04-05T04:51:44Z</time></trkpt><trkpt lat="-32.1487053382081" lon="116.49425005937228"><ele>310.75</ele><time>2026-04-05T04:51:45Z</time></trkpt><trkpt lat="-32.148631114229254" lon="116.49437327121693"><ele>310.0</ele><time>2026-04-05T04:51:46Z</time></trkpt><trkpt lat="-32.14855781427935" lon="116.49449230987346"><ele>309.75</ele><time>2026-04-05T04:51:47Z</time></trkpt><trkpt lat="-32.14847487565835" lon="116.49462622096624"><ele>309.5</ele><time>2026-04-05T04:51:48Z</time></trkpt><trkpt lat="-32.1483887218763" lon="116.49476814488293"><ele>309.25</ele><time>2026-04-05T04:51:49Z</time></trkpt><trkpt lat="-32.14829677584222" lon="116.49491385457051"><ele>309.0</ele><time>2026-04-05T04:51:50Z</time></trkpt><trkpt lat="-32.14820072815796" lon="116.49506310432439"><ele>309.0</ele><time>2026-04-05T04:51:51Z</time></trkpt><trkpt lat="-32.148116841858375" lon="116.4952047555314"><ele>309.0</ele><time>2026-04-05T04:51:52Z</time></trkpt><trkpt lat="-32.14803694944305" lon="116.49534482293086"><ele>309.0</ele><time>2026-04-05T04:51:53Z</time></trkpt><trkpt lat="-32.147945018547574" lon="116.49550242115623"><ele>308.3333333333333</ele><time>2026-04-05T04:51:54Z</time></trkpt><trkpt lat="-32.14784198882568" lon="116.49568120476101"><ele>307.66666666666663</ele><time>2026-04-05T04:51:55Z</time></trkpt><trkpt lat="-32.14773096426108" lon="116.49586448918393"><ele>307.0</ele><time>2026-04-05T04:51:56Z</time></trkpt><trkpt lat="-32.147612401148294" lon="116.49605664149396"><ele>307.66666666666663</ele><time>2026-04-05T04:51:57Z</time></trkpt><trkpt lat="-32.14748421719527" lon="116.49627652833165"><ele>308.3333333333333</ele><time>2026-04-05T04:51:58Z</time></trkpt><trkpt lat="-32.14736552903112" lon="116.49648792512686"><ele>309.0</ele><time>2026-04-05T04:51:59Z</time></trkpt><trkpt lat="-32.14726131532076" lon="116.49667509865293"><ele>309.0</ele><time>2026-04-05T04:52:00Z</time></trkpt><trkpt lat="-32.1471625695426" lon="116.49683902235292"><ele>309.0</ele><time>2026-04-05T04:52:01Z</time></trkpt><trkpt lat="-32.14706715841392" lon="116.49699363262212"><ele>309.0</ele><time>2026-04-05T04:52:02Z</time></trkpt><trkpt lat="-32.14698459922017" lon="116.49714987973802"><ele>309.0</ele><time>2026-04-05T04:52:03Z</time></trkpt><trkpt lat="-32.14691841447726" lon="116.49728083102653"><ele>309.0</ele><time>2026-04-05T04:52:04Z</time></trkpt><trkpt lat="-32.14686882383708" lon="116.49736743361953"><ele>309.0</ele><time>2026-04-05T04:52:05Z</time></trkpt><trkpt lat="-32.14682075214696" lon="116.49743161634665"><ele>309.0</ele><time>2026-04-05T04:52:06Z</time></trkpt><trkpt lat="-32.146767163387445" lon="116.49750491692558"><ele>309.0</ele><time>2026-04-05T04:52:07Z</time></trkpt><trkpt lat="-32.14671593976226" lon="116.49760596779431"><ele>309.0</ele><time>2026-04-05T04:52:08Z</time></trkpt><trkpt lat="-32.146675484150386" lon="116.497697563079"><ele>309.0</ele><time>2026-04-05T04:52:09Z</time></trkpt><trkpt lat="-32.146633921962135" lon="116.49777014224149"><ele>309.0</ele><time>2026-04-05T04:52:10Z</time></trkpt><trkpt lat="-32.14659100311356" lon="116.49782796526597"><ele>309.0</ele><time>2026-04-05T04:52:11Z</time></trkpt><trkpt lat="-32.14652113729255" lon="116.49792076142143"><ele>309.0</ele><time>2026-04-05T04:52:13Z</time></trkpt><trkpt lat="-32.14647246998828" lon="116.49799550213922"><ele>309.0</ele><time>2026-04-05T04:52:15Z</time></trkpt><trkpt lat="-32.14642884081475" lon="116.4980496921479"><ele>308.3333333333333</ele><time>2026-04-05T04:52:17Z</time></trkpt><trkpt lat="-32.14635850248437" lon="116.49815515122485"><ele>307.6666666666667</ele><time>2026-04-05T04:52:20Z</time></trkpt><trkpt lat="-32.14632230700901" lon="116.49822182692836"><ele>307.0</ele><time>2026-04-05T04:52:21Z</time></trkpt><trkpt lat="-32.14628152087293" lon="116.49829258297238"><ele>306.33333333333337</ele><time>2026-04-05T04:52:22Z</time></trkpt><trkpt lat="-32.14622181055658" lon="116.49836940595381"><ele>305.6666666666667</ele><time>2026-04-05T04:52:23Z</time></trkpt><trkpt lat="-32.14615042505407" lon="116.49846421823185"><ele>305.0</ele><time>2026-04-05T04:52:24Z</time></trkpt><trkpt lat="-32.146084574888846" lon="116.49856465094273"><ele>305.0</ele><time>2026-04-05T04:52:25Z</time></trkpt><trkpt lat="-32.14601051849277" lon="116.498679932816"><ele>305.0</ele><time>2026-04-05T04:52:26Z</time></trkpt><trkpt lat="-32.14593383494638" lon="116.4988089215835"><ele>305.0</ele><time>2026-04-05T04:52:27Z</time></trkpt><trkpt lat="-32.145854415881445" lon="116.49895578160205"><ele>305.0</ele><time>2026-04-05T04:52:28Z</time></trkpt><trkpt lat="-32.145771525893046" lon="116.49910455804068"><ele>303.33333333333337</ele><time>2026-04-05T04:52:29Z</time></trkpt><trkpt lat="-32.145677653784496" lon="116.49925144026243"><ele>301.6666666666667</ele><time>2026-04-05T04:52:30Z</time></trkpt><trkpt lat="-32.14558665000009" lon="116.49939641539399"><ele>300.0</ele><time>2026-04-05T04:52:31Z</time></trkpt><trkpt lat="-32.14549770166651" lon="116.49954287970209"><ele>300.0</ele><time>2026-04-05T04:52:32Z</time></trkpt><trkpt lat="-32.145410150974854" lon="116.49969144147751"><ele>300.0</ele><time>2026-04-05T04:52:33Z</time></trkpt><trkpt lat="-32.14533058115438" lon="116.4998222022422"><ele>300.0</ele><time>2026-04-05T04:52:34Z</time></trkpt><trkpt lat="-32.145258470312726" lon="116.49994389592356"><ele>300.0</ele><time>2026-04-05T04:52:35Z</time></trkpt><trkpt lat="-32.14519576229755" lon="116.50005265276415"><ele>300.0</ele><time>2026-04-05T04:52:36Z</time></trkpt><trkpt lat="-32.145141748225576" lon="116.50016219500242"><ele>300.0</ele><time>2026-04-05T04:52:37Z</time></trkpt><trkpt lat="-32.145099588530165" lon="116.50025925083486"><ele>300.0</ele><time>2026-04-05T04:52:38Z</time></trkpt><trkpt lat="-32.14506647222568" lon="116.50033073093677"><ele>300.0</ele><time>2026-04-05T04:52:39Z</time></trkpt><trkpt lat="-32.145018025935855" lon="116.50044036962362"><ele>300.0</ele><time>2026-04-05T04:52:41Z</time></trkpt><trkpt lat="-32.145009894348" lon="116.50054705793308"><ele>300.3333333333333</ele><time>2026-04-05T04:52:44Z</time></trkpt><trkpt lat="-32.14501397488743" lon="116.5006351132882"><ele>300.6666666666667</ele><time>2026-04-05T04:52:46Z</time></trkpt><trkpt lat="-32.14496554220904" lon="116.50071163738768"><ele>301.0</ele><time>2026-04-05T04:52:50Z</time></trkpt><trkpt lat="-32.14487873609664" lon="116.50074763147686"><ele>301.33333333333337</ele><time>2026-04-05T04:52:52Z</time></trkpt><trkpt lat="-32.14483671077497" lon="116.50082406714633"><ele>301.6666666666667</ele><time>2026-04-05T04:52:54.999Z</time></trkpt><trkpt lat="-32.14477356486409" lon="116.50092169702073"><ele>302.0</ele><time>2026-04-05T04:52:58.999Z</time></trkpt><trkpt lat="-32.14473453575942" lon="116.500989880192"><ele>301.2</ele><time>2026-04-05T04:52:59.999Z</time></trkpt><trkpt lat="-32.14469041998682" lon="116.50106534700892"><ele>300.4</ele><time>2026-04-05T04:53:00.999Z</time></trkpt><trkpt lat="-32.144640135267046" lon="116.50114727452134"><ele>299.6</ele><time>2026-04-05T04:53:01.999Z</time></trkpt><trkpt lat="-32.14458286497741" lon="116.50123502718776"><ele>298.8</ele><time>2026-04-05T04:53:02.999Z</time></trkpt><trkpt lat="-32.1445286441784" lon="116.50133067907463"><ele>298.0</ele><time>2026-04-05T04:53:03.999Z</time></trkpt><trkpt lat="-32.14447540341286" lon="116.50143860658507"><ele>298.0</ele><time>2026-04-05T04:53:04.999Z</time></trkpt><trkpt lat="-32.144413100565394" lon="116.50155120151514"><ele>298.0</ele><time>2026-04-05T04:53:05.999Z</time></trkpt><trkpt lat="-32.14433762433653" lon="116.50166793880697"><ele>298.0</ele><time>2026-04-05T04:53:06.999Z</time></trkpt><trkpt lat="-32.14426427503554" lon="116.5017895770815"><ele>298.0</ele><time>2026-04-05T04:53:07.999Z</time></trkpt><trkpt lat="-32.1441827653117" lon="116.5019286186036"><ele>298.0</ele><time>2026-04-05T04:53:08.999Z</time></trkpt><trkpt lat="-32.144090680035106" lon="116.50208688777165"><ele>298.0</ele><time>2026-04-05T04:53:09.999Z</time></trkpt><trkpt lat="-32.143991376120454" lon="116.50225925291973"><ele>298.0</ele><time>2026-04-05T04:53:10.999Z</time></trkpt><trkpt lat="-32.14389763139093" lon="116.50241413925545"><ele>296.0</ele><time>2026-04-05T04:53:11.999Z</time></trkpt><trkpt lat="-32.143813771289324" lon="116.50255995182182"><ele>294.0</ele><time>2026-04-05T04:53:12.999Z</time></trkpt><trkpt lat="-32.14373069259365" lon="116.50271123265229"><ele>292.0</ele><time>2026-04-05T04:53:13.999Z</time></trkpt><trkpt lat="-32.14364667228144" lon="116.50286225902826"><ele>291.25</ele><time>2026-04-05T04:53:14.999Z</time></trkpt><trkpt lat="-32.14356585419263" lon="116.50300948814257"><ele>290.5</ele><time>2026-04-05T04:53:15.999Z</time></trkpt><trkpt lat="-32.14349540395691" lon="116.50314217648072"><ele>289.75</ele><time>2026-04-05T04:53:16.999Z</time></trkpt><trkpt lat="-32.14344071084689" lon="116.50324836085075"><ele>289.0</ele><time>2026-04-05T04:53:17.999Z</time></trkpt><trkpt lat="-32.143391991334845" lon="116.50334164348989"><ele>289.0</ele><time>2026-04-05T04:53:18.999Z</time></trkpt><trkpt lat="-32.14334192551728" lon="116.5034219285738"><ele>289.0</ele><time>2026-04-05T04:53:19.999Z</time></trkpt><trkpt lat="-32.143283111258576" lon="116.50351555340325"><ele>289.0</ele><time>2026-04-05T04:53:20.999Z</time></trkpt><trkpt lat="-32.14320528635963" lon="116.50363951608479"><ele>289.0</ele><time>2026-04-05T04:53:21.999Z</time></trkpt><trkpt lat="-32.143124094190824" lon="116.50378735689377"><ele>287.3333333333333</ele><time>2026-04-05T04:53:22.999Z</time></trkpt><trkpt lat="-32.143038764513" lon="116.50394143767592"><ele>285.6666666666667</ele><time>2026-04-05T04:53:23.999Z</time></trkpt><trkpt lat="-32.14294150063546" lon="116.50410847191505"><ele>284.0</ele><time>2026-04-05T04:53:24.999Z</time></trkpt><trkpt lat="-32.14285627013563" lon="116.50425864448742"><ele>284.0</ele><time>2026-04-05T04:53:25.999Z</time></trkpt><trkpt lat="-32.14278357455941" lon="116.5043912375949"><ele>284.0</ele><time>2026-04-05T04:53:26.999Z</time></trkpt><trkpt lat="-32.14271264523932" lon="116.50450968552212"><ele>284.0</ele><time>2026-04-05T04:53:27.999Z</time></trkpt><trkpt lat="-32.14264260518257" lon="116.50462682698483"><ele>284.0</ele><time>2026-04-05T04:53:28.999Z</time></trkpt><trkpt lat="-32.142577387597996" lon="116.50474727671657"><ele>283.75</ele><time>2026-04-05T04:53:29.999Z</time></trkpt><trkpt lat="-32.1425046774056" lon="116.5048771023672"><ele>283.5</ele><time>2026-04-05T04:53:30.999Z</time></trkpt><trkpt lat="-32.14242177443512" lon="116.50501921719514"><ele>283.25</ele><time>2026-04-05T04:53:31.999Z</time></trkpt><trkpt lat="-32.142332269417096" lon="116.50517868308005"><ele>283.0</ele><time>2026-04-05T04:53:32.999Z</time></trkpt><trkpt lat="-32.14224501748478" lon="116.50533847016017"><ele>282.3333333333333</ele><time>2026-04-05T04:53:33.999Z</time></trkpt><trkpt lat="-32.14215892571751" lon="116.50548967020181"><ele>281.6666666666667</ele><time>2026-04-05T04:53:34.999Z</time></trkpt><trkpt lat="-32.14206848448526" lon="116.50564123727561"><ele>281.0</ele><time>2026-04-05T04:53:35.999Z</time></trkpt><trkpt lat="-32.14196225151999" lon="116.5058140970341"><ele>281.0</ele><time>2026-04-05T04:53:36.999Z</time></trkpt><trkpt lat="-32.141856924857535" lon="116.50598415130598"><ele>281.0</ele><time>2026-04-05T04:53:37.999Z</time></trkpt><trkpt lat="-32.141761981118876" lon="116.50613524236829"><ele>281.0</ele><time>2026-04-05T04:53:38.999Z</time></trkpt><trkpt lat="-32.14167168859589" lon="116.50629119984323"><ele>281.0</ele><time>2026-04-05T04:53:39.999Z</time></trkpt><trkpt lat="-32.14158085661041" lon="116.50644222525197"><ele>281.0</ele><time>2026-04-05T04:53:40.999Z</time></trkpt><trkpt lat="-32.14149945969712" lon="116.50657112056852"><ele>281.0</ele><time>2026-04-05T04:53:41.999Z</time></trkpt><trkpt lat="-32.14142454079216" lon="116.50669628813405"><ele>281.0</ele><time>2026-04-05T04:53:42.999Z</time></trkpt><trkpt lat="-32.1413440271374" lon="116.50683125370195"><ele>281.6666666666667</ele><time>2026-04-05T04:53:43.999Z</time></trkpt><trkpt lat="-32.14125441823537" lon="116.50697438843684"><ele>282.3333333333333</ele><time>2026-04-05T04:53:44.999Z</time></trkpt><trkpt lat="-32.14116583285999" lon="116.50710830521325"><ele>283.0</ele><time>2026-04-05T04:53:45.999Z</time></trkpt><trkpt lat="-32.14106409327141" lon="116.50725388810719"><ele>283.0</ele><time>2026-04-05T04:53:46.999Z</time></trkpt><trkpt lat="-32.14095180801035" lon="116.50742061614278"><ele>283.0</ele><time>2026-04-05T04:53:47.999Z</time></trkpt><trkpt lat="-32.14083777874706" lon="116.50759289340259"><ele>283.0</ele><time>2026-04-05T04:53:48.999Z</time></trkpt><trkpt lat="-32.140736304757745" lon="116.50774330299637"><ele>283.5</ele><time>2026-04-05T04:53:49.999Z</time></trkpt><trkpt lat="-32.14065500899" lon="116.50787011432598"><ele>284.0</ele><time>2026-04-05T04:53:50.999Z</time></trkpt><trkpt lat="-32.1405790758951" lon="116.50799251803264"><ele>284.5</ele><time>2026-04-05T04:53:51.999Z</time></trkpt><trkpt lat="-32.140514095058975" lon="116.50808826515846"><ele>285.0</ele><time>2026-04-05T04:53:52.999Z</time></trkpt><trkpt lat="-32.14045889993708" lon="116.5081619983058"><ele>285.0</ele><time>2026-04-05T04:53:53.999Z</time></trkpt><trkpt lat="-32.140398841424606" lon="116.50824753200155"><ele>285.0</ele><time>2026-04-05T04:53:54.999Z</time></trkpt><trkpt lat="-32.140332150006046" lon="116.50836669990132"><ele>285.0</ele><time>2026-04-05T04:53:55.999Z</time></trkpt><trkpt lat="-32.14026275499691" lon="116.50850048852281"><ele>285.0</ele><time>2026-04-05T04:53:56.999Z</time></trkpt><trkpt lat="-32.14018453655505" lon="116.50863047883001"><ele>285.2</ele><time>2026-04-05T04:53:57.999Z</time></trkpt><trkpt lat="-32.14010589556754" lon="116.50874753120416"><ele>285.4</ele><time>2026-04-05T04:53:58.999Z</time></trkpt><trkpt lat="-32.14003515443366" lon="116.5088567727844"><ele>285.6</ele><time>2026-04-05T04:53:59.999Z</time></trkpt><trkpt lat="-32.13997070722259" lon="116.50895364309125"><ele>285.8</ele><time>2026-04-05T04:54:00.999Z</time></trkpt><trkpt lat="-32.13991265047215" lon="116.50904608191716"><ele>286.0</ele><time>2026-04-05T04:54:01.999Z</time></trkpt><trkpt lat="-32.13986113310979" lon="116.50912901058831"><ele>286.0</ele><time>2026-04-05T04:54:02.999Z</time></trkpt><trkpt lat="-32.139812583033326" lon="116.50920571984717"><ele>286.0</ele><time>2026-04-05T04:54:03.999Z</time></trkpt><trkpt lat="-32.139746529565" lon="116.50927925156043"><ele>286.0</ele><time>2026-04-05T04:54:05.999Z</time></trkpt><trkpt lat="-32.13965747655019" lon="116.5092426882151"><ele>286.0</ele><time>2026-04-05T04:54:08.999Z</time></trkpt><trkpt lat="-32.139558957863755" lon="116.50911787744845"><ele>286.0</ele><time>2026-04-05T04:54:10.999Z</time></trkpt><trkpt lat="-32.13945982809986" lon="116.50905707182196"><ele>286.0</ele><time>2026-04-05T04:54:11.999Z</time></trkpt><trkpt lat="-32.13934568728687" lon="116.5090132895346"><ele>286.0</ele><time>2026-04-05T04:54:12.999Z</time></trkpt><trkpt lat="-32.139219568941314" lon="116.5089828530571"><ele>286.0</ele><time>2026-04-05T04:54:13.999Z</time></trkpt><trkpt lat="-32.1390694558259" lon="116.50896052842418"><ele>286.0</ele><time>2026-04-05T04:54:14.999Z</time></trkpt><trkpt lat="-32.13891329638954" lon="116.5089806627911"><ele>286.3333333333333</ele><time>2026-04-05T04:54:15.999Z</time></trkpt><trkpt lat="-32.13874242809376" lon="116.50900240813918"><ele>286.6666666666667</ele><time>2026-04-05T04:54:16.999Z</time></trkpt><trkpt lat="-32.13855229773867" lon="116.50901627283662"><ele>287.0</ele><time>2026-04-05T04:54:17.999Z</time></trkpt><trkpt lat="-32.13836271112769" lon="116.50902880280366"><ele>287.6666666666667</ele><time>2026-04-05T04:54:18.999Z</time></trkpt><trkpt lat="-32.13818214589624" lon="116.5090349206882"><ele>288.3333333333333</ele><time>2026-04-05T04:54:19.999Z</time></trkpt><trkpt lat="-32.13801413603437" lon="116.50904203094436"><ele>289.0</ele><time>2026-04-05T04:54:20.999Z</time></trkpt><trkpt lat="-32.13785171321171" lon="116.50904616894523"><ele>289.0</ele><time>2026-04-05T04:54:21.999Z</time></trkpt><trkpt lat="-32.13768716697762" lon="116.509038874112"><ele>289.0</ele><time>2026-04-05T04:54:22.999Z</time></trkpt><trkpt lat="-32.137521095397815" lon="116.50903346796134"><ele>289.0</ele><time>2026-04-05T04:54:23.999Z</time></trkpt><trkpt lat="-32.13734059793076" lon="116.50903603853574"><ele>287.0</ele><time>2026-04-05T04:54:24.999Z</time></trkpt><trkpt lat="-32.13715379359428" lon="116.5090465015227"><ele>285.0</ele><time>2026-04-05T04:54:25.999Z</time></trkpt><trkpt lat="-32.13694780457813" lon="116.50905622758854"><ele>283.0</ele><time>2026-04-05T04:54:26.999Z</time></trkpt><trkpt lat="-32.136742042941925" lon="116.50906211765258"><ele>284.0</ele><time>2026-04-05T04:54:27.999Z</time></trkpt><trkpt lat="-32.13654837519292" lon="116.50908071098196"><ele>285.0</ele><time>2026-04-05T04:54:28.999Z</time></trkpt><trkpt lat="-32.13635669411832" lon="116.50909585380201"><ele>286.0</ele><time>2026-04-05T04:54:29.999Z</time></trkpt><trkpt lat="-32.1361665169582" lon="116.50910952155778"><ele>286.0</ele><time>2026-04-05T04:54:30.999Z</time></trkpt><trkpt lat="-32.13596811659535" lon="116.5091233316228"><ele>286.0</ele><time>2026-04-05T04:54:31.999Z</time></trkpt><trkpt lat="-32.13575358694103" lon="116.50914085061727"><ele>286.0</ele><time>2026-04-05T04:54:32.999Z</time></trkpt><trkpt lat="-32.13554301645232" lon="116.50917603095192"><ele>286.0</ele><time>2026-04-05T04:54:33.999Z</time></trkpt><trkpt lat="-32.13533812633197" lon="116.50922302211856"><ele>286.0</ele><time>2026-04-05T04:54:34.999Z</time></trkpt><trkpt lat="-32.13513854869662" lon="116.50927014868441"><ele>286.0</ele><time>2026-04-05T04:54:36Z</time></trkpt><trkpt lat="-32.134952043384004" lon="116.50930212209789"><ele>287.66666666666663</ele><time>2026-04-05T04:54:37Z</time></trkpt><trkpt lat="-32.1347741749832" lon="116.50931551219826"><ele>289.3333333333333</ele><time>2026-04-05T04:54:38Z</time></trkpt><trkpt lat="-32.134594436750454" lon="116.50931766041556"><ele>291.0</ele><time>2026-04-05T04:54:39Z</time></trkpt><trkpt lat="-32.1344210395686" lon="116.50931520843355"><ele>291.0</ele><time>2026-04-05T04:54:40Z</time></trkpt><trkpt lat="-32.134243741414295" lon="116.50930296790958"><ele>291.0</ele><time>2026-04-05T04:54:41Z</time></trkpt><trkpt lat="-32.134045440346014" lon="116.50929087276667"><ele>291.0</ele><time>2026-04-05T04:54:42Z</time></trkpt><trkpt lat="-32.13383846250374" lon="116.5092786198673"><ele>290.3333333333333</ele><time>2026-04-05T04:54:43Z</time></trkpt><trkpt lat="-32.133637516720334" lon="116.50927491108041"><ele>289.66666666666663</ele><time>2026-04-05T04:54:44Z</time></trkpt><trkpt lat="-32.13343104850363" lon="116.50928008090703"><ele>289.0</ele><time>2026-04-05T04:54:45Z</time></trkpt><trkpt lat="-32.13322879270651" lon="116.50927725409574"><ele>288.0</ele><time>2026-04-05T04:54:46Z</time></trkpt><trkpt lat="-32.133035321580785" lon="116.50926698290101"><ele>287.0</ele><time>2026-04-05T04:54:47Z</time></trkpt><trkpt lat="-32.13283775698359" lon="116.50925802605548"><ele>286.0</ele><time>2026-04-05T04:54:48Z</time></trkpt><trkpt lat="-32.13264729269097" lon="116.50926011788209"><ele>286.0</ele><time>2026-04-05T04:54:49Z</time></trkpt><trkpt lat="-32.13245692256602" lon="116.5092622632237"><ele>286.0</ele><time>2026-04-05T04:54:50Z</time></trkpt><trkpt lat="-32.13228175673533" lon="116.50926508455136"><ele>286.0</ele><time>2026-04-05T04:54:51Z</time></trkpt><trkpt lat="-32.13211185125488" lon="116.50926258680009"><ele>287.3333333333333</ele><time>2026-04-05T04:54:52Z</time></trkpt><trkpt lat="-32.13194417287586" lon="116.50925215297951"><ele>288.6666666666667</ele><time>2026-04-05T04:54:53Z</time></trkpt><trkpt lat="-32.13176962272453" lon="116.50923278674168"><ele>290.0</ele><time>2026-04-05T04:54:54Z</time></trkpt><trkpt lat="-32.13159252818223" lon="116.50921444703488"><ele>290.33333333333337</ele><time>2026-04-05T04:54:55Z</time></trkpt><trkpt lat="-32.13142997457806" lon="116.50920868507345"><ele>290.6666666666667</ele><time>2026-04-05T04:54:56Z</time></trkpt><trkpt lat="-32.13126862807532" lon="116.50921261390687"><ele>291.0</ele><time>2026-04-05T04:54:57Z</time></trkpt><trkpt lat="-32.131117993640146" lon="116.50921927227833"><ele>291.0</ele><time>2026-04-05T04:54:58Z</time></trkpt><trkpt lat="-32.13098197252595" lon="116.50921902032977"><ele>291.0</ele><time>2026-04-05T04:54:59Z</time></trkpt><trkpt lat="-32.13085106879238" lon="116.50919978597742"><ele>291.0</ele><time>2026-04-05T04:55:00Z</time></trkpt><trkpt lat="-32.13072381262379" lon="116.50915498948818"><ele>291.0</ele><time>2026-04-05T04:55:01Z</time></trkpt><trkpt lat="-32.13060503640762" lon="116.50910933802761"><ele>290.0</ele><time>2026-04-05T04:55:02Z</time></trkpt><trkpt lat="-32.130478939735525" lon="116.50905718899746"><ele>289.0</ele><time>2026-04-05T04:55:03Z</time></trkpt><trkpt lat="-32.13035143894484" lon="116.50899540172813"><ele>288.0</ele><time>2026-04-05T04:55:04Z</time></trkpt><trkpt lat="-32.13021354278699" lon="116.50891421745298"><ele>287.0</ele><time>2026-04-05T04:55:05Z</time></trkpt><trkpt lat="-32.130052569193964" lon="116.50882106612814"><ele>287.33333333333337</ele><time>2026-04-05T04:55:06Z</time></trkpt><trkpt lat="-32.12990309088392" lon="116.50872892142235"><ele>287.6666666666667</ele><time>2026-04-05T04:55:07Z</time></trkpt><trkpt lat="-32.1297321216369" lon="116.50864163242383"><ele>288.0</ele><time>2026-04-05T04:55:08Z</time></trkpt><trkpt lat="-32.129575175902396" lon="116.50856315694716"><ele>288.0</ele><time>2026-04-05T04:55:09Z</time></trkpt><trkpt lat="-32.12943314796825" lon="116.50850046547532"><ele>288.0</ele><time>2026-04-05T04:55:10Z</time></trkpt><trkpt lat="-32.12929005639592" lon="116.50844119799065"><ele>288.0</ele><time>2026-04-05T04:55:11Z</time></trkpt><trkpt lat="-32.12912917850372" lon="116.5083982099543"><ele>287.6666666666667</ele><time>2026-04-05T04:55:12Z</time></trkpt><trkpt lat="-32.12894320964828" lon="116.50837391370686"><ele>287.33333333333337</ele><time>2026-04-05T04:55:13Z</time></trkpt><trkpt lat="-32.12876890704981" lon="116.50836973875076"><ele>287.0</ele><time>2026-04-05T04:55:14Z</time></trkpt><trkpt lat="-32.128613928221355" lon="116.50836693123267"><ele>287.0</ele><time>2026-04-05T04:55:15Z</time></trkpt><trkpt lat="-32.12846614030041" lon="116.50834363000368"><ele>287.0</ele><time>2026-04-05T04:55:16Z</time></trkpt><trkpt lat="-32.12831370068524" lon="116.50830507482583"><ele>287.0</ele><time>2026-04-05T04:55:17Z</time></trkpt><trkpt lat="-32.12815777663436" lon="116.50825749989494"><ele>285.6666666666667</ele><time>2026-04-05T04:55:18Z</time></trkpt><trkpt lat="-32.127989591002525" lon="116.50820203890716"><ele>284.3333333333333</ele><time>2026-04-05T04:55:19Z</time></trkpt><trkpt lat="-32.12782873451223" lon="116.50814281426041"><ele>283.0</ele><time>2026-04-05T04:55:20Z</time></trkpt><trkpt lat="-32.12768509028182" lon="116.50808499026598"><ele>283.0</ele><time>2026-04-05T04:55:21Z</time></trkpt><trkpt lat="-32.12754280152283" lon="116.50802837591192"><ele>283.0</ele><time>2026-04-05T04:55:22Z</time></trkpt><trkpt lat="-32.12738943176954" lon="116.50798166599095"><ele>283.0</ele><time>2026-04-05T04:55:23Z</time></trkpt><trkpt lat="-32.1272199454882" lon="116.5079460067699"><ele>281.0</ele><time>2026-04-05T04:55:24Z</time></trkpt><trkpt lat="-32.12705403109149" lon="116.50791690141352"><ele>279.0</ele><time>2026-04-05T04:55:25Z</time></trkpt><trkpt lat="-32.126893931385354" lon="116.50790156532418"><ele>277.0</ele><time>2026-04-05T04:55:26Z</time></trkpt><trkpt lat="-32.12671541248453" lon="116.50789165876789"><ele>276.66666666666663</ele><time>2026-04-05T04:55:27Z</time></trkpt><trkpt lat="-32.12653525915886" lon="116.5078800823413"><ele>276.3333333333333</ele><time>2026-04-05T04:55:28Z</time></trkpt><trkpt lat="-32.12636880275379" lon="116.50786556675064"><ele>276.0</ele><time>2026-04-05T04:55:29Z</time></trkpt><trkpt lat="-32.12619271514476" lon="116.50787083732293"><ele>276.0</ele><time>2026-04-05T04:55:30Z</time></trkpt><trkpt lat="-32.12602293717282" lon="116.50787261665046"><ele>276.0</ele><time>2026-04-05T04:55:31Z</time></trkpt><trkpt lat="-32.12584480492815" lon="116.50785773495798"><ele>276.0</ele><time>2026-04-05T04:55:32Z</time></trkpt><trkpt lat="-32.12566373812802" lon="116.50783460549012"><ele>274.6666666666667</ele><time>2026-04-05T04:55:33Z</time></trkpt><trkpt lat="-32.125480503053645" lon="116.50781863644097"><ele>273.33333333333337</ele><time>2026-04-05T04:55:34Z</time></trkpt><trkpt lat="-32.125307829587946" lon="116.50781295601416"><ele>272.0</ele><time>2026-04-05T04:55:35Z</time></trkpt><trkpt lat="-32.12512339889105" lon="116.50779672814008"><ele>272.0</ele><time>2026-04-05T04:55:36Z</time></trkpt><trkpt lat="-32.12495269908036" lon="116.5077683760454"><ele>272.0</ele><time>2026-04-05T04:55:37Z</time></trkpt><trkpt lat="-32.124781369812155" lon="116.5077447622128"><ele>272.0</ele><time>2026-04-05T04:55:38Z</time></trkpt><trkpt lat="-32.124607683593176" lon="116.50772875033911"><ele>269.6666666666667</ele><time>2026-04-05T04:55:39Z</time></trkpt><trkpt lat="-32.12443452006983" lon="116.50771925075152"><ele>267.3333333333333</ele><time>2026-04-05T04:55:40Z</time></trkpt><trkpt lat="-32.124258956711" lon="116.50769750598224"><ele>265.0</ele><time>2026-04-05T04:55:41Z</time></trkpt><trkpt lat="-32.124084643635484" lon="116.507668107569"><ele>265.0</ele><time>2026-04-05T04:55:42Z</time></trkpt><trkpt lat="-32.123892018797946" lon="116.50764906579863"><ele>265.0</ele><time>2026-04-05T04:55:43Z</time></trkpt><trkpt lat="-32.1236776820046" lon="116.50763254759117"><ele>265.0</ele><time>2026-04-05T04:55:44Z</time></trkpt><trkpt lat="-32.12346846615453" lon="116.50761902726346"><ele>265.0</ele><time>2026-04-05T04:55:45Z</time></trkpt><trkpt lat="-32.123269091038566" lon="116.50759820318216"><ele>265.0</ele><time>2026-04-05T04:55:46Z</time></trkpt><trkpt lat="-32.123056912190016" lon="116.50757398138938"><ele>265.0</ele><time>2026-04-05T04:55:47Z</time></trkpt><trkpt lat="-32.12284870345059" lon="116.5075537417143"><ele>264.3333333333333</ele><time>2026-04-05T04:55:48Z</time></trkpt><trkpt lat="-32.12263688796523" lon="116.50753499357678"><ele>263.6666666666667</ele><time>2026-04-05T04:55:49Z</time></trkpt><trkpt lat="-32.122431272652825" lon="116.50751311176693"><ele>263.0</ele><time>2026-04-05T04:55:50Z</time></trkpt><trkpt lat="-32.12225330366473" lon="116.50749773917862"><ele>263.0</ele><time>2026-04-05T04:55:51Z</time></trkpt><trkpt lat="-32.12211488360809" lon="116.50747690420823"><ele>263.0</ele><time>2026-04-05T04:55:52Z</time></trkpt><trkpt lat="-32.121990194588214" lon="116.50745483407391"><ele>263.0</ele><time>2026-04-05T04:55:53Z</time></trkpt><trkpt lat="-32.12188851565545" lon="116.50743309506463"><ele>263.0</ele><time>2026-04-05T04:55:54Z</time></trkpt><trkpt lat="-32.12181931542845" lon="116.50741130473118"><ele>263.0</ele><time>2026-04-05T04:55:55Z</time></trkpt><trkpt lat="-32.12173758324783" lon="116.5073549459393"><ele>263.0</ele><time>2026-04-05T04:55:57Z</time></trkpt><trkpt lat="-32.121633964134745" lon="116.50731492214612"><ele>263.0</ele><time>2026-04-05T04:55:59Z</time></trkpt><trkpt lat="-32.121528549237404" lon="116.50733543048612"><ele>263.0</ele><time>2026-04-05T04:56:01Z</time></trkpt><trkpt lat="-32.12143946725063" lon="116.50733505921343"><ele>263.0</ele><time>2026-04-05T04:56:03Z</time></trkpt><trkpt lat="-32.12135966368981" lon="116.50731018822022"><ele>263.0</ele><time>2026-04-05T04:56:05Z</time></trkpt><trkpt lat="-32.12127946568797" lon="116.50730119259747"><ele>262.0</ele><time>2026-04-05T04:56:52Z</time></trkpt><trkpt lat="-32.12116975404854" lon="116.50728415721596"><ele>261.0</ele><time>2026-04-05T04:56:54Z</time></trkpt><trkpt lat="-32.12103945697354" lon="116.50725935445605"><ele>260.0</ele><time>2026-04-05T04:56:56Z</time></trkpt><trkpt lat="-32.12094396852127" lon="116.50725043146652"><ele>259.0</ele><time>2026-04-05T04:56:57Z</time></trkpt><trkpt lat="-32.12084482564876" lon="116.50724589080879"><ele>258.0</ele><time>2026-04-05T04:56:58Z</time></trkpt><trkpt lat="-32.12074622809821" lon="116.50723136967765"><ele>257.75</ele><time>2026-04-05T04:56:59Z</time></trkpt><trkpt lat="-32.12063185604043" lon="116.50720958192592"><ele>257.5</ele><time>2026-04-05T04:57:00Z</time></trkpt><trkpt lat="-32.120506584468416" lon="116.50718109865402"><ele>257.25</ele><time>2026-04-05T04:57:01Z</time></trkpt><trkpt lat="-32.120365122055226" lon="116.50715458461167"><ele>257.0</ele><time>2026-04-05T04:57:02Z</time></trkpt><trkpt lat="-32.12021472374248" lon="116.50712917940244"><ele>257.0</ele><time>2026-04-05T04:57:03Z</time></trkpt><trkpt lat="-32.12005093314035" lon="116.50709898774689"><ele>257.0</ele><time>2026-04-05T04:57:04Z</time></trkpt><trkpt lat="-32.11987440380588" lon="116.50706510864627"><ele>257.0</ele><time>2026-04-05T04:57:05Z</time></trkpt><trkpt lat="-32.119706351600335" lon="116.50704150858967"><ele>257.33333333333337</ele><time>2026-04-05T04:57:06Z</time></trkpt><trkpt lat="-32.119551054999064" lon="116.50701462047384"><ele>257.6666666666667</ele><time>2026-04-05T04:57:07Z</time></trkpt><trkpt lat="-32.11938348599936" lon="116.50698717898767"><ele>258.0</ele><time>2026-04-05T04:57:08Z</time></trkpt><trkpt lat="-32.11921808391429" lon="116.50695606117245"><ele>257.0</ele><time>2026-04-05T04:57:09Z</time></trkpt><trkpt lat="-32.11903971998326" lon="116.50692458589502"><ele>256.0</ele><time>2026-04-05T04:57:10Z</time></trkpt><trkpt lat="-32.11885426497135" lon="116.50688863371302"><ele>255.0</ele><time>2026-04-05T04:57:11Z</time></trkpt><trkpt lat="-32.11867096926038" lon="116.50685364260097"><ele>255.0</ele><time>2026-04-05T04:57:12Z</time></trkpt><trkpt lat="-32.118490222675845" lon="116.50682280341519"><ele>255.0</ele><time>2026-04-05T04:57:13Z</time></trkpt><trkpt lat="-32.11829857304593" lon="116.50678355761941"><ele>255.0</ele><time>2026-04-05T04:57:14Z</time></trkpt><trkpt lat="-32.1181079182801" lon="116.5067500038444"><ele>255.0</ele><time>2026-04-05T04:57:15Z</time></trkpt><trkpt lat="-32.117900444322274" lon="116.50672046130329"><ele>255.0</ele><time>2026-04-05T04:57:16Z</time></trkpt><trkpt lat="-32.11769332100054" lon="116.5066870537799"><ele>255.0</ele><time>2026-04-05T04:57:17Z</time></trkpt><trkpt lat="-32.117513117103556" lon="116.50665929719533"><ele>255.0</ele><time>2026-04-05T04:57:18Z</time></trkpt><trkpt lat="-32.11733230978826" lon="116.50662021558189"><ele>255.0</ele><time>2026-04-05T04:57:19Z</time></trkpt><trkpt lat="-32.117144315143186" lon="116.50657097028696"><ele>255.0</ele><time>2026-04-05T04:57:20Z</time></trkpt><trkpt lat="-32.11695596789226" lon="116.5065156876868"><ele>255.0</ele><time>2026-04-05T04:57:21Z</time></trkpt><trkpt lat="-32.11676052314973" lon="116.50645632119412"><ele>255.0</ele><time>2026-04-05T04:57:22Z</time></trkpt><trkpt lat="-32.116582649172756" lon="116.50641002789808"><ele>255.0</ele><time>2026-04-05T04:57:23Z</time></trkpt><trkpt lat="-32.11641583768697" lon="116.5063877326723"><ele>253.66666666666669</ele><time>2026-04-05T04:57:24Z</time></trkpt><trkpt lat="-32.11625365675189" lon="116.50636960295128"><ele>252.33333333333334</ele><time>2026-04-05T04:57:25Z</time></trkpt><trkpt lat="-32.116086019050805" lon="116.50636613760406"><ele>251.0</ele><time>2026-04-05T04:57:26Z</time></trkpt><trkpt lat="-32.11591581554367" lon="116.50637618210484"><ele>251.0</ele><time>2026-04-05T04:57:27Z</time></trkpt><trkpt lat="-32.11573996384152" lon="116.50640224649085"><ele>251.0</ele><time>2026-04-05T04:57:28Z</time></trkpt><trkpt lat="-32.11557769285892" lon="116.50644551692083"><ele>251.0</ele><time>2026-04-05T04:57:29Z</time></trkpt><trkpt lat="-32.1154205795755" lon="116.50649954988839"><ele>252.25</ele><time>2026-04-05T04:57:30Z</time></trkpt><trkpt lat="-32.115282793088916" lon="116.50656221303215"><ele>253.5</ele><time>2026-04-05T04:57:31Z</time></trkpt><trkpt lat="-32.115159033476345" lon="116.50664368997954"><ele>254.75</ele><time>2026-04-05T04:57:32Z</time></trkpt><trkpt lat="-32.11504284136059" lon="116.50674764589633"><ele>256.0</ele><time>2026-04-05T04:57:33Z</time></trkpt><trkpt lat="-32.11493988408045" lon="116.50686820667907"><ele>255.66666666666666</ele><time>2026-04-05T04:57:34Z</time></trkpt><trkpt lat="-32.11484519704145" lon="116.5070085710326"><ele>255.33333333333331</ele><time>2026-04-05T04:57:35Z</time></trkpt><trkpt lat="-32.11475156456452" lon="116.50717626312944"><ele>255.0</ele><time>2026-04-05T04:57:36Z</time></trkpt><trkpt lat="-32.11465204765202" lon="116.5073601478817"><ele>255.0</ele><time>2026-04-05T04:57:37Z</time></trkpt><trkpt lat="-32.11454352562569" lon="116.50753705867066"><ele>255.0</ele><time>2026-04-05T04:57:38Z</time></trkpt><trkpt lat="-32.11442001329401" lon="116.50772124687857"><ele>255.0</ele><time>2026-04-05T04:57:39Z</time></trkpt><trkpt lat="-32.11430412739873" lon="116.50790152440548"><ele>254.66666666666669</ele><time>2026-04-05T04:57:40Z</time></trkpt><trkpt lat="-32.11419883514852" lon="116.50807992321396"><ele>254.33333333333334</ele><time>2026-04-05T04:57:41Z</time></trkpt><trkpt lat="-32.1140922881026" lon="116.5082666666625"><ele>254.0</ele><time>2026-04-05T04:57:42Z</time></trkpt><trkpt lat="-32.113975278178984" lon="116.50844566373185"><ele>254.0</ele><time>2026-04-05T04:57:43Z</time></trkpt><trkpt lat="-32.11386514872707" lon="116.50859138381098"><ele>254.0</ele><time>2026-04-05T04:57:44Z</time></trkpt><trkpt lat="-32.113760249193554" lon="116.50872593967374"><ele>254.0</ele><time>2026-04-05T04:57:45Z</time></trkpt><trkpt lat="-32.11366320310801" lon="116.50885810657674"><ele>253.6</ele><time>2026-04-05T04:57:46Z</time></trkpt><trkpt lat="-32.1135837968116" lon="116.50897010621071"><ele>253.2</ele><time>2026-04-05T04:57:47Z</time></trkpt><trkpt lat="-32.11351113818593" lon="116.5090634814089"><ele>252.79999999999998</ele><time>2026-04-05T04:57:48Z</time></trkpt><trkpt lat="-32.113440519035024" lon="116.50914216478373"><ele>252.39999999999998</ele><time>2026-04-05T04:57:49Z</time></trkpt><trkpt lat="-32.113361021465714" lon="116.50919501105594"><ele>252.0</ele><time>2026-04-05T04:57:50Z</time></trkpt><trkpt lat="-32.11327435319533" lon="116.50922311814894"><ele>252.25</ele><time>2026-04-05T04:57:51Z</time></trkpt><trkpt lat="-32.11316550164442" lon="116.50925083065805"><ele>252.5</ele><time>2026-04-05T04:57:52Z</time></trkpt><trkpt lat="-32.11303453275684" lon="116.50929746178751"><ele>252.75</ele><time>2026-04-05T04:57:53Z</time></trkpt><trkpt lat="-32.11292627502588" lon="116.50934515039994"><ele>253.0</ele><time>2026-04-05T04:57:54Z</time></trkpt><trkpt lat="-32.11281343088827" lon="116.50938453100899"><ele>253.0</ele><time>2026-04-05T04:57:55Z</time></trkpt><trkpt lat="-32.112674160112334" lon="116.50941329860841"><ele>253.0</ele><time>2026-04-05T04:57:56Z</time></trkpt><trkpt lat="-32.11251752694735" lon="116.50943909658062"><ele>253.0</ele><time>2026-04-05T04:57:57Z</time></trkpt><trkpt lat="-32.112379008275695" lon="116.50945773182087"><ele>253.0</ele><time>2026-04-05T04:57:58Z</time></trkpt><trkpt lat="-32.11225156002014" lon="116.50945569986769"><ele>253.0</ele><time>2026-04-05T04:57:59Z</time></trkpt><trkpt lat="-32.1121341351887" lon="116.50944820078853"><ele>253.0</ele><time>2026-04-05T04:58:00Z</time></trkpt><trkpt lat="-32.112026300136456" lon="116.50944571374372"><ele>253.0</ele><time>2026-04-05T04:58:01Z</time></trkpt><trkpt lat="-32.11193518831935" lon="116.50943598260014"><ele>253.0</ele><time>2026-04-05T04:58:02Z</time></trkpt><trkpt lat="-32.11186402552325" lon="116.50942149175941"><ele>253.0</ele><time>2026-04-05T04:58:03Z</time></trkpt><trkpt lat="-32.111795890879726" lon="116.50940009988051"><ele>253.0</ele><time>2026-04-05T04:58:05Z</time></trkpt><trkpt lat="-32.111695237812725" lon="116.50935024985502"><ele>253.0</ele><time>2026-04-05T04:58:53Z</time></trkpt><trkpt lat="-32.111635752831084" lon="116.50930926866101"><ele>253.0</ele><time>2026-04-05T04:58:54Z</time></trkpt><trkpt lat="-32.111578144019376" lon="116.5092616630203"><ele>253.0</ele><time>2026-04-05T04:58:55Z</time></trkpt><trkpt lat="-32.11150048431301" lon="116.50920220028625"><ele>253.0</ele><time>2026-04-05T04:58:56Z</time></trkpt><trkpt lat="-32.11139680712175" lon="116.50911568743335"><ele>252.66666666666666</ele><time>2026-04-05T04:58:57Z</time></trkpt><trkpt lat="-32.11128400975901" lon="116.50901773522428"><ele>252.33333333333331</ele><time>2026-04-05T04:58:58Z</time></trkpt><trkpt lat="-32.1111548958942" lon="116.50889787396314"><ele>252.0</ele><time>2026-04-05T04:58:59Z</time></trkpt><trkpt lat="-32.11101304951127" lon="116.50875792945163"><ele>252.0</ele><time>2026-04-05T04:59:00Z</time></trkpt><trkpt lat="-32.11086315710618" lon="116.5086061768731"><ele>252.0</ele><time>2026-04-05T04:59:01Z</time></trkpt><trkpt lat="-32.110721832334306" lon="116.50846616971386"><ele>252.0</ele><time>2026-04-05T04:59:02Z</time></trkpt><trkpt lat="-32.11058359638724" lon="116.50832802274189"><ele>252.0</ele><time>2026-04-05T04:59:03Z</time></trkpt><trkpt lat="-32.1104561709961" lon="116.50820066521747"><ele>252.0</ele><time>2026-04-05T04:59:04Z</time></trkpt><trkpt lat="-32.11034302511611" lon="116.50808743606613"><ele>252.0</ele><time>2026-04-05T04:59:05Z</time></trkpt><trkpt lat="-32.11022979392424" lon="116.50796843941475"><ele>252.0</ele><time>2026-04-05T04:59:06Z</time></trkpt><trkpt lat="-32.11009584746808" lon="116.5078447403521"><ele>252.0</ele><time>2026-04-05T04:59:07Z</time></trkpt><trkpt lat="-32.109968361045226" lon="116.50772377077527"><ele>252.0</ele><time>2026-04-05T04:59:08Z</time></trkpt><trkpt lat="-32.10981721445287" lon="116.50758392914416"><ele>253.0</ele><time>2026-04-05T04:59:09Z</time></trkpt><trkpt lat="-32.109659827054564" lon="116.50744070222942"><ele>254.0</ele><time>2026-04-05T04:59:10Z</time></trkpt><trkpt lat="-32.10950700311081" lon="116.50730019733396"><ele>255.0</ele><time>2026-04-05T04:59:11Z</time></trkpt><trkpt lat="-32.10934314512245" lon="116.5071591904111"><ele>255.33333333333331</ele><time>2026-04-05T04:59:12Z</time></trkpt><trkpt lat="-32.109183960003506" lon="116.50702153060368"><ele>255.66666666666666</ele><time>2026-04-05T04:59:13Z</time></trkpt><trkpt lat="-32.10903908066925" lon="116.50689055201318"><ele>256.0</ele><time>2026-04-05T04:59:14Z</time></trkpt><trkpt lat="-32.10889913850659" lon="116.50674642985612"><ele>255.33333333333331</ele><time>2026-04-05T04:59:15Z</time></trkpt><trkpt lat="-32.10875101662276" lon="116.50660219815451"><ele>254.66666666666669</ele><time>2026-04-05T04:59:16Z</time></trkpt><trkpt lat="-32.108596545358125" lon="116.50646431117566"><ele>254.0</ele><time>2026-04-05T04:59:17Z</time></trkpt><trkpt lat="-32.10844969461105" lon="116.50632640725807"><ele>253.0</ele><time>2026-04-05T04:59:18Z</time></trkpt><trkpt lat="-32.108297187154946" lon="116.50617369915409"><ele>252.0</ele><time>2026-04-05T04:59:19Z</time></trkpt><trkpt lat="-32.1081415801452" lon="116.50602623207689"><ele>251.0</ele><time>2026-04-05T04:59:20Z</time></trkpt><trkpt lat="-32.107971048239385" lon="116.50586457190987"><ele>249.5</ele><time>2026-04-05T04:59:21Z</time></trkpt><trkpt lat="-32.10778695024806" lon="116.50568305600044"><ele>248.0</ele><time>2026-04-05T04:59:22Z</time></trkpt><trkpt lat="-32.10761165386813" lon="116.50550865295322"><ele>248.33333333333334</ele><time>2026-04-05T04:59:23Z</time></trkpt><trkpt lat="-32.10746157640714" lon="116.50535824122957"><ele>248.66666666666669</ele><time>2026-04-05T04:59:24Z</time></trkpt><trkpt lat="-32.107321795069986" lon="116.50520924164749"><ele>249.0</ele><time>2026-04-05T04:59:25Z</time></trkpt><trkpt lat="-32.10716058357708" lon="116.50503698517991"><ele>249.0</ele><time>2026-04-05T04:59:26Z</time></trkpt><trkpt lat="-32.10701093603822" lon="116.50487520721609"><ele>249.0</ele><time>2026-04-05T04:59:27Z</time></trkpt><trkpt lat="-32.1068725072546" lon="116.50472954019887"><ele>249.0</ele><time>2026-04-05T04:59:28Z</time></trkpt><trkpt lat="-32.106737198917635" lon="116.5046049990724"><ele>250.33333333333331</ele><time>2026-04-05T04:59:29Z</time></trkpt><trkpt lat="-32.10660103125197" lon="116.50448494781082"><ele>251.66666666666666</ele><time>2026-04-05T04:59:30Z</time></trkpt><trkpt lat="-32.10644362494403" lon="116.50436401635358"><ele>253.0</ele><time>2026-04-05T04:59:31Z</time></trkpt><trkpt lat="-32.10627381696142" lon="116.50425227709448"><ele>253.33333333333331</ele><time>2026-04-05T04:59:32Z</time></trkpt><trkpt lat="-32.10611840046212" lon="116.50414925949687"><ele>253.66666666666669</ele><time>2026-04-05T04:59:33Z</time></trkpt><trkpt lat="-32.1059764052652" lon="116.50404728193274"><ele>254.0</ele><time>2026-04-05T04:59:34Z</time></trkpt><trkpt lat="-32.105839916524346" lon="116.5039572491511"><ele>254.0</ele><time>2026-04-05T04:59:35Z</time></trkpt><trkpt lat="-32.10569953484947" lon="116.50386447571158"><ele>254.0</ele><time>2026-04-05T04:59:36Z</time></trkpt><trkpt lat="-32.105556646483706" lon="116.50376261047312"><ele>254.0</ele><time>2026-04-05T04:59:37Z</time></trkpt><trkpt lat="-32.105383812090245" lon="116.5036419271196"><ele>254.33333333333334</ele><time>2026-04-05T04:59:38Z</time></trkpt><trkpt lat="-32.10519147905923" lon="116.50352130514958"><ele>254.66666666666669</ele><time>2026-04-05T04:59:39Z</time></trkpt><trkpt lat="-32.1050059582418" lon="116.50340568892037"><ele>255.0</ele><time>2026-04-05T04:59:40Z</time></trkpt><trkpt lat="-32.10483243875233" lon="116.50330144857666"><ele>255.33333333333331</ele><time>2026-04-05T04:59:41Z</time></trkpt><trkpt lat="-32.104657435515456" lon="116.50319343245245"><ele>255.66666666666666</ele><time>2026-04-05T04:59:42Z</time></trkpt><trkpt lat="-32.10448437582086" lon="116.50307749355129"><ele>256.0</ele><time>2026-04-05T04:59:43Z</time></trkpt><trkpt lat="-32.10430992323743" lon="116.50293998766804"><ele>256.0</ele><time>2026-04-05T04:59:44Z</time></trkpt><trkpt lat="-32.10412623261391" lon="116.5027843954048"><ele>256.0</ele><time>2026-04-05T04:59:45Z</time></trkpt><trkpt lat="-32.103930337422746" lon="116.5026176775044"><ele>255.66666666666666</ele><time>2026-04-05T04:59:46Z</time></trkpt><trkpt lat="-32.103755028100274" lon="116.50246923487637"><ele>255.33333333333331</ele><time>2026-04-05T04:59:47Z</time></trkpt><trkpt lat="-32.1035923624826" lon="116.50233346660657"><ele>255.0</ele><time>2026-04-05T04:59:48Z</time></trkpt><trkpt lat="-32.10342796867878" lon="116.50219500383695"><ele>255.0</ele><time>2026-04-05T04:59:49Z</time></trkpt><trkpt lat="-32.10326634326516" lon="116.50205322409558"><ele>255.0</ele><time>2026-04-05T04:59:50Z</time></trkpt><trkpt lat="-32.10309316440624" lon="116.50190216830426"><ele>255.0</ele><time>2026-04-05T04:59:51Z</time></trkpt><trkpt lat="-32.102933817074614" lon="116.50175175344461"><ele>255.0</ele><time>2026-04-05T04:59:52Z</time></trkpt><trkpt lat="-32.1027708307829" lon="116.50159651582013"><ele>255.0</ele><time>2026-04-05T04:59:53Z</time></trkpt><trkpt lat="-32.10260309322941" lon="116.50145297230881"><ele>255.0</ele><time>2026-04-05T04:59:54Z</time></trkpt><trkpt lat="-32.10243151599737" lon="116.50132203271795"><ele>255.0</ele><time>2026-04-05T04:59:55Z</time></trkpt><trkpt lat="-32.10225051493874" lon="116.50118613286377"><ele>255.0</ele><time>2026-04-05T04:59:56Z</time></trkpt><trkpt lat="-32.102075079831764" lon="116.50104524048189"><ele>255.0</ele><time>2026-04-05T04:59:57Z</time></trkpt><trkpt lat="-32.101914145582164" lon="116.5009161564276"><ele>255.0</ele><time>2026-04-05T04:59:58Z</time></trkpt><trkpt lat="-32.10177081557736" lon="116.5007867570467"><ele>255.0</ele><time>2026-04-05T04:59:59Z</time></trkpt><trkpt lat="-32.10163054958118" lon="116.50064623419456"><ele>255.0</ele><time>2026-04-05T05:00:00Z</time></trkpt><trkpt lat="-32.101484987741834" lon="116.50050526683759"><ele>255.33333333333331</ele><time>2026-04-05T05:00:01Z</time></trkpt><trkpt lat="-32.10131806437959" lon="116.50037131284485"><ele>255.66666666666666</ele><time>2026-04-05T05:00:02Z</time></trkpt><trkpt lat="-32.101138464149095" lon="116.5002403171706"><ele>256.0</ele><time>2026-04-05T05:00:03Z</time></trkpt><trkpt lat="-32.100935106280495" lon="116.50010452063574"><ele>257.0</ele><time>2026-04-05T05:00:04Z</time></trkpt><trkpt lat="-32.10070419268594" lon="116.49994754909228"><ele>258.0</ele><time>2026-04-05T05:00:05Z</time></trkpt><trkpt lat="-32.100460223626406" lon="116.49977549456672"><ele>258.0</ele><time>2026-04-05T05:00:06Z</time></trkpt><trkpt lat="-32.10021931095983" lon="116.49961394822498"><ele>258.0</ele><time>2026-04-05T05:00:07Z</time></trkpt><trkpt lat="-32.09998835987303" lon="116.49945901871065"><ele>257.5</ele><time>2026-04-05T05:00:08Z</time></trkpt><trkpt lat="-32.099785587150336" lon="116.49932138585909"><ele>257.0</ele><time>2026-04-05T05:00:09Z</time></trkpt><trkpt lat="-32.09958660001752" lon="116.49918535794801"><ele>257.0</ele><time>2026-04-05T05:00:10Z</time></trkpt><trkpt lat="-32.09940335330581" lon="116.49906132905936"><ele>257.0</ele><time>2026-04-05T05:00:11Z</time></trkpt><trkpt lat="-32.09924265849454" lon="116.4989498122831"><ele>257.0</ele><time>2026-04-05T05:00:12Z</time></trkpt><trkpt lat="-32.09908202702135" lon="116.49884148473758"><ele>256.33333333333337</ele><time>2026-04-05T05:00:13Z</time></trkpt><trkpt lat="-32.09892259339515" lon="116.49872635402235"><ele>255.66666666666669</ele><time>2026-04-05T05:00:14Z</time></trkpt><trkpt lat="-32.0987734986781" lon="116.49862545415253"><ele>255.0</ele><time>2026-04-05T05:00:15Z</time></trkpt><trkpt lat="-32.09863231787756" lon="116.49854732395973"><ele>255.0</ele><time>2026-04-05T05:00:16Z</time></trkpt><trkpt lat="-32.09847790469664" lon="116.49847954220165"><ele>255.0</ele><time>2026-04-05T05:00:17Z</time></trkpt><trkpt lat="-32.098310844608676" lon="116.4984190330461"><ele>255.0</ele><time>2026-04-05T05:00:18Z</time></trkpt><trkpt lat="-32.09813633063656" lon="116.49836479223498"><ele>255.66666666666669</ele><time>2026-04-05T05:00:19Z</time></trkpt><trkpt lat="-32.09796258953821" lon="116.4982938945767"><ele>256.33333333333337</ele><time>2026-04-05T05:00:20Z</time></trkpt><trkpt lat="-32.09779825645411" lon="116.4981992517694"><ele>257.0</ele><time>2026-04-05T05:00:21Z</time></trkpt><trkpt lat="-32.09763176742561" lon="116.49809259177673"><ele>257.0</ele><time>2026-04-05T05:00:22Z</time></trkpt><trkpt lat="-32.09746366751302" lon="116.49798109415944"><ele>257.0</ele><time>2026-04-05T05:00:23Z</time></trkpt><trkpt lat="-32.09727926498264" lon="116.49786713341932"><ele>257.0</ele><time>2026-04-05T05:00:24Z</time></trkpt><trkpt lat="-32.097097325014936" lon="116.49774555201948"><ele>255.66666666666669</ele><time>2026-04-05T05:00:25Z</time></trkpt><trkpt lat="-32.09691774891689" lon="116.49760401191914"><ele>254.33333333333331</ele><time>2026-04-05T05:00:26Z</time></trkpt><trkpt lat="-32.096742884542515" lon="116.49744908132752"><ele>253.0</ele><time>2026-04-05T05:00:27Z</time></trkpt><trkpt lat="-32.09657359574328" lon="116.49729338004221"><ele>253.66666666666666</ele><time>2026-04-05T05:00:28Z</time></trkpt><trkpt lat="-32.09641054645179" lon="116.49714625716634"><ele>254.33333333333331</ele><time>2026-04-05T05:00:29Z</time></trkpt><trkpt lat="-32.096258413972635" lon="116.49700277509683"><ele>255.0</ele><time>2026-04-05T05:00:30Z</time></trkpt><trkpt lat="-32.0961065089797" lon="116.49685003511514"><ele>255.0</ele><time>2026-04-05T05:00:31Z</time></trkpt><trkpt lat="-32.09596316591551" lon="116.49670414813866"><ele>255.0</ele><time>2026-04-05T05:00:32Z</time></trkpt><trkpt lat="-32.09583277278437" lon="116.4965730502152"><ele>255.0</ele><time>2026-04-05T05:00:33Z</time></trkpt><trkpt lat="-32.09570268540635" lon="116.4964422502285"><ele>254.0</ele><time>2026-04-05T05:00:34Z</time></trkpt><trkpt lat="-32.09556689038011" lon="116.49630447874617"><ele>253.0</ele><time>2026-04-05T05:00:35Z</time></trkpt><trkpt lat="-32.09544339479764" lon="116.4961595015154"><ele>252.0</ele><time>2026-04-05T05:00:36Z</time></trkpt><trkpt lat="-32.095335869890114" lon="116.49601795526671"><ele>252.0</ele><time>2026-04-05T05:00:37Z</time></trkpt><trkpt lat="-32.095243732929184" lon="116.4958959158417"><ele>252.0</ele><time>2026-04-05T05:00:38Z</time></trkpt><trkpt lat="-32.09515181889344" lon="116.49578215636721"><ele>252.0</ele><time>2026-04-05T05:00:39Z</time></trkpt><trkpt lat="-32.095071278477" lon="116.49568080803961"><ele>252.0</ele><time>2026-04-05T05:00:40Z</time></trkpt><trkpt lat="-32.094995251735945" lon="116.49558787596172"><ele>250.6</ele><time>2026-04-05T05:00:41Z</time></trkpt><trkpt lat="-32.0949194340997" lon="116.495510364676"><ele>249.2</ele><time>2026-04-05T05:00:42Z</time></trkpt><trkpt lat="-32.0948491706433" lon="116.49544140659704"><ele>247.8</ele><time>2026-04-05T05:00:43Z</time></trkpt><trkpt lat="-32.094773422714724" lon="116.49537188236538"><ele>246.4</ele><time>2026-04-05T05:00:44Z</time></trkpt><trkpt lat="-32.09471147169775" lon="116.49530167416269"><ele>245.0</ele><time>2026-04-05T05:00:45Z</time></trkpt><trkpt lat="-32.094650302530475" lon="116.49522962162561"><ele>245.0</ele><time>2026-04-05T05:00:46Z</time></trkpt><trkpt lat="-32.09459280893249" lon="116.49515711285854"><ele>245.0</ele><time>2026-04-05T05:00:47Z</time></trkpt><trkpt lat="-32.09453088802985" lon="116.495077750559"><ele>245.0</ele><time>2026-04-05T05:00:48Z</time></trkpt><trkpt lat="-32.094461669809405" lon="116.49498562989424"><ele>245.0</ele><time>2026-04-05T05:00:49Z</time></trkpt><trkpt lat="-32.09440347164879" lon="116.49490209752278"><ele>245.0</ele><time>2026-04-05T05:00:50Z</time></trkpt><trkpt lat="-32.094350512631074" lon="116.49482290812209"><ele>245.00000000000003</ele><time>2026-04-05T05:00:51Z</time></trkpt><trkpt lat="-32.09430477764897" lon="116.49475441265987"><ele>245.0</ele><time>2026-04-05T05:00:52Z</time></trkpt><trkpt lat="-32.094265560588326" lon="116.4946869356565"><ele>245.0</ele><time>2026-04-05T05:00:53Z</time></trkpt><trkpt lat="-32.09422822178672" lon="116.49462048523856"><ele>245.0</ele><time>2026-04-05T05:00:54Z</time></trkpt><trkpt lat="-32.094163345882464" lon="116.49450732684626"><ele>245.00000000000003</ele><time>2026-04-05T05:00:56Z</time></trkpt><trkpt lat="-32.09410183471513" lon="116.49439441535307"><ele>245.0</ele><time>2026-04-05T05:00:58Z</time></trkpt><trkpt lat="-32.09404613977336" lon="116.49430539674456"><ele>244.6</ele><time>2026-04-05T05:01:00Z</time></trkpt><trkpt lat="-32.09396132486435" lon="116.49430230004324"><ele>244.2</ele><time>2026-04-05T05:01:03Z</time></trkpt><trkpt lat="-32.09387308121674" lon="116.4943692303974"><ele>243.8</ele><time>2026-04-05T05:01:05Z</time></trkpt><trkpt lat="-32.093805882723714" lon="116.49447123566365"><ele>243.4</ele><time>2026-04-05T05:01:07Z</time></trkpt><trkpt lat="-32.09377259382239" lon="116.49453871860166"><ele>243.0</ele><time>2026-04-05T05:01:08Z</time></trkpt><trkpt lat="-32.09369424402979" lon="116.494666657509"><ele>242.71428571428572</ele><time>2026-04-05T05:01:10Z</time></trkpt><trkpt lat="-32.093643297229725" lon="116.49473709579055"><ele>242.42857142857144</ele><time>2026-04-05T05:01:11Z</time></trkpt><trkpt lat="-32.093588805222126" lon="116.49480695115068"><ele>242.14285714285717</ele><time>2026-04-05T05:01:12Z</time></trkpt><trkpt lat="-32.0935343200356" lon="116.49488211442412"><ele>241.85714285714286</ele><time>2026-04-05T05:01:13Z</time></trkpt><trkpt lat="-32.093487301722455" lon="116.49494139199088"><ele>241.5714285714286</ele><time>2026-04-05T05:01:14Z</time></trkpt><trkpt lat="-32.09345926453586" lon="116.49500877564985"><ele>241.2857142857143</ele><time>2026-04-05T05:01:15Z</time></trkpt><trkpt lat="-32.093442939662275" lon="116.495088601957"><ele>241.0</ele><time>2026-04-05T05:01:16Z</time></trkpt><trkpt lat="-32.093426161558554" lon="116.49517738132916"><ele>240.99999999999997</ele><time>2026-04-05T05:01:17Z</time></trkpt><trkpt lat="-32.09339152481077" lon="116.49525402303807"><ele>241.0</ele><time>2026-04-05T05:01:18Z</time></trkpt><trkpt lat="-32.093340100888106" lon="116.49531112391988"><ele>241.0</ele><time>2026-04-05T05:01:19Z</time></trkpt><trkpt lat="-32.0932759699837" lon="116.49535538007599"><ele>241.0</ele><time>2026-04-05T05:01:20Z</time></trkpt><trkpt lat="-32.09318408575938" lon="116.4954056017934"><ele>240.99999999999997</ele><time>2026-04-05T05:01:21Z</time></trkpt><trkpt lat="-32.093095216422945" lon="116.4954728595099"><ele>241.0</ele><time>2026-04-05T05:01:22Z</time></trkpt><trkpt lat="-32.0930098521697" lon="116.49555356733373"><ele>240.60000000000002</ele><time>2026-04-05T05:01:23Z</time></trkpt><trkpt lat="-32.09291960283366" lon="116.4956360627414"><ele>240.20000000000002</ele><time>2026-04-05T05:01:24Z</time></trkpt><trkpt lat="-32.09283144065134" lon="116.49569931732482"><ele>239.79999999999998</ele><time>2026-04-05T05:01:25Z</time></trkpt><trkpt lat="-32.09275810059798" lon="116.49574172223555"><ele>239.39999999999998</ele><time>2026-04-05T05:01:26Z</time></trkpt><trkpt lat="-32.092702192408304" lon="116.49578165933292"><ele>239.0</ele><time>2026-04-05T05:01:27Z</time></trkpt><trkpt lat="-32.09261915650122" lon="116.49588962163233"><ele>239.0</ele><time>2026-04-05T05:01:29Z</time></trkpt><trkpt lat="-32.092497798225246" lon="116.49594816898934"><ele>238.99999999999997</ele><time>2026-04-05T05:01:31Z</time></trkpt><trkpt lat="-32.09243333865996" lon="116.49596887140126"><ele>238.99999999999997</ele><time>2026-04-05T05:01:32Z</time></trkpt><trkpt lat="-32.09234395914765" lon="116.49604810581998"><ele>239.0</ele><time>2026-04-05T05:01:34Z</time></trkpt><trkpt lat="-32.09231119363435" lon="116.49618358027101"><ele>239.0</ele><time>2026-04-05T05:01:36Z</time></trkpt><trkpt lat="-32.09229789262717" lon="116.49626202281907"><ele>239.16666666666669</ele><time>2026-04-05T05:01:37Z</time></trkpt><trkpt lat="-32.09226776835551" lon="116.49634123207021"><ele>239.33333333333334</ele><time>2026-04-05T05:01:38Z</time></trkpt><trkpt lat="-32.09221748324399" lon="116.49641371385687"><ele>239.5</ele><time>2026-04-05T05:01:39Z</time></trkpt><trkpt lat="-32.092133083100286" lon="116.49653855717095"><ele>239.66666666666669</ele><time>2026-04-05T05:01:41Z</time></trkpt><trkpt lat="-32.092105641885475" lon="116.496610282269"><ele>239.83333333333334</ele><time>2026-04-05T05:01:42Z</time></trkpt><trkpt lat="-32.092058534533244" lon="116.4966714834272"><ele>240.0</ele><time>2026-04-05T05:01:43Z</time></trkpt><trkpt lat="-32.09194579210155" lon="116.49673215639083"><ele>240.0</ele><time>2026-04-05T05:01:45Z</time></trkpt><trkpt lat="-32.0918794781051" lon="116.49669605938234"><ele>240.0</ele><time>2026-04-05T05:01:58Z</time></trkpt><trkpt lat="-32.09176946434783" lon="116.4966810285158"><ele>240.0</ele><time>2026-04-05T05:02:00Z</time></trkpt><trkpt lat="-32.09169710100547" lon="116.49669037250574"><ele>240.0</ele><time>2026-04-05T05:02:01Z</time></trkpt><trkpt lat="-32.091596576679976" lon="116.49670493250709"><ele>240.0</ele><time>2026-04-05T05:02:02Z</time></trkpt><trkpt lat="-32.09152973457385" lon="116.49672168976147"><ele>240.0</ele><time>2026-04-05T05:02:03Z</time></trkpt><trkpt lat="-32.09146542233283" lon="116.49673809584246"><ele>239.83333333333334</ele><time>2026-04-05T05:02:04Z</time></trkpt><trkpt lat="-32.091397106666115" lon="116.49675733384397"><ele>239.66666666666669</ele><time>2026-04-05T05:02:05Z</time></trkpt><trkpt lat="-32.09133757786867" lon="116.49679111738568"><ele>239.5</ele><time>2026-04-05T05:02:06Z</time></trkpt><trkpt lat="-32.09127095492144" lon="116.4968044011212"><ele>239.33333333333334</ele><time>2026-04-05T05:02:07Z</time></trkpt><trkpt lat="-32.09117501615674" lon="116.4968261804158"><ele>239.16666666666669</ele><time>2026-04-05T05:02:08Z</time></trkpt><trkpt lat="-32.0910823250627" lon="116.49683745064138"><ele>239.0</ele><time>2026-04-05T05:02:09Z</time></trkpt><trkpt lat="-32.090984519437676" lon="116.49683989302602"><ele>239.00000000000003</ele><time>2026-04-05T05:02:10Z</time></trkpt><trkpt lat="-32.090909769593374" lon="116.49684107660696"><ele>239.0</ele><time>2026-04-05T05:02:11Z</time></trkpt><trkpt lat="-32.09084426390313" lon="116.49685549374375"><ele>239.0</ele><time>2026-04-05T05:02:13Z</time></trkpt><trkpt lat="-32.090765735600925" lon="116.49694426129832"><ele>239.0</ele><time>2026-04-05T05:02:16Z</time></trkpt><trkpt lat="-32.090683935302536" lon="116.49699204061575"><ele>239.00000000000003</ele><time>2026-04-05T05:02:18Z</time></trkpt><trkpt lat="-32.090626650515574" lon="116.49704061356066"><ele>239.0</ele><time>2026-04-05T05:02:19.999Z</time></trkpt><trkpt lat="-32.09058769324849" lon="116.49712114613084"><ele>239.83333333333334</ele><time>2026-04-05T05:02:21.999Z</time></trkpt><trkpt lat="-32.09053398409463" lon="116.49717468222181"><ele>240.66666666666669</ele><time>2026-04-05T05:02:22.999Z</time></trkpt><trkpt lat="-32.09048228784187" lon="116.49723222027484"><ele>241.5</ele><time>2026-04-05T05:02:23.999Z</time></trkpt><trkpt lat="-32.090380575314704" lon="116.49729618933081"><ele>242.33333333333331</ele><time>2026-04-05T05:02:25.999Z</time></trkpt><trkpt lat="-32.09027413246059" lon="116.49728990961974"><ele>243.16666666666666</ele><time>2026-04-05T05:02:27.999Z</time></trkpt><trkpt lat="-32.09022470384374" lon="116.49736562080396"><ele>244.0</ele><time>2026-04-05T05:02:29.999Z</time></trkpt><trkpt lat="-32.09013724122851" lon="116.49748453686924"><ele>244.0</ele><time>2026-04-05T05:02:31.999Z</time></trkpt><trkpt lat="-32.09006006712599" lon="116.49758025270548"><ele>244.0</ele><time>2026-04-05T05:02:32.999Z</time></trkpt><trkpt lat="-32.089987927018306" lon="116.49770589950953"><ele>244.0</ele><time>2026-04-05T05:02:33.999Z</time></trkpt><trkpt lat="-32.089906981578096" lon="116.49784644720134"><ele>244.0</ele><time>2026-04-05T05:02:34.999Z</time></trkpt><trkpt lat="-32.089810762039" lon="116.49799023189719"><ele>244.5</ele><time>2026-04-05T05:02:35.999Z</time></trkpt><trkpt lat="-32.08970952899205" lon="116.49812652556801"><ele>245.0</ele><time>2026-04-05T05:02:36.999Z</time></trkpt><trkpt lat="-32.08961477576223" lon="116.49826018055532"><ele>245.5</ele><time>2026-04-05T05:02:37.999Z</time></trkpt><trkpt lat="-32.08953623026192" lon="116.49839404480637"><ele>246.0</ele><time>2026-04-05T05:02:38.999Z</time></trkpt><trkpt lat="-32.08945782812651" lon="116.49850874455649"><ele>246.0</ele><time>2026-04-05T05:02:39.999Z</time></trkpt><trkpt lat="-32.089358308658994" lon="116.49862402798162"><ele>246.0</ele><time>2026-04-05T05:02:40.999Z</time></trkpt><trkpt lat="-32.08926664873436" lon="116.49875383173139"><ele>246.0</ele><time>2026-04-05T05:02:41.999Z</time></trkpt><trkpt lat="-32.08918305878085" lon="116.49890073316229"><ele>246.0</ele><time>2026-04-05T05:02:42.999Z</time></trkpt><trkpt lat="-32.08910473416093" lon="116.49904371105062"><ele>246.25</ele><time>2026-04-05T05:02:43.999Z</time></trkpt><trkpt lat="-32.08903536941196" lon="116.49917351300476"><ele>246.5</ele><time>2026-04-05T05:02:44.999Z</time></trkpt><trkpt lat="-32.08897514978083" lon="116.4992825096017"><ele>246.75</ele><time>2026-04-05T05:02:45.999Z</time></trkpt><trkpt lat="-32.08891902403176" lon="116.49939653288322"><ele>247.0</ele><time>2026-04-05T05:02:46.999Z</time></trkpt><trkpt lat="-32.08887184919994" lon="116.49951061552125"><ele>247.6</ele><time>2026-04-05T05:02:47.999Z</time></trkpt><trkpt lat="-32.08884393044628" lon="116.49962540677711"><ele>248.2</ele><time>2026-04-05T05:02:48.999Z</time></trkpt><trkpt lat="-32.08881041685113" lon="116.49973730068207"><ele>248.8</ele><time>2026-04-05T05:02:49.999Z</time></trkpt><trkpt lat="-32.08876048956112" lon="116.4998327225592"><ele>249.4</ele><time>2026-04-05T05:02:50.999Z</time></trkpt><trkpt lat="-32.08869084921521" lon="116.49993398734134"><ele>250.0</ele><time>2026-04-05T05:02:52Z</time></trkpt><trkpt lat="-32.08862300096925" lon="116.50004877687859"><ele>250.0</ele><time>2026-04-05T05:02:53Z</time></trkpt><trkpt lat="-32.088568095190524" lon="116.50017779461095"><ele>250.0</ele><time>2026-04-05T05:02:54Z</time></trkpt><trkpt lat="-32.08852238456459" lon="116.50033652598556"><ele>250.0</ele><time>2026-04-05T05:02:55Z</time></trkpt><trkpt lat="-32.08846822978824" lon="116.50048041974405"><ele>250.0</ele><time>2026-04-05T05:02:56Z</time></trkpt><trkpt lat="-32.08841216993999" lon="116.50063053396534"><ele>250.0</ele><time>2026-04-05T05:02:57Z</time></trkpt><trkpt lat="-32.08836298974846" lon="116.50078443029447"><ele>250.0</ele><time>2026-04-05T05:02:58Z</time></trkpt><trkpt lat="-32.088317405599845" lon="116.50095173240776"><ele>250.0</ele><time>2026-04-05T05:02:59Z</time></trkpt><trkpt lat="-32.08827060235187" lon="116.5011279160838"><ele>250.0</ele><time>2026-04-05T05:03:00Z</time></trkpt><trkpt lat="-32.08823181336733" lon="116.50128847887456"><ele>249.8</ele><time>2026-04-05T05:03:01Z</time></trkpt><trkpt lat="-32.08818265420275" lon="116.50141683031093"><ele>249.6</ele><time>2026-04-05T05:03:02Z</time></trkpt><trkpt lat="-32.08812235950041" lon="116.5015128447897"><ele>249.39999999999998</ele><time>2026-04-05T05:03:03Z</time></trkpt><trkpt lat="-32.08806366737298" lon="116.50157888374372"><ele>249.2</ele><time>2026-04-05T05:03:04Z</time></trkpt><trkpt lat="-32.08800269709022" lon="116.50161979014285"><ele>249.0</ele><time>2026-04-05T05:03:05Z</time></trkpt><trkpt lat="-32.08789831674555" lon="116.50161505597067"><ele>249.0</ele><time>2026-04-05T05:03:07Z</time></trkpt><trkpt lat="-32.08781907425685" lon="116.50164631992935"><ele>248.99999999999997</ele><time>2026-04-05T05:03:09Z</time></trkpt><trkpt lat="-32.08773301059198" lon="116.50177079657102"><ele>248.99999999999997</ele><time>2026-04-05T05:03:10.999Z</time></trkpt><trkpt lat="-32.08768535012966" lon="116.50185912482762"><ele>249.0</ele><time>2026-04-05T05:03:11.999Z</time></trkpt><trkpt lat="-32.087635578111154" lon="116.50195172980574"><ele>249.0</ele><time>2026-04-05T05:03:12.999Z</time></trkpt><trkpt lat="-32.087549900132764" lon="116.50205812782082"><ele>249.0</ele><time>2026-04-05T05:03:13.999Z</time></trkpt><trkpt lat="-32.08744649008013" lon="116.50216376634003"><ele>249.0</ele><time>2026-04-05T05:03:14.999Z</time></trkpt><trkpt lat="-32.08732539578082" lon="116.50226086711608"><ele>249.0</ele><time>2026-04-05T05:03:15.999Z</time></trkpt><trkpt lat="-32.08719092837847" lon="116.50235202401791"><ele>249.0</ele><time>2026-04-05T05:03:16.998Z</time></trkpt><trkpt lat="-32.08705986211869" lon="116.50243654946603"><ele>249.0</ele><time>2026-04-05T05:03:17.998Z</time></trkpt><trkpt lat="-32.08692578602935" lon="116.50251312364398"><ele>249.0</ele><time>2026-04-05T05:03:18.998Z</time></trkpt><trkpt lat="-32.08678801815973" lon="116.50258786175847"><ele>249.0</ele><time>2026-04-05T05:03:19.998Z</time></trkpt><trkpt lat="-32.086661546586534" lon="116.50264782565048"><ele>249.0</ele><time>2026-04-05T05:03:20.998Z</time></trkpt><trkpt lat="-32.08654120689839" lon="116.50268985453052"><ele>248.66666666666669</ele><time>2026-04-05T05:03:21.998Z</time></trkpt><trkpt lat="-32.08640125967964" lon="116.50271794018524"><ele>248.33333333333334</ele><time>2026-04-05T05:03:22.998Z</time></trkpt><trkpt lat="-32.0862418708222" lon="116.50274854147517"><ele>248.0</ele><time>2026-04-05T05:03:23.998Z</time></trkpt><trkpt lat="-32.08608608285145" lon="116.50277220008691"><ele>248.0</ele><time>2026-04-05T05:03:24.998Z</time></trkpt><trkpt lat="-32.08593061106928" lon="116.50279354771791"><ele>248.0</ele><time>2026-04-05T05:03:25.998Z</time></trkpt><trkpt lat="-32.08578131157408" lon="116.50281262016087"><ele>248.0</ele><time>2026-04-05T05:03:26.998Z</time></trkpt><trkpt lat="-32.08563110770131" lon="116.50283728504881"><ele>250.25</ele><time>2026-04-05T05:03:27.998Z</time></trkpt><trkpt lat="-32.08547826917709" lon="116.50286406273764"><ele>252.5</ele><time>2026-04-05T05:03:28.998Z</time></trkpt><trkpt lat="-32.085323939998595" lon="116.50288592229252"><ele>254.75</ele><time>2026-04-05T05:03:29.998Z</time></trkpt><trkpt lat="-32.08519059826741" lon="116.50290349383842"><ele>257.0</ele><time>2026-04-05T05:03:30.997Z</time></trkpt><trkpt lat="-32.08505815985522" lon="116.50293418689472"><ele>258.33333333333337</ele><time>2026-04-05T05:03:31.997Z</time></trkpt><trkpt lat="-32.0849153362537" lon="116.50296460180748"><ele>259.6666666666667</ele><time>2026-04-05T05:03:32.997Z</time></trkpt><trkpt lat="-32.084754751378284" lon="116.50299047600855"><ele>261.0</ele><time>2026-04-05T05:03:33.997Z</time></trkpt><trkpt lat="-32.084589404888035" lon="116.5030082768424"><ele>261.0</ele><time>2026-04-05T05:03:34.997Z</time></trkpt><trkpt lat="-32.08443299750736" lon="116.50302723103144"><ele>261.0</ele><time>2026-04-05T05:03:35.997Z</time></trkpt><trkpt lat="-32.08428878268957" lon="116.50305230358279"><ele>261.0</ele><time>2026-04-05T05:03:36.997Z</time></trkpt><trkpt lat="-32.0841460272663" lon="116.5030778904927"><ele>261.0</ele><time>2026-04-05T05:03:37.997Z</time></trkpt><trkpt lat="-32.08399711979908" lon="116.5031168552409"><ele>262.3333333333333</ele><time>2026-04-05T05:03:38.997Z</time></trkpt><trkpt lat="-32.08383857554498" lon="116.50316995344724"><ele>263.66666666666663</ele><time>2026-04-05T05:03:39.997Z</time></trkpt><trkpt lat="-32.08366564823707" lon="116.50322612568614"><ele>265.0</ele><time>2026-04-05T05:03:40.997Z</time></trkpt><trkpt lat="-32.08350664224799" lon="116.50327560415344"><ele>265.0</ele><time>2026-04-05T05:03:41.997Z</time></trkpt><trkpt lat="-32.08335883209765" lon="116.50332277988726"><ele>265.0</ele><time>2026-04-05T05:03:42.997Z</time></trkpt><trkpt lat="-32.08321227365948" lon="116.5033809140213"><ele>265.0</ele><time>2026-04-05T05:03:43.997Z</time></trkpt><trkpt lat="-32.08307371220903" lon="116.50343159850429"><ele>266.0</ele><time>2026-04-05T05:03:44.997Z</time></trkpt><trkpt lat="-32.08295010978815" lon="116.50347724309597"><ele>267.0</ele><time>2026-04-05T05:03:45.997Z</time></trkpt><trkpt lat="-32.08286204392748" lon="116.50353195769407"><ele>268.0</ele><time>2026-04-05T05:03:46.997Z</time></trkpt><trkpt lat="-32.08279517603912" lon="116.50359532670943"><ele>269.0</ele><time>2026-04-05T05:03:47.997Z</time></trkpt><trkpt lat="-32.08272496370433" lon="116.50364921160691"><ele>270.0</ele><time>2026-04-05T05:03:48.997Z</time></trkpt><trkpt lat="-32.08262937998205" lon="116.50367247270839"><ele>270.0</ele><time>2026-04-05T05:03:49.997Z</time></trkpt><trkpt lat="-32.0825207052728" lon="116.50367926420112"><ele>270.0</ele><time>2026-04-05T05:03:50.997Z</time></trkpt><trkpt lat="-32.08240123114574" lon="116.50367214996541"><ele>270.0</ele><time>2026-04-05T05:03:51.997Z</time></trkpt><trkpt lat="-32.082276056488446" lon="116.50367756733698"><ele>270.0</ele><time>2026-04-05T05:03:52.997Z</time></trkpt><trkpt lat="-32.08215111015116" lon="116.50372440773486"><ele>269.3333333333333</ele><time>2026-04-05T05:03:53.997Z</time></trkpt><trkpt lat="-32.08201889081807" lon="116.50380358459046"><ele>268.66666666666663</ele><time>2026-04-05T05:03:54.997Z</time></trkpt><trkpt lat="-32.081871237296546" lon="116.5039005991601"><ele>268.0</ele><time>2026-04-05T05:03:55.997Z</time></trkpt><trkpt lat="-32.08173350255046" lon="116.5040071129588"><ele>269.3333333333333</ele><time>2026-04-05T05:03:56.997Z</time></trkpt><trkpt lat="-32.08158895697669" lon="116.50413472131784"><ele>270.6666666666667</ele><time>2026-04-05T05:03:57.997Z</time></trkpt><trkpt lat="-32.08143532676989" lon="116.50424856677603"><ele>272.0</ele><time>2026-04-05T05:03:58.997Z</time></trkpt><trkpt lat="-32.08129241367426" lon="116.50435329458394"><ele>272.0</ele><time>2026-04-05T05:03:59.997Z</time></trkpt><trkpt lat="-32.08115864237233" lon="116.50445439118994"><ele>272.0</ele><time>2026-04-05T05:04:00.997Z</time></trkpt><trkpt lat="-32.081016945187486" lon="116.50456971816921"><ele>272.0</ele><time>2026-04-05T05:04:01.997Z</time></trkpt><trkpt lat="-32.080883884000635" lon="116.50467484352009"><ele>272.25</ele><time>2026-04-05T05:04:02.997Z</time></trkpt><trkpt lat="-32.08076248937247" lon="116.50476673648079"><ele>272.5</ele><time>2026-04-05T05:04:03.997Z</time></trkpt><trkpt lat="-32.080649156350695" lon="116.50484760839797"><ele>272.75</ele><time>2026-04-05T05:04:04.997Z</time></trkpt><trkpt lat="-32.08055220195264" lon="116.50493339465088"><ele>273.0</ele><time>2026-04-05T05:04:05.997Z</time></trkpt><trkpt lat="-32.08045827336673" lon="116.50502103887275"><ele>273.0</ele><time>2026-04-05T05:04:06.997Z</time></trkpt><trkpt lat="-32.08035401832057" lon="116.50510865224905"><ele>273.0</ele><time>2026-04-05T05:04:07.997Z</time></trkpt><trkpt lat="-32.08023348161741" lon="116.50518802405841"><ele>273.0</ele><time>2026-04-05T05:04:08.997Z</time></trkpt><trkpt lat="-32.08011346666072" lon="116.50527138153642"><ele>273.0</ele><time>2026-04-05T05:04:09.997Z</time></trkpt><trkpt lat="-32.07999071338274" lon="116.5053649923814"><ele>273.0</ele><time>2026-04-05T05:04:10.997Z</time></trkpt><trkpt lat="-32.079874566843955" lon="116.50546259754687"><ele>273.0</ele><time>2026-04-05T05:04:11.997Z</time></trkpt><trkpt lat="-32.07976432530655" lon="116.50556203743092"><ele>273.0</ele><time>2026-04-05T05:04:12.997Z</time></trkpt><trkpt lat="-32.07965310545296" lon="116.50565152665973"><ele>273.0</ele><time>2026-04-05T05:04:13.997Z</time></trkpt><trkpt lat="-32.0795528296898" lon="116.50572476431316"><ele>273.0</ele><time>2026-04-05T05:04:14.997Z</time></trkpt><trkpt lat="-32.079448883856266" lon="116.50579856372597"><ele>273.0</ele><time>2026-04-05T05:04:15.997Z</time></trkpt><trkpt lat="-32.07932945249376" lon="116.50587654303168"><ele>273.0</ele><time>2026-04-05T05:04:16.997Z</time></trkpt><trkpt lat="-32.079197658403224" lon="116.5059434008955"><ele>273.0</ele><time>2026-04-05T05:04:17.997Z</time></trkpt><trkpt lat="-32.07906599482393" lon="116.50599530810503"><ele>273.75</ele><time>2026-04-05T05:04:18.997Z</time></trkpt><trkpt lat="-32.07894381572699" lon="116.50602887279112"><ele>274.5</ele><time>2026-04-05T05:04:19.997Z</time></trkpt><trkpt lat="-32.0788214615682" lon="116.50605329231574"><ele>275.25</ele><time>2026-04-05T05:04:20.997Z</time></trkpt><trkpt lat="-32.07870941160172" lon="116.50607521683065"><ele>276.0</ele><time>2026-04-05T05:04:21.997Z</time></trkpt><trkpt lat="-32.07861278821129" lon="116.5060951036881"><ele>276.0</ele><time>2026-04-05T05:04:22.997Z</time></trkpt><trkpt lat="-32.07852564934705" lon="116.50612373481489"><ele>276.0</ele><time>2026-04-05T05:04:23.997Z</time></trkpt><trkpt lat="-32.07844616008208" lon="116.50617628441067"><ele>276.0</ele><time>2026-04-05T05:04:24.997Z</time></trkpt><trkpt lat="-32.07838299494041" lon="116.50623299586168"><ele>276.0</ele><time>2026-04-05T05:04:25.997Z</time></trkpt><trkpt lat="-32.07832973074829" lon="116.50630623654203"><ele>276.0</ele><time>2026-04-05T05:04:26.997Z</time></trkpt><trkpt lat="-32.078239289085474" lon="116.50638569182313"><ele>276.2</ele><time>2026-04-05T05:04:28.997Z</time></trkpt><trkpt lat="-32.07813801105228" lon="116.50637183120291"><ele>276.40000000000003</ele><time>2026-04-05T05:04:30.997Z</time></trkpt><trkpt lat="-32.07805614437588" lon="116.50635700048126"><ele>276.6</ele><time>2026-04-05T05:04:31.997Z</time></trkpt><trkpt lat="-32.077980908197134" lon="116.50633171642872"><ele>276.8</ele><time>2026-04-05T05:04:32.997Z</time></trkpt><trkpt lat="-32.077878343033454" lon="116.50629340435113"><ele>277.0</ele><time>2026-04-05T05:04:33.997Z</time></trkpt><trkpt lat="-32.077775751089504" lon="116.50626940848508"><ele>277.0</ele><time>2026-04-05T05:04:34.997Z</time></trkpt><trkpt lat="-32.07766323040397" lon="116.50626613093705"><ele>277.0</ele><time>2026-04-05T05:04:35.997Z</time></trkpt><trkpt lat="-32.07753482758259" lon="116.50628278528625"><ele>277.0</ele><time>2026-04-05T05:04:36.997Z</time></trkpt><trkpt lat="-32.07740095681796" lon="116.5062973592627"><ele>277.0</ele><time>2026-04-05T05:04:37.997Z</time></trkpt><trkpt lat="-32.07724434203369" lon="116.50631588151441"><ele>277.66666666666663</ele><time>2026-04-05T05:04:38.997Z</time></trkpt><trkpt lat="-32.07708699531307" lon="116.50633578018378"><ele>278.3333333333333</ele><time>2026-04-05T05:04:39.997Z</time></trkpt><trkpt lat="-32.076938492221174" lon="116.5063679188232"><ele>279.0</ele><time>2026-04-05T05:04:40.997Z</time></trkpt><trkpt lat="-32.07679962394383" lon="116.50640165591678"><ele>279.0</ele><time>2026-04-05T05:04:41.997Z</time></trkpt><trkpt lat="-32.07665819487497" lon="116.50643904568787"><ele>279.0</ele><time>2026-04-05T05:04:42.997Z</time></trkpt><trkpt lat="-32.0765283909298" lon="116.50647915389551"><ele>279.0</ele><time>2026-04-05T05:04:43.997Z</time></trkpt><trkpt lat="-32.076404052412094" lon="116.50652359910389"><ele>279.0</ele><time>2026-04-05T05:04:44.997Z</time></trkpt><trkpt lat="-32.07628831662678" lon="116.50656516554547"><ele>280.0</ele><time>2026-04-05T05:04:45.997Z</time></trkpt><trkpt lat="-32.076172666580575" lon="116.50661627707616"><ele>281.0</ele><time>2026-04-05T05:04:46.997Z</time></trkpt><trkpt lat="-32.07606532688127" lon="116.50667431906264"><ele>282.0</ele><time>2026-04-05T05:04:47.997Z</time></trkpt><trkpt lat="-32.0759420152745" lon="116.50674176428782"><ele>283.0</ele><time>2026-04-05T05:04:48.997Z</time></trkpt><trkpt lat="-32.075829268029764" lon="116.50680179971427"><ele>283.4</ele><time>2026-04-05T05:04:49.997Z</time></trkpt><trkpt lat="-32.07572430413942" lon="116.50685415556984"><ele>283.8</ele><time>2026-04-05T05:04:50.997Z</time></trkpt><trkpt lat="-32.075629351303476" lon="116.50690493244242"><ele>284.2</ele><time>2026-04-05T05:04:51.997Z</time></trkpt><trkpt lat="-32.07553454782836" lon="116.50694548859784"><ele>284.6</ele><time>2026-04-05T05:04:52.997Z</time></trkpt><trkpt lat="-32.075418632046976" lon="116.50697480418022"><ele>285.0</ele><time>2026-04-05T05:04:53.997Z</time></trkpt><trkpt lat="-32.0752956277778" lon="116.50699591340761"><ele>285.0</ele><time>2026-04-05T05:04:54.997Z</time></trkpt><trkpt lat="-32.07517026807204" lon="116.50702030204774"><ele>285.0</ele><time>2026-04-05T05:04:55.997Z</time></trkpt><trkpt lat="-32.07504905276854" lon="116.50705795158639"><ele>285.0</ele><time>2026-04-05T05:04:56.997Z</time></trkpt><trkpt lat="-32.0749269990914" lon="116.5071041130689"><ele>285.0</ele><time>2026-04-05T05:04:57.997Z</time></trkpt><trkpt lat="-32.07479671662175" lon="116.50715802850338"><ele>284.5</ele><time>2026-04-05T05:04:58.997Z</time></trkpt><trkpt lat="-32.0746613932461" lon="116.50722158289484"><ele>284.0</ele><time>2026-04-05T05:04:59.997Z</time></trkpt><trkpt lat="-32.074533168381" lon="116.50729568994657"><ele>283.5</ele><time>2026-04-05T05:05:00.997Z</time></trkpt><trkpt lat="-32.0744127874357" lon="116.50737639134611"><ele>283.0</ele><time>2026-04-05T05:05:01.997Z</time></trkpt><trkpt lat="-32.074311888459505" lon="116.5074485809916"><ele>283.0</ele><time>2026-04-05T05:05:02.998Z</time></trkpt><trkpt lat="-32.074206588027586" lon="116.50752183362437"><ele>283.0</ele><time>2026-04-05T05:05:03.998Z</time></trkpt><trkpt lat="-32.074104444171745" lon="116.50759093605853"><ele>283.0</ele><time>2026-04-05T05:05:04.998Z</time></trkpt><trkpt lat="-32.07398179573355" lon="116.50764312146164"><ele>283.0</ele><time>2026-04-05T05:05:05.998Z</time></trkpt><trkpt lat="-32.07383753745661" lon="116.50767913418024"><ele>283.0</ele><time>2026-04-05T05:05:06.998Z</time></trkpt><trkpt lat="-32.073706730696856" lon="116.50770241270457"><ele>283.0</ele><time>2026-04-05T05:05:07.998Z</time></trkpt><trkpt lat="-32.0735859754535" lon="116.5077253148619"><ele>283.0</ele><time>2026-04-05T05:05:08.998Z</time></trkpt><trkpt lat="-32.07347610288519" lon="116.50775196361288"><ele>283.0</ele><time>2026-04-05T05:05:09.999Z</time></trkpt><trkpt lat="-32.073377138235266" lon="116.50779551650902"><ele>282.75</ele><time>2026-04-05T05:05:10.999Z</time></trkpt><trkpt lat="-32.07326849892911" lon="116.50784353168305"><ele>282.5</ele><time>2026-04-05T05:05:11.999Z</time></trkpt><trkpt lat="-32.07315843997704" lon="116.50788086232002"><ele>282.25</ele><time>2026-04-05T05:05:12.999Z</time></trkpt><trkpt lat="-32.073046002007366" lon="116.50793405475251"><ele>282.0</ele><time>2026-04-05T05:05:13.999Z</time></trkpt><trkpt lat="-32.072922629420965" lon="116.50801083445312"><ele>281.3333333333333</ele><time>2026-04-05T05:05:14.999Z</time></trkpt><trkpt lat="-32.072783462743836" lon="116.50809113255708"><ele>280.66666666666663</ele><time>2026-04-05T05:05:15.999Z</time></trkpt><trkpt lat="-32.07264268815432" lon="116.50818365090392"><ele>280.0</ele><time>2026-04-05T05:05:16.999Z</time></trkpt><trkpt lat="-32.07251427470528" lon="116.50827494700746"><ele>281.5</ele><time>2026-04-05T05:05:17.999Z</time></trkpt><trkpt lat="-32.07240127452355" lon="116.50835835790771"><ele>283.0</ele><time>2026-04-05T05:05:18.999Z</time></trkpt><trkpt lat="-32.07229757588551" lon="116.50844631856803"><ele>284.5</ele><time>2026-04-05T05:05:19.999Z</time></trkpt><trkpt lat="-32.072200584530485" lon="116.50852351603234"><ele>286.0</ele><time>2026-04-05T05:05:20.999Z</time></trkpt><trkpt lat="-32.072101753805605" lon="116.50858644545316"><ele>286.0</ele><time>2026-04-05T05:05:21.999Z</time></trkpt><trkpt lat="-32.07198482561922" lon="116.50864783477634"><ele>286.0</ele><time>2026-04-05T05:05:23Z</time></trkpt><trkpt lat="-32.07185636546089" lon="116.50873175730403"><ele>286.0</ele><time>2026-04-05T05:05:24Z</time></trkpt><trkpt lat="-32.07170757554517" lon="116.50881608397606"><ele>286.0</ele><time>2026-04-05T05:05:25Z</time></trkpt><trkpt lat="-32.07157723435149" lon="116.50888952817068"><ele>286.0</ele><time>2026-04-05T05:05:26Z</time></trkpt><trkpt lat="-32.07141656532295" lon="116.50898337736236"><ele>286.0</ele><time>2026-04-05T05:05:27Z</time></trkpt><trkpt lat="-32.07127521977756" lon="116.5090829003064"><ele>286.0</ele><time>2026-04-05T05:05:28Z</time></trkpt><trkpt lat="-32.07114732418711" lon="116.50916718614572"><ele>286.0</ele><time>2026-04-05T05:05:29Z</time></trkpt><trkpt lat="-32.07104466789295" lon="116.50923702642524"><ele>286.0</ele><time>2026-04-05T05:05:30Z</time></trkpt><trkpt lat="-32.07096301723821" lon="116.50930547901561"><ele>286.0</ele><time>2026-04-05T05:05:31Z</time></trkpt><trkpt lat="-32.07088057670929" lon="116.50937223769478"><ele>286.0</ele><time>2026-04-05T05:05:32Z</time></trkpt><trkpt lat="-32.07078221756473" lon="116.50943372747243"><ele>286.0</ele><time>2026-04-05T05:05:33Z</time></trkpt><trkpt lat="-32.07067818207428" lon="116.5094779164378"><ele>286.75</ele><time>2026-04-05T05:05:34Z</time></trkpt><trkpt lat="-32.070570593993146" lon="116.5095066222034"><ele>287.5</ele><time>2026-04-05T05:05:35Z</time></trkpt><trkpt lat="-32.07046185972977" lon="116.50951560900663"><ele>288.25</ele><time>2026-04-05T05:05:36Z</time></trkpt><trkpt lat="-32.070326661309444" lon="116.50950591600036"><ele>289.0</ele><time>2026-04-05T05:05:37Z</time></trkpt><trkpt lat="-32.07018812849646" lon="116.50948724754274"><ele>289.0</ele><time>2026-04-05T05:05:38Z</time></trkpt><trkpt lat="-32.070043929834824" lon="116.50944961213904"><ele>289.0</ele><time>2026-04-05T05:05:39Z</time></trkpt><trkpt lat="-32.069919526142414" lon="116.50938746227675"><ele>289.0</ele><time>2026-04-05T05:05:40Z</time></trkpt><trkpt lat="-32.06979831525628" lon="116.5093064422483"><ele>289.0</ele><time>2026-04-05T05:05:41Z</time></trkpt><trkpt lat="-32.06965962048879" lon="116.50921669937034"><ele>288.3333333333333</ele><time>2026-04-05T05:05:42Z</time></trkpt><trkpt lat="-32.06948849616107" lon="116.50911495887865"><ele>287.6666666666667</ele><time>2026-04-05T05:05:43Z</time></trkpt><trkpt lat="-32.069328240987055" lon="116.50902069422895"><ele>287.0</ele><time>2026-04-05T05:05:44Z</time></trkpt><trkpt lat="-32.06916725825774" lon="116.50893396268147"><ele>286.6666666666667</ele><time>2026-04-05T05:05:45Z</time></trkpt><trkpt lat="-32.06902118417918" lon="116.5088545764787"><ele>286.3333333333333</ele><time>2026-04-05T05:05:46Z</time></trkpt><trkpt lat="-32.06886861346104" lon="116.508780751503"><ele>286.0</ele><time>2026-04-05T05:05:47Z</time></trkpt><trkpt lat="-32.06871450159833" lon="116.50872315105876"><ele>285.3333333333333</ele><time>2026-04-05T05:05:48Z</time></trkpt><trkpt lat="-32.06854645902508" lon="116.50867645735138"><ele>284.6666666666667</ele><time>2026-04-05T05:05:49Z</time></trkpt><trkpt lat="-32.06838766271332" lon="116.50863774673186"><ele>284.0</ele><time>2026-04-05T05:05:50Z</time></trkpt><trkpt lat="-32.068239104538264" lon="116.50859745816672"><ele>283.5</ele><time>2026-04-05T05:05:51Z</time></trkpt><trkpt lat="-32.06809669341153" lon="116.5085527858556"><ele>283.0</ele><time>2026-04-05T05:05:52Z</time></trkpt><trkpt lat="-32.06797076431673" lon="116.50851150820418"><ele>282.5</ele><time>2026-04-05T05:05:53Z</time></trkpt><trkpt lat="-32.06784946932854" lon="116.50846265591746"><ele>282.0</ele><time>2026-04-05T05:05:54Z</time></trkpt><trkpt lat="-32.067728869174175" lon="116.50842744190993"><ele>282.0</ele><time>2026-04-05T05:05:55Z</time></trkpt><trkpt lat="-32.06758499367886" lon="116.5083893461472"><ele>282.0</ele><time>2026-04-05T05:05:56Z</time></trkpt><trkpt lat="-32.067423230473366" lon="116.5083447810069"><ele>282.0</ele><time>2026-04-05T05:05:57Z</time></trkpt><trkpt lat="-32.067285006827454" lon="116.50830000407971"><ele>281.75</ele><time>2026-04-05T05:05:58Z</time></trkpt><trkpt lat="-32.06716166859282" lon="116.50825287177351"><ele>281.5</ele><time>2026-04-05T05:05:59Z</time></trkpt><trkpt lat="-32.06704882192612" lon="116.5081985634012"><ele>281.25</ele><time>2026-04-05T05:06:00Z</time></trkpt><trkpt lat="-32.06693937135315" lon="116.50816452169447"><ele>281.0</ele><time>2026-04-05T05:06:01Z</time></trkpt><trkpt lat="-32.06682195808162" lon="116.50813273469194"><ele>281.0</ele><time>2026-04-05T05:06:02Z</time></trkpt><trkpt lat="-32.06671243540895" lon="116.50809538802933"><ele>281.0</ele><time>2026-04-05T05:06:03Z</time></trkpt><trkpt lat="-32.06661204859958" lon="116.50805458635942"><ele>281.0</ele><time>2026-04-05T05:06:04Z</time></trkpt><trkpt lat="-32.06651066867262" lon="116.50800454482436"><ele>281.0</ele><time>2026-04-05T05:06:05Z</time></trkpt><trkpt lat="-32.06642387202807" lon="116.50795415090826"><ele>281.0</ele><time>2026-04-05T05:06:06Z</time></trkpt><trkpt lat="-32.06634599425173" lon="116.50789598074785"><ele>278.2</ele><time>2026-04-05T05:06:07Z</time></trkpt><trkpt lat="-32.066269521180864" lon="116.50784147052217"><ele>275.40000000000003</ele><time>2026-04-05T05:06:08Z</time></trkpt><trkpt lat="-32.066199938478" lon="116.50778021681353"><ele>272.6</ele><time>2026-04-05T05:06:09Z</time></trkpt><trkpt lat="-32.06614374489142" lon="116.50770617310255"><ele>269.8</ele><time>2026-04-05T05:06:10Z</time></trkpt><trkpt lat="-32.066076264653425" lon="116.5076260232587"><ele>267.0</ele><time>2026-04-05T05:06:11Z</time></trkpt><trkpt lat="-32.06599927315205" lon="116.50752503875647"><ele>267.0</ele><time>2026-04-05T05:06:12Z</time></trkpt><trkpt lat="-32.0659155296391" lon="116.50743926201105"><ele>267.0</ele><time>2026-04-05T05:06:13Z</time></trkpt><trkpt lat="-32.065835216745555" lon="116.50737295903166"><ele>267.0</ele><time>2026-04-05T05:06:14Z</time></trkpt><trkpt lat="-32.06576104690652" lon="116.50730916835009"><ele>267.0</ele><time>2026-04-05T05:06:15Z</time></trkpt><trkpt lat="-32.06569907569466" lon="116.50723391734711"><ele>267.0</ele><time>2026-04-05T05:06:16Z</time></trkpt><trkpt lat="-32.06564790687278" lon="116.50718019660248"><ele>267.0</ele><time>2026-04-05T05:06:17Z</time></trkpt><trkpt lat="-32.06557730633446" lon="116.50711371648723"><ele>267.0</ele><time>2026-04-05T05:06:18Z</time></trkpt><trkpt lat="-32.06547909229673" lon="116.50704077997214"><ele>267.0</ele><time>2026-04-05T05:06:19Z</time></trkpt><trkpt lat="-32.06538553914892" lon="116.50694766976964"><ele>267.0</ele><time>2026-04-05T05:06:20Z</time></trkpt><trkpt lat="-32.06530134290907" lon="116.50685893608286"><ele>267.0</ele><time>2026-04-05T05:06:21Z</time></trkpt><trkpt lat="-32.06523527493759" lon="116.50677342020597"><ele>266.6</ele><time>2026-04-05T05:06:22Z</time></trkpt><trkpt lat="-32.065167553541215" lon="116.5066777800567"><ele>266.2</ele><time>2026-04-05T05:06:23Z</time></trkpt><trkpt lat="-32.06509011201093" lon="116.50658363093241"><ele>265.8</ele><time>2026-04-05T05:06:24Z</time></trkpt><trkpt lat="-32.06500744933281" lon="116.50648564666302"><ele>265.4</ele><time>2026-04-05T05:06:25Z</time></trkpt><trkpt lat="-32.06493187933545" lon="116.5063958961169"><ele>265.0</ele><time>2026-04-05T05:06:26Z</time></trkpt><trkpt lat="-32.06485719343555" lon="116.50632281293717"><ele>264.8</ele><time>2026-04-05T05:06:27Z</time></trkpt><trkpt lat="-32.06478205372431" lon="116.50626042591965"><ele>264.6</ele><time>2026-04-05T05:06:28Z</time></trkpt><trkpt lat="-32.064700769114815" lon="116.50618981200634"><ele>264.4</ele><time>2026-04-05T05:06:29Z</time></trkpt><trkpt lat="-32.06461603160746" lon="116.50611918586674"><ele>264.2</ele><time>2026-04-05T05:06:30Z</time></trkpt><trkpt lat="-32.0645107226497" lon="116.50606106556424"><ele>264.0</ele><time>2026-04-05T05:06:31Z</time></trkpt><trkpt lat="-32.06441153368493" lon="116.50600043526637"><ele>263.59999999999997</ele><time>2026-04-05T05:06:32Z</time></trkpt><trkpt lat="-32.06432433150213" lon="116.50592438846722"><ele>263.2</ele><time>2026-04-05T05:06:33Z</time></trkpt><trkpt lat="-32.06425454919451" lon="116.5058382126339"><ele>262.79999999999995</ele><time>2026-04-05T05:06:34Z</time></trkpt><trkpt lat="-32.064179186688264" lon="116.50576465452345"><ele>262.4</ele><time>2026-04-05T05:06:35Z</time></trkpt><trkpt lat="-32.06410704142904" lon="116.50571071619876"><ele>262.0</ele><time>2026-04-05T05:06:36Z</time></trkpt><trkpt lat="-32.064026004015055" lon="116.50566062433072"><ele>261.5</ele><time>2026-04-05T05:06:38Z</time></trkpt><trkpt lat="-32.06398876548546" lon="116.50557996013012"><ele>261.0</ele><time>2026-04-05T05:06:47Z</time></trkpt><trkpt lat="-32.06398266303009" lon="116.50547773150355"><ele>260.5</ele><time>2026-04-05T05:06:49Z</time></trkpt><trkpt lat="-32.06400943622663" lon="116.5054060435773"><ele>260.0</ele><time>2026-04-05T05:06:52Z</time></trkpt><trkpt lat="-32.06403148585757" lon="116.50531806323619"><ele>259.5</ele><time>2026-04-05T05:08:08Z</time></trkpt><trkpt lat="-32.064049185973026" lon="116.50524599233607"><ele>259.0</ele><time>2026-04-05T05:08:09Z</time></trkpt><trkpt lat="-32.064072525092" lon="116.50513641259879"><ele>259.0</ele><time>2026-04-05T05:08:10Z</time></trkpt><trkpt lat="-32.06409613830817" lon="116.50500763567895"><ele>259.0</ele><time>2026-04-05T05:08:11Z</time></trkpt><trkpt lat="-32.064124106242026" lon="116.50485779039728"><ele>259.0</ele><time>2026-04-05T05:08:12Z</time></trkpt><trkpt lat="-32.06415408933089" lon="116.50469531805223"><ele>259.0</ele><time>2026-04-05T05:08:13Z</time></trkpt><trkpt lat="-32.06417960772801" lon="116.5045215125306"><ele>259.66666666666663</ele><time>2026-04-05T05:08:14Z</time></trkpt><trkpt lat="-32.0642128706236" lon="116.504323794104"><ele>260.3333333333333</ele><time>2026-04-05T05:08:15Z</time></trkpt><trkpt lat="-32.06424242330603" lon="116.50413938133076"><ele>261.0</ele><time>2026-04-05T05:08:16Z</time></trkpt><trkpt lat="-32.06427946825539" lon="116.50394525858997"><ele>260.6666666666667</ele><time>2026-04-05T05:08:17Z</time></trkpt><trkpt lat="-32.06432178178422" lon="116.5037322982514"><ele>260.33333333333337</ele><time>2026-04-05T05:08:18Z</time></trkpt><trkpt lat="-32.06436455555374" lon="116.50351305576558"><ele>260.0</ele><time>2026-04-05T05:08:19Z</time></trkpt><trkpt lat="-32.064406140625366" lon="116.50329141559256"><ele>260.0</ele><time>2026-04-05T05:08:20Z</time></trkpt><trkpt lat="-32.06444153912506" lon="116.50308497619282"><ele>260.0</ele><time>2026-04-05T05:08:21Z</time></trkpt><trkpt lat="-32.06446726546387" lon="116.50289454529299"><ele>260.0</ele><time>2026-04-05T05:08:22Z</time></trkpt><trkpt lat="-32.064499445987806" lon="116.50270081104301"><ele>259.33333333333337</ele><time>2026-04-05T05:08:23Z</time></trkpt><trkpt lat="-32.06453314839224" lon="116.50251899570588"><ele>258.6666666666667</ele><time>2026-04-05T05:08:24Z</time></trkpt><trkpt lat="-32.064562740417415" lon="116.50234303271318"><ele>258.0</ele><time>2026-04-05T05:08:25Z</time></trkpt><trkpt lat="-32.06459883159842" lon="116.50216263395839"><ele>260.0</ele><time>2026-04-05T05:08:26Z</time></trkpt><trkpt lat="-32.06464897465129" lon="116.50197820881294"><ele>262.0</ele><time>2026-04-05T05:08:27Z</time></trkpt><trkpt lat="-32.064716319726095" lon="116.50179623545984"><ele>264.0</ele><time>2026-04-05T05:08:28Z</time></trkpt><trkpt lat="-32.06479415386716" lon="116.50161227294915"><ele>264.0</ele><time>2026-04-05T05:08:29Z</time></trkpt><trkpt lat="-32.064883018652935" lon="116.50143685040247"><ele>264.0</ele><time>2026-04-05T05:08:30Z</time></trkpt><trkpt lat="-32.064971107387954" lon="116.50126669756584"><ele>264.0</ele><time>2026-04-05T05:08:31Z</time></trkpt><trkpt lat="-32.06503778738618" lon="116.50108697260497"><ele>262.0</ele><time>2026-04-05T05:08:32Z</time></trkpt><trkpt lat="-32.065088606437094" lon="116.5008909246044"><ele>260.0</ele><time>2026-04-05T05:08:33Z</time></trkpt><trkpt lat="-32.06513269004671" lon="116.50066376244376"><ele>258.0</ele><time>2026-04-05T05:08:34Z</time></trkpt><trkpt lat="-32.06518450605084" lon="116.50042574079183"><ele>258.0</ele><time>2026-04-05T05:08:35Z</time></trkpt><trkpt lat="-32.065254843773126" lon="116.5001609858961"><ele>258.0</ele><time>2026-04-05T05:08:36Z</time></trkpt><trkpt lat="-32.065319174457144" lon="116.49990026399786"><ele>258.0</ele><time>2026-04-05T05:08:37Z</time></trkpt><trkpt lat="-32.065380361578065" lon="116.499653874242"><ele>258.0</ele><time>2026-04-05T05:08:38Z</time></trkpt><trkpt lat="-32.06543923342475" lon="116.49942373285253"><ele>258.0</ele><time>2026-04-05T05:08:39Z</time></trkpt><trkpt lat="-32.06549998593408" lon="116.49919688134545"><ele>258.3333333333333</ele><time>2026-04-05T05:08:40Z</time></trkpt><trkpt lat="-32.06555933203586" lon="116.4989794077304"><ele>258.66666666666663</ele><time>2026-04-05T05:08:41Z</time></trkpt><trkpt lat="-32.065610354611884" lon="116.49876137083234"><ele>259.0</ele><time>2026-04-05T05:08:42Z</time></trkpt><trkpt lat="-32.0656673114616" lon="116.49851955810666"><ele>259.0</ele><time>2026-04-05T05:08:43Z</time></trkpt><trkpt lat="-32.06572951737882" lon="116.49828026227347"><ele>259.0</ele><time>2026-04-05T05:08:44Z</time></trkpt><trkpt lat="-32.06580329099319" lon="116.49800745893678"><ele>259.5</ele><time>2026-04-05T05:08:45Z</time></trkpt><trkpt lat="-32.065871897655825" lon="116.49773095019157"><ele>260.0</ele><time>2026-04-05T05:08:46Z</time></trkpt><trkpt lat="-32.06593664010664" lon="116.49746769908796"><ele>260.0</ele><time>2026-04-05T05:08:47Z</time></trkpt><trkpt lat="-32.06600646447397" lon="116.4972135218131"><ele>260.0</ele><time>2026-04-05T05:08:48Z</time></trkpt><trkpt lat="-32.06607940540396" lon="116.49696201439974"><ele>262.0</ele><time>2026-04-05T05:08:49Z</time></trkpt><trkpt lat="-32.06615506827413" lon="116.4967081698511"><ele>264.0</ele><time>2026-04-05T05:08:50Z</time></trkpt><trkpt lat="-32.066227913716375" lon="116.49645661785894"><ele>262.3333333333333</ele><time>2026-04-05T05:08:51Z</time></trkpt><trkpt lat="-32.06629951331474" lon="116.49620873357786"><ele>260.66666666666663</ele><time>2026-04-05T05:08:52Z</time></trkpt><trkpt lat="-32.06636365619654" lon="116.4960243281802"><ele>259.0</ele><time>2026-04-05T05:08:53Z</time></trkpt><trkpt lat="-32.066440673478" lon="116.49586315197014"><ele>259.0</ele><time>2026-04-05T05:08:54Z</time></trkpt><trkpt lat="-32.06654516464986" lon="116.49572094392683"><ele>259.0</ele><time>2026-04-05T05:08:55Z</time></trkpt><trkpt lat="-32.06667257341913" lon="116.49560258221524"><ele>259.0</ele><time>2026-04-05T05:08:56Z</time></trkpt><trkpt lat="-32.066823083373365" lon="116.49549143235737"><ele>258.3333333333333</ele><time>2026-04-05T05:08:57Z</time></trkpt><trkpt lat="-32.06696259022471" lon="116.49536373579843"><ele>257.6666666666667</ele><time>2026-04-05T05:08:58Z</time></trkpt><trkpt lat="-32.06708646558885" lon="116.49520721215477"><ele>257.0</ele><time>2026-04-05T05:08:59Z</time></trkpt><trkpt lat="-32.06718723870359" lon="116.49504376775201"><ele>257.0</ele><time>2026-04-05T05:09:00Z</time></trkpt><trkpt lat="-32.06727310382163" lon="116.4948887924189"><ele>257.0</ele><time>2026-04-05T05:09:01Z</time></trkpt><trkpt lat="-32.0673760556493" lon="116.49474347403245"><ele>257.0</ele><time>2026-04-05T05:09:02Z</time></trkpt><trkpt lat="-32.06750354864227" lon="116.49460253143917"><ele>257.0</ele><time>2026-04-05T05:09:03Z</time></trkpt><trkpt lat="-32.06765518974277" lon="116.49446255750115"><ele>257.0</ele><time>2026-04-05T05:09:04Z</time></trkpt><trkpt lat="-32.0678292109758" lon="116.49432993642158"><ele>257.0</ele><time>2026-04-05T05:09:05Z</time></trkpt><trkpt lat="-32.068019989693106" lon="116.49419253830857"><ele>257.0</ele><time>2026-04-05T05:09:06Z</time></trkpt><trkpt lat="-32.06821486478967" lon="116.49403469049244"><ele>257.0</ele><time>2026-04-05T05:09:07Z</time></trkpt><trkpt lat="-32.06840707567979" lon="116.49385211923874"><ele>259.5</ele><time>2026-04-05T05:09:08Z</time></trkpt><trkpt lat="-32.06860690353596" lon="116.49364696791721"><ele>262.0</ele><time>2026-04-05T05:09:09Z</time></trkpt><trkpt lat="-32.06881228121969" lon="116.49343652213925"><ele>262.0</ele><time>2026-04-05T05:09:10Z</time></trkpt><trkpt lat="-32.06899830072636" lon="116.4932451167508"><ele>262.0</ele><time>2026-04-05T05:09:11Z</time></trkpt><trkpt lat="-32.06916496767661" lon="116.4930700579477"><ele>260.5</ele><time>2026-04-05T05:09:12Z</time></trkpt><trkpt lat="-32.06933485534201" lon="116.49289475671902"><ele>259.0</ele><time>2026-04-05T05:09:13Z</time></trkpt><trkpt lat="-32.069514825659745" lon="116.49270559493841"><ele>259.0</ele><time>2026-04-05T05:09:14Z</time></trkpt><trkpt lat="-32.06969524199198" lon="116.4925125334563"><ele>259.0</ele><time>2026-04-05T05:09:15Z</time></trkpt><trkpt lat="-32.06987899371662" lon="116.49231519006369"><ele>259.5</ele><time>2026-04-05T05:09:16Z</time></trkpt><trkpt lat="-32.070056808496616" lon="116.49212616543194"><ele>260.0</ele><time>2026-04-05T05:09:17Z</time></trkpt><trkpt lat="-32.07022478437384" lon="116.49195411762734"><ele>258.6666666666667</ele><time>2026-04-05T05:09:18Z</time></trkpt><trkpt lat="-32.07038993235056" lon="116.49178554253965"><ele>257.3333333333333</ele><time>2026-04-05T05:09:19Z</time></trkpt><trkpt lat="-32.070558161190725" lon="116.49161338578675"><ele>256.0</ele><time>2026-04-05T05:09:20Z</time></trkpt><trkpt lat="-32.07073254237652" lon="116.49145114347718"><ele>256.0</ele><time>2026-04-05T05:09:21Z</time></trkpt><trkpt lat="-32.07091185169203" lon="116.49128917526662"><ele>256.0</ele><time>2026-04-05T05:09:22Z</time></trkpt><trkpt lat="-32.07109185405154" lon="116.49112835917393"><ele>257.66666666666663</ele><time>2026-04-05T05:09:23Z</time></trkpt><trkpt lat="-32.07127724447134" lon="116.49096852027141"><ele>259.3333333333333</ele><time>2026-04-05T05:09:24Z</time></trkpt><trkpt lat="-32.07144045026323" lon="116.49082134543524"><ele>261.0</ele><time>2026-04-05T05:09:25Z</time></trkpt><trkpt lat="-32.07158558321219" lon="116.49068731990724"><ele>259.0</ele><time>2026-04-05T05:09:26Z</time></trkpt><trkpt lat="-32.07173118588037" lon="116.49055704116466"><ele>257.0</ele><time>2026-04-05T05:09:27Z</time></trkpt><trkpt lat="-32.07188267332581" lon="116.49042466628"><ele>255.0</ele><time>2026-04-05T05:09:28Z</time></trkpt><trkpt lat="-32.07204957236789" lon="116.49029144348063"><ele>255.0</ele><time>2026-04-05T05:09:29Z</time></trkpt><trkpt lat="-32.07222045209289" lon="116.49016424626895"><ele>255.0</ele><time>2026-04-05T05:09:30Z</time></trkpt><trkpt lat="-32.07238404350217" lon="116.49004134105338"><ele>255.0</ele><time>2026-04-05T05:09:31Z</time></trkpt><trkpt lat="-32.07254560895819" lon="116.48991288492022"><ele>255.0</ele><time>2026-04-05T05:09:32Z</time></trkpt><trkpt lat="-32.07269807494553" lon="116.48978936253958"><ele>255.0</ele><time>2026-04-05T05:09:33Z</time></trkpt><trkpt lat="-32.07284703166621" lon="116.48966768506628"><ele>255.0</ele><time>2026-04-05T05:09:34Z</time></trkpt><trkpt lat="-32.072993619028395" lon="116.48953490367094"><ele>255.0</ele><time>2026-04-05T05:09:35Z</time></trkpt><trkpt lat="-32.073132344577814" lon="116.48938102366348"><ele>255.0</ele><time>2026-04-05T05:09:36Z</time></trkpt><trkpt lat="-32.07326445946693" lon="116.48921442872916"><ele>255.0</ele><time>2026-04-05T05:09:37Z</time></trkpt><trkpt lat="-32.07339691791561" lon="116.48903487959352"><ele>254.33333333333331</ele><time>2026-04-05T05:09:38Z</time></trkpt><trkpt lat="-32.07351614793991" lon="116.48886091011777"><ele>253.66666666666666</ele><time>2026-04-05T05:09:39Z</time></trkpt><trkpt lat="-32.073618078756176" lon="116.48867864528302"><ele>253.0</ele><time>2026-04-05T05:09:40Z</time></trkpt><trkpt lat="-32.073704187434394" lon="116.48848499756684"><ele>253.0</ele><time>2026-04-05T05:09:41Z</time></trkpt><trkpt lat="-32.07376507592218" lon="116.48830456602074"><ele>253.0</ele><time>2026-04-05T05:09:42Z</time></trkpt><trkpt lat="-32.073796020408516" lon="116.48815293352328"><ele>253.0</ele><time>2026-04-05T05:09:43Z</time></trkpt><trkpt lat="-32.073820138059766" lon="116.48799285846589"><ele>253.0</ele><time>2026-04-05T05:09:44Z</time></trkpt><trkpt lat="-32.07381636616191" lon="116.48785132663266"><ele>253.33333333333331</ele><time>2026-04-05T05:09:45Z</time></trkpt><trkpt lat="-32.07381657932848" lon="116.48767332188835"><ele>253.66666666666669</ele><time>2026-04-05T05:09:46Z</time></trkpt><trkpt lat="-32.073830226348804" lon="116.4874801119628"><ele>254.0</ele><time>2026-04-05T05:09:47Z</time></trkpt><trkpt lat="-32.073859142148684" lon="116.48728504386833"><ele>254.33333333333334</ele><time>2026-04-05T05:09:48Z</time></trkpt><trkpt lat="-32.07388667665599" lon="116.48708287601913"><ele>254.66666666666669</ele><time>2026-04-05T05:09:49Z</time></trkpt><trkpt lat="-32.07390657725358" lon="116.4868866862634"><ele>255.0</ele><time>2026-04-05T05:09:50Z</time></trkpt><trkpt lat="-32.07392546741735" lon="116.48667946623826"><ele>255.0</ele><time>2026-04-05T05:09:51Z</time></trkpt><trkpt lat="-32.07393750466052" lon="116.48645325327922"><ele>255.0</ele><time>2026-04-05T05:09:52Z</time></trkpt><trkpt lat="-32.07394288541679" lon="116.48621083568227"><ele>255.0</ele><time>2026-04-05T05:09:53Z</time></trkpt><trkpt lat="-32.073947904645536" lon="116.48595365202395"><ele>255.33333333333331</ele><time>2026-04-05T05:09:54Z</time></trkpt><trkpt lat="-32.07395398766013" lon="116.48568172662449"><ele>255.66666666666666</ele><time>2026-04-05T05:09:55Z</time></trkpt><trkpt lat="-32.07396756999511" lon="116.48544148332817"><ele>256.0</ele><time>2026-04-05T05:09:56Z</time></trkpt><trkpt lat="-32.07398330787826" lon="116.48521141524772"><ele>256.66666666666663</ele><time>2026-04-05T05:09:57Z</time></trkpt><trkpt lat="-32.07401062662551" lon="116.48498088560589"><ele>257.3333333333333</ele><time>2026-04-05T05:09:58Z</time></trkpt><trkpt lat="-32.07404755740097" lon="116.4847522588746"><ele>258.0</ele><time>2026-04-05T05:09:59Z</time></trkpt><trkpt lat="-32.0740828918313" lon="116.48451964920736"><ele>256.0</ele><time>2026-04-05T05:10:00Z</time></trkpt><trkpt lat="-32.0741149467458" lon="116.48429739021577"><ele>254.0</ele><time>2026-04-05T05:10:01Z</time></trkpt><trkpt lat="-32.074138147073" lon="116.48408480397163"><ele>252.0</ele><time>2026-04-05T05:10:02Z</time></trkpt><trkpt lat="-32.07414901235853" lon="116.48385737474531"><ele>251.0</ele><time>2026-04-05T05:10:03Z</time></trkpt><trkpt lat="-32.07414939379583" lon="116.48361244784721"><ele>250.0</ele><time>2026-04-05T05:10:04Z</time></trkpt><trkpt lat="-32.07414007674444" lon="116.4833485893445"><ele>249.0</ele><time>2026-04-05T05:10:05Z</time></trkpt><trkpt lat="-32.074124595000235" lon="116.48307188942591"><ele>250.0</ele><time>2026-04-05T05:10:06Z</time></trkpt><trkpt lat="-32.07412117192138" lon="116.48282387035876"><ele>251.0</ele><time>2026-04-05T05:10:07Z</time></trkpt><trkpt lat="-32.07412711798442" lon="116.48260293013298"><ele>252.0</ele><time>2026-04-05T05:10:08Z</time></trkpt><trkpt lat="-32.0741345443596" lon="116.4824030408965"><ele>252.0</ele><time>2026-04-05T05:10:09Z</time></trkpt><trkpt lat="-32.07414116306886" lon="116.4822101809027"><ele>252.0</ele><time>2026-04-05T05:10:10Z</time></trkpt><trkpt lat="-32.07414356617742" lon="116.4820297947334"><ele>252.0</ele><time>2026-04-05T05:10:11Z</time></trkpt><trkpt lat="-32.074136037854885" lon="116.48185781533101"><ele>251.66666666666669</ele><time>2026-04-05T05:10:12Z</time></trkpt><trkpt lat="-32.07413852472085" lon="116.48167363366275"><ele>251.33333333333334</ele><time>2026-04-05T05:10:13Z</time></trkpt><trkpt lat="-32.07416296078053" lon="116.48147398562378"><ele>251.0</ele><time>2026-04-05T05:10:14Z</time></trkpt><trkpt lat="-32.07421206883725" lon="116.48126045509531"><ele>251.0</ele><time>2026-04-05T05:10:15Z</time></trkpt><trkpt lat="-32.0742715177818" lon="116.48102430916545"><ele>251.0</ele><time>2026-04-05T05:10:16Z</time></trkpt><trkpt lat="-32.0743222418057" lon="116.48078781348684"><ele>251.0</ele><time>2026-04-05T05:10:17Z</time></trkpt><trkpt lat="-32.074364723711234" lon="116.48055765304619"><ele>250.33333333333334</ele><time>2026-04-05T05:10:18Z</time></trkpt><trkpt lat="-32.07440597938762" lon="116.48035964284165"><ele>249.66666666666669</ele><time>2026-04-05T05:10:19Z</time></trkpt><trkpt lat="-32.07444637160746" lon="116.48018089464404"><ele>249.0</ele><time>2026-04-05T05:10:20Z</time></trkpt><trkpt lat="-32.07448935438893" lon="116.48001561600657"><ele>249.0</ele><time>2026-04-05T05:10:21Z</time></trkpt><trkpt lat="-32.074532878829906" lon="116.47986655955219"><ele>249.0</ele><time>2026-04-05T05:10:22Z</time></trkpt><trkpt lat="-32.07459625349653" lon="116.47973132440204"><ele>249.0</ele><time>2026-04-05T05:10:23Z</time></trkpt><trkpt lat="-32.074684221093264" lon="116.47959877017475"><ele>249.0</ele><time>2026-04-05T05:10:24Z</time></trkpt><trkpt lat="-32.074788742368895" lon="116.47945624236011"><ele>248.66666666666669</ele><time>2026-04-05T05:10:25Z</time></trkpt><trkpt lat="-32.0749066849808" lon="116.47928734756238"><ele>248.33333333333334</ele><time>2026-04-05T05:10:26Z</time></trkpt><trkpt lat="-32.07502938473832" lon="116.4791033698181"><ele>248.0</ele><time>2026-04-05T05:10:27Z</time></trkpt><trkpt lat="-32.075154935874934" lon="116.47891708722966"><ele>249.66666666666669</ele><time>2026-04-05T05:10:28Z</time></trkpt><trkpt lat="-32.07526981561425" lon="116.47872713473589"><ele>251.33333333333331</ele><time>2026-04-05T05:10:29Z</time></trkpt><trkpt lat="-32.075382428201884" lon="116.47853788952875"><ele>253.0</ele><time>2026-04-05T05:10:30Z</time></trkpt><trkpt lat="-32.07548536844283" lon="116.47836643193962"><ele>253.0</ele><time>2026-04-05T05:10:31Z</time></trkpt><trkpt lat="-32.07557838436779" lon="116.4782207896995"><ele>253.0</ele><time>2026-04-05T05:10:32Z</time></trkpt><trkpt lat="-32.0756707634742" lon="116.47808808509261"><ele>253.0</ele><time>2026-04-05T05:10:33Z</time></trkpt><trkpt lat="-32.07578109652409" lon="116.47796814815142"><ele>251.66666666666666</ele><time>2026-04-05T05:10:34Z</time></trkpt><trkpt lat="-32.07591089637079" lon="116.47784485594605"><ele>250.33333333333331</ele><time>2026-04-05T05:10:35Z</time></trkpt><trkpt lat="-32.07605500537054" lon="116.47771200752999"><ele>249.0</ele><time>2026-04-05T05:10:36Z</time></trkpt><trkpt lat="-32.07620004262111" lon="116.47756320252542"><ele>249.0</ele><time>2026-04-05T05:10:37Z</time></trkpt><trkpt lat="-32.07633719583982" lon="116.47740490660253"><ele>249.0</ele><time>2026-04-05T05:10:38Z</time></trkpt><trkpt lat="-32.076480640624325" lon="116.4772220689207"><ele>249.0</ele><time>2026-04-05T05:10:39Z</time></trkpt><trkpt lat="-32.07662635775554" lon="116.47703433736488"><ele>250.0</ele><time>2026-04-05T05:10:40Z</time></trkpt><trkpt lat="-32.07678460331342" lon="116.47682906698519"><ele>251.0</ele><time>2026-04-05T05:10:41Z</time></trkpt><trkpt lat="-32.076937208617174" lon="116.47663657584916"><ele>251.0</ele><time>2026-04-05T05:10:42Z</time></trkpt><trkpt lat="-32.07709128936587" lon="116.47644899326956"><ele>251.0</ele><time>2026-04-05T05:10:43Z</time></trkpt><trkpt lat="-32.077238662512116" lon="116.47627855856064"><ele>251.0</ele><time>2026-04-05T05:10:44Z</time></trkpt><trkpt lat="-32.07737994069784" lon="116.47611962560717"><ele>250.0</ele><time>2026-04-05T05:10:45Z</time></trkpt><trkpt lat="-32.07751067034091" lon="116.47597073987308"><ele>249.0</ele><time>2026-04-05T05:10:46Z</time></trkpt><trkpt lat="-32.077639998353725" lon="116.47582643724651"><ele>248.0</ele><time>2026-04-05T05:10:47Z</time></trkpt><trkpt lat="-32.07776086713326" lon="116.4756905280599"><ele>248.0</ele><time>2026-04-05T05:10:48Z</time></trkpt><trkpt lat="-32.07785779040806" lon="116.47555869740165"><ele>248.0</ele><time>2026-04-05T05:10:49Z</time></trkpt><trkpt lat="-32.077940393472275" lon="116.47542169161405"><ele>248.0</ele><time>2026-04-05T05:10:50Z</time></trkpt><trkpt lat="-32.07801914455952" lon="116.47526993482458"><ele>248.0</ele><time>2026-04-05T05:10:51Z</time></trkpt><trkpt lat="-32.07809577459826" lon="116.4751080770887"><ele>248.25</ele><time>2026-04-05T05:10:52Z</time></trkpt><trkpt lat="-32.07816297239119" lon="116.47495273050266"><ele>248.5</ele><time>2026-04-05T05:10:53Z</time></trkpt><trkpt lat="-32.07822382243784" lon="116.47481296891627"><ele>248.75</ele><time>2026-04-05T05:10:54Z</time></trkpt><trkpt lat="-32.07828245223656" lon="116.47468135675574"><ele>249.0</ele><time>2026-04-05T05:10:55Z</time></trkpt><trkpt lat="-32.078330420014375" lon="116.47455994421401"><ele>246.75</ele><time>2026-04-05T05:10:56Z</time></trkpt><trkpt lat="-32.07837564093113" lon="116.4744344030097"><ele>244.5</ele><time>2026-04-05T05:10:57Z</time></trkpt><trkpt lat="-32.07842742747213" lon="116.47428712986964"><ele>242.25</ele><time>2026-04-05T05:10:58Z</time></trkpt><trkpt lat="-32.07848116764806" lon="116.47413111771979"><ele>240.0</ele><time>2026-04-05T05:10:59Z</time></trkpt><trkpt lat="-32.07853893433783" lon="116.47397395935016"><ele>240.0</ele><time>2026-04-05T05:11:00Z</time></trkpt><trkpt lat="-32.078593584940606" lon="116.47382120079313"><ele>240.0</ele><time>2026-04-05T05:11:01Z</time></trkpt><trkpt lat="-32.07864781507738" lon="116.47367342187694"><ele>240.0</ele><time>2026-04-05T05:11:02Z</time></trkpt><trkpt lat="-32.07869871562107" lon="116.47354335632998"><ele>240.0</ele><time>2026-04-05T05:11:03Z</time></trkpt><trkpt lat="-32.07874603748237" lon="116.47342451663522"><ele>241.0</ele><time>2026-04-05T05:11:04Z</time></trkpt><trkpt lat="-32.078792034433114" lon="116.47331884258489"><ele>242.0</ele><time>2026-04-05T05:11:05Z</time></trkpt><trkpt lat="-32.07883255297393" lon="116.47323715093854"><ele>243.0</ele><time>2026-04-05T05:11:06Z</time></trkpt><trkpt lat="-32.07886670843578" lon="116.47316941759325"><ele>244.0</ele><time>2026-04-05T05:11:07Z</time></trkpt><trkpt lat="-32.07889914169464" lon="116.47307328392185"><ele>245.0</ele><time>2026-04-05T05:11:09Z</time></trkpt><trkpt lat="-32.07882757700116" lon="116.47300976788813"><ele>246.0</ele><time>2026-04-05T05:11:45Z</time></trkpt><trkpt lat="-32.07872833357794" lon="116.47297062711286"><ele>245.83333333333334</ele><time>2026-04-05T05:11:47Z</time></trkpt><trkpt lat="-32.078670986972405" lon="116.47292686851729"><ele>245.66666666666669</ele><time>2026-04-05T05:11:48Z</time></trkpt><trkpt lat="-32.078612482532726" lon="116.47289390580968"><ele>245.5</ele><time>2026-04-05T05:11:49Z</time></trkpt><trkpt lat="-32.078528016994895" lon="116.4728508688328"><ele>245.33333333333334</ele><time>2026-04-05T05:11:50Z</time></trkpt><trkpt lat="-32.07843645805035" lon="116.47281941001516"><ele>245.16666666666669</ele><time>2026-04-05T05:11:51Z</time></trkpt><trkpt lat="-32.07835125906628" lon="116.47279124850229"><ele>245.0</ele><time>2026-04-05T05:11:52Z</time></trkpt><trkpt lat="-32.07825090746888" lon="116.47274613157056"><ele>245.0</ele><time>2026-04-05T05:11:53Z</time></trkpt><trkpt lat="-32.078120558529065" lon="116.47268995531721"><ele>245.0</ele><time>2026-04-05T05:11:54Z</time></trkpt><trkpt lat="-32.07799252784225" lon="116.47263340830827"><ele>245.0</ele><time>2026-04-05T05:11:55Z</time></trkpt><trkpt lat="-32.07786472671934" lon="116.472575526048"><ele>245.0</ele><time>2026-04-05T05:11:56Z</time></trkpt><trkpt lat="-32.077738350878946" lon="116.47252415838578"><ele>245.0</ele><time>2026-04-05T05:11:57Z</time></trkpt><trkpt lat="-32.07760810171965" lon="116.47247693167887"><ele>245.0</ele><time>2026-04-05T05:11:58Z</time></trkpt><trkpt lat="-32.07747886670465" lon="116.47242887428081"><ele>245.0</ele><time>2026-04-05T05:11:59Z</time></trkpt><trkpt lat="-32.07734516543086" lon="116.47238221863495"><ele>245.0</ele><time>2026-04-05T05:12:00Z</time></trkpt><trkpt lat="-32.077209957214606" lon="116.47233792068785"><ele>244.25</ele><time>2026-04-05T05:12:01Z</time></trkpt><trkpt lat="-32.077070292129996" lon="116.47229163627435"><ele>243.5</ele><time>2026-04-05T05:12:02Z</time></trkpt><trkpt lat="-32.07693881183967" lon="116.47224755250762"><ele>242.75</ele><time>2026-04-05T05:12:03Z</time></trkpt><trkpt lat="-32.07680882995942" lon="116.47220876793618"><ele>242.0</ele><time>2026-04-05T05:12:04Z</time></trkpt><trkpt lat="-32.07667699680363" lon="116.47217327890739"><ele>243.0</ele><time>2026-04-05T05:12:05Z</time></trkpt><trkpt lat="-32.07654833000069" lon="116.4721400439505"><ele>244.0</ele><time>2026-04-05T05:12:06Z</time></trkpt><trkpt lat="-32.07643136346778" lon="116.47210999981051"><ele>245.0</ele><time>2026-04-05T05:12:07Z</time></trkpt><trkpt lat="-32.07632379886384" lon="116.47209506321289"><ele>246.0</ele><time>2026-04-05T05:12:08Z</time></trkpt><trkpt lat="-32.07621276678231" lon="116.47210106748705"><ele>246.66666666666669</ele><time>2026-04-05T05:12:09Z</time></trkpt><trkpt lat="-32.07608061962067" lon="116.47213481287929"><ele>247.33333333333334</ele><time>2026-04-05T05:12:10Z</time></trkpt><trkpt lat="-32.0759210780226" lon="116.47217116285373"><ele>248.0</ele><time>2026-04-05T05:12:11Z</time></trkpt><trkpt lat="-32.075748863198406" lon="116.47219913663236"><ele>248.66666666666669</ele><time>2026-04-05T05:12:12Z</time></trkpt><trkpt lat="-32.07556083810589" lon="116.47222387511728"><ele>249.33333333333331</ele><time>2026-04-05T05:12:13Z</time></trkpt><trkpt lat="-32.07538965673926" lon="116.47224239657737"><ele>250.0</ele><time>2026-04-05T05:12:14Z</time></trkpt><trkpt lat="-32.07523561012378" lon="116.47226112190965"><ele>250.0</ele><time>2026-04-05T05:12:15Z</time></trkpt><trkpt lat="-32.0750821321603" lon="116.47227998688572"><ele>250.0</ele><time>2026-04-05T05:12:16Z</time></trkpt><trkpt lat="-32.074941875968" lon="116.47229856418573"><ele>250.0</ele><time>2026-04-05T05:12:17Z</time></trkpt><trkpt lat="-32.074803062403774" lon="116.47231278382569"><ele>250.0</ele><time>2026-04-05T05:12:18Z</time></trkpt><trkpt lat="-32.07465105335268" lon="116.47232289405619"><ele>250.25</ele><time>2026-04-05T05:12:19Z</time></trkpt><trkpt lat="-32.07449954936177" lon="116.47232868133746"><ele>250.5</ele><time>2026-04-05T05:12:20Z</time></trkpt><trkpt lat="-32.074355523548846" lon="116.47232695698854"><ele>250.75</ele><time>2026-04-05T05:12:21Z</time></trkpt><trkpt lat="-32.0742250264273" lon="116.47231822645365"><ele>251.0</ele><time>2026-04-05T05:12:22Z</time></trkpt><trkpt lat="-32.07407484250006" lon="116.47229079462535"><ele>252.66666666666669</ele><time>2026-04-05T05:12:23Z</time></trkpt><trkpt lat="-32.073915291924116" lon="116.47224581695403"><ele>254.33333333333331</ele><time>2026-04-05T05:12:24Z</time></trkpt><trkpt lat="-32.07376887720298" lon="116.47221628164571"><ele>256.0</ele><time>2026-04-05T05:12:25Z</time></trkpt><trkpt lat="-32.07362327724346" lon="116.47219088390881"><ele>256.0</ele><time>2026-04-05T05:12:26Z</time></trkpt><trkpt lat="-32.073458003212195" lon="116.47216445634643"><ele>256.0</ele><time>2026-04-05T05:12:27Z</time></trkpt><trkpt lat="-32.07329834622811" lon="116.47214006948087"><ele>256.0</ele><time>2026-04-05T05:12:28Z</time></trkpt><trkpt lat="-32.07316084132209" lon="116.47212814007379"><ele>256.25</ele><time>2026-04-05T05:12:29Z</time></trkpt><trkpt lat="-32.07300938088726" lon="116.47211360417589"><ele>256.5</ele><time>2026-04-05T05:12:30Z</time></trkpt><trkpt lat="-32.07286062010186" lon="116.47210098350966"><ele>256.75</ele><time>2026-04-05T05:12:31Z</time></trkpt><trkpt lat="-32.072716366554396" lon="116.47209661108498"><ele>257.0</ele><time>2026-04-05T05:12:32Z</time></trkpt><trkpt lat="-32.072578148908676" lon="116.47208644199735"><ele>257.6666666666667</ele><time>2026-04-05T05:12:33Z</time></trkpt><trkpt lat="-32.072413523494355" lon="116.4720620499516"><ele>258.3333333333333</ele><time>2026-04-05T05:12:34Z</time></trkpt><trkpt lat="-32.07224361572798" lon="116.47202765914658"><ele>259.0</ele><time>2026-04-05T05:12:35Z</time></trkpt><trkpt lat="-32.07209104968996" lon="116.47198275241404"><ele>259.0</ele><time>2026-04-05T05:12:36Z</time></trkpt><trkpt lat="-32.07194325947527" lon="116.47192912191437"><ele>259.0</ele><time>2026-04-05T05:12:37Z</time></trkpt><trkpt lat="-32.07180762957529" lon="116.47187584017539"><ele>259.0</ele><time>2026-04-05T05:12:38Z</time></trkpt><trkpt lat="-32.07168426934011" lon="116.4718426625406"><ele>259.0</ele><time>2026-04-05T05:12:39Z</time></trkpt><trkpt lat="-32.07156414231627" lon="116.47181804163887"><ele>260.25</ele><time>2026-04-05T05:12:40Z</time></trkpt><trkpt lat="-32.07145213205005" lon="116.4717916019077"><ele>261.5</ele><time>2026-04-05T05:12:41Z</time></trkpt><trkpt lat="-32.07132930364127" lon="116.47176323715702"><ele>262.75</ele><time>2026-04-05T05:12:42Z</time></trkpt><trkpt lat="-32.07120542503605" lon="116.4717279572608"><ele>264.0</ele><time>2026-04-05T05:12:43Z</time></trkpt><trkpt lat="-32.0710871911686" lon="116.47171179822931"><ele>264.0</ele><time>2026-04-05T05:12:44Z</time></trkpt><trkpt lat="-32.070959683095474" lon="116.47169380968958"><ele>264.0</ele><time>2026-04-05T05:12:45Z</time></trkpt><trkpt lat="-32.070817789227895" lon="116.47167313710884"><ele>264.0</ele><time>2026-04-05T05:12:46Z</time></trkpt><trkpt lat="-32.070644866293065" lon="116.47164667526538"><ele>264.0</ele><time>2026-04-05T05:12:47Z</time></trkpt><trkpt lat="-32.07045874730293" lon="116.47160706709573"><ele>264.5</ele><time>2026-04-05T05:12:48Z</time></trkpt><trkpt lat="-32.07028944633214" lon="116.4715758534902"><ele>265.0</ele><time>2026-04-05T05:12:49Z</time></trkpt><trkpt lat="-32.07015136295722" lon="116.47154606418738"><ele>265.5</ele><time>2026-04-05T05:12:50Z</time></trkpt><trkpt lat="-32.0700239675345" lon="116.47151753945317"><ele>266.0</ele><time>2026-04-05T05:12:51Z</time></trkpt><trkpt lat="-32.06989954118852" lon="116.47150000090996"><ele>267.0</ele><time>2026-04-05T05:12:52Z</time></trkpt><trkpt lat="-32.06978057206128" lon="116.47149671867177"><ele>268.0</ele><time>2026-04-05T05:12:53Z</time></trkpt><trkpt lat="-32.069677401270276" lon="116.47151016345867"><ele>269.0</ele><time>2026-04-05T05:12:54Z</time></trkpt><trkpt lat="-32.0695606940743" lon="116.47152373600994"><ele>270.0</ele><time>2026-04-05T05:12:55Z</time></trkpt><trkpt lat="-32.06943294169838" lon="116.47154067622375"><ele>270.0</ele><time>2026-04-05T05:12:56Z</time></trkpt><trkpt lat="-32.069310233477964" lon="116.47155869064133"><ele>270.0</ele><time>2026-04-05T05:12:57Z</time></trkpt><trkpt lat="-32.06917775364851" lon="116.4715677353621"><ele>270.0</ele><time>2026-04-05T05:12:58Z</time></trkpt><trkpt lat="-32.069046800423116" lon="116.47156058581058"><ele>270.0</ele><time>2026-04-05T05:12:59Z</time></trkpt><trkpt lat="-32.06892130630252" lon="116.47153390636429"><ele>270.5</ele><time>2026-04-05T05:13:00Z</time></trkpt><trkpt lat="-32.06877648357591" lon="116.47150298935998"><ele>271.0</ele><time>2026-04-05T05:13:01Z</time></trkpt><trkpt lat="-32.06864145866402" lon="116.47147641196337"><ele>271.5</ele><time>2026-04-05T05:13:02Z</time></trkpt><trkpt lat="-32.068508160053774" lon="116.47145519041707"><ele>272.0</ele><time>2026-04-05T05:13:03Z</time></trkpt><trkpt lat="-32.06836180272276" lon="116.4714448357365"><ele>273.25</ele><time>2026-04-05T05:13:04Z</time></trkpt><trkpt lat="-32.068227166292196" lon="116.47144062136363"><ele>274.5</ele><time>2026-04-05T05:13:05Z</time></trkpt><trkpt lat="-32.068077702765805" lon="116.47142081091845"><ele>275.75</ele><time>2026-04-05T05:13:06Z</time></trkpt><trkpt lat="-32.067925454969604" lon="116.4713954712634"><ele>277.0</ele><time>2026-04-05T05:13:07Z</time></trkpt><trkpt lat="-32.06779514831757" lon="116.47136426978479"><ele>277.0</ele><time>2026-04-05T05:13:08Z</time></trkpt><trkpt lat="-32.067675071206054" lon="116.47135037001085"><ele>277.0</ele><time>2026-04-05T05:13:09Z</time></trkpt><trkpt lat="-32.067548722375996" lon="116.47135185612828"><ele>277.0</ele><time>2026-04-05T05:13:10Z</time></trkpt><trkpt lat="-32.06742584272447" lon="116.47135223648812"><ele>277.0</ele><time>2026-04-05T05:13:11Z</time></trkpt><trkpt lat="-32.067297226507975" lon="116.47132775560154"><ele>277.75</ele><time>2026-04-05T05:13:12Z</time></trkpt><trkpt lat="-32.067156417535855" lon="116.4712802870986"><ele>278.5</ele><time>2026-04-05T05:13:13Z</time></trkpt><trkpt lat="-32.067017001448605" lon="116.47125854453826"><ele>279.25</ele><time>2026-04-05T05:13:14Z</time></trkpt><trkpt lat="-32.0668691650298" lon="116.47126810226092"><ele>280.0</ele><time>2026-04-05T05:13:15Z</time></trkpt><trkpt lat="-32.066733831071694" lon="116.47128668191877"><ele>280.25</ele><time>2026-04-05T05:13:15.999Z</time></trkpt><trkpt lat="-32.06660756734442" lon="116.47129583642582"><ele>280.5</ele><time>2026-04-05T05:13:16.999Z</time></trkpt><trkpt lat="-32.06649334157144" lon="116.47126992864679"><ele>280.75</ele><time>2026-04-05T05:13:17.999Z</time></trkpt><trkpt lat="-32.06637791051363" lon="116.47121202600788"><ele>281.0</ele><time>2026-04-05T05:13:18.999Z</time></trkpt><trkpt lat="-32.066238323275336" lon="116.47115277711768"><ele>282.0</ele><time>2026-04-05T05:13:19.999Z</time></trkpt><trkpt lat="-32.06609113869298" lon="116.47111117585655"><ele>283.0</ele><time>2026-04-05T05:13:20.999Z</time></trkpt><trkpt lat="-32.0658923157535" lon="116.47107949747348"><ele>284.0</ele><time>2026-04-05T05:13:22Z</time></trkpt><trkpt lat="-32.06570289863314" lon="116.47105310455163"><ele>284.6666666666667</ele><time>2026-04-05T05:13:23Z</time></trkpt><trkpt lat="-32.065534387155076" lon="116.47104324426323"><ele>285.3333333333333</ele><time>2026-04-05T05:13:24Z</time></trkpt><trkpt lat="-32.065375916804605" lon="116.47103276994464"><ele>286.0</ele><time>2026-04-05T05:13:25Z</time></trkpt><trkpt lat="-32.06523567009632" lon="116.47102947861947"><ele>286.0</ele><time>2026-04-05T05:13:26Z</time></trkpt><trkpt lat="-32.06511452182192" lon="116.47103206220635"><ele>286.0</ele><time>2026-04-05T05:13:27Z</time></trkpt><trkpt lat="-32.06501816208662" lon="116.47103310843839"><ele>286.0</ele><time>2026-04-05T05:13:28Z</time></trkpt><trkpt lat="-32.06492592574022" lon="116.47102248599397"><ele>286.0</ele><time>2026-04-05T05:13:29Z</time></trkpt><trkpt lat="-32.064826010978756" lon="116.47098142041166"><ele>286.0</ele><time>2026-04-05T05:13:30Z</time></trkpt><trkpt lat="-32.064745798495615" lon="116.47093151365594"><ele>285.8333333333333</ele><time>2026-04-05T05:13:31Z</time></trkpt><trkpt lat="-32.064675225189205" lon="116.47089070545437"><ele>285.66666666666663</ele><time>2026-04-05T05:13:32Z</time></trkpt><trkpt lat="-32.06462753112374" lon="116.4708398578238"><ele>285.5</ele><time>2026-04-05T05:15:39Z</time></trkpt><trkpt lat="-32.064566712036736" lon="116.47079166320908"><ele>285.3333333333333</ele><time>2026-04-05T05:15:42Z</time></trkpt><trkpt lat="-32.064486339372905" lon="116.47074113460907"><ele>285.1666666666667</ele><time>2026-04-05T05:15:45Z</time></trkpt><trkpt lat="-32.06439638108701" lon="116.47068205618555"><ele>285.0</ele><time>2026-04-05T05:15:58Z</time></trkpt><trkpt lat="-32.064322937715076" lon="116.47063648679362"><ele>285.0</ele><time>2026-04-05T05:16:00Z</time></trkpt><trkpt lat="-32.06423938356625" lon="116.47058913646958"><ele>285.0</ele><time>2026-04-05T05:16:02Z</time></trkpt><trkpt lat="-32.06414046055032" lon="116.47053822865027"><ele>285.0</ele><time>2026-04-05T05:16:04Z</time></trkpt><trkpt lat="-32.06402783707776" lon="116.47045530757771"><ele>285.0</ele><time>2026-04-05T05:16:06Z</time></trkpt><trkpt lat="-32.063949489215254" lon="116.4703919094783"><ele>285.0</ele><time>2026-04-05T05:16:07Z</time></trkpt><trkpt lat="-32.063867467625336" lon="116.47033638566491"><ele>286.75</ele><time>2026-04-05T05:16:08Z</time></trkpt><trkpt lat="-32.063772245119736" lon="116.4702573437956"><ele>288.5</ele><time>2026-04-05T05:16:09Z</time></trkpt><trkpt lat="-32.06366691960919" lon="116.47017371453342"><ele>290.25</ele><time>2026-04-05T05:16:10Z</time></trkpt><trkpt lat="-32.06356921854537" lon="116.4700973097535"><ele>292.0</ele><time>2026-04-05T05:16:11Z</time></trkpt><trkpt lat="-32.06348609353342" lon="116.47003053643128"><ele>292.0</ele><time>2026-04-05T05:16:12Z</time></trkpt><trkpt lat="-32.063402958645916" lon="116.46996271685788"><ele>292.0</ele><time>2026-04-05T05:16:13Z</time></trkpt><trkpt lat="-32.063312922665006" lon="116.46988094977573"><ele>292.0</ele><time>2026-04-05T05:16:14Z</time></trkpt><trkpt lat="-32.06322118769632" lon="116.46978905466366"><ele>292.0</ele><time>2026-04-05T05:16:15Z</time></trkpt><trkpt lat="-32.0631166131458" lon="116.46967819280343"><ele>294.3333333333333</ele><time>2026-04-05T05:16:16Z</time></trkpt><trkpt lat="-32.06299835438856" lon="116.46955431469617"><ele>296.6666666666667</ele><time>2026-04-05T05:16:17Z</time></trkpt><trkpt lat="-32.06287784472763" lon="116.46943055625013"><ele>299.0</ele><time>2026-04-05T05:16:18Z</time></trkpt><trkpt lat="-32.062769313361365" lon="116.46931635441132"><ele>299.0</ele><time>2026-04-05T05:16:19Z</time></trkpt><trkpt lat="-32.0626660428464" lon="116.46921310391193"><ele>299.0</ele><time>2026-04-05T05:16:20Z</time></trkpt><trkpt lat="-32.062564482551096" lon="116.46911428774065"><ele>299.0</ele><time>2026-04-05T05:16:21Z</time></trkpt><trkpt lat="-32.06246316762589" lon="116.46901851809504"><ele>299.0</ele><time>2026-04-05T05:16:22Z</time></trkpt><trkpt lat="-32.06235431753764" lon="116.46891599561928"><ele>300.0</ele><time>2026-04-05T05:16:23Z</time></trkpt><trkpt lat="-32.06224825705924" lon="116.46880858465092"><ele>301.0</ele><time>2026-04-05T05:16:24Z</time></trkpt><trkpt lat="-32.06214674718852" lon="116.46871530376728"><ele>302.0</ele><time>2026-04-05T05:16:25Z</time></trkpt><trkpt lat="-32.06204352699936" lon="116.46861817492945"><ele>303.0</ele><time>2026-04-05T05:16:26Z</time></trkpt><trkpt lat="-32.06193279680805" lon="116.46851408110626"><ele>303.0</ele><time>2026-04-05T05:16:27Z</time></trkpt><trkpt lat="-32.06184157219781" lon="116.46842797159842"><ele>303.0</ele><time>2026-04-05T05:16:28Z</time></trkpt><trkpt lat="-32.06177782445083" lon="116.46836452372774"><ele>303.0</ele><time>2026-04-05T05:16:29Z</time></trkpt><trkpt lat="-32.061701336004624" lon="116.46829131247563"><ele>303.0</ele><time>2026-04-05T05:16:30Z</time></trkpt><trkpt lat="-32.06160709705428" lon="116.46820396499886"><ele>303.0</ele><time>2026-04-05T05:16:31Z</time></trkpt><trkpt lat="-32.061502743641725" lon="116.46810499970866"><ele>305.3333333333333</ele><time>2026-04-05T05:16:32Z</time></trkpt><trkpt lat="-32.06139222174205" lon="116.46799589298463"><ele>307.66666666666663</ele><time>2026-04-05T05:16:33Z</time></trkpt><trkpt lat="-32.06127049391617" lon="116.4678672910396"><ele>310.0</ele><time>2026-04-05T05:16:34Z</time></trkpt><trkpt lat="-32.06113998165097" lon="116.46772825501888"><ele>310.0</ele><time>2026-04-05T05:16:35Z</time></trkpt><trkpt lat="-32.06101366152496" lon="116.46760277000793"><ele>310.0</ele><time>2026-04-05T05:16:36Z</time></trkpt><trkpt lat="-32.06090055608145" lon="116.46748435157208"><ele>310.0</ele><time>2026-04-05T05:16:37Z</time></trkpt><trkpt lat="-32.060794501105356" lon="116.46736736648674"><ele>312.0</ele><time>2026-04-05T05:16:38Z</time></trkpt><trkpt lat="-32.06070262380295" lon="116.46726109870309"><ele>314.0</ele><time>2026-04-05T05:16:39Z</time></trkpt><trkpt lat="-32.060607965771936" lon="116.46716048581085"><ele>316.0</ele><time>2026-04-05T05:16:40Z</time></trkpt><trkpt lat="-32.060495095447905" lon="116.46708083573803"><ele>318.0</ele><time>2026-04-05T05:16:41Z</time></trkpt><trkpt lat="-32.06036618227917" lon="116.46700067850998"><ele>318.0</ele><time>2026-04-05T05:16:42Z</time></trkpt><trkpt lat="-32.06023887433306" lon="116.46691079673276"><ele>318.0</ele><time>2026-04-05T05:16:43Z</time></trkpt><trkpt lat="-32.060120447832915" lon="116.46684763299184"><ele>318.0</ele><time>2026-04-05T05:16:44Z</time></trkpt><trkpt lat="-32.05998957539363" lon="116.46680119690684"><ele>318.0</ele><time>2026-04-05T05:16:45Z</time></trkpt><trkpt lat="-32.059852864290455" lon="116.46675031720066"><ele>318.75</ele><time>2026-04-05T05:16:46Z</time></trkpt><trkpt lat="-32.05972078258495" lon="116.46669713093505"><ele>319.5</ele><time>2026-04-05T05:16:47Z</time></trkpt><trkpt lat="-32.05960011205348" lon="116.46662898980969"><ele>320.25</ele><time>2026-04-05T05:16:48Z</time></trkpt><trkpt lat="-32.05949218354363" lon="116.46655652581366"><ele>321.0</ele><time>2026-04-05T05:16:49Z</time></trkpt><trkpt lat="-32.05938199165593" lon="116.46649395279778"><ele>321.0</ele><time>2026-04-05T05:16:50Z</time></trkpt><trkpt lat="-32.05926983644936" lon="116.46642832613162"><ele>321.0</ele><time>2026-04-05T05:16:51Z</time></trkpt><trkpt lat="-32.0591604177658" lon="116.46633858470798"><ele>321.0</ele><time>2026-04-05T05:16:52Z</time></trkpt><trkpt lat="-32.05906077554554" lon="116.46624696049089"><ele>321.0</ele><time>2026-04-05T05:16:53Z</time></trkpt><trkpt lat="-32.05897103438686" lon="116.46616198014969"><ele>319.0</ele><time>2026-04-05T05:16:54Z</time></trkpt><trkpt lat="-32.058877648035306" lon="116.46609427231553"><ele>317.0</ele><time>2026-04-05T05:16:55Z</time></trkpt><trkpt lat="-32.05878144940108" lon="116.46604961920457"><ele>315.0</ele><time>2026-04-05T05:16:56Z</time></trkpt><trkpt lat="-32.05867586786292" lon="116.46602335815133"><ele>313.0</ele><time>2026-04-05T05:16:57Z</time></trkpt><trkpt lat="-32.058558690159366" lon="116.46600302683586"><ele>311.0</ele><time>2026-04-05T05:16:58Z</time></trkpt><trkpt lat="-32.05844894611642" lon="116.46598622569779"><ele>311.0</ele><time>2026-04-05T05:16:59Z</time></trkpt><trkpt lat="-32.05834974686617" lon="116.46598536391775"><ele>311.0</ele><time>2026-04-05T05:17:00Z</time></trkpt><trkpt lat="-32.05825219794658" lon="116.46600706536444"><ele>311.0</ele><time>2026-04-05T05:17:01Z</time></trkpt><trkpt lat="-32.05816924829046" lon="116.46604188987632"><ele>311.0</ele><time>2026-04-05T05:17:02Z</time></trkpt><trkpt lat="-32.05808599364784" lon="116.46608065664165"><ele>311.0</ele><time>2026-04-05T05:17:03Z</time></trkpt><trkpt lat="-32.05800467170103" lon="116.46610931243036"><ele>309.2</ele><time>2026-04-05T05:17:04Z</time></trkpt><trkpt lat="-32.057922597826156" lon="116.46613422203774"><ele>307.40000000000003</ele><time>2026-04-05T05:17:05Z</time></trkpt><trkpt lat="-32.057833387276425" lon="116.46616663243601"><ele>305.6</ele><time>2026-04-05T05:17:06Z</time></trkpt><trkpt lat="-32.057743734185784" lon="116.46618344830824"><ele>303.8</ele><time>2026-04-05T05:17:07Z</time></trkpt><trkpt lat="-32.05764901212413" lon="116.46617676704582"><ele>302.0</ele><time>2026-04-05T05:17:08Z</time></trkpt><trkpt lat="-32.05753424390242" lon="116.46615410442097"><ele>300.6</ele><time>2026-04-05T05:17:09Z</time></trkpt><trkpt lat="-32.05741877644221" lon="116.46613178188066"><ele>299.2</ele><time>2026-04-05T05:17:09.999Z</time></trkpt><trkpt lat="-32.05731385024936" lon="116.4661115675075"><ele>297.8</ele><time>2026-04-05T05:17:10.999Z</time></trkpt><trkpt lat="-32.057207073453085" lon="116.46608847828185"><ele>296.4</ele><time>2026-04-05T05:17:11.999Z</time></trkpt><trkpt lat="-32.05710354168886" lon="116.4660663792797"><ele>295.0</ele><time>2026-04-05T05:17:12.999Z</time></trkpt><trkpt lat="-32.05699188954165" lon="116.46605397047234"><ele>295.0</ele><time>2026-04-05T05:17:13.999Z</time></trkpt><trkpt lat="-32.056859322548924" lon="116.46605314551981"><ele>295.0</ele><time>2026-04-05T05:17:14.999Z</time></trkpt><trkpt lat="-32.05672029613554" lon="116.46604272562236"><ele>295.0</ele><time>2026-04-05T05:17:15.999Z</time></trkpt><trkpt lat="-32.0565928343725" lon="116.46603339811396"><ele>295.0</ele><time>2026-04-05T05:17:16.999Z</time></trkpt><trkpt lat="-32.056474427088936" lon="116.46601816135902"><ele>295.2</ele><time>2026-04-05T05:17:17.999Z</time></trkpt><trkpt lat="-32.05635752762848" lon="116.46600109175075"><ele>295.4</ele><time>2026-04-05T05:17:18.999Z</time></trkpt><trkpt lat="-32.05625618011402" lon="116.4659875396756"><ele>295.6</ele><time>2026-04-05T05:17:19.999Z</time></trkpt><trkpt lat="-32.056164277920196" lon="116.46597259609499"><ele>295.8</ele><time>2026-04-05T05:17:20.999Z</time></trkpt><trkpt lat="-32.05608548195866" lon="116.46594674289501"><ele>296.0</ele><time>2026-04-05T05:17:21.999Z</time></trkpt><trkpt lat="-32.05599486149036" lon="116.46591672727153"><ele>296.0</ele><time>2026-04-05T05:17:22.999Z</time></trkpt><trkpt lat="-32.05589108383924" lon="116.46588975627726"><ele>296.0</ele><time>2026-04-05T05:17:23.999Z</time></trkpt><trkpt lat="-32.055768968069145" lon="116.46587482447512"><ele>296.0</ele><time>2026-04-05T05:17:24.999Z</time></trkpt><trkpt lat="-32.055635660582865" lon="116.46585409090333"><ele>296.0</ele><time>2026-04-05T05:17:25.999Z</time></trkpt><trkpt lat="-32.055496086891516" lon="116.4658310478874"><ele>297.25</ele><time>2026-04-05T05:17:26.999Z</time></trkpt><trkpt lat="-32.05536098491082" lon="116.4657968147741"><ele>298.5</ele><time>2026-04-05T05:17:27.999Z</time></trkpt><trkpt lat="-32.05523874275873" lon="116.46577859498532"><ele>299.75</ele><time>2026-04-05T05:17:28.999Z</time></trkpt><trkpt lat="-32.055126447024946" lon="116.46576648232156"><ele>301.0</ele><time>2026-04-05T05:17:29.999Z</time></trkpt><trkpt lat="-32.05500682413718" lon="116.46574472716526"><ele>301.5</ele><time>2026-04-05T05:17:30.999Z</time></trkpt><trkpt lat="-32.054877025390745" lon="116.46570678194753"><ele>302.0</ele><time>2026-04-05T05:17:31.999Z</time></trkpt><trkpt lat="-32.054745574004656" lon="116.46566619248156"><ele>302.5</ele><time>2026-04-05T05:17:32.999Z</time></trkpt><trkpt lat="-32.0546199947231" lon="116.4656245455486"><ele>303.0</ele><time>2026-04-05T05:17:34Z</time></trkpt><trkpt lat="-32.05450923938345" lon="116.46558934516534"><ele>303.0</ele><time>2026-04-05T05:17:35Z</time></trkpt><trkpt lat="-32.054416862546454" lon="116.46557282902064"><ele>303.0</ele><time>2026-04-05T05:17:36Z</time></trkpt><trkpt lat="-32.05433919894315" lon="116.46558286315312"><ele>303.0</ele><time>2026-04-05T05:17:37Z</time></trkpt><trkpt lat="-32.05426508231614" lon="116.46562791341762"><ele>303.0</ele><time>2026-04-05T05:17:38Z</time></trkpt><trkpt lat="-32.05418391075071" lon="116.46571456706226"><ele>303.0</ele><time>2026-04-05T05:17:39Z</time></trkpt><trkpt lat="-32.05411193660578" lon="116.465772018507"><ele>304.0</ele><time>2026-04-05T05:17:40Z</time></trkpt><trkpt lat="-32.05404496341665" lon="116.46579736651194"><ele>305.0</ele><time>2026-04-05T05:17:41Z</time></trkpt><trkpt lat="-32.05395376104439" lon="116.46576322486366"><ele>306.0</ele><time>2026-04-05T05:17:43Z</time></trkpt><trkpt lat="-32.053846274949024" lon="116.46571350562714"><ele>307.0</ele><time>2026-04-05T05:17:45Z</time></trkpt><trkpt lat="-32.05375985806361" lon="116.46569942666294"><ele>308.0</ele><time>2026-04-05T05:17:46Z</time></trkpt><trkpt lat="-32.053672298353305" lon="116.46570829778251"><ele>308.0</ele><time>2026-04-05T05:17:47Z</time></trkpt><trkpt lat="-32.0535709318784" lon="116.46571953506128"><ele>308.0</ele><time>2026-04-05T05:17:48Z</time></trkpt><trkpt lat="-32.05346070147094" lon="116.46573075583011"><ele>308.0</ele><time>2026-04-05T05:17:49Z</time></trkpt><trkpt lat="-32.05335494524244" lon="116.46574221687624"><ele>308.0</ele><time>2026-04-05T05:17:50Z</time></trkpt><trkpt lat="-32.05325235688096" lon="116.46575023651673"><ele>308.0</ele><time>2026-04-05T05:17:51Z</time></trkpt><trkpt lat="-32.05314251740934" lon="116.46574471309196"><ele>308.25</ele><time>2026-04-05T05:17:52Z</time></trkpt><trkpt lat="-32.05302376478361" lon="116.46572312307902"><ele>308.5</ele><time>2026-04-05T05:17:53Z</time></trkpt><trkpt lat="-32.052903434317095" lon="116.46570503162117"><ele>308.75</ele><time>2026-04-05T05:17:54Z</time></trkpt><trkpt lat="-32.05278987008639" lon="116.46569355218932"><ele>309.0</ele><time>2026-04-05T05:17:55Z</time></trkpt><trkpt lat="-32.05267495975006" lon="116.46568717458184"><ele>309.0</ele><time>2026-04-05T05:17:56Z</time></trkpt><trkpt lat="-32.05255547723332" lon="116.46570288312387"><ele>309.0</ele><time>2026-04-05T05:17:57Z</time></trkpt><trkpt lat="-32.0524485737112" lon="116.46572639748679"><ele>309.0</ele><time>2026-04-05T05:17:58Z</time></trkpt><trkpt lat="-32.052366144185676" lon="116.46574808280928"><ele>309.0</ele><time>2026-04-05T05:17:59Z</time></trkpt><trkpt lat="-32.05226952481845" lon="116.46577962960829"><ele>309.0</ele><time>2026-04-05T05:18:00Z</time></trkpt><trkpt lat="-32.05215890789095" lon="116.46581822941631"><ele>311.75</ele><time>2026-04-05T05:18:01Z</time></trkpt><trkpt lat="-32.05202944989566" lon="116.46585796641492"><ele>314.5</ele><time>2026-04-05T05:18:02Z</time></trkpt><trkpt lat="-32.05189147831029" lon="116.46588834269386"><ele>317.25</ele><time>2026-04-05T05:18:03Z</time></trkpt><trkpt lat="-32.05175979081519" lon="116.46591266175363"><ele>320.0</ele><time>2026-04-05T05:18:04Z</time></trkpt><trkpt lat="-32.051629957080706" lon="116.46592215602304"><ele>321.0</ele><time>2026-04-05T05:18:05Z</time></trkpt><trkpt lat="-32.051489905986415" lon="116.46591759444426"><ele>322.0</ele><time>2026-04-05T05:18:06Z</time></trkpt><trkpt lat="-32.05134706710209" lon="116.46592042163631"><ele>323.0</ele><time>2026-04-05T05:18:07Z</time></trkpt><trkpt lat="-32.05121424756988" lon="116.46593623516596"><ele>324.0</ele><time>2026-04-05T05:18:08Z</time></trkpt><trkpt lat="-32.05111288949582" lon="116.4659694441381"><ele>324.0</ele><time>2026-04-05T05:18:09Z</time></trkpt><trkpt lat="-32.05099923699757" lon="116.46602607860727"><ele>324.0</ele><time>2026-04-05T05:18:10Z</time></trkpt><trkpt lat="-32.050877809519164" lon="116.46609199413103"><ele>324.0</ele><time>2026-04-05T05:18:11Z</time></trkpt><trkpt lat="-32.050745050009205" lon="116.46614937482218"><ele>324.0</ele><time>2026-04-05T05:18:12Z</time></trkpt><trkpt lat="-32.05061803219476" lon="116.46620385618998"><ele>324.5</ele><time>2026-04-05T05:18:13Z</time></trkpt><trkpt lat="-32.050477757828844" lon="116.46626270593825"><ele>325.0</ele><time>2026-04-05T05:18:14Z</time></trkpt><trkpt lat="-32.05034272198255" lon="116.46631468047782"><ele>325.5</ele><time>2026-04-05T05:18:15Z</time></trkpt><trkpt lat="-32.050202022605625" lon="116.4663671380723"><ele>326.0</ele><time>2026-04-05T05:18:16Z</time></trkpt><trkpt lat="-32.05004964964188" lon="116.46642666578136"><ele>328.75</ele><time>2026-04-05T05:18:17Z</time></trkpt><trkpt lat="-32.0499103340703" lon="116.4664887132957"><ele>331.5</ele><time>2026-04-05T05:18:18Z</time></trkpt><trkpt lat="-32.04979525125625" lon="116.4665510855822"><ele>334.25</ele><time>2026-04-05T05:18:19Z</time></trkpt><trkpt lat="-32.0496899475753" lon="116.46662914296806"><ele>337.0</ele><time>2026-04-05T05:18:20Z</time></trkpt><trkpt lat="-32.049590072037816" lon="116.4667271973133"><ele>337.0</ele><time>2026-04-05T05:18:21Z</time></trkpt><trkpt lat="-32.04949411564904" lon="116.46685314076612"><ele>337.0</ele><time>2026-04-05T05:18:22Z</time></trkpt><trkpt lat="-32.0493816959044" lon="116.46699306513209"><ele>337.0</ele><time>2026-04-05T05:18:23Z</time></trkpt><trkpt lat="-32.04926895150436" lon="116.46712810891245"><ele>337.5</ele><time>2026-04-05T05:18:24Z</time></trkpt><trkpt lat="-32.04917497323254" lon="116.46725232309197"><ele>338.0</ele><time>2026-04-05T05:18:25Z</time></trkpt><trkpt lat="-32.04910270715279" lon="116.46739282181521"><ele>338.5</ele><time>2026-04-05T05:18:26Z</time></trkpt><trkpt lat="-32.049021024506125" lon="116.46755519640419"><ele>339.0</ele><time>2026-04-05T05:18:27Z</time></trkpt><trkpt lat="-32.04894693655087" lon="116.46772727561982"><ele>340.25</ele><time>2026-04-05T05:18:28Z</time></trkpt><trkpt lat="-32.04887635776059" lon="116.4678918795809"><ele>341.5</ele><time>2026-04-05T05:18:29Z</time></trkpt><trkpt lat="-32.04881587635883" lon="116.46803660781191"><ele>342.75</ele><time>2026-04-05T05:18:30Z</time></trkpt><trkpt lat="-32.048773763773106" lon="116.46816126607858"><ele>344.0</ele><time>2026-04-05T05:18:31Z</time></trkpt><trkpt lat="-32.04873815455743" lon="116.46829795906359"><ele>344.0</ele><time>2026-04-05T05:18:32Z</time></trkpt><trkpt lat="-32.04871225226889" lon="116.46843887239189"><ele>344.0</ele><time>2026-04-05T05:18:33Z</time></trkpt><trkpt lat="-32.04866751117269" lon="116.46858445717046"><ele>344.0</ele><time>2026-04-05T05:18:34Z</time></trkpt><trkpt lat="-32.0486163595476" lon="116.46871572436783"><ele>344.0</ele><time>2026-04-05T05:18:35Z</time></trkpt><trkpt lat="-32.04856908923056" lon="116.46884555902665"><ele>344.0</ele><time>2026-04-05T05:18:36Z</time></trkpt><trkpt lat="-32.04850656081382" lon="116.46897999503574"><ele>344.0</ele><time>2026-04-05T05:18:37Z</time></trkpt><trkpt lat="-32.04842644523998" lon="116.46913682450901"><ele>344.0</ele><time>2026-04-05T05:18:38Z</time></trkpt><trkpt lat="-32.048349530094626" lon="116.46929596565467"><ele>344.0</ele><time>2026-04-05T05:18:39Z</time></trkpt><trkpt lat="-32.048296685415465" lon="116.46944552812208"><ele>344.5</ele><time>2026-04-05T05:18:40Z</time></trkpt><trkpt lat="-32.04825839732532" lon="116.46960130556322"><ele>345.0</ele><time>2026-04-05T05:18:41Z</time></trkpt><trkpt lat="-32.048222387262996" lon="116.46978306375401"><ele>345.5</ele><time>2026-04-05T05:18:42Z</time></trkpt><trkpt lat="-32.048185145510764" lon="116.46995879338193"><ele>346.0</ele><time>2026-04-05T05:18:43Z</time></trkpt><trkpt lat="-32.0481518160173" lon="116.47011904176146"><ele>345.0</ele><time>2026-04-05T05:18:44Z</time></trkpt><trkpt lat="-32.04812458250819" lon="116.47025989194756"><ele>344.0</ele><time>2026-04-05T05:18:45Z</time></trkpt><trkpt lat="-32.04809802542942" lon="116.47036993510235"><ele>343.0</ele><time>2026-04-05T05:18:46Z</time></trkpt><trkpt lat="-32.04807436330901" lon="116.47046895771122"><ele>342.0</ele><time>2026-04-05T05:18:47Z</time></trkpt><trkpt lat="-32.048049733614675" lon="116.47056721199411"><ele>341.0</ele><time>2026-04-05T05:18:48Z</time></trkpt><trkpt lat="-32.048016004630234" lon="116.47068755315433"><ele>340.0</ele><time>2026-04-05T05:18:49Z</time></trkpt><trkpt lat="-32.04796627627072" lon="116.47082725174644"><ele>339.0</ele><time>2026-04-05T05:18:50Z</time></trkpt><trkpt lat="-32.04790588064652" lon="116.47095324938573"><ele>338.0</ele><time>2026-04-05T05:18:51Z</time></trkpt><trkpt lat="-32.047829194174156" lon="116.47107465414514"><ele>337.0</ele><time>2026-04-05T05:18:52Z</time></trkpt><trkpt lat="-32.047742132183245" lon="116.47119330248049"><ele>336.0</ele><time>2026-04-05T05:18:53Z</time></trkpt><trkpt lat="-32.0476575306538" lon="116.47130905459431"><ele>335.0</ele><time>2026-04-05T05:18:54Z</time></trkpt><trkpt lat="-32.0475861291164" lon="116.47143612649276"><ele>334.0</ele><time>2026-04-05T05:18:55Z</time></trkpt><trkpt lat="-32.04752717017761" lon="116.47157368127542"><ele>333.0</ele><time>2026-04-05T05:18:56Z</time></trkpt><trkpt lat="-32.04746252023936" lon="116.4717152856707"><ele>333.0</ele><time>2026-04-05T05:18:57Z</time></trkpt><trkpt lat="-32.04738615833168" lon="116.47185799136686"><ele>333.0</ele><time>2026-04-05T05:18:58Z</time></trkpt><trkpt lat="-32.04729305471201" lon="116.47198510118253"><ele>333.0</ele><time>2026-04-05T05:18:59Z</time></trkpt><trkpt lat="-32.04718273231099" lon="116.47211960562205"><ele>333.0</ele><time>2026-04-05T05:19:00Z</time></trkpt><trkpt lat="-32.04706793882876" lon="116.47225392284368"><ele>331.6666666666667</ele><time>2026-04-05T05:19:01Z</time></trkpt><trkpt lat="-32.046965720154" lon="116.47238818754795"><ele>330.33333333333337</ele><time>2026-04-05T05:19:02Z</time></trkpt><trkpt lat="-32.04686542705313" lon="116.47251761253828"><ele>329.0</ele><time>2026-04-05T05:19:03Z</time></trkpt><trkpt lat="-32.04676467771599" lon="116.47265436371882"><ele>329.0</ele><time>2026-04-05T05:19:04Z</time></trkpt><trkpt lat="-32.04664243888262" lon="116.47280521958626"><ele>329.0</ele><time>2026-04-05T05:19:05Z</time></trkpt><trkpt lat="-32.04652131090195" lon="116.47294886295052"><ele>329.0</ele><time>2026-04-05T05:19:06Z</time></trkpt><trkpt lat="-32.04641066509919" lon="116.47308642529593"><ele>328.75</ele><time>2026-04-05T05:19:07Z</time></trkpt><trkpt lat="-32.0463184705549" lon="116.47321939338745"><ele>328.5</ele><time>2026-04-05T05:19:07.999Z</time></trkpt><trkpt lat="-32.04622820494577" lon="116.47335622758034"><ele>328.25</ele><time>2026-04-05T05:19:08.999Z</time></trkpt><trkpt lat="-32.046145799149876" lon="116.47346878032923"><ele>328.0</ele><time>2026-04-05T05:19:09.999Z</time></trkpt><trkpt lat="-32.04606851334536" lon="116.47354896384405"><ele>328.0</ele><time>2026-04-05T05:19:10.999Z</time></trkpt><trkpt lat="-32.04599530375886" lon="116.47363699211618"><ele>328.0</ele><time>2026-04-05T05:19:11.999Z</time></trkpt><trkpt lat="-32.04593417635677" lon="116.4737447745733"><ele>328.0</ele><time>2026-04-05T05:19:12.999Z</time></trkpt><trkpt lat="-32.045866381068116" lon="116.4738750435828"><ele>328.0</ele><time>2026-04-05T05:19:13.999Z</time></trkpt><trkpt lat="-32.045789741619004" lon="116.47401488050443"><ele>327.25</ele><time>2026-04-05T05:19:14.999Z</time></trkpt><trkpt lat="-32.04570115492236" lon="116.47414118863745"><ele>326.5</ele><time>2026-04-05T05:19:15.999Z</time></trkpt><trkpt lat="-32.045606156065396" lon="116.47423480040109"><ele>325.75</ele><time>2026-04-05T05:19:16.999Z</time></trkpt><trkpt lat="-32.045511717796124" lon="116.47430380412406"><ele>325.0</ele><time>2026-04-05T05:19:17.999Z</time></trkpt><trkpt lat="-32.04541273983933" lon="116.47436295518793"><ele>325.0</ele><time>2026-04-05T05:19:18.999Z</time></trkpt><trkpt lat="-32.04530537800025" lon="116.47442012837602"><ele>325.0</ele><time>2026-04-05T05:19:19.999Z</time></trkpt><trkpt lat="-32.04517822349603" lon="116.47447376578852"><ele>325.0</ele><time>2026-04-05T05:19:20.999Z</time></trkpt><trkpt lat="-32.04504517209999" lon="116.47453072807538"><ele>325.0</ele><time>2026-04-05T05:19:21.999Z</time></trkpt><trkpt lat="-32.04490663271924" lon="116.47458899359015"><ele>324.5</ele><time>2026-04-05T05:19:22.999Z</time></trkpt><trkpt lat="-32.04476473894315" lon="116.47464998858457"><ele>324.0</ele><time>2026-04-05T05:19:23.999Z</time></trkpt><trkpt lat="-32.04462937946376" lon="116.47472629495965"><ele>323.5</ele><time>2026-04-05T05:19:24.999Z</time></trkpt><trkpt lat="-32.044506117872416" lon="116.47480952037728"><ele>323.0</ele><time>2026-04-05T05:19:25.999Z</time></trkpt><trkpt lat="-32.044390060152445" lon="116.47487110535438"><ele>323.0</ele><time>2026-04-05T05:19:26.999Z</time></trkpt><trkpt lat="-32.044277134294276" lon="116.47490840355223"><ele>323.0</ele><time>2026-04-05T05:19:27.999Z</time></trkpt><trkpt lat="-32.044164942864015" lon="116.47492773330032"><ele>323.0</ele><time>2026-04-05T05:19:28.999Z</time></trkpt><trkpt lat="-32.044049340591" lon="116.47493062186305"><ele>323.0</ele><time>2026-04-05T05:19:29.999Z</time></trkpt><trkpt lat="-32.04393101050517" lon="116.47491155909573"><ele>324.0</ele><time>2026-04-05T05:19:30.999Z</time></trkpt><trkpt lat="-32.043810880867596" lon="116.47491142162698"><ele>325.0</ele><time>2026-04-05T05:19:31.999Z</time></trkpt><trkpt lat="-32.0436912768976" lon="116.47493134924925"><ele>326.0</ele><time>2026-04-05T05:19:32.999Z</time></trkpt><trkpt lat="-32.04356062921516" lon="116.47496284161002"><ele>327.0</ele><time>2026-04-05T05:19:33.999Z</time></trkpt><trkpt lat="-32.043440553792585" lon="116.47498007811983"><ele>327.0</ele><time>2026-04-05T05:19:34.999Z</time></trkpt><trkpt lat="-32.043320797055" lon="116.47497864240385"><ele>327.0</ele><time>2026-04-05T05:19:35.999Z</time></trkpt><trkpt lat="-32.043188935035325" lon="116.4749756159174"><ele>327.0</ele><time>2026-04-05T05:19:36.999Z</time></trkpt><trkpt lat="-32.04304596323145" lon="116.4749801822828"><ele>327.0</ele><time>2026-04-05T05:19:37.999Z</time></trkpt><trkpt lat="-32.04290927377291" lon="116.47499344937636"><ele>327.0</ele><time>2026-04-05T05:19:38.999Z</time></trkpt><trkpt lat="-32.04279136475713" lon="116.47500577342467"><ele>327.0</ele><time>2026-04-05T05:19:40Z</time></trkpt><trkpt lat="-32.04270175796376" lon="116.47501190744624"><ele>327.0</ele><time>2026-04-05T05:19:41Z</time></trkpt><trkpt lat="-32.042593316412145" lon="116.47498518457354"><ele>327.0</ele><time>2026-04-05T05:19:43Z</time></trkpt><trkpt lat="-32.042498040399956" lon="116.47491295149811"><ele>327.0</ele><time>2026-04-05T05:19:45Z</time></trkpt><trkpt lat="-32.042449468672466" lon="116.47485825831971"><ele>327.1666666666667</ele><time>2026-04-05T05:19:46Z</time></trkpt><trkpt lat="-32.042394769013896" lon="116.47479362864068"><ele>327.3333333333333</ele><time>2026-04-05T05:19:47Z</time></trkpt><trkpt lat="-32.042334026782065" lon="116.47471363019272"><ele>327.5</ele><time>2026-04-05T05:19:48Z</time></trkpt><trkpt lat="-32.04227836979697" lon="116.4746388250197"><ele>327.66666666666663</ele><time>2026-04-05T05:19:49Z</time></trkpt><trkpt lat="-32.042210428396565" lon="116.47455007386496"><ele>327.8333333333333</ele><time>2026-04-05T05:19:50Z</time></trkpt><trkpt lat="-32.042147013568034" lon="116.47449883756626"><ele>328.0</ele><time>2026-04-05T05:19:51Z</time></trkpt><trkpt lat="-32.042025834863246" lon="116.47439410116151"><ele>329.2</ele><time>2026-04-05T05:19:53Z</time></trkpt><trkpt lat="-32.04194057248237" lon="116.47429918378576"><ele>330.4</ele><time>2026-04-05T05:19:54Z</time></trkpt><trkpt lat="-32.04186294896512" lon="116.47419820034871"><ele>331.59999999999997</ele><time>2026-04-05T05:19:55Z</time></trkpt><trkpt lat="-32.04181088680347" lon="116.47411337979959"><ele>332.79999999999995</ele><time>2026-04-05T05:19:56Z</time></trkpt><trkpt lat="-32.04174570427012" lon="116.47400771523995"><ele>334.0</ele><time>2026-04-05T05:19:57Z</time></trkpt><trkpt lat="-32.041678065376075" lon="116.47392848141844"><ele>335.0</ele><time>2026-04-05T05:19:58Z</time></trkpt><trkpt lat="-32.04160921488323" lon="116.47388411753852"><ele>336.0</ele><time>2026-04-05T05:19:59Z</time></trkpt><trkpt lat="-32.041545327920325" lon="116.47384412177544"><ele>337.0</ele><time>2026-04-05T05:20:00Z</time></trkpt><trkpt lat="-32.04148656000623" lon="116.47377629338752"><ele>338.0</ele><time>2026-04-05T05:20:01Z</time></trkpt><trkpt lat="-32.041439917828214" lon="116.47368829835688"><ele>339.0</ele><time>2026-04-05T05:20:02Z</time></trkpt><trkpt lat="-32.04138238076902" lon="116.47360612723857"><ele>340.0</ele><time>2026-04-05T05:20:03Z</time></trkpt><trkpt lat="-32.0413184096881" lon="116.47355153708"><ele>340.8</ele><time>2026-04-05T05:20:04Z</time></trkpt><trkpt lat="-32.04123019340305" lon="116.47351343061976"><ele>341.6</ele><time>2026-04-05T05:20:05Z</time></trkpt><trkpt lat="-32.04113900126311" lon="116.47347982273695"><ele>342.4</ele><time>2026-04-05T05:20:06Z</time></trkpt><trkpt lat="-32.04106553206799" lon="116.47344600555823"><ele>343.2</ele><time>2026-04-05T05:20:07Z</time></trkpt><trkpt lat="-32.040944157101706" lon="116.47337974358169"><ele>344.0</ele><time>2026-04-05T05:20:09Z</time></trkpt><trkpt lat="-32.04088051999761" lon="116.47332857339372"><ele>344.0</ele><time>2026-04-05T05:20:10Z</time></trkpt><trkpt lat="-32.040804582469974" lon="116.47326080370073"><ele>344.0</ele><time>2026-04-05T05:20:11Z</time></trkpt><trkpt lat="-32.04072541381745" lon="116.47319158644378"><ele>344.0</ele><time>2026-04-05T05:20:12Z</time></trkpt><trkpt lat="-32.04063582123848" lon="116.47315740235484"><ele>344.0</ele><time>2026-04-05T05:20:13Z</time></trkpt><trkpt lat="-32.04054014875877" lon="116.47315011987146"><ele>344.0</ele><time>2026-04-05T05:20:14Z</time></trkpt><trkpt lat="-32.04043062169449" lon="116.47316517299338"><ele>345.25</ele><time>2026-04-05T05:20:15Z</time></trkpt><trkpt lat="-32.040298218467115" lon="116.4731956601321"><ele>346.5</ele><time>2026-04-05T05:20:16Z</time></trkpt><trkpt lat="-32.040167117126444" lon="116.47321221455564"><ele>347.75</ele><time>2026-04-05T05:20:17Z</time></trkpt><trkpt lat="-32.04005151929356" lon="116.47322093018767"><ele>349.0</ele><time>2026-04-05T05:20:18Z</time></trkpt><trkpt lat="-32.03995087139428" lon="116.47323990286016"><ele>350.0</ele><time>2026-04-05T05:20:19Z</time></trkpt><trkpt lat="-32.0398551788465" lon="116.47328879723324"><ele>351.0</ele><time>2026-04-05T05:20:20Z</time></trkpt><trkpt lat="-32.0397420713168" lon="116.47336227899774"><ele>352.0</ele><time>2026-04-05T05:20:21Z</time></trkpt><trkpt lat="-32.03960879885767" lon="116.47345918298089"><ele>353.0</ele><time>2026-04-05T05:20:22Z</time></trkpt><trkpt lat="-32.039473492734004" lon="116.47356766399773"><ele>353.0</ele><time>2026-04-05T05:20:23Z</time></trkpt><trkpt lat="-32.03934857797712" lon="116.47366365044996"><ele>353.0</ele><time>2026-04-05T05:20:24Z</time></trkpt><trkpt lat="-32.03922150338642" lon="116.4737519358616"><ele>353.0</ele><time>2026-04-05T05:20:25Z</time></trkpt><trkpt lat="-32.0390876259337" lon="116.47383028894048"><ele>353.0</ele><time>2026-04-05T05:20:26Z</time></trkpt><trkpt lat="-32.03895116064164" lon="116.4738973376216"><ele>352.5</ele><time>2026-04-05T05:20:27Z</time></trkpt><trkpt lat="-32.038825190046644" lon="116.47395711250729"><ele>352.0</ele><time>2026-04-05T05:20:28Z</time></trkpt><trkpt lat="-32.038711671917454" lon="116.47400219409069"><ele>351.5</ele><time>2026-04-05T05:20:29Z</time></trkpt><trkpt lat="-32.0385906740962" lon="116.47403656247671"><ele>351.0</ele><time>2026-04-05T05:20:30Z</time></trkpt><trkpt lat="-32.03846078152414" lon="116.47404257652532"><ele>351.0</ele><time>2026-04-05T05:20:31Z</time></trkpt><trkpt lat="-32.038321338711285" lon="116.47403163994471"><ele>351.0</ele><time>2026-04-05T05:20:32Z</time></trkpt><trkpt lat="-32.03816921457341" lon="116.47401798430067"><ele>351.0</ele><time>2026-04-05T05:20:33Z</time></trkpt><trkpt lat="-32.03802438772917" lon="116.47402798442432"><ele>351.0</ele><time>2026-04-05T05:20:34Z</time></trkpt><trkpt lat="-32.03788227173685" lon="116.4740383269058"><ele>350.6666666666667</ele><time>2026-04-05T05:20:35Z</time></trkpt><trkpt lat="-32.037745708680774" lon="116.47401579661303"><ele>350.33333333333337</ele><time>2026-04-05T05:20:36Z</time></trkpt><trkpt lat="-32.03760132673256" lon="116.4739626418747"><ele>350.0</ele><time>2026-04-05T05:20:37Z</time></trkpt><trkpt lat="-32.0374505733904" lon="116.47389440634933"><ele>349.6666666666667</ele><time>2026-04-05T05:20:38Z</time></trkpt><trkpt lat="-32.03728843053087" lon="116.47381531267321"><ele>349.3333333333333</ele><time>2026-04-05T05:20:39Z</time></trkpt><trkpt lat="-32.037125516268055" lon="116.4737403411898"><ele>349.0</ele><time>2026-04-05T05:20:40Z</time></trkpt><trkpt lat="-32.03696886138858" lon="116.47366313392271"><ele>349.0</ele><time>2026-04-05T05:20:41Z</time></trkpt><trkpt lat="-32.036821997962306" lon="116.4735963868014"><ele>349.0</ele><time>2026-04-05T05:20:42Z</time></trkpt><trkpt lat="-32.03668023981711" lon="116.4735429341149"><ele>349.0</ele><time>2026-04-05T05:20:43Z</time></trkpt><trkpt lat="-32.03651931582922" lon="116.47349515468336"><ele>349.0</ele><time>2026-04-05T05:20:44Z</time></trkpt><trkpt lat="-32.036358178333266" lon="116.47345232485065"><ele>349.0</ele><time>2026-04-05T05:20:45Z</time></trkpt><trkpt lat="-32.03620148240712" lon="116.4734060653509"><ele>349.0</ele><time>2026-04-05T05:20:46Z</time></trkpt><trkpt lat="-32.03605834185419" lon="116.47334708776734"><ele>349.0</ele><time>2026-04-05T05:20:46.999Z</time></trkpt><trkpt lat="-32.03593136542401" lon="116.473286788199"><ele>349.0</ele><time>2026-04-05T05:20:47.999Z</time></trkpt><trkpt lat="-32.03580336644417" lon="116.47320192099497"><ele>349.0</ele><time>2026-04-05T05:20:48.999Z</time></trkpt><trkpt lat="-32.03566648214046" lon="116.4731129418675"><ele>349.0</ele><time>2026-04-05T05:20:49.999Z</time></trkpt><trkpt lat="-32.03554291558568" lon="116.47302714509456"><ele>348.25</ele><time>2026-04-05T05:20:50.999Z</time></trkpt><trkpt lat="-32.035422872595724" lon="116.47294599122549"><ele>347.5</ele><time>2026-04-05T05:20:51.999Z</time></trkpt><trkpt lat="-32.03530964286259" lon="116.47288914428276"><ele>346.75</ele><time>2026-04-05T05:20:52.999Z</time></trkpt><trkpt lat="-32.03518835874475" lon="116.47285507542286"><ele>346.0</ele><time>2026-04-05T05:20:53.999Z</time></trkpt><trkpt lat="-32.03505688545503" lon="116.47283916069222"><ele>346.0</ele><time>2026-04-05T05:20:54.999Z</time></trkpt><trkpt lat="-32.0349005398629" lon="116.47282878233482"><ele>346.0</ele><time>2026-04-05T05:20:55.999Z</time></trkpt><trkpt lat="-32.03472879481989" lon="116.47282603857691"><ele>346.0</ele><time>2026-04-05T05:20:56.999Z</time></trkpt><trkpt lat="-32.03457164030814" lon="116.4728316577634"><ele>346.0</ele><time>2026-04-05T05:20:57.999Z</time></trkpt><trkpt lat="-32.034436183960416" lon="116.47282573489754"><ele>346.0</ele><time>2026-04-05T05:20:58.999Z</time></trkpt><trkpt lat="-32.0343194928258" lon="116.472808863342"><ele>346.0</ele><time>2026-04-05T05:20:59.999Z</time></trkpt><trkpt lat="-32.034234751777596" lon="116.47277315946782"><ele>346.0</ele><time>2026-04-05T05:21:00.999Z</time></trkpt><trkpt lat="-32.03415009050874" lon="116.47270938502577"><ele>346.0</ele><time>2026-04-05T05:21:01.999Z</time></trkpt><trkpt lat="-32.03405167820536" lon="116.4726049670104"><ele>345.5</ele><time>2026-04-05T05:21:02.999Z</time></trkpt><trkpt lat="-32.033948284610744" lon="116.47249657544802"><ele>345.0</ele><time>2026-04-05T05:21:03.999Z</time></trkpt><trkpt lat="-32.033857141504015" lon="116.47242177055863"><ele>344.5</ele><time>2026-04-05T05:21:04.999Z</time></trkpt><trkpt lat="-32.033746435313205" lon="116.47237806841223"><ele>344.0</ele><time>2026-04-05T05:21:05.999Z</time></trkpt><trkpt lat="-32.03361542507693" lon="116.47233874800165"><ele>344.0</ele><time>2026-04-05T05:21:06.999Z</time></trkpt><trkpt lat="-32.03350676128525" lon="116.47228993345985"><ele>344.0</ele><time>2026-04-05T05:21:07.999Z</time></trkpt><trkpt lat="-32.03342843529452" lon="116.4722364542593"><ele>344.0</ele><time>2026-04-05T05:21:08.999Z</time></trkpt><trkpt lat="-32.03336440018069" lon="116.47216497574325"><ele>344.0</ele><time>2026-04-05T05:21:09.999Z</time></trkpt><trkpt lat="-32.033293421362046" lon="116.47206818593433"><ele>344.0</ele><time>2026-04-05T05:21:10.999Z</time></trkpt><trkpt lat="-32.03321763763485" lon="116.4719698086311"><ele>343.1666666666667</ele><time>2026-04-05T05:21:11.999Z</time></trkpt><trkpt lat="-32.03314413926167" lon="116.47188347003996"><ele>342.33333333333337</ele><time>2026-04-05T05:21:12.999Z</time></trkpt><trkpt lat="-32.03309772762116" lon="116.4718285847095"><ele>341.5</ele><time>2026-04-05T05:21:13.999Z</time></trkpt><trkpt lat="-32.033044717840674" lon="116.47178451055896"><ele>340.6666666666667</ele><time>2026-04-05T05:21:15.999Z</time></trkpt><trkpt lat="-32.032976450831846" lon="116.47177008645806"><ele>339.8333333333333</ele><time>2026-04-05T05:21:17.999Z</time></trkpt><trkpt lat="-32.03290072272189" lon="116.47178661840769"><ele>339.0</ele><time>2026-04-05T05:21:19.999Z</time></trkpt><trkpt lat="-32.03283340360939" lon="116.47181182546713"><ele>339.0</ele><time>2026-04-05T05:21:22.999Z</time></trkpt><trkpt lat="-32.03284576991864" lon="116.47165411194732"><ele>339.0</ele><time>2026-04-05T05:22:00Z</time></trkpt><trkpt lat="-32.03287031084968" lon="116.47156311741077"><ele>339.0</ele><time>2026-04-05T05:22:01Z</time></trkpt><trkpt lat="-32.032892237628516" lon="116.47144120654312"><ele>339.0</ele><time>2026-04-05T05:22:02Z</time></trkpt><trkpt lat="-32.03291865441425" lon="116.47130881931108"><ele>339.0</ele><time>2026-04-05T05:22:03Z</time></trkpt><trkpt lat="-32.03295060026432" lon="116.4711615693604"><ele>339.0</ele><time>2026-04-05T05:22:04Z</time></trkpt><trkpt lat="-32.03298147267114" lon="116.47101086243761"><ele>339.0</ele><time>2026-04-05T05:22:05Z</time></trkpt><trkpt lat="-32.0330134271039" lon="116.47087821476944"><ele>339.0</ele><time>2026-04-05T05:22:06Z</time></trkpt><trkpt lat="-32.033050390508365" lon="116.47074613376378"><ele>339.0</ele><time>2026-04-05T05:22:07Z</time></trkpt><trkpt lat="-32.033086515312924" lon="116.47060048346906"><ele>339.0</ele><time>2026-04-05T05:22:08Z</time></trkpt><trkpt lat="-32.03311796906635" lon="116.47045884493316"><ele>339.0</ele><time>2026-04-05T05:22:09Z</time></trkpt><trkpt lat="-32.033160603454135" lon="116.47032836990954"><ele>339.0</ele><time>2026-04-05T05:22:10Z</time></trkpt><trkpt lat="-32.03320825429238" lon="116.47019367592591"><ele>339.0</ele><time>2026-04-05T05:22:11Z</time></trkpt><trkpt lat="-32.03326514910435" lon="116.47005597381818"><ele>337.3333333333333</ele><time>2026-04-05T05:22:12Z</time></trkpt><trkpt lat="-32.03333835017242" lon="116.46989324874758"><ele>335.66666666666663</ele><time>2026-04-05T05:22:13Z</time></trkpt><trkpt lat="-32.03340571358752" lon="116.4697325473646"><ele>334.0</ele><time>2026-04-05T05:22:14Z</time></trkpt><trkpt lat="-32.03347147061545" lon="116.46957553443734"><ele>333.5</ele><time>2026-04-05T05:22:15Z</time></trkpt><trkpt lat="-32.033535225773015" lon="116.46942165691269"><ele>333.0</ele><time>2026-04-05T05:22:16Z</time></trkpt><trkpt lat="-32.03358804274023" lon="116.4692842016445"><ele>332.5</ele><time>2026-04-05T05:22:17Z</time></trkpt><trkpt lat="-32.033650071544926" lon="116.4691454271476"><ele>332.0</ele><time>2026-04-05T05:22:17.999Z</time></trkpt><trkpt lat="-32.033716951579" lon="116.4689988440664"><ele>332.0</ele><time>2026-04-05T05:22:18.999Z</time></trkpt><trkpt lat="-32.03377951198815" lon="116.46884238183274"><ele>332.0</ele><time>2026-04-05T05:22:19.999Z</time></trkpt><trkpt lat="-32.03384227079152" lon="116.46867548085056"><ele>332.0</ele><time>2026-04-05T05:22:20.999Z</time></trkpt><trkpt lat="-32.03390171501975" lon="116.46848969790157"><ele>333.6666666666667</ele><time>2026-04-05T05:22:21.999Z</time></trkpt><trkpt lat="-32.03395511565382" lon="116.4682953413752"><ele>335.3333333333333</ele><time>2026-04-05T05:22:22.999Z</time></trkpt><trkpt lat="-32.03400715567622" lon="116.46808983459242"><ele>337.0</ele><time>2026-04-05T05:22:23.999Z</time></trkpt><trkpt lat="-32.034051706957925" lon="116.46790626531083"><ele>337.66666666666663</ele><time>2026-04-05T05:22:24.999Z</time></trkpt><trkpt lat="-32.03408763477313" lon="116.46774237306511"><ele>338.3333333333333</ele><time>2026-04-05T05:22:25.999Z</time></trkpt><trkpt lat="-32.03412001330907" lon="116.46755820540803"><ele>339.0</ele><time>2026-04-05T05:22:26.999Z</time></trkpt><trkpt lat="-32.03414999727771" lon="116.467370367334"><ele>337.3333333333333</ele><time>2026-04-05T05:22:27.999Z</time></trkpt><trkpt lat="-32.034182169836974" lon="116.46718666026064"><ele>335.66666666666663</ele><time>2026-04-05T05:22:28.999Z</time></trkpt><trkpt lat="-32.03421225439678" lon="116.46700469529414"><ele>334.0</ele><time>2026-04-05T05:22:29.999Z</time></trkpt><trkpt lat="-32.03424140155641" lon="116.46682565881251"><ele>334.0</ele><time>2026-04-05T05:22:30.999Z</time></trkpt><trkpt lat="-32.03426409058178" lon="116.46665230140037"><ele>334.0</ele><time>2026-04-05T05:22:31.999Z</time></trkpt><trkpt lat="-32.03429603855149" lon="116.46646785992877"><ele>334.0</ele><time>2026-04-05T05:22:32.999Z</time></trkpt><trkpt lat="-32.034330840392386" lon="116.46628572388208"><ele>334.25</ele><time>2026-04-05T05:22:33.999Z</time></trkpt><trkpt lat="-32.034369185886064" lon="116.46610450783147"><ele>334.5</ele><time>2026-04-05T05:22:34.999Z</time></trkpt><trkpt lat="-32.03440111451429" lon="116.46595323526236"><ele>334.75</ele><time>2026-04-05T05:22:35.999Z</time></trkpt><trkpt lat="-32.03443576301841" lon="116.46579209549006"><ele>335.0</ele><time>2026-04-05T05:22:36.999Z</time></trkpt><trkpt lat="-32.03446288858728" lon="116.46562474324014"><ele>336.6666666666667</ele><time>2026-04-05T05:22:37.999Z</time></trkpt><trkpt lat="-32.03448754504043" lon="116.46544086046964"><ele>338.3333333333333</ele><time>2026-04-05T05:22:38.999Z</time></trkpt><trkpt lat="-32.03450981372973" lon="116.46525728403336"><ele>340.0</ele><time>2026-04-05T05:22:39.999Z</time></trkpt><trkpt lat="-32.034530833842446" lon="116.465063103954"><ele>340.0</ele><time>2026-04-05T05:22:40.999Z</time></trkpt><trkpt lat="-32.0345504637872" lon="116.46487889437674"><ele>340.0</ele><time>2026-04-05T05:22:41.999Z</time></trkpt><trkpt lat="-32.034572607368844" lon="116.46469404323857"><ele>340.0</ele><time>2026-04-05T05:22:42.999Z</time></trkpt><trkpt lat="-32.03460188552008" lon="116.46451178604124"><ele>340.66666666666663</ele><time>2026-04-05T05:22:43.999Z</time></trkpt><trkpt lat="-32.03463486485507" lon="116.46434489302666"><ele>341.3333333333333</ele><time>2026-04-05T05:22:44.999Z</time></trkpt><trkpt lat="-32.03468275097127" lon="116.46417616887851"><ele>342.0</ele><time>2026-04-05T05:22:45.999Z</time></trkpt><trkpt lat="-32.034750974236665" lon="116.46398091945771"><ele>343.6666666666667</ele><time>2026-04-05T05:22:46.999Z</time></trkpt><trkpt lat="-32.03481724071592" lon="116.46377254129042"><ele>345.33333333333337</ele><time>2026-04-05T05:22:47.999Z</time></trkpt><trkpt lat="-32.03489214922965" lon="116.46355055875524"><ele>347.0</ele><time>2026-04-05T05:22:48.999Z</time></trkpt><trkpt lat="-32.03495679935479" lon="116.46335815430568"><ele>346.33333333333337</ele><time>2026-04-05T05:22:49.999Z</time></trkpt><trkpt lat="-32.03500294256102" lon="116.4631922994341"><ele>345.6666666666667</ele><time>2026-04-05T05:22:50.999Z</time></trkpt><trkpt lat="-32.03505321707421" lon="116.46302545133186"><ele>345.0</ele><time>2026-04-05T05:22:51.999Z</time></trkpt><trkpt lat="-32.03511037041002" lon="116.46284508435178"><ele>346.5</ele><time>2026-04-05T05:22:52.999Z</time></trkpt><trkpt lat="-32.0351761406724" lon="116.46266932646816"><ele>348.0</ele><time>2026-04-05T05:22:53.999Z</time></trkpt><trkpt lat="-32.035233932331614" lon="116.46250032787445"><ele>349.5</ele><time>2026-04-05T05:22:54.999Z</time></trkpt><trkpt lat="-32.035281133311216" lon="116.46235805752984"><ele>351.0</ele><time>2026-04-05T05:22:55.999Z</time></trkpt><trkpt lat="-32.03532129404487" lon="116.46221930703152"><ele>351.75</ele><time>2026-04-05T05:22:56.999Z</time></trkpt><trkpt lat="-32.03536066874963" lon="116.46207496869908"><ele>352.5</ele><time>2026-04-05T05:22:57.999Z</time></trkpt><trkpt lat="-32.035399680063" lon="116.46192629937588"><ele>353.25</ele><time>2026-04-05T05:22:58.999Z</time></trkpt><trkpt lat="-32.03543093727778" lon="116.46178641080849"><ele>354.0</ele><time>2026-04-05T05:22:59.999Z</time></trkpt><trkpt lat="-32.03546381450439" lon="116.46163638777138"><ele>354.0</ele><time>2026-04-05T05:23:00.999Z</time></trkpt><trkpt lat="-32.03549287445356" lon="116.46147675493128"><ele>354.0</ele><time>2026-04-05T05:23:01.999Z</time></trkpt><trkpt lat="-32.03552386767516" lon="116.46133712985315"><ele>354.0</ele><time>2026-04-05T05:23:02.999Z</time></trkpt><trkpt lat="-32.03555042976706" lon="116.46121405163694"><ele>354.0</ele><time>2026-04-05T05:23:03.999Z</time></trkpt><trkpt lat="-32.03557781251475" lon="116.46108748131903"><ele>353.25</ele><time>2026-04-05T05:23:04.999Z</time></trkpt><trkpt lat="-32.035598454175336" lon="116.46094387120651"><ele>352.5</ele><time>2026-04-05T05:23:05.999Z</time></trkpt><trkpt lat="-32.035609289245464" lon="116.46077943580356"><ele>351.75</ele><time>2026-04-05T05:23:06.999Z</time></trkpt><trkpt lat="-32.03561028028413" lon="116.46060845619105"><ele>351.0</ele><time>2026-04-05T05:23:07.999Z</time></trkpt><trkpt lat="-32.03561203433134" lon="116.46044735671073"><ele>349.8</ele><time>2026-04-05T05:23:08.999Z</time></trkpt><trkpt lat="-32.035618618531466" lon="116.46030938013276"><ele>348.6</ele><time>2026-04-05T05:23:09.999Z</time></trkpt><trkpt lat="-32.035623421417704" lon="116.4601917856639"><ele>347.4</ele><time>2026-04-05T05:23:10.999Z</time></trkpt><trkpt lat="-32.03562513989596" lon="116.46008064752176"><ele>346.2</ele><time>2026-04-05T05:23:11.999Z</time></trkpt><trkpt lat="-32.03562237247996" lon="116.45997885074034"><ele>345.0</ele><time>2026-04-05T05:23:12.999Z</time></trkpt><trkpt lat="-32.03557877349881" lon="116.45987093294069"><ele>345.0</ele><time>2026-04-05T05:23:13.999Z</time></trkpt><trkpt lat="-32.03551670924135" lon="116.45973329033725"><ele>345.0</ele><time>2026-04-05T05:23:14.999Z</time></trkpt><trkpt lat="-32.035451095854455" lon="116.45960040074584"><ele>345.0</ele><time>2026-04-05T05:23:15.999Z</time></trkpt><trkpt lat="-32.03539619289988" lon="116.45947757683774"><ele>345.0</ele><time>2026-04-05T05:23:16.999Z</time></trkpt><trkpt lat="-32.03532662597206" lon="116.45932972320827"><ele>343.25</ele><time>2026-04-05T05:23:17.999Z</time></trkpt><trkpt lat="-32.03524989354424" lon="116.45919481885274"><ele>341.5</ele><time>2026-04-05T05:23:18.999Z</time></trkpt><trkpt lat="-32.03517266093328" lon="116.45905394873216"><ele>339.75</ele><time>2026-04-05T05:23:19.999Z</time></trkpt><trkpt lat="-32.03509447796426" lon="116.45890656411385"><ele>338.0</ele><time>2026-04-05T05:23:20.999Z</time></trkpt><trkpt lat="-32.03501972339711" lon="116.45876867665376"><ele>337.25</ele><time>2026-04-05T05:23:21.999Z</time></trkpt><trkpt lat="-32.03494630538703" lon="116.45862977497409"><ele>336.5</ele><time>2026-04-05T05:23:22.999Z</time></trkpt><trkpt lat="-32.034867629263914" lon="116.45849036610446"><ele>335.75</ele><time>2026-04-05T05:23:23.999Z</time></trkpt><trkpt lat="-32.03477796619514" lon="116.45834102754154"><ele>335.0</ele><time>2026-04-05T05:23:24.999Z</time></trkpt><trkpt lat="-32.03469389593617" lon="116.45819507192068"><ele>335.0</ele><time>2026-04-05T05:23:25.999Z</time></trkpt><trkpt lat="-32.03461263358974" lon="116.45804474155094"><ele>335.0</ele><time>2026-04-05T05:23:26.999Z</time></trkpt><trkpt lat="-32.03453229899328" lon="116.45788990103041"><ele>335.0</ele><time>2026-04-05T05:23:27.999Z</time></trkpt><trkpt lat="-32.03446191692689" lon="116.45774153624967"><ele>335.0</ele><time>2026-04-05T05:23:28.999Z</time></trkpt><trkpt lat="-32.03439466703904" lon="116.45759807175973"><ele>333.6666666666667</ele><time>2026-04-05T05:23:29.999Z</time></trkpt><trkpt lat="-32.03432621936632" lon="116.45744263159261"><ele>332.3333333333333</ele><time>2026-04-05T05:23:30.999Z</time></trkpt><trkpt lat="-32.03426097722883" lon="116.4572778947608"><ele>331.0</ele><time>2026-04-05T05:23:31.999Z</time></trkpt><trkpt lat="-32.0342054455196" lon="116.45710057167177"><ele>330.3333333333333</ele><time>2026-04-05T05:23:32.999Z</time></trkpt><trkpt lat="-32.03415061706339" lon="116.45689664393312"><ele>329.6666666666667</ele><time>2026-04-05T05:23:33.999Z</time></trkpt><trkpt lat="-32.03409769417657" lon="116.45668993020647"><ele>329.0</ele><time>2026-04-05T05:23:34.999Z</time></trkpt><trkpt lat="-32.034056110676175" lon="116.45647352936257"><ele>330.33333333333337</ele><time>2026-04-05T05:23:35.999Z</time></trkpt><trkpt lat="-32.03401474580952" lon="116.45622643096281"><ele>331.6666666666667</ele><time>2026-04-05T05:23:36.999Z</time></trkpt><trkpt lat="-32.03398241870538" lon="116.4559713542"><ele>333.0</ele><time>2026-04-05T05:23:37.999Z</time></trkpt><trkpt lat="-32.03395276078332" lon="116.455710109702"><ele>333.0</ele><time>2026-04-05T05:23:38.999Z</time></trkpt><trkpt lat="-32.033928361685234" lon="116.4554668521533"><ele>333.0</ele><time>2026-04-05T05:23:39.999Z</time></trkpt><trkpt lat="-32.0339101875444" lon="116.45524066401691"><ele>333.0</ele><time>2026-04-05T05:23:40.999Z</time></trkpt><trkpt lat="-32.03390556990923" lon="116.45504245502234"><ele>333.75</ele><time>2026-04-05T05:23:41.999Z</time></trkpt><trkpt lat="-32.03391157994202" lon="116.45487603760752"><ele>334.5</ele><time>2026-04-05T05:23:42.999Z</time></trkpt><trkpt lat="-32.03392037335605" lon="116.45469492286445"><ele>335.25</ele><time>2026-04-05T05:23:43.999Z</time></trkpt><trkpt lat="-32.03393667925823" lon="116.45451849070125"><ele>336.0</ele><time>2026-04-05T05:23:44.999Z</time></trkpt><trkpt lat="-32.03395501456039" lon="116.45435196461696"><ele>336.25</ele><time>2026-04-05T05:23:45.999Z</time></trkpt><trkpt lat="-32.03397146004692" lon="116.45417636879178"><ele>336.5</ele><time>2026-04-05T05:23:46.999Z</time></trkpt><trkpt lat="-32.033982158582326" lon="116.45400617186657"><ele>336.75</ele><time>2026-04-05T05:23:47.999Z</time></trkpt><trkpt lat="-32.033988630527375" lon="116.45384743592284"><ele>337.0</ele><time>2026-04-05T05:23:48.999Z</time></trkpt><trkpt lat="-32.03399092605154" lon="116.45369844934265"><ele>336.6</ele><time>2026-04-05T05:23:49.999Z</time></trkpt><trkpt lat="-32.03398970185424" lon="116.4535586371051"><ele>336.20000000000005</ele><time>2026-04-05T05:23:50.999Z</time></trkpt><trkpt lat="-32.03398673009465" lon="116.45342324603742"><ele>335.8</ele><time>2026-04-05T05:23:51.999Z</time></trkpt><trkpt lat="-32.033991140593365" lon="116.45329890050556"><ele>335.4</ele><time>2026-04-05T05:23:52.999Z</time></trkpt><trkpt lat="-32.03399451390542" lon="116.45317801155221"><ele>335.0</ele><time>2026-04-05T05:23:53.999Z</time></trkpt><trkpt lat="-32.034005085709445" lon="116.45306477801923"><ele>335.0</ele><time>2026-04-05T05:23:54.999Z</time></trkpt><trkpt lat="-32.034020048644344" lon="116.45295876060999"><ele>335.0</ele><time>2026-04-05T05:23:55.999Z</time></trkpt><trkpt lat="-32.03403459365161" lon="116.45286018596624"><ele>335.0</ele><time>2026-04-05T05:23:56.999Z</time></trkpt><trkpt lat="-32.03405169407954" lon="116.45276714291778"><ele>335.0</ele><time>2026-04-05T05:23:57.999Z</time></trkpt><trkpt lat="-32.034068899846716" lon="116.4526833740296"><ele>335.0</ele><time>2026-04-05T05:23:58.999Z</time></trkpt><trkpt lat="-32.03408154797109" lon="116.45260933857966"><ele>335.0</ele><time>2026-04-05T05:23:59.999Z</time></trkpt><trkpt lat="-32.03409075982924" lon="116.45249782112272"><ele>335.0</ele><time>2026-04-05T05:24:01.999Z</time></trkpt><trkpt lat="-32.034154002209476" lon="116.4525125536157"><ele>335.0</ele><time>2026-04-05T05:24:53.999Z</time></trkpt><trkpt lat="-32.0341356165327" lon="116.45260371157961"><ele>335.0</ele><time>2026-04-05T05:24:56.999Z</time></trkpt><trkpt lat="-32.03408631836872" lon="116.45266303194371"><ele>335.0</ele><time>2026-04-05T05:24:59.999Z</time></trkpt><trkpt lat="-32.03406336410766" lon="116.4527664408673"><ele>335.0</ele><time>2026-04-05T05:25:01.999Z</time></trkpt><trkpt lat="-32.034042693146596" lon="116.4528946301719"><ele>335.0</ele><time>2026-04-05T05:25:03.999Z</time></trkpt><trkpt lat="-32.03402738200307" lon="116.45297256483876"><ele>335.0</ele><time>2026-04-05T05:25:04.999Z</time></trkpt><trkpt lat="-32.03400953285277" lon="116.45306552140771"><ele>335.0</ele><time>2026-04-05T05:25:05.999Z</time></trkpt><trkpt lat="-32.033994208223206" lon="116.45316269646254"><ele>335.0</ele><time>2026-04-05T05:25:06.999Z</time></trkpt><trkpt lat="-32.033994222089014" lon="116.4532871821086"><ele>335.0</ele><time>2026-04-05T05:25:07.999Z</time></trkpt><trkpt lat="-32.03399078743275" lon="116.45343464478594"><ele>335.0</ele><time>2026-04-05T05:25:08.999Z</time></trkpt><trkpt lat="-32.03398976705892" lon="116.45357053250392"><ele>335.0</ele><time>2026-04-05T05:25:09.999Z</time></trkpt><trkpt lat="-32.03398881297268" lon="116.45370661934099"><ele>335.0</ele><time>2026-04-05T05:25:10.999Z</time></trkpt><trkpt lat="-32.033985971230464" lon="116.45387008400728"><ele>335.0</ele><time>2026-04-05T05:25:11.999Z</time></trkpt><trkpt lat="-32.03398231308733" lon="116.45407412569897"><ele>335.0</ele><time>2026-04-05T05:25:12.999Z</time></trkpt><trkpt lat="-32.033973865111065" lon="116.45429164095054"><ele>335.33333333333337</ele><time>2026-04-05T05:25:13.999Z</time></trkpt><trkpt lat="-32.033954817745986" lon="116.45448733735593"><ele>335.6666666666667</ele><time>2026-04-05T05:25:14.999Z</time></trkpt><trkpt lat="-32.0339313262985" lon="116.4546898612947"><ele>336.0</ele><time>2026-04-05T05:25:15.999Z</time></trkpt><trkpt lat="-32.033921626217484" lon="116.45485497029786"><ele>336.0</ele><time>2026-04-05T05:25:16.999Z</time></trkpt><trkpt lat="-32.03391472651849" lon="116.45499476176036"><ele>336.0</ele><time>2026-04-05T05:25:17.999Z</time></trkpt><trkpt lat="-32.03391179741998" lon="116.45512320807495"><ele>336.0</ele><time>2026-04-05T05:25:18.999Z</time></trkpt><trkpt lat="-32.03391965563599" lon="116.45527050004488"><ele>336.0</ele><time>2026-04-05T05:25:19.999Z</time></trkpt><trkpt lat="-32.033934997428666" lon="116.45543146827687"><ele>335.25</ele><time>2026-04-05T05:25:20.999Z</time></trkpt><trkpt lat="-32.03394644374471" lon="116.45558582419704"><ele>334.5</ele><time>2026-04-05T05:25:21.999Z</time></trkpt><trkpt lat="-32.033958195552394" lon="116.45575274552124"><ele>333.75</ele><time>2026-04-05T05:25:22.999Z</time></trkpt><trkpt lat="-32.03397694803166" lon="116.45591910126686"><ele>333.0</ele><time>2026-04-05T05:25:23.999Z</time></trkpt><trkpt lat="-32.03399985780566" lon="116.45608995677928"><ele>333.0</ele><time>2026-04-05T05:25:24.999Z</time></trkpt><trkpt lat="-32.034025769904645" lon="116.45625837384794"><ele>333.0</ele><time>2026-04-05T05:25:25.999Z</time></trkpt><trkpt lat="-32.03405129002209" lon="116.45640989533241"><ele>333.0</ele><time>2026-04-05T05:25:26.999Z</time></trkpt><trkpt lat="-32.03407629749829" lon="116.45656890427645"><ele>333.0</ele><time>2026-04-05T05:25:27.999Z</time></trkpt><trkpt lat="-32.03410793129568" lon="116.45672872470253"><ele>332.5</ele><time>2026-04-05T05:25:28.999Z</time></trkpt><trkpt lat="-32.03415136612439" lon="116.45689262329114"><ele>332.0</ele><time>2026-04-05T05:25:29.999Z</time></trkpt><trkpt lat="-32.03419850551207" lon="116.45705493107916"><ele>331.5</ele><time>2026-04-05T05:25:30.999Z</time></trkpt><trkpt lat="-32.03424446935993" lon="116.45722046738206"><ele>331.0</ele><time>2026-04-05T05:25:31.999Z</time></trkpt><trkpt lat="-32.03429918326115" lon="116.45739600426893"><ele>331.0</ele><time>2026-04-05T05:25:32.999Z</time></trkpt><trkpt lat="-32.03435600309362" lon="116.45755703252905"><ele>331.0</ele><time>2026-04-05T05:25:33.999Z</time></trkpt><trkpt lat="-32.03442381707576" lon="116.45770214807014"><ele>331.0</ele><time>2026-04-05T05:25:34.999Z</time></trkpt><trkpt lat="-32.03450076953296" lon="116.45785266091772"><ele>331.0</ele><time>2026-04-05T05:25:35.999Z</time></trkpt><trkpt lat="-32.03457764690356" lon="116.45800359704653"><ele>332.3333333333333</ele><time>2026-04-05T05:25:36.999Z</time></trkpt><trkpt lat="-32.0346569645937" lon="116.45815231582598"><ele>333.6666666666667</ele><time>2026-04-05T05:25:37.999Z</time></trkpt><trkpt lat="-32.034737985251446" lon="116.45830319053107"><ele>335.0</ele><time>2026-04-05T05:25:38.999Z</time></trkpt><trkpt lat="-32.034822744339415" lon="116.4584555189628"><ele>335.0</ele><time>2026-04-05T05:25:39.999Z</time></trkpt><trkpt lat="-32.034918025649326" lon="116.45859969857386"><ele>335.0</ele><time>2026-04-05T05:25:40.999Z</time></trkpt><trkpt lat="-32.03499936455283" lon="116.45874299430088"><ele>335.0</ele><time>2026-04-05T05:25:41.999Z</time></trkpt><trkpt lat="-32.035078357316394" lon="116.4588962326107"><ele>336.0</ele><time>2026-04-05T05:25:42.999Z</time></trkpt><trkpt lat="-32.035161696905526" lon="116.4590548389709"><ele>337.0</ele><time>2026-04-05T05:25:43.999Z</time></trkpt><trkpt lat="-32.03525352060595" lon="116.45922222704304"><ele>338.0</ele><time>2026-04-05T05:25:44.999Z</time></trkpt><trkpt lat="-32.03534069990208" lon="116.4593939249867"><ele>338.0</ele><time>2026-04-05T05:25:45.999Z</time></trkpt><trkpt lat="-32.035416225124266" lon="116.45954601454113"><ele>338.0</ele><time>2026-04-05T05:25:46.999Z</time></trkpt><trkpt lat="-32.03548255292982" lon="116.4596848368259"><ele>338.0</ele><time>2026-04-05T05:25:47.999Z</time></trkpt><trkpt lat="-32.03553343901416" lon="116.45980767965078"><ele>338.0</ele><time>2026-04-05T05:25:48.999Z</time></trkpt><trkpt lat="-32.03557759883445" lon="116.45993189109801"><ele>339.4</ele><time>2026-04-05T05:25:49.999Z</time></trkpt><trkpt lat="-32.03561128851925" lon="116.46004188278224"><ele>340.79999999999995</ele><time>2026-04-05T05:25:50.999Z</time></trkpt><trkpt lat="-32.03562767089454" lon="116.46015862796429"><ele>342.2</ele><time>2026-04-05T05:25:51.999Z</time></trkpt><trkpt lat="-32.035622642086686" lon="116.46025008541851"><ele>343.6</ele><time>2026-04-05T05:25:52.999Z</time></trkpt><trkpt lat="-32.035614100712664" lon="116.46037027909115"><ele>345.0</ele><time>2026-04-05T05:25:53.999Z</time></trkpt><trkpt lat="-32.03559374766091" lon="116.46051170644068"><ele>346.2</ele><time>2026-04-05T05:25:54.999Z</time></trkpt><trkpt lat="-32.0355832694026" lon="116.46066807038304"><ele>347.4</ele><time>2026-04-05T05:25:55.999Z</time></trkpt><trkpt lat="-32.035584848381475" lon="116.46079063839865"><ele>348.6</ele><time>2026-04-05T05:25:56.999Z</time></trkpt><trkpt lat="-32.03558729403036" lon="116.46091032079181"><ele>349.8</ele><time>2026-04-05T05:25:58Z</time></trkpt><trkpt lat="-32.03558007018824" lon="116.46104008655712"><ele>351.0</ele><time>2026-04-05T05:25:59Z</time></trkpt><trkpt lat="-32.03555726558022" lon="116.46118081776241"><ele>351.75</ele><time>2026-04-05T05:26:00Z</time></trkpt><trkpt lat="-32.035512457039296" lon="116.4613262770807"><ele>352.5</ele><time>2026-04-05T05:26:01Z</time></trkpt><trkpt lat="-32.03547012164682" lon="116.46149027481677"><ele>353.25</ele><time>2026-04-05T05:26:02Z</time></trkpt><trkpt lat="-32.03544087017337" lon="116.46163568004906"><ele>354.0</ele><time>2026-04-05T05:26:03Z</time></trkpt><trkpt lat="-32.03541413142932" lon="116.46177960861053"><ele>354.0</ele><time>2026-04-05T05:26:04Z</time></trkpt><trkpt lat="-32.03538437821974" lon="116.46191575502459"><ele>354.0</ele><time>2026-04-05T05:26:04.999Z</time></trkpt><trkpt lat="-32.035353855231385" lon="116.46205344032737"><ele>354.0</ele><time>2026-04-05T05:26:06Z</time></trkpt><trkpt lat="-32.03531571581857" lon="116.46219497398887"><ele>354.0</ele><time>2026-04-05T05:26:07Z</time></trkpt><trkpt lat="-32.03527420316571" lon="116.46232891778634"><ele>353.25</ele><time>2026-04-05T05:26:08Z</time></trkpt><trkpt lat="-32.03523078768301" lon="116.46246009463503"><ele>352.5</ele><time>2026-04-05T05:26:09Z</time></trkpt><trkpt lat="-32.035184632873175" lon="116.46260606533751"><ele>351.75</ele><time>2026-04-05T05:26:10Z</time></trkpt><trkpt lat="-32.03513998846545" lon="116.462738944889"><ele>351.0</ele><time>2026-04-05T05:26:11Z</time></trkpt><trkpt lat="-32.03509046573952" lon="116.46286312166302"><ele>350.20000000000005</ele><time>2026-04-05T05:26:12Z</time></trkpt><trkpt lat="-32.03504739524441" lon="116.46298229873678"><ele>349.40000000000003</ele><time>2026-04-05T05:26:13Z</time></trkpt><trkpt lat="-32.03501139672139" lon="116.46308648627785"><ele>348.6</ele><time>2026-04-05T05:26:14Z</time></trkpt><trkpt lat="-32.0349739711518" lon="116.46320214031053"><ele>347.8</ele><time>2026-04-05T05:26:15Z</time></trkpt><trkpt lat="-32.034946055263106" lon="116.463345910575"><ele>347.0</ele><time>2026-04-05T05:26:16Z</time></trkpt><trkpt lat="-32.034901212805494" lon="116.46348354523627"><ele>347.0</ele><time>2026-04-05T05:26:17Z</time></trkpt><trkpt lat="-32.03485536160683" lon="116.4636038741462"><ele>347.0</ele><time>2026-04-05T05:26:18Z</time></trkpt><trkpt lat="-32.03481672757837" lon="116.46372895080266"><ele>347.0</ele><time>2026-04-05T05:26:19Z</time></trkpt><trkpt lat="-32.034773924609986" lon="116.4638605452372"><ele>347.0</ele><time>2026-04-05T05:26:20Z</time></trkpt><trkpt lat="-32.03473323482086" lon="116.46398247759896"><ele>346.0</ele><time>2026-04-05T05:26:21Z</time></trkpt><trkpt lat="-32.03469382635628" lon="116.46409954147626"><ele>345.0</ele><time>2026-04-05T05:26:22Z</time></trkpt><trkpt lat="-32.03465994275349" lon="116.4642118186864"><ele>344.0</ele><time>2026-04-05T05:26:23Z</time></trkpt><trkpt lat="-32.03463021917025" lon="116.46431107072208"><ele>343.0</ele><time>2026-04-05T05:26:24Z</time></trkpt><trkpt lat="-32.03460049397434" lon="116.4643977169945"><ele>342.0</ele><time>2026-04-05T05:26:25Z</time></trkpt><trkpt lat="-32.03457894120729" lon="116.464495318911"><ele>342.0</ele><time>2026-04-05T05:26:26Z</time></trkpt><trkpt lat="-32.03456431522021" lon="116.46459642613468"><ele>342.0</ele><time>2026-04-05T05:26:27Z</time></trkpt><trkpt lat="-32.034547792473326" lon="116.4647039203949"><ele>342.0</ele><time>2026-04-05T05:26:28Z</time></trkpt><trkpt lat="-32.034530253521105" lon="116.4648401074384"><ele>342.0</ele><time>2026-04-05T05:26:29Z</time></trkpt><trkpt lat="-32.03451159063062" lon="116.4649766632468"><ele>342.0</ele><time>2026-04-05T05:26:30Z</time></trkpt><trkpt lat="-32.03449812320462" lon="116.46511339989691"><ele>341.5</ele><time>2026-04-05T05:26:31Z</time></trkpt><trkpt lat="-32.03448488059958" lon="116.46526732375314"><ele>341.0</ele><time>2026-04-05T05:26:32Z</time></trkpt><trkpt lat="-32.0344693192171" lon="116.46542404380286"><ele>340.5</ele><time>2026-04-05T05:26:33Z</time></trkpt><trkpt lat="-32.0344511669383" lon="116.46557952385294"><ele>340.0</ele><time>2026-04-05T05:26:34Z</time></trkpt><trkpt lat="-32.034427609998964" lon="116.46573682495857"><ele>338.75</ele><time>2026-04-05T05:26:35Z</time></trkpt><trkpt lat="-32.03440198217338" lon="116.4658830014948"><ele>337.5</ele><time>2026-04-05T05:26:36Z</time></trkpt><trkpt lat="-32.03437171787525" lon="116.46602322053278"><ele>336.25</ele><time>2026-04-05T05:26:37Z</time></trkpt><trkpt lat="-32.034335057598234" lon="116.46616932158685"><ele>335.0</ele><time>2026-04-05T05:26:38Z</time></trkpt><trkpt lat="-32.03430334885523" lon="116.46632644049151"><ele>334.75</ele><time>2026-04-05T05:26:39Z</time></trkpt><trkpt lat="-32.03427604377214" lon="116.46647325331047"><ele>334.5</ele><time>2026-04-05T05:26:40Z</time></trkpt><trkpt lat="-32.03425047030982" lon="116.46662250900162"><ele>334.25</ele><time>2026-04-05T05:26:41Z</time></trkpt><trkpt lat="-32.03422327460275" lon="116.46677421675963"><ele>334.0</ele><time>2026-04-05T05:26:42Z</time></trkpt><trkpt lat="-32.034200108571426" lon="116.46692372167783"><ele>334.0</ele><time>2026-04-05T05:26:43Z</time></trkpt><trkpt lat="-32.03417559511335" lon="116.46707426379517"><ele>334.0</ele><time>2026-04-05T05:26:44Z</time></trkpt><trkpt lat="-32.03415659011829" lon="116.46722540792283"><ele>334.0</ele><time>2026-04-05T05:26:45Z</time></trkpt><trkpt lat="-32.03413309565538" lon="116.46737203203348"><ele>334.0</ele><time>2026-04-05T05:26:46Z</time></trkpt><trkpt lat="-32.034104165684326" lon="116.46752327379649"><ele>334.75</ele><time>2026-04-05T05:26:47Z</time></trkpt><trkpt lat="-32.034071912997284" lon="116.46768313549494"><ele>335.5</ele><time>2026-04-05T05:26:48Z</time></trkpt><trkpt lat="-32.03404095349841" lon="116.46784648262499"><ele>336.25</ele><time>2026-04-05T05:26:48.999Z</time></trkpt><trkpt lat="-32.03399956138523" lon="116.46802126918837"><ele>337.0</ele><time>2026-04-05T05:26:49.999Z</time></trkpt><trkpt lat="-32.03395615617766" lon="116.4681831062427"><ele>337.0</ele><time>2026-04-05T05:26:50.999Z</time></trkpt><trkpt lat="-32.03391899212971" lon="116.46832670128323"><ele>337.0</ele><time>2026-04-05T05:26:51.999Z</time></trkpt><trkpt lat="-32.0338878344468" lon="116.4684530785056"><ele>337.0</ele><time>2026-04-05T05:26:52.999Z</time></trkpt><trkpt lat="-32.03385226818477" lon="116.4685705139211"><ele>337.0</ele><time>2026-04-05T05:26:53.999Z</time></trkpt><trkpt lat="-32.03381210731646" lon="116.46869331286972"><ele>335.75</ele><time>2026-04-05T05:26:54.999Z</time></trkpt><trkpt lat="-32.03376218415265" lon="116.46883040646767"><ele>334.5</ele><time>2026-04-05T05:26:55.999Z</time></trkpt><trkpt lat="-32.033706700522686" lon="116.46896872326198"><ele>333.25</ele><time>2026-04-05T05:26:56.999Z</time></trkpt><trkpt lat="-32.03365661764611" lon="116.46909584918036"><ele>332.0</ele><time>2026-04-05T05:26:57.999Z</time></trkpt><trkpt lat="-32.033608381269936" lon="116.46921084115034"><ele>332.0</ele><time>2026-04-05T05:26:58.999Z</time></trkpt><trkpt lat="-32.03355655044061" lon="116.46932979627746"><ele>332.0</ele><time>2026-04-05T05:26:59.999Z</time></trkpt><trkpt lat="-32.03350703515936" lon="116.46944642029592"><ele>332.0</ele><time>2026-04-05T05:27:00.999Z</time></trkpt><trkpt lat="-32.03346448864814" lon="116.46954884404506"><ele>332.0</ele><time>2026-04-05T05:27:01.999Z</time></trkpt><trkpt lat="-32.033429326265626" lon="116.46963325958082"><ele>332.0</ele><time>2026-04-05T05:27:02.999Z</time></trkpt><trkpt lat="-32.03339892868165" lon="116.46970157692493"><ele>332.40000000000003</ele><time>2026-04-05T05:27:03.999Z</time></trkpt><trkpt lat="-32.03335678380075" lon="116.46981578862808"><ele>332.8</ele><time>2026-04-05T05:27:05.999Z</time></trkpt><trkpt lat="-32.03330287801382" lon="116.4699434600018"><ele>333.2</ele><time>2026-04-05T05:27:07.999Z</time></trkpt><trkpt lat="-32.033270221747316" lon="116.47001896806177"><ele>333.6</ele><time>2026-04-05T05:27:08.999Z</time></trkpt><trkpt lat="-32.033233866093695" lon="116.47010761312208"><ele>334.0</ele><time>2026-04-05T05:27:09.999Z</time></trkpt><trkpt lat="-32.03319410755143" lon="116.47021329681537"><ele>334.79999999999995</ele><time>2026-04-05T05:27:10.999Z</time></trkpt><trkpt lat="-32.03314712105581" lon="116.47032354312647"><ele>335.59999999999997</ele><time>2026-04-05T05:27:11.999Z</time></trkpt><trkpt lat="-32.033103931236916" lon="116.47044582016748"><ele>336.4</ele><time>2026-04-05T05:27:12.999Z</time></trkpt><trkpt lat="-32.033072029823096" lon="116.4705694516831"><ele>337.2</ele><time>2026-04-05T05:27:13.999Z</time></trkpt><trkpt lat="-32.033045748839946" lon="116.47068605756117"><ele>338.0</ele><time>2026-04-05T05:27:14.999Z</time></trkpt><trkpt lat="-32.033022938828324" lon="116.47079142780021"><ele>338.2</ele><time>2026-04-05T05:27:15.999Z</time></trkpt><trkpt lat="-32.03300453279479" lon="116.470879868559"><ele>338.4</ele><time>2026-04-05T05:27:16.999Z</time></trkpt><trkpt lat="-32.032986304735495" lon="116.47095576042072"><ele>338.59999999999997</ele><time>2026-04-05T05:27:17.999Z</time></trkpt><trkpt lat="-32.0329222178606" lon="116.47105539920585"><ele>338.79999999999995</ele><time>2026-04-05T05:27:19.999Z</time></trkpt><trkpt lat="-32.032830386272515" lon="116.47110707346799"><ele>339.0</ele><time>2026-04-05T05:27:21.999Z</time></trkpt><trkpt lat="-32.03269318981082" lon="116.47114687941709"><ele>339.0</ele><time>2026-04-05T05:27:23.999Z</time></trkpt><trkpt lat="-32.032595238953185" lon="116.47117386543106"><ele>339.0</ele><time>2026-04-05T05:27:24.999Z</time></trkpt><trkpt lat="-32.03248095395823" lon="116.47120596415387"><ele>339.0</ele><time>2026-04-05T05:27:25.999Z</time></trkpt><trkpt lat="-32.03235212746052" lon="116.47125419604635"><ele>339.0</ele><time>2026-04-05T05:27:26.999Z</time></trkpt><trkpt lat="-32.032224877735" lon="116.47130880142038"><ele>338.0</ele><time>2026-04-05T05:27:27.999Z</time></trkpt><trkpt lat="-32.03209546459003" lon="116.47137445084924"><ele>337.0</ele><time>2026-04-05T05:27:28.999Z</time></trkpt><trkpt lat="-32.03197073093735" lon="116.47143210551403"><ele>336.0</ele><time>2026-04-05T05:27:29.999Z</time></trkpt><trkpt lat="-32.03184182064237" lon="116.47148614340864"><ele>335.0</ele><time>2026-04-05T05:27:30.999Z</time></trkpt><trkpt lat="-32.0317189356178" lon="116.47152284082168"><ele>334.25</ele><time>2026-04-05T05:27:31.999Z</time></trkpt><trkpt lat="-32.03158787247112" lon="116.47153665144334"><ele>333.5</ele><time>2026-04-05T05:27:32.999Z</time></trkpt><trkpt lat="-32.03144630539288" lon="116.47153957553058"><ele>332.75</ele><time>2026-04-05T05:27:33.999Z</time></trkpt><trkpt lat="-32.03129893764966" lon="116.47153915570075"><ele>332.0</ele><time>2026-04-05T05:27:34.999Z</time></trkpt><trkpt lat="-32.03116059133803" lon="116.47155206790282"><ele>332.0</ele><time>2026-04-05T05:27:35.999Z</time></trkpt><trkpt lat="-32.03102802878477" lon="116.47158333001119"><ele>332.0</ele><time>2026-04-05T05:27:36.999Z</time></trkpt><trkpt lat="-32.030887942428826" lon="116.47161559137056"><ele>332.0</ele><time>2026-04-05T05:27:37.999Z</time></trkpt><trkpt lat="-32.03073523131724" lon="116.47166650611528"><ele>332.0</ele><time>2026-04-05T05:27:38.999Z</time></trkpt><trkpt lat="-32.030595227017905" lon="116.47172488951792"><ele>331.25</ele><time>2026-04-05T05:27:39.999Z</time></trkpt><trkpt lat="-32.030473832161256" lon="116.47177324917439"><ele>330.5</ele><time>2026-04-05T05:27:40.999Z</time></trkpt><trkpt lat="-32.03035781383098" lon="116.47182789246224"><ele>329.75</ele><time>2026-04-05T05:27:41.999Z</time></trkpt><trkpt lat="-32.03025197957074" lon="116.4718841563694"><ele>329.0</ele><time>2026-04-05T05:27:42.999Z</time></trkpt><trkpt lat="-32.03015418723066" lon="116.47193290075076"><ele>329.0</ele><time>2026-04-05T05:27:43.999Z</time></trkpt><trkpt lat="-32.030045194808956" lon="116.47194948266775"><ele>329.0</ele><time>2026-04-05T05:27:44.999Z</time></trkpt><trkpt lat="-32.029919124852086" lon="116.47195520575634"><ele>329.0</ele><time>2026-04-05T05:27:45.999Z</time></trkpt><trkpt lat="-32.02975804061317" lon="116.47195459288531"><ele>329.0</ele><time>2026-04-05T05:27:46.999Z</time></trkpt><trkpt lat="-32.02958852581932" lon="116.47195876501367"><ele>328.33333333333337</ele><time>2026-04-05T05:27:47.999Z</time></trkpt><trkpt lat="-32.0294361417775" lon="116.47197629087067"><ele>327.6666666666667</ele><time>2026-04-05T05:27:48.999Z</time></trkpt><trkpt lat="-32.029284671798266" lon="116.47200657988769"><ele>327.0</ele><time>2026-04-05T05:27:49.999Z</time></trkpt><trkpt lat="-32.02912754212043" lon="116.47202993068838"><ele>325.0</ele><time>2026-04-05T05:27:50.999Z</time></trkpt><trkpt lat="-32.02896781250258" lon="116.47204838338705"><ele>323.0</ele><time>2026-04-05T05:27:51.999Z</time></trkpt><trkpt lat="-32.02880607793108" lon="116.47207063064143"><ele>321.0</ele><time>2026-04-05T05:27:52.999Z</time></trkpt><trkpt lat="-32.02864808901748" lon="116.47208672679217"><ele>321.0</ele><time>2026-04-05T05:27:53.999Z</time></trkpt><trkpt lat="-32.02851646235715" lon="116.47209262809231"><ele>321.0</ele><time>2026-04-05T05:27:54.999Z</time></trkpt><trkpt lat="-32.028393937805234" lon="116.47208783346325"><ele>321.0</ele><time>2026-04-05T05:27:55.999Z</time></trkpt><trkpt lat="-32.02827793703576" lon="116.47207057481651"><ele>321.0</ele><time>2026-04-05T05:27:56.999Z</time></trkpt><trkpt lat="-32.028133583917665" lon="116.47204904669513"><ele>321.0</ele><time>2026-04-05T05:27:57.999Z</time></trkpt><trkpt lat="-32.027987284821734" lon="116.47201224976936"><ele>321.0</ele><time>2026-04-05T05:27:58.999Z</time></trkpt><trkpt lat="-32.02785616341146" lon="116.47196872754921"><ele>321.0</ele><time>2026-04-05T05:27:59.999Z</time></trkpt><trkpt lat="-32.02774104898983" lon="116.47193603824884"><ele>321.0</ele><time>2026-04-05T05:28:00.999Z</time></trkpt><trkpt lat="-32.02763034636645" lon="116.47189304847215"><ele>321.0</ele><time>2026-04-05T05:28:01.999Z</time></trkpt><trkpt lat="-32.0275289852938" lon="116.47184422208355"><ele>321.0</ele><time>2026-04-05T05:28:02.999Z</time></trkpt><trkpt lat="-32.02741748665944" lon="116.47177642279394"><ele>321.0</ele><time>2026-04-05T05:28:04Z</time></trkpt><trkpt lat="-32.027286046664805" lon="116.47168033838861"><ele>321.0</ele><time>2026-04-05T05:28:05Z</time></trkpt><trkpt lat="-32.027147192003845" lon="116.47156837680339"><ele>320.0</ele><time>2026-04-05T05:28:06Z</time></trkpt><trkpt lat="-32.02699193576971" lon="116.47143325986028"><ele>319.0</ele><time>2026-04-05T05:28:07Z</time></trkpt><trkpt lat="-32.02684287837052" lon="116.47130137915225"><ele>318.0</ele><time>2026-04-05T05:28:08Z</time></trkpt><trkpt lat="-32.02670211584912" lon="116.471187274894"><ele>318.0</ele><time>2026-04-05T05:28:09Z</time></trkpt><trkpt lat="-32.026551107920426" lon="116.47108398984217"><ele>318.0</ele><time>2026-04-05T05:28:10Z</time></trkpt><trkpt lat="-32.02639855350316" lon="116.47099469860926"><ele>318.0</ele><time>2026-04-05T05:28:11Z</time></trkpt><trkpt lat="-32.02625067535963" lon="116.47092674438073"><ele>318.0</ele><time>2026-04-05T05:28:12Z</time></trkpt><trkpt lat="-32.02610705807938" lon="116.47087508697072"><ele>318.0</ele><time>2026-04-05T05:28:13Z</time></trkpt><trkpt lat="-32.025972295659564" lon="116.47084010418112"><ele>318.0</ele><time>2026-04-05T05:28:14Z</time></trkpt><trkpt lat="-32.02582216673408" lon="116.4708119329172"><ele>318.0</ele><time>2026-04-05T05:28:15Z</time></trkpt><trkpt lat="-32.025658268519" lon="116.47076921408674"><ele>316.6666666666667</ele><time>2026-04-05T05:28:16Z</time></trkpt><trkpt lat="-32.025501809970095" lon="116.47072805099513"><ele>315.33333333333337</ele><time>2026-04-05T05:28:17Z</time></trkpt><trkpt lat="-32.025350274380465" lon="116.4706941529326"><ele>314.0</ele><time>2026-04-05T05:28:18Z</time></trkpt><trkpt lat="-32.025197430369985" lon="116.47066293070264"><ele>314.0</ele><time>2026-04-05T05:28:19Z</time></trkpt><trkpt lat="-32.02503926415437" lon="116.47063354599989"><ele>314.0</ele><time>2026-04-05T05:28:20Z</time></trkpt><trkpt lat="-32.02488520756397" lon="116.47060784247327"><ele>314.0</ele><time>2026-04-05T05:28:21Z</time></trkpt><trkpt lat="-32.02472284543832" lon="116.47057187313561"><ele>314.0</ele><time>2026-04-05T05:28:22Z</time></trkpt><trkpt lat="-32.0245601333793" lon="116.47052151408097"><ele>314.0</ele><time>2026-04-05T05:28:23Z</time></trkpt><trkpt lat="-32.024412831646075" lon="116.47047205703576"><ele>314.0</ele><time>2026-04-05T05:28:24Z</time></trkpt><trkpt lat="-32.02427617412125" lon="116.47042607959243"><ele>313.5</ele><time>2026-04-05T05:28:25Z</time></trkpt><trkpt lat="-32.02414955253396" lon="116.47038438722889"><ele>313.0</ele><time>2026-04-05T05:28:26Z</time></trkpt><trkpt lat="-32.02402131897731" lon="116.47034993727375"><ele>312.5</ele><time>2026-04-05T05:28:27Z</time></trkpt><trkpt lat="-32.02389047314971" lon="116.47031935898391"><ele>312.0</ele><time>2026-04-05T05:28:28Z</time></trkpt><trkpt lat="-32.023743107315276" lon="116.4702736293012"><ele>310.3333333333333</ele><time>2026-04-05T05:28:29Z</time></trkpt><trkpt lat="-32.02358637903925" lon="116.47023438644565"><ele>308.66666666666663</ele><time>2026-04-05T05:28:30Z</time></trkpt><trkpt lat="-32.02342146938275" lon="116.47018962741942"><ele>307.0</ele><time>2026-04-05T05:28:31Z</time></trkpt><trkpt lat="-32.023275484348304" lon="116.47014847551688"><ele>305.25</ele><time>2026-04-05T05:28:32Z</time></trkpt><trkpt lat="-32.02313332574568" lon="116.47011513510834"><ele>303.5</ele><time>2026-04-05T05:28:33Z</time></trkpt><trkpt lat="-32.0230015150068" lon="116.47008030816556"><ele>301.75</ele><time>2026-04-05T05:28:34Z</time></trkpt><trkpt lat="-32.02287030001831" lon="116.47002977299842"><ele>300.0</ele><time>2026-04-05T05:28:35Z</time></trkpt><trkpt lat="-32.02273639290515" lon="116.46995784054836"><ele>300.0</ele><time>2026-04-05T05:28:36Z</time></trkpt><trkpt lat="-32.022601654951856" lon="116.46987923897795"><ele>300.0</ele><time>2026-04-05T05:28:37Z</time></trkpt><trkpt lat="-32.02246405057393" lon="116.46979061816013"><ele>300.0</ele><time>2026-04-05T05:28:38Z</time></trkpt><trkpt lat="-32.022322700654286" lon="116.46969517216198"><ele>299.3333333333333</ele><time>2026-04-05T05:28:39Z</time></trkpt><trkpt lat="-32.02218184945923" lon="116.4696020342163"><ele>298.66666666666663</ele><time>2026-04-05T05:28:40Z</time></trkpt><trkpt lat="-32.02203538861241" lon="116.46950884660974"><ele>298.0</ele><time>2026-04-05T05:28:41Z</time></trkpt><trkpt lat="-32.021891103437056" lon="116.4694256058563"><ele>298.0</ele><time>2026-04-05T05:28:42Z</time></trkpt><trkpt lat="-32.02174996123921" lon="116.46934196637577"><ele>298.0</ele><time>2026-04-05T05:28:43Z</time></trkpt><trkpt lat="-32.02160034966717" lon="116.46923074741385"><ele>298.0</ele><time>2026-04-05T05:28:44Z</time></trkpt><trkpt lat="-32.02141896348944" lon="116.46909943582787"><ele>298.66666666666663</ele><time>2026-04-05T05:28:45Z</time></trkpt><trkpt lat="-32.02122577849273" lon="116.46897662713195"><ele>299.3333333333333</ele><time>2026-04-05T05:28:46Z</time></trkpt><trkpt lat="-32.02103730520282" lon="116.46888070117333"><ele>300.0</ele><time>2026-04-05T05:28:47Z</time></trkpt><trkpt lat="-32.02086393916514" lon="116.4687847256576"><ele>300.0</ele><time>2026-04-05T05:28:48Z</time></trkpt><trkpt lat="-32.02070542088114" lon="116.46868502978495"><ele>300.0</ele><time>2026-04-05T05:28:49Z</time></trkpt><trkpt lat="-32.02054737793961" lon="116.46858799150603"><ele>300.0</ele><time>2026-04-05T05:28:50Z</time></trkpt><trkpt lat="-32.020385451527915" lon="116.46849260123234"><ele>300.0</ele><time>2026-04-05T05:28:51Z</time></trkpt><trkpt lat="-32.020232090751406" lon="116.46841337160473"><ele>300.0</ele><time>2026-04-05T05:28:52Z</time></trkpt><trkpt lat="-32.020085369405635" lon="116.46835005462933"><ele>300.0</ele><time>2026-04-05T05:28:53Z</time></trkpt><trkpt lat="-32.01993341750456" lon="116.46829932319608"><ele>300.25</ele><time>2026-04-05T05:28:54Z</time></trkpt><trkpt lat="-32.01978157772495" lon="116.46826229071827"><ele>300.5</ele><time>2026-04-05T05:28:55Z</time></trkpt><trkpt lat="-32.01963872754734" lon="116.46824775333839"><ele>300.75</ele><time>2026-04-05T05:28:56Z</time></trkpt><trkpt lat="-32.01948825138539" lon="116.46825232437646"><ele>301.0</ele><time>2026-04-05T05:28:57Z</time></trkpt><trkpt lat="-32.019348195512876" lon="116.46825718489066"><ele>301.0</ele><time>2026-04-05T05:28:57.999Z</time></trkpt><trkpt lat="-32.01921651913002" lon="116.46825464014415"><ele>301.0</ele><time>2026-04-05T05:28:58.999Z</time></trkpt><trkpt lat="-32.019086294517756" lon="116.46825619407201"><ele>301.0</ele><time>2026-04-05T05:28:59.999Z</time></trkpt><trkpt lat="-32.018962055927176" lon="116.46825049247117"><ele>301.0</ele><time>2026-04-05T05:29:00.999Z</time></trkpt><trkpt lat="-32.01882443986751" lon="116.46823732180728"><ele>299.0</ele><time>2026-04-05T05:29:01.999Z</time></trkpt><trkpt lat="-32.0186855926548" lon="116.46823099374511"><ele>297.0</ele><time>2026-04-05T05:29:02.999Z</time></trkpt><trkpt lat="-32.018566285970145" lon="116.46822309818398"><ele>295.0</ele><time>2026-04-05T05:29:03.999Z</time></trkpt><trkpt lat="-32.018450076693675" lon="116.46822156750062"><ele>293.0</ele><time>2026-04-05T05:29:04.999Z</time></trkpt><trkpt lat="-32.018326813418255" lon="116.46822399687342"><ele>292.5</ele><time>2026-04-05T05:29:05.999Z</time></trkpt><trkpt lat="-32.01817936956034" lon="116.46820742248475"><ele>292.0</ele><time>2026-04-05T05:29:06.999Z</time></trkpt><trkpt lat="-32.01802103694875" lon="116.4681917189773"><ele>291.5</ele><time>2026-04-05T05:29:07.999Z</time></trkpt><trkpt lat="-32.01788123571094" lon="116.46817653492361"><ele>291.0</ele><time>2026-04-05T05:29:08.999Z</time></trkpt><trkpt lat="-32.01775769702144" lon="116.4681565945689"><ele>291.0</ele><time>2026-04-05T05:29:09.999Z</time></trkpt><trkpt lat="-32.01764911535068" lon="116.46813658902659"><ele>291.0</ele><time>2026-04-05T05:29:10.999Z</time></trkpt><trkpt lat="-32.01754119229608" lon="116.46813257900573"><ele>291.0</ele><time>2026-04-05T05:29:11.999Z</time></trkpt><trkpt lat="-32.0174188678741" lon="116.46816123755201"><ele>291.0</ele><time>2026-04-05T05:29:12.999Z</time></trkpt><trkpt lat="-32.0172929899158" lon="116.46822334825832"><ele>290.75</ele><time>2026-04-05T05:29:13.999Z</time></trkpt><trkpt lat="-32.017160288011" lon="116.46829950759177"><ele>290.5</ele><time>2026-04-05T05:29:14.999Z</time></trkpt><trkpt lat="-32.017036710736775" lon="116.46838000525204"><ele>290.25</ele><time>2026-04-05T05:29:15.999Z</time></trkpt><trkpt lat="-32.016929080438274" lon="116.4684496219435"><ele>290.0</ele><time>2026-04-05T05:29:16.999Z</time></trkpt><trkpt lat="-32.01681604905729" lon="116.46852702791736"><ele>290.0</ele><time>2026-04-05T05:29:17.999Z</time></trkpt><trkpt lat="-32.016691082844986" lon="116.4685929391518"><ele>290.0</ele><time>2026-04-05T05:29:18.999Z</time></trkpt><trkpt lat="-32.016564784288995" lon="116.46865008515117"><ele>290.0</ele><time>2026-04-05T05:29:19.999Z</time></trkpt><trkpt lat="-32.01644814423195" lon="116.46871687711983"><ele>290.0</ele><time>2026-04-05T05:29:20.999Z</time></trkpt><trkpt lat="-32.016330412961366" lon="116.46880597872992"><ele>290.25</ele><time>2026-04-05T05:29:21.999Z</time></trkpt><trkpt lat="-32.016207999617755" lon="116.46888353770579"><ele>290.5</ele><time>2026-04-05T05:29:22.999Z</time></trkpt><trkpt lat="-32.01607668355952" lon="116.46895776648765"><ele>290.75</ele><time>2026-04-05T05:29:23.999Z</time></trkpt><trkpt lat="-32.0159490993787" lon="116.46903576521753"><ele>291.0</ele><time>2026-04-05T05:29:24.999Z</time></trkpt><trkpt lat="-32.01581437055925" lon="116.46911259047535"><ele>290.3333333333333</ele><time>2026-04-05T05:29:25.999Z</time></trkpt><trkpt lat="-32.01567382004094" lon="116.46918338100281"><ele>289.66666666666663</ele><time>2026-04-05T05:29:26.999Z</time></trkpt><trkpt lat="-32.015533258420014" lon="116.46924319184441"><ele>289.0</ele><time>2026-04-05T05:29:27.999Z</time></trkpt><trkpt lat="-32.015390216004846" lon="116.46930703428812"><ele>289.0</ele><time>2026-04-05T05:29:28.999Z</time></trkpt><trkpt lat="-32.01525354020885" lon="116.46937480343328"><ele>289.0</ele><time>2026-04-05T05:29:29.999Z</time></trkpt><trkpt lat="-32.015134947435804" lon="116.46943414171764"><ele>289.0</ele><time>2026-04-05T05:29:30.999Z</time></trkpt><trkpt lat="-32.01500778012826" lon="116.46948173801417"><ele>289.0</ele><time>2026-04-05T05:29:31.999Z</time></trkpt><trkpt lat="-32.01486068952839" lon="116.46953184110355"><ele>289.3333333333333</ele><time>2026-04-05T05:29:32.999Z</time></trkpt><trkpt lat="-32.01469413677891" lon="116.46955818014287"><ele>289.6666666666667</ele><time>2026-04-05T05:29:33.999Z</time></trkpt><trkpt lat="-32.01451713841779" lon="116.46958816533639"><ele>290.0</ele><time>2026-04-05T05:29:34.999Z</time></trkpt><trkpt lat="-32.01435790804821" lon="116.46961645878474"><ele>289.6666666666667</ele><time>2026-04-05T05:29:35.999Z</time></trkpt><trkpt lat="-32.01420499240027" lon="116.46962791970986"><ele>289.3333333333333</ele><time>2026-04-05T05:29:36.999Z</time></trkpt><trkpt lat="-32.01403788062184" lon="116.46963076704681"><ele>289.0</ele><time>2026-04-05T05:29:37.999Z</time></trkpt><trkpt lat="-32.01387488378166" lon="116.46963130569934"><ele>289.0</ele><time>2026-04-05T05:29:38.999Z</time></trkpt><trkpt lat="-32.013722671037556" lon="116.46963982286856"><ele>289.0</ele><time>2026-04-05T05:29:39.999Z</time></trkpt><trkpt lat="-32.01358859831262" lon="116.46965710003794"><ele>289.0</ele><time>2026-04-05T05:29:40.999Z</time></trkpt><trkpt lat="-32.01344838052597" lon="116.46968975953799"><ele>289.0</ele><time>2026-04-05T05:29:41.999Z</time></trkpt><trkpt lat="-32.01329142046693" lon="116.46973748304703"><ele>288.66666666666663</ele><time>2026-04-05T05:29:42.999Z</time></trkpt><trkpt lat="-32.013125934568244" lon="116.46980163021989"><ele>288.3333333333333</ele><time>2026-04-05T05:29:43.999Z</time></trkpt><trkpt lat="-32.01295256749725" lon="116.4698708571113"><ele>288.0</ele><time>2026-04-05T05:29:44.999Z</time></trkpt><trkpt lat="-32.01279784367833" lon="116.46993407852793"><ele>288.0</ele><time>2026-04-05T05:29:45.999Z</time></trkpt><trkpt lat="-32.012644428479234" lon="116.46998918921815"><ele>288.0</ele><time>2026-04-05T05:29:46.999Z</time></trkpt><trkpt lat="-32.012488807643116" lon="116.4700496994556"><ele>288.0</ele><time>2026-04-05T05:29:47.999Z</time></trkpt><trkpt lat="-32.01233823048974" lon="116.47011029353388"><ele>288.75</ele><time>2026-04-05T05:29:48.999Z</time></trkpt><trkpt lat="-32.01219870481226" lon="116.47016929956769"><ele>289.5</ele><time>2026-04-05T05:29:49.999Z</time></trkpt><trkpt lat="-32.01207162105432" lon="116.47021914463699"><ele>290.25</ele><time>2026-04-05T05:29:50.999Z</time></trkpt><trkpt lat="-32.011945423090765" lon="116.47026483189258"><ele>291.0</ele><time>2026-04-05T05:29:51.999Z</time></trkpt><trkpt lat="-32.01183052556393" lon="116.47029780019604"><ele>291.0</ele><time>2026-04-05T05:29:52.999Z</time></trkpt><trkpt lat="-32.01171737467613" lon="116.47031604710224"><ele>291.0</ele><time>2026-04-05T05:29:53.999Z</time></trkpt><trkpt lat="-32.01161316852494" lon="116.4703311112722"><ele>291.0</ele><time>2026-04-05T05:29:54.999Z</time></trkpt><trkpt lat="-32.01150642116491" lon="116.47032827843633"><ele>291.0</ele><time>2026-04-05T05:29:55.999Z</time></trkpt><trkpt lat="-32.01141108930071" lon="116.47031295618261"><ele>291.0</ele><time>2026-04-05T05:29:56.999Z</time></trkpt><trkpt lat="-32.011329230602975" lon="116.47030004975713"><ele>289.75</ele><time>2026-04-05T05:29:57.999Z</time></trkpt><trkpt lat="-32.011222080168" lon="116.47030117588791"><ele>288.5</ele><time>2026-04-05T05:29:59.999Z</time></trkpt><trkpt lat="-32.011109844884736" lon="116.47035008636892"><ele>287.25</ele><time>2026-04-05T05:30:01.999Z</time></trkpt><trkpt lat="-32.01101657675265" lon="116.4703502337011"><ele>286.0</ele><time>2026-04-05T05:30:03.999Z</time></trkpt><trkpt lat="-32.01089929969306" lon="116.47026748182157"><ele>285.25</ele><time>2026-04-05T05:30:05.999Z</time></trkpt><trkpt lat="-32.01081663239034" lon="116.47020762563865"><ele>284.5</ele><time>2026-04-05T05:30:06.999Z</time></trkpt><trkpt lat="-32.01071236657005" lon="116.47014470879427"><ele>283.75</ele><time>2026-04-05T05:30:07.999Z</time></trkpt><trkpt lat="-32.0105892553172" lon="116.47007765374177"><ele>283.0</ele><time>2026-04-05T05:30:09Z</time></trkpt><trkpt lat="-32.010473367728714" lon="116.46998435220269"><ele>283.0</ele><time>2026-04-05T05:30:10Z</time></trkpt><trkpt lat="-32.01034500612815" lon="116.46985029321806"><ele>283.0</ele><time>2026-04-05T05:30:11Z</time></trkpt><trkpt lat="-32.01020992705203" lon="116.46968900670939"><ele>283.0</ele><time>2026-04-05T05:30:12Z</time></trkpt><trkpt lat="-32.01008452277548" lon="116.46952967028312"><ele>282.3333333333333</ele><time>2026-04-05T05:30:13Z</time></trkpt><trkpt lat="-32.009948618984104" lon="116.46935592184144"><ele>281.6666666666667</ele><time>2026-04-05T05:30:14Z</time></trkpt><trkpt lat="-32.00982815697722" lon="116.46920432384053"><ele>281.0</ele><time>2026-04-05T05:30:15Z</time></trkpt><trkpt lat="-32.00970372963601" lon="116.46906748287418"><ele>281.0</ele><time>2026-04-05T05:30:16Z</time></trkpt><trkpt lat="-32.009562570799375" lon="116.46892648892806"><ele>281.0</ele><time>2026-04-05T05:30:17Z</time></trkpt><trkpt lat="-32.00941564802482" lon="116.46878853675781"><ele>281.0</ele><time>2026-04-05T05:30:18Z</time></trkpt><trkpt lat="-32.00927331527099" lon="116.46865728227345"><ele>280.6666666666667</ele><time>2026-04-05T05:30:19Z</time></trkpt><trkpt lat="-32.009139896254666" lon="116.46852920770998"><ele>280.3333333333333</ele><time>2026-04-05T05:30:20Z</time></trkpt><trkpt lat="-32.009005870140705" lon="116.46839803113494"><ele>280.0</ele><time>2026-04-05T05:30:21Z</time></trkpt><trkpt lat="-32.008879587338996" lon="116.46827883495042"><ele>280.0</ele><time>2026-04-05T05:30:22Z</time></trkpt><trkpt lat="-32.00876394441535" lon="116.46816770250938"><ele>280.0</ele><time>2026-04-05T05:30:23Z</time></trkpt><trkpt lat="-32.008649503509346" lon="116.4680643290318"><ele>280.0</ele><time>2026-04-05T05:30:24Z</time></trkpt><trkpt lat="-32.00854399033165" lon="116.46797554886516"><ele>280.0</ele><time>2026-04-05T05:30:25Z</time></trkpt><trkpt lat="-32.00844895213996" lon="116.46789373047682"><ele>280.75</ele><time>2026-04-05T05:30:26Z</time></trkpt><trkpt lat="-32.008336533409576" lon="116.46779865713344"><ele>281.5</ele><time>2026-04-05T05:30:27Z</time></trkpt><trkpt lat="-32.00823457045737" lon="116.4676965676877"><ele>282.25</ele><time>2026-04-05T05:30:28Z</time></trkpt><trkpt lat="-32.00816062326726" lon="116.46757929391504"><ele>283.0</ele><time>2026-04-05T05:30:29Z</time></trkpt><trkpt lat="-32.008085005001796" lon="116.46746209302417"><ele>281.75</ele><time>2026-04-05T05:30:30Z</time></trkpt><trkpt lat="-32.00798985681634" lon="116.46736236756806"><ele>280.5</ele><time>2026-04-05T05:30:31Z</time></trkpt><trkpt lat="-32.007904248051084" lon="116.46726780209428"><ele>279.25</ele><time>2026-04-05T05:30:32Z</time></trkpt><trkpt lat="-32.00782091374503" lon="116.46716971321307"><ele>278.0</ele><time>2026-04-05T05:30:33Z</time></trkpt><trkpt lat="-32.00774400075994" lon="116.46706450903908"><ele>278.0</ele><time>2026-04-05T05:30:34Z</time></trkpt><trkpt lat="-32.007664081208276" lon="116.46696663679903"><ele>278.0</ele><time>2026-04-05T05:30:35Z</time></trkpt><trkpt lat="-32.0075754903578" lon="116.46687007789626"><ele>278.0</ele><time>2026-04-05T05:30:36Z</time></trkpt><trkpt lat="-32.00747688355582" lon="116.46677305170395"><ele>278.0</ele><time>2026-04-05T05:30:37Z</time></trkpt><trkpt lat="-32.007390042425506" lon="116.46669719209652"><ele>277.2857142857143</ele><time>2026-04-05T05:30:38Z</time></trkpt><trkpt lat="-32.007337994999006" lon="116.46665101205392"><ele>276.57142857142856</ele><time>2026-04-05T05:30:39Z</time></trkpt><trkpt lat="-32.00730220908999" lon="116.46654784392399"><ele>275.8571428571429</ele><time>2026-04-05T05:30:42Z</time></trkpt><trkpt lat="-32.00729812607278" lon="116.46646104538375"><ele>275.1428571428571</ele><time>2026-04-05T05:31:30.999Z</time></trkpt><trkpt lat="-32.0072341294814" lon="116.46640989261"><ele>274.42857142857144</ele><time>2026-04-05T05:31:32.999Z</time></trkpt><trkpt lat="-32.00717094035067" lon="116.46640299908671"><ele>273.7142857142857</ele><time>2026-04-05T05:31:33.999Z</time></trkpt><trkpt lat="-32.00709951570271" lon="116.466388897163"><ele>273.0</ele><time>2026-04-05T05:31:34.999Z</time></trkpt><trkpt lat="-32.007034928238646" lon="116.46634996084993"><ele>273.0</ele><time>2026-04-05T05:31:35.999Z</time></trkpt><trkpt lat="-32.006952662318405" lon="116.46629419124389"><ele>273.0</ele><time>2026-04-05T05:31:36.999Z</time></trkpt><trkpt lat="-32.006868272470285" lon="116.46621356137288"><ele>273.0</ele><time>2026-04-05T05:31:37.999Z</time></trkpt><trkpt lat="-32.00679746598756" lon="116.46614620647945"><ele>273.0</ele><time>2026-04-05T05:31:38.999Z</time></trkpt><trkpt lat="-32.006728827559265" lon="116.46606844745482"><ele>273.0</ele><time>2026-04-05T05:31:39.999Z</time></trkpt><trkpt lat="-32.00665332838977" lon="116.46597980459042"><ele>273.25</ele><time>2026-04-05T05:31:40.999Z</time></trkpt><trkpt lat="-32.00657310912988" lon="116.46588506645725"><ele>273.5</ele><time>2026-04-05T05:31:41.999Z</time></trkpt><trkpt lat="-32.00648294955784" lon="116.46579048462226"><ele>273.75</ele><time>2026-04-05T05:31:42.999Z</time></trkpt><trkpt lat="-32.00638571506631" lon="116.46569469894496"><ele>274.0</ele><time>2026-04-05T05:31:43.999Z</time></trkpt><trkpt lat="-32.00629321903436" lon="116.46560882323121"><ele>274.0</ele><time>2026-04-05T05:31:44.999Z</time></trkpt><trkpt lat="-32.00619102163226" lon="116.46551873479562"><ele>274.0</ele><time>2026-04-05T05:31:45.999Z</time></trkpt><trkpt lat="-32.00607614924219" lon="116.46541819571436"><ele>274.0</ele><time>2026-04-05T05:31:46.999Z</time></trkpt><trkpt lat="-32.005924949968" lon="116.46530076019384"><ele>275.3333333333333</ele><time>2026-04-05T05:31:47.999Z</time></trkpt><trkpt lat="-32.00576810631826" lon="116.4651893477439"><ele>276.6666666666667</ele><time>2026-04-05T05:31:48.999Z</time></trkpt><trkpt lat="-32.00562468791785" lon="116.46509265729202"><ele>278.0</ele><time>2026-04-05T05:31:49.999Z</time></trkpt><trkpt lat="-32.00546838970576" lon="116.464988925615"><ele>278.0</ele><time>2026-04-05T05:31:50.999Z</time></trkpt><trkpt lat="-32.005312007039045" lon="116.46488552075994"><ele>278.0</ele><time>2026-04-05T05:31:51.999Z</time></trkpt><trkpt lat="-32.0051399986016" lon="116.46478043125701"><ele>278.0</ele><time>2026-04-05T05:31:52.999Z</time></trkpt><trkpt lat="-32.0049510802818" lon="116.46468191762277"><ele>276.33333333333337</ele><time>2026-04-05T05:31:53.999Z</time></trkpt><trkpt lat="-32.00475541304732" lon="116.46458333279989"><ele>274.6666666666667</ele><time>2026-04-05T05:31:54.999Z</time></trkpt><trkpt lat="-32.004573395699005" lon="116.46448938144786"><ele>273.0</ele><time>2026-04-05T05:31:55.999Z</time></trkpt><trkpt lat="-32.00439821322124" lon="116.46439811026629"><ele>273.0</ele><time>2026-04-05T05:31:56.999Z</time></trkpt><trkpt lat="-32.004223985135276" lon="116.46431084118825"><ele>273.0</ele><time>2026-04-05T05:31:57.999Z</time></trkpt><trkpt lat="-32.00406051402226" lon="116.46422461497586"><ele>273.0</ele><time>2026-04-05T05:31:58.999Z</time></trkpt><trkpt lat="-32.003913319112236" lon="116.46414919148175"><ele>273.6666666666667</ele><time>2026-04-05T05:31:59.999Z</time></trkpt><trkpt lat="-32.00376521530887" lon="116.46406870532005"><ele>274.33333333333337</ele><time>2026-04-05T05:32:00.999Z</time></trkpt><trkpt lat="-32.003610143308556" lon="116.46397669266202"><ele>275.0</ele><time>2026-04-05T05:32:01.999Z</time></trkpt><trkpt lat="-32.00345251171015" lon="116.46387107803211"><ele>273.33333333333337</ele><time>2026-04-05T05:32:02.999Z</time></trkpt><trkpt lat="-32.00329721553357" lon="116.46375662481302"><ele>271.6666666666667</ele><time>2026-04-05T05:32:03.999Z</time></trkpt><trkpt lat="-32.0031477617363" lon="116.46365193020455"><ele>270.0</ele><time>2026-04-05T05:32:04.999Z</time></trkpt><trkpt lat="-32.00298316659016" lon="116.46354439702024"><ele>270.0</ele><time>2026-04-05T05:32:05.999Z</time></trkpt><trkpt lat="-32.00281725188633" lon="116.46343127345008"><ele>270.0</ele><time>2026-04-05T05:32:06.999Z</time></trkpt><trkpt lat="-32.00265636383964" lon="116.46332503551797"><ele>270.0</ele><time>2026-04-05T05:32:07.999Z</time></trkpt><trkpt lat="-32.00250411866351" lon="116.46322439090424"><ele>270.0</ele><time>2026-04-05T05:32:08.999Z</time></trkpt><trkpt lat="-32.00235709128469" lon="116.46312853374029"><ele>270.0</ele><time>2026-04-05T05:32:09.999Z</time></trkpt><trkpt lat="-32.002210822825425" lon="116.46303231162315"><ele>270.0</ele><time>2026-04-05T05:32:10.999Z</time></trkpt><trkpt lat="-32.002062896173555" lon="116.46293681105111"><ele>270.0</ele><time>2026-04-05T05:32:11.999Z</time></trkpt><trkpt lat="-32.001917749802615" lon="116.46283931248655"><ele>270.0</ele><time>2026-04-05T05:32:12.999Z</time></trkpt><trkpt lat="-32.00179251081904" lon="116.46276162601013"><ele>270.0</ele><time>2026-04-05T05:32:13.999Z</time></trkpt><trkpt lat="-32.001667677073776" lon="116.46267965702648"><ele>270.75</ele><time>2026-04-05T05:32:15Z</time></trkpt><trkpt lat="-32.001547957898" lon="116.46260834564013"><ele>271.5</ele><time>2026-04-05T05:32:16Z</time></trkpt><trkpt lat="-32.001411346283454" lon="116.46253657406378"><ele>272.25</ele><time>2026-04-05T05:32:17Z</time></trkpt><trkpt lat="-32.001281935839806" lon="116.46248314799635"><ele>273.0</ele><time>2026-04-05T05:32:18Z</time></trkpt><trkpt lat="-32.00113696644668" lon="116.46243450646831"><ele>273.0</ele><time>2026-04-05T05:32:19Z</time></trkpt><trkpt lat="-32.00098986229113" lon="116.46240303420828"><ele>273.0</ele><time>2026-04-05T05:32:20Z</time></trkpt><trkpt lat="-32.00083526214895" lon="116.46238341597825"><ele>273.0</ele><time>2026-04-05T05:32:21Z</time></trkpt><trkpt lat="-32.00067234009636" lon="116.46237452573924"><ele>271.0</ele><time>2026-04-05T05:32:22Z</time></trkpt><trkpt lat="-32.00050135419363" lon="116.46236717621696"><ele>269.0</ele><time>2026-04-05T05:32:23Z</time></trkpt><trkpt lat="-32.0003422053316" lon="116.46236447560165"><ele>267.0</ele><time>2026-04-05T05:32:24Z</time></trkpt><trkpt lat="-32.000179453288354" lon="116.46236728689502"><ele>267.0</ele><time>2026-04-05T05:32:25Z</time></trkpt><trkpt lat="-32.00002173649667" lon="116.46238346252834"><ele>267.0</ele><time>2026-04-05T05:32:26Z</time></trkpt><trkpt lat="-31.999857021326143" lon="116.46241034192599"><ele>267.0</ele><time>2026-04-05T05:32:27Z</time></trkpt><trkpt lat="-31.99965930079026" lon="116.46242862917627"><ele>267.0</ele><time>2026-04-05T05:32:28Z</time></trkpt><trkpt lat="-31.99946475374429" lon="116.4624464716163"><ele>267.0</ele><time>2026-04-05T05:32:29Z</time></trkpt><trkpt lat="-31.99928061136375" lon="116.46248580927441"><ele>267.0</ele><time>2026-04-05T05:32:30Z</time></trkpt><trkpt lat="-31.999076138305497" lon="116.46253346420849"><ele>266.0</ele><time>2026-04-05T05:32:31Z</time></trkpt><trkpt lat="-31.998863635508616" lon="116.46258381245006"><ele>265.0</ele><time>2026-04-05T05:32:32Z</time></trkpt><trkpt lat="-31.99866835753815" lon="116.46263185571226"><ele>264.0</ele><time>2026-04-05T05:32:33Z</time></trkpt><trkpt lat="-31.99849870010587" lon="116.4626845699439"><ele>264.3333333333333</ele><time>2026-04-05T05:32:34Z</time></trkpt><trkpt lat="-31.998316969037287" lon="116.46274170533839"><ele>264.66666666666663</ele><time>2026-04-05T05:32:35Z</time></trkpt><trkpt lat="-31.99812588230986" lon="116.46279251775299"><ele>265.0</ele><time>2026-04-05T05:32:36Z</time></trkpt><trkpt lat="-31.99793473692693" lon="116.46284854894348"><ele>265.0</ele><time>2026-04-05T05:32:37Z</time></trkpt><trkpt lat="-31.997759007748765" lon="116.46290987479384"><ele>265.0</ele><time>2026-04-05T05:32:38Z</time></trkpt><trkpt lat="-31.997593931200445" lon="116.4629618273061"><ele>265.0</ele><time>2026-04-05T05:32:39Z</time></trkpt><trkpt lat="-31.997442520652783" lon="116.46300869049348"><ele>265.5</ele><time>2026-04-05T05:32:40Z</time></trkpt><trkpt lat="-31.997314201168503" lon="116.46305174606542"><ele>266.0</ele><time>2026-04-05T05:32:41Z</time></trkpt><trkpt lat="-31.997202234825295" lon="116.46308673426557"><ele>266.5</ele><time>2026-04-05T05:32:42Z</time></trkpt><trkpt lat="-31.99709799948966" lon="116.46312425584027"><ele>267.0</ele><time>2026-04-05T05:32:43Z</time></trkpt><trkpt lat="-31.996994567002638" lon="116.46316129202289"><ele>267.0</ele><time>2026-04-05T05:32:44Z</time></trkpt><trkpt lat="-31.996891261485597" lon="116.46318961377746"><ele>267.0</ele><time>2026-04-05T05:32:45Z</time></trkpt><trkpt lat="-31.99677295425035" lon="116.46321531492458"><ele>267.0</ele><time>2026-04-05T05:32:46Z</time></trkpt><trkpt lat="-31.99663861381415" lon="116.4632367603218"><ele>267.0</ele><time>2026-04-05T05:32:47Z</time></trkpt><trkpt lat="-31.9965065842506" lon="116.46325200889356"><ele>266.75</ele><time>2026-04-05T05:32:48Z</time></trkpt><trkpt lat="-31.99637604255835" lon="116.46325733566891"><ele>266.5</ele><time>2026-04-05T05:32:49Z</time></trkpt><trkpt lat="-31.99623981476997" lon="116.46325467718393"><ele>266.25</ele><time>2026-04-05T05:32:50Z</time></trkpt><trkpt lat="-31.99609791599895" lon="116.46325402200664"><ele>266.0</ele><time>2026-04-05T05:32:51Z</time></trkpt><trkpt lat="-31.995952088186417" lon="116.46325646325039"><ele>266.0</ele><time>2026-04-05T05:32:52Z</time></trkpt><trkpt lat="-31.99582349963598" lon="116.46325718694712"><ele>266.0</ele><time>2026-04-05T05:32:53Z</time></trkpt><trkpt lat="-31.99570420379117" lon="116.46326206277502"><ele>266.0</ele><time>2026-04-05T05:32:54Z</time></trkpt><trkpt lat="-31.995576347805944" lon="116.46326821768587"><ele>266.0</ele><time>2026-04-05T05:32:55Z</time></trkpt><trkpt lat="-31.995437632440098" lon="116.46326945322511"><ele>266.0</ele><time>2026-04-05T05:32:56Z</time></trkpt><trkpt lat="-31.995296675703806" lon="116.46326945364244"><ele>266.0</ele><time>2026-04-05T05:32:57Z</time></trkpt><trkpt lat="-31.99514632965797" lon="116.46327157765676"><ele>266.0</ele><time>2026-04-05T05:32:58Z</time></trkpt><trkpt lat="-31.99499675202871" lon="116.46328407467334"><ele>266.0</ele><time>2026-04-05T05:32:59Z</time></trkpt><trkpt lat="-31.99484944732068" lon="116.46329901109524"><ele>266.0</ele><time>2026-04-05T05:33:00Z</time></trkpt><trkpt lat="-31.994694111608265" lon="116.46332497842327"><ele>266.0</ele><time>2026-04-05T05:33:01Z</time></trkpt><trkpt lat="-31.994533540977123" lon="116.46335295185882"><ele>266.0</ele><time>2026-04-05T05:33:02Z</time></trkpt><trkpt lat="-31.99437928049346" lon="116.46337708987677"><ele>266.0</ele><time>2026-04-05T05:33:03Z</time></trkpt><trkpt lat="-31.994214703971465" lon="116.46340108018047"><ele>266.0</ele><time>2026-04-05T05:33:04Z</time></trkpt><trkpt lat="-31.99405716303603" lon="116.46341206316323"><ele>266.0</ele><time>2026-04-05T05:33:05Z</time></trkpt><trkpt lat="-31.993899959646544" lon="116.46341379828588"><ele>266.25</ele><time>2026-04-05T05:33:06Z</time></trkpt><trkpt lat="-31.993742951279803" lon="116.46340530892853"><ele>266.5</ele><time>2026-04-05T05:33:07Z</time></trkpt><trkpt lat="-31.993590451258623" lon="116.46338447711122"><ele>266.75</ele><time>2026-04-05T05:33:08Z</time></trkpt><trkpt lat="-31.99345428948866" lon="116.46335787083099"><ele>267.0</ele><time>2026-04-05T05:33:09Z</time></trkpt><trkpt lat="-31.993329280560687" lon="116.46331700142676"><ele>267.75</ele><time>2026-04-05T05:33:10Z</time></trkpt><trkpt lat="-31.99320468428491" lon="116.46327393158019"><ele>268.5</ele><time>2026-04-05T05:33:11Z</time></trkpt><trkpt lat="-31.993079207093103" lon="116.46321519899263"><ele>269.25</ele><time>2026-04-05T05:33:12Z</time></trkpt><trkpt lat="-31.992939185875088" lon="116.46314616679868"><ele>270.0</ele><time>2026-04-05T05:33:13Z</time></trkpt><trkpt lat="-31.992779716244762" lon="116.46305447496489"><ele>270.0</ele><time>2026-04-05T05:33:14Z</time></trkpt><trkpt lat="-31.992643061263042" lon="116.46296600820162"><ele>270.0</ele><time>2026-04-05T05:33:15Z</time></trkpt><trkpt lat="-31.992499158283163" lon="116.46284926788306"><ele>270.0</ele><time>2026-04-05T05:33:16Z</time></trkpt><trkpt lat="-31.99237121694689" lon="116.46274373912225"><ele>270.6666666666667</ele><time>2026-04-05T05:33:17Z</time></trkpt><trkpt lat="-31.99225419013809" lon="116.4626519581208"><ele>271.33333333333337</ele><time>2026-04-05T05:33:18Z</time></trkpt><trkpt lat="-31.99212806770268" lon="116.46255078568521"><ele>272.0</ele><time>2026-04-05T05:33:19Z</time></trkpt><trkpt lat="-31.991992325206752" lon="116.46242351419102"><ele>272.0</ele><time>2026-04-05T05:33:20Z</time></trkpt><trkpt lat="-31.991854733896268" lon="116.46227702251217"><ele>272.0</ele><time>2026-04-05T05:33:21Z</time></trkpt><trkpt lat="-31.991725590775346" lon="116.46214474879882"><ele>272.0</ele><time>2026-04-05T05:33:21.999Z</time></trkpt><trkpt lat="-31.991599475943993" lon="116.4620306458959"><ele>270.6666666666667</ele><time>2026-04-05T05:33:22.999Z</time></trkpt><trkpt lat="-31.99147101140857" lon="116.46191497400909"><ele>269.3333333333333</ele><time>2026-04-05T05:33:23.999Z</time></trkpt><trkpt lat="-31.991354270887136" lon="116.46180630159854"><ele>268.0</ele><time>2026-04-05T05:33:24.999Z</time></trkpt><trkpt lat="-31.991239207373198" lon="116.4617007763134"><ele>268.0</ele><time>2026-04-05T05:33:25.999Z</time></trkpt><trkpt lat="-31.99111235647046" lon="116.46160495969545"><ele>268.0</ele><time>2026-04-05T05:33:26.999Z</time></trkpt><trkpt lat="-31.99096005613781" lon="116.46150499298457"><ele>268.0</ele><time>2026-04-05T05:33:27.999Z</time></trkpt><trkpt lat="-31.990797096861094" lon="116.4614005372693"><ele>268.66666666666663</ele><time>2026-04-05T05:33:28.999Z</time></trkpt><trkpt lat="-31.99061273091222" lon="116.46129019628515"><ele>269.3333333333333</ele><time>2026-04-05T05:33:29.999Z</time></trkpt><trkpt lat="-31.990437740383612" lon="116.46119203554113"><ele>270.0</ele><time>2026-04-05T05:33:30.999Z</time></trkpt><trkpt lat="-31.990275753461457" lon="116.46110521389434"><ele>270.0</ele><time>2026-04-05T05:33:31.999Z</time></trkpt><trkpt lat="-31.990115386249585" lon="116.46102352086245"><ele>270.0</ele><time>2026-04-05T05:33:32.999Z</time></trkpt><trkpt lat="-31.989958776883405" lon="116.4609487886502"><ele>270.0</ele><time>2026-04-05T05:33:33.999Z</time></trkpt><trkpt lat="-31.989818012646204" lon="116.46089643135595"><ele>270.2</ele><time>2026-04-05T05:33:34.999Z</time></trkpt><trkpt lat="-31.98969316003526" lon="116.46086511693873"><ele>270.4</ele><time>2026-04-05T05:33:35.999Z</time></trkpt><trkpt lat="-31.989588893030533" lon="116.46084977882744"><ele>270.6</ele><time>2026-04-05T05:33:36.999Z</time></trkpt><trkpt lat="-31.98949265772985" lon="116.4608540954816"><ele>270.8</ele><time>2026-04-05T05:33:37.999Z</time></trkpt><trkpt lat="-31.989413436574406" lon="116.46087102414796"><ele>271.0</ele><time>2026-04-05T05:33:38.999Z</time></trkpt><trkpt lat="-31.989339756365702" lon="116.46090142844179"><ele>271.0</ele><time>2026-04-05T05:33:39.999Z</time></trkpt><trkpt lat="-31.989244652952635" lon="116.46091084783562"><ele>271.0</ele><time>2026-04-05T05:33:41.999Z</time></trkpt><trkpt lat="-31.98918109819545" lon="116.46086966052121"><ele>271.0</ele><time>2026-04-05T05:33:43.999Z</time></trkpt><trkpt lat="-31.989162299684523" lon="116.46078008434331"><ele>271.0</ele><time>2026-04-05T05:34:28Z</time></trkpt><trkpt lat="-31.98917718611034" lon="116.46067884637111"><ele>271.0</ele><time>2026-04-05T05:34:30Z</time></trkpt><trkpt lat="-31.989200796875092" lon="116.46060712395331"><ele>271.0</ele><time>2026-04-05T05:34:31Z</time></trkpt><trkpt lat="-31.989226914256722" lon="116.46051580989386"><ele>270.8333333333333</ele><time>2026-04-05T05:34:32Z</time></trkpt><trkpt lat="-31.989248921956303" lon="116.46041898193283"><ele>270.66666666666663</ele><time>2026-04-05T05:34:33Z</time></trkpt><trkpt lat="-31.989269506689848" lon="116.46030614489365"><ele>270.5</ele><time>2026-04-05T05:34:34Z</time></trkpt><trkpt lat="-31.989288180681267" lon="116.46019944562211"><ele>270.3333333333333</ele><time>2026-04-05T05:34:35Z</time></trkpt><trkpt lat="-31.989308446493627" lon="116.46010195771079"><ele>270.1666666666667</ele><time>2026-04-05T05:34:36Z</time></trkpt><trkpt lat="-31.989335521674857" lon="116.4600195367712"><ele>270.0</ele><time>2026-04-05T05:34:37Z</time></trkpt><trkpt lat="-31.98937182545416" lon="116.4599580106274"><ele>270.0</ele><time>2026-04-05T05:34:38Z</time></trkpt><trkpt lat="-31.989414654421605" lon="116.45989107712779"><ele>270.0</ele><time>2026-04-05T05:34:39Z</time></trkpt><trkpt lat="-31.989453240382385" lon="116.4598287112855"><ele>270.0</ele><time>2026-04-05T05:34:40Z</time></trkpt><trkpt lat="-31.989497523035794" lon="116.45975745641236"><ele>270.0</ele><time>2026-04-05T05:34:41Z</time></trkpt><trkpt lat="-31.98955271996229" lon="116.45967153649205"><ele>270.0</ele><time>2026-04-05T05:34:42Z</time></trkpt><trkpt lat="-31.989619476213946" lon="116.45957516233267"><ele>270.0</ele><time>2026-04-05T05:34:43Z</time></trkpt><trkpt lat="-31.98967621718404" lon="116.45948838556106"><ele>270.3333333333333</ele><time>2026-04-05T05:34:44Z</time></trkpt><trkpt lat="-31.989725389411788" lon="116.45942000570447"><ele>270.6666666666667</ele><time>2026-04-05T05:34:45Z</time></trkpt><trkpt lat="-31.989779700010047" lon="116.4593570688163"><ele>271.0</ele><time>2026-04-05T05:34:46Z</time></trkpt><trkpt lat="-31.989842609576293" lon="116.45930700401642"><ele>271.33333333333337</ele><time>2026-04-05T05:34:47Z</time></trkpt><trkpt lat="-31.98992055765002" lon="116.4592739491961"><ele>271.6666666666667</ele><time>2026-04-05T05:34:48Z</time></trkpt><trkpt lat="-31.99000223334488" lon="116.45925503967173"><ele>272.0</ele><time>2026-04-05T05:34:49Z</time></trkpt><trkpt lat="-31.99007774675676" lon="116.45922901940789"><ele>271.2</ele><time>2026-04-05T05:34:50Z</time></trkpt><trkpt lat="-31.99015161893689" lon="116.45919584270865"><ele>270.4</ele><time>2026-04-05T05:34:51Z</time></trkpt><trkpt lat="-31.990224889082743" lon="116.45913994617312"><ele>269.6</ele><time>2026-04-05T05:34:52Z</time></trkpt><trkpt lat="-31.99028975284105" lon="116.4590641121279"><ele>268.8</ele><time>2026-04-05T05:34:53Z</time></trkpt><trkpt lat="-31.99032851321656" lon="116.45897029807526"><ele>268.0</ele><time>2026-04-05T05:34:54Z</time></trkpt><trkpt lat="-31.990363278842562" lon="116.45884644537593"><ele>268.5</ele><time>2026-04-05T05:34:55Z</time></trkpt><trkpt lat="-31.990402897947348" lon="116.45870632665338"><ele>269.0</ele><time>2026-04-05T05:34:56Z</time></trkpt><trkpt lat="-31.990450508428815" lon="116.45858727924056"><ele>269.5</ele><time>2026-04-05T05:34:57Z</time></trkpt><trkpt lat="-31.990499738081564" lon="116.45844845660491"><ele>270.0</ele><time>2026-04-05T05:34:58Z</time></trkpt><trkpt lat="-31.99053180346445" lon="116.45828943958307"><ele>270.0</ele><time>2026-04-05T05:34:59Z</time></trkpt><trkpt lat="-31.990543022518803" lon="116.45812578324116"><ele>270.0</ele><time>2026-04-05T05:35:00Z</time></trkpt><trkpt lat="-31.990545318434858" lon="116.45796498711519"><ele>270.0</ele><time>2026-04-05T05:35:01Z</time></trkpt><trkpt lat="-31.990535057652945" lon="116.45779713625488"><ele>270.0</ele><time>2026-04-05T05:35:02Z</time></trkpt><trkpt lat="-31.99053253131283" lon="116.45763762827261"><ele>269.5</ele><time>2026-04-05T05:35:03Z</time></trkpt><trkpt lat="-31.990535410627444" lon="116.45749137644869"><ele>269.0</ele><time>2026-04-05T05:35:04Z</time></trkpt><trkpt lat="-31.990536371061264" lon="116.45735885640131"><ele>268.5</ele><time>2026-04-05T05:35:05Z</time></trkpt><trkpt lat="-31.990536607646266" lon="116.45721654089937"><ele>268.0</ele><time>2026-04-05T05:35:05.999Z</time></trkpt><trkpt lat="-31.990528673266727" lon="116.45706957241784"><ele>267.2</ele><time>2026-04-05T05:35:06.999Z</time></trkpt><trkpt lat="-31.990521788096903" lon="116.45691917108917"><ele>266.4</ele><time>2026-04-05T05:35:07.999Z</time></trkpt><trkpt lat="-31.990515880183555" lon="116.45678773604529"><ele>265.59999999999997</ele><time>2026-04-05T05:35:08.999Z</time></trkpt><trkpt lat="-31.990513069841082" lon="116.45666572734754"><ele>264.8</ele><time>2026-04-05T05:35:09.999Z</time></trkpt><trkpt lat="-31.990512567870407" lon="116.45656243079898"><ele>264.0</ele><time>2026-04-05T05:35:10.999Z</time></trkpt><trkpt lat="-31.99050683823796" lon="116.45646850034535"><ele>264.0</ele><time>2026-04-05T05:35:11.999Z</time></trkpt><trkpt lat="-31.990507846383803" lon="116.45638316893844"><ele>264.0</ele><time>2026-04-05T05:35:12.999Z</time></trkpt><trkpt lat="-31.99053761245735" lon="116.45623275853009"><ele>264.0</ele><time>2026-04-05T05:35:14.999Z</time></trkpt><trkpt lat="-31.99055697440974" lon="116.45614713094838"><ele>264.0</ele><time>2026-04-05T05:35:15.999Z</time></trkpt><trkpt lat="-31.990562412269895" lon="116.45605884315634"><ele>264.0</ele><time>2026-04-05T05:35:16.999Z</time></trkpt><trkpt lat="-31.990562140758655" lon="116.45595854887097"><ele>264.0</ele><time>2026-04-05T05:35:17.999Z</time></trkpt><trkpt lat="-31.9905619565697" lon="116.45586212226765"><ele>263.8333333333333</ele><time>2026-04-05T05:35:18.999Z</time></trkpt><trkpt lat="-31.99057371936559" lon="116.45576349505214"><ele>263.6666666666667</ele><time>2026-04-05T05:35:19.999Z</time></trkpt><trkpt lat="-31.990590157015824" lon="116.45565730013811"><ele>263.5</ele><time>2026-04-05T05:35:20.999Z</time></trkpt><trkpt lat="-31.99059411061772" lon="116.45557918876099"><ele>263.33333333333337</ele><time>2026-04-05T05:35:21.999Z</time></trkpt><trkpt lat="-31.990570613012128" lon="116.45543601259591"><ele>263.1666666666667</ele><time>2026-04-05T05:35:23.999Z</time></trkpt><trkpt lat="-31.990522774205033" lon="116.45537141994774"><ele>263.0</ele><time>2026-04-05T05:35:24.999Z</time></trkpt><trkpt lat="-31.990464937689463" lon="116.45528904323304"><ele>262.5</ele><time>2026-04-05T05:35:25.999Z</time></trkpt><trkpt lat="-31.990425060917968" lon="116.45519489402497"><ele>262.0</ele><time>2026-04-05T05:35:26.999Z</time></trkpt><trkpt lat="-31.990399652054595" lon="116.45507983629992"><ele>261.5</ele><time>2026-04-05T05:35:27.999Z</time></trkpt><trkpt lat="-31.99037743493489" lon="116.45493690542152"><ele>261.0</ele><time>2026-04-05T05:35:28.999Z</time></trkpt><trkpt lat="-31.99034799145885" lon="116.45476994957848"><ele>261.5</ele><time>2026-04-05T05:35:29.999Z</time></trkpt><trkpt lat="-31.99032056193541" lon="116.45460276187293"><ele>262.0</ele><time>2026-04-05T05:35:30.999Z</time></trkpt><trkpt lat="-31.990303852859945" lon="116.45446182727737"><ele>262.5</ele><time>2026-04-05T05:35:31.999Z</time></trkpt><trkpt lat="-31.99027792193383" lon="116.45431855193588"><ele>263.0</ele><time>2026-04-05T05:35:32.999Z</time></trkpt><trkpt lat="-31.9902479377234" lon="116.45416428252173"><ele>263.0</ele><time>2026-04-05T05:35:33.999Z</time></trkpt><trkpt lat="-31.99021445265835" lon="116.4540048440242"><ele>263.0</ele><time>2026-04-05T05:35:34.999Z</time></trkpt><trkpt lat="-31.990186758743626" lon="116.4538618378073"><ele>263.0</ele><time>2026-04-05T05:35:35.999Z</time></trkpt><trkpt lat="-31.990165955742782" lon="116.45373953994662"><ele>263.0</ele><time>2026-04-05T05:35:36.999Z</time></trkpt><trkpt lat="-31.99014602015001" lon="116.4536175936183"><ele>263.8</ele><time>2026-04-05T05:35:37.999Z</time></trkpt><trkpt lat="-31.99013316951093" lon="116.45348707532416"><ele>264.6</ele><time>2026-04-05T05:35:38.999Z</time></trkpt><trkpt lat="-31.99013118225289" lon="116.45335922234226"><ele>265.4</ele><time>2026-04-05T05:35:39.999Z</time></trkpt><trkpt lat="-31.990137464796067" lon="116.45323228468963"><ele>266.2</ele><time>2026-04-05T05:35:40.999Z</time></trkpt><trkpt lat="-31.990136116911952" lon="116.45313474260176"><ele>267.0</ele><time>2026-04-05T05:35:41.999Z</time></trkpt><trkpt lat="-31.99012052971467" lon="116.45305306452862"><ele>267.0</ele><time>2026-04-05T05:35:42.999Z</time></trkpt><trkpt lat="-31.990090318509214" lon="116.45297091124904"><ele>267.0</ele><time>2026-04-05T05:35:43.999Z</time></trkpt><trkpt lat="-31.99004790835053" lon="116.45291421507909"><ele>267.0</ele><time>2026-04-05T05:35:44.999Z</time></trkpt><trkpt lat="-31.98998731185791" lon="116.45286834405383"><ele>267.0</ele><time>2026-04-05T05:35:45.999Z</time></trkpt><trkpt lat="-31.989924045768294" lon="116.45283547253528"><ele>267.0</ele><time>2026-04-05T05:35:46.999Z</time></trkpt><trkpt lat="-31.989863946634525" lon="116.45271403250405"><ele>267.0</ele><time>2026-04-05T05:35:48.999Z</time></trkpt><trkpt lat="-31.989844849691853" lon="116.45261833989375"><ele>266.5</ele><time>2026-04-05T05:35:49.999Z</time></trkpt><trkpt lat="-31.989821643276578" lon="116.45251162163325"><ele>266.0</ele><time>2026-04-05T05:35:50.999Z</time></trkpt><trkpt lat="-31.98980403653085" lon="116.45240882541354"><ele>265.5</ele><time>2026-04-05T05:35:51.999Z</time></trkpt><trkpt lat="-31.989793033583137" lon="116.45231067597761"><ele>265.0</ele><time>2026-04-05T05:35:52.999Z</time></trkpt><trkpt lat="-31.989790320618987" lon="116.45220915524632"><ele>264.5</ele><time>2026-04-05T05:35:53.999Z</time></trkpt><trkpt lat="-31.989798266756896" lon="116.45212222243448"><ele>264.0</ele><time>2026-04-05T05:35:54.999Z</time></trkpt><trkpt lat="-31.989794268697732" lon="116.45203740934285"><ele>264.0</ele><time>2026-04-05T05:35:55.999Z</time></trkpt><trkpt lat="-31.98976114139141" lon="116.45195978982098"><ele>264.0</ele><time>2026-04-05T05:35:56.999Z</time></trkpt><trkpt lat="-31.989707316679365" lon="116.45188651797935"><ele>264.0</ele><time>2026-04-05T05:35:58Z</time></trkpt><trkpt lat="-31.98964619923602" lon="116.45182780318667"><ele>264.0</ele><time>2026-04-05T05:35:59Z</time></trkpt><trkpt lat="-31.989582729837256" lon="116.45179788807515"><ele>264.0</ele><time>2026-04-05T05:36:00Z</time></trkpt><trkpt lat="-31.98951678348655" lon="116.4518079107773"><ele>264.0</ele><time>2026-04-05T05:36:01Z</time></trkpt><trkpt lat="-31.989453920682532" lon="116.45185232780263"><ele>264.0</ele><time>2026-04-05T05:36:02Z</time></trkpt><trkpt lat="-31.98938725940501" lon="116.45192318591864"><ele>264.0</ele><time>2026-04-05T05:36:03Z</time></trkpt><trkpt lat="-31.98930310628759" lon="116.45201376006777"><ele>264.0</ele><time>2026-04-05T05:36:04Z</time></trkpt><trkpt lat="-31.989207852787338" lon="116.45207441972822"><ele>264.0</ele><time>2026-04-05T05:36:05Z</time></trkpt><trkpt lat="-31.989117961239288" lon="116.45210924971428"><ele>264.0</ele><time>2026-04-05T05:36:06Z</time></trkpt><trkpt lat="-31.989036273342467" lon="116.45213518471262"><ele>264.0</ele><time>2026-04-05T05:36:07Z</time></trkpt><trkpt lat="-31.988942905049452" lon="116.45214704810586"><ele>263.59999999999997</ele><time>2026-04-05T05:36:08Z</time></trkpt><trkpt lat="-31.988837457109213" lon="116.45213148037466"><ele>263.2</ele><time>2026-04-05T05:36:09Z</time></trkpt><trkpt lat="-31.988738489949224" lon="116.45210943355994"><ele>262.79999999999995</ele><time>2026-04-05T05:36:10Z</time></trkpt><trkpt lat="-31.98864322652966" lon="116.45208413626935"><ele>262.4</ele><time>2026-04-05T05:36:11Z</time></trkpt><trkpt lat="-31.988547904857583" lon="116.45206211883438"><ele>262.0</ele><time>2026-04-05T05:36:12Z</time></trkpt><trkpt lat="-31.988454681897192" lon="116.45203779272407"><ele>262.0</ele><time>2026-04-05T05:36:13Z</time></trkpt><trkpt lat="-31.988353606867108" lon="116.45199616321501"><ele>262.0</ele><time>2026-04-05T05:36:14Z</time></trkpt><trkpt lat="-31.98825653272618" lon="116.45192910737104"><ele>262.0</ele><time>2026-04-05T05:36:15Z</time></trkpt><trkpt lat="-31.98816483870872" lon="116.45184049009315"><ele>262.0</ele><time>2026-04-05T05:36:16Z</time></trkpt><trkpt lat="-31.98806793901247" lon="116.45174346546337"><ele>261.75</ele><time>2026-04-05T05:36:17Z</time></trkpt><trkpt lat="-31.987958116404343" lon="116.45165443796893"><ele>261.5</ele><time>2026-04-05T05:36:18Z</time></trkpt><trkpt lat="-31.987850336464415" lon="116.45158357952239"><ele>261.25</ele><time>2026-04-05T05:36:19Z</time></trkpt><trkpt lat="-31.98774542963455" lon="116.45151332263899"><ele>261.0</ele><time>2026-04-05T05:36:20Z</time></trkpt><trkpt lat="-31.98762863674445" lon="116.4514256252805"><ele>261.0</ele><time>2026-04-05T05:36:21Z</time></trkpt><trkpt lat="-31.987516763163253" lon="116.45132021433393"><ele>261.0</ele><time>2026-04-05T05:36:22Z</time></trkpt><trkpt lat="-31.9874185691337" lon="116.45121528308042"><ele>261.0</ele><time>2026-04-05T05:36:23Z</time></trkpt><trkpt lat="-31.98732142622324" lon="116.45110289754214"><ele>261.0</ele><time>2026-04-05T05:36:24Z</time></trkpt><trkpt lat="-31.987219462103084" lon="116.45098474316076"><ele>261.0</ele><time>2026-04-05T05:36:25Z</time></trkpt><trkpt lat="-31.98712548916491" lon="116.45088156244456"><ele>261.0</ele><time>2026-04-05T05:36:26Z</time></trkpt><trkpt lat="-31.987029975749834" lon="116.45079203903987"><ele>261.0</ele><time>2026-04-05T05:36:27.001Z</time></trkpt><trkpt lat="-31.986933387636448" lon="116.45070701863654"><ele>261.0</ele><time>2026-04-05T05:36:28.001Z</time></trkpt><trkpt lat="-31.98683687086055" lon="116.45063154182768"><ele>261.0</ele><time>2026-04-05T05:36:29.001Z</time></trkpt><trkpt lat="-31.98674570898346" lon="116.45056351035747"><ele>261.0</ele><time>2026-04-05T05:36:30.001Z</time></trkpt><trkpt lat="-31.98664767701429" lon="116.45049770759763"><ele>261.0</ele><time>2026-04-05T05:36:31.001Z</time></trkpt><trkpt lat="-31.986557059244625" lon="116.45043357662885"><ele>261.0</ele><time>2026-04-05T05:36:32.001Z</time></trkpt><trkpt lat="-31.986489943498732" lon="116.45036547411381"><ele>261.0</ele><time>2026-04-05T05:36:33.001Z</time></trkpt><trkpt lat="-31.986442305328648" lon="116.4502708451606"><ele>259.5</ele><time>2026-04-05T05:36:34.001Z</time></trkpt><trkpt lat="-31.986393940322635" lon="116.4501471403605"><ele>258.0</ele><time>2026-04-05T05:36:35.001Z</time></trkpt><trkpt lat="-31.986338631819326" lon="116.45001519405388"><ele>256.5</ele><time>2026-04-05T05:36:36.001Z</time></trkpt><trkpt lat="-31.98626915620748" lon="116.44988454353907"><ele>255.0</ele><time>2026-04-05T05:36:37.001Z</time></trkpt><trkpt lat="-31.98620308083458" lon="116.44976487281109"><ele>255.0</ele><time>2026-04-05T05:36:38.001Z</time></trkpt><trkpt lat="-31.986147933100703" lon="116.44965429284476"><ele>255.0</ele><time>2026-04-05T05:36:39.001Z</time></trkpt><trkpt lat="-31.986102249745773" lon="116.44956877583029"><ele>255.0</ele><time>2026-04-05T05:36:40.001Z</time></trkpt><trkpt lat="-31.98605587102313" lon="116.44949624624147"><ele>255.0</ele><time>2026-04-05T05:36:41.001Z</time></trkpt><trkpt lat="-31.9859970971043" lon="116.4494286132291"><ele>255.0</ele><time>2026-04-05T05:36:42.001Z</time></trkpt><trkpt lat="-31.985928799031136" lon="116.44935852298615"><ele>255.0</ele><time>2026-04-05T05:36:43.001Z</time></trkpt><trkpt lat="-31.9858506705278" lon="116.44927676534361"><ele>256.0</ele><time>2026-04-05T05:36:44.001Z</time></trkpt><trkpt lat="-31.985770389141884" lon="116.44919861182946"><ele>257.0</ele><time>2026-04-05T05:36:45.001Z</time></trkpt><trkpt lat="-31.985671707790534" lon="116.44911974316244"><ele>258.0</ele><time>2026-04-05T05:36:46.001Z</time></trkpt><trkpt lat="-31.985563921007163" lon="116.44904100594293"><ele>259.0</ele><time>2026-04-05T05:36:47.001Z</time></trkpt><trkpt lat="-31.9854660858516" lon="116.4489715213429"><ele>259.0</ele><time>2026-04-05T05:36:48.001Z</time></trkpt><trkpt lat="-31.985380510066513" lon="116.44890926244048"><ele>259.0</ele><time>2026-04-05T05:36:49.001Z</time></trkpt><trkpt lat="-31.98529156073082" lon="116.44887178632378"><ele>259.0</ele><time>2026-04-05T05:36:50.001Z</time></trkpt><trkpt lat="-31.985201124144975" lon="116.44886301522288"><ele>259.0</ele><time>2026-04-05T05:36:51.001Z</time></trkpt><trkpt lat="-31.985131284981023" lon="116.44886588340016"><ele>259.0</ele><time>2026-04-05T05:36:52.001Z</time></trkpt><trkpt lat="-31.985054942919117" lon="116.44883896988001"><ele>259.0</ele><time>2026-04-05T05:36:53.001Z</time></trkpt><trkpt lat="-31.98499143156328" lon="116.44878477845977"><ele>259.8333333333333</ele><time>2026-04-05T05:36:54Z</time></trkpt><trkpt lat="-31.9849371605354" lon="116.44871429223618"><ele>260.66666666666663</ele><time>2026-04-05T05:36:55Z</time></trkpt><trkpt lat="-31.984879265317037" lon="116.44863214483988"><ele>261.5</ele><time>2026-04-05T05:36:56Z</time></trkpt><trkpt lat="-31.984813931435287" lon="116.44856468687827"><ele>262.3333333333333</ele><time>2026-04-05T05:36:57Z</time></trkpt><trkpt lat="-31.98474603689313" lon="116.44851817900681"><ele>263.1666666666667</ele><time>2026-04-05T05:36:58Z</time></trkpt><trkpt lat="-31.984664266052796" lon="116.44849262423004"><ele>264.0</ele><time>2026-04-05T05:36:59Z</time></trkpt><trkpt lat="-31.9845863017999" lon="116.44846613565409"><ele>264.0</ele><time>2026-04-05T05:37:00Z</time></trkpt><trkpt lat="-31.984502192942745" lon="116.44840300735568"><ele>264.0</ele><time>2026-04-05T05:37:01Z</time></trkpt><trkpt lat="-31.9844151836174" lon="116.44833580264077"><ele>264.0</ele><time>2026-04-05T05:37:02Z</time></trkpt><trkpt lat="-31.98433077961788" lon="116.44829888130617"><ele>264.0</ele><time>2026-04-05T05:37:03Z</time></trkpt><trkpt lat="-31.984258009658525" lon="116.44825722530506"><ele>264.0</ele><time>2026-04-05T05:37:04Z</time></trkpt><trkpt lat="-31.984201920816098" lon="116.44819697733031"><ele>263.7142857142857</ele><time>2026-04-05T05:37:05Z</time></trkpt><trkpt lat="-31.984155447073995" lon="116.4481201461885"><ele>263.42857142857144</ele><time>2026-04-05T05:37:06Z</time></trkpt><trkpt lat="-31.9841173437448" lon="116.44803082020572"><ele>263.14285714285717</ele><time>2026-04-05T05:37:07Z</time></trkpt><trkpt lat="-31.98408110641897" lon="116.44795002591907"><ele>262.8571428571429</ele><time>2026-04-05T05:37:08Z</time></trkpt><trkpt lat="-31.98404192706876" lon="116.44788627951091"><ele>262.5714285714286</ele><time>2026-04-05T05:37:09Z</time></trkpt><trkpt lat="-31.9840022434476" lon="116.44781863320509"><ele>262.2857142857143</ele><time>2026-04-05T05:37:10Z</time></trkpt><trkpt lat="-31.98398069429309" lon="116.44774713551884"><ele>262.0</ele><time>2026-04-05T05:37:11Z</time></trkpt><trkpt lat="-31.983953746448115" lon="116.44766094747362"><ele>261.66666666666663</ele><time>2026-04-05T05:37:12Z</time></trkpt><trkpt lat="-31.983924941884414" lon="116.44758348782223"><ele>261.3333333333333</ele><time>2026-04-05T05:37:13Z</time></trkpt><trkpt lat="-31.98389853654127" lon="116.4475091001399"><ele>261.0</ele><time>2026-04-05T05:37:14Z</time></trkpt><trkpt lat="-31.98385844404847" lon="116.44741249522781"><ele>260.6666666666667</ele><time>2026-04-05T05:37:16Z</time></trkpt><trkpt lat="-31.983908490488346" lon="116.44730231785508"><ele>260.33333333333337</ele><time>2026-04-05T05:37:19Z</time></trkpt><trkpt lat="-31.98394749394379" lon="116.44723773575224"><ele>260.0</ele><time>2026-04-05T05:37:20Z</time></trkpt><trkpt lat="-31.98403229598286" lon="116.44713253135038"><ele>260.0</ele><time>2026-04-05T05:37:22Z</time></trkpt><trkpt lat="-31.98408753108232" lon="116.44709594306818"><ele>260.0</ele><time>2026-04-05T05:37:23Z</time></trkpt><trkpt lat="-31.9841570301152" lon="116.4470258531212"><ele>260.0</ele><time>2026-04-05T05:37:25Z</time></trkpt><trkpt lat="-31.984157312204527" lon="116.44691313159618"><ele>260.0</ele><time>2026-04-05T05:37:34Z</time></trkpt><trkpt lat="-31.984104341150292" lon="116.44682705382688"><ele>260.0</ele><time>2026-04-05T05:37:37Z</time></trkpt><trkpt lat="-31.98408195528346" lon="116.44672701494743"><ele>260.0</ele><time>2026-04-05T05:37:40Z</time></trkpt><trkpt lat="-31.984126907132392" lon="116.44661671928354"><ele>261.33333333333337</ele><time>2026-04-05T05:37:42Z</time></trkpt><trkpt lat="-31.984205559658875" lon="116.44656049616711"><ele>262.6666666666667</ele><time>2026-04-05T05:37:44Z</time></trkpt><trkpt lat="-31.984265291235594" lon="116.44653050231821"><ele>264.0</ele><time>2026-04-05T05:37:45Z</time></trkpt><trkpt lat="-31.984331037151478" lon="116.44650469280755"><ele>265.3333333333333</ele><time>2026-04-05T05:37:46Z</time></trkpt><trkpt lat="-31.984429354052352" lon="116.44646219484102"><ele>266.66666666666663</ele><time>2026-04-05T05:37:48Z</time></trkpt><trkpt lat="-31.98447358412524" lon="116.44639375049304"><ele>268.0</ele><time>2026-04-05T05:37:50Z</time></trkpt><trkpt lat="-31.98441267388383" lon="116.44632165500373"><ele>267.8333333333333</ele><time>2026-04-05T05:37:52Z</time></trkpt><trkpt lat="-31.98432392753309" lon="116.44624197339759"><ele>267.66666666666663</ele><time>2026-04-05T05:37:54Z</time></trkpt><trkpt lat="-31.984272087654954" lon="116.4461775700534"><ele>267.5</ele><time>2026-04-05T05:38:59Z</time></trkpt><trkpt lat="-31.984210153530896" lon="116.44611806355621"><ele>267.3333333333333</ele><time>2026-04-05T05:39:01Z</time></trkpt><trkpt lat="-31.984156081698803" lon="116.44607559164585"><ele>267.1666666666667</ele><time>2026-04-05T05:39:02Z</time></trkpt><trkpt lat="-31.98410021520028" lon="116.44603117844325"><ele>267.0</ele><time>2026-04-05T05:39:03Z</time></trkpt><trkpt lat="-31.98404394612807" lon="116.44599095939903"><ele>267.0</ele><time>2026-04-05T05:39:04Z</time></trkpt><trkpt lat="-31.983962018381018" lon="116.44592462600687"><ele>267.0</ele><time>2026-04-05T05:39:06Z</time></trkpt><trkpt lat="-31.983946405636214" lon="116.44583225423328"><ele>267.0</ele><time>2026-04-05T05:39:08Z</time></trkpt><trkpt lat="-31.98393769982439" lon="116.44572135017903"><ele>267.0</ele><time>2026-04-05T05:39:10Z</time></trkpt><trkpt lat="-31.98385000400791" lon="116.44565419912175"><ele>267.0</ele><time>2026-04-05T05:39:13Z</time></trkpt><trkpt lat="-31.983773513312318" lon="116.44566586619838"><ele>267.0</ele><time>2026-04-05T05:39:14Z</time></trkpt><trkpt lat="-31.98370112625125" lon="116.44567608200371"><ele>267.0</ele><time>2026-04-05T05:39:15Z</time></trkpt><trkpt lat="-31.983593023416038" lon="116.44563933962824"><ele>267.0</ele><time>2026-04-05T05:39:17Z</time></trkpt><trkpt lat="-31.983492374068227" lon="116.44551644246003"><ele>267.0</ele><time>2026-04-05T05:39:19Z</time></trkpt><trkpt lat="-31.983396098902123" lon="116.44542245308516"><ele>266.5</ele><time>2026-04-05T05:39:20Z</time></trkpt><trkpt lat="-31.983291021804725" lon="116.44532981170731"><ele>266.0</ele><time>2026-04-05T05:39:21Z</time></trkpt><trkpt lat="-31.98318081064259" lon="116.44523667206252"><ele>265.5</ele><time>2026-04-05T05:39:22Z</time></trkpt><trkpt lat="-31.98306024221276" lon="116.44513862123624"><ele>265.0</ele><time>2026-04-05T05:39:23Z</time></trkpt><trkpt lat="-31.98291779308978" lon="116.44502856138573"><ele>265.0</ele><time>2026-04-05T05:39:24Z</time></trkpt><trkpt lat="-31.98278329374591" lon="116.44492213993118"><ele>265.0</ele><time>2026-04-05T05:39:25Z</time></trkpt><trkpt lat="-31.982653647600216" lon="116.44482385129955"><ele>265.0</ele><time>2026-04-05T05:39:26Z</time></trkpt><trkpt lat="-31.982543940890853" lon="116.44473946455807"><ele>265.0</ele><time>2026-04-05T05:39:27Z</time></trkpt><trkpt lat="-31.98242431002299" lon="116.44464569880688"><ele>263.8</ele><time>2026-04-05T05:39:28Z</time></trkpt><trkpt lat="-31.982312526086456" lon="116.4445692932284"><ele>262.6</ele><time>2026-04-05T05:39:29Z</time></trkpt><trkpt lat="-31.982219762243922" lon="116.44450588785284"><ele>261.4</ele><time>2026-04-05T05:39:30Z</time></trkpt><trkpt lat="-31.982153403809818" lon="116.44446143052514"><ele>260.2</ele><time>2026-04-05T05:39:31Z</time></trkpt><trkpt lat="-31.982104039669597" lon="116.44441121955424"><ele>259.0</ele><time>2026-04-05T05:39:32Z</time></trkpt><trkpt lat="-31.982066569458325" lon="116.44433821320806"><ele>259.0</ele><time>2026-04-05T05:39:33Z</time></trkpt><trkpt lat="-31.98203630351555" lon="116.44422919328998"><ele>259.0</ele><time>2026-04-05T05:39:34Z</time></trkpt><trkpt lat="-31.982000308234866" lon="116.44408373379302"><ele>259.0</ele><time>2026-04-05T05:39:35Z</time></trkpt><trkpt lat="-31.981949198075885" lon="116.44392107361575"><ele>259.0</ele><time>2026-04-05T05:39:36Z</time></trkpt><trkpt lat="-31.98188939721558" lon="116.44375789383727"><ele>259.0</ele><time>2026-04-05T05:39:37Z</time></trkpt><trkpt lat="-31.981844393095162" lon="116.44360763818318"><ele>259.0</ele><time>2026-04-05T05:39:38Z</time></trkpt><trkpt lat="-31.98179231706538" lon="116.4434745841533"><ele>259.0</ele><time>2026-04-05T05:39:39Z</time></trkpt><trkpt lat="-31.981729427023506" lon="116.44334770233172"><ele>259.0</ele><time>2026-04-05T05:39:40Z</time></trkpt><trkpt lat="-31.981663019220946" lon="116.44324177760443"><ele>259.0</ele><time>2026-04-05T05:39:41Z</time></trkpt><trkpt lat="-31.981584774313117" lon="116.4431426896936"><ele>259.0</ele><time>2026-04-05T05:39:42Z</time></trkpt><trkpt lat="-31.98148813415664" lon="116.44303646160576"><ele>259.0</ele><time>2026-04-05T05:39:43Z</time></trkpt><trkpt lat="-31.98137888701347" lon="116.44293052498922"><ele>259.0</ele><time>2026-04-05T05:39:44Z</time></trkpt><trkpt lat="-31.9812879762778" lon="116.44284702668615"><ele>259.0</ele><time>2026-04-05T05:39:45Z</time></trkpt><trkpt lat="-31.981197860070136" lon="116.44276410617427"><ele>259.0</ele><time>2026-04-05T05:39:46Z</time></trkpt><trkpt lat="-31.98111582439657" lon="116.4426968509742"><ele>259.0</ele><time>2026-04-05T05:39:47Z</time></trkpt><trkpt lat="-31.98102236409212" lon="116.4426278826462"><ele>259.0</ele><time>2026-04-05T05:39:48Z</time></trkpt><trkpt lat="-31.980939260986272" lon="116.44254599200988"><ele>259.0</ele><time>2026-04-05T05:39:49Z</time></trkpt><trkpt lat="-31.980872346885302" lon="116.4424573104861"><ele>258.0</ele><time>2026-04-05T05:39:50Z</time></trkpt><trkpt lat="-31.980821459944035" lon="116.44237270849692"><ele>257.0</ele><time>2026-04-05T05:39:51Z</time></trkpt><trkpt lat="-31.98075191964104" lon="116.44227050866337"><ele>256.0</ele><time>2026-04-05T05:39:52Z</time></trkpt><trkpt lat="-31.980662577050975" lon="116.44217107869495"><ele>255.0</ele><time>2026-04-05T05:39:53Z</time></trkpt><trkpt lat="-31.980573300925137" lon="116.44206357892006"><ele>254.75</ele><time>2026-04-05T05:39:54Z</time></trkpt><trkpt lat="-31.980472177590354" lon="116.44194497616577"><ele>254.5</ele><time>2026-04-05T05:39:55Z</time></trkpt><trkpt lat="-31.980376861096904" lon="116.44183267523599"><ele>254.25</ele><time>2026-04-05T05:39:56Z</time></trkpt><trkpt lat="-31.98028641357593" lon="116.441727532027"><ele>254.0</ele><time>2026-04-05T05:39:57Z</time></trkpt><trkpt lat="-31.980199647026147" lon="116.44163811699995"><ele>254.0</ele><time>2026-04-05T05:39:58Z</time></trkpt><trkpt lat="-31.980111872355977" lon="116.44154367888098"><ele>254.0</ele><time>2026-04-05T05:39:59Z</time></trkpt><trkpt lat="-31.98003178645438" lon="116.44144483816918"><ele>254.0</ele><time>2026-04-05T05:40:00Z</time></trkpt><trkpt lat="-31.979960363246686" lon="116.44133526712933"><ele>254.0</ele><time>2026-04-05T05:40:01Z</time></trkpt><trkpt lat="-31.979891395383376" lon="116.4412382825065"><ele>255.0</ele><time>2026-04-05T05:40:02Z</time></trkpt><trkpt lat="-31.979794314170785" lon="116.44115642134052"><ele>256.0</ele><time>2026-04-05T05:40:03Z</time></trkpt><trkpt lat="-31.979686022365414" lon="116.44107439697324"><ele>257.0</ele><time>2026-04-05T05:40:04Z</time></trkpt><trkpt lat="-31.979558633183697" lon="116.4409671104833"><ele>258.0</ele><time>2026-04-05T05:40:05Z</time></trkpt><trkpt lat="-31.979429208147184" lon="116.44082356465609"><ele>258.0</ele><time>2026-04-05T05:40:06Z</time></trkpt><trkpt lat="-31.979307440336076" lon="116.44067787166428"><ele>258.0</ele><time>2026-04-05T05:40:07Z</time></trkpt><trkpt lat="-31.979199630284043" lon="116.4405372797648"><ele>258.0</ele><time>2026-04-05T05:40:08Z</time></trkpt><trkpt lat="-31.979088276305202" lon="116.44037772700207"><ele>259.6666666666667</ele><time>2026-04-05T05:40:09Z</time></trkpt><trkpt lat="-31.97897558666548" lon="116.44021478312375"><ele>261.33333333333337</ele><time>2026-04-05T05:40:10Z</time></trkpt><trkpt lat="-31.9788517218473" lon="116.44004489921569"><ele>263.0</ele><time>2026-04-05T05:40:11Z</time></trkpt><trkpt lat="-31.978741871335178" lon="116.43987659416825"><ele>263.0</ele><time>2026-04-05T05:40:12Z</time></trkpt><trkpt lat="-31.978642554089152" lon="116.4397261774067"><ele>263.0</ele><time>2026-04-05T05:40:13Z</time></trkpt><trkpt lat="-31.9785162549733" lon="116.4395708044463"><ele>263.0</ele><time>2026-04-05T05:40:14Z</time></trkpt><trkpt lat="-31.9783785918045" lon="116.43940446242954"><ele>263.33333333333337</ele><time>2026-04-05T05:40:15Z</time></trkpt><trkpt lat="-31.97825299409109" lon="116.43923964822444"><ele>263.6666666666667</ele><time>2026-04-05T05:40:16Z</time></trkpt><trkpt lat="-31.978139747489372" lon="116.43910622361267"><ele>264.0</ele><time>2026-04-05T05:40:17Z</time></trkpt><trkpt lat="-31.978038754763485" lon="116.43899933577869"><ele>264.0</ele><time>2026-04-05T05:40:18Z</time></trkpt><trkpt lat="-31.977956594732238" lon="116.4389134663525"><ele>264.0</ele><time>2026-04-05T05:40:19Z</time></trkpt><trkpt lat="-31.977895695952085" lon="116.43884356931972"><ele>264.0</ele><time>2026-04-05T05:40:20Z</time></trkpt><trkpt lat="-31.97785953288573" lon="116.43878027378375"><ele>264.0</ele><time>2026-04-05T05:40:21Z</time></trkpt><trkpt lat="-31.97783829109137" lon="116.4387013113983"><ele>264.0</ele><time>2026-04-05T05:40:23Z</time></trkpt><trkpt lat="-31.977761155236255" lon="116.43861479383723"><ele>264.0</ele><time>2026-04-05T05:40:26Z</time></trkpt><trkpt lat="-31.977702745396442" lon="116.43856532678826"><ele>263.6666666666667</ele><time>2026-04-05T05:40:27Z</time></trkpt><trkpt lat="-31.97765489020294" lon="116.4385083187933"><ele>263.3333333333333</ele><time>2026-04-05T05:40:28Z</time></trkpt><trkpt lat="-31.977606605290784" lon="116.43844150220752"><ele>263.0</ele><time>2026-04-05T05:40:29Z</time></trkpt><trkpt lat="-31.977544331402918" lon="116.43837419538633"><ele>262.66666666666663</ele><time>2026-04-05T05:40:30Z</time></trkpt><trkpt lat="-31.977482868519804" lon="116.43832273698504"><ele>262.3333333333333</ele><time>2026-04-05T05:40:31Z</time></trkpt><trkpt lat="-31.97741072910264" lon="116.43826013629743"><ele>262.0</ele><time>2026-04-05T05:40:32Z</time></trkpt><trkpt lat="-31.97732590742499" lon="116.43818634530001"><ele>262.0</ele><time>2026-04-05T05:40:33Z</time></trkpt><trkpt lat="-31.977221342600163" lon="116.43809866592075"><ele>262.0</ele><time>2026-04-05T05:40:34Z</time></trkpt><trkpt lat="-31.97712143950993" lon="116.43799140148748"><ele>262.0</ele><time>2026-04-05T05:40:35Z</time></trkpt><trkpt lat="-31.97703136280443" lon="116.43787978074393"><ele>262.0</ele><time>2026-04-05T05:40:36Z</time></trkpt><trkpt lat="-31.976948402558747" lon="116.4377608644018"><ele>261.75</ele><time>2026-04-05T05:40:37Z</time></trkpt><trkpt lat="-31.97686961338076" lon="116.43763759627696"><ele>261.5</ele><time>2026-04-05T05:40:38Z</time></trkpt><trkpt lat="-31.976793237238578" lon="116.43749670515692"><ele>261.25</ele><time>2026-04-05T05:40:39Z</time></trkpt><trkpt lat="-31.976715129826932" lon="116.437355258649"><ele>261.0</ele><time>2026-04-05T05:40:40Z</time></trkpt><trkpt lat="-31.97663397689643" lon="116.43724144363355"><ele>261.0</ele><time>2026-04-05T05:40:41Z</time></trkpt><trkpt lat="-31.97655489770819" lon="116.43714879759605"><ele>261.0</ele><time>2026-04-05T05:40:42Z</time></trkpt><trkpt lat="-31.976481921710313" lon="116.43706267767023"><ele>261.0</ele><time>2026-04-05T05:40:43Z</time></trkpt><trkpt lat="-31.97642127276462" lon="116.43699761602636"><ele>261.0</ele><time>2026-04-05T05:40:44Z</time></trkpt><trkpt lat="-31.976372164151982" lon="116.4369338494942"><ele>261.0</ele><time>2026-04-05T05:40:46Z</time></trkpt><trkpt lat="-31.976406506468507" lon="116.43700956976102"><ele>261.0</ele><time>2026-04-05T05:41:29Z</time></trkpt><trkpt lat="-31.976457420567538" lon="116.43706760251834"><ele>262.40000000000003</ele><time>2026-04-05T05:41:35Z</time></trkpt><trkpt lat="-31.97641246286127" lon="116.43699124540782"><ele>263.8</ele><time>2026-04-05T05:41:48Z</time></trkpt><trkpt lat="-31.976354943405944" lon="116.43691719758787"><ele>265.20000000000005</ele><time>2026-04-05T05:42:21Z</time></trkpt><trkpt lat="-31.976264614616664" lon="116.43679934176502"><ele>266.6</ele><time>2026-04-05T05:42:23Z</time></trkpt><trkpt lat="-31.97622466317498" lon="116.4367412630682"><ele>268.0</ele><time>2026-04-05T05:42:24Z</time></trkpt><trkpt lat="-31.976167023778164" lon="116.43663943716902"><ele>268.0</ele><time>2026-04-05T05:42:26Z</time></trkpt><trkpt lat="-31.976124651833736" lon="116.43656215528725"><ele>268.0</ele><time>2026-04-05T05:42:28Z</time></trkpt><trkpt lat="-31.976042135704898" lon="116.43647148802872"><ele>268.0</ele><time>2026-04-05T05:43:12Z</time></trkpt><trkpt lat="-31.975984816524058" lon="116.43639895517015"><ele>268.0</ele><time>2026-04-05T05:43:13Z</time></trkpt><trkpt lat="-31.975920733396567" lon="116.43631631071818"><ele>268.0</ele><time>2026-04-05T05:43:14Z</time></trkpt><trkpt lat="-31.975846654049967" lon="116.43622142862606"><ele>267.25</ele><time>2026-04-05T05:43:15Z</time></trkpt><trkpt lat="-31.975760003990697" lon="116.43610599619925"><ele>266.5</ele><time>2026-04-05T05:43:16Z</time></trkpt><trkpt lat="-31.97567626289223" lon="116.43598287100345"><ele>265.75</ele><time>2026-04-05T05:43:17Z</time></trkpt><trkpt lat="-31.97560413485565" lon="116.43586892603588"><ele>265.0</ele><time>2026-04-05T05:43:18Z</time></trkpt><trkpt lat="-31.97554070039235" lon="116.43574437000639"><ele>265.0</ele><time>2026-04-05T05:43:19Z</time></trkpt><trkpt lat="-31.97547308129258" lon="116.43562673445561"><ele>265.0</ele><time>2026-04-05T05:43:20Z</time></trkpt><trkpt lat="-31.975405518421102" lon="116.43550092333136"><ele>265.0</ele><time>2026-04-05T05:43:21Z</time></trkpt><trkpt lat="-31.975348468384407" lon="116.43536833658335"><ele>265.0</ele><time>2026-04-05T05:43:22Z</time></trkpt><trkpt lat="-31.97530607868122" lon="116.43521670320507"><ele>265.3333333333333</ele><time>2026-04-05T05:43:23Z</time></trkpt><trkpt lat="-31.975271083877836" lon="116.43504772573206"><ele>265.6666666666667</ele><time>2026-04-05T05:43:24Z</time></trkpt><trkpt lat="-31.975238141714016" lon="116.43485370431746"><ele>266.0</ele><time>2026-04-05T05:43:25Z</time></trkpt><trkpt lat="-31.975209891604234" lon="116.43466944701686"><ele>266.25</ele><time>2026-04-05T05:43:26Z</time></trkpt><trkpt lat="-31.975187478003296" lon="116.4345117024724"><ele>266.5</ele><time>2026-04-05T05:43:27Z</time></trkpt><trkpt lat="-31.97515829223692" lon="116.43435609116824"><ele>266.75</ele><time>2026-04-05T05:43:28Z</time></trkpt><trkpt lat="-31.97511545532306" lon="116.43419255078513"><ele>267.0</ele><time>2026-04-05T05:43:29Z</time></trkpt><trkpt lat="-31.97506704884706" lon="116.4340343588749"><ele>267.0</ele><time>2026-04-05T05:43:30Z</time></trkpt><trkpt lat="-31.975023627243758" lon="116.43387793066826"><ele>267.0</ele><time>2026-04-05T05:43:31Z</time></trkpt><trkpt lat="-31.974996243523858" lon="116.43371188110632"><ele>267.0</ele><time>2026-04-05T05:43:32Z</time></trkpt><trkpt lat="-31.97497995571077" lon="116.43353494345973"><ele>267.0</ele><time>2026-04-05T05:43:33Z</time></trkpt><trkpt lat="-31.97496700998504" lon="116.4333578803414"><ele>265.25</ele><time>2026-04-05T05:43:34Z</time></trkpt><trkpt lat="-31.974947190287633" lon="116.43317596852695"><ele>263.5</ele><time>2026-04-05T05:43:35Z</time></trkpt><trkpt lat="-31.974924067254975" lon="116.43299682683082"><ele>261.75</ele><time>2026-04-05T05:43:36Z</time></trkpt><trkpt lat="-31.974898367747034" lon="116.43284333328835"><ele>260.0</ele><time>2026-04-05T05:43:37Z</time></trkpt><trkpt lat="-31.97487384353211" lon="116.43270019366601"><ele>260.0</ele><time>2026-04-05T05:43:38Z</time></trkpt><trkpt lat="-31.974852198871748" lon="116.43256879115656"><ele>260.0</ele><time>2026-04-05T05:43:39Z</time></trkpt><trkpt lat="-31.97483002522655" lon="116.4324253430294"><ele>260.0</ele><time>2026-04-05T05:43:40Z</time></trkpt><trkpt lat="-31.974808191680562" lon="116.43227896689443"><ele>260.0</ele><time>2026-04-05T05:43:41Z</time></trkpt><trkpt lat="-31.97479522277044" lon="116.4321532337733"><ele>260.0</ele><time>2026-04-05T05:43:42Z</time></trkpt><trkpt lat="-31.97477888251655" lon="116.43202885174925"><ele>260.0</ele><time>2026-04-05T05:43:43Z</time></trkpt><trkpt lat="-31.974766866699763" lon="116.43191109622505"><ele>260.0</ele><time>2026-04-05T05:43:44Z</time></trkpt><trkpt lat="-31.974772300977268" lon="116.43178167257093"><ele>260.0</ele><time>2026-04-05T05:43:45Z</time></trkpt><trkpt lat="-31.974786928670184" lon="116.43165775359874"><ele>260.0</ele><time>2026-04-05T05:43:46Z</time></trkpt><trkpt lat="-31.97478616572567" lon="116.43155600271744"><ele>260.0</ele><time>2026-04-05T05:43:47Z</time></trkpt><trkpt lat="-31.974752486089223" lon="116.43145453824675"><ele>260.0</ele><time>2026-04-05T05:43:48Z</time></trkpt><trkpt lat="-31.974700151729486" lon="116.431384436841"><ele>260.0</ele><time>2026-04-05T05:43:49Z</time></trkpt><trkpt lat="-31.974636926336238" lon="116.4312984070147"><ele>260.0</ele><time>2026-04-05T05:43:50Z</time></trkpt><trkpt lat="-31.97456850973585" lon="116.431244136703"><ele>260.0</ele><time>2026-04-05T05:43:51Z</time></trkpt><trkpt lat="-31.97446530360922" lon="116.43121576456593"><ele>260.75</ele><time>2026-04-05T05:43:52Z</time></trkpt><trkpt lat="-31.974335308072316" lon="116.43118791972438"><ele>261.5</ele><time>2026-04-05T05:43:53Z</time></trkpt><trkpt lat="-31.97421458273877" lon="116.43115940714559"><ele>262.25</ele><time>2026-04-05T05:43:54Z</time></trkpt><trkpt lat="-31.97411470655547" lon="116.4311217827698"><ele>263.0</ele><time>2026-04-05T05:43:55Z</time></trkpt><trkpt lat="-31.973993405076733" lon="116.43106770163006"><ele>261.5</ele><time>2026-04-05T05:43:56Z</time></trkpt><trkpt lat="-31.973858536504853" lon="116.43099343048702"><ele>260.0</ele><time>2026-04-05T05:43:57Z</time></trkpt><trkpt lat="-31.973723848824992" lon="116.43091672847599"><ele>258.5</ele><time>2026-04-05T05:43:58Z</time></trkpt><trkpt lat="-31.973597072112597" lon="116.43083916994665"><ele>257.0</ele><time>2026-04-05T05:43:59Z</time></trkpt><trkpt lat="-31.97346157065502" lon="116.43074931098829"><ele>257.0</ele><time>2026-04-05T05:44:00Z</time></trkpt><trkpt lat="-31.97332965337218" lon="116.43067760027677"><ele>257.0</ele><time>2026-04-05T05:44:01Z</time></trkpt><trkpt lat="-31.97320360625714" lon="116.43061329401135"><ele>257.0</ele><time>2026-04-05T05:44:02Z</time></trkpt><trkpt lat="-31.97307850703071" lon="116.43052888978745"><ele>257.0</ele><time>2026-04-05T05:44:03Z</time></trkpt><trkpt lat="-31.97294784695228" lon="116.43042593826647"><ele>257.0</ele><time>2026-04-05T05:44:04Z</time></trkpt><trkpt lat="-31.972825426721997" lon="116.43031570805046"><ele>257.0</ele><time>2026-04-05T05:44:05Z</time></trkpt><trkpt lat="-31.97271044886228" lon="116.43020887422139"><ele>257.0</ele><time>2026-04-05T05:44:06Z</time></trkpt><trkpt lat="-31.972598895969362" lon="116.4300981780153"><ele>257.0</ele><time>2026-04-05T05:44:07Z</time></trkpt><trkpt lat="-31.97250115444577" lon="116.42997850581683"><ele>256.25</ele><time>2026-04-05T05:44:08Z</time></trkpt><trkpt lat="-31.972403263172136" lon="116.42985259754448"><ele>255.5</ele><time>2026-04-05T05:44:09Z</time></trkpt><trkpt lat="-31.972293554741746" lon="116.42974657519636"><ele>254.75</ele><time>2026-04-05T05:44:10Z</time></trkpt><trkpt lat="-31.972174322976375" lon="116.429647866566"><ele>254.0</ele><time>2026-04-05T05:44:11Z</time></trkpt><trkpt lat="-31.97205648897535" lon="116.42957442010179"><ele>254.0</ele><time>2026-04-05T05:44:12Z</time></trkpt><trkpt lat="-31.971942117748966" lon="116.42952268931724"><ele>254.0</ele><time>2026-04-05T05:44:13Z</time></trkpt><trkpt lat="-31.971797317857042" lon="116.42947771320046"><ele>254.0</ele><time>2026-04-05T05:44:14Z</time></trkpt><trkpt lat="-31.971658282485755" lon="116.4294417396849"><ele>254.0</ele><time>2026-04-05T05:44:15Z</time></trkpt><trkpt lat="-31.971519709520464" lon="116.42939738288524"><ele>254.0</ele><time>2026-04-05T05:44:16Z</time></trkpt><trkpt lat="-31.971376670110594" lon="116.42934424520118"><ele>254.0</ele><time>2026-04-05T05:44:17Z</time></trkpt><trkpt lat="-31.97124733625423" lon="116.42928036663851"><ele>254.0</ele><time>2026-04-05T05:44:18Z</time></trkpt><trkpt lat="-31.97113403336002" lon="116.42921485457425"><ele>254.0</ele><time>2026-04-05T05:44:19Z</time></trkpt><trkpt lat="-31.97103776848351" lon="116.42914324083331"><ele>254.0</ele><time>2026-04-05T05:44:20Z</time></trkpt><trkpt lat="-31.970957488085755" lon="116.42906300721016"><ele>254.0</ele><time>2026-04-05T05:44:21Z</time></trkpt><trkpt lat="-31.970879520984568" lon="116.42897880649056"><ele>254.0</ele><time>2026-04-05T05:44:22Z</time></trkpt><trkpt lat="-31.970792804380597" lon="116.42890752516038"><ele>254.0</ele><time>2026-04-05T05:44:23Z</time></trkpt><trkpt lat="-31.970659327086864" lon="116.4288287157129"><ele>257.0</ele><time>2026-04-05T05:44:24Z</time></trkpt><trkpt lat="-31.970514811136077" lon="116.42874776573304"><ele>260.0</ele><time>2026-04-05T05:44:25Z</time></trkpt><trkpt lat="-31.970358175396154" lon="116.42865759216171"><ele>263.0</ele><time>2026-04-05T05:44:26Z</time></trkpt><trkpt lat="-31.97021874048599" lon="116.42858334567248"><ele>263.0</ele><time>2026-04-05T05:44:27Z</time></trkpt><trkpt lat="-31.97009468982869" lon="116.42852261476435"><ele>263.0</ele><time>2026-04-05T05:44:28Z</time></trkpt><trkpt lat="-31.969981446809452" lon="116.42844937778612"><ele>263.0</ele><time>2026-04-05T05:44:29Z</time></trkpt><trkpt lat="-31.969850121836778" lon="116.42836818217026"><ele>263.0</ele><time>2026-04-05T05:44:30Z</time></trkpt><trkpt lat="-31.96971333349568" lon="116.42827933759276"><ele>261.75</ele><time>2026-04-05T05:44:31Z</time></trkpt><trkpt lat="-31.96958344764401" lon="116.42819022042315"><ele>260.5</ele><time>2026-04-05T05:44:32Z</time></trkpt><trkpt lat="-31.96947250475169" lon="116.42813147089713"><ele>259.25</ele><time>2026-04-05T05:44:33Z</time></trkpt><trkpt lat="-31.9693787456241" lon="116.42808139070092"><ele>258.0</ele><time>2026-04-05T05:44:34Z</time></trkpt><trkpt lat="-31.969298511874438" lon="116.42802628352916"><ele>258.5</ele><time>2026-04-05T05:44:35Z</time></trkpt><trkpt lat="-31.96923137894849" lon="116.42797525578165"><ele>259.0</ele><time>2026-04-05T05:44:36Z</time></trkpt><trkpt lat="-31.969152682174073" lon="116.42790673050456"><ele>259.5</ele><time>2026-04-05T05:44:38Z</time></trkpt><trkpt lat="-31.969156899520804" lon="116.42778867256507"><ele>260.0</ele><time>2026-04-05T05:44:41Z</time></trkpt><trkpt lat="-31.969158767240767" lon="116.42770492926093"><ele>260.5</ele><time>2026-04-05T05:44:43Z</time></trkpt><trkpt lat="-31.969087007647197" lon="116.42772693741458"><ele>261.0</ele><time>2026-04-05T05:44:46Z</time></trkpt><trkpt lat="-31.969028152331397" lon="116.42777006963821"><ele>261.0</ele><time>2026-04-05T05:44:48Z</time></trkpt><trkpt lat="-31.968974246205825" lon="116.42781796016476"><ele>261.0</ele><time>2026-04-05T05:44:51Z</time></trkpt><trkpt lat="-31.968908166483676" lon="116.42785788598896"><ele>261.0</ele><time>2026-04-05T05:45:01Z</time></trkpt><trkpt lat="-31.9688483709084" lon="116.42788658119053"><ele>261.0</ele><time>2026-04-05T05:45:02Z</time></trkpt><trkpt lat="-31.968786502020855" lon="116.42790543170393"><ele>261.0</ele><time>2026-04-05T05:45:03Z</time></trkpt><trkpt lat="-31.968696910738004" lon="116.42793567744691"><ele>261.0</ele><time>2026-04-05T05:45:04Z</time></trkpt><trkpt lat="-31.968596128310534" lon="116.42796573433242"><ele>260.0</ele><time>2026-04-05T05:45:05Z</time></trkpt><trkpt lat="-31.96848039790991" lon="116.42799415857924"><ele>259.0</ele><time>2026-04-05T05:45:06Z</time></trkpt><trkpt lat="-31.968334158396477" lon="116.42802389464978"><ele>258.0</ele><time>2026-04-05T05:45:07Z</time></trkpt><trkpt lat="-31.96818555586856" lon="116.42804956594826"><ele>257.0</ele><time>2026-04-05T05:45:08Z</time></trkpt><trkpt lat="-31.968044452411394" lon="116.4280672033351"><ele>257.0</ele><time>2026-04-05T05:45:09Z</time></trkpt><trkpt lat="-31.967885647697067" lon="116.42808276099841"><ele>257.0</ele><time>2026-04-05T05:45:10Z</time></trkpt><trkpt lat="-31.967718613102345" lon="116.4280928065848"><ele>257.0</ele><time>2026-04-05T05:45:11Z</time></trkpt><trkpt lat="-31.9675406189746" lon="116.42810448810542"><ele>255.66666666666669</ele><time>2026-04-05T05:45:12Z</time></trkpt><trkpt lat="-31.967346225058275" lon="116.42812043077734"><ele>254.33333333333331</ele><time>2026-04-05T05:45:13Z</time></trkpt><trkpt lat="-31.96714332296009" lon="116.42814691906423"><ele>253.0</ele><time>2026-04-05T05:45:14Z</time></trkpt><trkpt lat="-31.966947318480127" lon="116.42817910002228"><ele>253.0</ele><time>2026-04-05T05:45:15Z</time></trkpt><trkpt lat="-31.966769898310304" lon="116.4282124692116"><ele>253.0</ele><time>2026-04-05T05:45:16Z</time></trkpt><trkpt lat="-31.966589756738472" lon="116.4282462787697"><ele>253.0</ele><time>2026-04-05T05:45:17Z</time></trkpt><trkpt lat="-31.966419818842706" lon="116.42828533390114"><ele>252.0</ele><time>2026-04-05T05:45:18Z</time></trkpt><trkpt lat="-31.96623672022169" lon="116.4283251769786"><ele>251.0</ele><time>2026-04-05T05:45:19Z</time></trkpt><trkpt lat="-31.966035289708742" lon="116.42837192941363"><ele>250.0</ele><time>2026-04-05T05:45:20Z</time></trkpt><trkpt lat="-31.96583258081484" lon="116.42841531763538"><ele>247.66666666666666</ele><time>2026-04-05T05:45:21Z</time></trkpt><trkpt lat="-31.96564559013039" lon="116.42845553352589"><ele>245.33333333333331</ele><time>2026-04-05T05:45:22Z</time></trkpt><trkpt lat="-31.96544981221234" lon="116.42849671156547"><ele>243.0</ele><time>2026-04-05T05:45:23Z</time></trkpt><trkpt lat="-31.965268996459862" lon="116.42852996392513"><ele>243.0</ele><time>2026-04-05T05:45:24Z</time></trkpt><trkpt lat="-31.96509141871264" lon="116.42855725710223"><ele>243.0</ele><time>2026-04-05T05:45:25Z</time></trkpt><trkpt lat="-31.964902273762252" lon="116.42857049472627"><ele>243.0</ele><time>2026-04-05T05:45:26Z</time></trkpt><trkpt lat="-31.964708744846746" lon="116.42856182070126"><ele>240.33333333333331</ele><time>2026-04-05T05:45:27Z</time></trkpt><trkpt lat="-31.964502771258797" lon="116.42852774204482"><ele>237.66666666666666</ele><time>2026-04-05T05:45:28Z</time></trkpt><trkpt lat="-31.964298373169445" lon="116.42847400760415"><ele>235.0</ele><time>2026-04-05T05:45:29Z</time></trkpt><trkpt lat="-31.96409361519805" lon="116.42840800952467"><ele>233.0</ele><time>2026-04-05T05:45:30Z</time></trkpt><trkpt lat="-31.963905278987518" lon="116.42834977450124"><ele>231.0</ele><time>2026-04-05T05:45:31Z</time></trkpt><trkpt lat="-31.96372182818398" lon="116.42828946255187"><ele>229.0</ele><time>2026-04-05T05:45:32Z</time></trkpt><trkpt lat="-31.963536940863268" lon="116.42823271002798"><ele>234.0</ele><time>2026-04-05T05:45:33Z</time></trkpt><trkpt lat="-31.96333698395847" lon="116.42818388893295"><ele>239.0</ele><time>2026-04-05T05:45:34Z</time></trkpt><trkpt lat="-31.963131546063337" lon="116.42813553175264"><ele>244.0</ele><time>2026-04-05T05:45:35Z</time></trkpt><trkpt lat="-31.962922620336858" lon="116.42808581837147"><ele>244.0</ele><time>2026-04-05T05:45:36Z</time></trkpt><trkpt lat="-31.962713461024073" lon="116.42802265760542"><ele>244.0</ele><time>2026-04-05T05:45:37Z</time></trkpt><trkpt lat="-31.962505266326595" lon="116.42792801860027"><ele>244.0</ele><time>2026-04-05T05:45:38Z</time></trkpt><trkpt lat="-31.9623049021126" lon="116.42780645237656"><ele>241.66666666666666</ele><time>2026-04-05T05:45:39Z</time></trkpt><trkpt lat="-31.96211368902076" lon="116.42767758146717"><ele>239.33333333333331</ele><time>2026-04-05T05:45:40Z</time></trkpt><trkpt lat="-31.96194441449678" lon="116.42755215236869"><ele>237.0</ele><time>2026-04-05T05:45:41Z</time></trkpt><trkpt lat="-31.96177645429049" lon="116.42744008237402"><ele>237.33333333333331</ele><time>2026-04-05T05:45:42Z</time></trkpt><trkpt lat="-31.96159752035028" lon="116.42734318132756"><ele>237.66666666666666</ele><time>2026-04-05T05:45:43Z</time></trkpt><trkpt lat="-31.961399418639488" lon="116.42727380229748"><ele>238.0</ele><time>2026-04-05T05:45:44Z</time></trkpt><trkpt lat="-31.96118057671934" lon="116.42723431545684"><ele>238.0</ele><time>2026-04-05T05:45:45Z</time></trkpt><trkpt lat="-31.960953630124312" lon="116.4272046309224"><ele>238.0</ele><time>2026-04-05T05:45:46Z</time></trkpt><trkpt lat="-31.960726458173596" lon="116.42717668477835"><ele>237.0</ele><time>2026-04-05T05:45:47Z</time></trkpt><trkpt lat="-31.96051719596066" lon="116.42714763069867"><ele>236.0</ele><time>2026-04-05T05:45:48Z</time></trkpt><trkpt lat="-31.960325998325928" lon="116.42711562179115"><ele>235.0</ele><time>2026-04-05T05:45:49Z</time></trkpt><trkpt lat="-31.960131247364032" lon="116.42709098081733"><ele>234.0</ele><time>2026-04-05T05:45:50Z</time></trkpt><trkpt lat="-31.95993641038006" lon="116.42706527909638"><ele>233.0</ele><time>2026-04-05T05:45:51Z</time></trkpt><trkpt lat="-31.959735631415356" lon="116.42703245253266"><ele>232.0</ele><time>2026-04-05T05:45:52Z</time></trkpt><trkpt lat="-31.959542220041218" lon="116.42698791940002"><ele>232.0</ele><time>2026-04-05T05:45:53Z</time></trkpt><trkpt lat="-31.959351482309383" lon="116.42692546557419"><ele>232.0</ele><time>2026-04-05T05:45:54Z</time></trkpt><trkpt lat="-31.95915187973938" lon="116.42684878607275"><ele>232.0</ele><time>2026-04-05T05:45:55Z</time></trkpt><trkpt lat="-31.95894585010729" lon="116.42677132443985"><ele>232.0</ele><time>2026-04-05T05:45:56Z</time></trkpt><trkpt lat="-31.95874049547496" lon="116.42668654504516"><ele>232.0</ele><time>2026-04-05T05:45:57Z</time></trkpt><trkpt lat="-31.958551430433676" lon="116.42658693916505"><ele>232.0</ele><time>2026-04-05T05:45:58Z</time></trkpt><trkpt lat="-31.958364430765087" lon="116.42648544369997"><ele>232.0</ele><time>2026-04-05T05:45:59Z</time></trkpt><trkpt lat="-31.958179647687967" lon="116.42638558927743"><ele>232.0</ele><time>2026-04-05T05:46:00Z</time></trkpt><trkpt lat="-31.95799298872476" lon="116.42627676373857"><ele>232.0</ele><time>2026-04-05T05:46:01Z</time></trkpt><trkpt lat="-31.957817794669502" lon="116.42614794814891"><ele>231.66666666666666</ele><time>2026-04-05T05:46:02Z</time></trkpt><trkpt lat="-31.95764566120734" lon="116.42599328119032"><ele>231.33333333333331</ele><time>2026-04-05T05:46:03Z</time></trkpt><trkpt lat="-31.957476986874337" lon="116.42582356474935"><ele>231.0</ele><time>2026-04-05T05:46:04Z</time></trkpt><trkpt lat="-31.957302338036474" lon="116.42565193257907"><ele>231.0</ele><time>2026-04-05T05:46:05Z</time></trkpt><trkpt lat="-31.957134158492746" lon="116.4254839847858"><ele>231.0</ele><time>2026-04-05T05:46:06Z</time></trkpt><trkpt lat="-31.95695886362305" lon="116.42531087265039"><ele>231.0</ele><time>2026-04-05T05:46:07Z</time></trkpt><trkpt lat="-31.956792180048225" lon="116.42515306034436"><ele>230.66666666666669</ele><time>2026-04-05T05:46:08Z</time></trkpt><trkpt lat="-31.956635082854095" lon="116.42501813723865"><ele>230.33333333333334</ele><time>2026-04-05T05:46:09Z</time></trkpt><trkpt lat="-31.95646516745903" lon="116.42488560446155"><ele>230.0</ele><time>2026-04-05T05:46:10Z</time></trkpt><trkpt lat="-31.956300816843402" lon="116.42476840786954"><ele>230.0</ele><time>2026-04-05T05:46:11Z</time></trkpt><trkpt lat="-31.956130255582604" lon="116.42466948781846"><ele>230.0</ele><time>2026-04-05T05:46:12Z</time></trkpt><trkpt lat="-31.955952030392904" lon="116.42460064573709"><ele>230.0</ele><time>2026-04-05T05:46:13Z</time></trkpt><trkpt lat="-31.95577050263443" lon="116.4245616539819"><ele>230.33333333333334</ele><time>2026-04-05T05:46:14Z</time></trkpt><trkpt lat="-31.955563985800076" lon="116.42455278308269"><ele>230.66666666666669</ele><time>2026-04-05T05:46:15Z</time></trkpt><trkpt lat="-31.955356391878087" lon="116.42456620384954"><ele>231.0</ele><time>2026-04-05T05:46:16Z</time></trkpt><trkpt lat="-31.955138077155404" lon="116.4245985875516"><ele>233.0</ele><time>2026-04-05T05:46:17Z</time></trkpt><trkpt lat="-31.954929939670762" lon="116.42463762125787"><ele>235.0</ele><time>2026-04-05T05:46:18Z</time></trkpt><trkpt lat="-31.95473092212774" lon="116.42467434856309"><ele>237.0</ele><time>2026-04-05T05:46:19Z</time></trkpt><trkpt lat="-31.95454180977543" lon="116.42471037015014"><ele>238.0</ele><time>2026-04-05T05:46:20Z</time></trkpt><trkpt lat="-31.95436041958633" lon="116.42474073217701"><ele>239.0</ele><time>2026-04-05T05:46:21Z</time></trkpt><trkpt lat="-31.954180566501016" lon="116.42477077256159"><ele>240.0</ele><time>2026-04-05T05:46:22Z</time></trkpt><trkpt lat="-31.953996751869134" lon="116.42480633334249"><ele>243.0</ele><time>2026-04-05T05:46:23Z</time></trkpt><trkpt lat="-31.95380044827293" lon="116.42484054554109"><ele>246.0</ele><time>2026-04-05T05:46:24Z</time></trkpt><trkpt lat="-31.95360013265397" lon="116.4248748018293"><ele>249.0</ele><time>2026-04-05T05:46:25Z</time></trkpt><trkpt lat="-31.95340518948014" lon="116.42490335422072"><ele>249.0</ele><time>2026-04-05T05:46:26Z</time></trkpt><trkpt lat="-31.953202021597885" lon="116.42493838715892"><ele>249.0</ele><time>2026-04-05T05:46:27Z</time></trkpt><trkpt lat="-31.953004201716247" lon="116.42496785613945"><ele>249.0</ele><time>2026-04-05T05:46:28Z</time></trkpt><trkpt lat="-31.952829330777877" lon="116.42499116083913"><ele>249.0</ele><time>2026-04-05T05:46:29Z</time></trkpt><trkpt lat="-31.952647880673048" lon="116.42501808981216"><ele>249.0</ele><time>2026-04-05T05:46:30Z</time></trkpt><trkpt lat="-31.952455156716017" lon="116.42504835276796"><ele>249.0</ele><time>2026-04-05T05:46:31Z</time></trkpt><trkpt lat="-31.952259899338454" lon="116.42507998401346"><ele>249.33333333333331</ele><time>2026-04-05T05:46:32Z</time></trkpt><trkpt lat="-31.95208037555565" lon="116.42510629853818"><ele>249.66666666666666</ele><time>2026-04-05T05:46:33Z</time></trkpt><trkpt lat="-31.951900235613472" lon="116.42513620775517"><ele>250.0</ele><time>2026-04-05T05:46:34Z</time></trkpt><trkpt lat="-31.95171073935523" lon="116.42516276340201"><ele>247.33333333333331</ele><time>2026-04-05T05:46:35Z</time></trkpt><trkpt lat="-31.951514048512113" lon="116.42519147030603"><ele>244.66666666666669</ele><time>2026-04-05T05:46:36Z</time></trkpt><trkpt lat="-31.951329655840226" lon="116.42522325200181"><ele>242.0</ele><time>2026-04-05T05:46:37Z</time></trkpt><trkpt lat="-31.95114748372267" lon="116.42526427671687"><ele>242.0</ele><time>2026-04-05T05:46:38Z</time></trkpt><trkpt lat="-31.95097038006496" lon="116.42532663412078"><ele>242.0</ele><time>2026-04-05T05:46:39Z</time></trkpt><trkpt lat="-31.950790997154588" lon="116.4254315113071"><ele>242.0</ele><time>2026-04-05T05:46:40Z</time></trkpt><trkpt lat="-31.950595140652915" lon="116.42557027537629"><ele>240.0</ele><time>2026-04-05T05:46:41Z</time></trkpt><trkpt lat="-31.95040193664315" lon="116.42572723402672"><ele>238.0</ele><time>2026-04-05T05:46:42Z</time></trkpt><trkpt lat="-31.950207641039036" lon="116.42589416435317"><ele>237.66666666666666</ele><time>2026-04-05T05:46:43Z</time></trkpt><trkpt lat="-31.950038531304198" lon="116.42604318713"><ele>237.33333333333331</ele><time>2026-04-05T05:46:44Z</time></trkpt><trkpt lat="-31.949854816812955" lon="116.4261967552029"><ele>237.0</ele><time>2026-04-05T05:46:45Z</time></trkpt><trkpt lat="-31.94967316249072" lon="116.42635797939704"><ele>237.0</ele><time>2026-04-05T05:46:46Z</time></trkpt><trkpt lat="-31.94949665210085" lon="116.42652946178873"><ele>237.0</ele><time>2026-04-05T05:46:47Z</time></trkpt><trkpt lat="-31.949315671392846" lon="116.4267073099012"><ele>236.66666666666669</ele><time>2026-04-05T05:46:48Z</time></trkpt><trkpt lat="-31.949137105563107" lon="116.42687811154745"><ele>236.33333333333334</ele><time>2026-04-05T05:46:49Z</time></trkpt><trkpt lat="-31.948975345595315" lon="116.4270343318468"><ele>236.0</ele><time>2026-04-05T05:46:50Z</time></trkpt><trkpt lat="-31.948809234424573" lon="116.42719893598017"><ele>236.0</ele><time>2026-04-05T05:46:51Z</time></trkpt><trkpt lat="-31.948645494309087" lon="116.4273690047626"><ele>236.0</ele><time>2026-04-05T05:46:52Z</time></trkpt><trkpt lat="-31.948486866473985" lon="116.4275399924045"><ele>236.0</ele><time>2026-04-05T05:46:53Z</time></trkpt><trkpt lat="-31.94832809176662" lon="116.42771558541031"><ele>234.66666666666669</ele><time>2026-04-05T05:46:54Z</time></trkpt><trkpt lat="-31.94817494503823" lon="116.42789414251615"><ele>233.33333333333331</ele><time>2026-04-05T05:46:55Z</time></trkpt><trkpt lat="-31.948029693704225" lon="116.42807275959181"><ele>232.0</ele><time>2026-04-05T05:46:56Z</time></trkpt><trkpt lat="-31.947881154138475" lon="116.4282633874019"><ele>232.0</ele><time>2026-04-05T05:46:57Z</time></trkpt><trkpt lat="-31.94773764801474" lon="116.42845951107027"><ele>232.0</ele><time>2026-04-05T05:46:58Z</time></trkpt><trkpt lat="-31.94759918119159" lon="116.42865819925635"><ele>232.0</ele><time>2026-04-05T05:46:59Z</time></trkpt><trkpt lat="-31.94746363360776" lon="116.42886992930451"><ele>233.0</ele><time>2026-04-05T05:47:00Z</time></trkpt><trkpt lat="-31.94733111453466" lon="116.42908454766157"><ele>234.0</ele><time>2026-04-05T05:47:01Z</time></trkpt><trkpt lat="-31.947203100175024" lon="116.42930152660425"><ele>235.0</ele><time>2026-04-05T05:47:02Z</time></trkpt><trkpt lat="-31.947078228428992" lon="116.42953042072449"><ele>236.0</ele><time>2026-04-05T05:47:03Z</time></trkpt><trkpt lat="-31.946961325586006" lon="116.42975080983679"><ele>237.0</ele><time>2026-04-05T05:47:04Z</time></trkpt><trkpt lat="-31.946847270484074" lon="116.42996472415075"><ele>238.0</ele><time>2026-04-05T05:47:05Z</time></trkpt><trkpt lat="-31.946729757553484" lon="116.43018317041124"><ele>237.5</ele><time>2026-04-05T05:47:06Z</time></trkpt><trkpt lat="-31.946601546708127" lon="116.43042236793669"><ele>237.0</ele><time>2026-04-05T05:47:07Z</time></trkpt><trkpt lat="-31.946475097661803" lon="116.43066309467117"><ele>237.0</ele><time>2026-04-05T05:47:08Z</time></trkpt><trkpt lat="-31.946346839946013" lon="116.43090737075805"><ele>237.0</ele><time>2026-04-05T05:47:09Z</time></trkpt><trkpt lat="-31.946228600669627" lon="116.43113765974384"><ele>236.0</ele><time>2026-04-05T05:47:10Z</time></trkpt><trkpt lat="-31.946108654419444" lon="116.4313680128727"><ele>235.0</ele><time>2026-04-05T05:47:11Z</time></trkpt><trkpt lat="-31.945979566982192" lon="116.43161688494912"><ele>234.5</ele><time>2026-04-05T05:47:12Z</time></trkpt><trkpt lat="-31.945840486910694" lon="116.43188437799124"><ele>234.0</ele><time>2026-04-05T05:47:13Z</time></trkpt><trkpt lat="-31.94570867999437" lon="116.43213861974081"><ele>234.5</ele><time>2026-04-05T05:47:14Z</time></trkpt><trkpt lat="-31.9455788469442" lon="116.43238168786333"><ele>235.0</ele><time>2026-04-05T05:47:15Z</time></trkpt><trkpt lat="-31.94545114004428" lon="116.43262279237578"><ele>235.0</ele><time>2026-04-05T05:47:16Z</time></trkpt><trkpt lat="-31.94532115898502" lon="116.43286588599472"><ele>235.0</ele><time>2026-04-05T05:47:17Z</time></trkpt><trkpt lat="-31.945193744290325" lon="116.43310356714998"><ele>236.5</ele><time>2026-04-05T05:47:18Z</time></trkpt><trkpt lat="-31.94506753644234" lon="116.43333599712889"><ele>238.0</ele><time>2026-04-05T05:47:19Z</time></trkpt><trkpt lat="-31.944941324650507" lon="116.43357180724769"><ele>235.5</ele><time>2026-04-05T05:47:20Z</time></trkpt><trkpt lat="-31.94481736037259" lon="116.43379769317907"><ele>233.0</ele><time>2026-04-05T05:47:21Z</time></trkpt><trkpt lat="-31.94469522597808" lon="116.43401835448871"><ele>233.0</ele><time>2026-04-05T05:47:22Z</time></trkpt><trkpt lat="-31.944575960279135" lon="116.4342256578982"><ele>233.0</ele><time>2026-04-05T05:47:23Z</time></trkpt><trkpt lat="-31.944446963385417" lon="116.43444234590434"><ele>233.0</ele><time>2026-04-05T05:47:24Z</time></trkpt><trkpt lat="-31.944313987018067" lon="116.43465779934273"><ele>233.66666666666669</ele><time>2026-04-05T05:47:25Z</time></trkpt><trkpt lat="-31.94417710197529" lon="116.43486885537324"><ele>234.33333333333331</ele><time>2026-04-05T05:47:26Z</time></trkpt><trkpt lat="-31.944041456211377" lon="116.43506653914294"><ele>235.0</ele><time>2026-04-05T05:47:27Z</time></trkpt><trkpt lat="-31.94390213897636" lon="116.43526104482696"><ele>235.0</ele><time>2026-04-05T05:47:28Z</time></trkpt><trkpt lat="-31.94376093877897" lon="116.43545816694423"><ele>235.0</ele><time>2026-04-05T05:47:29Z</time></trkpt><trkpt lat="-31.943627265012125" lon="116.43564633335286"><ele>235.0</ele><time>2026-04-05T05:47:30Z</time></trkpt><trkpt lat="-31.943502758124485" lon="116.43581952658344"><ele>235.33333333333331</ele><time>2026-04-05T05:47:31Z</time></trkpt><trkpt lat="-31.943383165337785" lon="116.43598074510902"><ele>235.66666666666669</ele><time>2026-04-05T05:47:32Z</time></trkpt><trkpt lat="-31.943267777946662" lon="116.43613225929562"><ele>236.0</ele><time>2026-04-05T05:47:33Z</time></trkpt><trkpt lat="-31.94315481386404" lon="116.43627699578599"><ele>232.66666666666669</ele><time>2026-04-05T05:47:34Z</time></trkpt><trkpt lat="-31.943040327110445" lon="116.43642572576934"><ele>229.33333333333331</ele><time>2026-04-05T05:47:35Z</time></trkpt><trkpt lat="-31.942920164138513" lon="116.43658737624176"><ele>226.0</ele><time>2026-04-05T05:47:36Z</time></trkpt><trkpt lat="-31.942820660417215" lon="116.43675443973426"><ele>226.0</ele><time>2026-04-05T05:47:37Z</time></trkpt><trkpt lat="-31.942739433818584" lon="116.4369161723672"><ele>226.0</ele><time>2026-04-05T05:47:38Z</time></trkpt><trkpt lat="-31.942676002203303" lon="116.437071121128"><ele>226.0</ele><time>2026-04-05T05:47:39Z</time></trkpt><trkpt lat="-31.94261882004317" lon="116.43720983892658"><ele>226.0</ele><time>2026-04-05T05:47:40Z</time></trkpt><trkpt lat="-31.942566738453678" lon="116.43733041099021"><ele>225.16666666666666</ele><time>2026-04-05T05:47:41Z</time></trkpt><trkpt lat="-31.942522342926328" lon="116.43742883024404"><ele>224.33333333333331</ele><time>2026-04-05T05:47:42Z</time></trkpt><trkpt lat="-31.942483754453335" lon="116.43751238295899"><ele>223.5</ele><time>2026-04-05T05:47:43Z</time></trkpt><trkpt lat="-31.94245118157832" lon="116.43758630973758"><ele>222.66666666666669</ele><time>2026-04-05T05:47:44Z</time></trkpt><trkpt lat="-31.94240995549763" lon="116.43768331263414"><ele>221.83333333333334</ele><time>2026-04-05T05:47:46Z</time></trkpt><trkpt lat="-31.94237292795377" lon="116.43776211146692"><ele>221.0</ele><time>2026-04-05T05:47:48Z</time></trkpt><trkpt lat="-31.94233031295609" lon="116.43783950721931"><ele>221.00000000000003</ele><time>2026-04-05T05:48:05Z</time></trkpt><trkpt lat="-31.942288619029046" lon="116.43795020784206"><ele>221.0</ele><time>2026-04-05T05:48:07Z</time></trkpt><trkpt lat="-31.942268841742546" lon="116.43802714216662"><ele>221.0</ele><time>2026-04-05T05:48:08Z</time></trkpt><trkpt lat="-31.942235338821146" lon="116.43811468838945"><ele>221.0</ele><time>2026-04-05T05:48:09Z</time></trkpt><trkpt lat="-31.942192831542055" lon="116.43820310840913"><ele>221.00000000000003</ele><time>2026-04-05T05:48:10Z</time></trkpt><trkpt lat="-31.94214946401841" lon="116.43829691338087"><ele>221.0</ele><time>2026-04-05T05:48:11Z</time></trkpt><trkpt lat="-31.942099778030748" lon="116.43839845022399"><ele>219.8</ele><time>2026-04-05T05:48:12Z</time></trkpt><trkpt lat="-31.942047399850367" lon="116.43851313455032"><ele>218.60000000000002</ele><time>2026-04-05T05:48:13Z</time></trkpt><trkpt lat="-31.941993340145135" lon="116.4386235372474"><ele>217.4</ele><time>2026-04-05T05:48:14Z</time></trkpt><trkpt lat="-31.941940411435223" lon="116.43873744593795"><ele>216.2</ele><time>2026-04-05T05:48:15Z</time></trkpt><trkpt lat="-31.94188382627859" lon="116.43884815937338"><ele>215.0</ele><time>2026-04-05T05:48:16Z</time></trkpt><trkpt lat="-31.941816910484697" lon="116.43897772810409"><ele>215.0</ele><time>2026-04-05T05:48:17Z</time></trkpt><trkpt lat="-31.94175694342553" lon="116.43908900265416"><ele>215.0</ele><time>2026-04-05T05:48:18Z</time></trkpt><trkpt lat="-31.941694503409803" lon="116.43919266916559"><ele>215.0</ele><time>2026-04-05T05:48:19Z</time></trkpt><trkpt lat="-31.941617516064568" lon="116.439305348938"><ele>215.0</ele><time>2026-04-05T05:48:20Z</time></trkpt><trkpt lat="-31.94154192075986" lon="116.43943267476975"><ele>215.0</ele><time>2026-04-05T05:48:21Z</time></trkpt><trkpt lat="-31.94146200581561" lon="116.4395751959289"><ele>215.0</ele><time>2026-04-05T05:48:22Z</time></trkpt><trkpt lat="-31.941385278298412" lon="116.43971567506001"><ele>215.0</ele><time>2026-04-05T05:48:23Z</time></trkpt><trkpt lat="-31.941307092589135" lon="116.43983528154448"><ele>215.0</ele><time>2026-04-05T05:48:24Z</time></trkpt><trkpt lat="-31.941223451158283" lon="116.43995808489068"><ele>215.0</ele><time>2026-04-05T05:48:25Z</time></trkpt><trkpt lat="-31.94113802464958" lon="116.44008391447706"><ele>215.0</ele><time>2026-04-05T05:48:26Z</time></trkpt><trkpt lat="-31.941052113333363" lon="116.44023020687926"><ele>215.0</ele><time>2026-04-05T05:48:27Z</time></trkpt><trkpt lat="-31.940975419763543" lon="116.44039002946033"><ele>215.0</ele><time>2026-04-05T05:48:28Z</time></trkpt><trkpt lat="-31.940910100520817" lon="116.44058519703445"><ele>215.66666666666669</ele><time>2026-04-05T05:48:29Z</time></trkpt><trkpt lat="-31.94085953048751" lon="116.4407873119787"><ele>216.33333333333331</ele><time>2026-04-05T05:48:30Z</time></trkpt><trkpt lat="-31.94081772914693" lon="116.44101530780092"><ele>217.0</ele><time>2026-04-05T05:48:31Z</time></trkpt><trkpt lat="-31.940776654275172" lon="116.44124968818103"><ele>217.33333333333331</ele><time>2026-04-05T05:48:32Z</time></trkpt><trkpt lat="-31.94073672095836" lon="116.441478407131"><ele>217.66666666666669</ele><time>2026-04-05T05:48:33Z</time></trkpt><trkpt lat="-31.940686905319374" lon="116.44170910865256"><ele>218.0</ele><time>2026-04-05T05:48:34Z</time></trkpt><trkpt lat="-31.940625650530922" lon="116.4419635767129"><ele>219.0</ele><time>2026-04-05T05:48:35Z</time></trkpt><trkpt lat="-31.940546157189036" lon="116.4422093944993"><ele>220.0</ele><time>2026-04-05T05:48:36Z</time></trkpt><trkpt lat="-31.940460369269726" lon="116.44244530528674"><ele>221.0</ele><time>2026-04-05T05:48:37Z</time></trkpt><trkpt lat="-31.940362566389542" lon="116.44269194987386"><ele>221.0</ele><time>2026-04-05T05:48:38Z</time></trkpt><trkpt lat="-31.940267336772795" lon="116.44294366562947"><ele>221.0</ele><time>2026-04-05T05:48:39Z</time></trkpt><trkpt lat="-31.940169319654718" lon="116.44320243368968"><ele>223.5</ele><time>2026-04-05T05:48:40Z</time></trkpt><trkpt lat="-31.940079883923897" lon="116.44343529015384"><ele>226.0</ele><time>2026-04-05T05:48:41Z</time></trkpt><trkpt lat="-31.93997892137844" lon="116.44368862514757"><ele>227.0</ele><time>2026-04-05T05:48:42Z</time></trkpt><trkpt lat="-31.939887175370163" lon="116.44393335634444"><ele>228.0</ele><time>2026-04-05T05:48:43Z</time></trkpt><trkpt lat="-31.93979671317718" lon="116.44416795846557"><ele>229.0</ele><time>2026-04-05T05:48:44Z</time></trkpt><trkpt lat="-31.939701258212676" lon="116.44442624262683"><ele>229.5</ele><time>2026-04-05T05:48:45Z</time></trkpt><trkpt lat="-31.939602118424837" lon="116.44467895537055"><ele>230.0</ele><time>2026-04-05T05:48:46Z</time></trkpt><trkpt lat="-31.93950280945379" lon="116.44490730105879"><ele>230.0</ele><time>2026-04-05T05:48:47Z</time></trkpt><trkpt lat="-31.939412930375443" lon="116.44512570435754"><ele>230.0</ele><time>2026-04-05T05:48:48Z</time></trkpt><trkpt lat="-31.93932553839724" lon="116.44533452575048"><ele>230.0</ele><time>2026-04-05T05:48:49Z</time></trkpt><trkpt lat="-31.939230614251823" lon="116.44555244739965"><ele>229.66666666666669</ele><time>2026-04-05T05:48:50Z</time></trkpt><trkpt lat="-31.939127914500517" lon="116.4457700426977"><ele>229.33333333333331</ele><time>2026-04-05T05:48:51Z</time></trkpt><trkpt lat="-31.939015842168512" lon="116.44598889291764"><ele>229.0</ele><time>2026-04-05T05:48:52Z</time></trkpt><trkpt lat="-31.938895481156976" lon="116.44620301991483"><ele>229.66666666666666</ele><time>2026-04-05T05:48:53Z</time></trkpt><trkpt lat="-31.938777141741987" lon="116.44640790882752"><ele>230.33333333333331</ele><time>2026-04-05T05:48:54Z</time></trkpt><trkpt lat="-31.93867315198094" lon="116.44658985562586"><ele>231.0</ele><time>2026-04-05T05:48:55Z</time></trkpt><trkpt lat="-31.93856777568662" lon="116.44678644535725"><ele>231.0</ele><time>2026-04-05T05:48:56Z</time></trkpt><trkpt lat="-31.938475297667946" lon="116.44699204850603"><ele>231.0</ele><time>2026-04-05T05:48:57Z</time></trkpt><trkpt lat="-31.93840099739725" lon="116.4472258616547"><ele>231.0</ele><time>2026-04-05T05:48:58Z</time></trkpt><trkpt lat="-31.93833699242192" lon="116.44747398963905"><ele>231.5</ele><time>2026-04-05T05:48:59Z</time></trkpt><trkpt lat="-31.938276945367317" lon="116.4477336270228"><ele>232.0</ele><time>2026-04-05T05:49:00Z</time></trkpt><trkpt lat="-31.93821528280481" lon="116.4479956119106"><ele>233.66666666666666</ele><time>2026-04-05T05:49:01Z</time></trkpt><trkpt lat="-31.938160562877467" lon="116.44824524648348"><ele>235.33333333333331</ele><time>2026-04-05T05:49:02Z</time></trkpt><trkpt lat="-31.938108868224763" lon="116.44849752526653"><ele>237.0</ele><time>2026-04-05T05:49:03Z</time></trkpt><trkpt lat="-31.93806280629055" lon="116.44875068540694"><ele>237.33333333333331</ele><time>2026-04-05T05:49:04Z</time></trkpt><trkpt lat="-31.938020282651447" lon="116.44899388445958"><ele>237.66666666666666</ele><time>2026-04-05T05:49:05Z</time></trkpt><trkpt lat="-31.937975001209573" lon="116.44922339945542"><ele>238.0</ele><time>2026-04-05T05:49:06Z</time></trkpt><trkpt lat="-31.93791898525745" lon="116.4494589286692"><ele>239.0</ele><time>2026-04-05T05:49:07Z</time></trkpt><trkpt lat="-31.93785231709343" lon="116.44968893214131"><ele>240.0</ele><time>2026-04-05T05:49:08Z</time></trkpt><trkpt lat="-31.937775843720196" lon="116.44993525136377"><ele>241.0</ele><time>2026-04-05T05:49:09Z</time></trkpt><trkpt lat="-31.937693910414175" lon="116.4501818051235"><ele>241.0</ele><time>2026-04-05T05:49:10Z</time></trkpt><trkpt lat="-31.93760592858328" lon="116.45043152423135"><ele>241.0</ele><time>2026-04-05T05:49:11Z</time></trkpt><trkpt lat="-31.937517186052688" lon="116.45067506091655"><ele>241.5</ele><time>2026-04-05T05:49:12Z</time></trkpt><trkpt lat="-31.93742925243265" lon="116.45091111567079"><ele>242.0</ele><time>2026-04-05T05:49:13Z</time></trkpt><trkpt lat="-31.937336402389985" lon="116.45117554994594"><ele>242.66666666666669</ele><time>2026-04-05T05:49:14Z</time></trkpt><trkpt lat="-31.93725247442378" lon="116.45141665332612"><ele>243.33333333333331</ele><time>2026-04-05T05:49:15Z</time></trkpt><trkpt lat="-31.9371654357088" lon="116.45166382969526"><ele>244.0</ele><time>2026-04-05T05:49:16Z</time></trkpt><trkpt lat="-31.937061718261283" lon="116.45193342902758"><ele>245.66666666666666</ele><time>2026-04-05T05:49:17Z</time></trkpt><trkpt lat="-31.936963322954863" lon="116.45217859082564"><ele>247.33333333333331</ele><time>2026-04-05T05:49:18Z</time></trkpt><trkpt lat="-31.936864655823907" lon="116.45239524860135"><ele>249.0</ele><time>2026-04-05T05:49:19Z</time></trkpt><trkpt lat="-31.93675943491837" lon="116.45260263999228"><ele>249.66666666666669</ele><time>2026-04-05T05:49:20Z</time></trkpt><trkpt lat="-31.936644001210045" lon="116.45281161007173"><ele>250.33333333333334</ele><time>2026-04-05T05:49:21Z</time></trkpt><trkpt lat="-31.93652836019405" lon="116.45301132561706"><ele>251.0</ele><time>2026-04-05T05:49:22Z</time></trkpt><trkpt lat="-31.93639994645454" lon="116.45322186482808"><ele>249.66666666666669</ele><time>2026-04-05T05:49:23Z</time></trkpt><trkpt lat="-31.93627492971887" lon="116.45342551517761"><ele>248.33333333333331</ele><time>2026-04-05T05:49:24Z</time></trkpt><trkpt lat="-31.936156227979623" lon="116.45361066614484"><ele>247.0</ele><time>2026-04-05T05:49:25Z</time></trkpt><trkpt lat="-31.936043895707993" lon="116.45379551136831"><ele>246.33333333333331</ele><time>2026-04-05T05:49:26Z</time></trkpt><trkpt lat="-31.935926163456692" lon="116.45399212159786"><ele>245.66666666666669</ele><time>2026-04-05T05:49:27Z</time></trkpt><trkpt lat="-31.93582701543935" lon="116.45416285127679"><ele>245.0</ele><time>2026-04-05T05:49:28Z</time></trkpt><trkpt lat="-31.93573593524707" lon="116.45432258156595"><ele>246.66666666666669</ele><time>2026-04-05T05:49:29Z</time></trkpt><trkpt lat="-31.935642605315742" lon="116.45447900721562"><ele>248.33333333333331</ele><time>2026-04-05T05:49:30Z</time></trkpt><trkpt lat="-31.93555273691903" lon="116.4546346145231"><ele>250.0</ele><time>2026-04-05T05:49:31Z</time></trkpt><trkpt lat="-31.9354522192726" lon="116.45479532024638"><ele>250.0</ele><time>2026-04-05T05:49:32Z</time></trkpt><trkpt lat="-31.935342665603915" lon="116.45496194964315"><ele>250.0</ele><time>2026-04-05T05:49:33Z</time></trkpt><trkpt lat="-31.9352353802862" lon="116.45512760839894"><ele>250.0</ele><time>2026-04-05T05:49:34Z</time></trkpt><trkpt lat="-31.935113985051014" lon="116.45530908678842"><ele>252.66666666666666</ele><time>2026-04-05T05:49:35Z</time></trkpt><trkpt lat="-31.934994660441227" lon="116.45549490533566"><ele>255.33333333333331</ele><time>2026-04-05T05:49:36Z</time></trkpt><trkpt lat="-31.93487722677032" lon="116.4556725683703"><ele>258.0</ele><time>2026-04-05T05:49:37Z</time></trkpt><trkpt lat="-31.93474983474838" lon="116.45584374988776"><ele>258.0</ele><time>2026-04-05T05:49:38Z</time></trkpt><trkpt lat="-31.9346091822997" lon="116.45602556897036"><ele>258.0</ele><time>2026-04-05T05:49:39Z</time></trkpt><trkpt lat="-31.934466236758944" lon="116.45621206318448"><ele>258.0</ele><time>2026-04-05T05:49:40Z</time></trkpt><trkpt lat="-31.934312821931567" lon="116.45640314330379"><ele>258.6666666666667</ele><time>2026-04-05T05:49:41Z</time></trkpt><trkpt lat="-31.934167635684837" lon="116.45658195572686"><ele>259.33333333333337</ele><time>2026-04-05T05:49:42Z</time></trkpt><trkpt lat="-31.93402035246442" lon="116.4567651628329"><ele>260.0</ele><time>2026-04-05T05:49:43Z</time></trkpt><trkpt lat="-31.933879084035723" lon="116.45694452204397"><ele>260.0</ele><time>2026-04-05T05:49:44Z</time></trkpt><trkpt lat="-31.933746863617166" lon="116.45710954662805"><ele>260.0</ele><time>2026-04-05T05:49:45Z</time></trkpt><trkpt lat="-31.933613351761434" lon="116.45728018806201"><ele>260.0</ele><time>2026-04-05T05:49:46Z</time></trkpt><trkpt lat="-31.933490754603902" lon="116.4574392140805"><ele>262.33333333333337</ele><time>2026-04-05T05:49:47Z</time></trkpt><trkpt lat="-31.933379362685667" lon="116.45758681706954"><ele>264.6666666666667</ele><time>2026-04-05T05:49:48Z</time></trkpt><trkpt lat="-31.933270814059696" lon="116.45772333353042"><ele>267.0</ele><time>2026-04-05T05:49:49Z</time></trkpt><trkpt lat="-31.933156080344133" lon="116.45785634720775"><ele>266.5</ele><time>2026-04-05T05:49:50Z</time></trkpt><trkpt lat="-31.933046633183046" lon="116.45795897110617"><ele>266.0</ele><time>2026-04-05T05:49:51Z</time></trkpt><trkpt lat="-31.932941604391296" lon="116.45805017884568"><ele>265.5</ele><time>2026-04-05T05:49:52Z</time></trkpt><trkpt lat="-31.932831981498595" lon="116.45813449378099"><ele>265.0</ele><time>2026-04-05T05:49:53Z</time></trkpt><trkpt lat="-31.932728955926432" lon="116.45821340562355"><ele>265.0</ele><time>2026-04-05T05:49:54Z</time></trkpt><trkpt lat="-31.932635041241863" lon="116.45828191956691"><ele>265.0</ele><time>2026-04-05T05:49:55Z</time></trkpt><trkpt lat="-31.93254225207944" lon="116.4583484315676"><ele>265.0</ele><time>2026-04-05T05:49:56Z</time></trkpt><trkpt lat="-31.932440727809453" lon="116.45841052613517"><ele>265.0</ele><time>2026-04-05T05:49:57Z</time></trkpt><trkpt lat="-31.932322965452375" lon="116.45848171610564"><ele>266.0</ele><time>2026-04-05T05:49:58Z</time></trkpt><trkpt lat="-31.932197779599132" lon="116.45855985709932"><ele>267.0</ele><time>2026-04-05T05:49:59Z</time></trkpt><trkpt lat="-31.932066412775402" lon="116.45863908348798"><ele>268.0</ele><time>2026-04-05T05:50:00Z</time></trkpt><trkpt lat="-31.93193474123029" lon="116.45871306618633"><ele>269.0</ele><time>2026-04-05T05:50:01Z</time></trkpt><trkpt lat="-31.931801656209263" lon="116.45878770064375"><ele>270.25</ele><time>2026-04-05T05:50:02Z</time></trkpt><trkpt lat="-31.931669677869134" lon="116.45886172553537"><ele>271.5</ele><time>2026-04-05T05:50:03Z</time></trkpt><trkpt lat="-31.931537759965835" lon="116.45892720335644"><ele>272.75</ele><time>2026-04-05T05:50:04Z</time></trkpt><trkpt lat="-31.93140453421923" lon="116.45898627888276"><ele>274.0</ele><time>2026-04-05T05:50:05Z</time></trkpt><trkpt lat="-31.93127068144673" lon="116.45904204746361"><ele>274.0</ele><time>2026-04-05T05:50:06Z</time></trkpt><trkpt lat="-31.931127071650877" lon="116.45909598885505"><ele>274.0</ele><time>2026-04-05T05:50:07Z</time></trkpt><trkpt lat="-31.930992179727504" lon="116.45914216844251"><ele>274.0</ele><time>2026-04-05T05:50:08Z</time></trkpt><trkpt lat="-31.930848209752135" lon="116.4591890666212"><ele>274.0</ele><time>2026-04-05T05:50:09Z</time></trkpt><trkpt lat="-31.930711817761644" lon="116.4592278690965"><ele>274.0</ele><time>2026-04-05T05:50:10Z</time></trkpt><trkpt lat="-31.930585184752093" lon="116.45927041121607"><ele>274.0</ele><time>2026-04-05T05:50:11Z</time></trkpt><trkpt lat="-31.93046339996216" lon="116.45931038530034"><ele>274.0</ele><time>2026-04-05T05:50:12Z</time></trkpt><trkpt lat="-31.930332788470206" lon="116.45935067832065"><ele>274.0</ele><time>2026-04-05T05:50:13Z</time></trkpt><trkpt lat="-31.930199172713863" lon="116.45938833052635"><ele>274.0</ele><time>2026-04-05T05:50:14Z</time></trkpt><trkpt lat="-31.93006250568442" lon="116.45942904234175"><ele>274.0</ele><time>2026-04-05T05:50:15Z</time></trkpt><trkpt lat="-31.929918152201367" lon="116.45947003029774"><ele>274.0</ele><time>2026-04-05T05:50:16Z</time></trkpt><trkpt lat="-31.929774485106694" lon="116.45951182492934"><ele>274.0</ele><time>2026-04-05T05:50:17Z</time></trkpt><trkpt lat="-31.929625889548028" lon="116.4595536868174"><ele>275.66666666666663</ele><time>2026-04-05T05:50:18Z</time></trkpt><trkpt lat="-31.929470065261416" lon="116.45959496134653"><ele>277.3333333333333</ele><time>2026-04-05T05:50:19Z</time></trkpt><trkpt lat="-31.929314828160923" lon="116.45963482313579"><ele>279.0</ele><time>2026-04-05T05:50:20Z</time></trkpt><trkpt lat="-31.92915854120998" lon="116.45967680299039"><ele>280.0</ele><time>2026-04-05T05:50:21Z</time></trkpt><trkpt lat="-31.929008266211493" lon="116.45971684950237"><ele>281.0</ele><time>2026-04-05T05:50:22Z</time></trkpt><trkpt lat="-31.92887940600972" lon="116.45975500248855"><ele>282.0</ele><time>2026-04-05T05:50:23Z</time></trkpt><trkpt lat="-31.92876145481585" lon="116.45978440436694"><ele>283.0</ele><time>2026-04-05T05:50:24Z</time></trkpt><trkpt lat="-31.928656395361593" lon="116.45980969706491"><ele>283.0</ele><time>2026-04-05T05:50:25Z</time></trkpt><trkpt lat="-31.92856129674097" lon="116.45984004613419"><ele>283.0</ele><time>2026-04-05T05:50:26Z</time></trkpt><trkpt lat="-31.92847249218232" lon="116.45986700226304"><ele>283.0</ele><time>2026-04-05T05:50:27Z</time></trkpt><trkpt lat="-31.92836644985069" lon="116.45989594224729"><ele>283.0</ele><time>2026-04-05T05:50:28Z</time></trkpt><trkpt lat="-31.928246686786817" lon="116.45993369623497"><ele>283.0</ele><time>2026-04-05T05:50:29Z</time></trkpt><trkpt lat="-31.9281088052578" lon="116.45997562354638"><ele>284.3333333333333</ele><time>2026-04-05T05:50:30Z</time></trkpt><trkpt lat="-31.92795361082417" lon="116.46002751945777"><ele>285.6666666666667</ele><time>2026-04-05T05:50:31Z</time></trkpt><trkpt lat="-31.927788570220308" lon="116.46008254228163"><ele>287.0</ele><time>2026-04-05T05:50:32Z</time></trkpt><trkpt lat="-31.927625069996818" lon="116.46013592061402"><ele>288.6666666666667</ele><time>2026-04-05T05:50:33Z</time></trkpt><trkpt lat="-31.92745291180786" lon="116.46019175239802"><ele>290.3333333333333</ele><time>2026-04-05T05:50:34Z</time></trkpt><trkpt lat="-31.9272788531963" lon="116.4602435012229"><ele>292.0</ele><time>2026-04-05T05:50:35Z</time></trkpt><trkpt lat="-31.92709528312416" lon="116.46029671187814"><ele>292.0</ele><time>2026-04-05T05:50:36Z</time></trkpt><trkpt lat="-31.926906569394696" lon="116.46034517467659"><ele>292.0</ele><time>2026-04-05T05:50:37Z</time></trkpt><trkpt lat="-31.926704036938258" lon="116.46038624709432"><ele>292.0</ele><time>2026-04-05T05:50:38Z</time></trkpt><trkpt lat="-31.92649210349961" lon="116.46041652458173"><ele>295.0</ele><time>2026-04-05T05:50:39Z</time></trkpt><trkpt lat="-31.92626959590726" lon="116.46043886201383"><ele>298.0</ele><time>2026-04-05T05:50:40Z</time></trkpt><trkpt lat="-31.926039312055" lon="116.46045144010382"><ele>298.66666666666663</ele><time>2026-04-05T05:50:41Z</time></trkpt><trkpt lat="-31.925822154701283" lon="116.46045727724987"><ele>299.3333333333333</ele><time>2026-04-05T05:50:42Z</time></trkpt><trkpt lat="-31.925600843671383" lon="116.4604593997096"><ele>300.0</ele><time>2026-04-05T05:50:43Z</time></trkpt><trkpt lat="-31.925382057754295" lon="116.46045949417994"><ele>300.0</ele><time>2026-04-05T05:50:44Z</time></trkpt><trkpt lat="-31.925164602090934" lon="116.46045947583596"><ele>300.0</ele><time>2026-04-05T05:50:45Z</time></trkpt><trkpt lat="-31.924950471529296" lon="116.46046101975271"><ele>300.0</ele><time>2026-04-05T05:50:46Z</time></trkpt><trkpt lat="-31.924749361354444" lon="116.46046319068388"><ele>300.6666666666667</ele><time>2026-04-05T05:50:47Z</time></trkpt><trkpt lat="-31.92453479470676" lon="116.46046624318036"><ele>301.33333333333337</ele><time>2026-04-05T05:50:48Z</time></trkpt><trkpt lat="-31.92432463943116" lon="116.46046644416649"><ele>302.0</ele><time>2026-04-05T05:50:49Z</time></trkpt><trkpt lat="-31.92410998614998" lon="116.46046313390706"><ele>303.6666666666667</ele><time>2026-04-05T05:50:50Z</time></trkpt><trkpt lat="-31.92389423055903" lon="116.46046070416574"><ele>305.3333333333333</ele><time>2026-04-05T05:50:51Z</time></trkpt><trkpt lat="-31.923683309247306" lon="116.46045737259789"><ele>307.0</ele><time>2026-04-05T05:50:52Z</time></trkpt><trkpt lat="-31.92347313519733" lon="116.46045908625801"><ele>309.3333333333333</ele><time>2026-04-05T05:50:53Z</time></trkpt><trkpt lat="-31.92326883665828" lon="116.4604597397867"><ele>311.6666666666667</ele><time>2026-04-05T05:50:54Z</time></trkpt><trkpt lat="-31.92306109170033" lon="116.46045346884311"><ele>314.0</ele><time>2026-04-05T05:50:55Z</time></trkpt><trkpt lat="-31.922857092061314" lon="116.46043924147271"><ele>314.6666666666667</ele><time>2026-04-05T05:50:56Z</time></trkpt><trkpt lat="-31.922652502944104" lon="116.46041894701324"><ele>315.3333333333333</ele><time>2026-04-05T05:50:57Z</time></trkpt><trkpt lat="-31.9224436049789" lon="116.46039401582108"><ele>316.0</ele><time>2026-04-05T05:50:58Z</time></trkpt><trkpt lat="-31.922232539732512" lon="116.46035774187106"><ele>317.66666666666663</ele><time>2026-04-05T05:50:59Z</time></trkpt><trkpt lat="-31.92203241583963" lon="116.46031532360934"><ele>319.3333333333333</ele><time>2026-04-05T05:51:00Z</time></trkpt><trkpt lat="-31.921818793577348" lon="116.4602710150049"><ele>321.0</ele><time>2026-04-05T05:51:01Z</time></trkpt><trkpt lat="-31.921622151634082" lon="116.46022700699085"><ele>323.3333333333333</ele><time>2026-04-05T05:51:02Z</time></trkpt><trkpt lat="-31.921413042579015" lon="116.46018380750873"><ele>325.66666666666663</ele><time>2026-04-05T05:51:03Z</time></trkpt><trkpt lat="-31.921209873789167" lon="116.46014848558781"><ele>328.0</ele><time>2026-04-05T05:51:04Z</time></trkpt><trkpt lat="-31.921011031623717" lon="116.46012004746416"><ele>330.0</ele><time>2026-04-05T05:51:05Z</time></trkpt><trkpt lat="-31.92080675856808" lon="116.46008880813999"><ele>332.0</ele><time>2026-04-05T05:51:06Z</time></trkpt><trkpt lat="-31.920610836685743" lon="116.46005588190236"><ele>334.0</ele><time>2026-04-05T05:51:07Z</time></trkpt><trkpt lat="-31.9204065407474" lon="116.46002276104606"><ele>334.0</ele><time>2026-04-05T05:51:08Z</time></trkpt><trkpt lat="-31.920209400336113" lon="116.45999387693043"><ele>334.0</ele><time>2026-04-05T05:51:09Z</time></trkpt><trkpt lat="-31.920024703377155" lon="116.45996077900293"><ele>334.0</ele><time>2026-04-05T05:51:10Z</time></trkpt><trkpt lat="-31.919843109501073" lon="116.45992344634645"><ele>335.66666666666663</ele><time>2026-04-05T05:51:11Z</time></trkpt><trkpt lat="-31.91965699974242" lon="116.45987187423482"><ele>337.3333333333333</ele><time>2026-04-05T05:51:12Z</time></trkpt><trkpt lat="-31.919475033734386" lon="116.45980846559755"><ele>339.0</ele><time>2026-04-05T05:51:13Z</time></trkpt><trkpt lat="-31.919290067815282" lon="116.45972246907446"><ele>341.0</ele><time>2026-04-05T05:51:14Z</time></trkpt><trkpt lat="-31.919107237393934" lon="116.45962598850635"><ele>343.0</ele><time>2026-04-05T05:51:15Z</time></trkpt><trkpt lat="-31.918932468362847" lon="116.45951774956288"><ele>345.0</ele><time>2026-04-05T05:51:16Z</time></trkpt><trkpt lat="-31.918763821820196" lon="116.45940751806349"><ele>345.0</ele><time>2026-04-05T05:51:17Z</time></trkpt><trkpt lat="-31.91860894846559" lon="116.45929741210072"><ele>345.0</ele><time>2026-04-05T05:51:18Z</time></trkpt><trkpt lat="-31.91844843060112" lon="116.45916865229269"><ele>345.0</ele><time>2026-04-05T05:51:19Z</time></trkpt><trkpt lat="-31.918287470392194" lon="116.4590256622058"><ele>345.6666666666667</ele><time>2026-04-05T05:51:20Z</time></trkpt><trkpt lat="-31.918133808649095" lon="116.45887609577733"><ele>346.33333333333337</ele><time>2026-04-05T05:51:21Z</time></trkpt><trkpt lat="-31.917992143070922" lon="116.45873437269148"><ele>347.0</ele><time>2026-04-05T05:51:22Z</time></trkpt><trkpt lat="-31.917851651294708" lon="116.45859741007172"><ele>347.0</ele><time>2026-04-05T05:51:23Z</time></trkpt><trkpt lat="-31.917710277309958" lon="116.45846705315445"><ele>347.0</ele><time>2026-04-05T05:51:24Z</time></trkpt><trkpt lat="-31.917565726248952" lon="116.45834199413441"><ele>347.0</ele><time>2026-04-05T05:51:25Z</time></trkpt><trkpt lat="-31.91741284615072" lon="116.45821831323501"><ele>347.0</ele><time>2026-04-05T05:51:26Z</time></trkpt><trkpt lat="-31.917242275005272" lon="116.45808449406499"><ele>347.0</ele><time>2026-04-05T05:51:27Z</time></trkpt><trkpt lat="-31.917069131529345" lon="116.45796039398908"><ele>347.0</ele><time>2026-04-05T05:51:28Z</time></trkpt><trkpt lat="-31.91689366148993" lon="116.45784829423351"><ele>346.6666666666667</ele><time>2026-04-05T05:51:29Z</time></trkpt><trkpt lat="-31.916708177312778" lon="116.4577462995531"><ele>346.3333333333333</ele><time>2026-04-05T05:51:30Z</time></trkpt><trkpt lat="-31.916525941371184" lon="116.45765923105718"><ele>346.0</ele><time>2026-04-05T05:51:31Z</time></trkpt><trkpt lat="-31.916352307324463" lon="116.45759042270436"><ele>346.0</ele><time>2026-04-05T05:51:32Z</time></trkpt><trkpt lat="-31.91616984938755" lon="116.45753619825442"><ele>346.0</ele><time>2026-04-05T05:51:33Z</time></trkpt><trkpt lat="-31.915974100937838" lon="116.45749669229772"><ele>346.0</ele><time>2026-04-05T05:51:34Z</time></trkpt><trkpt lat="-31.915762458639826" lon="116.45746792158207"><ele>346.3333333333333</ele><time>2026-04-05T05:51:35Z</time></trkpt><trkpt lat="-31.915537618984786" lon="116.45743655923467"><ele>346.6666666666667</ele><time>2026-04-05T05:51:36Z</time></trkpt><trkpt lat="-31.915315542959455" lon="116.45741176189217"><ele>347.0</ele><time>2026-04-05T05:51:37Z</time></trkpt><trkpt lat="-31.91509193987428" lon="116.4573925199008"><ele>346.0</ele><time>2026-04-05T05:51:38Z</time></trkpt><trkpt lat="-31.914871286302176" lon="116.45738338288554"><ele>345.0</ele><time>2026-04-05T05:51:39Z</time></trkpt><trkpt lat="-31.91465645295636" lon="116.45737733267045"><ele>344.0</ele><time>2026-04-05T05:51:40Z</time></trkpt><trkpt lat="-31.91446469038224" lon="116.45732501472459"><ele>344.0</ele><time>2026-04-05T05:51:41Z</time></trkpt><trkpt lat="-31.914244945222958" lon="116.45731921507839"><ele>344.0</ele><time>2026-04-05T05:51:42Z</time></trkpt><trkpt lat="-31.91402793466058" lon="116.45731250247306"><ele>344.0</ele><time>2026-04-05T05:51:43Z</time></trkpt><trkpt lat="-31.91380463945368" lon="116.45730453939584"><ele>344.5</ele><time>2026-04-05T05:51:44Z</time></trkpt><trkpt lat="-31.913575604848546" lon="116.45729552287078"><ele>345.0</ele><time>2026-04-05T05:51:45Z</time></trkpt><trkpt lat="-31.91335276131534" lon="116.45728509793703"><ele>345.6666666666667</ele><time>2026-04-05T05:51:46Z</time></trkpt><trkpt lat="-31.91313357720371" lon="116.45727363005858"><ele>346.33333333333337</ele><time>2026-04-05T05:51:47Z</time></trkpt><trkpt lat="-31.912929594434885" lon="116.45725920883525"><ele>347.0</ele><time>2026-04-05T05:51:48Z</time></trkpt><trkpt lat="-31.912735103040884" lon="116.45724246597125"><ele>347.0</ele><time>2026-04-05T05:51:49Z</time></trkpt><trkpt lat="-31.912551735568762" lon="116.45722137762182"><ele>347.0</ele><time>2026-04-05T05:51:50Z</time></trkpt><trkpt lat="-31.912364792103798" lon="116.45719478091878"><ele>347.0</ele><time>2026-04-05T05:51:51Z</time></trkpt><trkpt lat="-31.912178070416697" lon="116.45716621411694"><ele>347.0</ele><time>2026-04-05T05:51:52Z</time></trkpt><trkpt lat="-31.91199211948791" lon="116.45713544584822"><ele>347.0</ele><time>2026-04-05T05:51:53Z</time></trkpt><trkpt lat="-31.911815510552223" lon="116.45712311169756"><ele>347.0</ele><time>2026-04-05T05:51:54Z</time></trkpt><trkpt lat="-31.911655620800286" lon="116.45708842310071"><ele>346.6666666666667</ele><time>2026-04-05T05:51:55Z</time></trkpt><trkpt lat="-31.91149111733312" lon="116.45705713180084"><ele>346.3333333333333</ele><time>2026-04-05T05:51:56Z</time></trkpt><trkpt lat="-31.91133014852416" lon="116.45703145658238"><ele>346.0</ele><time>2026-04-05T05:51:57Z</time></trkpt><trkpt lat="-31.911169238043797" lon="116.45699090420722"><ele>346.0</ele><time>2026-04-05T05:51:58Z</time></trkpt><trkpt lat="-31.911008674567803" lon="116.45696151808724"><ele>346.0</ele><time>2026-04-05T05:51:59Z</time></trkpt><trkpt lat="-31.910848055711643" lon="116.45693003404507"><ele>346.0</ele><time>2026-04-05T05:52:00Z</time></trkpt><trkpt lat="-31.910691836128787" lon="116.4568977908254"><ele>346.0</ele><time>2026-04-05T05:52:01Z</time></trkpt><trkpt lat="-31.910528981636677" lon="116.45686186614388"><ele>346.0</ele><time>2026-04-05T05:52:02Z</time></trkpt><trkpt lat="-31.910360228465546" lon="116.4568159435075"><ele>346.0</ele><time>2026-04-05T05:52:03Z</time></trkpt><trkpt lat="-31.910198189521708" lon="116.45676407928613"><ele>345.66666666666663</ele><time>2026-04-05T05:52:04Z</time></trkpt><trkpt lat="-31.91004539704928" lon="116.45670624005237"><ele>345.3333333333333</ele><time>2026-04-05T05:52:05Z</time></trkpt><trkpt lat="-31.909881468316343" lon="116.45663639190832"><ele>345.0</ele><time>2026-04-05T05:52:06Z</time></trkpt><trkpt lat="-31.909712164354286" lon="116.45655942875027"><ele>345.0</ele><time>2026-04-05T05:52:07Z</time></trkpt><trkpt lat="-31.909539193766314" lon="116.45647715379576"><ele>345.0</ele><time>2026-04-05T05:52:08Z</time></trkpt><trkpt lat="-31.9093728064851" lon="116.45639643266462"><ele>345.0</ele><time>2026-04-05T05:52:09Z</time></trkpt><trkpt lat="-31.909205628797654" lon="116.45631489254033"><ele>345.3333333333333</ele><time>2026-04-05T05:52:10Z</time></trkpt><trkpt lat="-31.909041164695537" lon="116.4562373747648"><ele>345.66666666666663</ele><time>2026-04-05T05:52:11Z</time></trkpt><trkpt lat="-31.908874152722063" lon="116.45615950878485"><ele>346.0</ele><time>2026-04-05T05:52:12Z</time></trkpt><trkpt lat="-31.908706180285684" lon="116.45608018460558"><ele>346.0</ele><time>2026-04-05T05:52:13Z</time></trkpt><trkpt lat="-31.908537225942208" lon="116.45599871159243"><ele>346.0</ele><time>2026-04-05T05:52:14Z</time></trkpt><trkpt lat="-31.908369358729665" lon="116.4559148735654"><ele>346.0</ele><time>2026-04-05T05:52:15Z</time></trkpt><trkpt lat="-31.908197394150555" lon="116.45582707683347"><ele>345.0</ele><time>2026-04-05T05:52:16Z</time></trkpt><trkpt lat="-31.908021346071255" lon="116.45573910438242"><ele>344.0</ele><time>2026-04-05T05:52:17Z</time></trkpt><trkpt lat="-31.907850498092753" lon="116.45565598752418"><ele>343.0</ele><time>2026-04-05T05:52:18Z</time></trkpt><trkpt lat="-31.907682571423624" lon="116.45557534726511"><ele>341.0</ele><time>2026-04-05T05:52:19Z</time></trkpt><trkpt lat="-31.907511527483692" lon="116.45549349941729"><ele>339.0</ele><time>2026-04-05T05:52:20Z</time></trkpt><trkpt lat="-31.90733997566602" lon="116.45541173485586"><ele>337.0</ele><time>2026-04-05T05:52:21Z</time></trkpt><trkpt lat="-31.90715839122467" lon="116.45532496888575"><ele>337.0</ele><time>2026-04-05T05:52:22Z</time></trkpt><trkpt lat="-31.90697993106324" lon="116.45523965626043"><ele>337.0</ele><time>2026-04-05T05:52:23Z</time></trkpt><trkpt lat="-31.906801329682285" lon="116.45515390743832"><ele>337.0</ele><time>2026-04-05T05:52:24Z</time></trkpt><trkpt lat="-31.90661901291065" lon="116.4550665042209"><ele>334.3333333333333</ele><time>2026-04-05T05:52:25Z</time></trkpt><trkpt lat="-31.90643960233461" lon="116.45498124168707"><ele>331.6666666666667</ele><time>2026-04-05T05:52:26Z</time></trkpt><trkpt lat="-31.906260333724518" lon="116.4548952490539"><ele>329.0</ele><time>2026-04-05T05:52:27Z</time></trkpt><trkpt lat="-31.906083606881477" lon="116.4548123284769"><ele>329.0</ele><time>2026-04-05T05:52:28Z</time></trkpt><trkpt lat="-31.905912613384203" lon="116.45473169558744"><ele>329.0</ele><time>2026-04-05T05:52:29Z</time></trkpt><trkpt lat="-31.905754154075577" lon="116.45465648316649"><ele>329.0</ele><time>2026-04-05T05:52:30Z</time></trkpt><trkpt lat="-31.905593510423436" lon="116.45458210901033"><ele>328.6666666666667</ele><time>2026-04-05T05:52:31Z</time></trkpt><trkpt lat="-31.90541787835305" lon="116.45450269285358"><ele>328.3333333333333</ele><time>2026-04-05T05:52:32Z</time></trkpt><trkpt lat="-31.90524288749218" lon="116.45442507773117"><ele>328.0</ele><time>2026-04-05T05:52:33Z</time></trkpt><trkpt lat="-31.905071864860027" lon="116.45435251251138"><ele>326.3333333333333</ele><time>2026-04-05T05:52:34Z</time></trkpt><trkpt lat="-31.904900165169316" lon="116.45428106543821"><ele>324.6666666666667</ele><time>2026-04-05T05:52:35Z</time></trkpt><trkpt lat="-31.904727392030004" lon="116.45421164094205"><ele>323.0</ele><time>2026-04-05T05:52:36Z</time></trkpt><trkpt lat="-31.90455110364345" lon="116.45414276866613"><ele>323.0</ele><time>2026-04-05T05:52:37Z</time></trkpt><trkpt lat="-31.90435838079432" lon="116.45413733188462"><ele>323.0</ele><time>2026-04-05T05:52:38Z</time></trkpt><trkpt lat="-31.904176868003727" lon="116.45407955292939"><ele>323.0</ele><time>2026-04-05T05:52:39Z</time></trkpt><trkpt lat="-31.903994982378496" lon="116.45402869793449"><ele>322.33333333333337</ele><time>2026-04-05T05:52:40Z</time></trkpt><trkpt lat="-31.9038080282784" lon="116.45398708927212"><ele>321.6666666666667</ele><time>2026-04-05T05:52:41Z</time></trkpt><trkpt lat="-31.90362303229935" lon="116.45392383911168"><ele>321.0</ele><time>2026-04-05T05:52:42Z</time></trkpt><trkpt lat="-31.903432078682524" lon="116.4539215235569"><ele>321.3333333333333</ele><time>2026-04-05T05:52:43Z</time></trkpt><trkpt lat="-31.903245611806586" lon="116.45392282867225"><ele>321.66666666666663</ele><time>2026-04-05T05:52:44Z</time></trkpt><trkpt lat="-31.90305071011116" lon="116.45392384284129"><ele>322.0</ele><time>2026-04-05T05:52:45Z</time></trkpt><trkpt lat="-31.902858824051787" lon="116.45391943322018"><ele>322.0</ele><time>2026-04-05T05:52:46Z</time></trkpt><trkpt lat="-31.90266615696749" lon="116.4539171428387"><ele>322.0</ele><time>2026-04-05T05:52:47Z</time></trkpt><trkpt lat="-31.902467508675922" lon="116.45391714283713"><ele>322.0</ele><time>2026-04-05T05:52:48Z</time></trkpt><trkpt lat="-31.902275623526616" lon="116.45391714283454"><ele>321.3333333333333</ele><time>2026-04-05T05:52:49Z</time></trkpt><trkpt lat="-31.902098283028828" lon="116.4539171428327"><ele>320.6666666666667</ele><time>2026-04-05T05:52:50Z</time></trkpt><trkpt lat="-31.901914462941228" lon="116.45391656185818"><ele>320.0</ele><time>2026-04-05T05:52:51Z</time></trkpt><trkpt lat="-31.90172155774606" lon="116.453914442829"><ele>319.33333333333337</ele><time>2026-04-05T05:52:52Z</time></trkpt><trkpt lat="-31.901523468688257" lon="116.45391310809016"><ele>318.6666666666667</ele><time>2026-04-05T05:52:53Z</time></trkpt><trkpt lat="-31.901327599138668" lon="116.45391174282439"><ele>318.0</ele><time>2026-04-05T05:52:54Z</time></trkpt><trkpt lat="-31.901127787146525" lon="116.4539121118705"><ele>318.0</ele><time>2026-04-05T05:52:55Z</time></trkpt><trkpt lat="-31.90092893839173" lon="116.45391314388411"><ele>318.0</ele><time>2026-04-05T05:52:56Z</time></trkpt><trkpt lat="-31.900740365316384" lon="116.45391261240005"><ele>318.0</ele><time>2026-04-05T05:52:57Z</time></trkpt><trkpt lat="-31.900545112804046" lon="116.45391174388271"><ele>317.6666666666667</ele><time>2026-04-05T05:52:58Z</time></trkpt><trkpt lat="-31.900352778783734" lon="116.453910228401"><ele>317.33333333333337</ele><time>2026-04-05T05:52:59Z</time></trkpt><trkpt lat="-31.900166391884625" lon="116.45390761597014"><ele>317.0</ele><time>2026-04-05T05:53:00Z</time></trkpt><trkpt lat="-31.899981256913563" lon="116.45390644388053"><ele>316.33333333333337</ele><time>2026-04-05T05:53:01Z</time></trkpt><trkpt lat="-31.89980874074054" lon="116.45390966385165"><ele>315.6666666666667</ele><time>2026-04-05T05:53:02Z</time></trkpt><trkpt lat="-31.899641824473566" lon="116.45391766270306"><ele>315.0</ele><time>2026-04-05T05:53:03Z</time></trkpt><trkpt lat="-31.89947985964707" lon="116.453933336971"><ele>315.0</ele><time>2026-04-05T05:53:04Z</time></trkpt><trkpt lat="-31.89931319538225" lon="116.4539515160044"><ele>315.0</ele><time>2026-04-05T05:53:05Z</time></trkpt><trkpt lat="-31.89915336254961" lon="116.45397425537847"><ele>315.0</ele><time>2026-04-05T05:53:06Z</time></trkpt><trkpt lat="-31.899006162431352" lon="116.45400208029012"><ele>314.5</ele><time>2026-04-05T05:53:07Z</time></trkpt><trkpt lat="-31.898872738766414" lon="116.45403582137273"><ele>314.0</ele><time>2026-04-05T05:53:08Z</time></trkpt><trkpt lat="-31.898746944080244" lon="116.45407421188078"><ele>313.5</ele><time>2026-04-05T05:53:09Z</time></trkpt><trkpt lat="-31.898627123119773" lon="116.454117412832"><ele>313.0</ele><time>2026-04-05T05:53:10Z</time></trkpt><trkpt lat="-31.89850965497987" lon="116.4541643970585"><ele>313.25</ele><time>2026-04-05T05:53:11Z</time></trkpt><trkpt lat="-31.898384639227785" lon="116.4542171589106"><ele>313.5</ele><time>2026-04-05T05:53:12Z</time></trkpt><trkpt lat="-31.898249789780586" lon="116.45427570330216"><ele>313.75</ele><time>2026-04-05T05:53:13Z</time></trkpt><trkpt lat="-31.898108305627908" lon="116.45433990966126"><ele>314.0</ele><time>2026-04-05T05:53:14Z</time></trkpt><trkpt lat="-31.89796043673793" lon="116.45440981134631"><ele>314.0</ele><time>2026-04-05T05:53:15Z</time></trkpt><trkpt lat="-31.8978093852222" lon="116.45447981776927"><ele>314.0</ele><time>2026-04-05T05:53:16Z</time></trkpt><trkpt lat="-31.8976586834205" lon="116.45454858839885"><ele>314.0</ele><time>2026-04-05T05:53:17Z</time></trkpt><trkpt lat="-31.89751337433661" lon="116.45461460946014"><ele>314.25</ele><time>2026-04-05T05:53:18Z</time></trkpt><trkpt lat="-31.897379863702028" lon="116.45467569005723"><ele>314.5</ele><time>2026-04-05T05:53:19Z</time></trkpt><trkpt lat="-31.89725930121858" lon="116.45473081066909"><ele>314.75</ele><time>2026-04-05T05:53:20Z</time></trkpt><trkpt lat="-31.8971462608575" lon="116.45478368334216"><ele>315.0</ele><time>2026-04-05T05:53:21Z</time></trkpt><trkpt lat="-31.897038094723136" lon="116.45483433268925"><ele>315.0</ele><time>2026-04-05T05:53:22Z</time></trkpt><trkpt lat="-31.89692679809764" lon="116.45488489428905"><ele>315.0</ele><time>2026-04-05T05:53:23Z</time></trkpt><trkpt lat="-31.896806384669542" lon="116.45493913549328"><ele>315.0</ele><time>2026-04-05T05:53:24Z</time></trkpt><trkpt lat="-31.896681919156084" lon="116.45499595580098"><ele>315.0</ele><time>2026-04-05T05:53:25Z</time></trkpt><trkpt lat="-31.896559139430344" lon="116.45505105116655"><ele>315.25</ele><time>2026-04-05T05:53:26Z</time></trkpt><trkpt lat="-31.89644490128909" lon="116.4551028826946"><ele>315.5</ele><time>2026-04-05T05:53:27Z</time></trkpt><trkpt lat="-31.896331703925096" lon="116.45515456414871"><ele>315.75</ele><time>2026-04-05T05:53:28Z</time></trkpt><trkpt lat="-31.896218169969096" lon="116.45520615833642"><ele>316.0</ele><time>2026-04-05T05:53:29Z</time></trkpt><trkpt lat="-31.896104093377676" lon="116.45525776798934"><ele>316.0</ele><time>2026-04-05T05:53:30Z</time></trkpt><trkpt lat="-31.895988311650616" lon="116.45531014797555"><ele>316.0</ele><time>2026-04-05T05:53:31Z</time></trkpt><trkpt lat="-31.89586937902755" lon="116.45536393003961"><ele>316.0</ele><time>2026-04-05T05:53:32Z</time></trkpt><trkpt lat="-31.895744908781232" lon="116.45541878243453"><ele>316.0</ele><time>2026-04-05T05:53:33Z</time></trkpt><trkpt lat="-31.89561597807992" lon="116.45547608500893"><ele>317.75</ele><time>2026-04-05T05:53:34Z</time></trkpt><trkpt lat="-31.895482619618715" lon="116.45553487605139"><ele>319.5</ele><time>2026-04-05T05:53:35Z</time></trkpt><trkpt lat="-31.89534986896198" lon="116.45559550991877"><ele>321.25</ele><time>2026-04-05T05:53:36Z</time></trkpt><trkpt lat="-31.895215060669315" lon="116.4556584420474"><ele>323.0</ele><time>2026-04-05T05:53:37Z</time></trkpt><trkpt lat="-31.89508081932946" lon="116.45572169734984"><ele>323.75</ele><time>2026-04-05T05:53:38Z</time></trkpt><trkpt lat="-31.894946652905002" lon="116.4557860328013"><ele>324.5</ele><time>2026-04-05T05:53:39Z</time></trkpt><trkpt lat="-31.894817397553187" lon="116.45584975656608"><ele>325.25</ele><time>2026-04-05T05:53:40Z</time></trkpt><trkpt lat="-31.894690526226697" lon="116.45591202533684"><ele>326.0</ele><time>2026-04-05T05:53:41Z</time></trkpt><trkpt lat="-31.894569628392656" lon="116.4559707852911"><ele>326.0</ele><time>2026-04-05T05:53:42Z</time></trkpt><trkpt lat="-31.894440627491335" lon="116.45603408199729"><ele>326.0</ele><time>2026-04-05T05:53:43Z</time></trkpt><trkpt lat="-31.894303107267902" lon="116.45610168202533"><ele>326.0</ele><time>2026-04-05T05:53:44Z</time></trkpt><trkpt lat="-31.894159148685173" lon="116.4561726965515"><ele>326.0</ele><time>2026-04-05T05:53:45Z</time></trkpt><trkpt lat="-31.894014267678877" lon="116.45624849358262"><ele>327.25</ele><time>2026-04-05T05:53:46Z</time></trkpt><trkpt lat="-31.89387646823847" lon="116.456326004347"><ele>328.5</ele><time>2026-04-05T05:53:47Z</time></trkpt><trkpt lat="-31.89374611852268" lon="116.45640284897246"><ele>329.75</ele><time>2026-04-05T05:53:48Z</time></trkpt><trkpt lat="-31.893613069064216" lon="116.45648163126172"><ele>331.0</ele><time>2026-04-05T05:53:49Z</time></trkpt><trkpt lat="-31.89348385542641" lon="116.45655857966511"><ele>331.66666666666663</ele><time>2026-04-05T05:53:50Z</time></trkpt><trkpt lat="-31.893346309246226" lon="116.45664118281307"><ele>332.3333333333333</ele><time>2026-04-05T05:53:51Z</time></trkpt><trkpt lat="-31.893211719103963" lon="116.45672411822027"><ele>333.0</ele><time>2026-04-05T05:53:52Z</time></trkpt><trkpt lat="-31.893069922984935" lon="116.45681282198477"><ele>333.0</ele><time>2026-04-05T05:53:53Z</time></trkpt><trkpt lat="-31.892931711244568" lon="116.45690188958396"><ele>333.0</ele><time>2026-04-05T05:53:54Z</time></trkpt><trkpt lat="-31.8927887072566" lon="116.45699284426449"><ele>333.0</ele><time>2026-04-05T05:53:55Z</time></trkpt><trkpt lat="-31.892644873570823" lon="116.457081690231"><ele>333.3333333333333</ele><time>2026-04-05T05:53:56Z</time></trkpt><trkpt lat="-31.892501985774608" lon="116.45716878578969"><ele>333.66666666666663</ele><time>2026-04-05T05:53:57Z</time></trkpt><trkpt lat="-31.89235942120653" lon="116.45725497706813"><ele>334.0</ele><time>2026-04-05T05:53:58Z</time></trkpt><trkpt lat="-31.89222387558443" lon="116.45733985374484"><ele>334.0</ele><time>2026-04-05T05:53:59Z</time></trkpt><trkpt lat="-31.892088686775057" lon="116.45742688893546"><ele>334.0</ele><time>2026-04-05T05:54:00Z</time></trkpt><trkpt lat="-31.891954195928882" lon="116.45751052821484"><ele>334.0</ele><time>2026-04-05T05:54:01Z</time></trkpt><trkpt lat="-31.89180803285727" lon="116.45759443883861"><ele>334.3333333333333</ele><time>2026-04-05T05:54:02Z</time></trkpt><trkpt lat="-31.891659953183808" lon="116.45766875081348"><ele>334.6666666666667</ele><time>2026-04-05T05:54:03Z</time></trkpt><trkpt lat="-31.891519064317464" lon="116.45772242541216"><ele>335.0</ele><time>2026-04-05T05:54:04Z</time></trkpt><trkpt lat="-31.891374857945927" lon="116.45776975231301"><ele>335.0</ele><time>2026-04-05T05:54:05Z</time></trkpt><trkpt lat="-31.89121764569014" lon="116.45781584790753"><ele>335.0</ele><time>2026-04-05T05:54:06Z</time></trkpt><trkpt lat="-31.891053700211625" lon="116.45786215191451"><ele>335.0</ele><time>2026-04-05T05:54:07Z</time></trkpt><trkpt lat="-31.890891742321088" lon="116.4579053244042"><ele>336.0</ele><time>2026-04-05T05:54:08Z</time></trkpt><trkpt lat="-31.89072837243155" lon="116.45794424266381"><ele>337.0</ele><time>2026-04-05T05:54:09Z</time></trkpt><trkpt lat="-31.890562751061726" lon="116.45798036944447"><ele>338.0</ele><time>2026-04-05T05:54:10Z</time></trkpt><trkpt lat="-31.890390937194372" lon="116.45801107219008"><ele>338.0</ele><time>2026-04-05T05:54:11Z</time></trkpt><trkpt lat="-31.890229454265004" lon="116.45803307047372"><ele>338.0</ele><time>2026-04-05T05:54:12Z</time></trkpt><trkpt lat="-31.89007713941591" lon="116.45804799415066"><ele>338.0</ele><time>2026-04-05T05:54:13Z</time></trkpt><trkpt lat="-31.889945035392067" lon="116.45806188680368"><ele>338.0</ele><time>2026-04-05T05:54:14Z</time></trkpt><trkpt lat="-31.88981942988186" lon="116.45805931744795"><ele>338.75</ele><time>2026-04-05T05:54:15Z</time></trkpt><trkpt lat="-31.88969471413238" lon="116.45802941416183"><ele>339.5</ele><time>2026-04-05T05:54:16Z</time></trkpt><trkpt lat="-31.8895479101464" lon="116.4579951760222"><ele>340.25</ele><time>2026-04-05T05:54:17Z</time></trkpt><trkpt lat="-31.88939073829792" lon="116.45795211304879"><ele>341.0</ele><time>2026-04-05T05:54:18Z</time></trkpt><trkpt lat="-31.889225222658187" lon="116.45790320504136"><ele>344.6666666666667</ele><time>2026-04-05T05:54:19Z</time></trkpt><trkpt lat="-31.889042205216978" lon="116.45784689765806"><ele>348.3333333333333</ele><time>2026-04-05T05:54:20Z</time></trkpt><trkpt lat="-31.88884979294665" lon="116.45778659570006"><ele>352.0</ele><time>2026-04-05T05:54:21Z</time></trkpt><trkpt lat="-31.888654602498413" lon="116.45772288791052"><ele>352.0</ele><time>2026-04-05T05:54:22Z</time></trkpt><trkpt lat="-31.88845741019715" lon="116.45765159729267"><ele>352.0</ele><time>2026-04-05T05:54:23Z</time></trkpt><trkpt lat="-31.888265515575014" lon="116.45758158870775"><ele>352.0</ele><time>2026-04-05T05:54:24Z</time></trkpt><trkpt lat="-31.88808869417934" lon="116.45751655302759"><ele>351.0</ele><time>2026-04-05T05:54:25Z</time></trkpt><trkpt lat="-31.887926872898557" lon="116.45745639728572"><ele>350.0</ele><time>2026-04-05T05:54:26Z</time></trkpt><trkpt lat="-31.887773663565323" lon="116.45739887538744"><ele>349.0</ele><time>2026-04-05T05:54:27Z</time></trkpt><trkpt lat="-31.88761920004064" lon="116.4573386245304"><ele>349.66666666666663</ele><time>2026-04-05T05:54:28Z</time></trkpt><trkpt lat="-31.887465650844558" lon="116.45727628165511"><ele>350.3333333333333</ele><time>2026-04-05T05:54:29Z</time></trkpt><trkpt lat="-31.887319685133466" lon="116.45721692759251"><ele>351.0</ele><time>2026-04-05T05:54:30Z</time></trkpt><trkpt lat="-31.887169665690813" lon="116.45715566002099"><ele>351.6666666666667</ele><time>2026-04-05T05:54:31Z</time></trkpt><trkpt lat="-31.887023464461524" lon="116.45709452963602"><ele>352.33333333333337</ele><time>2026-04-05T05:54:32Z</time></trkpt><trkpt lat="-31.886870912550183" lon="116.4570302963975"><ele>353.0</ele><time>2026-04-05T05:54:33Z</time></trkpt><trkpt lat="-31.88671341181288" lon="116.45696401719127"><ele>353.0</ele><time>2026-04-05T05:54:34Z</time></trkpt><trkpt lat="-31.88654803034826" lon="116.45689508827874"><ele>353.0</ele><time>2026-04-05T05:54:35Z</time></trkpt><trkpt lat="-31.886376329381136" lon="116.45682410263659"><ele>353.0</ele><time>2026-04-05T05:54:36Z</time></trkpt><trkpt lat="-31.886202769718995" lon="116.45675810150324"><ele>353.0</ele><time>2026-04-05T05:54:37Z</time></trkpt><trkpt lat="-31.886032411757554" lon="116.45670322363021"><ele>353.0</ele><time>2026-04-05T05:54:38Z</time></trkpt><trkpt lat="-31.88586412976981" lon="116.45665727512495"><ele>353.0</ele><time>2026-04-05T05:54:39Z</time></trkpt><trkpt lat="-31.885680289180247" lon="116.45661282084723"><ele>352.0</ele><time>2026-04-05T05:54:40Z</time></trkpt><trkpt lat="-31.88548224796669" lon="116.45656913862948"><ele>351.0</ele><time>2026-04-05T05:54:41Z</time></trkpt><trkpt lat="-31.885278010689206" lon="116.45652492464761"><ele>350.0</ele><time>2026-04-05T05:54:42Z</time></trkpt><trkpt lat="-31.885071631307685" lon="116.45648033751321"><ele>349.6666666666667</ele><time>2026-04-05T05:54:43Z</time></trkpt><trkpt lat="-31.884869621965688" lon="116.45643664927312"><ele>349.3333333333333</ele><time>2026-04-05T05:54:44Z</time></trkpt><trkpt lat="-31.8846800144603" lon="116.45639546723844"><ele>349.0</ele><time>2026-04-05T05:54:45Z</time></trkpt><trkpt lat="-31.884505907606172" lon="116.45635775400179"><ele>349.0</ele><time>2026-04-05T05:54:46Z</time></trkpt><trkpt lat="-31.884340763483248" lon="116.4563202269659"><ele>349.0</ele><time>2026-04-05T05:54:47Z</time></trkpt><trkpt lat="-31.88418188508484" lon="116.4562850562612"><ele>349.0</ele><time>2026-04-05T05:54:48Z</time></trkpt><trkpt lat="-31.88402536710014" lon="116.45624996488002"><ele>348.66666666666663</ele><time>2026-04-05T05:54:49Z</time></trkpt><trkpt lat="-31.883861972690408" lon="116.4562144702332"><ele>348.3333333333333</ele><time>2026-04-05T05:54:50Z</time></trkpt><trkpt lat="-31.883688374492067" lon="116.45617794190389"><ele>348.0</ele><time>2026-04-05T05:54:51Z</time></trkpt><trkpt lat="-31.883499636016364" lon="116.45614164480014"><ele>347.6666666666667</ele><time>2026-04-05T05:54:52Z</time></trkpt><trkpt lat="-31.883318551193753" lon="116.45610784913367"><ele>347.33333333333337</ele><time>2026-04-05T05:54:53Z</time></trkpt><trkpt lat="-31.883152280924353" lon="116.45609715037492"><ele>347.0</ele><time>2026-04-05T05:54:54Z</time></trkpt><trkpt lat="-31.882997420955597" lon="116.4560730553605"><ele>347.0</ele><time>2026-04-05T05:54:55Z</time></trkpt><trkpt lat="-31.88285388458951" lon="116.45603419790892"><ele>347.0</ele><time>2026-04-05T05:54:56Z</time></trkpt><trkpt lat="-31.882720170054114" lon="116.45601954379468"><ele>347.0</ele><time>2026-04-05T05:54:57Z</time></trkpt><trkpt lat="-31.882594340414386" lon="116.4560100482065"><ele>347.0</ele><time>2026-04-05T05:54:58Z</time></trkpt><trkpt lat="-31.882482051354796" lon="116.45602051293858"><ele>346.0</ele><time>2026-04-05T05:54:59Z</time></trkpt><trkpt lat="-31.882379619335897" lon="116.45600711887832"><ele>345.0</ele><time>2026-04-05T05:55:00Z</time></trkpt><trkpt lat="-31.88228487368325" lon="116.4560084483203"><ele>344.0</ele><time>2026-04-05T05:55:01Z</time></trkpt><trkpt lat="-31.88220314381818" lon="116.45600241649701"><ele>343.0</ele><time>2026-04-05T05:55:02Z</time></trkpt><trkpt lat="-31.882135135594798" lon="116.45599956416767"><ele>342.0</ele><time>2026-04-05T05:55:03Z</time></trkpt><trkpt lat="-31.88202861469446" lon="116.4559845519671"><ele>342.0</ele><time>2026-04-05T05:55:05Z</time></trkpt><trkpt lat="-31.88197686121175" lon="116.45594149074772"><ele>342.0</ele><time>2026-04-05T05:55:39Z</time></trkpt><trkpt lat="-31.881978115465927" lon="116.45569343258417"><ele>342.0</ele><time>2026-04-05T05:56:54Z</time></trkpt><trkpt lat="-31.88199680846766" lon="116.45554166544602"><ele>342.0</ele><time>2026-04-05T05:56:56Z</time></trkpt><trkpt lat="-31.882007589840143" lon="116.45544452477992"><ele>342.8</ele><time>2026-04-05T05:56:57Z</time></trkpt><trkpt lat="-31.8820232916836" lon="116.45533815655254"><ele>343.6</ele><time>2026-04-05T05:56:58Z</time></trkpt><trkpt lat="-31.882042639365167" lon="116.45521108540339"><ele>344.40000000000003</ele><time>2026-04-05T05:56:59Z</time></trkpt><trkpt lat="-31.88206154615295" lon="116.45507305374203"><ele>345.20000000000005</ele><time>2026-04-05T05:57:00Z</time></trkpt><trkpt lat="-31.882078026815066" lon="116.4549374076785"><ele>346.0</ele><time>2026-04-05T05:57:01Z</time></trkpt><trkpt lat="-31.882093208829854" lon="116.45480466179418"><ele>346.0</ele><time>2026-04-05T05:57:02Z</time></trkpt><trkpt lat="-31.88211174891544" lon="116.4546573044234"><ele>346.0</ele><time>2026-04-05T05:57:03Z</time></trkpt><trkpt lat="-31.882134820988444" lon="116.45448779289711"><ele>346.0</ele><time>2026-04-05T05:57:04Z</time></trkpt><trkpt lat="-31.882159129599074" lon="116.45429942656946"><ele>346.0</ele><time>2026-04-05T05:57:05Z</time></trkpt><trkpt lat="-31.882183706650995" lon="116.45409488359734"><ele>346.3333333333333</ele><time>2026-04-05T05:57:06Z</time></trkpt><trkpt lat="-31.882210137020508" lon="116.45389126123226"><ele>346.6666666666667</ele><time>2026-04-05T05:57:07Z</time></trkpt><trkpt lat="-31.88222881502147" lon="116.45370153793671"><ele>347.0</ele><time>2026-04-05T05:57:08Z</time></trkpt><trkpt lat="-31.882238595147832" lon="116.45351389361967"><ele>346.33333333333337</ele><time>2026-04-05T05:57:09Z</time></trkpt><trkpt lat="-31.88224251879014" lon="116.45331038232831"><ele>345.6666666666667</ele><time>2026-04-05T05:57:10Z</time></trkpt><trkpt lat="-31.882238247170836" lon="116.45310443104704"><ele>345.0</ele><time>2026-04-05T05:57:11Z</time></trkpt><trkpt lat="-31.88222783399112" lon="116.45290580709337"><ele>344.0</ele><time>2026-04-05T05:57:12Z</time></trkpt><trkpt lat="-31.882213614948633" lon="116.45270463731246"><ele>343.0</ele><time>2026-04-05T05:57:13Z</time></trkpt><trkpt lat="-31.882199085555445" lon="116.4525170053807"><ele>342.0</ele><time>2026-04-05T05:57:14Z</time></trkpt><trkpt lat="-31.88218769977798" lon="116.45232337282172"><ele>341.3333333333333</ele><time>2026-04-05T05:57:15Z</time></trkpt><trkpt lat="-31.8821775601187" lon="116.45211495706688"><ele>340.66666666666663</ele><time>2026-04-05T05:57:16Z</time></trkpt><trkpt lat="-31.882172390069012" lon="116.45190464708116"><ele>340.0</ele><time>2026-04-05T05:57:17Z</time></trkpt><trkpt lat="-31.882167556743244" lon="116.45169289947509"><ele>340.0</ele><time>2026-04-05T05:57:18Z</time></trkpt><trkpt lat="-31.882160823098346" lon="116.45147603546366"><ele>340.0</ele><time>2026-04-05T05:57:19Z</time></trkpt><trkpt lat="-31.882153639704402" lon="116.45125539089301"><ele>340.0</ele><time>2026-04-05T05:57:20Z</time></trkpt><trkpt lat="-31.88214663832679" lon="116.45103375598103"><ele>340.66666666666663</ele><time>2026-04-05T05:57:21Z</time></trkpt><trkpt lat="-31.88213837077579" lon="116.45081246036973"><ele>341.3333333333333</ele><time>2026-04-05T05:57:22Z</time></trkpt><trkpt lat="-31.88213151452897" lon="116.45059012060065"><ele>342.0</ele><time>2026-04-05T05:57:23Z</time></trkpt><trkpt lat="-31.882121940515443" lon="116.45036711823019"><ele>340.6666666666667</ele><time>2026-04-05T05:57:24Z</time></trkpt><trkpt lat="-31.88211028290886" lon="116.45014171264043"><ele>339.33333333333337</ele><time>2026-04-05T05:57:25Z</time></trkpt><trkpt lat="-31.882101949240198" lon="116.44991835061936"><ele>338.0</ele><time>2026-04-05T05:57:26Z</time></trkpt><trkpt lat="-31.88209444273385" lon="116.44969635202453"><ele>337.6666666666667</ele><time>2026-04-05T05:57:27Z</time></trkpt><trkpt lat="-31.882085458282308" lon="116.44946752206236"><ele>337.3333333333333</ele><time>2026-04-05T05:57:28Z</time></trkpt><trkpt lat="-31.882076100341365" lon="116.44924062605205"><ele>337.0</ele><time>2026-04-05T05:57:29Z</time></trkpt><trkpt lat="-31.882068276553717" lon="116.44901542685287"><ele>336.0</ele><time>2026-04-05T05:57:30Z</time></trkpt><trkpt lat="-31.88206054448556" lon="116.44878681048026"><ele>335.0</ele><time>2026-04-05T05:57:31Z</time></trkpt><trkpt lat="-31.88205408750524" lon="116.44855794565616"><ele>334.0</ele><time>2026-04-05T05:57:32Z</time></trkpt><trkpt lat="-31.882046552565633" lon="116.4483279322562"><ele>334.0</ele><time>2026-04-05T05:57:33Z</time></trkpt><trkpt lat="-31.882039799178735" lon="116.44809674332174"><ele>334.0</ele><time>2026-04-05T05:57:34Z</time></trkpt><trkpt lat="-31.88203455277656" lon="116.44785956158462"><ele>334.0</ele><time>2026-04-05T05:57:35Z</time></trkpt><trkpt lat="-31.882026511186677" lon="116.44761302019434"><ele>332.66666666666663</ele><time>2026-04-05T05:57:36Z</time></trkpt><trkpt lat="-31.882018370053743" lon="116.44737976693636"><ele>331.3333333333333</ele><time>2026-04-05T05:57:37Z</time></trkpt><trkpt lat="-31.882010275933407" lon="116.44714909652646"><ele>330.0</ele><time>2026-04-05T05:57:38Z</time></trkpt><trkpt lat="-31.882002580333882" lon="116.44691625903025"><ele>330.0</ele><time>2026-04-05T05:57:39Z</time></trkpt><trkpt lat="-31.881993182900406" lon="116.44668729852637"><ele>330.0</ele><time>2026-04-05T05:57:40Z</time></trkpt><trkpt lat="-31.881984883693555" lon="116.44646049337992"><ele>330.0</ele><time>2026-04-05T05:57:41Z</time></trkpt><trkpt lat="-31.881976821894245" lon="116.44623083639544"><ele>330.0</ele><time>2026-04-05T05:57:42Z</time></trkpt><trkpt lat="-31.881969555218287" lon="116.4460076563972"><ele>330.0</ele><time>2026-04-05T05:57:43Z</time></trkpt><trkpt lat="-31.881961298144084" lon="116.44577579280978"><ele>330.0</ele><time>2026-04-05T05:57:44Z</time></trkpt><trkpt lat="-31.881950828640548" lon="116.44554145488202"><ele>329.0</ele><time>2026-04-05T05:57:45Z</time></trkpt><trkpt lat="-31.881943500942146" lon="116.44530458419712"><ele>328.0</ele><time>2026-04-05T05:57:46Z</time></trkpt><trkpt lat="-31.881938516016348" lon="116.44507583757417"><ele>327.0</ele><time>2026-04-05T05:57:47Z</time></trkpt><trkpt lat="-31.881932759410628" lon="116.44484381508408"><ele>327.6666666666667</ele><time>2026-04-05T05:57:48Z</time></trkpt><trkpt lat="-31.881924893455935" lon="116.44461121305307"><ele>328.33333333333337</ele><time>2026-04-05T05:57:49Z</time></trkpt><trkpt lat="-31.881917722182813" lon="116.4443725883292"><ele>329.0</ele><time>2026-04-05T05:57:50Z</time></trkpt><trkpt lat="-31.88191186560057" lon="116.44413607116802"><ele>329.0</ele><time>2026-04-05T05:57:51Z</time></trkpt><trkpt lat="-31.88190787955758" lon="116.44389937502147"><ele>329.0</ele><time>2026-04-05T05:57:52Z</time></trkpt><trkpt lat="-31.881903082662472" lon="116.44365812968309"><ele>329.0</ele><time>2026-04-05T05:57:53Z</time></trkpt><trkpt lat="-31.881898091368022" lon="116.44341018230574"><ele>329.0</ele><time>2026-04-05T05:57:54Z</time></trkpt><trkpt lat="-31.881892984737007" lon="116.44315927470774"><ele>329.0</ele><time>2026-04-05T05:57:55Z</time></trkpt><trkpt lat="-31.88188787817055" lon="116.44290326219237"><ele>329.0</ele><time>2026-04-05T05:57:56Z</time></trkpt><trkpt lat="-31.881884076593504" lon="116.44264154128119"><ele>329.0</ele><time>2026-04-05T05:57:57Z</time></trkpt><trkpt lat="-31.88187685041738" lon="116.44238204955097"><ele>329.0</ele><time>2026-04-05T05:57:58Z</time></trkpt><trkpt lat="-31.881868335521933" lon="116.44211363463792"><ele>329.0</ele><time>2026-04-05T05:57:59Z</time></trkpt><trkpt lat="-31.88185952373298" lon="116.44184682035444"><ele>328.0</ele><time>2026-04-05T05:58:00Z</time></trkpt><trkpt lat="-31.881849164446788" lon="116.44158328253374"><ele>327.0</ele><time>2026-04-05T05:58:01Z</time></trkpt><trkpt lat="-31.881835943888333" lon="116.44131577907814"><ele>326.3333333333333</ele><time>2026-04-05T05:58:02Z</time></trkpt><trkpt lat="-31.881823818697832" lon="116.44105586532046"><ele>325.66666666666663</ele><time>2026-04-05T05:58:03Z</time></trkpt><trkpt lat="-31.881807753607475" lon="116.44079993077682"><ele>325.0</ele><time>2026-04-05T05:58:04Z</time></trkpt><trkpt lat="-31.88178815867284" lon="116.44054019362457"><ele>323.0</ele><time>2026-04-05T05:58:05Z</time></trkpt><trkpt lat="-31.881763802965107" lon="116.44027997036858"><ele>321.0</ele><time>2026-04-05T05:58:06Z</time></trkpt><trkpt lat="-31.881734739911575" lon="116.44002505199981"><ele>319.0</ele><time>2026-04-05T05:58:07Z</time></trkpt><trkpt lat="-31.881702456827337" lon="116.43976767006069"><ele>320.3333333333333</ele><time>2026-04-05T05:58:08Z</time></trkpt><trkpt lat="-31.881670477463814" lon="116.43951517344857"><ele>321.6666666666667</ele><time>2026-04-05T05:58:09Z</time></trkpt><trkpt lat="-31.88163375018676" lon="116.43926000599825"><ele>323.0</ele><time>2026-04-05T05:58:10Z</time></trkpt><trkpt lat="-31.881592240178236" lon="116.43900824180511"><ele>324.0</ele><time>2026-04-05T05:58:11Z</time></trkpt><trkpt lat="-31.88154666313176" lon="116.438764947592"><ele>325.0</ele><time>2026-04-05T05:58:12Z</time></trkpt><trkpt lat="-31.881498514830373" lon="116.43852310777902"><ele>326.0</ele><time>2026-04-05T05:58:13Z</time></trkpt><trkpt lat="-31.881448207398076" lon="116.43828782026313"><ele>326.0</ele><time>2026-04-05T05:58:14Z</time></trkpt><trkpt lat="-31.881396964459206" lon="116.43805506278606"><ele>326.0</ele><time>2026-04-05T05:58:15Z</time></trkpt><trkpt lat="-31.881343724578638" lon="116.4378293667194"><ele>326.0</ele><time>2026-04-05T05:58:16Z</time></trkpt><trkpt lat="-31.881287940572793" lon="116.43761345881424"><ele>326.33333333333337</ele><time>2026-04-05T05:58:17Z</time></trkpt><trkpt lat="-31.881231474266933" lon="116.4374002111077"><ele>326.6666666666667</ele><time>2026-04-05T05:58:18Z</time></trkpt><trkpt lat="-31.881176216002824" lon="116.43719273816855"><ele>327.0</ele><time>2026-04-05T05:58:19Z</time></trkpt><trkpt lat="-31.881116889838463" lon="116.43699012707073"><ele>327.0</ele><time>2026-04-05T05:58:20Z</time></trkpt><trkpt lat="-31.88105181833325" lon="116.43678731354318"><ele>327.0</ele><time>2026-04-05T05:58:21Z</time></trkpt><trkpt lat="-31.880984755516433" lon="116.43657981677832"><ele>327.0</ele><time>2026-04-05T05:58:22Z</time></trkpt><trkpt lat="-31.88091610444405" lon="116.43637062464357"><ele>325.3333333333333</ele><time>2026-04-05T05:58:23Z</time></trkpt><trkpt lat="-31.880842839186315" lon="116.43616391013526"><ele>323.66666666666663</ele><time>2026-04-05T05:58:24Z</time></trkpt><trkpt lat="-31.88076429777792" lon="116.43595518000639"><ele>322.0</ele><time>2026-04-05T05:58:25Z</time></trkpt><trkpt lat="-31.880684118658063" lon="116.43574830281973"><ele>322.0</ele><time>2026-04-05T05:58:26Z</time></trkpt><trkpt lat="-31.880601146537753" lon="116.43554071407588"><ele>322.0</ele><time>2026-04-05T05:58:27Z</time></trkpt><trkpt lat="-31.8805164428292" lon="116.43532971631457"><ele>322.0</ele><time>2026-04-05T05:58:28Z</time></trkpt><trkpt lat="-31.880432119653733" lon="116.435118511744"><ele>321.3333333333333</ele><time>2026-04-05T05:58:29Z</time></trkpt><trkpt lat="-31.880347761758088" lon="116.43490699847662"><ele>320.6666666666667</ele><time>2026-04-05T05:58:30Z</time></trkpt><trkpt lat="-31.880263675945244" lon="116.43469945525878"><ele>320.0</ele><time>2026-04-05T05:58:31Z</time></trkpt><trkpt lat="-31.880179778481295" lon="116.43449466424212"><ele>319.33333333333337</ele><time>2026-04-05T05:58:32Z</time></trkpt><trkpt lat="-31.880098595394852" lon="116.43429616933574"><ele>318.6666666666667</ele><time>2026-04-05T05:58:33Z</time></trkpt><trkpt lat="-31.88001610434038" lon="116.43409955252302"><ele>318.0</ele><time>2026-04-05T05:58:34Z</time></trkpt><trkpt lat="-31.879937299848002" lon="116.43390612386806"><ele>318.6666666666667</ele><time>2026-04-05T05:58:35Z</time></trkpt><trkpt lat="-31.879859618760435" lon="116.43370632255466"><ele>319.33333333333337</ele><time>2026-04-05T05:58:36Z</time></trkpt><trkpt lat="-31.879778336529135" lon="116.43350278365813"><ele>320.0</ele><time>2026-04-05T05:58:37Z</time></trkpt><trkpt lat="-31.87969324814761" lon="116.43329168030711"><ele>320.0</ele><time>2026-04-05T05:58:38Z</time></trkpt><trkpt lat="-31.879608363041747" lon="116.43307984925306"><ele>320.0</ele><time>2026-04-05T05:58:39Z</time></trkpt><trkpt lat="-31.87952371025677" lon="116.43287031505342"><ele>320.0</ele><time>2026-04-05T05:58:40Z</time></trkpt><trkpt lat="-31.879436865022225" lon="116.43265687113637"><ele>320.33333333333337</ele><time>2026-04-05T05:58:41Z</time></trkpt><trkpt lat="-31.879348545484916" lon="116.43243963808992"><ele>320.6666666666667</ele><time>2026-04-05T05:58:42Z</time></trkpt><trkpt lat="-31.87926239068064" lon="116.4322264990358"><ele>321.0</ele><time>2026-04-05T05:58:43Z</time></trkpt><trkpt lat="-31.879176768701818" lon="116.4320079368087"><ele>321.3333333333333</ele><time>2026-04-05T05:58:44Z</time></trkpt><trkpt lat="-31.879088525336797" lon="116.43178870725094"><ele>321.66666666666663</ele><time>2026-04-05T05:58:45Z</time></trkpt><trkpt lat="-31.87900085059445" lon="116.43156820103901"><ele>322.0</ele><time>2026-04-05T05:58:46Z</time></trkpt><trkpt lat="-31.878915797200477" lon="116.43134891622208"><ele>321.66666666666663</ele><time>2026-04-05T05:58:47Z</time></trkpt><trkpt lat="-31.878829033691414" lon="116.43113073037804"><ele>321.3333333333333</ele><time>2026-04-05T05:58:48Z</time></trkpt><trkpt lat="-31.878742970364563" lon="116.43091346597872"><ele>321.0</ele><time>2026-04-05T05:58:49Z</time></trkpt><trkpt lat="-31.878659052993775" lon="116.43070480429385"><ele>321.0</ele><time>2026-04-05T05:58:50Z</time></trkpt><trkpt lat="-31.878571388793134" lon="116.43048943174074"><ele>321.0</ele><time>2026-04-05T05:58:51Z</time></trkpt><trkpt lat="-31.87848614264889" lon="116.43027865745046"><ele>321.0</ele><time>2026-04-05T05:58:52Z</time></trkpt><trkpt lat="-31.878400738177948" lon="116.4300661515023"><ele>320.3333333333333</ele><time>2026-04-05T05:58:53Z</time></trkpt><trkpt lat="-31.878315804601012" lon="116.42985286123412"><ele>319.66666666666663</ele><time>2026-04-05T05:58:54Z</time></trkpt><trkpt lat="-31.878231549044344" lon="116.42963746448645"><ele>319.0</ele><time>2026-04-05T05:58:55Z</time></trkpt><trkpt lat="-31.87814749322412" lon="116.42942001128428"><ele>320.66666666666663</ele><time>2026-04-05T05:58:56Z</time></trkpt><trkpt lat="-31.87806671325449" lon="116.42919891490787"><ele>322.3333333333333</ele><time>2026-04-05T05:58:57Z</time></trkpt><trkpt lat="-31.87798963677596" lon="116.42897577388274"><ele>324.0</ele><time>2026-04-05T05:58:58Z</time></trkpt><trkpt lat="-31.87791608362577" lon="116.42874935401365"><ele>324.0</ele><time>2026-04-05T05:58:59Z</time></trkpt><trkpt lat="-31.87784353655173" lon="116.42852111753527"><ele>324.0</ele><time>2026-04-05T05:59:00Z</time></trkpt><trkpt lat="-31.877771582960932" lon="116.42829479582743"><ele>324.0</ele><time>2026-04-05T05:59:01Z</time></trkpt><trkpt lat="-31.877703310407988" lon="116.42806605493482"><ele>322.0</ele><time>2026-04-05T05:59:02Z</time></trkpt><trkpt lat="-31.877638037727586" lon="116.42783219848448"><ele>320.0</ele><time>2026-04-05T05:59:03Z</time></trkpt><trkpt lat="-31.877577192204583" lon="116.42759830001641"><ele>318.0</ele><time>2026-04-05T05:59:04Z</time></trkpt><trkpt lat="-31.87751723294689" lon="116.42736449644873"><ele>316.3333333333333</ele><time>2026-04-05T05:59:05Z</time></trkpt><trkpt lat="-31.87745437019303" lon="116.42712881551822"><ele>314.66666666666663</ele><time>2026-04-05T05:59:06Z</time></trkpt><trkpt lat="-31.877393297894375" lon="116.42689303000097"><ele>313.0</ele><time>2026-04-05T05:59:07Z</time></trkpt><trkpt lat="-31.87733152966624" lon="116.42665774743693"><ele>313.0</ele><time>2026-04-05T05:59:08Z</time></trkpt><trkpt lat="-31.87726841389416" lon="116.42642008361582"><ele>313.0</ele><time>2026-04-05T05:59:09Z</time></trkpt><trkpt lat="-31.87720705652781" lon="116.4261806542385"><ele>313.0</ele><time>2026-04-05T05:59:10Z</time></trkpt><trkpt lat="-31.87714388110877" lon="116.42594038147661"><ele>314.0</ele><time>2026-04-05T05:59:11Z</time></trkpt><trkpt lat="-31.877078312324905" lon="116.42569789965074"><ele>315.0</ele><time>2026-04-05T05:59:12Z</time></trkpt><trkpt lat="-31.877013294786526" lon="116.42546004662054"><ele>316.0</ele><time>2026-04-05T05:59:13Z</time></trkpt><trkpt lat="-31.876948746217302" lon="116.42521674993195"><ele>316.66666666666663</ele><time>2026-04-05T05:59:14Z</time></trkpt><trkpt lat="-31.876884684271253" lon="116.42497157847505"><ele>317.3333333333333</ele><time>2026-04-05T05:59:15Z</time></trkpt><trkpt lat="-31.87681920963609" lon="116.42472601309731"><ele>318.0</ele><time>2026-04-05T05:59:16Z</time></trkpt><trkpt lat="-31.87675054075759" lon="116.42447997671302"><ele>318.0</ele><time>2026-04-05T05:59:17Z</time></trkpt><trkpt lat="-31.87668192753239" lon="116.42423270067175"><ele>318.0</ele><time>2026-04-05T05:59:18Z</time></trkpt><trkpt lat="-31.876617350692225" lon="116.4239876249994"><ele>318.0</ele><time>2026-04-05T05:59:19Z</time></trkpt><trkpt lat="-31.87655493588572" lon="116.42374262072165"><ele>316.6666666666667</ele><time>2026-04-05T05:59:20Z</time></trkpt><trkpt lat="-31.87649948165857" lon="116.4234928822201"><ele>315.33333333333337</ele><time>2026-04-05T05:59:21Z</time></trkpt><trkpt lat="-31.87645066065166" lon="116.42324070376428"><ele>314.0</ele><time>2026-04-05T05:59:22Z</time></trkpt><trkpt lat="-31.876403726780765" lon="116.42299033687814"><ele>314.33333333333337</ele><time>2026-04-05T05:59:23Z</time></trkpt><trkpt lat="-31.876358109754992" lon="116.42274175898675"><ele>314.6666666666667</ele><time>2026-04-05T05:59:24Z</time></trkpt><trkpt lat="-31.876315152249926" lon="116.42249125129393"><ele>315.0</ele><time>2026-04-05T05:59:25Z</time></trkpt><trkpt lat="-31.876275004771568" lon="116.42224103017412"><ele>317.3333333333333</ele><time>2026-04-05T05:59:26Z</time></trkpt><trkpt lat="-31.87624079923523" lon="116.4219953301751"><ele>319.66666666666663</ele><time>2026-04-05T05:59:27Z</time></trkpt><trkpt lat="-31.876210860308156" lon="116.42175807291036"><ele>322.0</ele><time>2026-04-05T05:59:28Z</time></trkpt><trkpt lat="-31.87618424084855" lon="116.4215187668465"><ele>321.0</ele><time>2026-04-05T05:59:29Z</time></trkpt><trkpt lat="-31.876157654113033" lon="116.42127578054358"><ele>320.0</ele><time>2026-04-05T05:59:30Z</time></trkpt><trkpt lat="-31.876131930720636" lon="116.42103729098395"><ele>319.0</ele><time>2026-04-05T05:59:31Z</time></trkpt><trkpt lat="-31.876109728397818" lon="116.4207949651273"><ele>319.0</ele><time>2026-04-05T05:59:32Z</time></trkpt><trkpt lat="-31.87608848209074" lon="116.42054924139597"><ele>319.0</ele><time>2026-04-05T05:59:33Z</time></trkpt><trkpt lat="-31.876067971448066" lon="116.4203031988616"><ele>319.0</ele><time>2026-04-05T05:59:34Z</time></trkpt><trkpt lat="-31.876055629151164" lon="116.42005571388802"><ele>319.66666666666663</ele><time>2026-04-05T05:59:35Z</time></trkpt><trkpt lat="-31.876049003243182" lon="116.41981042442686"><ele>320.3333333333333</ele><time>2026-04-05T05:59:36Z</time></trkpt><trkpt lat="-31.87603938928933" lon="116.41956041264824"><ele>321.0</ele><time>2026-04-05T05:59:37Z</time></trkpt><trkpt lat="-31.876021164713148" lon="116.41931662592894"><ele>321.0</ele><time>2026-04-05T05:59:38Z</time></trkpt><trkpt lat="-31.875999249367123" lon="116.4190775269981"><ele>321.0</ele><time>2026-04-05T05:59:39Z</time></trkpt><trkpt lat="-31.87598110878567" lon="116.41884210709402"><ele>321.0</ele><time>2026-04-05T05:59:40Z</time></trkpt><trkpt lat="-31.875967754128638" lon="116.4186077417244"><ele>321.0</ele><time>2026-04-05T05:59:41Z</time></trkpt><trkpt lat="-31.87595950023257" lon="116.41837106903952"><ele>321.0</ele><time>2026-04-05T05:59:42Z</time></trkpt><trkpt lat="-31.875949444785174" lon="116.41813188465773"><ele>321.0</ele><time>2026-04-05T05:59:43Z</time></trkpt><trkpt lat="-31.875934584235168" lon="116.41789661216872"><ele>319.6666666666667</ele><time>2026-04-05T05:59:44Z</time></trkpt><trkpt lat="-31.87591636299234" lon="116.41765832149453"><ele>318.33333333333337</ele><time>2026-04-05T05:59:45Z</time></trkpt><trkpt lat="-31.875900237276714" lon="116.41742188363716"><ele>317.0</ele><time>2026-04-05T05:59:46Z</time></trkpt><trkpt lat="-31.875882665030904" lon="116.41718593841526"><ele>317.33333333333337</ele><time>2026-04-05T05:59:47Z</time></trkpt><trkpt lat="-31.875866913359147" lon="116.41694590190143"><ele>317.6666666666667</ele><time>2026-04-05T05:59:48Z</time></trkpt><trkpt lat="-31.875852772752722" lon="116.41670422368414"><ele>318.0</ele><time>2026-04-05T05:59:49Z</time></trkpt><trkpt lat="-31.87583811203377" lon="116.41646293579232"><ele>318.0</ele><time>2026-04-05T05:59:50Z</time></trkpt><trkpt lat="-31.87581967333561" lon="116.41621727094086"><ele>318.0</ele><time>2026-04-05T05:59:51Z</time></trkpt><trkpt lat="-31.87579564660553" lon="116.41596741196459"><ele>318.0</ele><time>2026-04-05T05:59:52Z</time></trkpt><trkpt lat="-31.875774618158633" lon="116.41571628496182"><ele>318.0</ele><time>2026-04-05T05:59:53Z</time></trkpt><trkpt lat="-31.875755423680758" lon="116.41547104570216"><ele>318.0</ele><time>2026-04-05T05:59:54Z</time></trkpt><trkpt lat="-31.875734061946616" lon="116.41522123256388"><ele>318.0</ele><time>2026-04-05T05:59:55Z</time></trkpt><trkpt lat="-31.875714854412283" lon="116.41497063044362"><ele>318.0</ele><time>2026-04-05T05:59:56Z</time></trkpt><trkpt lat="-31.875698478794735" lon="116.41472223115794"><ele>318.0</ele><time>2026-04-05T05:59:57Z</time></trkpt><trkpt lat="-31.87568288979502" lon="116.41447345251"><ele>318.0</ele><time>2026-04-05T05:59:58Z</time></trkpt><trkpt lat="-31.875666470983294" lon="116.4142270714887"><ele>317.6666666666667</ele><time>2026-04-05T05:59:59Z</time></trkpt><trkpt lat="-31.87565061419828" lon="116.41397590025346"><ele>317.33333333333337</ele><time>2026-04-05T06:00:00Z</time></trkpt><trkpt lat="-31.875638508292617" lon="116.41372600385444"><ele>317.0</ele><time>2026-04-05T06:00:01Z</time></trkpt><trkpt lat="-31.875626962553408" lon="116.41347513270514"><ele>317.0</ele><time>2026-04-05T06:00:02Z</time></trkpt><trkpt lat="-31.875609817377043" lon="116.4132234805391"><ele>317.0</ele><time>2026-04-05T06:00:03Z</time></trkpt><trkpt lat="-31.875592326633" lon="116.41297784224982"><ele>317.0</ele><time>2026-04-05T06:00:04Z</time></trkpt><trkpt lat="-31.875573975133637" lon="116.41272708446053"><ele>317.33333333333337</ele><time>2026-04-05T06:00:05Z</time></trkpt><trkpt lat="-31.875556893918116" lon="116.41247944952616"><ele>317.6666666666667</ele><time>2026-04-05T06:00:06Z</time></trkpt><trkpt lat="-31.875542061546515" lon="116.41222781579329"><ele>318.0</ele><time>2026-04-05T06:00:07Z</time></trkpt><trkpt lat="-31.875526927403655" lon="116.41198101206236"><ele>319.3333333333333</ele><time>2026-04-05T06:00:08Z</time></trkpt><trkpt lat="-31.87550840278647" lon="116.41172906774271"><ele>320.66666666666663</ele><time>2026-04-05T06:00:09Z</time></trkpt><trkpt lat="-31.875491918570397" lon="116.41148187019614"><ele>322.0</ele><time>2026-04-05T06:00:10Z</time></trkpt><trkpt lat="-31.875477015938078" lon="116.41123280764329"><ele>324.0</ele><time>2026-04-05T06:00:11Z</time></trkpt><trkpt lat="-31.875463135630206" lon="116.41098664864725"><ele>326.0</ele><time>2026-04-05T06:00:12Z</time></trkpt><trkpt lat="-31.87545059446504" lon="116.41073790026307"><ele>328.0</ele><time>2026-04-05T06:00:13Z</time></trkpt><trkpt lat="-31.875447960778658" lon="116.41048882957543"><ele>328.3333333333333</ele><time>2026-04-05T06:00:14Z</time></trkpt><trkpt lat="-31.875458402244153" lon="116.41024755311136"><ele>328.6666666666667</ele><time>2026-04-05T06:00:15Z</time></trkpt><trkpt lat="-31.875481666195004" lon="116.41000497351916"><ele>329.0</ele><time>2026-04-05T06:00:16Z</time></trkpt><trkpt lat="-31.875503192097895" lon="116.40976608793054"><ele>329.0</ele><time>2026-04-05T06:00:17Z</time></trkpt><trkpt lat="-31.87552559048403" lon="116.40952168287949"><ele>329.0</ele><time>2026-04-05T06:00:18Z</time></trkpt><trkpt lat="-31.875544782910218" lon="116.40927756397996"><ele>329.0</ele><time>2026-04-05T06:00:19Z</time></trkpt><trkpt lat="-31.875560297552973" lon="116.40903068124007"><ele>328.6666666666667</ele><time>2026-04-05T06:00:20Z</time></trkpt><trkpt lat="-31.875570205769087" lon="116.40878399060975"><ele>328.3333333333333</ele><time>2026-04-05T06:00:21Z</time></trkpt><trkpt lat="-31.875572352351217" lon="116.40853152864476"><ele>328.0</ele><time>2026-04-05T06:00:22Z</time></trkpt><trkpt lat="-31.875566684938118" lon="116.40828368292543"><ele>328.0</ele><time>2026-04-05T06:00:23Z</time></trkpt><trkpt lat="-31.875559399658226" lon="116.40802765900497"><ele>328.0</ele><time>2026-04-05T06:00:24Z</time></trkpt><trkpt lat="-31.875555614851702" lon="116.4077738922852"><ele>328.0</ele><time>2026-04-05T06:00:25Z</time></trkpt><trkpt lat="-31.875552881955773" lon="116.40751251926692"><ele>326.66666666666663</ele><time>2026-04-05T06:00:26Z</time></trkpt><trkpt lat="-31.875551599791716" lon="116.40725772916156"><ele>325.3333333333333</ele><time>2026-04-05T06:00:27Z</time></trkpt><trkpt lat="-31.875550993165565" lon="116.40699880050417"><ele>324.0</ele><time>2026-04-05T06:00:28Z</time></trkpt><trkpt lat="-31.87554741059182" lon="116.4067380227178"><ele>323.3333333333333</ele><time>2026-04-05T06:00:29Z</time></trkpt><trkpt lat="-31.875542546542416" lon="116.40648251649334"><ele>322.66666666666663</ele><time>2026-04-05T06:00:30Z</time></trkpt><trkpt lat="-31.875536630705216" lon="116.40622351093002"><ele>322.0</ele><time>2026-04-05T06:00:31Z</time></trkpt><trkpt lat="-31.87552690124426" lon="116.40596651443458"><ele>322.0</ele><time>2026-04-05T06:00:32Z</time></trkpt><trkpt lat="-31.875510731870374" lon="116.40570916146378"><ele>322.0</ele><time>2026-04-05T06:00:33Z</time></trkpt><trkpt lat="-31.87548362106675" lon="116.4054592320745"><ele>322.0</ele><time>2026-04-05T06:00:34Z</time></trkpt><trkpt lat="-31.87544682545005" lon="116.40520115312498"><ele>322.0</ele><time>2026-04-05T06:00:35Z</time></trkpt><trkpt lat="-31.87540314083259" lon="116.40494442400997"><ele>322.0</ele><time>2026-04-05T06:00:36Z</time></trkpt><trkpt lat="-31.875352678749277" lon="116.40468741436143"><ele>322.0</ele><time>2026-04-05T06:00:37Z</time></trkpt><trkpt lat="-31.875304679042607" lon="116.40443278467666"><ele>322.0</ele><time>2026-04-05T06:00:38Z</time></trkpt><trkpt lat="-31.875260635097323" lon="116.40418056728228"><ele>322.0</ele><time>2026-04-05T06:00:39Z</time></trkpt><trkpt lat="-31.87521839482511" lon="116.40393030906911"><ele>322.0</ele><time>2026-04-05T06:00:40Z</time></trkpt><trkpt lat="-31.87517825401947" lon="116.40368149174493"><ele>321.66666666666663</ele><time>2026-04-05T06:00:41Z</time></trkpt><trkpt lat="-31.875145817513072" lon="116.40342780052424"><ele>321.3333333333333</ele><time>2026-04-05T06:00:42Z</time></trkpt><trkpt lat="-31.8751295845582" lon="116.40317413075016"><ele>321.0</ele><time>2026-04-05T06:00:43Z</time></trkpt><trkpt lat="-31.87512531170238" lon="116.40291491691767"><ele>321.0</ele><time>2026-04-05T06:00:44Z</time></trkpt><trkpt lat="-31.875127034307365" lon="116.40265467260245"><ele>321.0</ele><time>2026-04-05T06:00:45Z</time></trkpt><trkpt lat="-31.875130393789444" lon="116.40238798569726"><ele>321.0</ele><time>2026-04-05T06:00:46Z</time></trkpt><trkpt lat="-31.875128125209027" lon="116.40212351850454"><ele>321.0</ele><time>2026-04-05T06:00:47Z</time></trkpt><trkpt lat="-31.875127853862608" lon="116.40185773243472"><ele>321.0</ele><time>2026-04-05T06:00:48Z</time></trkpt><trkpt lat="-31.875128256111754" lon="116.40158949388349"><ele>322.0</ele><time>2026-04-05T06:00:49Z</time></trkpt><trkpt lat="-31.875127959570964" lon="116.40132044255309"><ele>323.0</ele><time>2026-04-05T06:00:50Z</time></trkpt><trkpt lat="-31.875124708606414" lon="116.40105512392918"><ele>323.0</ele><time>2026-04-05T06:00:51Z</time></trkpt><trkpt lat="-31.875124377211428" lon="116.40078623428163"><ele>323.0</ele><time>2026-04-05T06:00:52Z</time></trkpt><trkpt lat="-31.87512328045533" lon="116.40051984030052"><ele>323.33333333333337</ele><time>2026-04-05T06:00:53Z</time></trkpt><trkpt lat="-31.875123238232856" lon="116.40025891242318"><ele>323.6666666666667</ele><time>2026-04-05T06:00:54Z</time></trkpt><trkpt lat="-31.875118992244488" lon="116.40000348822572"><ele>324.0</ele><time>2026-04-05T06:00:55Z</time></trkpt><trkpt lat="-31.87511530033899" lon="116.39974704336743"><ele>323.3333333333333</ele><time>2026-04-05T06:00:56Z</time></trkpt><trkpt lat="-31.875116071901818" lon="116.39949157191224"><ele>322.66666666666663</ele><time>2026-04-05T06:00:57Z</time></trkpt><trkpt lat="-31.875122612856554" lon="116.39923120998651"><ele>322.0</ele><time>2026-04-05T06:00:58Z</time></trkpt><trkpt lat="-31.875132731623395" lon="116.39896680102325"><ele>323.0</ele><time>2026-04-05T06:00:59Z</time></trkpt><trkpt lat="-31.87514860788872" lon="116.39869648582514"><ele>324.0</ele><time>2026-04-05T06:01:00Z</time></trkpt><trkpt lat="-31.875167577838848" lon="116.39842313052038"><ele>324.0</ele><time>2026-04-05T06:01:01Z</time></trkpt><trkpt lat="-31.875188474939797" lon="116.39814913604"><ele>324.0</ele><time>2026-04-05T06:01:02Z</time></trkpt><trkpt lat="-31.875210939070612" lon="116.39786986535354"><ele>322.5</ele><time>2026-04-05T06:01:03Z</time></trkpt><trkpt lat="-31.875228860112276" lon="116.39759545141165"><ele>321.0</ele><time>2026-04-05T06:01:04Z</time></trkpt><trkpt lat="-31.875243956096202" lon="116.3973205760981"><ele>318.5</ele><time>2026-04-05T06:01:05Z</time></trkpt><trkpt lat="-31.875254273422108" lon="116.39705140133891"><ele>316.0</ele><time>2026-04-05T06:01:06Z</time></trkpt><trkpt lat="-31.875256472505185" lon="116.39678504939897"><ele>316.0</ele><time>2026-04-05T06:01:07Z</time></trkpt><trkpt lat="-31.875244507052443" lon="116.39651923823219"><ele>316.0</ele><time>2026-04-05T06:01:08Z</time></trkpt><trkpt lat="-31.875228241586335" lon="116.39624720538214"><ele>313.0</ele><time>2026-04-05T06:01:09Z</time></trkpt><trkpt lat="-31.87521062661329" lon="116.39597362203781"><ele>310.0</ele><time>2026-04-05T06:01:10Z</time></trkpt><trkpt lat="-31.875193756942235" lon="116.39570226019788"><ele>310.3333333333333</ele><time>2026-04-05T06:01:11Z</time></trkpt><trkpt lat="-31.875177989366108" lon="116.39544093503514"><ele>310.6666666666667</ele><time>2026-04-05T06:01:12Z</time></trkpt><trkpt lat="-31.875164298933974" lon="116.39519051772739"><ele>311.0</ele><time>2026-04-05T06:01:13Z</time></trkpt><trkpt lat="-31.87515242437945" lon="116.3949435300577"><ele>311.0</ele><time>2026-04-05T06:01:14Z</time></trkpt><trkpt lat="-31.87514187292997" lon="116.39470941718365"><ele>311.0</ele><time>2026-04-05T06:01:15Z</time></trkpt><trkpt lat="-31.875130492941175" lon="116.39447450880907"><ele>311.0</ele><time>2026-04-05T06:01:16Z</time></trkpt><trkpt lat="-31.875117120552922" lon="116.39423771205696"><ele>311.0</ele><time>2026-04-05T06:01:17Z</time></trkpt><trkpt lat="-31.875103115135477" lon="116.39400066228535"><ele>311.0</ele><time>2026-04-05T06:01:18Z</time></trkpt><trkpt lat="-31.87509445207854" lon="116.39376335419041"><ele>311.0</ele><time>2026-04-05T06:01:19Z</time></trkpt><trkpt lat="-31.87509256373283" lon="116.39351994334088"><ele>310.0</ele><time>2026-04-05T06:01:20Z</time></trkpt><trkpt lat="-31.87510872927974" lon="116.3932727479975"><ele>309.0</ele><time>2026-04-05T06:01:21Z</time></trkpt><trkpt lat="-31.8751460577135" lon="116.39302161123378"><ele>308.0</ele><time>2026-04-05T06:01:22Z</time></trkpt><trkpt lat="-31.875198099187596" lon="116.39277664663392"><ele>308.0</ele><time>2026-04-05T06:01:23Z</time></trkpt><trkpt lat="-31.875264447528206" lon="116.39254270909865"><ele>308.0</ele><time>2026-04-05T06:01:24Z</time></trkpt><trkpt lat="-31.875336904673738" lon="116.39232966202461"><ele>308.0</ele><time>2026-04-05T06:01:25Z</time></trkpt><trkpt lat="-31.875413013392667" lon="116.39212885395779"><ele>308.6666666666667</ele><time>2026-04-05T06:01:26Z</time></trkpt><trkpt lat="-31.87548911050194" lon="116.39193289561537"><ele>309.3333333333333</ele><time>2026-04-05T06:01:27Z</time></trkpt><trkpt lat="-31.875564291929297" lon="116.39174129688712"><ele>310.0</ele><time>2026-04-05T06:01:28Z</time></trkpt><trkpt lat="-31.87564065756395" lon="116.39155053462581"><ele>310.0</ele><time>2026-04-05T06:01:29Z</time></trkpt><trkpt lat="-31.87570879570595" lon="116.39136402047326"><ele>310.0</ele><time>2026-04-05T06:01:30Z</time></trkpt><trkpt lat="-31.875772611941997" lon="116.39118061778753"><ele>310.0</ele><time>2026-04-05T06:01:31Z</time></trkpt><trkpt lat="-31.87583959006839" lon="116.39100140651357"><ele>310.66666666666663</ele><time>2026-04-05T06:01:32Z</time></trkpt><trkpt lat="-31.875910027004615" lon="116.39082151875725"><ele>311.3333333333333</ele><time>2026-04-05T06:01:33Z</time></trkpt><trkpt lat="-31.87597931699911" lon="116.39064129609932"><ele>312.0</ele><time>2026-04-05T06:01:34Z</time></trkpt><trkpt lat="-31.87604256362185" lon="116.39046667974563"><ele>312.6666666666667</ele><time>2026-04-05T06:01:35Z</time></trkpt><trkpt lat="-31.87611189893922" lon="116.3902838985146"><ele>313.33333333333337</ele><time>2026-04-05T06:01:36Z</time></trkpt><trkpt lat="-31.87618688712602" lon="116.3900989608906"><ele>314.0</ele><time>2026-04-05T06:01:37Z</time></trkpt><trkpt lat="-31.876272279408408" lon="116.38991153176178"><ele>314.0</ele><time>2026-04-05T06:01:38Z</time></trkpt><trkpt lat="-31.876365980054903" lon="116.38973452547809"><ele>314.0</ele><time>2026-04-05T06:01:39Z</time></trkpt><trkpt lat="-31.876468205159536" lon="116.3895546416471"><ele>314.0</ele><time>2026-04-05T06:01:40Z</time></trkpt><trkpt lat="-31.87657727677911" lon="116.38937674774391"><ele>313.33333333333337</ele><time>2026-04-05T06:01:41Z</time></trkpt><trkpt lat="-31.876690644240746" lon="116.3892000157507"><ele>312.6666666666667</ele><time>2026-04-05T06:01:42Z</time></trkpt><trkpt lat="-31.876802657946847" lon="116.38901484729486"><ele>312.0</ele><time>2026-04-05T06:01:43Z</time></trkpt><trkpt lat="-31.876909527873263" lon="116.38883294509333"><ele>313.6666666666667</ele><time>2026-04-05T06:01:44Z</time></trkpt><trkpt lat="-31.877020415865623" lon="116.38864473294322"><ele>315.33333333333337</ele><time>2026-04-05T06:01:45Z</time></trkpt><trkpt lat="-31.87712889269483" lon="116.38845786834806"><ele>317.0</ele><time>2026-04-05T06:01:46Z</time></trkpt><trkpt lat="-31.877237110368426" lon="116.38827317240447"><ele>317.0</ele><time>2026-04-05T06:01:47Z</time></trkpt><trkpt lat="-31.877353673165338" lon="116.38808507610185"><ele>317.0</ele><time>2026-04-05T06:01:48Z</time></trkpt><trkpt lat="-31.877462685371036" lon="116.38790690082308"><ele>317.0</ele><time>2026-04-05T06:01:49Z</time></trkpt><trkpt lat="-31.87757426922143" lon="116.38772806637725"><ele>318.0</ele><time>2026-04-05T06:01:50Z</time></trkpt><trkpt lat="-31.877696481178575" lon="116.38755121306164"><ele>319.0</ele><time>2026-04-05T06:01:51Z</time></trkpt><trkpt lat="-31.877826275579963" lon="116.38738417726513"><ele>320.0</ele><time>2026-04-05T06:01:52Z</time></trkpt><trkpt lat="-31.87796627587688" lon="116.38722957701263"><ele>321.0</ele><time>2026-04-05T06:01:53Z</time></trkpt><trkpt lat="-31.878112176203764" lon="116.3870795750646"><ele>322.0</ele><time>2026-04-05T06:01:54Z</time></trkpt><trkpt lat="-31.87825128533833" lon="116.38694238523787"><ele>323.0</ele><time>2026-04-05T06:01:55Z</time></trkpt><trkpt lat="-31.87839333362079" lon="116.38680307114353"><ele>321.6666666666667</ele><time>2026-04-05T06:01:56Z</time></trkpt><trkpt lat="-31.878536491550026" lon="116.38666000829315"><ele>320.3333333333333</ele><time>2026-04-05T06:01:57Z</time></trkpt><trkpt lat="-31.878676442768548" lon="116.38651395480751"><ele>319.0</ele><time>2026-04-05T06:01:58Z</time></trkpt><trkpt lat="-31.87881415802953" lon="116.38636872735324"><ele>319.0</ele><time>2026-04-05T06:01:59Z</time></trkpt><trkpt lat="-31.878959068219597" lon="116.38621291752786"><ele>319.0</ele><time>2026-04-05T06:02:00Z</time></trkpt><trkpt lat="-31.87909940743492" lon="116.38605530881114"><ele>319.0</ele><time>2026-04-05T06:02:01Z</time></trkpt><trkpt lat="-31.87923862626697" lon="116.38588571980469"><ele>319.0</ele><time>2026-04-05T06:02:02Z</time></trkpt><trkpt lat="-31.879374241420678" lon="116.38570716778989"><ele>319.0</ele><time>2026-04-05T06:02:03Z</time></trkpt><trkpt lat="-31.87948246867135" lon="116.38553073623065"><ele>319.0</ele><time>2026-04-05T06:02:04Z</time></trkpt><trkpt lat="-31.87957410401993" lon="116.38533823695658"><ele>319.0</ele><time>2026-04-05T06:02:05Z</time></trkpt><trkpt lat="-31.87966060271117" lon="116.38513013359604"><ele>319.0</ele><time>2026-04-05T06:02:06Z</time></trkpt><trkpt lat="-31.87973809491305" lon="116.38490985050427"><ele>319.0</ele><time>2026-04-05T06:02:07Z</time></trkpt><trkpt lat="-31.87980192549068" lon="116.38468426866991"><ele>319.3333333333333</ele><time>2026-04-05T06:02:08Z</time></trkpt><trkpt lat="-31.879851095359736" lon="116.38444425808487"><ele>319.6666666666667</ele><time>2026-04-05T06:02:09Z</time></trkpt><trkpt lat="-31.879889149910706" lon="116.38419737314557"><ele>320.0</ele><time>2026-04-05T06:02:10Z</time></trkpt><trkpt lat="-31.87991652123137" lon="116.38394660974787"><ele>319.6666666666667</ele><time>2026-04-05T06:02:11Z</time></trkpt><trkpt lat="-31.87993170269213" lon="116.38369210257139"><ele>319.3333333333333</ele><time>2026-04-05T06:02:12Z</time></trkpt><trkpt lat="-31.879933011093144" lon="116.38343181833775"><ele>319.0</ele><time>2026-04-05T06:02:13Z</time></trkpt><trkpt lat="-31.879932683816993" lon="116.38316277395256"><ele>318.66666666666663</ele><time>2026-04-05T06:02:14Z</time></trkpt><trkpt lat="-31.879933293406854" lon="116.38290326599105"><ele>318.3333333333333</ele><time>2026-04-05T06:02:15Z</time></trkpt><trkpt lat="-31.879934630023268" lon="116.38265153897049"><ele>318.0</ele><time>2026-04-05T06:02:16Z</time></trkpt><trkpt lat="-31.879932839851747" lon="116.38239532401121"><ele>316.3333333333333</ele><time>2026-04-05T06:02:17Z</time></trkpt><trkpt lat="-31.87991837866613" lon="116.38213907696047"><ele>314.66666666666663</ele><time>2026-04-05T06:02:18Z</time></trkpt><trkpt lat="-31.879891070495994" lon="116.38188296180991"><ele>313.0</ele><time>2026-04-05T06:02:19Z</time></trkpt><trkpt lat="-31.87985415401735" lon="116.38162787555308"><ele>313.0</ele><time>2026-04-05T06:02:20Z</time></trkpt><trkpt lat="-31.87981567686575" lon="116.38136899806817"><ele>313.0</ele><time>2026-04-05T06:02:21Z</time></trkpt><trkpt lat="-31.879778078926954" lon="116.38111362757031"><ele>313.0</ele><time>2026-04-05T06:02:22Z</time></trkpt><trkpt lat="-31.879741867508663" lon="116.38085568186985"><ele>311.66666666666663</ele><time>2026-04-05T06:02:23Z</time></trkpt><trkpt lat="-31.87970749098159" lon="116.38060495428033"><ele>310.3333333333333</ele><time>2026-04-05T06:02:24Z</time></trkpt><trkpt lat="-31.879676771722185" lon="116.38036652131467"><ele>309.0</ele><time>2026-04-05T06:02:25Z</time></trkpt><trkpt lat="-31.879644502371914" lon="116.38013506869972"><ele>308.0</ele><time>2026-04-05T06:02:26Z</time></trkpt><trkpt lat="-31.87960987383457" lon="116.37989837929486"><ele>307.0</ele><time>2026-04-05T06:02:27Z</time></trkpt><trkpt lat="-31.879576350295313" lon="116.37965565042832"><ele>306.0</ele><time>2026-04-05T06:02:28Z</time></trkpt><trkpt lat="-31.87954616440505" lon="116.37940686803276"><ele>306.0</ele><time>2026-04-05T06:02:29Z</time></trkpt><trkpt lat="-31.87951460087096" lon="116.3791600166109"><ele>306.0</ele><time>2026-04-05T06:02:30Z</time></trkpt><trkpt lat="-31.879481569714653" lon="116.37891300165222"><ele>306.0</ele><time>2026-04-05T06:02:31Z</time></trkpt><trkpt lat="-31.87944661736834" lon="116.37867257780442"><ele>304.6666666666667</ele><time>2026-04-05T06:02:32Z</time></trkpt><trkpt lat="-31.879412949147348" lon="116.37842562514047"><ele>303.33333333333337</ele><time>2026-04-05T06:02:33Z</time></trkpt><trkpt lat="-31.879377873732555" lon="116.37818326076895"><ele>302.0</ele><time>2026-04-05T06:02:34Z</time></trkpt><trkpt lat="-31.879340988453286" lon="116.37793553964131"><ele>302.0</ele><time>2026-04-05T06:02:35Z</time></trkpt><trkpt lat="-31.87930447386147" lon="116.37768688617642"><ele>302.0</ele><time>2026-04-05T06:02:36Z</time></trkpt><trkpt lat="-31.87927133433631" lon="116.377441761145"><ele>302.0</ele><time>2026-04-05T06:02:37Z</time></trkpt><trkpt lat="-31.87923909737365" lon="116.37719174456065"><ele>303.0</ele><time>2026-04-05T06:02:38Z</time></trkpt><trkpt lat="-31.879203396458234" lon="116.37694031664422"><ele>304.0</ele><time>2026-04-05T06:02:39Z</time></trkpt><trkpt lat="-31.879165672635583" lon="116.37668523864987"><ele>305.0</ele><time>2026-04-05T06:02:40Z</time></trkpt><trkpt lat="-31.87913157604723" lon="116.37643035144679"><ele>306.33333333333337</ele><time>2026-04-05T06:02:41Z</time></trkpt><trkpt lat="-31.87909715359248" lon="116.37617430322113"><ele>307.6666666666667</ele><time>2026-04-05T06:02:42Z</time></trkpt><trkpt lat="-31.879064985785288" lon="116.37591936693623"><ele>309.0</ele><time>2026-04-05T06:02:43Z</time></trkpt><trkpt lat="-31.87903106969461" lon="116.37566808506602"><ele>310.0</ele><time>2026-04-05T06:02:44Z</time></trkpt><trkpt lat="-31.878997483106403" lon="116.3754227128165"><ele>311.0</ele><time>2026-04-05T06:02:45Z</time></trkpt><trkpt lat="-31.87896194536389" lon="116.3751730069624"><ele>312.0</ele><time>2026-04-05T06:02:46Z</time></trkpt><trkpt lat="-31.87892808876345" lon="116.37492233573519"><ele>312.6666666666667</ele><time>2026-04-05T06:02:47Z</time></trkpt><trkpt lat="-31.878896721865626" lon="116.3746660044475"><ele>313.33333333333337</ele><time>2026-04-05T06:02:48Z</time></trkpt><trkpt lat="-31.878866128718958" lon="116.37440920669955"><ele>314.0</ele><time>2026-04-05T06:02:49Z</time></trkpt><trkpt lat="-31.87883492198515" lon="116.37415545715152"><ele>314.0</ele><time>2026-04-05T06:02:50Z</time></trkpt><trkpt lat="-31.878801038606312" lon="116.3739063406677"><ele>314.0</ele><time>2026-04-05T06:02:51Z</time></trkpt><trkpt lat="-31.878767541693485" lon="116.37366096653363"><ele>314.0</ele><time>2026-04-05T06:02:52Z</time></trkpt><trkpt lat="-31.87873393675366" lon="116.37341982208048"><ele>316.6666666666667</ele><time>2026-04-05T06:02:53Z</time></trkpt><trkpt lat="-31.878697706639255" lon="116.37317482689367"><ele>319.3333333333333</ele><time>2026-04-05T06:02:54Z</time></trkpt><trkpt lat="-31.87866269518131" lon="116.37293375772505"><ele>322.0</ele><time>2026-04-05T06:02:55Z</time></trkpt><trkpt lat="-31.87862797129775" lon="116.37269792707464"><ele>322.66666666666663</ele><time>2026-04-05T06:02:56Z</time></trkpt><trkpt lat="-31.87859603019181" lon="116.37245955583747"><ele>323.3333333333333</ele><time>2026-04-05T06:02:57Z</time></trkpt><trkpt lat="-31.87856516142454" lon="116.3722294208645"><ele>324.0</ele><time>2026-04-05T06:02:58Z</time></trkpt><trkpt lat="-31.87853599437554" lon="116.37200602198456"><ele>324.0</ele><time>2026-04-05T06:02:59Z</time></trkpt><trkpt lat="-31.878509315499553" lon="116.37178363151513"><ele>324.0</ele><time>2026-04-05T06:03:00Z</time></trkpt><trkpt lat="-31.87847812535152" lon="116.37155897806701"><ele>324.0</ele><time>2026-04-05T06:03:01Z</time></trkpt><trkpt lat="-31.878447997809587" lon="116.37133506113771"><ele>324.0</ele><time>2026-04-05T06:03:02Z</time></trkpt><trkpt lat="-31.878418088655984" lon="116.37110763131258"><ele>324.0</ele><time>2026-04-05T06:03:03Z</time></trkpt><trkpt lat="-31.878385310970792" lon="116.37087906523007"><ele>324.0</ele><time>2026-04-05T06:03:04Z</time></trkpt><trkpt lat="-31.878351685320137" lon="116.37064809932173"><ele>322.3333333333333</ele><time>2026-04-05T06:03:05Z</time></trkpt><trkpt lat="-31.878321434970392" lon="116.37041418462972"><ele>320.66666666666663</ele><time>2026-04-05T06:03:06Z</time></trkpt><trkpt lat="-31.878291900425136" lon="116.37017928516627"><ele>319.0</ele><time>2026-04-05T06:03:07Z</time></trkpt><trkpt lat="-31.87825880971411" lon="116.36994003681134"><ele>319.0</ele><time>2026-04-05T06:03:08Z</time></trkpt><trkpt lat="-31.878227522571095" lon="116.36970122646176"><ele>319.0</ele><time>2026-04-05T06:03:09Z</time></trkpt><trkpt lat="-31.87819824970914" lon="116.36946142843732"><ele>319.0</ele><time>2026-04-05T06:03:10Z</time></trkpt><trkpt lat="-31.878167200229573" lon="116.36921945389174"><ele>318.0</ele><time>2026-04-05T06:03:11Z</time></trkpt><trkpt lat="-31.87813470066899" lon="116.36897202639712"><ele>317.0</ele><time>2026-04-05T06:03:12Z</time></trkpt><trkpt lat="-31.878098003108587" lon="116.3687231228342"><ele>316.0</ele><time>2026-04-05T06:03:13Z</time></trkpt><trkpt lat="-31.87806480027024" lon="116.36847723723072"><ele>315.66666666666663</ele><time>2026-04-05T06:03:14Z</time></trkpt><trkpt lat="-31.8780305109638" lon="116.36823113392198"><ele>315.3333333333333</ele><time>2026-04-05T06:03:15Z</time></trkpt><trkpt lat="-31.87799691077463" lon="116.36799284765014"><ele>315.0</ele><time>2026-04-05T06:03:16Z</time></trkpt><trkpt lat="-31.87796347907925" lon="116.36775069438595"><ele>315.6666666666667</ele><time>2026-04-05T06:03:17Z</time></trkpt><trkpt lat="-31.877933510005324" lon="116.36750726898198"><ele>316.33333333333337</ele><time>2026-04-05T06:03:18Z</time></trkpt><trkpt lat="-31.87790158054182" lon="116.36726323195401"><ele>317.0</ele><time>2026-04-05T06:03:19Z</time></trkpt><trkpt lat="-31.877866973373372" lon="116.36701982144565"><ele>317.0</ele><time>2026-04-05T06:03:20Z</time></trkpt><trkpt lat="-31.87783322792075" lon="116.36677278379918"><ele>317.0</ele><time>2026-04-05T06:03:21Z</time></trkpt><trkpt lat="-31.877799529765408" lon="116.3665155444345"><ele>317.0</ele><time>2026-04-05T06:03:22Z</time></trkpt><trkpt lat="-31.87776407166281" lon="116.36626450696708"><ele>316.6666666666667</ele><time>2026-04-05T06:03:23Z</time></trkpt><trkpt lat="-31.87772663769534" lon="116.36600705345708"><ele>316.3333333333333</ele><time>2026-04-05T06:03:24Z</time></trkpt><trkpt lat="-31.877691045188666" lon="116.36575741013291"><ele>316.0</ele><time>2026-04-05T06:03:25Z</time></trkpt><trkpt lat="-31.87765995559198" lon="116.36552105577378"><ele>315.66666666666663</ele><time>2026-04-05T06:03:26Z</time></trkpt><trkpt lat="-31.877628507815864" lon="116.36528640562688"><ele>315.3333333333333</ele><time>2026-04-05T06:03:27Z</time></trkpt><trkpt lat="-31.877597589442406" lon="116.36505338340568"><ele>315.0</ele><time>2026-04-05T06:03:28Z</time></trkpt><trkpt lat="-31.877565016396037" lon="116.36482057156536"><ele>317.6666666666667</ele><time>2026-04-05T06:03:29Z</time></trkpt><trkpt lat="-31.877535325805297" lon="116.36458524058955"><ele>320.33333333333337</ele><time>2026-04-05T06:03:30Z</time></trkpt><trkpt lat="-31.877503803726487" lon="116.36434514871331"><ele>323.0</ele><time>2026-04-05T06:03:31Z</time></trkpt><trkpt lat="-31.87747130799684" lon="116.36410757483092"><ele>323.0</ele><time>2026-04-05T06:03:32Z</time></trkpt><trkpt lat="-31.877435800629044" lon="116.36386604367983"><ele>323.0</ele><time>2026-04-05T06:03:33Z</time></trkpt><trkpt lat="-31.87739952739119" lon="116.3636225540371"><ele>323.0</ele><time>2026-04-05T06:03:34Z</time></trkpt><trkpt lat="-31.877364773299856" lon="116.36337780954621"><ele>324.33333333333337</ele><time>2026-04-05T06:03:35Z</time></trkpt><trkpt lat="-31.87733304253108" lon="116.36312529699096"><ele>325.6666666666667</ele><time>2026-04-05T06:03:36Z</time></trkpt><trkpt lat="-31.87730258981219" lon="116.3628669911184"><ele>327.0</ele><time>2026-04-05T06:03:37Z</time></trkpt><trkpt lat="-31.877269902537037" lon="116.36260293631328"><ele>327.0</ele><time>2026-04-05T06:03:38Z</time></trkpt><trkpt lat="-31.877239349064013" lon="116.36234790909865"><ele>327.0</ele><time>2026-04-05T06:03:39Z</time></trkpt><trkpt lat="-31.877208670030782" lon="116.36210140960405"><ele>327.0</ele><time>2026-04-05T06:03:40Z</time></trkpt><trkpt lat="-31.877178298502233" lon="116.36184953014454"><ele>327.3333333333333</ele><time>2026-04-05T06:03:41Z</time></trkpt><trkpt lat="-31.87714779558011" lon="116.36160666793651"><ele>327.66666666666663</ele><time>2026-04-05T06:03:42Z</time></trkpt><trkpt lat="-31.87711943033622" lon="116.36136071071036"><ele>328.0</ele><time>2026-04-05T06:03:43Z</time></trkpt><trkpt lat="-31.877095298798576" lon="116.36111102145355"><ele>329.0</ele><time>2026-04-05T06:03:44Z</time></trkpt><trkpt lat="-31.87706926981483" lon="116.36086056493379"><ele>330.0</ele><time>2026-04-05T06:03:45Z</time></trkpt><trkpt lat="-31.87704251623031" lon="116.36061072958185"><ele>331.0</ele><time>2026-04-05T06:03:46Z</time></trkpt><trkpt lat="-31.87701469625776" lon="116.36036169749022"><ele>332.0</ele><time>2026-04-05T06:03:47Z</time></trkpt><trkpt lat="-31.876984492547038" lon="116.36011259035512"><ele>333.0</ele><time>2026-04-05T06:03:48Z</time></trkpt><trkpt lat="-31.876952071128123" lon="116.35986709344823"><ele>334.0</ele><time>2026-04-05T06:03:49Z</time></trkpt><trkpt lat="-31.87691827342024" lon="116.35962224188837"><ele>334.0</ele><time>2026-04-05T06:03:50Z</time></trkpt><trkpt lat="-31.87688362301624" lon="116.35938246437193"><ele>334.0</ele><time>2026-04-05T06:03:51Z</time></trkpt><trkpt lat="-31.876853669937706" lon="116.359146465757"><ele>334.0</ele><time>2026-04-05T06:03:52Z</time></trkpt><trkpt lat="-31.876825048552742" lon="116.35891180527727"><ele>335.3333333333333</ele><time>2026-04-05T06:03:53Z</time></trkpt><trkpt lat="-31.876796993069497" lon="116.35867579016993"><ele>336.6666666666667</ele><time>2026-04-05T06:03:54Z</time></trkpt><trkpt lat="-31.876769904684522" lon="116.35844295149346"><ele>338.0</ele><time>2026-04-05T06:03:55Z</time></trkpt><trkpt lat="-31.876744705475414" lon="116.35820864890609"><ele>338.6666666666667</ele><time>2026-04-05T06:03:56Z</time></trkpt><trkpt lat="-31.87671722779493" lon="116.35797451240857"><ele>339.3333333333333</ele><time>2026-04-05T06:03:57Z</time></trkpt><trkpt lat="-31.87669046386404" lon="116.35773713586686"><ele>340.0</ele><time>2026-04-05T06:03:58Z</time></trkpt><trkpt lat="-31.876662534068288" lon="116.35749468303045"><ele>340.0</ele><time>2026-04-05T06:03:59Z</time></trkpt><trkpt lat="-31.8766327857441" lon="116.35725329480306"><ele>340.0</ele><time>2026-04-05T06:04:00Z</time></trkpt><trkpt lat="-31.876601066934533" lon="116.35701390927935"><ele>340.0</ele><time>2026-04-05T06:04:01Z</time></trkpt><trkpt lat="-31.87657081956918" lon="116.35678904541246"><ele>341.66666666666663</ele><time>2026-04-05T06:04:02Z</time></trkpt><trkpt lat="-31.8765427096286" lon="116.35657043327281"><ele>343.3333333333333</ele><time>2026-04-05T06:04:03Z</time></trkpt><trkpt lat="-31.87651698566153" lon="116.35634820857027"><ele>345.0</ele><time>2026-04-05T06:04:04Z</time></trkpt><trkpt lat="-31.876491328546134" lon="116.35612594591468"><ele>345.0</ele><time>2026-04-05T06:04:05Z</time></trkpt><trkpt lat="-31.876464146971024" lon="116.35590230508267"><ele>345.0</ele><time>2026-04-05T06:04:06Z</time></trkpt><trkpt lat="-31.87643605960876" lon="116.35568445307686"><ele>345.0</ele><time>2026-04-05T06:04:07Z</time></trkpt><trkpt lat="-31.87640881395712" lon="116.35546328589038"><ele>345.0</ele><time>2026-04-05T06:04:08Z</time></trkpt><trkpt lat="-31.876380736689114" lon="116.35523901350601"><ele>345.0</ele><time>2026-04-05T06:04:09Z</time></trkpt><trkpt lat="-31.876353037792207" lon="116.35501418049205"><ele>345.0</ele><time>2026-04-05T06:04:10Z</time></trkpt><trkpt lat="-31.87632751698035" lon="116.35478820143635"><ele>345.6666666666667</ele><time>2026-04-05T06:04:11Z</time></trkpt><trkpt lat="-31.876299577887796" lon="116.35456550254275"><ele>346.33333333333337</ele><time>2026-04-05T06:04:12Z</time></trkpt><trkpt lat="-31.876270548010236" lon="116.35434110198726"><ele>347.0</ele><time>2026-04-05T06:04:13Z</time></trkpt><trkpt lat="-31.876242260171594" lon="116.35411600262458"><ele>347.0</ele><time>2026-04-05T06:04:14Z</time></trkpt><trkpt lat="-31.87621392401434" lon="116.35389047107941"><ele>347.0</ele><time>2026-04-05T06:04:15Z</time></trkpt><trkpt lat="-31.87618540758912" lon="116.35366566903812"><ele>347.0</ele><time>2026-04-05T06:04:16Z</time></trkpt><trkpt lat="-31.876154273830565" lon="116.35344827133653"><ele>347.0</ele><time>2026-04-05T06:04:17Z</time></trkpt><trkpt lat="-31.876125785336974" lon="116.35323217335554"><ele>347.0</ele><time>2026-04-05T06:04:18Z</time></trkpt><trkpt lat="-31.876097046810408" lon="116.3530148419106"><ele>347.0</ele><time>2026-04-05T06:04:19Z</time></trkpt><trkpt lat="-31.8760695474296" lon="116.35279252637265"><ele>347.0</ele><time>2026-04-05T06:04:20Z</time></trkpt><trkpt lat="-31.876041236096476" lon="116.35256815975393"><ele>347.0</ele><time>2026-04-05T06:04:21Z</time></trkpt><trkpt lat="-31.876012094020137" lon="116.35234403330635"><ele>347.0</ele><time>2026-04-05T06:04:22Z</time></trkpt><trkpt lat="-31.875983821779933" lon="116.35212066376131"><ele>346.6666666666667</ele><time>2026-04-05T06:04:23Z</time></trkpt><trkpt lat="-31.875953870278224" lon="116.35189896116812"><ele>346.3333333333333</ele><time>2026-04-05T06:04:24Z</time></trkpt><trkpt lat="-31.87592233728758" lon="116.35167990898903"><ele>346.0</ele><time>2026-04-05T06:04:25Z</time></trkpt><trkpt lat="-31.875890945274442" lon="116.3514600159017"><ele>347.0</ele><time>2026-04-05T06:04:26Z</time></trkpt><trkpt lat="-31.875861730714693" lon="116.35124041520959"><ele>348.0</ele><time>2026-04-05T06:04:27Z</time></trkpt><trkpt lat="-31.875834467014393" lon="116.35102223842591"><ele>349.0</ele><time>2026-04-05T06:04:28Z</time></trkpt><trkpt lat="-31.875804770606784" lon="116.35080516265228"><ele>349.0</ele><time>2026-04-05T06:04:29Z</time></trkpt><trkpt lat="-31.875773084300143" lon="116.35058889242713"><ele>349.0</ele><time>2026-04-05T06:04:30Z</time></trkpt><trkpt lat="-31.875739641447765" lon="116.35036632556282"><ele>349.0</ele><time>2026-04-05T06:04:31Z</time></trkpt><trkpt lat="-31.87570706890332" lon="116.35013915372433"><ele>347.66666666666663</ele><time>2026-04-05T06:04:32Z</time></trkpt><trkpt lat="-31.875673706804303" lon="116.34990733697066"><ele>346.3333333333333</ele><time>2026-04-05T06:04:33Z</time></trkpt><trkpt lat="-31.87564117661562" lon="116.3496702738424"><ele>345.0</ele><time>2026-04-05T06:04:34Z</time></trkpt><trkpt lat="-31.875608105156402" lon="116.3494336590843"><ele>343.0</ele><time>2026-04-05T06:04:35Z</time></trkpt><trkpt lat="-31.875571698893804" lon="116.34919635359788"><ele>341.0</ele><time>2026-04-05T06:04:36Z</time></trkpt><trkpt lat="-31.875537107017344" lon="116.34895911611625"><ele>339.0</ele><time>2026-04-05T06:04:37Z</time></trkpt><trkpt lat="-31.875504314136368" lon="116.34871972086894"><ele>337.3333333333333</ele><time>2026-04-05T06:04:38Z</time></trkpt><trkpt lat="-31.87547244485556" lon="116.34847735123562"><ele>335.66666666666663</ele><time>2026-04-05T06:04:39Z</time></trkpt><trkpt lat="-31.87543990484959" lon="116.34823629598533"><ele>334.0</ele><time>2026-04-05T06:04:40Z</time></trkpt><trkpt lat="-31.87540998539128" lon="116.34800352766733"><ele>333.3333333333333</ele><time>2026-04-05T06:04:41Z</time></trkpt><trkpt lat="-31.875380828864323" lon="116.34777331726981"><ele>332.6666666666667</ele><time>2026-04-05T06:04:42Z</time></trkpt><trkpt lat="-31.875349198340007" lon="116.34754578348176"><ele>332.0</ele><time>2026-04-05T06:04:43Z</time></trkpt><trkpt lat="-31.875319143840247" lon="116.34732786588174"><ele>332.0</ele><time>2026-04-05T06:04:44Z</time></trkpt><trkpt lat="-31.875293519445776" lon="116.34711781849037"><ele>332.0</ele><time>2026-04-05T06:04:45Z</time></trkpt><trkpt lat="-31.875266662017143" lon="116.34690410655226"><ele>332.0</ele><time>2026-04-05T06:04:46Z</time></trkpt><trkpt lat="-31.875236677665793" lon="116.3466861332321"><ele>332.0</ele><time>2026-04-05T06:04:47Z</time></trkpt><trkpt lat="-31.875206726523416" lon="116.34646594070546"><ele>332.0</ele><time>2026-04-05T06:04:48Z</time></trkpt><trkpt lat="-31.875176183346184" lon="116.34624097673911"><ele>332.0</ele><time>2026-04-05T06:04:49Z</time></trkpt><trkpt lat="-31.875146983129167" lon="116.34601415458623"><ele>332.6666666666667</ele><time>2026-04-05T06:04:50Z</time></trkpt><trkpt lat="-31.875119040986842" lon="116.34578931804211"><ele>333.3333333333333</ele><time>2026-04-05T06:04:51Z</time></trkpt><trkpt lat="-31.875091189034823" lon="116.34555435107562"><ele>334.0</ele><time>2026-04-05T06:04:52Z</time></trkpt><trkpt lat="-31.875061743241623" lon="116.34531822586615"><ele>331.66666666666663</ele><time>2026-04-05T06:04:53Z</time></trkpt><trkpt lat="-31.87503264284229" lon="116.34508847959098"><ele>329.3333333333333</ele><time>2026-04-05T06:04:54Z</time></trkpt><trkpt lat="-31.875002351845374" lon="116.34487540910928"><ele>327.0</ele><time>2026-04-05T06:04:55Z</time></trkpt><trkpt lat="-31.874971669800182" lon="116.34466764438679"><ele>326.6666666666667</ele><time>2026-04-05T06:04:56Z</time></trkpt><trkpt lat="-31.87494017533452" lon="116.34445171584892"><ele>326.33333333333337</ele><time>2026-04-05T06:04:57Z</time></trkpt><trkpt lat="-31.874910710397177" lon="116.3442222842785"><ele>326.0</ele><time>2026-04-05T06:04:58Z</time></trkpt><trkpt lat="-31.874881666658034" lon="116.34398735289041"><ele>325.6666666666667</ele><time>2026-04-05T06:04:59Z</time></trkpt><trkpt lat="-31.874852739205927" lon="116.34375067785572"><ele>325.3333333333333</ele><time>2026-04-05T06:05:00Z</time></trkpt><trkpt lat="-31.874822077196868" lon="116.34352033355648"><ele>325.0</ele><time>2026-04-05T06:05:01Z</time></trkpt><trkpt lat="-31.874791726351646" lon="116.34328880867423"><ele>325.0</ele><time>2026-04-05T06:05:02Z</time></trkpt><trkpt lat="-31.874761248411733" lon="116.34306047253213"><ele>325.0</ele><time>2026-04-05T06:05:03Z</time></trkpt><trkpt lat="-31.87473196648559" lon="116.34284483604286"><ele>325.0</ele><time>2026-04-05T06:05:04Z</time></trkpt><trkpt lat="-31.87470547493835" lon="116.34262257614776"><ele>324.0</ele><time>2026-04-05T06:05:05Z</time></trkpt><trkpt lat="-31.874682226405536" lon="116.3424063302572"><ele>323.0</ele><time>2026-04-05T06:05:06Z</time></trkpt><trkpt lat="-31.87466565601011" lon="116.34218952931276"><ele>322.0</ele><time>2026-04-05T06:05:07Z</time></trkpt><trkpt lat="-31.87466684840812" lon="116.3419706336446"><ele>320.66666666666663</ele><time>2026-04-05T06:05:08Z</time></trkpt><trkpt lat="-31.874708672651316" lon="116.3417538057172"><ele>319.3333333333333</ele><time>2026-04-05T06:05:09Z</time></trkpt><trkpt lat="-31.874749556104884" lon="116.34152714146877"><ele>318.0</ele><time>2026-04-05T06:05:10Z</time></trkpt><trkpt lat="-31.87478735123145" lon="116.34129112976666"><ele>318.0</ele><time>2026-04-05T06:05:11Z</time></trkpt><trkpt lat="-31.87484334795994" lon="116.34105662341929"><ele>318.0</ele><time>2026-04-05T06:05:12Z</time></trkpt><trkpt lat="-31.874891574490803" lon="116.34082903321314"><ele>318.0</ele><time>2026-04-05T06:05:13Z</time></trkpt><trkpt lat="-31.874934953657917" lon="116.3406043551728"><ele>317.3333333333333</ele><time>2026-04-05T06:05:14Z</time></trkpt><trkpt lat="-31.874976580473763" lon="116.34038091682444"><ele>316.66666666666663</ele><time>2026-04-05T06:05:15Z</time></trkpt><trkpt lat="-31.8750161026661" lon="116.3401659651382"><ele>316.0</ele><time>2026-04-05T06:05:16Z</time></trkpt><trkpt lat="-31.87505751106288" lon="116.33995044906312"><ele>316.0</ele><time>2026-04-05T06:05:17Z</time></trkpt><trkpt lat="-31.875099722832378" lon="116.33973061734041"><ele>316.0</ele><time>2026-04-05T06:05:18Z</time></trkpt><trkpt lat="-31.875142524935082" lon="116.3395047208592"><ele>316.0</ele><time>2026-04-05T06:05:19Z</time></trkpt><trkpt lat="-31.875186365526105" lon="116.33927751868468"><ele>313.3333333333333</ele><time>2026-04-05T06:05:20Z</time></trkpt><trkpt lat="-31.87522935801271" lon="116.33905524060977"><ele>310.6666666666667</ele><time>2026-04-05T06:05:21Z</time></trkpt><trkpt lat="-31.87527260545093" lon="116.33883681201924"><ele>308.0</ele><time>2026-04-05T06:05:22Z</time></trkpt><trkpt lat="-31.875313508762975" lon="116.33862352327478"><ele>308.0</ele><time>2026-04-05T06:05:23Z</time></trkpt><trkpt lat="-31.875354860483277" lon="116.33840406481636"><ele>308.0</ele><time>2026-04-05T06:05:24Z</time></trkpt><trkpt lat="-31.875397940555857" lon="116.33817192991069"><ele>308.0</ele><time>2026-04-05T06:05:25Z</time></trkpt><trkpt lat="-31.87544517436347" lon="116.33793456962306"><ele>307.0</ele><time>2026-04-05T06:05:26Z</time></trkpt><trkpt lat="-31.875492205988987" lon="116.33770361825175"><ele>306.0</ele><time>2026-04-05T06:05:27Z</time></trkpt><trkpt lat="-31.8755380442812" lon="116.3374801465812"><ele>305.0</ele><time>2026-04-05T06:05:28Z</time></trkpt><trkpt lat="-31.87558890158784" lon="116.33725286370368"><ele>305.6666666666667</ele><time>2026-04-05T06:05:29Z</time></trkpt><trkpt lat="-31.875649822679517" lon="116.3370352753221"><ele>306.3333333333333</ele><time>2026-04-05T06:05:30Z</time></trkpt><trkpt lat="-31.875720171647213" lon="116.33681593536939"><ele>307.0</ele><time>2026-04-05T06:05:31Z</time></trkpt><trkpt lat="-31.875797323103765" lon="116.33660260216743"><ele>307.0</ele><time>2026-04-05T06:05:32Z</time></trkpt><trkpt lat="-31.87587130081006" lon="116.33639139568584"><ele>307.0</ele><time>2026-04-05T06:05:33Z</time></trkpt><trkpt lat="-31.875945373827136" lon="116.33618098599668"><ele>307.0</ele><time>2026-04-05T06:05:34Z</time></trkpt><trkpt lat="-31.876011459878004" lon="116.33597496026604"><ele>305.0</ele><time>2026-04-05T06:05:35Z</time></trkpt><trkpt lat="-31.87607285244968" lon="116.33577137642968"><ele>303.0</ele><time>2026-04-05T06:05:36Z</time></trkpt><trkpt lat="-31.876131678097707" lon="116.33558052833888"><ele>301.0</ele><time>2026-04-05T06:05:37Z</time></trkpt><trkpt lat="-31.876195404406428" lon="116.33538192606505"><ele>299.66666666666663</ele><time>2026-04-05T06:05:38Z</time></trkpt><trkpt lat="-31.876260141592784" lon="116.33517509527226"><ele>298.3333333333333</ele><time>2026-04-05T06:05:39Z</time></trkpt><trkpt lat="-31.876321420335678" lon="116.33497759004644"><ele>297.0</ele><time>2026-04-05T06:05:40Z</time></trkpt><trkpt lat="-31.876386039617632" lon="116.33477414647768"><ele>297.6666666666667</ele><time>2026-04-05T06:05:41Z</time></trkpt><trkpt lat="-31.876451787302372" lon="116.33457980550533"><ele>298.33333333333337</ele><time>2026-04-05T06:05:42Z</time></trkpt><trkpt lat="-31.876518300898855" lon="116.33437308635624"><ele>299.0</ele><time>2026-04-05T06:05:43Z</time></trkpt><trkpt lat="-31.876582027400076" lon="116.33417122208147"><ele>299.0</ele><time>2026-04-05T06:05:44Z</time></trkpt><trkpt lat="-31.876642293811226" lon="116.33397001852516"><ele>299.0</ele><time>2026-04-05T06:05:45Z</time></trkpt><trkpt lat="-31.876701641718963" lon="116.33376954920051"><ele>299.0</ele><time>2026-04-05T06:05:46Z</time></trkpt><trkpt lat="-31.876757880472432" lon="116.33356638012127"><ele>297.33333333333337</ele><time>2026-04-05T06:05:47Z</time></trkpt><trkpt lat="-31.876810605692132" lon="116.3333533739262"><ele>295.6666666666667</ele><time>2026-04-05T06:05:48Z</time></trkpt><trkpt lat="-31.876856723656715" lon="116.33313724050798"><ele>294.0</ele><time>2026-04-05T06:05:49Z</time></trkpt><trkpt lat="-31.876884225482907" lon="116.33291612371423"><ele>292.0</ele><time>2026-04-05T06:05:50Z</time></trkpt><trkpt lat="-31.876896216760137" lon="116.33269954586716"><ele>290.0</ele><time>2026-04-05T06:05:51Z</time></trkpt><trkpt lat="-31.876902757129514" lon="116.33248420860977"><ele>288.0</ele><time>2026-04-05T06:05:52Z</time></trkpt><trkpt lat="-31.876928106231738" lon="116.33227153651389"><ele>286.6666666666667</ele><time>2026-04-05T06:05:53Z</time></trkpt><trkpt lat="-31.876928111989606" lon="116.33205183361886"><ele>285.33333333333337</ele><time>2026-04-05T06:05:54Z</time></trkpt><trkpt lat="-31.876950427844047" lon="116.33183187881413"><ele>284.0</ele><time>2026-04-05T06:05:55Z</time></trkpt><trkpt lat="-31.876968927625686" lon="116.33160973028662"><ele>285.0</ele><time>2026-04-05T06:05:56Z</time></trkpt><trkpt lat="-31.876991226372073" lon="116.33138868292387"><ele>286.0</ele><time>2026-04-05T06:05:57Z</time></trkpt><trkpt lat="-31.87704300835911" lon="116.33050543467954"><ele>287.0</ele><time>2026-04-05T06:06:01Z</time></trkpt><trkpt lat="-31.87705129208058" lon="116.33028552065655"><ele>288.0</ele><time>2026-04-05T06:06:02Z</time></trkpt><trkpt lat="-31.87705871267544" lon="116.33006034076789"><ele>289.0</ele><time>2026-04-05T06:06:03Z</time></trkpt><trkpt lat="-31.877059853520176" lon="116.32984077968348"><ele>289.3333333333333</ele><time>2026-04-05T06:06:04Z</time></trkpt><trkpt lat="-31.87705574463933" lon="116.32963777319587"><ele>289.6666666666667</ele><time>2026-04-05T06:06:05Z</time></trkpt><trkpt lat="-31.877044055726333" lon="116.32942687209724"><ele>290.0</ele><time>2026-04-05T06:06:06Z</time></trkpt><trkpt lat="-31.877012223856173" lon="116.32921744116125"><ele>290.0</ele><time>2026-04-05T06:06:07Z</time></trkpt><trkpt lat="-31.87696775528899" lon="116.32900534544753"><ele>290.0</ele><time>2026-04-05T06:06:08Z</time></trkpt><trkpt lat="-31.876925397195347" lon="116.32878999764398"><ele>290.0</ele><time>2026-04-05T06:06:09Z</time></trkpt><trkpt lat="-31.876884341938798" lon="116.32857771130524"><ele>289.0</ele><time>2026-04-05T06:06:10Z</time></trkpt><trkpt lat="-31.876840620314383" lon="116.32836104827038"><ele>288.0</ele><time>2026-04-05T06:06:11Z</time></trkpt><trkpt lat="-31.876795922505085" lon="116.32815173275138"><ele>287.0</ele><time>2026-04-05T06:06:12Z</time></trkpt><trkpt lat="-31.87674866100793" lon="116.32793750134356"><ele>287.0</ele><time>2026-04-05T06:06:13Z</time></trkpt><trkpt lat="-31.876632375641698" lon="116.32753817654597"><ele>287.0</ele><time>2026-04-05T06:06:15Z</time></trkpt><trkpt lat="-31.876552059809814" lon="116.32734700066261"><ele>285.33333333333337</ele><time>2026-04-05T06:06:16Z</time></trkpt><trkpt lat="-31.87645736685465" lon="116.32716062171626"><ele>283.6666666666667</ele><time>2026-04-05T06:06:17Z</time></trkpt><trkpt lat="-31.876352969115608" lon="116.32696693497316"><ele>282.0</ele><time>2026-04-05T06:06:18Z</time></trkpt><trkpt lat="-31.876245463308297" lon="116.32677466938138"><ele>282.0</ele><time>2026-04-05T06:06:19Z</time></trkpt><trkpt lat="-31.876130166153384" lon="116.32657831541583"><ele>282.0</ele><time>2026-04-05T06:06:20Z</time></trkpt><trkpt lat="-31.876013568729313" lon="116.32637796772339"><ele>282.0</ele><time>2026-04-05T06:06:21Z</time></trkpt><trkpt lat="-31.875888722358976" lon="116.326161198611"><ele>281.3333333333333</ele><time>2026-04-05T06:06:22Z</time></trkpt><trkpt lat="-31.87576521580216" lon="116.32593810987996"><ele>280.66666666666663</ele><time>2026-04-05T06:06:23Z</time></trkpt><trkpt lat="-31.875650205151544" lon="116.32572031605352"><ele>280.0</ele><time>2026-04-05T06:06:24Z</time></trkpt><trkpt lat="-31.87554718885235" lon="116.32550965152245"><ele>278.66666666666663</ele><time>2026-04-05T06:06:25Z</time></trkpt><trkpt lat="-31.875467807818133" lon="116.3253086029172"><ele>277.3333333333333</ele><time>2026-04-05T06:06:26Z</time></trkpt><trkpt lat="-31.875399105873925" lon="116.32509489152753"><ele>276.0</ele><time>2026-04-05T06:06:27Z</time></trkpt><trkpt lat="-31.87534386015548" lon="116.32486512338244"><ele>274.0</ele><time>2026-04-05T06:06:28Z</time></trkpt><trkpt lat="-31.875301828462103" lon="116.32462898823717"><ele>272.0</ele><time>2026-04-05T06:06:29Z</time></trkpt><trkpt lat="-31.87527168805644" lon="116.32438926740856"><ele>270.0</ele><time>2026-04-05T06:06:30Z</time></trkpt><trkpt lat="-31.875262309621657" lon="116.3241598683898"><ele>270.0</ele><time>2026-04-05T06:06:31Z</time></trkpt><trkpt lat="-31.87526971434356" lon="116.32394798185057"><ele>270.0</ele><time>2026-04-05T06:06:32Z</time></trkpt><trkpt lat="-31.875281915262278" lon="116.32374479885753"><ele>270.0</ele><time>2026-04-05T06:06:33Z</time></trkpt><trkpt lat="-31.875294223103722" lon="116.32354079951656"><ele>269.6666666666667</ele><time>2026-04-05T06:06:34Z</time></trkpt><trkpt lat="-31.87530675426112" lon="116.32334012044917"><ele>269.33333333333337</ele><time>2026-04-05T06:06:35Z</time></trkpt><trkpt lat="-31.875311945420698" lon="116.32314655051314"><ele>269.0</ele><time>2026-04-05T06:06:36Z</time></trkpt><trkpt lat="-31.875301302500077" lon="116.32294791900671"><ele>270.33333333333337</ele><time>2026-04-05T06:06:37Z</time></trkpt><trkpt lat="-31.875268902521746" lon="116.32273643185924"><ele>271.6666666666667</ele><time>2026-04-05T06:06:38Z</time></trkpt><trkpt lat="-31.87522261344058" lon="116.32252306856779"><ele>273.0</ele><time>2026-04-05T06:06:39Z</time></trkpt><trkpt lat="-31.875163634387278" lon="116.322316814697"><ele>273.3333333333333</ele><time>2026-04-05T06:06:40Z</time></trkpt><trkpt lat="-31.87509839182478" lon="116.32211794366431"><ele>273.66666666666663</ele><time>2026-04-05T06:06:41Z</time></trkpt><trkpt lat="-31.87503792140703" lon="116.32193079243334"><ele>274.0</ele><time>2026-04-05T06:06:42Z</time></trkpt><trkpt lat="-31.87499184381022" lon="116.32175668083639"><ele>274.0</ele><time>2026-04-05T06:06:43Z</time></trkpt><trkpt lat="-31.874954639111074" lon="116.32158968070456"><ele>274.0</ele><time>2026-04-05T06:06:44Z</time></trkpt><trkpt lat="-31.874921696130954" lon="116.32143455189936"><ele>274.0</ele><time>2026-04-05T06:06:45Z</time></trkpt><trkpt lat="-31.874884679736553" lon="116.32129584779186"><ele>274.0</ele><time>2026-04-05T06:06:46Z</time></trkpt><trkpt lat="-31.874842909228445" lon="116.32118413833705"><ele>274.0</ele><time>2026-04-05T06:06:47Z</time></trkpt><trkpt lat="-31.874809885645664" lon="116.32107126862434"><ele>274.0</ele><time>2026-04-05T06:06:48Z</time></trkpt><trkpt lat="-31.874783179816156" lon="116.32096505194095"><ele>274.0</ele><time>2026-04-05T06:06:49Z</time></trkpt><trkpt lat="-31.8747733714884" lon="116.32086387489049"><ele>274.0</ele><time>2026-04-05T06:06:50Z</time></trkpt><trkpt lat="-31.874801540324096" lon="116.32077927590517"><ele>274.0</ele><time>2026-04-05T06:06:51Z</time></trkpt><trkpt lat="-31.874860616352386" lon="116.320703701892"><ele>274.0</ele><time>2026-04-05T06:06:52Z</time></trkpt><trkpt lat="-31.874940444137668" lon="116.32064049682697"><ele>275.16666666666663</ele><time>2026-04-05T06:06:53Z</time></trkpt><trkpt lat="-31.874979078003737" lon="116.32054425441659"><ele>276.3333333333333</ele><time>2026-04-05T06:06:54Z</time></trkpt><trkpt lat="-31.875032843383455" lon="116.32047734152582"><ele>277.5</ele><time>2026-04-05T06:06:55Z</time></trkpt><trkpt lat="-31.87508782912169" lon="116.32041270628363"><ele>278.6666666666667</ele><time>2026-04-05T06:06:56Z</time></trkpt><trkpt lat="-31.87514488746092" lon="116.32035979236963"><ele>279.83333333333337</ele><time>2026-04-05T06:06:57Z</time></trkpt><trkpt lat="-31.87521839236282" lon="116.32030211056446"><ele>281.0</ele><time>2026-04-05T06:06:59Z</time></trkpt><trkpt lat="-31.87532709642226" lon="116.32041279697481"><ele>283.0</ele><time>2026-04-05T06:07:07Z</time></trkpt></trkseg></trk></gpx>